
Distance (Route):
Temperature : 19.8°C
Humidity : 70.7%
Pressure : 981.9hPa| Receiver | Frames | First received | Last received |
|---|---|---|---|
| BIOWL1-15 | 730 | 2026-08-30 04:57:58 | 2026-08-30 07:14:59 |
| DM0DOS-11 | 572 | 2026-08-30 04:58:16 | 2026-08-30 07:15:25 |
| DL1XH-west | 440 | 2026-08-30 05:41:24 | 2026-08-30 07:02:44 |
| HSKMA3-T | 314 | 2026-08-30 05:37:55 | 2026-08-30 07:03:39 |
| DL1XH1-15 | 301 | 2026-08-30 05:43:35 | 2026-08-30 07:02:37 |
| DO3MHA-11 | 212 | 2026-08-30 05:14:09 | 2026-08-30 07:11:26 |
| DL1XH-15 | 183 | 2026-08-30 05:58:45 | 2026-08-30 06:58:51 |
| AA1-15 | 170 | 2026-08-30 06:16:01 | 2026-08-30 06:58:00 |
| DB0UT-7 | 140 | 2026-08-30 04:37:24 | 2026-08-30 07:19:31 |
| DJ2DS-15 | 116 | 2026-08-30 05:25:22 | 2026-08-30 07:07:17 |
| DF8AY | 113 | 2026-08-30 06:21:59 | 2026-08-30 06:55:09 |
| DK5PH-5 | 109 | 2026-08-30 04:52:54 | 2026-08-30 07:18:23 |
| DB0NH | 93 | 2026-08-30 04:55:31 | 2026-08-30 07:18:13 |
| DB0UT-9 | 92 | 2026-08-30 04:37:19 | 2026-08-30 07:19:31 |
| DL1ZP-14 | 88 | 2026-08-30 04:52:26 | 2026-08-30 07:19:58 |
| CB1BUN | 75 | 2026-08-30 04:47:11 | 2026-08-30 07:12:41 |
| DL9PN | 71 | 2026-08-30 04:46:55 | 2026-08-30 07:08:52 |
| DO3DL | 71 | 2026-08-30 05:14:16 | 2026-08-30 07:07:41 |
| DF7PN | 69 | 2026-08-30 04:56:11 | 2026-08-30 07:19:33 |
| DM3KS-11 | 68 | 2026-08-30 04:48:50 | 2026-08-30 06:35:28 |
| NBG1-10 | 67 | 2026-08-30 05:13:46 | 2026-08-30 07:16:29 |
| DL4BBY-15 | 67 | 2026-08-30 05:25:10 | 2026-08-30 07:07:24 |
| HEMX73-11 | 59 | 2026-08-30 04:48:28 | 2026-08-30 07:07:03 |
| DF1GD-15 | 55 | 2026-08-30 04:54:02 | 2026-08-30 07:16:20 |
| BIOWL9-15 | 53 | 2026-08-30 04:59:58 | 2026-08-30 07:12:56 |
| DL8DAS-15 | 53 | 2026-08-30 05:14:05 | 2026-08-30 07:07:23 |
| DL8DAS-14 | 51 | 2026-08-30 05:10:15 | 2026-08-30 07:07:08 |
| BIOWL7-15 | 50 | 2026-08-30 04:59:24 | 2026-08-30 07:14:35 |
| DL3AQ-11 | 50 | 2026-08-30 05:47:00 | 2026-08-30 07:00:44 |
| DD1CC8 | 47 | 2026-08-30 05:19:08 | 2026-08-30 07:12:03 |
| AU51GT2 | 44 | 2026-08-30 05:13:49 | 2026-08-30 07:01:28 |
| DL0LBS | 44 | 2026-08-30 05:14:28 | 2026-08-30 07:16:35 |
| DO1YAY-16 | 43 | 2026-08-30 05:10:49 | 2026-08-30 07:06:21 |
| DF3TZ-5 | 41 | 2026-08-30 05:12:49 | 2026-08-30 07:08:42 |
| DJ2KF-10 | 39 | 2026-08-30 05:21:58 | 2026-08-30 06:58:33 |
| DM7RM-13 | 32 | 2026-08-30 05:14:43 | 2026-08-30 07:16:40 |
| IW2NTF | 29 | 2026-08-30 06:27:25 | 2026-08-30 06:53:06 |
| KANTATE | 28 | 2026-08-30 05:26:50 | 2026-08-30 07:13:06 |
| DC4HF-4 | 27 | 2026-08-30 05:36:50 | 2026-08-30 07:04:35 |
| SFWM-10 | 24 | 2026-08-30 05:22:32 | 2026-08-30 07:13:22 |
| DB0ND-19 | 24 | 2026-08-30 06:22:58 | 2026-08-30 07:19:51 |
| DH7VM-15 | 23 | 2026-08-30 04:55:54 | 2026-08-30 07:09:11 |
| SONDE2-11 | 22 | 2026-08-30 06:00:10 | 2026-08-30 06:52:27 |
| DL1KLB | 18 | 2026-08-30 06:00:18 | 2026-08-30 07:12:19 |
| SONCRA | 18 | 2026-08-30 06:11:19 | 2026-08-30 06:59:57 |
| DK7TD | 17 | 2026-08-30 06:38:26 | 2026-08-30 06:46:42 |
| DN1GJH-1 | 16 | 2026-08-30 05:37:24 | 2026-08-30 06:55:53 |
| EDDB2-11 | 15 | 2026-08-30 06:20:45 | 2026-08-30 06:55:24 |
| HTAHTA | 14 | 2026-08-30 06:04:53 | 2026-08-30 07:02:19 |
| EDDB2-12 | 14 | 2026-08-30 06:23:27 | 2026-08-30 06:59:39 |
| DD1CC2-15 | 13 | 2026-08-30 05:47:45 | 2026-08-30 06:55:27 |
| DO9LL-15 | 12 | 2026-08-30 05:24:00 | 2026-08-30 07:06:20 |
| BEGRI65-1 | 12 | 2026-08-30 05:40:12 | 2026-08-30 07:18:48 |
| DL8OAI-8 | 12 | 2026-08-30 05:44:49 | 2026-08-30 06:59:28 |
| DO2KSM | 11 | 2026-08-30 05:59:49 | 2026-08-30 07:02:15 |
| BUE01 | 10 | 2026-08-30 06:27:17 | 2026-08-30 06:53:41 |
| DJTTGO | 9 | 2026-08-30 05:47:44 | 2026-08-30 06:28:42 |
| SSTOLZ84 | 6 | 2026-08-30 06:18:49 | 2026-08-30 06:55:03 |
| OE5DRO-10 | 6 | 2026-08-30 06:41:48 | 2026-08-30 06:47:33 |
| AM1SDL-15 | 5 | 2026-08-30 05:51:02 | 2026-08-30 07:04:24 |
| DG1MJG | 4 | 2026-08-30 06:03:18 | 2026-08-30 06:38:07 |
| PG1ADW-2 | 4 | 2026-08-30 06:40:05 | 2026-08-30 06:44:18 |
| DJ3KS | 3 | 2026-08-30 05:22:51 | 2026-08-30 05:25:11 |
| D01LWL | 3 | 2026-08-30 06:39:58 | 2026-08-30 06:49:48 |
| HEMX73-6 | 2 | 2026-08-30 04:55:18 | 2026-08-30 04:58:59 |
| DL1CLM-18 | 2 | 2026-08-30 06:41:28 | 2026-08-30 06:43:24 |
| DL6DJ-15 | 1 | 2026-08-30 06:12:57 | 2026-08-30 06:12:57 |
| DL3OBA | 1 | 2026-08-30 06:38:23 | 2026-08-30 06:38:23 |
| Receiver | Date | Latitude | Longitude | Direction | Speed | Altitude | Climb | Temperature | Humidity | Pressure | Voltage | Killtimer | Uptime | BKT | XDATA |
|---|---|---|---|---|---|---|---|---|---|---|---|---|---|---|---|
| DL1ZP-14 | 2026-08-30 07:19:58 | 49.88193 | 8.75634 | 55° | 20km/h | 318m | -14.1m/s | 19.8°C | 70.7% | 981.9hPa | 2.7V | 00:00:00 | 00:00:00 | 00:00:00 | |
| DB0ND-19 | 2026-08-30 07:19:51 | 49.88193 | 8.75634 | 55° | 20km/h | 318m | -14.1m/s | 19.8°C | 70.7% | 981.9hPa | 2.6V | 00:00:00 | 00:00:00 | 00:00:00 | |
| DF7PN | 2026-08-30 07:19:33 | 49.88193 | 8.75634 | 55° | 20km/h | 318m | -14.1m/s | 19.8°C | 70.7% | 981.9hPa | 2.6V | 00:00:00 | 00:00:00 | 00:00:00 | |
| DB0UT-9 | 2026-08-30 07:19:31 | 49.88193 | 8.75634 | 56° | 20km/h | 319m | -14.1m/s | 19.8°C | 70.7% | 981.9hPa | 2.6V | 00:00:00 | 00:00:00 | 00:00:00 | |
| DB0UT-7 | 2026-08-30 07:19:31 | 49.88189 | 8.75628 | 43° | 24km/h | 332m | -13.9m/s | 19.5°C | 71.0% | 980.2hPa | 2.6V | 00:00:00 | 00:00:00 | 00:00:00 | |
| DL1ZP-14 | 2026-08-30 07:19:27 | 49.88174 | 8.75601 | 58° | 20km/h | 385m | -14.0m/s | 19.1°C | 73.1% | 974.6hPa | 2.6V | 00:00:00 | 00:00:00 | 00:00:00 | |
| DB0UT-7 | 2026-08-30 07:19:26 | 49.88171 | 8.75593 | 58° | 22km/h | 399m | -14.6m/s | 18.9°C | 73.4% | 973.2hPa | 2.7V | 00:00:00 | 02:49:27 | 00:00:00 | |
| DB0UT-7 | 2026-08-30 07:19:21 | 49.88152 | 8.75560 | 50° | 26km/h | 467m | -13.9m/s | 18.1°C | 75.9% | 965.6hPa | 2.7V | 02:28:00 | 00:00:00 | 00:00:00 | |
| DB0ND-19 | 2026-08-30 07:19:20 | 49.88148 | 8.75553 | 45° | 27km/h | 480m | -12.7m/s | 18.1°C | 76.8% | 964.1hPa | 2.6V | 00:00:00 | 00:00:00 | 00:00:00 | |
| DB0UT-7 | 2026-08-30 07:19:16 | 49.88133 | 8.75518 | 59° | 29km/h | 532m | -14.2m/s | 17.5°C | 78.4% | 958.4hPa | 2.6V | 00:00:00 | 02:49:17 | 00:00:00 | |
| DB0UT-9 | 2026-08-30 07:19:11 | 49.88117 | 8.75479 | 63° | 33km/h | 585m | -13.0m/s | 17.0°C | 81.2% | 952.5hPa | 2.6V | 00:00:00 | 00:00:00 | 00:00:00 | |
| DB0UT-7 | 2026-08-30 07:19:11 | 49.88112 | 8.75468 | 55° | 35km/h | 598m | -13.7m/s | 16.8°C | 81.5% | 951.1hPa | 2.6V | 00:00:00 | 00:00:00 | 00:00:00 | |
| DF7PN | 2026-08-30 07:19:02 | 49.88067 | 8.75341 | 66° | 35km/h | 740m | -14.1m/s | 15.4°C | 87.4% | 935.2hPa | 2.6V | 00:00:00 | 00:00:00 | 00:00:00 | |
| DL1ZP-14 | 2026-08-30 07:18:56 | 49.88046 | 8.75273 | 60° | 37km/h | 807m | -12.7m/s | 14.7°C | 90.1% | 928.1hPa | 2.6V | 00:00:00 | 00:00:00 | 00:00:00 | |
| DB0ND-19 | 2026-08-30 07:18:49 | 49.88013 | 8.75179 | 65° | 46km/h | 897m | -12.1m/s | 13.8°C | 92.7% | 918.1hPa | 2.7V | 00:00:00 | 00:00:00 | 00:00:00 | |
| BEGRI65-1 | 2026-08-30 07:18:48 | 49.88013 | 8.75179 | 67° | 46km/h | 897m | -12.1m/s | 13.9°C | 92.6% | 918.1hPa | 2.7V | 02:29:00 | 00:00:00 | 00:00:00 | |
| DB0UT-7 | 2026-08-30 07:18:47 | 49.88003 | 8.75147 | 64° | 46km/h | 921m | -12.5m/s | 13.6°C | 92.7% | 915.2hPa | 2.7V | 00:00:00 | 02:48:48 | 00:00:00 | |
| DB0UT-9 | 2026-08-30 07:18:42 | 49.87980 | 8.75084 | 61° | 46km/h | 977m | -14.1m/s | 13.1°C | 96.1% | 909.7hPa | 2.7V | 02:29:00 | 00:00:00 | 00:00:00 | |
| DB0UT-7 | 2026-08-30 07:18:42 | 49.87975 | 8.75069 | 60° | 51km/h | 991m | -13.3m/s | 12.9°C | 96.2% | 908.0hPa | 2.7V | 02:29:00 | 00:00:00 | 00:00:00 | |
| DB0UT-7 | 2026-08-30 07:18:34 | 49.87929 | 8.74922 | 71° | 55km/h | 1104m | -14.4m/s | 12.2°C | 94.0% | 896.0hPa | 2.7V | 00:00:00 | 02:48:35 | 00:00:00 | |
| DF7PN | 2026-08-30 07:18:31 | 49.87913 | 8.74843 | 76° | 53km/h | 1165m | -15.5m/s | 11.8°C | 94.5% | 889.5hPa | 2.7V | 00:00:00 | 00:00:00 | 00:00:00 | |
| BEGRI65-1 | 2026-08-30 07:18:27 | 49.87906 | 8.74801 | 79° | 57km/h | 1195m | -15.3m/s | 11.7°C | 93.6% | 886.5hPa | 2.7V | 02:29:00 | 00:00:00 | 00:00:00 | |
| DL1ZP-14 | 2026-08-30 07:18:25 | 49.87893 | 8.74713 | 77° | 58km/h | 1253m | -15.6m/s | 11.5°C | 89.0% | 880.2hPa | 2.7V | 00:00:00 | 00:00:00 | 00:00:00 | |
| DB0UT-7 | 2026-08-30 07:18:24 | 49.87892 | 8.74713 | 78° | 58km/h | 1253m | -15.5m/s | 11.4°C | 88.7% | 880.2hPa | 2.6V | 00:00:00 | 00:00:00 | 00:00:00 | |
| DK5PH-5 | 2026-08-30 07:18:23 | 49.87889 | 8.74691 | 77° | 58km/h | 1269m | -15.4m/s | 11.3°C | 89.1% | 878.7hPa | 2.6V | 02:29:00 | 02:48:24 | 00:00:00 | |
| DB0UT-9 | 2026-08-30 07:18:22 | 49.87889 | 8.74691 | 77° | 57km/h | 1269m | -15.5m/s | 11.4°C | 89.4% | 878.7hPa | 2.6V | 02:29:00 | 00:00:00 | 00:00:00 | |
| DB0UT-7 | 2026-08-30 07:18:14 | 49.87862 | 8.74490 | 76° | 57km/h | 1403m | -15.4m/s | 10.4°C | 88.9% | 864.8hPa | 2.6V | 02:29:00 | 02:48:15 | 00:00:00 | |
| DB0NH | 2026-08-30 07:18:13 | 49.87858 | 8.74468 | 76° | 57km/h | 1418m | -15.2m/s | 10.3°C | 88.9% | 863.1hPa | 2.7V | 00:00:00 | 02:48:14 | 00:00:00 | |
| DK5PH-5 | 2026-08-30 07:18:13 | 49.87858 | 8.74468 | 76° | 57km/h | 1418m | -15.2m/s | 10.3°C | 88.9% | 863.1hPa | 2.7V | 00:00:00 | 02:48:14 | 00:00:00 | |
| DB0UT-7 | 2026-08-30 07:18:04 | 49.87829 | 8.74272 | 80° | 57km/h | 1543m | -15.7m/s | 9.6°C | 85.9% | 850.3hPa | 2.7V | 00:00:00 | 00:00:00 | 00:00:00 | |
| DF7PN | 2026-08-30 07:18:00 | 49.87815 | 8.74163 | 79° | 55km/h | 1614m | -14.2m/s | 9.1°C | 87.6% | 842.7hPa | 2.7V | 00:00:00 | 00:00:00 | 00:00:00 | |
| DL1ZP-14 | 2026-08-30 07:17:54 | 49.87798 | 8.74032 | 77° | 58km/h | 1700m | -15.4m/s | 8.4°C | 88.8% | 834.2hPa | 2.7V | 00:00:00 | 00:00:00 | 00:00:00 | |
| DB0ND-19 | 2026-08-30 07:17:47 | 49.87778 | 8.73899 | 76° | 57km/h | 1787m | -14.1m/s | 7.5°C | 90.9% | 825.4hPa | 2.6V | 00:00:00 | 00:00:00 | 00:00:00 | |
| BEGRI65-1 | 2026-08-30 07:17:46 | 49.87778 | 8.73899 | 78° | 58km/h | 1787m | -14.1m/s | 7.5°C | 90.9% | 825.4hPa | 2.6V | 02:30:00 | 00:00:00 | 00:00:00 | |
| DB0UT-7 | 2026-08-30 07:17:44 | 49.87768 | 8.73831 | 78° | 62km/h | 1830m | -15.7m/s | 7.3°C | 89.9% | 821.2hPa | 2.6V | 02:30:00 | 00:00:00 | 00:00:00 | |
| DB0NH | 2026-08-30 07:17:43 | 49.87765 | 8.73808 | 81° | 64km/h | 1845m | -14.9m/s | 7.3°C | 86.8% | 819.6hPa | 2.6V | 00:00:00 | 02:47:44 | 00:00:00 | |
| DK5PH-5 | 2026-08-30 07:17:43 | 49.87765 | 8.73808 | 81° | 64km/h | 1845m | -14.9m/s | 7.3°C | 86.8% | 819.6hPa | 2.6V | 00:00:00 | 02:47:44 | 00:00:00 | |
| DB0UT-9 | 2026-08-30 07:17:41 | 49.87762 | 8.73785 | 79° | 60km/h | 1860m | -15.3m/s | 7.3°C | 85.6% | 818.1hPa | 2.6V | 00:00:00 | 00:00:00 | 00:00:00 | |
| DB0UT-7 | 2026-08-30 07:17:34 | 49.87737 | 8.73590 | 78° | 69km/h | 1974m | -14.4m/s | 7.2°C | 75.8% | 806.7hPa | 2.6V | 00:00:00 | 02:47:35 | 00:00:00 | |
| DK5PH-5 | 2026-08-30 07:17:33 | 49.87733 | 8.73564 | 77° | 71km/h | 1989m | -15.3m/s | 7.4°C | 70.0% | 805.5hPa | 2.6V | 00:00:00 | 02:47:34 | 00:00:00 | |
| DB0NH | 2026-08-30 07:17:33 | 49.87733 | 8.73564 | 77° | 69km/h | 1989m | -15.3m/s | 7.4°C | 70.0% | 805.5hPa | 2.6V | 00:00:00 | 02:47:34 | 00:00:00 | |
| DF7PN | 2026-08-30 07:17:29 | 49.87716 | 8.73431 | 78° | 69km/h | 2064m | -14.3m/s | 7.9°C | 55.9% | 798.2hPa | 2.6V | 00:00:00 | 00:00:00 | 00:00:00 | |
| BEGRI65-1 | 2026-08-30 07:17:26 | 49.87712 | 8.73403 | 79° | 71km/h | 2078m | -15.5m/s | 7.9°C | 54.5% | 796.8hPa | 2.6V | 02:30:00 | 00:00:00 | 00:00:00 | |
| DL1ZP-14 | 2026-08-30 07:17:23 | 49.87692 | 8.73268 | 76° | 69km/h | 2153m | -15.1m/s | 7.8°C | 45.8% | 789.5hPa | 2.6V | 00:00:00 | 00:00:00 | 00:00:00 | |
| DB0UT-9 | 2026-08-30 07:17:20 | 49.87687 | 8.73241 | 77° | 71km/h | 2168m | -14.8m/s | 7.7°C | 46.9% | 788.0hPa | 2.7V | 02:31:00 | 00:00:00 | 00:00:00 | |
| DB0NH | 2026-08-30 07:17:18 | 49.87675 | 8.73161 | 77° | 69km/h | 2212m | -14.3m/s | 7.3°C | 47.8% | 783.6hPa | 2.7V | 02:30:00 | 02:47:19 | 00:00:00 | |
| DB0ND-19 | 2026-08-30 07:17:16 | 49.87667 | 8.73107 | 76° | 69km/h | 2241m | -14.7m/s | 7.2°C | 48.2% | 781.1hPa | 2.7V | 00:00:00 | 00:00:00 | 00:00:00 | |
| DK5PH-5 | 2026-08-30 07:17:14 | 49.87658 | 8.73053 | 78° | 68km/h | 2270m | -14.8m/s | 7.0°C | 46.0% | 778.3hPa | 2.7V | 02:30:00 | 02:47:15 | 00:00:00 | |
| BEGRI65-1 | 2026-08-30 07:17:05 | 49.87624 | 8.72845 | 76° | 69km/h | 2385m | -15.5m/s | 6.9°C | 37.9% | 767.6hPa | 2.7V | 02:31:00 | 00:00:00 | 00:00:00 | |
| DB0UT-7 | 2026-08-30 07:17:04 | 49.87614 | 8.72793 | 75° | 68km/h | 2413m | -14.1m/s | 6.7°C | 37.1% | 764.8hPa | 2.7V | 02:30:00 | 02:47:05 | 00:00:00 | |
| DF7PN | 2026-08-30 07:16:58 | 49.87582 | 8.72613 | 75° | 68km/h | 2512m | -14.0m/s | 5.9°C | 38.3% | 755.6hPa | 2.7V | 00:00:00 | 00:00:00 | 00:00:00 | |
| DL1ZP-14 | 2026-08-30 07:16:52 | 49.87555 | 8.72462 | 75° | 66km/h | 2598m | -14.7m/s | 5.6°C | 36.6% | 748.0hPa | 2.7V | 00:00:00 | 00:00:00 | 00:00:00 | |
| DB0ND-19 | 2026-08-30 07:16:45 | 49.87524 | 8.72310 | 72° | 68km/h | 2680m | -14.0m/s | 5.1°C | 38.1% | 740.4hPa | 2.6V | 00:00:00 | 00:00:00 | 00:00:00 | |
| DB0UT-7 | 2026-08-30 07:16:44 | 49.87519 | 8.72285 | 70° | 66km/h | 2694m | -13.5m/s | 5.0°C | 36.3% | 739.1hPa | 2.6V | 00:00:00 | 00:00:00 | 00:00:00 | |
| DM7RM-13 | 2026-08-30 07:16:40 | 49.87502 | 8.72208 | 73° | 68km/h | 2735m | -13.2m/s | 4.9°C | 33.7% | 735.3hPa | 2.6V | 00:00:00 | 00:00:00 | 00:00:00 | |
| DB0NH | 2026-08-30 07:16:38 | 49.87487 | 8.72134 | 74° | 66km/h | 2776m | -14.5m/s | 4.6°C | 31.3% | 731.8hPa | 2.6V | 00:00:00 | 02:46:39 | 00:00:00 | |
| DL0LBS | 2026-08-30 07:16:35 | 49.87476 | 8.72085 | 72° | 66km/h | 2804m | -15.6m/s | 4.5°C | 29.8% | 729.3hPa | 2.6V | 02:31:00 | 00:00:00 | 00:00:00 | |
| DK5PH-5 | 2026-08-30 07:16:34 | 49.87465 | 8.72036 | 73° | 66km/h | 2833m | -13.3m/s | 4.3°C | 28.7% | 726.4hPa | 2.6V | 00:00:00 | 02:46:35 | 00:00:00 | |
| NBG1-10 | 2026-08-30 07:16:29 | 49.87438 | 8.71917 | 73° | 66km/h | 2903m | -14.1m/s | 4.0°C | 26.1% | 720.3hPa | 2.6V | 00:00:00 | 02:46:30 | 00:00:00 | |
| DF7PN | 2026-08-30 07:16:27 | 49.87422 | 8.71845 | 74° | 66km/h | 2944m | -14.2m/s | 4.0°C | 24.5% | 716.7hPa | 2.6V | 00:00:00 | 00:00:00 | 00:00:00 | |
| DB0UT-7 | 2026-08-30 07:16:24 | 49.87413 | 8.71795 | 75° | 66km/h | 2972m | -13.6m/s | 4.1°C | 21.1% | 714.1hPa | 2.6V | 00:00:00 | 02:46:25 | 00:00:00 | |
| DF1GD-15 | 2026-08-30 07:16:20 | 49.87399 | 8.71719 | 74° | 66km/h | 3013m | -13.6m/s | 4.1°C | 15.4% | 710.6hPa | 2.6V | 02:32:00 | 00:00:00 | 00:00:00 | |
| DB0NH | 2026-08-30 07:16:18 | 49.87385 | 8.71646 | 77° | 66km/h | 3055m | -15.5m/s | 3.9°C | 15.5% | 706.9hPa | 2.6V | 02:31:00 | 02:46:19 | 00:00:00 | |
| DL0LBS | 2026-08-30 07:16:15 | 49.87377 | 8.71596 | 79° | 68km/h | 3084m | -14.9m/s | 3.9°C | 16.5% | 704.4hPa | 2.7V | 02:32:00 | 00:00:00 | 00:00:00 | |
| DK5PH-5 | 2026-08-30 07:16:14 | 49.87370 | 8.71545 | 78° | 66km/h | 3111m | -12.4m/s | 3.6°C | 16.5% | 701.9hPa | 2.7V | 02:31:00 | 02:46:15 | 00:00:00 | |
| NBG1-10 | 2026-08-30 07:16:05 | 49.87343 | 8.71318 | 82° | 66km/h | 3235m | -13.7m/s | 2.8°C | 15.5% | 691.6hPa | 2.6V | 02:31:00 | 02:46:06 | 00:00:00 | |
| DB0UT-7 | 2026-08-30 07:16:04 | 49.87340 | 8.71292 | 83° | 66km/h | 3248m | -14.0m/s | 2.8°C | 15.2% | 690.4hPa | 2.7V | 02:31:00 | 00:00:00 | 00:00:00 | |
| BEGRI65-1 | 2026-08-30 07:16:03 | 49.87340 | 8.71292 | 83° | 66km/h | 3248m | -14.1m/s | 2.8°C | 15.2% | 690.5hPa | 2.6V | 02:32:00 | 00:00:00 | 00:00:00 | |
| DF7PN | 2026-08-30 07:15:55 | 49.87321 | 8.71063 | 83° | 66km/h | 3372m | -13.4m/s | 3.7°C | 8.3% | 680.2hPa | 2.6V | 00:00:00 | 00:00:00 | 00:00:00 | |
| DL1ZP-14 | 2026-08-30 07:15:49 | 49.87310 | 8.70912 | 84° | 62km/h | 3454m | -14.9m/s | 3.2°C | 8.6% | 673.4hPa | 2.6V | 00:00:00 | 00:00:00 | 00:00:00 | |
| DB0ND-19 | 2026-08-30 07:15:43 | 49.87299 | 8.70763 | 83° | 64km/h | 3536m | -14.4m/s | 2.5°C | 8.7% | 666.5hPa | 2.6V | 00:00:00 | 00:00:00 | 00:00:00 | |
| DF1GD-15 | 2026-08-30 07:15:39 | 49.87293 | 8.70686 | 84° | 66km/h | 3580m | -15.1m/s | 2.2°C | 8.6% | 662.9hPa | 2.6V | 02:32:00 | 00:00:00 | 00:00:00 | |
| DB0UT-9 | 2026-08-30 07:15:36 | 49.87287 | 8.70608 | 83° | 66km/h | 3626m | -14.2m/s | 1.9°C | 8.3% | 659.1hPa | 2.6V | 02:32:00 | 00:00:00 | 00:00:00 | |
| DB0UT-7 | 2026-08-30 07:15:34 | 49.87280 | 8.70530 | 82° | 66km/h | 3671m | -15.0m/s | 1.9°C | 6.3% | 655.5hPa | 2.6V | 00:00:00 | 02:45:35 | 00:00:00 | |
| DM7RM-13 | 2026-08-30 07:15:33 | 49.87280 | 8.70530 | 83° | 68km/h | 3671m | -15.0m/s | 1.9°C | 6.3% | 655.5hPa | 2.6V | 02:32:00 | 00:00:00 | 00:00:00 | |
| NBG1-10 | 2026-08-30 07:15:32 | 49.87275 | 8.70478 | 81° | 66km/h | 3702m | -14.4m/s | 1.9°C | 5.0% | 652.9hPa | 2.6V | 00:00:00 | 02:45:33 | 00:00:00 | |
| DM0DOS-11 | 2026-08-30 07:15:25 | 49.87239 | 8.70177 | 79° | 66km/h | 3876m | -14.4m/s | 0.6°C | 9.6% | 639hPa | 2.6V | 02:32:26 | 02:45:21 | 00:00:00 | |
| DF7PN | 2026-08-30 07:15:24 | 49.87250 | 8.70276 | 80° | 64km/h | 3819m | -15.4m/s | 1.0°C | 6.6% | 643.5hPa | 2.6V | 00:00:00 | 00:00:00 | 00:00:00 | |
| BEGRI65-1 | 2026-08-30 07:15:23 | 49.87251 | 8.70276 | 81° | 64km/h | 3819m | -15.4m/s | 1.0°C | 6.6% | 643.6hPa | 2.6V | 02:32:00 | 00:00:00 | 00:00:00 | |
| DM0DOS-11 | 2026-08-30 07:15:20 | 49.87222 | 8.70027 | 79° | 66km/h | 3959m | -14.8m/s | 0.3°C | 10.9% | 632.3hPa | 2.6V | 02:32:32 | 02:45:15 | 00:00:00 | |
| DF1GD-15 | 2026-08-30 07:15:19 | 49.87236 | 8.70152 | 82° | 64km/h | 3890m | -14.1m/s | 0.5°C | 9.6% | 637.7hPa | 2.7V | 02:32:00 | 00:00:00 | 00:00:00 | |
| DL1ZP-14 | 2026-08-30 07:15:18 | 49.87233 | 8.70127 | 79° | 64km/h | 3904m | -13.8m/s | 0.4°C | 9.4% | 636.7hPa | 2.7V | 00:00:00 | 00:00:00 | 00:00:00 | |
| DB0UT-9 | 2026-08-30 07:15:15 | 49.87227 | 8.70077 | 82° | 66km/h | 3932m | -14.3m/s | 0.5°C | 7.0% | 634.5hPa | 2.6V | 02:32:00 | 00:00:00 | 00:00:00 | |
| DM0DOS-11 | 2026-08-30 07:15:14 | 49.87206 | 8.69897 | 80° | 69km/h | 4029m | -13.8m/s | -0.1°C | 14.5% | 626.7hPa | 2.6V | 02:32:37 | 02:45:10 | 00:00:00 | |
| BIOWL1-15 | 2026-08-30 07:14:59 | 49.87165 | 8.69568 | 79° | 71km/h | 4196m | -13.9m/s | -1.3°C | 13.8% | 613.8hPa | 2.6V | 02:32:53 | 02:44:58 | 00:00:00 | |
| DM0DOS-11 | 2026-08-30 07:14:58 | 49.87152 | 8.69458 | 81° | 66km/h | 4253m | -14.4m/s | -1.7°C | 11.2% | 609.5hPa | 2.6V | 02:32:53 | 02:44:54 | 00:00:00 | |
| DF7PN | 2026-08-30 07:14:53 | 49.87152 | 8.69458 | 81° | 66km/h | 4253m | -14.4m/s | -1.7°C | 11.1% | 609.5hPa | 2.7V | 00:00:00 | 00:00:00 | 00:00:00 | |
| DL0LBS | 2026-08-30 07:14:52 | 49.87152 | 8.69458 | 82° | 66km/h | 4253m | -14.4m/s | -1.7°C | 11.1% | 609.5hPa | 2.7V | 02:32:00 | 00:00:00 | 00:00:00 | |
| DM0DOS-11 | 2026-08-30 07:14:51 | 49.87128 | 8.69279 | 79° | 68km/h | 4354m | -14.9m/s | -2.2°C | 8.2% | 601.8hPa | 2.7V | 02:33:00 | 02:44:47 | 00:00:00 | |
| BIOWL1-15 | 2026-08-30 07:14:47 | 49.87132 | 8.69305 | 78° | 68km/h | 4340m | -13.6m/s | -2.2°C | 11.5% | 602.7hPa | 2.6V | 02:33:44 | 02:44:48 | 00:00:00 | |
| DK5PH-5 | 2026-08-30 07:14:44 | 49.87121 | 8.69227 | 78° | 71km/h | 4384m | -14.3m/s | -2.3°C | 9.3% | 599.4hPa | 2.7V | 02:33:00 | 02:44:45 | 00:00:00 | |
| BEGRI65-1 | 2026-08-30 07:14:42 | 49.87118 | 8.69201 | 80° | 69km/h | 4398m | -14.5m/s | -2.5°C | 9.6% | 598.3hPa | 2.6V | 02:33:00 | 00:00:00 | 00:00:00 | |
| DM0DOS-11 | 2026-08-30 07:14:41 | 49.87094 | 8.69016 | 79° | 69km/h | 4497m | -15m/s | -3.2°C | 12.8% | 590.8hPa | 2.6V | 02:33:10 | 02:44:37 | 00:00:00 | |
| BIOWL1-15 | 2026-08-30 07:14:36 | 49.87094 | 8.69016 | 80° | 69km/h | 4497m | -15m/s | -3.2°C | 15.2% | 590.8hPa | 2.6V | 02:33:44 | 02:44:37 | 00:00:00 | |
| BIOWL7-15 | 2026-08-30 07:14:35 | 49.87094 | 8.69016 | 81° | 69km/h | 4497m | -15.0m/s | -3.2°C | 12.6% | 590.8hPa | 2.7V | 00:00:00 | 00:00:00 | 00:00:00 | |
| DB0UT-7 | 2026-08-30 07:14:34 | 49.87088 | 8.68962 | 79° | 71km/h | 4525m | -14.7m/s | -3.3°C | 12.5% | 588.7hPa | 2.7V | 02:33:00 | 02:44:35 | 00:00:00 | |
| DL0LBS | 2026-08-30 07:14:32 | 49.87084 | 8.68936 | 79° | 68km/h | 4540m | -14.8m/s | -3.5°C | 13.1% | 587.8hPa | 2.7V | 02:33:00 | 00:00:00 | 00:00:00 | |
| DM7RM-13 | 2026-08-30 07:14:31 | 49.87080 | 8.68910 | 80° | 71km/h | 4554m | -14.6m/s | -3.7°C | 13.5% | 586.7hPa | 2.7V | 02:33:00 | 00:00:00 | 00:00:00 | |
| DM0DOS-11 | 2026-08-30 07:14:30 | 49.87058 | 8.68716 | 80° | 71km/h | 4659m | -15.4m/s | -4.3°C | 12.3% | 578.9hPa | 2.7V | 02:33:21 | 02:44:26 | 00:00:00 | |
| BIOWL1-15 | 2026-08-30 07:14:27 | 49.87058 | 8.68716 | 80° | 71km/h | 4659m | -15.4m/s | -4.3°C | 14.6% | 578.9hPa | 2.7V | 02:33:44 | 02:44:26 | 00:00:00 | |
| NBG1-10 | 2026-08-30 07:14:26 | 49.87061 | 8.68744 | 81° | 71km/h | 4644m | -15.1m/s | -4.2°C | 12.2% | 580.0hPa | 2.6V | 02:33:00 | 02:44:27 | 00:00:00 | |
| DF7PN | 2026-08-30 07:14:22 | 49.87047 | 8.68633 | 78° | 71km/h | 4702m | -14.6m/s | -4.7°C | 12.0% | 575.6hPa | 2.6V | 00:00:00 | 00:00:00 | 00:00:00 | |
| BEGRI65-1 | 2026-08-30 07:14:21 | 49.87047 | 8.68633 | 79° | 73km/h | 4702m | -14.6m/s | -4.7°C | 12.0% | 575.6hPa | 2.6V | 02:33:00 | 00:00:00 | 00:00:00 | |
| DM0DOS-11 | 2026-08-30 07:14:20 | 49.87023 | 8.68439 | 79° | 73km/h | 4806m | -15.7m/s | -5.5°C | 12.3% | 568.2hPa | 2.6V | 02:33:31 | 02:44:16 | 00:00:00 | |
| BIOWL1-15 | 2026-08-30 07:14:15 | 49.87023 | 8.68439 | 80° | 73km/h | 4806m | -15.7m/s | -5.5°C | 14.6% | 568.2hPa | 2.6V | 02:33:44 | 02:44:16 | 00:00:00 | |
| DB0NH | 2026-08-30 07:14:14 | 49.87020 | 8.68410 | 81° | 71km/h | 4821m | -15.6m/s | -5.6°C | 12.3% | 567.1hPa | 2.6V | 00:00:00 | 02:44:15 | 00:00:00 | |
| DB0UT-9 | 2026-08-30 07:14:13 | 49.87020 | 8.68410 | 82° | 75km/h | 4821m | -15.6m/s | -5.6°C | 12.1% | 567.1hPa | 2.6V | 02:33:00 | 00:00:00 | 00:00:00 | |
| DM0DOS-11 | 2026-08-30 07:14:10 | 49.86991 | 8.68162 | 79° | 71km/h | 4955m | -14.5m/s | -6.7°C | 16.1% | 557.5hPa | 2.6V | 02:33:41 | 02:44:06 | 00:00:00 | |
| BIOWL1-15 | 2026-08-30 07:14:06 | 49.86988 | 8.68134 | 81° | 73km/h | 4970m | -15.2m/s | -6.7°C | 17.1% | 556.3hPa | 2.6V | 02:33:44 | 02:44:05 | 00:00:00 | |
| DB0UT-7 | 2026-08-30 07:14:04 | 49.86988 | 8.68134 | 81° | 71km/h | 4970m | -15.1m/s | -6.6°C | 14.4% | 556.3hPa | 2.6V | 00:00:00 | 00:00:00 | 00:00:00 | |
| DM0DOS-11 | 2026-08-30 07:14:03 | 49.86969 | 8.67971 | 78° | 69km/h | 5057m | -14.7m/s | -7.1°C | 10.9% | 550.1hPa | 2.6V | 02:33:48 | 02:43:59 | 00:00:00 | |
| BIOWL1-15 | 2026-08-30 07:13:58 | 49.86954 | 8.67864 | 78° | 71km/h | 5117m | -15.3m/s | -7.4°C | 12.5% | 546hPa | 2.6V | 02:34:35 | 02:43:55 | 00:00:00 | |
| DF7PN | 2026-08-30 07:13:51 | 49.86944 | 8.67783 | 78° | 69km/h | 5161m | -14.8m/s | -7.7°C | 10.7% | 542.9hPa | 2.6V | 00:00:00 | 00:00:00 | 00:00:00 | |
| DL1ZP-14 | 2026-08-30 07:13:45 | 49.86924 | 8.67615 | 80° | 71km/h | 5247m | -14.7m/s | -8.0°C | 8.5% | 536.9hPa | 2.6V | 00:00:00 | 00:00:00 | 00:00:00 | |
| BIOWL1-15 | 2026-08-30 07:13:43 | 49.86917 | 8.67557 | 79° | 73km/h | 5276m | -15m/s | -8.1°C | 9.5% | 535hPa | 2.6V | 02:34:35 | 02:43:44 | 00:00:00 | |
| BIOWL1-15 | 2026-08-30 07:13:32 | 49.86881 | 8.67245 | 82° | 73km/h | 5440m | -15m/s | -9.4°C | 14.3% | 523.7hPa | 2.6V | 02:34:35 | 02:43:33 | 00:00:00 | |
| DF1GD-15 | 2026-08-30 07:13:31 | 49.86881 | 8.67245 | 83° | 73km/h | 5440m | -15.0m/s | -9.4°C | 11.9% | 523.7hPa | 2.7V | 02:34:00 | 00:00:00 | 00:00:00 | |
| DM0DOS-11 | 2026-08-30 07:13:30 | 49.86865 | 8.67048 | 84° | 73km/h | 5541m | -14.7m/s | -9.9°C | 12% | 516.9hPa | 2.7V | 02:34:21 | 02:43:26 | 00:00:00 | |
| BIOWL1-15 | 2026-08-30 07:13:23 | 49.86859 | 8.66931 | 85° | 75km/h | 5598m | -13.4m/s | -9.8°C | 10.4% | 513hPa | 2.6V | 02:34:35 | 02:43:22 | 00:00:00 | |
| SFWM-10 | 2026-08-30 07:13:22 | 49.86862 | 8.66989 | 88° | 75km/h | 5570m | -13.8m/s | -9.8°C | 9.3% | 514.8hPa | 2.6V | 00:00:00 | 00:00:00 | 00:00:00 | |
| NBG1-10 | 2026-08-30 07:13:20 | 49.86858 | 8.66902 | 85° | 73km/h | 5611m | -12.7m/s | -9.8°C | 12.8% | 512.0hPa | 2.6V | 00:00:00 | 02:43:21 | 00:00:00 | |
| BEGRI65-1 | 2026-08-30 07:13:19 | 49.86858 | 8.66902 | 86° | 73km/h | 5611m | -12.8m/s | -9.8°C | 12.4% | 512.1hPa | 2.6V | 02:34:00 | 00:00:00 | 00:00:00 | |
| DK5PH-5 | 2026-08-30 07:13:14 | 49.86848 | 8.66730 | 85° | 71km/h | 5682m | -10.8m/s | -10.4°C | 15.8% | 507.2hPa | 2.6V | 02:34:00 | 02:43:15 | 00:00:00 | |
| DB0NH | 2026-08-30 07:13:13 | 49.86846 | 8.66701 | 85° | 71km/h | 5693m | -11.1m/s | -10.4°C | 14.8% | 506.4hPa | 2.7V | 02:34:00 | 02:43:14 | 00:00:00 | |
| DB0UT-9 | 2026-08-30 07:13:11 | 49.86845 | 8.66672 | 85° | 73km/h | 5704m | -11.1m/s | -10.6°C | 15.3% | 505.8hPa | 2.6V | 02:34:00 | 00:00:00 | 00:00:00 | |
| DM0DOS-11 | 2026-08-30 07:13:10 | 49.86828 | 8.66473 | 82° | 73km/h | 5780m | -11m/s | -11.2°C | 17.4% | 500.9hPa | 2.6V | 02:34:41 | 02:43:06 | 00:00:00 | |
| BIOWL1-15 | 2026-08-30 07:13:10 | 49.86840 | 8.66615 | 84° | 75km/h | 5725m | -10.9m/s | -10.8°C | 19.2% | 504.4hPa | 2.6V | 02:35:26 | 02:43:11 | 00:00:00 | |
| DF1GD-15 | 2026-08-30 07:13:09 | 49.86840 | 8.66615 | 85° | 75km/h | 5725m | -10.9m/s | -10.8°C | 15.6% | 504.4hPa | 2.6V | 02:35:00 | 00:00:00 | 00:00:00 | |
| DM7RM-13 | 2026-08-30 07:13:07 | 49.86835 | 8.66558 | 83° | 73km/h | 5747m | -11.3m/s | -10.9°C | 14.6% | 503.0hPa | 2.6V | 02:35:00 | 00:00:00 | 00:00:00 | |
| KANTATE | 2026-08-30 07:13:06 | 49.86833 | 8.66530 | 85° | 73km/h | 5758m | -11.2m/s | -11.0°C | 15.1% | 502.3hPa | 2.6V | 02:35:00 | 00:00:00 | 00:00:00 | |
| DB0UT-7 | 2026-08-30 07:13:04 | 49.86825 | 8.66445 | 83° | 71km/h | 5790m | -10.6m/s | -11.2°C | 17.8% | 500.1hPa | 2.6V | 02:34:00 | 00:00:00 | 00:00:00 | |
| DM0DOS-11 | 2026-08-30 07:13:00 | 49.86798 | 8.66194 | 79° | 71km/h | 5883m | -10.4m/s | -11.9°C | 18.3% | 494.1hPa | 2.7V | 02:34:51 | 02:42:56 | 00:00:00 | |
| BIOWL1-15 | 2026-08-30 07:12:59 | 49.86810 | 8.66304 | 81° | 73km/h | 5842m | -10.6m/s | -11.6°C | 21.9% | 496.8hPa | 2.6V | 02:35:26 | 02:43:00 | 00:00:00 | |
| BIOWL9-15 | 2026-08-30 07:12:56 | 49.86798 | 8.66194 | 79° | 71km/h | 5883m | -10.4m/s | -11.9°C | 17.8% | 494.1hPa | 2.6V | 00:00:00 | 00:00:00 | 00:00:00 | |
| DB0UT-9 | 2026-08-30 07:12:51 | 49.86787 | 8.66112 | 78° | 69km/h | 5914m | -10.3m/s | -12.1°C | 18.3% | 492.2hPa | 2.6V | 02:35:00 | 00:00:00 | 00:00:00 | |
| DM0DOS-11 | 2026-08-30 07:12:50 | 49.86763 | 8.65925 | 79° | 69km/h | 5987m | -10m/s | -12.5°C | 14.9% | 487.5hPa | 2.6V | 02:35:01 | 02:42:46 | 00:00:00 | |
| BIOWL1-15 | 2026-08-30 07:12:48 | 49.86773 | 8.66005 | 80° | 71km/h | 5955m | -10.8m/s | -12.3°C | 18.2% | 489.5hPa | 2.6V | 02:35:26 | 02:42:49 | 00:00:00 | |
| NBG1-10 | 2026-08-30 07:12:47 | 49.86770 | 8.65978 | 79° | 71km/h | 5966m | -10.4m/s | -12.3°C | 14.7% | 488.8hPa | 2.6V | 02:34:00 | 02:42:48 | 00:00:00 | |
| DK5PH-5 | 2026-08-30 07:12:44 | 49.86760 | 8.65898 | 79° | 71km/h | 5997m | -10.2m/s | -12.6°C | 14.9% | 486.8hPa | 2.6V | 00:00:00 | 02:42:45 | 00:00:00 | |
| DB0NH | 2026-08-30 07:12:43 | 49.86756 | 8.65871 | 80° | 71km/h | 6007m | -10.9m/s | -12.6°C | 15.0% | 486.2hPa | 2.6V | 00:00:00 | 02:42:44 | 00:00:00 | |
| CB1BUN | 2026-08-30 07:12:41 | 49.86749 | 8.65817 | 79° | 69km/h | 6028m | -10.0m/s | -12.8°C | 14.7% | 484.9hPa | 2.6V | 02:35:00 | 00:00:00 | 00:00:00 | |
| DM0DOS-11 | 2026-08-30 07:12:40 | 49.86731 | 8.65652 | 81° | 73km/h | 6089m | -10.5m/s | -13.3°C | 18.3% | 480.9hPa | 2.6V | 02:35:11 | 02:42:36 | 00:00:00 | |
| BIOWL1-15 | 2026-08-30 07:12:37 | 49.86737 | 8.65708 | 79° | 71km/h | 6069m | -10.4m/s | -13.1°C | 22.4% | 482.3hPa | 2.7V | 02:35:26 | 02:42:38 | 00:00:00 | |
| DB0ND-19 | 2026-08-30 07:12:37 | 49.86734 | 8.65680 | 81° | 69km/h | 6079m | -10.6m/s | -13.2°C | 17.9% | 481.6hPa | 2.6V | 00:00:00 | 00:00:00 | 00:00:00 | |
| DB0UT-7 | 2026-08-30 07:12:34 | 49.86728 | 8.65625 | 81° | 71km/h | 6100m | -10.4m/s | -13.4°C | 18.4% | 480.2hPa | 2.6V | 00:00:00 | 02:42:35 | 00:00:00 | |
| DB0UT-9 | 2026-08-30 07:12:30 | 49.86719 | 8.65542 | 81° | 71km/h | 6131m | -10.3m/s | -13.7°C | 16.9% | 478.3hPa | 2.6V | 02:35:00 | 00:00:00 | 00:00:00 | |
| DM0DOS-11 | 2026-08-30 07:12:29 | 49.86701 | 8.65347 | 82° | 73km/h | 6205m | -10.6m/s | -14.3°C | 18% | 473.7hPa | 2.6V | 02:35:22 | 02:42:25 | 00:00:00 | |
| BIOWL1-15 | 2026-08-30 07:12:26 | 49.86706 | 8.65403 | 81° | 71km/h | 6184m | -10.5m/s | -14.2°C | 20.9% | 475hPa | 2.6V | 02:35:26 | 02:42:27 | 00:00:00 | |
| BIOWL9-15 | 2026-08-30 07:12:25 | 49.86701 | 8.65347 | 82° | 73km/h | 6205m | -10.6m/s | -14.3°C | 17.4% | 473.7hPa | 2.6V | 00:00:00 | 00:00:00 | 00:00:00 | |
| DL1KLB | 2026-08-30 07:12:19 | 49.86691 | 8.65235 | 85° | 73km/h | 6247m | -10.8m/s | -14.7°C | 17.9% | 471.1hPa | 2.6V | 02:35:00 | 00:00:00 | 00:00:00 | |
| DM0DOS-11 | 2026-08-30 07:12:18 | 49.86675 | 8.65041 | 83° | 71km/h | 6322m | -11m/s | -15.3°C | 19.1% | 466.4hPa | 2.6V | 02:35:33 | 02:42:14 | 00:00:00 | |
| BIOWL1-15 | 2026-08-30 07:12:16 | 49.86682 | 8.65123 | 83° | 73km/h | 6289m | -10.6m/s | -15°C | 22.5% | 468.4hPa | 2.6V | 02:36:17 | 02:42:17 | 00:00:00 | |
| KANTATE | 2026-08-30 07:12:15 | 49.86682 | 8.65123 | 84° | 73km/h | 6289m | -10.6m/s | -15.0°C | 18.4% | 468.4hPa | 2.6V | 00:00:00 | 00:00:00 | 00:00:00 | |
| DK5PH-5 | 2026-08-30 07:12:14 | 49.86677 | 8.65068 | 82° | 73km/h | 6311m | -10.9m/s | -15.2°C | 18.9% | 467.1hPa | 2.6V | 00:00:00 | 02:42:15 | 00:00:00 | |
| DB0NH | 2026-08-30 07:12:13 | 49.86675 | 8.65041 | 84° | 73km/h | 6322m | -10.9m/s | -15.3°C | 19.1% | 466.4hPa | 2.6V | 00:00:00 | 02:42:14 | 00:00:00 | |
| DL1ZP-14 | 2026-08-30 07:12:12 | 49.86672 | 8.65014 | 81° | 69km/h | 6332m | -10.6m/s | -15.4°C | 18.4% | 465.8hPa | 2.6V | 00:00:00 | 00:00:00 | 00:00:00 | |
| DB0UT-9 | 2026-08-30 07:12:09 | 49.86667 | 8.64959 | 81° | 69km/h | 6354m | -10.6m/s | -15.6°C | 19.3% | 464.5hPa | 2.6V | 02:36:00 | 00:00:00 | 00:00:00 | |
| DM0DOS-11 | 2026-08-30 07:12:08 | 49.86648 | 8.64767 | 82° | 71km/h | 6429m | -11.1m/s | -16.1°C | 20.3% | 459.8hPa | 2.6V | 02:35:43 | 02:42:04 | 00:00:00 | |
| BIOWL1-15 | 2026-08-30 07:12:07 | 49.86653 | 8.64821 | 82° | 71km/h | 6408m | -10.7m/s | -15.9°C | 22.9% | 461.1hPa | 2.6V | 02:36:17 | 02:42:06 | 00:00:00 | |
| DM7RM-13 | 2026-08-30 07:12:05 | 49.86656 | 8.64849 | 81° | 71km/h | 6397m | -11.0m/s | -15.9°C | 18.9% | 461.8hPa | 2.6V | 02:36:00 | 00:00:00 | 00:00:00 | |
| DB0UT-7 | 2026-08-30 07:12:04 | 49.86651 | 8.64794 | 81° | 73km/h | 6418m | -11.1m/s | -16.0°C | 20.0% | 460.4hPa | 2.6V | 00:00:00 | 00:00:00 | 00:00:00 | |
| DD1CC8 | 2026-08-30 07:12:03 | 49.86626 | 8.64544 | 82° | 71km/h | 6514m | -11.0m/s | -16.7°C | 10.7% | 454.5hPa | 2.6V | 00:00:00 | 00:00:00 | 00:00:00 | |
| CB1BUN | 2026-08-30 07:11:59 | 49.86640 | 8.64684 | 83° | 71km/h | 6461m | -11.1m/s | -16.4°C | 20.3% | 457.8hPa | 2.6V | 02:36:00 | 00:00:00 | 00:00:00 | |
| DM0DOS-11 | 2026-08-30 07:11:58 | 49.86621 | 8.64488 | 83° | 73km/h | 6536m | -10.7m/s | -16.8°C | 9.8% | 453.1hPa | 2.6V | 02:35:53 | 02:41:54 | 00:00:00 | |
| BIOWL1-15 | 2026-08-30 07:11:54 | 49.86623 | 8.64516 | 84° | 73km/h | 6525m | -10.8m/s | -16.8°C | 12.1% | 453.9hPa | 2.6V | 02:36:17 | 02:41:55 | 00:00:00 | |
| DB0UT-9 | 2026-08-30 07:11:49 | 49.86614 | 8.64401 | 83° | 73km/h | 6568m | -10.5m/s | -17.0°C | 8.2% | 451.3hPa | 2.6V | 02:36:00 | 00:00:00 | 00:00:00 | |
| DM0DOS-11 | 2026-08-30 07:11:48 | 49.86601 | 8.64195 | 85° | 75km/h | 6642m | -10.8m/s | -17.6°C | 8.4% | 446.7hPa | 2.6V | 02:36:03 | 02:41:44 | 00:00:00 | |
| BIOWL1-15 | 2026-08-30 07:11:46 | 49.86603 | 8.64225 | 85° | 77km/h | 6632m | -11.1m/s | -17.5°C | 9.3% | 447.4hPa | 2.6V | 02:36:17 | 02:41:45 | 00:00:00 | |
| DM7RM-13 | 2026-08-30 07:11:45 | 49.86606 | 8.64285 | 85° | 77km/h | 6610m | -10.9m/s | -17.3°C | 7.8% | 448.8hPa | 2.6V | 02:36:00 | 00:00:00 | 00:00:00 | |
| DK5PH-5 | 2026-08-30 07:11:44 | 49.86603 | 8.64225 | 86° | 75km/h | 6632m | -11.0m/s | -17.5°C | 8.3% | 447.4hPa | 2.6V | 02:36:00 | 02:41:45 | 00:00:00 | |
| DB0NH | 2026-08-30 07:11:43 | 49.86601 | 8.64195 | 86° | 75km/h | 6642m | -10.7m/s | -17.5°C | 8.4% | 446.6hPa | 2.6V | 02:36:00 | 02:41:44 | 00:00:00 | |
| NBG1-10 | 2026-08-30 07:11:41 | 49.86598 | 8.64138 | 84° | 75km/h | 6663m | -10.6m/s | -17.7°C | 8.5% | 445.4hPa | 2.6V | 00:00:00 | 02:41:42 | 00:00:00 | |
| CB1BUN | 2026-08-30 07:11:40 | 49.86596 | 8.64109 | 85° | 73km/h | 6674m | -10.3m/s | -17.8°C | 8.0% | 444.8hPa | 2.6V | 02:36:00 | 00:00:00 | 00:00:00 | |
| DM0DOS-11 | 2026-08-30 07:11:38 | 49.86582 | 8.63909 | 84° | 73km/h | 6746m | -10.8m/s | -18.4°C | 8.6% | 440.4hPa | 2.6V | 02:36:13 | 02:41:34 | 00:00:00 | |
| BIOWL1-15 | 2026-08-30 07:11:33 | 49.86582 | 8.63909 | 84° | 73km/h | 6746m | -10.8m/s | -18.4°C | 9.7% | 440.4hPa | 2.6V | 02:36:17 | 02:41:34 | 00:00:00 | |
| DD1CC8 | 2026-08-30 07:11:32 | 49.86580 | 8.63881 | 85° | 73km/h | 6756m | -10.7m/s | -18.4°C | 8.2% | 439.8hPa | 2.6V | 00:00:00 | 00:00:00 | 00:00:00 | |
| BIOWL7-15 | 2026-08-30 07:11:29 | 49.86577 | 8.63823 | 87° | 75km/h | 6778m | -10.6m/s | -18.6°C | 8.2% | 438.6hPa | 2.6V | 00:00:00 | 00:00:00 | 00:00:00 | |
| DM0DOS-11 | 2026-08-30 07:11:28 | 49.86567 | 8.63617 | 85° | 75km/h | 6854m | -10.5m/s | -19.2°C | 9% | 434.2hPa | 2.6V | 02:36:23 | 02:41:24 | 00:00:00 | |
| BIOWL1-15 | 2026-08-30 07:11:26 | 49.86566 | 8.63588 | 86° | 75km/h | 6864m | -10.5m/s | -19.3°C | 10.1% | 433.6hPa | 2.6V | 02:37:08 | 02:41:23 | 00:00:00 | |
| DO3MHA-11 | 2026-08-30 07:11:26 | 49.86571 | 8.63705 | 87° | 75km/h | 6821m | -10.9m/s | -18.9°C | 8.9% | 436.0hPa | 2.6V | 00:00:00 | 02:41:27 | 00:00:00 | |
| SFWM-10 | 2026-08-30 07:11:25 | 49.86571 | 8.63705 | 87° | 75km/h | 6821m | -10.9m/s | -19.0°C | 8.3% | 436.1hPa | 2.6V | 00:00:00 | 00:00:00 | 00:00:00 | |
| DM7RM-13 | 2026-08-30 07:11:24 | 49.86570 | 8.63676 | 87° | 75km/h | 6832m | -11.1m/s | -19.1°C | 8.3% | 435.4hPa | 2.6V | 02:37:00 | 00:00:00 | 00:00:00 | |
| CB1BUN | 2026-08-30 07:11:18 | 49.86562 | 8.63501 | 85° | 75km/h | 6897m | -10.9m/s | -19.6°C | 8.3% | 431.7hPa | 2.6V | 02:37:00 | 00:00:00 | 00:00:00 | |
| DM0DOS-11 | 2026-08-30 07:11:17 | 49.86547 | 8.63299 | 82° | 75km/h | 6974m | -11.2m/s | -20.2°C | 8.8% | 427.4hPa | 2.6V | 02:36:34 | 02:41:13 | 00:00:00 | |
| BIOWL1-15 | 2026-08-30 07:11:11 | 49.86544 | 8.63270 | 83° | 77km/h | 6984m | -10.6m/s | -20.2°C | 9.8% | 426.8hPa | 2.7V | 02:37:08 | 02:41:12 | 00:00:00 | |
| DL1ZP-14 | 2026-08-30 07:11:10 | 49.86542 | 8.63240 | 83° | 75km/h | 6995m | -11.3m/s | -20.3°C | 8.2% | 426.1hPa | 2.6V | 00:00:00 | 00:00:00 | 00:00:00 | |
| NBG1-10 | 2026-08-30 07:11:08 | 49.86537 | 8.63182 | 82° | 80km/h | 7017m | -10.4m/s | -20.5°C | 8.8% | 424.9hPa | 2.6V | 02:36:00 | 02:41:09 | 00:00:00 | |
| DL0LBS | 2026-08-30 07:11:07 | 49.86537 | 8.63182 | 82° | 75km/h | 7017m | -10.4m/s | -20.5°C | 8.2% | 424.9hPa | 2.6V | 02:37:00 | 00:00:00 | 00:00:00 | |
| DO3MHA-11 | 2026-08-30 07:11:06 | 49.86531 | 8.63123 | 83° | 77km/h | 7038m | -11.0m/s | -20.6°C | 8.7% | 423.6hPa | 2.6V | 00:00:00 | 02:41:07 | 00:00:00 | |
| DM0DOS-11 | 2026-08-30 07:11:05 | 49.86512 | 8.62946 | 79° | 77km/h | 7102m | -10.8m/s | -21.1°C | 9% | 420.1hPa | 2.6V | 02:36:46 | 02:41:01 | 00:00:00 | |
| BIOWL1-15 | 2026-08-30 07:11:01 | 49.86516 | 8.62976 | 81° | 77km/h | 7091m | -10.7m/s | -21°C | 10.1% | 420.6hPa | 2.6V | 02:37:08 | 02:41:02 | 00:00:00 | |
| CB1BUN | 2026-08-30 07:10:58 | 49.86506 | 8.62887 | 81° | 78km/h | 7123m | -10.9m/s | -21.3°C | 8.4% | 418.8hPa | 2.6V | 02:37:00 | 00:00:00 | 00:00:00 | |
| DB0UT-7 | 2026-08-30 07:10:57 | 49.86502 | 8.62856 | 82° | 80km/h | 7134m | -10.9m/s | -21.3°C | 9.0% | 418.1hPa | 2.6V | 00:00:00 | 00:00:00 | 00:00:00 | |
| DO3MHA-11 | 2026-08-30 07:10:56 | 49.86499 | 8.62826 | 80° | 80km/h | 7145m | -11.1m/s | -21.4°C | 8.9% | 417.6hPa | 2.6V | 00:00:00 | 02:40:57 | 00:00:00 | |
| SFWM-10 | 2026-08-30 07:10:55 | 49.86499 | 8.62826 | 80° | 78km/h | 7145m | -11.1m/s | -21.5°C | 8.3% | 417.6hPa | 2.6V | 00:00:00 | 00:00:00 | 00:00:00 | |
| DM0DOS-11 | 2026-08-30 07:10:54 | 49.86473 | 8.62612 | 78° | 80km/h | 7219m | -10.6m/s | -22°C | 8.5% | 413.4hPa | 2.6V | 02:36:57 | 02:40:50 | 00:00:00 | |
| BIOWL1-15 | 2026-08-30 07:10:50 | 49.86477 | 8.62643 | 80° | 80km/h | 7209m | -10.8m/s | -21.9°C | 9.5% | 414hPa | 2.6V | 02:37:08 | 02:40:51 | 00:00:00 | |
| DF7PN | 2026-08-30 07:10:45 | 49.86457 | 8.62487 | 79° | 80km/h | 7263m | -10.9m/s | -22.3°C | 8.1% | 410.9hPa | 2.6V | 00:00:00 | 00:00:00 | 00:00:00 | |
| DK5PH-5 | 2026-08-30 07:10:44 | 49.86453 | 8.62455 | 79° | 82km/h | 7274m | -10.4m/s | -22.3°C | 8.8% | 410.3hPa | 2.6V | 00:00:00 | 02:40:45 | 00:00:00 | |
| DB0NH | 2026-08-30 07:10:43 | 49.86449 | 8.62423 | 80° | 80km/h | 7284m | -10.6m/s | -22.4°C | 9.0% | 409.7hPa | 2.6V | 00:00:00 | 02:40:44 | 00:00:00 | |
| DM0DOS-11 | 2026-08-30 07:10:42 | 49.86429 | 8.62230 | 81° | 84km/h | 7350m | -10.8m/s | -22.9°C | 10.4% | 406.1hPa | 2.6V | 02:37:09 | 02:40:38 | 00:00:00 | |
| BIOWL1-15 | 2026-08-30 07:10:39 | 49.86435 | 8.62296 | 83° | 84km/h | 7328m | -11.2m/s | -22.7°C | 11.3% | 407.3hPa | 2.6V | 02:37:08 | 02:40:40 | 00:00:00 | |
| DO3MHA-11 | 2026-08-30 07:10:36 | 49.86426 | 8.62198 | 82° | 82km/h | 7361m | -11.2m/s | -22.9°C | 10.9% | 405.5hPa | 2.6V | 00:00:00 | 02:40:37 | 00:00:00 | |
| NBG1-10 | 2026-08-30 07:10:35 | 49.86423 | 8.62166 | 82° | 80km/h | 7372m | -11.0m/s | -23.0°C | 11.6% | 404.8hPa | 2.6V | 00:00:00 | 02:40:36 | 00:00:00 | |
| DL1KLB | 2026-08-30 07:10:34 | 49.86423 | 8.62166 | 82° | 82km/h | 7372m | -11.1m/s | -23.1°C | 10.8% | 404.9hPa | 2.6V | 02:37:00 | 00:00:00 | 00:00:00 | |
| DB0ND-19 | 2026-08-30 07:10:33 | 49.86413 | 8.62071 | 82° | 80km/h | 7405m | -11.3m/s | -23.2°C | 13.8% | 403.1hPa | 2.6V | 00:00:00 | 00:00:00 | 00:00:00 | |
| DM0DOS-11 | 2026-08-30 07:10:32 | 49.86398 | 8.61912 | 80° | 80km/h | 7461m | -11.2m/s | -23.7°C | 17.7% | 400.1hPa | 2.6V | 02:37:19 | 02:40:28 | 00:00:00 | |
| BIOWL1-15 | 2026-08-30 07:10:31 | 49.86404 | 8.61975 | 82° | 82km/h | 7439m | -11.3m/s | -23.5°C | 20% | 401.3hPa | 2.6V | 02:37:59 | 02:40:30 | 00:00:00 | |
| DD1CC8 | 2026-08-30 07:10:30 | 49.86407 | 8.62007 | 82° | 80km/h | 7427m | -11.4m/s | -23.4°C | 15.2% | 401.8hPa | 2.6V | 00:00:00 | 00:00:00 | 00:00:00 | |
| KANTATE | 2026-08-30 07:10:29 | 49.86407 | 8.62007 | 83° | 82km/h | 7428m | -11.4m/s | -23.4°C | 15.2% | 401.8hPa | 2.6V | 02:37:00 | 00:00:00 | 00:00:00 | |
| DB0UT-7 | 2026-08-30 07:10:27 | 49.86398 | 8.61912 | 81° | 82km/h | 7461m | -11.1m/s | -23.6°C | 17.7% | 400.0hPa | 2.6V | 00:00:00 | 02:40:28 | 00:00:00 | |
| DO3MHA-11 | 2026-08-30 07:10:26 | 49.86395 | 8.61880 | 80° | 80km/h | 7472m | -11.1m/s | -23.7°C | 18.1% | 399.4hPa | 2.6V | 00:00:00 | 02:40:27 | 00:00:00 | |
| DF1GD-15 | 2026-08-30 07:10:24 | 49.86391 | 8.61849 | 80° | 80km/h | 7483m | -11.3m/s | -23.9°C | 17.6% | 398.8hPa | 2.6V | 02:37:00 | 00:00:00 | 00:00:00 | |
| SFWM-10 | 2026-08-30 07:10:23 | 49.86387 | 8.61819 | 79° | 80km/h | 7494m | -10.6m/s | -24.0°C | 17.9% | 398.2hPa | 2.6V | 00:00:00 | 00:00:00 | 00:00:00 | |
| DM0DOS-11 | 2026-08-30 07:10:22 | 49.86356 | 8.61605 | 76° | 80km/h | 7571m | -11.4m/s | -24.6°C | 21.2% | 394.1hPa | 2.6V | 02:37:29 | 02:40:18 | 00:00:00 | |
| BIOWL1-15 | 2026-08-30 07:10:19 | 49.86365 | 8.61666 | 76° | 80km/h | 7549m | -11.1m/s | -24.5°C | 24.2% | 395.3hPa | 2.7V | 02:37:59 | 02:40:20 | 00:00:00 | |
| DO3MHA-11 | 2026-08-30 07:10:16 | 49.86351 | 8.61575 | 79° | 80km/h | 7583m | -11.5m/s | -24.7°C | 21.5% | 393.4hPa | 2.6V | 02:37:00 | 02:40:17 | 00:00:00 | |
| CB1BUN | 2026-08-30 07:10:15 | 49.86351 | 8.61575 | 79° | 80km/h | 7583m | -11.6m/s | -24.7°C | 20.3% | 393.5hPa | 2.6V | 02:37:00 | 00:00:00 | 00:00:00 | |
| DK5PH-5 | 2026-08-30 07:10:14 | 49.86342 | 8.61513 | 78° | 84km/h | 7606m | -11.6m/s | -24.8°C | 21.8% | 392.1hPa | 2.6V | 02:37:00 | 02:40:15 | 00:00:00 | |
| DB0NH | 2026-08-30 07:10:13 | 49.86338 | 8.61483 | 78° | 84km/h | 7617m | -11.3m/s | -24.9°C | 22.9% | 391.6hPa | 2.6V | 02:37:00 | 02:40:14 | 00:00:00 | |
| DM0DOS-11 | 2026-08-30 07:10:12 | 49.86310 | 8.61297 | 77° | 84km/h | 7685m | -11.2m/s | -25.4°C | 22.3% | 388hPa | 2.6V | 02:37:39 | 02:40:08 | 00:00:00 | |
| BIOWL1-15 | 2026-08-30 07:10:08 | 49.86314 | 8.61329 | 78° | 82km/h | 7674m | -11.3m/s | -25.3°C | 26.3% | 388.6hPa | 2.6V | 02:37:59 | 02:40:09 | 00:00:00 | |
| DL1ZP-14 | 2026-08-30 07:10:08 | 49.86310 | 8.61297 | 77° | 82km/h | 7685m | -11.2m/s | -25.4°C | 21.1% | 388.0hPa | 2.6V | 00:00:00 | 00:00:00 | 00:00:00 | |
| DO3MHA-11 | 2026-08-30 07:10:06 | 49.86305 | 8.61265 | 77° | 84km/h | 7697m | -11.6m/s | -25.5°C | 22.6% | 387.3hPa | 2.6V | 00:00:00 | 02:40:07 | 00:00:00 | |
| DL0LBS | 2026-08-30 07:10:05 | 49.86305 | 8.61265 | 78° | 82km/h | 7697m | -11.7m/s | -25.5°C | 21.4% | 387.4hPa | 2.6V | 02:37:00 | 00:00:00 | 00:00:00 | |
| BIOWL7-15 | 2026-08-30 07:10:04 | 49.86301 | 8.61233 | 80° | 84km/h | 7708m | -11.8m/s | -25.6°C | 21.5% | 386.8hPa | 2.6V | 02:37:00 | 00:00:00 | 00:00:00 | |
| DF1GD-15 | 2026-08-30 07:10:03 | 49.86296 | 8.61201 | 78° | 84km/h | 7719m | -11.4m/s | -25.7°C | 21.7% | 386.2hPa | 2.6V | 02:37:00 | 00:00:00 | 00:00:00 | |
| NBG1-10 | 2026-08-30 07:10:02 | 49.86288 | 8.61137 | 79° | 88km/h | 7742m | -11.2m/s | -25.9°C | 23.2% | 384.9hPa | 2.6V | 00:00:00 | 02:40:03 | 00:00:00 | |
| KANTATE | 2026-08-30 07:10:01 | 49.86288 | 8.61137 | 80° | 86km/h | 7742m | -11.2m/s | -25.9°C | 21.9% | 385.0hPa | 2.6V | 02:37:00 | 00:00:00 | 00:00:00 | |
| DM0DOS-11 | 2026-08-30 07:10:00 | 49.86258 | 8.60909 | 77° | 84km/h | 7818m | -11.5m/s | -26.6°C | 25% | 380.9hPa | 2.6V | 02:37:51 | 02:39:56 | 00:00:00 | |
| BIOWL1-15 | 2026-08-30 07:09:57 | 49.86267 | 8.60974 | 80° | 86km/h | 7797m | -11.4m/s | -26.4°C | 28.5% | 382.1hPa | 2.6V | 02:37:59 | 02:39:58 | 00:00:00 | |
| DO3MHA-11 | 2026-08-30 07:09:56 | 49.86262 | 8.60941 | 78° | 86km/h | 7808m | -10.9m/s | -26.4°C | 24.6% | 381.4hPa | 2.6V | 00:00:00 | 02:39:57 | 00:00:00 | |
| CB1BUN | 2026-08-30 07:09:54 | 49.86258 | 8.60909 | 79° | 84km/h | 7819m | -11.5m/s | -26.6°C | 23.7% | 381.0hPa | 2.6V | 02:37:00 | 00:00:00 | 00:00:00 | |
| DL1KLB | 2026-08-30 07:09:52 | 49.86249 | 8.60843 | 80° | 88km/h | 7842m | -12.2m/s | -26.8°C | 23.3% | 379.8hPa | 2.6V | 02:37:00 | 00:00:00 | 00:00:00 | |
| BEGRI65-1 | 2026-08-30 07:09:51 | 49.86245 | 8.60810 | 79° | 86km/h | 7853m | -11.8m/s | -26.9°C | 23.0% | 379.1hPa | 2.6V | 02:37:00 | 00:00:00 | 00:00:00 | |
| DM0DOS-11 | 2026-08-30 07:09:50 | 49.86211 | 8.60576 | 77° | 89km/h | 7934m | -12m/s | -27.5°C | 22.3% | 374.8hPa | 2.6V | 02:38:01 | 02:39:46 | 00:00:00 | |
| BIOWL1-15 | 2026-08-30 07:09:46 | 49.86216 | 8.60610 | 77° | 88km/h | 7922m | -12.3m/s | -27.4°C | 27.2% | 375.4hPa | 2.6V | 02:38:50 | 02:39:47 | 00:00:00 | |
| DO3MHA-11 | 2026-08-30 07:09:46 | 49.86216 | 8.60610 | 77° | 89km/h | 7922m | -12.3m/s | -27.4°C | 22.8% | 375.4hPa | 2.6V | 02:38:00 | 02:39:47 | 00:00:00 | |
| DK5PH-5 | 2026-08-30 07:09:44 | 49.86206 | 8.60541 | 79° | 91km/h | 7946m | -12.2m/s | -27.5°C | 21.8% | 374.1hPa | 2.6V | 00:00:00 | 02:39:45 | 00:00:00 | |
| DB0NH | 2026-08-30 07:09:43 | 49.86201 | 8.60506 | 79° | 91km/h | 7957m | -12.3m/s | -27.6°C | 21.7% | 373.5hPa | 2.6V | 00:00:00 | 02:39:44 | 00:00:00 | |
| DF1GD-15 | 2026-08-30 07:09:42 | 49.86201 | 8.60506 | 79° | 89km/h | 7957m | -12.3m/s | -27.7°C | 20.4% | 373.5hPa | 2.6V | 02:38:00 | 00:00:00 | 00:00:00 | |
| DM0DOS-11 | 2026-08-30 07:09:40 | 49.86161 | 8.60231 | 76° | 89km/h | 8057m | -12.1m/s | -28.5°C | 23.1% | 368.4hPa | 2.6V | 02:38:11 | 02:39:36 | 00:00:00 | |
| BIOWL1-15 | 2026-08-30 07:09:35 | 49.86161 | 8.60231 | 76° | 89km/h | 8057m | -12.1m/s | -28.5°C | 27.6% | 368.4hPa | 2.6V | 02:38:50 | 02:39:36 | 00:00:00 | |
| CB1BUN | 2026-08-30 07:09:34 | 49.86161 | 8.60231 | 77° | 89km/h | 8057m | -12.1m/s | -28.5°C | 21.7% | 368.4hPa | 2.6V | 02:38:00 | 00:00:00 | 00:00:00 | |
| DL1KLB | 2026-08-30 07:09:32 | 49.86150 | 8.60164 | 78° | 89km/h | 8082m | -13.4m/s | -28.7°C | 22.0% | 367.1hPa | 2.6V | 02:38:00 | 00:00:00 | 00:00:00 | |
| DB0ND-19 | 2026-08-30 07:09:31 | 49.86135 | 8.60060 | 78° | 89km/h | 8122m | -13.6m/s | -29.0°C | 23.3% | 365.1hPa | 2.6V | 00:00:00 | 00:00:00 | 00:00:00 | |
| DM0DOS-11 | 2026-08-30 07:09:30 | 49.86110 | 8.59888 | 76° | 91km/h | 8187m | -13.1m/s | -29.6°C | 27.1% | 361.9hPa | 2.6V | 02:38:21 | 02:39:26 | 00:00:00 | |
| BIOWL1-15 | 2026-08-30 07:09:24 | 49.86104 | 8.59853 | 78° | 93km/h | 8198m | -11.4m/s | -29.7°C | 33% | 361.2hPa | 2.6V | 02:38:50 | 02:39:25 | 00:00:00 | |
| BIOWL7-15 | 2026-08-30 07:09:23 | 49.86104 | 8.59853 | 78° | 93km/h | 8199m | -11.4m/s | -29.7°C | 26.6% | 361.2hPa | 2.6V | 00:00:00 | 00:00:00 | 00:00:00 | |
| DF1GD-15 | 2026-08-30 07:09:21 | 49.86093 | 8.59782 | 77° | 93km/h | 8224m | -12.6m/s | -29.9°C | 28.0% | 360.0hPa | 2.6V | 02:38:00 | 00:00:00 | 00:00:00 | |
| DM0DOS-11 | 2026-08-30 07:09:20 | 49.86056 | 8.59532 | 76° | 91km/h | 8313m | -13.4m/s | -30.7°C | 31.6% | 355.5hPa | 2.6V | 02:38:31 | 02:39:16 | 00:00:00 | |
| BIOWL1-15 | 2026-08-30 07:09:14 | 49.86050 | 8.59497 | 76° | 91km/h | 8327m | -14.8m/s | -30.8°C | 37.2% | 354.9hPa | 2.6V | 02:38:50 | 02:39:15 | 00:00:00 | |
| CB1BUN | 2026-08-30 07:09:14 | 49.86050 | 8.59497 | 77° | 91km/h | 8327m | -14.8m/s | -30.8°C | 29.7% | 354.9hPa | 2.6V | 02:38:00 | 00:00:00 | 00:00:00 | |
| DB0NH | 2026-08-30 07:09:13 | 49.86045 | 8.59462 | 78° | 93km/h | 8342m | -15.4m/s | -30.9°C | 31.4% | 354.1hPa | 2.6V | 00:00:00 | 02:39:14 | 00:00:00 | |
| DH7VM-15 | 2026-08-30 07:09:11 | 49.86040 | 8.59426 | 78° | 91km/h | 8357m | -15.0m/s | -31.1°C | 29.4% | 353.4hPa | 2.6V | 00:00:00 | 00:00:00 | 00:00:00 | |
| DM0DOS-11 | 2026-08-30 07:09:10 | 49.86001 | 8.59180 | 74° | 91km/h | 8454m | -13.5m/s | -31.9°C | 29% | 348.5hPa | 2.6V | 02:38:41 | 02:39:06 | 00:00:00 | |
| BIOWL1-15 | 2026-08-30 07:09:03 | 49.85989 | 8.59109 | 76° | 95km/h | 8480m | -13.3m/s | -32°C | 33.5% | 347.1hPa | 2.6V | 02:38:50 | 02:39:04 | 00:00:00 | |
| BIOWL7-15 | 2026-08-30 07:09:02 | 49.85989 | 8.59109 | 77° | 95km/h | 8480m | -13.3m/s | -32.0°C | 26.6% | 347.1hPa | 2.6V | 00:00:00 | 00:00:00 | 00:00:00 | |
| DM0DOS-11 | 2026-08-30 07:09:00 | 49.85941 | 8.58823 | 75° | 95km/h | 8592m | -14.9m/s | -33°C | 36.4% | 341.8hPa | 2.6V | 02:38:51 | 02:38:56 | 00:00:00 | |
| BIOWL1-15 | 2026-08-30 07:08:55 | 49.85929 | 8.58751 | 76° | 93km/h | 8619m | -13.8m/s | -33.2°C | 44.9% | 340.4hPa | 2.6V | 02:39:41 | 02:38:54 | 00:00:00 | |
| DL9PN | 2026-08-30 07:08:52 | 49.85924 | 8.58715 | 76° | 93km/h | 8633m | -14.0m/s | -33.4°C | 38.5% | 339.8hPa | 2.6V | 00:00:00 | 00:00:00 | 00:00:00 | |
| DM0DOS-11 | 2026-08-30 07:08:50 | 49.85888 | 8.58463 | 78° | 93km/h | 8733m | -14.9m/s | -34°C | 32.5% | 335.1hPa | 2.6V | 02:39:01 | 02:38:46 | 00:00:00 | |
| BIOWL9-15 | 2026-08-30 07:08:47 | 49.85898 | 8.58535 | 76° | 89km/h | 8703m | -14.8m/s | -33.8°C | 30.7% | 336.4hPa | 2.6V | 00:00:00 | 00:00:00 | 00:00:00 | |
| BIOWL1-15 | 2026-08-30 07:08:43 | 49.85879 | 8.58391 | 80° | 93km/h | 8762m | -14.3m/s | -34.3°C | 37.9% | 333.6hPa | 2.6V | 02:39:41 | 02:38:44 | 00:00:00 | |
| DB0NH | 2026-08-30 07:08:43 | 49.85879 | 8.58391 | 80° | 99km/h | 8762m | -14.3m/s | -34.2°C | 32.5% | 333.5hPa | 2.6V | 02:39:00 | 02:38:44 | 00:00:00 | |
| DF3TZ-5 | 2026-08-30 07:08:42 | 49.85867 | 8.58283 | 80° | 93km/h | 8804m | -14.6m/s | -34.7°C | 32.7% | 331.6hPa | 2.6V | 00:00:00 | 00:00:00 | 00:00:00 | |
| DF7PN | 2026-08-30 07:08:41 | 49.85867 | 8.58283 | 80° | 93km/h | 8804m | -14.6m/s | -34.7°C | 32.7% | 331.6hPa | 2.6V | 00:00:00 | 00:00:00 | 00:00:00 | |
| DM0DOS-11 | 2026-08-30 07:08:40 | 49.85851 | 8.58097 | 82° | 97km/h | 8872m | -13.2m/s | -35.2°C | 47.6% | 328.3hPa | 2.6V | 02:39:11 | 02:38:36 | 00:00:00 | |
| BIOWL1-15 | 2026-08-30 07:08:33 | 49.85845 | 8.58021 | 85° | 99km/h | 8898m | -12.9m/s | -35.4°C | 58% | 327.1hPa | 2.6V | 02:39:41 | 02:38:34 | 00:00:00 | |
| CB1BUN | 2026-08-30 07:08:31 | 49.85842 | 8.57982 | 84° | 99km/h | 8910m | -11.9m/s | -35.5°C | 51.8% | 326.5hPa | 2.6V | 02:39:00 | 00:00:00 | 00:00:00 | |
| DM0DOS-11 | 2026-08-30 07:08:30 | 49.85820 | 8.57711 | 83° | 102km/h | 9002m | -14.8m/s | -36.1°C | 55.9% | 322.4hPa | 2.6V | 02:39:21 | 02:38:26 | 00:00:00 | |
| BIOWL1-15 | 2026-08-30 07:08:22 | 49.85811 | 8.57593 | 83° | 100km/h | 9045m | -14.2m/s | -36.4°C | 58.6% | 320.4hPa | 2.6V | 02:39:41 | 02:38:23 | 00:00:00 | |
| DL9PN | 2026-08-30 07:08:21 | 49.85801 | 8.57475 | 82° | 100km/h | 9087m | -15.3m/s | -36.8°C | 50.0% | 318.6hPa | 2.6V | 00:00:00 | 00:00:00 | 00:00:00 | |
| DM0DOS-11 | 2026-08-30 07:08:20 | 49.85789 | 8.57316 | 82° | 102km/h | 9143m | -13.2m/s | -37.2°C | 53.9% | 316hPa | 2.6V | 02:39:31 | 02:38:16 | 00:00:00 | |
| BIOWL1-15 | 2026-08-30 07:08:11 | 49.85776 | 8.57158 | 83° | 102km/h | 9198m | -13.9m/s | -37.6°C | 61.9% | 313.5hPa | 2.6V | 02:39:41 | 02:38:12 | 00:00:00 | |
| DM0DOS-11 | 2026-08-30 07:08:10 | 49.85757 | 8.56919 | 82° | 102km/h | 9279m | -13.8m/s | -38.3°C | 58.2% | 309.9hPa | 2.6V | 02:39:41 | 02:38:06 | 00:00:00 | |
| BIOWL1-15 | 2026-08-30 07:08:00 | 49.85742 | 8.56718 | 83° | 104km/h | 9347m | -13.8m/s | -38.8°C | 66.7% | 306.8hPa | 2.6V | 02:40:32 | 02:38:01 | 00:00:00 | |
| DM7RM-13 | 2026-08-30 07:07:58 | 49.85738 | 8.56678 | 84° | 102km/h | 9361m | -13.7m/s | -38.9°C | 59.0% | 306.2hPa | 2.6V | 02:40:00 | 00:00:00 | 00:00:00 | |
| DM0DOS-11 | 2026-08-30 07:07:57 | 49.85714 | 8.56395 | 82° | 104km/h | 9457m | -14.3m/s | -39.8°C | 62.7% | 301.8hPa | 2.6V | 02:39:54 | 02:37:53 | 00:00:00 | |
| BIOWL1-15 | 2026-08-30 07:07:50 | 49.85707 | 8.56314 | 82° | 104km/h | 9485m | -14m/s | -40°C | 67.8% | 300.5hPa | 2.7V | 02:40:32 | 02:37:51 | 00:00:00 | |
| NBG1-10 | 2026-08-30 07:07:50 | 49.85707 | 8.56314 | 82° | 106km/h | 9486m | -14.0m/s | -40.0°C | 62.0% | 300.5hPa | 2.7V | 02:39:00 | 02:37:51 | 00:00:00 | |
| DL1KLB | 2026-08-30 07:07:48 | 49.85703 | 8.56274 | 82° | 106km/h | 9500m | -15.1m/s | -40.1°C | 57.8% | 300.0hPa | 2.6V | 02:40:00 | 00:00:00 | 00:00:00 | |
| DM0DOS-11 | 2026-08-30 07:07:47 | 49.85673 | 8.55989 | 79° | 106km/h | 9601m | -13.3m/s | -41°C | 64.5% | 295.5hPa | 2.6V | 02:40:04 | 02:37:43 | 00:00:00 | |
| BIOWL9-15 | 2026-08-30 07:07:45 | 49.85686 | 8.56111 | 81° | 106km/h | 9559m | -14.7m/s | -40.7°C | 59.8% | 297.4hPa | 2.6V | 00:00:00 | 00:00:00 | 00:00:00 | |
| BIOWL1-15 | 2026-08-30 07:07:43 | 49.85660 | 8.55866 | 80° | 108km/h | 9641m | -15.2m/s | -41.4°C | 72% | 293.8hPa | 2.6V | 02:40:32 | 02:37:40 | 00:00:00 | |
| DB0NH | 2026-08-30 07:07:43 | 49.85678 | 8.56029 | 81° | 106km/h | 9587m | -14.1m/s | -40.9°C | 64.3% | 296.1hPa | 2.6V | 00:00:00 | 02:37:44 | 00:00:00 | |
| DB0UT-9 | 2026-08-30 07:07:42 | 49.85678 | 8.56029 | 82° | 106km/h | 9587m | -14.1m/s | -40.9°C | 60.8% | 296.2hPa | 2.6V | 02:40:00 | 00:00:00 | 00:00:00 | |
| DO3DL | 2026-08-30 07:07:41 | 49.85673 | 8.55989 | 81° | 106km/h | 9601m | -13.3m/s | -41.0°C | 61.0% | 295.5hPa | 2.6V | 02:40:00 | 00:00:00 | 00:00:00 | |
| DF7PN | 2026-08-30 07:07:39 | 49.85655 | 8.55824 | 80° | 106km/h | 9656m | -15.5m/s | -41.5°C | 62.5% | 293.2hPa | 2.6V | 00:00:00 | 00:00:00 | 00:00:00 | |
| DM0DOS-11 | 2026-08-30 07:07:37 | 49.85625 | 8.55578 | 79° | 106km/h | 9740m | -13.8m/s | -42.3°C | 68% | 289.4hPa | 2.6V | 02:40:14 | 02:37:33 | 00:00:00 | |
| BIOWL1-15 | 2026-08-30 07:07:30 | 49.85605 | 8.55414 | 79° | 108km/h | 9796m | -13.7m/s | -42.8°C | 74.4% | 287hPa | 2.6V | 02:40:32 | 02:37:29 | 00:00:00 | |
| CB1BUN | 2026-08-30 07:07:29 | 49.85615 | 8.55497 | 79° | 106km/h | 9769m | -14.6m/s | -42.5°C | 64.5% | 288.3hPa | 2.7V | 02:40:00 | 00:00:00 | 00:00:00 | |
| DL1KLB | 2026-08-30 07:07:27 | 49.85605 | 8.55414 | 80° | 108km/h | 9796m | -13.7m/s | -42.8°C | 64.9% | 287.0hPa | 2.7V | 02:40:00 | 00:00:00 | 00:00:00 | |
| DO3MHA-11 | 2026-08-30 07:07:26 | 49.85595 | 8.55332 | 79° | 106km/h | 9823m | -13.4m/s | -43.0°C | 69.5% | 285.9hPa | 2.7V | 00:00:00 | 02:37:27 | 00:00:00 | |
| DB0UT-7 | 2026-08-30 07:07:25 | 49.85589 | 8.55291 | 79° | 106km/h | 9837m | -13.6m/s | -43.1°C | 69.4% | 285.3hPa | 2.7V | 00:00:00 | 02:37:26 | 00:00:00 | |
| DL4BBY-15 | 2026-08-30 07:07:24 | 49.85584 | 8.55250 | 80° | 104km/h | 9850m | -13.8m/s | -44.3°C | 0% | 0hPa | 2.7V | 00:00:00 | 00:00:00 | 00:00:00 | |
| DL8DAS-15 | 2026-08-30 07:07:23 | 49.85584 | 8.55250 | 80° | 106km/h | 9851m | -13.8m/s | -43.2°C | 64.9% | 284.8hPa | 2.7V | 00:00:00 | 00:00:00 | 00:00:00 | |
| DB0UT-9 | 2026-08-30 07:07:22 | 49.85579 | 8.55209 | 80° | 108km/h | 9865m | -15.6m/s | -43.4°C | 64.4% | 284.2hPa | 2.7V | 02:40:00 | 00:00:00 | 00:00:00 | |
| DL9PN | 2026-08-30 07:07:19 | 49.85549 | 8.54962 | 79° | 106km/h | 9954m | -14.0m/s | -44.2°C | 63.8% | 280.4hPa | 2.7V | 00:00:00 | 00:00:00 | 00:00:00 | |
| DM0DOS-11 | 2026-08-30 07:07:17 | 49.85527 | 8.54760 | 81° | 106km/h | 10028m | -14.5m/s | -44.7°C | 62.7% | 277.4hPa | 2.7V | 02:40:34 | 02:37:13 | 00:00:00 | |
| BIOWL1-15 | 2026-08-30 07:07:17 | 49.85549 | 8.54962 | 80° | 106km/h | 9954m | -14m/s | -44.2°C | 73.6% | 280.4hPa | 2.6V | 02:40:32 | 02:37:18 | 00:00:00 | |
| DJ2DS-15 | 2026-08-30 07:07:17 | 49.85549 | 8.54962 | 80° | 108km/h | 9954m | -14.0m/s | -44.1°C | 67.9% | 280.4hPa | 2.6V | 02:40:00 | 02:37:18 | 00:00:00 | |
| DO3MHA-11 | 2026-08-30 07:07:16 | 49.85545 | 8.54921 | 81° | 104km/h | 9968m | -13.0m/s | -44.2°C | 66.7% | 279.7hPa | 2.6V | 02:40:00 | 02:37:17 | 00:00:00 | |
| BIOWL7-15 | 2026-08-30 07:07:15 | 49.85545 | 8.54921 | 82° | 108km/h | 9968m | -13.0m/s | -44.3°C | 62.6% | 279.8hPa | 2.6V | 02:40:00 | 00:00:00 | 00:00:00 | |
| DK5PH-5 | 2026-08-30 07:07:14 | 49.85535 | 8.54840 | 80° | 104km/h | 9997m | -15.9m/s | -44.4°C | 64.4% | 278.7hPa | 2.6V | 02:40:00 | 02:37:15 | 00:00:00 | |
| DB0NH | 2026-08-30 07:07:13 | 49.85531 | 8.54800 | 81° | 104km/h | 10013m | -15.7m/s | -44.6°C | 63.6% | 278.0hPa | 2.6V | 02:40:00 | 02:37:14 | 00:00:00 | |
| SFWM-10 | 2026-08-30 07:07:12 | 49.85531 | 8.54800 | 81° | 102km/h | 10013m | -15.8m/s | -44.6°C | 59.5% | 278.1hPa | 2.6V | 00:00:00 | 00:00:00 | 00:00:00 | |
| DF3TZ-5 | 2026-08-30 07:07:09 | 49.85515 | 8.54639 | 81° | 102km/h | 10072m | -14.8m/s | -44.9°C | 58.3% | 275.5hPa | 2.6V | 00:00:00 | 00:00:00 | 00:00:00 | |
| DL8DAS-14 | 2026-08-30 07:07:08 | 49.85508 | 8.54560 | 81° | 100km/h | 10102m | -15.4m/s | -45.2°C | 60.4% | 274.4hPa | 2.6V | 00:00:00 | 00:00:00 | 00:00:00 | |
| DM0DOS-11 | 2026-08-30 07:07:07 | 49.85488 | 8.54361 | 82° | 104km/h | 10177m | -14.8m/s | -45.7°C | 66.8% | 271.2hPa | 2.6V | 02:40:44 | 02:37:03 | 00:00:00 | |
| BIOWL1-15 | 2026-08-30 07:07:06 | 49.85504 | 8.54520 | 81° | 102km/h | 10118m | -14.9m/s | -45.3°C | 72.6% | 273.7hPa | 2.7V | 02:41:23 | 02:37:07 | 00:00:00 | |
| DO3MHA-11 | 2026-08-30 07:07:06 | 49.85504 | 8.54520 | 81° | 104km/h | 10118m | -14.8m/s | -45.2°C | 65.5% | 273.6hPa | 2.6V | 00:00:00 | 02:37:07 | 00:00:00 | |
| DL8DAS-15 | 2026-08-30 07:07:05 | 49.85504 | 8.54520 | 82° | 102km/h | 10118m | -14.9m/s | -45.3°C | 61.4% | 273.7hPa | 2.6V | 00:00:00 | 00:00:00 | 00:00:00 | |
| HEMX73-11 | 2026-08-30 07:07:03 | 49.85496 | 8.54442 | 82° | 104km/h | 10148m | -14.4m/s | -45.5°C | 63.0% | 272.5hPa | 2.6V | 02:41:00 | 00:00:00 | 00:00:00 | |
| DH7VM-15 | 2026-08-30 07:07:02 | 49.85492 | 8.54401 | 83° | 104km/h | 10162m | -14.7m/s | -45.6°C | 62.5% | 271.9hPa | 2.6V | 00:00:00 | 00:00:00 | 00:00:00 | |
| DL1ZP-14 | 2026-08-30 07:07:01 | 49.85484 | 8.54320 | 81° | 104km/h | 10192m | -14.7m/s | -45.8°C | 62.8% | 270.6hPa | 2.6V | 00:00:00 | 00:00:00 | 00:00:00 | |
| DL0LBS | 2026-08-30 07:06:58 | 49.85476 | 8.54240 | 82° | 104km/h | 10220m | -14.7m/s | -46.0°C | 63.8% | 269.5hPa | 2.7V | 02:41:00 | 00:00:00 | 00:00:00 | |
| DM0DOS-11 | 2026-08-30 07:06:57 | 49.85449 | 8.53957 | 81° | 104km/h | 10322m | -14.2m/s | -46.8°C | 69.3% | 265.2hPa | 2.7V | 02:40:54 | 02:36:53 | 00:00:00 | |
| BIOWL1-15 | 2026-08-30 07:06:57 | 49.85461 | 8.54078 | 82° | 106km/h | 10279m | -15m/s | -46.4°C | 77.5% | 267.1hPa | 2.6V | 02:41:23 | 02:36:56 | 00:00:00 | |
| DB0ND-19 | 2026-08-30 07:06:55 | 49.85461 | 8.54078 | 82° | 104km/h | 10279m | -15.0m/s | -46.4°C | 66.0% | 267.1hPa | 2.7V | 00:00:00 | 00:00:00 | 00:00:00 | |
| DJ2DS-15 | 2026-08-30 07:06:54 | 49.85457 | 8.54037 | 82° | 104km/h | 10294m | -14.7m/s | -46.6°C | 66.0% | 266.5hPa | 2.7V | 00:00:00 | 00:00:00 | 00:00:00 | |
| DD1CC8 | 2026-08-30 07:06:53 | 49.85442 | 8.53876 | 80° | 104km/h | 10350m | -14.0m/s | -46.9°C | 62.4% | 264.2hPa | 2.7V | 00:00:00 | 00:00:00 | 00:00:00 | |
| DL9PN | 2026-08-30 07:06:48 | 49.85429 | 8.53754 | 82° | 104km/h | 10395m | -15.2m/s | -47.3°C | 60.8% | 262.4hPa | 2.7V | 00:00:00 | 00:00:00 | 00:00:00 | |
| DM0DOS-11 | 2026-08-30 07:06:47 | 49.85411 | 8.53555 | 82° | 102km/h | 10467m | -14.2m/s | -48°C | 60.5% | 259.6hPa | 2.7V | 02:41:04 | 02:36:43 | 00:00:00 | |
| BIOWL1-15 | 2026-08-30 07:06:46 | 49.85419 | 8.53634 | 82° | 102km/h | 10439m | -14.3m/s | -47.7°C | 70.1% | 260.7hPa | 2.6V | 02:41:23 | 02:36:45 | 00:00:00 | |
| DO3MHA-11 | 2026-08-30 07:06:46 | 49.85426 | 8.53714 | 82° | 100km/h | 10410m | -14.7m/s | -47.4°C | 64.9% | 261.8hPa | 2.7V | 02:41:00 | 02:36:47 | 00:00:00 | |
| HEMX73-11 | 2026-08-30 07:06:44 | 49.85419 | 8.53634 | 83° | 102km/h | 10439m | -14.3m/s | -47.7°C | 58.5% | 260.7hPa | 2.6V | 02:41:00 | 00:00:00 | 00:00:00 | |
| DB0NH | 2026-08-30 07:06:43 | 49.85415 | 8.53594 | 82° | 102km/h | 10453m | -13.9m/s | -47.8°C | 61.9% | 260.1hPa | 2.6V | 00:00:00 | 02:36:44 | 00:00:00 | |
| DB0UT-9 | 2026-08-30 07:06:39 | 49.85404 | 8.53476 | 84° | 100km/h | 10497m | -15.5m/s | -48.3°C | 53.1% | 258.4hPa | 2.6V | 02:41:00 | 00:00:00 | 00:00:00 | |
| DF3TZ-5 | 2026-08-30 07:06:38 | 49.85398 | 8.53398 | 82° | 99km/h | 10529m | -16.6m/s | -48.5°C | 50.1% | 257.2hPa | 2.6V | 00:00:00 | 00:00:00 | 00:00:00 | |
| DM0DOS-11 | 2026-08-30 07:06:37 | 49.85382 | 8.53170 | 85° | 99km/h | 10627m | -16.8m/s | -49°C | 50.8% | 253.5hPa | 2.6V | 02:41:14 | 02:36:33 | 00:00:00 | |
| BIOWL1-15 | 2026-08-30 07:06:33 | 49.85384 | 8.53209 | 85° | 99km/h | 10610m | -16.5m/s | -48.9°C | 57.8% | 254.1hPa | 2.7V | 02:41:23 | 02:36:34 | 00:00:00 | |
| DL1ZP-14 | 2026-08-30 07:06:30 | 49.85378 | 8.53092 | 85° | 100km/h | 10659m | -16.5m/s | -49.3°C | 46.7% | 252.2hPa | 2.6V | 00:00:00 | 00:00:00 | 00:00:00 | |
| DM0DOS-11 | 2026-08-30 07:06:27 | 49.85363 | 8.52776 | 86° | 104km/h | 10795m | -16.1m/s | -50.4°C | 48.7% | 247.2hPa | 2.7V | 02:41:24 | 02:36:23 | 00:00:00 | |
| BIOWL1-15 | 2026-08-30 07:06:27 | 49.85365 | 8.52817 | 87° | 104km/h | 10778m | -16.8m/s | -50.3°C | 56.1% | 247.8hPa | 2.7V | 02:41:23 | 02:36:24 | 00:00:00 | |
| DO3MHA-11 | 2026-08-30 07:06:26 | 49.85370 | 8.52935 | 85° | 104km/h | 10727m | -17.3m/s | -49.8°C | 50.5% | 249.7hPa | 2.6V | 00:00:00 | 02:36:27 | 00:00:00 | |
| DB0UT-7 | 2026-08-30 07:06:25 | 49.85368 | 8.52896 | 86° | 108km/h | 10744m | -17.0m/s | -50.0°C | 50.1% | 249.0hPa | 2.6V | 00:00:00 | 02:36:26 | 00:00:00 | |
| DB0ND-19 | 2026-08-30 07:06:24 | 49.85366 | 8.52856 | 85° | 100km/h | 10761m | -16.6m/s | -50.2°C | 45.2% | 248.4hPa | 2.6V | 00:00:00 | 00:00:00 | 00:00:00 | |
| HEMX73-11 | 2026-08-30 07:06:23 | 49.85366 | 8.52856 | 87° | 100km/h | 10761m | -16.6m/s | -50.2°C | 45.2% | 248.4hPa | 2.6V | 02:41:00 | 00:00:00 | 00:00:00 | |
| DD1CC8 | 2026-08-30 07:06:22 | 49.85362 | 8.52736 | 87° | 104km/h | 10812m | -16.7m/s | -50.6°C | 43.7% | 246.5hPa | 2.6V | 00:00:00 | 00:00:00 | 00:00:00 | |
| DO1YAY-16 | 2026-08-30 07:06:21 | 49.85362 | 8.52736 | 87° | 104km/h | 10812m | -16.7m/s | -50.6°C | 43.7% | 246.5hPa | 2.6V | 00:00:00 | 00:00:00 | 00:00:00 | |
| DO9LL-15 | 2026-08-30 07:06:20 | 49.85361 | 8.52694 | 89° | 108km/h | 10829m | -16.4m/s | -50.7°C | 48.0% | 245.8hPa | 2.6V | 02:41:00 | 02:36:21 | 00:00:00 | |
| DL0LBS | 2026-08-30 07:06:18 | 49.85360 | 8.52652 | 89° | 106km/h | 10844m | -16.3m/s | -50.9°C | 43.3% | 245.2hPa | 2.6V | 02:42:00 | 00:00:00 | 00:00:00 | |
| DM0DOS-11 | 2026-08-30 07:06:17 | 49.85349 | 8.52360 | 87° | 110km/h | 10960m | -16.9m/s | -52°C | 43% | 240.9hPa | 2.6V | 02:41:34 | 02:36:13 | 00:00:00 | |
| BIOWL1-15 | 2026-08-30 07:06:12 | 49.85349 | 8.52360 | 87° | 110km/h | 10960m | -16.9m/s | -52°C | 47.9% | 240.9hPa | 2.6V | 02:42:14 | 02:36:13 | 00:00:00 | |
| NBG1-10 | 2026-08-30 07:06:11 | 49.85348 | 8.52317 | 88° | 110km/h | 10977m | -16.9m/s | -52.1°C | 42.0% | 240.2hPa | 2.7V | 02:41:00 | 02:36:12 | 00:00:00 | |
| DM0DOS-11 | 2026-08-30 07:06:07 | 49.85340 | 8.51926 | 88° | 113km/h | 11129m | -17.3m/s | -53.1°C | 33.6% | 234.7hPa | 2.6V | 02:41:44 | 02:36:03 | 00:00:00 | |
| BIOWL1-15 | 2026-08-30 07:06:01 | 49.85339 | 8.51882 | 89° | 113km/h | 11146m | -17m/s | -53.2°C | 35.9% | 234.1hPa | 2.6V | 02:42:14 | 02:36:02 | 00:00:00 | |
| DL1ZP-14 | 2026-08-30 07:05:59 | 49.85338 | 8.51794 | 88° | 110km/h | 11179m | -17.6m/s | -53.3°C | 26.9% | 232.9hPa | 2.7V | 00:00:00 | 00:00:00 | 00:00:00 | |
| DM0DOS-11 | 2026-08-30 07:05:57 | 49.85334 | 8.51492 | 89° | 113km/h | 11301m | -17.5m/s | -54°C | 28.6% | 228.5hPa | 2.6V | 02:41:54 | 02:35:53 | 00:00:00 | |
| BIOWL1-15 | 2026-08-30 07:05:51 | 49.85333 | 8.51448 | 89° | 111km/h | 11319m | -17.7m/s | -54.1°C | 30% | 227.9hPa | 2.6V | 02:42:14 | 02:35:52 | 00:00:00 | |
| DD1CC8 | 2026-08-30 07:05:50 | 49.85333 | 8.51404 | 88° | 111km/h | 11336m | -17.5m/s | -54.2°C | 23.6% | 227.2hPa | 2.6V | 00:00:00 | 00:00:00 | 00:00:00 | |
| BIOWL7-15 | 2026-08-30 07:05:48 | 49.85332 | 8.51360 | 90° | 111km/h | 11354m | -16.8m/s | -54.3°C | 23.1% | 226.7hPa | 2.6V | 02:42:00 | 00:00:00 | 00:00:00 | |
| DO3DL | 2026-08-30 07:05:47 | 49.85332 | 8.51317 | 90° | 110km/h | 11371m | -17.4m/s | -54.3°C | 22.5% | 226.1hPa | 2.6V | 02:42:00 | 00:00:00 | 00:00:00 | |
| DL9PN | 2026-08-30 07:05:46 | 49.85331 | 8.51062 | 89° | 104km/h | 11475m | -17.3m/s | -54.7°C | -1.0% | 222.4hPa | 2.6V | 00:00:00 | 00:00:00 | 00:00:00 | |
| DM0DOS-11 | 2026-08-30 07:05:44 | 49.85331 | 8.50938 | 91° | 106km/h | 11526m | -17.6m/s | -54.8°C | 21.4% | 220.7hPa | 2.6V | 02:42:07 | 02:35:40 | 00:00:00 | |
| BIOWL1-15 | 2026-08-30 07:05:40 | 49.85331 | 8.50980 | 90° | 106km/h | 11509m | -17.4m/s | -54.8°C | 22.1% | 221.2hPa | 2.6V | 02:42:14 | 02:35:41 | 00:00:00 | |
| DL4BBY-15 | 2026-08-30 07:05:40 | 49.85331 | 8.50980 | 91° | 91km/h | 11508m | -17.3m/s | -55.9°C | 0% | 0hPa | 2.6V | 00:00:00 | 00:00:00 | 00:00:00 | |
| NBG1-10 | 2026-08-30 07:05:38 | 49.85332 | 8.50897 | 92° | 89km/h | 11544m | -17.6m/s | -54.6°C | 20.7% | 220.0hPa | 2.6V | 00:00:00 | 02:35:39 | 00:00:00 | |
| DO3MHA-11 | 2026-08-30 07:05:36 | 49.85334 | 8.50816 | 92° | 95km/h | 11579m | -17.1m/s | -54.3°C | 19.1% | 218.8hPa | 2.6V | 00:00:00 | 02:35:37 | 00:00:00 | |
| DL8DAS-14 | 2026-08-30 07:05:35 | 49.85334 | 8.50737 | 90° | 99km/h | 11613m | -17.6m/s | -54.1°C | 14.0% | 217.7hPa | 2.6V | 00:00:00 | 00:00:00 | 00:00:00 | |
| DM0DOS-11 | 2026-08-30 07:05:34 | 49.85334 | 8.50553 | 88° | 91km/h | 11701m | -17.5m/s | -54.3°C | 15.5% | 214.7hPa | 2.6V | 02:42:17 | 02:35:30 | 00:00:00 | |
| BIOWL1-15 | 2026-08-30 07:05:29 | 49.85333 | 8.50553 | 88° | 91km/h | 11702m | -17.5m/s | -54.3°C | 15% | 214.7hPa | 2.6V | 02:43:05 | 02:35:30 | 00:00:00 | |
| DL1ZP-14 | 2026-08-30 07:05:28 | 49.85333 | 8.50518 | 88° | 89km/h | 11719m | -18.0m/s | -54.3°C | 11.4% | 214.2hPa | 2.6V | 00:00:00 | 00:00:00 | 00:00:00 | |
| DL8DAS-15 | 2026-08-30 07:05:27 | 49.85333 | 8.50518 | 90° | 89km/h | 11719m | -18.0m/s | -54.3°C | 11.4% | 214.1hPa | 2.6V | 00:00:00 | 00:00:00 | 00:00:00 | |
| DO3MHA-11 | 2026-08-30 07:05:26 | 49.85332 | 8.50448 | 90° | 86km/h | 11755m | -17.8m/s | -54.1°C | 13.8% | 212.9hPa | 2.6V | 00:00:00 | 02:35:27 | 00:00:00 | |
| DJ2DS-15 | 2026-08-30 07:05:25 | 49.85332 | 8.50412 | 89° | 86km/h | 11773m | -18.0m/s | -54.1°C | 13.5% | 212.3hPa | 2.6V | 02:42:00 | 02:35:26 | 00:00:00 | |
| DM0DOS-11 | 2026-08-30 07:05:24 | 49.85328 | 8.50210 | 87° | 84km/h | 11881m | -18.9m/s | -53.5°C | 10.5% | 208.8hPa | 2.7V | 02:42:27 | 02:35:20 | 00:00:00 | |
| BIOWL1-15 | 2026-08-30 07:05:21 | 49.85327 | 8.50210 | 87° | 84km/h | 11881m | -18.9m/s | -53.5°C | 9.8% | 208.8hPa | 2.7V | 02:43:05 | 02:35:20 | 00:00:00 | |
| DO3DL | 2026-08-30 07:05:20 | 49.85330 | 8.50275 | 88° | 84km/h | 11845m | -18.5m/s | -53.5°C | 8.1% | 210.0hPa | 2.6V | 02:43:00 | 00:00:00 | 00:00:00 | |
| DO3MHA-11 | 2026-08-30 07:05:16 | 49.85323 | 8.50110 | 86° | 88km/h | 11937m | -17.5m/s | -53.1°C | 9.7% | 207.0hPa | 2.6V | 02:42:00 | 02:35:17 | 00:00:00 | |
| DM0DOS-11 | 2026-08-30 07:05:14 | 49.85311 | 8.49872 | 82° | 88km/h | 12063m | -17.6m/s | -52.6°C | 9.1% | 203hPa | 2.6V | 02:42:37 | 02:35:10 | 00:00:00 | |
| BIOWL1-15 | 2026-08-30 07:05:08 | 49.85308 | 8.49838 | 81° | 89km/h | 12081m | -17.9m/s | -52.4°C | 8.7% | 202.4hPa | 2.7V | 02:43:05 | 02:35:09 | 00:00:00 | |
| DL4BBY-15 | 2026-08-30 07:05:06 | 49.85301 | 8.49770 | 80° | 86km/h | 12117m | -18.1m/s | -53.5°C | 0% | 0hPa | 2.6V | 00:00:00 | 00:00:00 | 00:00:00 | |
| DJ2DS-15 | 2026-08-30 07:05:05 | 49.85297 | 8.49737 | 81° | 86km/h | 12135m | -18.5m/s | -52.4°C | 9.1% | 200.8hPa | 2.6V | 00:00:00 | 02:35:06 | 00:00:00 | |
| DM0DOS-11 | 2026-08-30 07:05:04 | 49.85273 | 8.49534 | 78° | 89km/h | 12245m | -18.2m/s | -53.1°C | 8.6% | 197.4hPa | 2.6V | 02:42:47 | 02:35:00 | 00:00:00 | |
| BIOWL1-15 | 2026-08-30 07:04:57 | 49.85264 | 8.49466 | 79° | 89km/h | 12281m | -18.1m/s | -53.2°C | 7.2% | 196.3hPa | 2.7V | 02:43:05 | 02:34:58 | 00:00:00 | |
| DO3MHA-11 | 2026-08-30 07:04:56 | 49.85260 | 8.49431 | 81° | 86km/h | 12300m | -19.0m/s | -53.2°C | 7.8% | 195.7hPa | 2.6V | 00:00:00 | 02:34:57 | 00:00:00 | |
| DB0UT-7 | 2026-08-30 07:04:55 | 49.85256 | 8.49397 | 81° | 80km/h | 12319m | -19.2m/s | -53.3°C | 7.6% | 195.1hPa | 2.6V | 00:00:00 | 00:00:00 | 00:00:00 | |
| DM0DOS-11 | 2026-08-30 07:04:54 | 49.85238 | 8.49197 | 84° | 84km/h | 12429m | -18.2m/s | -53.5°C | 7.3% | 191.8hPa | 2.6V | 02:42:57 | 02:34:50 | 00:00:00 | |
| BIOWL1-15 | 2026-08-30 07:04:51 | 49.85233 | 8.49132 | 82° | 78km/h | 12466m | -18.9m/s | -53.8°C | 6% | 190.8hPa | 2.6V | 02:43:05 | 02:34:48 | 00:00:00 | |
| DD1CC8 | 2026-08-30 07:04:48 | 49.85236 | 8.49164 | 84° | 82km/h | 12448m | -17.9m/s | -53.7°C | 4.6% | 191.3hPa | 2.7V | 00:00:00 | 00:00:00 | 00:00:00 | |
| DO3DL | 2026-08-30 07:04:47 | 49.85236 | 8.49164 | 85° | 82km/h | 12448m | -17.9m/s | -53.7°C | 4.6% | 191.3hPa | 2.7V | 02:43:00 | 00:00:00 | 00:00:00 | |
| DO3MHA-11 | 2026-08-30 07:04:46 | 49.85231 | 8.49102 | 83° | 77km/h | 12485m | -18.8m/s | -53.8°C | 7.4% | 190.2hPa | 2.7V | 02:43:00 | 02:34:47 | 00:00:00 | |
| DJ2DS-15 | 2026-08-30 07:04:45 | 49.85228 | 8.49071 | 83° | 78km/h | 12504m | -19.2m/s | -54.0°C | 7.4% | 189.6hPa | 2.6V | 00:00:00 | 02:34:46 | 00:00:00 | |
| DK5PH-5 | 2026-08-30 07:04:44 | 49.85225 | 8.49042 | 83° | 75km/h | 12523m | -18.8m/s | -54.1°C | 7.4% | 189.1hPa | 2.6V | 00:00:00 | 02:34:45 | 00:00:00 | |
| DM0DOS-11 | 2026-08-30 07:04:43 | 49.85208 | 8.48868 | 79° | 75km/h | 12637m | -19m/s | -54.3°C | 7.5% | 185.7hPa | 2.6V | 02:43:08 | 02:34:39 | 00:00:00 | |
| BIOWL1-15 | 2026-08-30 07:04:36 | 49.85200 | 8.48809 | 78° | 77km/h | 12674m | -18.1m/s | -54.5°C | 6% | 184.7hPa | 2.6V | 02:43:56 | 02:34:37 | 00:00:00 | |
| DO3MHA-11 | 2026-08-30 07:04:36 | 49.85200 | 8.48809 | 78° | 80km/h | 12674m | -18.0m/s | -54.5°C | 7.6% | 184.6hPa | 2.7V | 00:00:00 | 02:34:37 | 00:00:00 | |
| DC4HF-4 | 2026-08-30 07:04:35 | 49.85191 | 8.48750 | 76° | 77km/h | 12710m | -18.7m/s | -54.7°C | 4.7% | 183.6hPa | 2.7V | 00:00:00 | 00:00:00 | 00:00:00 | |
| DF3TZ-5 | 2026-08-30 07:04:34 | 49.85191 | 8.48750 | 76° | 77km/h | 12710m | -18.7m/s | -54.7°C | 4.7% | 183.6hPa | 2.7V | 00:00:00 | 00:00:00 | 00:00:00 | |
| DM0DOS-11 | 2026-08-30 07:04:33 | 49.85167 | 8.48567 | 81° | 82km/h | 12825m | -19.4m/s | -54.7°C | 7.1% | 180.3hPa | 2.7V | 02:43:18 | 02:34:29 | 00:00:00 | |
| BIOWL1-15 | 2026-08-30 07:04:26 | 49.85162 | 8.48503 | 85° | 82km/h | 12863m | -17.6m/s | -54.7°C | 5% | 179.2hPa | 2.6V | 02:43:56 | 02:34:27 | 00:00:00 | |
| DO3MHA-11 | 2026-08-30 07:04:26 | 49.85162 | 8.48503 | 86° | 75km/h | 12863m | -17.6m/s | -54.7°C | 7.0% | 179.1hPa | 2.7V | 00:00:00 | 02:34:27 | 00:00:00 | |
| AM1SDL-15 | 2026-08-30 07:04:24 | 49.85159 | 8.48440 | 87° | 71km/h | 12898m | -18.0m/s | 0°C | 0% | 0hPa | 2.7V | 00:00:00 | 02:34:25 | 00:00:00 | |
| DM0DOS-11 | 2026-08-30 07:04:23 | 49.85151 | 8.48267 | 83° | 66km/h | 13015m | -19.2m/s | -54.5°C | 6.2% | 175hPa | 2.7V | 02:43:28 | 02:34:19 | 00:00:00 | |
| BIOWL1-15 | 2026-08-30 07:04:16 | 49.85147 | 8.48217 | 82° | 62km/h | 13055m | -19.5m/s | -54.7°C | 4.1% | 174hPa | 2.6V | 02:43:56 | 02:34:17 | 00:00:00 | |
| DO3MHA-11 | 2026-08-30 07:04:16 | 49.85147 | 8.48217 | 82° | 60km/h | 13055m | -19.5m/s | -54.6°C | 6.2% | 173.9hPa | 2.6V | 02:43:00 | 02:34:17 | 00:00:00 | |
| DF1GD-15 | 2026-08-30 07:04:15 | 49.85147 | 8.48217 | 83° | 62km/h | 13055m | -19.5m/s | -54.7°C | 3.5% | 174.0hPa | 2.7V | 02:43:00 | 00:00:00 | 00:00:00 | |
| DK5PH-5 | 2026-08-30 07:04:14 | 49.85143 | 8.48171 | 80° | 69km/h | 13093m | -18.8m/s | -54.7°C | 6.2% | 172.9hPa | 2.7V | 02:43:00 | 02:34:15 | 00:00:00 | |
| DM0DOS-11 | 2026-08-30 07:04:13 | 49.85126 | 8.48034 | 79° | 62km/h | 13207m | -18.8m/s | -54.8°C | 6% | 169.8hPa | 2.7V | 02:43:38 | 02:34:09 | 00:00:00 | |
| BIOWL1-15 | 2026-08-30 07:04:05 | 49.85118 | 8.47961 | 82° | 66km/h | 13266m | -20.5m/s | -55°C | 3.7% | 168.4hPa | 2.6V | 02:43:56 | 02:34:06 | 00:00:00 | |
| DJ2DS-15 | 2026-08-30 07:04:05 | 49.85118 | 8.47961 | 83° | 71km/h | 13267m | -20.4m/s | -54.9°C | 6.0% | 168.3hPa | 2.7V | 00:00:00 | 02:34:06 | 00:00:00 | |
| DM0DOS-11 | 2026-08-30 07:04:03 | 49.85095 | 8.47780 | 77° | 69km/h | 13404m | -18.3m/s | -55.1°C | 5.9% | 164.7hPa | 2.7V | 02:43:48 | 02:33:59 | 00:00:00 | |
| BIOWL1-15 | 2026-08-30 07:03:55 | 49.85083 | 8.47700 | 77° | 71km/h | 13461m | -18.9m/s | -55.3°C | 3.5% | 163.2hPa | 2.6V | 02:43:56 | 02:33:56 | 00:00:00 | |
| DJ2DS-15 | 2026-08-30 07:03:54 | 49.85079 | 8.47672 | 77° | 71km/h | 13480m | -18.5m/s | -55.4°C | 3.2% | 162.8hPa | 2.7V | 00:00:00 | 00:00:00 | 00:00:00 | |
| DM0DOS-11 | 2026-08-30 07:03:53 | 49.85059 | 8.47498 | 81° | 78km/h | 13592m | -19.8m/s | -55.4°C | 5.7% | 159.9hPa | 2.7V | 02:43:58 | 02:33:49 | 00:00:00 | |
| BIOWL1-15 | 2026-08-30 07:03:45 | 49.85052 | 8.47406 | 83° | 77km/h | 13649m | -19m/s | -55.2°C | 2.9% | 158.5hPa | 2.6V | 02:44:47 | 02:33:46 | 00:00:00 | |
| DJ2DS-15 | 2026-08-30 07:03:45 | 49.85051 | 8.47406 | 83° | 73km/h | 13650m | -18.9m/s | -55.2°C | 5.5% | 158.4hPa | 2.6V | 00:00:00 | 02:33:46 | 00:00:00 | |
| DK5PH-5 | 2026-08-30 07:03:44 | 49.85049 | 8.47377 | 83° | 73km/h | 13669m | -19.1m/s | -55.3°C | 5.5% | 157.9hPa | 2.6V | 00:00:00 | 02:33:45 | 00:00:00 | |
| DM0DOS-11 | 2026-08-30 07:03:43 | 49.85036 | 8.47203 | 80° | 71km/h | 13777m | -18.4m/s | -55.4°C | 5.4% | 155.3hPa | 2.6V | 02:44:08 | 02:33:39 | 00:00:00 | |
| HSKMA3-T | 2026-08-30 07:03:39 | 49.85039 | 8.47231 | 83° | 73km/h | 13759m | -18.3m/s | -55.3°C | 2.7% | 155.7hPa | 2.6V | 02:49:53 | 02:33:40 | 00:00:00 | |
| BIOWL1-15 | 2026-08-30 07:03:34 | 49.85023 | 8.47095 | 78° | 71km/h | 13852m | -18m/s | -55.7°C | 2.5% | 153.5hPa | 2.6V | 02:44:47 | 02:33:35 | 00:00:00 | |
| DM0DOS-11 | 2026-08-30 07:03:33 | 49.84998 | 8.46929 | 74° | 75km/h | 13963m | -18.6m/s | -55.6°C | 5.4% | 150.9hPa | 2.6V | 02:44:18 | 02:33:29 | 00:00:00 | |
| DF3TZ-5 | 2026-08-30 07:03:32 | 49.85010 | 8.47013 | 76° | 71km/h | 13907m | -18.1m/s | -55.6°C | 2.5% | 152.2hPa | 2.7V | 00:00:00 | 00:00:00 | 00:00:00 | |
| DF7PN | 2026-08-30 07:03:30 | 49.85006 | 8.46986 | 76° | 73km/h | 13925m | -18.2m/s | -55.5°C | 2.5% | 151.7hPa | 2.7V | 00:00:00 | 00:00:00 | 00:00:00 | |
| DM7RM-13 | 2026-08-30 07:03:28 | 49.85002 | 8.46957 | 77° | 75km/h | 13944m | -18.5m/s | -55.5°C | 2.5% | 151.3hPa | 2.7V | 02:44:00 | 00:00:00 | 00:00:00 | |
| DL8DAS-15 | 2026-08-30 07:03:27 | 49.84997 | 8.46929 | 76° | 75km/h | 13963m | -18.6m/s | -55.6°C | 2.5% | 150.9hPa | 2.7V | 00:00:00 | 00:00:00 | 00:00:00 | |
| DO3MHA-11 | 2026-08-30 07:03:26 | 49.84988 | 8.46872 | 77° | 75km/h | 14000m | -18.4m/s | -55.6°C | 5.5% | 149.9hPa | 2.7V | 00:00:00 | 02:33:27 | 00:00:00 | |
| DB0UT-7 | 2026-08-30 07:03:25 | 49.84984 | 8.46843 | 78° | 73km/h | 14019m | -18.4m/s | -55.6°C | 5.5% | 149.5hPa | 2.7V | 00:00:00 | 02:33:26 | 00:00:00 | |
| DL1ZP-14 | 2026-08-30 07:03:24 | 49.84980 | 8.46814 | 76° | 75km/h | 14037m | -18.6m/s | -55.6°C | 2.5% | 149.1hPa | 2.7V | 00:00:00 | 00:00:00 | 00:00:00 | |
| BIOWL1-15 | 2026-08-30 07:03:24 | 49.84980 | 8.46814 | 76° | 75km/h | 14037m | -18.6m/s | -55.6°C | 2.4% | 149.1hPa | 2.7V | 02:44:47 | 02:33:25 | 00:00:00 | |
| DM0DOS-11 | 2026-08-30 07:03:23 | 49.84958 | 8.46643 | 78° | 75km/h | 14151m | -18.9m/s | -55.1°C | 5.2% | 146.5hPa | 2.7V | 02:44:28 | 02:33:19 | 00:00:00 | |
| HSKMA3-T | 2026-08-30 07:03:23 | 49.84975 | 8.46786 | 77° | 73km/h | 14056m | -18.7m/s | -55.6°C | 2.4% | 148.7hPa | 2.6V | 02:49:53 | 02:33:24 | 00:00:00 | |
| BIOWL1-15 | 2026-08-30 07:03:14 | 49.84944 | 8.46524 | 80° | 78km/h | 14229m | -20.9m/s | -54.1°C | 2.2% | 144.7hPa | 2.6V | 02:44:47 | 02:33:15 | 00:00:00 | |
| DK5PH-5 | 2026-08-30 07:03:14 | 49.84944 | 8.46523 | 80° | 64km/h | 14229m | -20.9m/s | -54.1°C | 4.9% | 144.7hPa | 2.6V | 00:00:00 | 02:33:15 | 00:00:00 | |
| DM0DOS-11 | 2026-08-30 07:03:13 | 49.84925 | 8.46336 | 82° | 80km/h | 14345m | -18.6m/s | -54.4°C | 5% | 142.1hPa | 2.6V | 02:44:38 | 02:33:09 | 00:00:00 | |
| BIOWL1-15 | 2026-08-30 07:03:03 | 49.84914 | 8.46184 | 86° | 75km/h | 14435m | -17.5m/s | -55°C | 2.4% | 140hPa | 2.6V | 02:44:47 | 02:33:04 | 00:00:00 | |
| DM0DOS-11 | 2026-08-30 07:03:03 | 49.84906 | 8.46053 | 83° | 60km/h | 14523m | -18.1m/s | -54.6°C | 5% | 138.2hPa | 2.6V | 02:44:48 | 02:32:59 | 00:00:00 | |
| BIOWL1-15 | 2026-08-30 07:02:55 | 49.84892 | 8.45947 | 76° | 53km/h | 14614m | -18m/s | -54.4°C | 2.2% | 136.2hPa | 2.6V | 02:45:38 | 02:32:54 | 00:00:00 | |
| DB0UT-7 | 2026-08-30 07:02:55 | 49.84898 | 8.45987 | 79° | 58km/h | 14578m | -18.5m/s | -54.4°C | 4.8% | 136.9hPa | 2.6V | 00:00:00 | 00:00:00 | 00:00:00 | |
| DM0DOS-11 | 2026-08-30 07:02:53 | 49.84873 | 8.45856 | 66° | 47km/h | 14705m | -19.1m/s | -54.2°C | 4.7% | 134.3hPa | 2.6V | 02:44:58 | 02:32:49 | 00:00:00 | |
| DL1XH-west | 2026-08-30 07:02:44 | 49.84853 | 8.45786 | 64° | 49km/h | 14776m | -17.9m/s | -54.4°C | 2% | 132.8hPa | 2.7V | 02:45:38 | 02:32:45 | 00:00:00 | |
| BIOWL1-15 | 2026-08-30 07:02:43 | 49.84847 | 8.45769 | 62° | 49km/h | 14794m | -18.6m/s | -54.6°C | 2% | 132.4hPa | 2.7V | 02:45:38 | 02:32:44 | 00:00:00 | |
| DJ2DS-15 | 2026-08-30 07:02:42 | 49.84841 | 8.45751 | 59° | 49km/h | 14813m | -18.9m/s | -54.6°C | 2.1% | 132.0hPa | 2.7V | 00:00:00 | 00:00:00 | 00:00:00 | |
| CB1BUN | 2026-08-30 07:02:40 | 49.84827 | 8.45717 | 59° | 53km/h | 14852m | -19.2m/s | -54.9°C | 2.1% | 131.3hPa | 2.7V | 02:45:00 | 00:00:00 | 00:00:00 | |
| BIOWL7-15 | 2026-08-30 07:02:39 | 49.84827 | 8.45717 | 59° | 53km/h | 14852m | -19.2m/s | -54.9°C | 2.1% | 131.3hPa | 2.7V | 02:45:00 | 00:00:00 | 00:00:00 | |
| DL1KLB | 2026-08-30 07:02:38 | 49.84820 | 8.45699 | 59° | 55km/h | 14871m | -19.0m/s | -55.0°C | 2.1% | 130.8hPa | 2.7V | 02:45:00 | 00:00:00 | 00:00:00 | |
| DL1XH1-15 | 2026-08-30 07:02:37 | 49.84754 | 8.45562 | 49° | 71km/h | 15001m | -19.1m/s | -55.4°C | 4.9% | 128.2hPa | 2.7V | 02:45:14 | 02:32:33 | 00:00:00 | |
| DO3MHA-11 | 2026-08-30 07:02:36 | 49.84795 | 8.45642 | 55° | 71km/h | 14926m | -18.7m/s | -55.3°C | 5.0% | 129.7hPa | 2.7V | 00:00:00 | 02:32:37 | 00:00:00 | |
| BIOWL9-15 | 2026-08-30 07:02:35 | 49.84786 | 8.45622 | 52° | 62km/h | 14944m | -19.2m/s | -55.4°C | 2.1% | 129.3hPa | 2.7V | 00:00:00 | 00:00:00 | 00:00:00 | |
| HEMX73-11 | 2026-08-30 07:02:34 | 49.84786 | 8.45622 | 54° | 64km/h | 14944m | -19.2m/s | -55.4°C | 2.1% | 129.3hPa | 2.7V | 02:45:00 | 00:00:00 | 00:00:00 | |
| DM0DOS-11 | 2026-08-30 07:02:33 | 49.84708 | 8.45470 | 53° | 78km/h | 15078m | -17.8m/s | -55.8°C | 5.1% | 126.7hPa | 2.7V | 02:45:18 | 02:32:29 | 00:00:00 | |
| BIOWL1-15 | 2026-08-30 07:02:33 | 49.84765 | 8.45582 | 49° | 69km/h | 14982m | -18.7m/s | -55.4°C | 1.8% | 128.5hPa | 2.7V | 02:45:38 | 02:32:34 | 00:00:00 | |
| DF1GD-15 | 2026-08-30 07:02:33 | 49.84765 | 8.45582 | 50° | 69km/h | 14982m | -18.7m/s | -55.4°C | 2.1% | 128.5hPa | 2.7V | 02:45:00 | 00:00:00 | 00:00:00 | |
| DL8DAS-15 | 2026-08-30 07:02:32 | 49.84765 | 8.45582 | 50° | 69km/h | 14982m | -18.7m/s | -55.4°C | 2.1% | 128.5hPa | 2.7V | 00:00:00 | 00:00:00 | 00:00:00 | |
| DL0LBS | 2026-08-30 07:02:31 | 49.84754 | 8.45562 | 51° | 71km/h | 15001m | -19.1m/s | -55.4°C | 2.1% | 128.2hPa | 2.7V | 02:45:00 | 00:00:00 | 00:00:00 | |
| DF3TZ-5 | 2026-08-30 07:02:30 | 49.84720 | 8.45494 | 53° | 77km/h | 15059m | -18.8m/s | -55.7°C | 2.1% | 127.0hPa | 2.7V | 00:00:00 | 00:00:00 | 00:00:00 | |
| DF7PN | 2026-08-30 07:02:28 | 49.84708 | 8.45470 | 53° | 77km/h | 15078m | -17.8m/s | -55.8°C | 2.1% | 126.7hPa | 2.7V | 00:00:00 | 00:00:00 | 00:00:00 | |
| DL1XH1-15 | 2026-08-30 07:02:27 | 49.84649 | 8.45309 | 67° | 77km/h | 15186m | -19.3m/s | -54.8°C | 4.7% | 124.5hPa | 2.7V | 02:45:24 | 02:32:23 | 00:00:00 | |
| HSKMA3-T | 2026-08-30 07:02:25 | 49.84676 | 8.45392 | 60° | 78km/h | 15131m | -18.3m/s | -55.6°C | 1.7% | 125.6hPa | 2.6V | 02:49:53 | 02:32:26 | 00:00:00 | |
| DJ2DS-15 | 2026-08-30 07:02:25 | 49.84675 | 8.45392 | 61° | 75km/h | 15131m | -18.3m/s | -55.5°C | 5.1% | 125.6hPa | 2.6V | 02:45:00 | 02:32:26 | 00:00:00 | |
| DM0DOS-11 | 2026-08-30 07:02:23 | 49.84624 | 8.45197 | 74° | 75km/h | 15264m | -18.6m/s | -54.7°C | 4.6% | 123hPa | 2.7V | 02:45:28 | 02:32:19 | 00:00:00 | |
| DL1XH-west | 2026-08-30 07:02:22 | 49.84649 | 8.45309 | 68° | 77km/h | 15186m | -19.3m/s | -54.8°C | 1.4% | 124.5hPa | 2.7V | 02:45:38 | 02:32:23 | 00:00:00 | |
| DL8DAS-15 | 2026-08-30 07:02:21 | 49.84649 | 8.45309 | 68° | 77km/h | 15186m | -19.3m/s | -54.8°C | 1.9% | 124.5hPa | 2.7V | 00:00:00 | 00:00:00 | 00:00:00 | |
| NBG1-10 | 2026-08-30 07:02:20 | 49.84635 | 8.45253 | 72° | 69km/h | 15226m | -20.5m/s | -54.6°C | 4.6% | 123.8hPa | 2.7V | 00:00:00 | 02:32:21 | 00:00:00 | |
| HTAHTA | 2026-08-30 07:02:19 | 49.84624 | 8.45197 | 74° | 73km/h | 15264m | -18.6m/s | -54.7°C | 1.8% | 123.0hPa | 2.7V | 00:00:00 | 00:00:00 | 00:00:00 | |
| DL1XH1-15 | 2026-08-30 07:02:17 | 49.84601 | 8.45024 | 79° | 75km/h | 15378m | -21.1m/s | -54°C | 4.3% | 120.8hPa | 2.7V | 02:45:34 | 02:32:13 | 00:00:00 | |
| DO3MHA-11 | 2026-08-30 07:02:16 | 49.84616 | 8.45139 | 79° | 75km/h | 15302m | -19.4m/s | -54.4°C | 4.5% | 122.2hPa | 2.7V | 02:45:00 | 02:32:17 | 00:00:00 | |
| DO2KSM | 2026-08-30 07:02:15 | 49.84616 | 8.45139 | 80° | 75km/h | 15302m | -19.4m/s | -54.5°C | 1.7% | 122.3hPa | 2.7V | 00:00:00 | 00:00:00 | 00:00:00 | |
| DK5PH-5 | 2026-08-30 07:02:14 | 49.84608 | 8.45082 | 79° | 66km/h | 15339m | -18.2m/s | -54.4°C | 4.5% | 121.5hPa | 2.7V | 00:00:00 | 02:32:15 | 00:00:00 | |
| DM0DOS-11 | 2026-08-30 07:02:13 | 49.84585 | 8.44910 | 78° | 75km/h | 15457m | -18.9m/s | -53°C | 4% | 119.4hPa | 2.7V | 02:45:38 | 02:32:09 | 00:00:00 | |
| BIOWL1-15 | 2026-08-30 07:02:11 | 49.84597 | 8.44995 | 78° | 75km/h | 15398m | -20.8m/s | -53.8°C | 1% | 120.5hPa | 2.7V | 02:45:38 | 02:32:12 | 00:00:00 | |
| DC4HF-4 | 2026-08-30 07:02:11 | 49.84593 | 8.44966 | 77° | 73km/h | 15419m | -20.1m/s | -53.6°C | 1.5% | 120.1hPa | 2.6V | 00:00:00 | 00:00:00 | 00:00:00 | |
| DO3DL | 2026-08-30 07:02:08 | 49.84589 | 8.44938 | 79° | 75km/h | 15439m | -19.3m/s | -53.3°C | 1.5% | 119.7hPa | 2.6V | 02:45:00 | 00:00:00 | 00:00:00 | |
| DL1XH1-15 | 2026-08-30 07:02:07 | 49.84562 | 8.44742 | 80° | 69km/h | 15581m | -22.2m/s | -52.9°C | 3.7% | 117.2hPa | 2.6V | 02:45:44 | 02:32:03 | 00:00:00 | |
| DO3MHA-11 | 2026-08-30 07:02:06 | 49.84577 | 8.44852 | 77° | 69km/h | 15496m | -20.0m/s | -52.8°C | 3.8% | 118.6hPa | 2.7V | 00:00:00 | 02:32:07 | 00:00:00 | |
| DJ2DS-15 | 2026-08-30 07:02:04 | 49.84569 | 8.44796 | 78° | 62km/h | 15537m | -21.5m/s | -53.0°C | 3.9% | 117.9hPa | 2.7V | 00:00:00 | 02:32:05 | 00:00:00 | |
| DM0DOS-11 | 2026-08-30 07:02:03 | 49.84552 | 8.44637 | 85° | 66km/h | 15667m | -20.6m/s | -52.7°C | 3.8% | 115.6hPa | 2.7V | 02:45:48 | 02:31:59 | 00:00:00 | |
| BIOWL1-15 | 2026-08-30 07:02:01 | 49.84559 | 8.44716 | 80° | 68km/h | 15603m | -21.8m/s | -52.7°C | 0.7% | 116.8hPa | 2.6V | 02:46:29 | 02:32:02 | 00:00:00 | |
| HSKMA3-T | 2026-08-30 07:01:59 | 49.84554 | 8.44663 | 85° | 68km/h | 15646m | -20.9m/s | -52.9°C | 0.7% | 116hPa | 2.7V | 02:49:53 | 02:32:00 | 00:00:00 | |
| DF3TZ-5 | 2026-08-30 07:01:59 | 49.84552 | 8.44637 | 85° | 66km/h | 15667m | -20.6m/s | -52.7°C | 1.4% | 115.6hPa | 2.7V | 00:00:00 | 00:00:00 | 00:00:00 | |
| CB1BUN | 2026-08-30 07:01:58 | 49.84553 | 8.44663 | 85° | 68km/h | 15646m | -20.9m/s | -52.9°C | 1.4% | 116.0hPa | 2.7V | 02:46:00 | 00:00:00 | 00:00:00 | |
| DL1XH1-15 | 2026-08-30 07:01:57 | 49.84551 | 8.44492 | 94° | 60km/h | 15796m | -21m/s | -53.3°C | 4% | 113.3hPa | 2.7V | 02:45:54 | 02:31:53 | 00:00:00 | |
| DO3MHA-11 | 2026-08-30 07:01:56 | 49.84550 | 8.44588 | 89° | 58km/h | 15709m | -21.5m/s | -52.7°C | 3.8% | 114.8hPa | 2.6V | 00:00:00 | 02:31:57 | 00:00:00 | |
| DB0UT-7 | 2026-08-30 07:01:55 | 49.84549 | 8.44563 | 89° | 46km/h | 15730m | -21.3m/s | -52.9°C | 3.8% | 114.5hPa | 2.6V | 00:00:00 | 00:00:00 | 00:00:00 | |
| BIOWL7-15 | 2026-08-30 07:01:54 | 49.84550 | 8.44563 | 90° | 62km/h | 15730m | -21.4m/s | -52.9°C | 1.4% | 114.5hPa | 2.6V | 02:46:00 | 00:00:00 | 00:00:00 | |
| DM0DOS-11 | 2026-08-30 07:01:53 | 49.84556 | 8.44405 | 94° | 55km/h | 15881m | -20.9m/s | -53.6°C | 4.1% | 111.8hPa | 2.6V | 02:45:58 | 02:31:49 | 00:00:00 | |
| DL1XH-west | 2026-08-30 07:01:50 | 49.84553 | 8.44447 | 96° | 57km/h | 15839m | -21m/s | -53.4°C | 0.8% | 112.6hPa | 2.6V | 02:46:29 | 02:31:51 | 00:00:00 | |
| DL4BBY-15 | 2026-08-30 07:01:50 | 49.84553 | 8.44447 | 97° | 40km/h | 15840m | -20.9m/s | -54.5°C | 0% | 0hPa | 2.7V | 00:00:00 | 00:00:00 | 00:00:00 | |
| DO3DL | 2026-08-30 07:01:48 | 49.84555 | 8.44426 | 96° | 55km/h | 15860m | -21.4m/s | -53.5°C | 1.4% | 112.2hPa | 2.7V | 02:46:00 | 00:00:00 | 00:00:00 | |
| DL1XH1-15 | 2026-08-30 07:01:47 | 49.84556 | 8.44281 | 84° | 51km/h | 16005m | -19.7m/s | -54.3°C | 4.3% | 109.6hPa | 2.7V | 02:46:04 | 02:31:43 | 00:00:00 | |
| DB0ND-19 | 2026-08-30 07:01:45 | 49.84558 | 8.44342 | 88° | 53km/h | 15943m | -20.8m/s | -53.9°C | 1.5% | 110.7hPa | 2.7V | 00:00:00 | 00:00:00 | 00:00:00 | |
| DB0NH | 2026-08-30 07:01:44 | 49.84557 | 8.44301 | 86° | 29km/h | 15985m | -19.9m/s | -54.1°C | 4.3% | 109.9hPa | 2.7V | 00:00:00 | 02:31:44 | 00:00:00 | |
| DM0DOS-11 | 2026-08-30 07:01:43 | 49.84552 | 8.44205 | 82° | 44km/h | 16092m | -21.7m/s | -54.4°C | 4.5% | 108.3hPa | 2.7V | 02:46:08 | 02:31:39 | 00:00:00 | |
| BIOWL1-15 | 2026-08-30 07:01:41 | 49.84553 | 8.44223 | 83° | 46km/h | 16069m | -22.3m/s | -54.5°C | 1% | 108.6hPa | 2.7V | 02:46:29 | 02:31:40 | 00:00:00 | |
| DL1XH-west | 2026-08-30 07:01:40 | 49.84554 | 8.44241 | 87° | 49km/h | 16047m | -22m/s | -54.5°C | 0.9% | 109hPa | 2.6V | 02:46:29 | 02:31:41 | 00:00:00 | |
| DH7VM-15 | 2026-08-30 07:01:39 | 49.84554 | 8.44241 | 88° | 49km/h | 16047m | -22.0m/s | -54.5°C | 1.5% | 109.0hPa | 2.7V | 00:00:00 | 00:00:00 | 00:00:00 | |
| DL1XH1-15 | 2026-08-30 07:01:37 | 49.84543 | 8.44112 | 75° | 29km/h | 16218m | -22.2m/s | -52.1°C | 3.6% | 106.1hPa | 2.7V | 02:46:14 | 02:31:33 | 00:00:00 | |
| DO3MHA-11 | 2026-08-30 07:01:36 | 49.84549 | 8.44171 | 82° | 31km/h | 16134m | -21.3m/s | -53.8°C | 4.3% | 107.5hPa | 2.7V | 00:00:00 | 02:31:37 | 00:00:00 | |
| DL1KLB | 2026-08-30 07:01:35 | 49.84549 | 8.44171 | 82° | 44km/h | 16134m | -21.4m/s | -53.8°C | 1.5% | 107.6hPa | 2.7V | 02:46:00 | 00:00:00 | 00:00:00 | |
| DO3DL | 2026-08-30 07:01:34 | 49.84547 | 8.44154 | 85° | 40km/h | 16155m | -20.7m/s | -53.1°C | 1.4% | 107.2hPa | 2.7V | 02:46:00 | 00:00:00 | 00:00:00 | |
| DM0DOS-11 | 2026-08-30 07:01:33 | 49.84537 | 8.44071 | 68° | 24km/h | 16310m | -24m/s | -51.5°C | 3.3% | 104.7hPa | 2.7V | 02:46:18 | 02:31:29 | 00:00:00 | |
| BIOWL1-15 | 2026-08-30 07:01:31 | 49.84539 | 8.44080 | 77° | 26km/h | 16286m | -22.6m/s | -51.6°C | 0.4% | 105hPa | 2.6V | 02:46:29 | 02:31:30 | 00:00:00 | |
| DL1XH-west | 2026-08-30 07:01:30 | 49.84540 | 8.44090 | 79° | 27km/h | 16264m | -22.5m/s | -51.6°C | 0.4% | 105.4hPa | 2.6V | 02:46:29 | 02:31:31 | 00:00:00 | |
| DL0LBS | 2026-08-30 07:01:30 | 49.84540 | 8.44090 | 80° | 27km/h | 16264m | -22.5m/s | -51.6°C | 1.2% | 105.4hPa | 2.7V | 02:46:00 | 00:00:00 | 00:00:00 | |
| AU51GT2 | 2026-08-30 07:01:28 | 49.84537 | 8.44071 | 68° | 22km/h | 16310m | -24.0m/s | -51.5°C | 1.1% | 104.7hPa | 2.7V | 00:00:00 | 00:00:00 | 00:00:00 | |
| DO3DL | 2026-08-30 07:01:27 | 49.84537 | 8.44071 | 70° | 24km/h | 16310m | -24.0m/s | -51.5°C | 1.1% | 104.7hPa | 2.7V | 02:46:00 | 00:00:00 | 00:00:00 | |
| DL1XH1-15 | 2026-08-30 07:01:26 | 49.84519 | 8.44028 | 45° | 18km/h | 16473m | -20.9m/s | -51.6°C | 3.2% | 102hPa | 2.7V | 02:46:25 | 02:31:22 | 00:00:00 | |
| DB0UT-7 | 2026-08-30 07:01:25 | 49.84530 | 8.44048 | 54° | 29km/h | 16381m | -23.8m/s | -51.6°C | 3.3% | 103.5hPa | 2.6V | 00:00:00 | 02:31:26 | 00:00:00 | |
| DJ2DS-15 | 2026-08-30 07:01:24 | 49.84528 | 8.44043 | 48° | 24km/h | 16405m | -23.7m/s | -51.6°C | 3.3% | 103.2hPa | 2.6V | 02:46:00 | 02:31:25 | 00:00:00 | |
| DM0DOS-11 | 2026-08-30 07:01:23 | 49.84510 | 8.44014 | 45° | 18km/h | 16540m | -23.6m/s | -52.1°C | 3.3% | 101hPa | 2.6V | 02:46:28 | 02:31:19 | 00:00:00 | |
| BIOWL1-15 | 2026-08-30 07:01:20 | 49.84510 | 8.44014 | 45° | 18km/h | 16540m | -23.6m/s | -52.1°C | 0.3% | 101hPa | 2.6V | 02:46:29 | 02:31:19 | 00:00:00 | |
| DL1XH-west | 2026-08-30 07:01:19 | 49.84513 | 8.44019 | 48° | 16km/h | 16516m | -24m/s | -51.9°C | 0.3% | 101.4hPa | 2.6V | 02:46:29 | 02:31:20 | 00:00:00 | |
| CB1BUN | 2026-08-30 07:01:17 | 49.84510 | 8.44014 | 46° | 18km/h | 16540m | -23.6m/s | -52.1°C | 1.1% | 101.0hPa | 2.7V | 02:46:00 | 00:00:00 | 00:00:00 | |
| DL1XH1-15 | 2026-08-30 07:01:16 | 49.84476 | 8.43988 | 25° | 26km/h | 16698m | -21.7m/s | -53.5°C | 3.7% | 98.5hPa | 2.7V | 02:46:35 | 02:31:12 | 00:00:00 | |
| DO3MHA-11 | 2026-08-30 07:01:16 | 49.84502 | 8.44005 | 27° | 26km/h | 16586m | -22.4m/s | -52.5°C | 3.4% | 100.3hPa | 2.7V | 02:46:00 | 02:31:17 | 00:00:00 | |
| DL1KLB | 2026-08-30 07:01:15 | 49.84502 | 8.44005 | 28° | 20km/h | 16586m | -22.5m/s | -52.6°C | 1.1% | 100.3hPa | 2.6V | 02:47:00 | 00:00:00 | 00:00:00 | |
| DK5PH-5 | 2026-08-30 07:01:14 | 49.84492 | 8.43999 | 21° | 35km/h | 16631m | -22.8m/s | -52.9°C | 3.6% | 99.5hPa | 2.6V | 02:46:00 | 02:31:15 | 00:00:00 | |
| DM0DOS-11 | 2026-08-30 07:01:13 | 49.84455 | 8.43975 | 20° | 33km/h | 16761m | -20.4m/s | -53.9°C | 3.8% | 97.5hPa | 2.7V | 02:46:38 | 02:31:09 | 00:00:00 | |
| DL1XH-west | 2026-08-30 07:01:08 | 49.84456 | 8.43975 | 20° | 33km/h | 16761m | -20.4m/s | -53.9°C | 0.6% | 97.5hPa | 2.7V | 02:47:20 | 02:31:09 | 00:00:00 | |
| BIOWL1-15 | 2026-08-30 07:01:07 | 49.84448 | 8.43970 | 21° | 33km/h | 16781m | -20.5m/s | -54°C | 0.7% | 97.2hPa | 2.7V | 02:47:20 | 02:31:08 | 00:00:00 | |
| DL1XH1-15 | 2026-08-30 07:01:06 | 49.84397 | 8.43937 | 23° | 35km/h | 16911m | -22.8m/s | -54°C | 3.8% | 95.3hPa | 2.6V | 02:46:45 | 02:31:02 | 00:00:00 | |
| DO3MHA-11 | 2026-08-30 07:01:06 | 49.84439 | 8.43965 | 22° | 37km/h | 16803m | -21.7m/s | -54.0°C | 3.8% | 96.9hPa | 2.7V | 00:00:00 | 02:31:07 | 00:00:00 | |
| DL8DAS-15 | 2026-08-30 07:01:04 | 49.84431 | 8.43960 | 22° | 37km/h | 16825m | -22.3m/s | -54.2°C | 1.3% | 96.6hPa | 2.7V | 02:47:00 | 00:00:00 | 00:00:00 | |
| DM0DOS-11 | 2026-08-30 07:01:03 | 49.84372 | 8.43922 | 16° | 35km/h | 16978m | -21m/s | -54.3°C | 3.9% | 94.3hPa | 2.7V | 02:46:48 | 02:30:59 | 00:00:00 | |
| DL1XH-west | 2026-08-30 07:00:57 | 49.84363 | 8.43918 | 15° | 35km/h | 17000m | -21.4m/s | -54.4°C | 0.6% | 93.9hPa | 2.7V | 02:47:20 | 02:30:58 | 00:00:00 | |
| DF3TZ-5 | 2026-08-30 07:00:57 | 49.84355 | 8.43914 | 15° | 35km/h | 17021m | -22.1m/s | -54.5°C | 1.3% | 93.7hPa | 2.6V | 00:00:00 | 00:00:00 | 00:00:00 | |
| DF7PN | 2026-08-30 07:00:55 | 49.84346 | 8.43910 | 18° | 35km/h | 17044m | -24.1m/s | -54.6°C | 1.3% | 93.4hPa | 2.6V | 00:00:00 | 00:00:00 | 00:00:00 | |
| DJ2DS-15 | 2026-08-30 07:00:54 | 49.84338 | 8.43906 | 19° | 35km/h | 17068m | -23.5m/s | -54.7°C | 1.3% | 93.0hPa | 2.6V | 00:00:00 | 00:00:00 | 00:00:00 | |
| DM0DOS-11 | 2026-08-30 07:00:53 | 49.84288 | 8.43869 | 34° | 38km/h | 17205m | -22.6m/s | -55.4°C | 4.3% | 91hPa | 2.6V | 02:46:58 | 02:30:49 | 00:00:00 | |
| DL1XH-west | 2026-08-30 07:00:47 | 49.84280 | 8.43861 | 36° | 38km/h | 17228m | -22.4m/s | -55.5°C | 0.9% | 90.7hPa | 2.7V | 02:47:20 | 02:30:48 | 00:00:00 | |
| DL1XH1-15 | 2026-08-30 07:00:46 | 49.84237 | 8.43797 | 52° | 42km/h | 17365m | -22.1m/s | -54.8°C | 4.3% | 88.8hPa | 2.7V | 02:47:05 | 02:30:42 | 00:00:00 | |
| BIOWL1-15 | 2026-08-30 07:00:46 | 49.84272 | 8.43852 | 35° | 38km/h | 17250m | -22.7m/s | -55.6°C | 1% | 90.4hPa | 2.7V | 02:47:20 | 02:30:47 | 00:00:00 | |
| DO3MHA-11 | 2026-08-30 07:00:46 | 49.84272 | 8.43852 | 36° | 42km/h | 17250m | -22.6m/s | -55.6°C | 4.5% | 90.3hPa | 2.7V | 02:47:00 | 02:30:47 | 00:00:00 | |
| AM1SDL-15 | 2026-08-30 07:00:45 | 49.84265 | 8.43843 | 39° | 42km/h | 17273m | -22.6m/s | 0°C | 0% | 0hPa | 2.6V | 00:00:00 | 02:30:46 | 00:00:00 | |
| DL3AQ-11 | 2026-08-30 07:00:44 | 49.84250 | 8.43821 | 45° | 42km/h | 17319m | -23.0m/s | -55.3°C | 1.4% | 89.5hPa | 2.6V | 00:00:00 | 00:00:00 | 00:00:00 | |
| DB0ND-19 | 2026-08-30 07:00:43 | 49.84250 | 8.43821 | 45° | 42km/h | 17319m | -23.0m/s | -55.3°C | 1.4% | 89.5hPa | 2.6V | 00:00:00 | 00:00:00 | 00:00:00 | |
| DM0DOS-11 | 2026-08-30 07:00:42 | 49.84215 | 8.43740 | 66° | 44km/h | 17455m | -22.9m/s | -55.3°C | 4.6% | 87.6hPa | 2.6V | 02:47:09 | 02:30:38 | 00:00:00 | |
| BIOWL1-15 | 2026-08-30 07:00:37 | 49.84207 | 8.43709 | 68° | 42km/h | 17500m | -21.6m/s | -55.2°C | 1% | 87hPa | 2.7V | 02:47:20 | 02:30:36 | 00:00:00 | |
| DL1XH-west | 2026-08-30 07:00:36 | 49.84211 | 8.43725 | 71° | 44km/h | 17478m | -22.8m/s | -55.3°C | 1% | 87.3hPa | 2.6V | 02:47:20 | 02:30:37 | 00:00:00 | |
| DO3MHA-11 | 2026-08-30 07:00:36 | 49.84210 | 8.43725 | 71° | 42km/h | 17478m | -22.8m/s | -55.2°C | 4.6% | 87.2hPa | 2.7V | 00:00:00 | 02:30:37 | 00:00:00 | |
| DH7VM-15 | 2026-08-30 07:00:35 | 49.84210 | 8.43725 | 72° | 44km/h | 17478m | -22.8m/s | -55.3°C | 1.4% | 87.3hPa | 2.7V | 00:00:00 | 00:00:00 | 00:00:00 | |
| DL8DAS-15 | 2026-08-30 07:00:34 | 49.84207 | 8.43709 | 69° | 42km/h | 17500m | -21.6m/s | -55.2°C | 1.5% | 87.0hPa | 2.7V | 02:47:00 | 00:00:00 | 00:00:00 | |
| AM1SDL-15 | 2026-08-30 07:00:33 | 49.84200 | 8.43677 | 75° | 40km/h | 17541m | -19.3m/s | 0°C | 0% | 0hPa | 2.7V | 02:47:00 | 02:30:34 | 00:00:00 | |
| DM0DOS-11 | 2026-08-30 07:00:32 | 49.84180 | 8.43585 | 66° | 35km/h | 17671m | -22.7m/s | -54°C | 4.2% | 84.6hPa | 2.7V | 02:47:19 | 02:30:28 | 00:00:00 | |
| DL1XH-west | 2026-08-30 07:00:26 | 49.84177 | 8.43571 | 70° | 35km/h | 17694m | -23.2m/s | -53.7°C | 0.7% | 84.3hPa | 2.6V | 02:47:20 | 02:30:27 | 00:00:00 | |
| BIOWL1-15 | 2026-08-30 07:00:26 | 49.84170 | 8.43548 | 62° | 33km/h | 17742m | -24.6m/s | -52.7°C | 0.5% | 83.7hPa | 2.6V | 02:48:11 | 02:30:25 | 00:00:00 | |
| DF3TZ-5 | 2026-08-30 07:00:26 | 49.84173 | 8.43559 | 62° | 31km/h | 17718m | -24.8m/s | -53.2°C | 1.2% | 84.1hPa | 2.6V | 00:00:00 | 00:00:00 | 00:00:00 | |
| DJ2DS-15 | 2026-08-30 07:00:24 | 49.84169 | 8.43548 | 63° | 31km/h | 17743m | -24.5m/s | -52.6°C | 3.7% | 83.7hPa | 2.6V | 02:47:00 | 02:30:25 | 00:00:00 | |
| DL8DAS-15 | 2026-08-30 07:00:23 | 49.84170 | 8.43548 | 63° | 33km/h | 17743m | -24.6m/s | -52.7°C | 1.2% | 83.7hPa | 2.7V | 02:48:00 | 00:00:00 | 00:00:00 | |
| DM0DOS-11 | 2026-08-30 07:00:22 | 49.84140 | 8.43476 | 56° | 31km/h | 17910m | -22.6m/s | -51.6°C | 3.3% | 81.5hPa | 2.7V | 02:47:29 | 02:30:18 | 00:00:00 | |
| BIOWL1-15 | 2026-08-30 07:00:18 | 49.84126 | 8.43445 | 52° | 33km/h | 17979m | -22.2m/s | -51.8°C | 0.3% | 80.7hPa | 2.6V | 02:48:11 | 02:30:15 | 00:00:00 | |
| DL1ZP-14 | 2026-08-30 07:00:18 | 49.84140 | 8.43476 | 56° | 31km/h | 17911m | -22.6m/s | -51.7°C | 1.0% | 81.5hPa | 2.7V | 00:00:00 | 00:00:00 | 00:00:00 | |
| DO3MHA-11 | 2026-08-30 07:00:16 | 49.84135 | 8.43466 | 59° | 33km/h | 17934m | -23.2m/s | -51.7°C | 3.4% | 81.3hPa | 2.7V | 02:47:00 | 02:30:17 | 00:00:00 | |
| DL1XH1-15 | 2026-08-30 07:00:15 | 49.84111 | 8.43415 | 53° | 33km/h | 18048m | -23.4m/s | -52.3°C | 3.4% | 79.8hPa | 2.7V | 02:47:35 | 02:30:12 | 00:00:00 | |
| DL1XH-west | 2026-08-30 07:00:15 | 49.84131 | 8.43455 | 55° | 31km/h | 17956m | -22.4m/s | -51.8°C | 0.3% | 81hPa | 2.7V | 02:48:11 | 02:30:16 | 00:00:00 | |
| HTAHTA | 2026-08-30 07:00:15 | 49.84131 | 8.43455 | 54° | 31km/h | 17956m | -22.4m/s | -51.8°C | 1.1% | 81.0hPa | 2.6V | 00:00:00 | 00:00:00 | 00:00:00 | |
| DK5PH-5 | 2026-08-30 07:00:14 | 49.84126 | 8.43445 | 53° | 20km/h | 17979m | -22.2m/s | -51.7°C | 3.4% | 80.6hPa | 2.6V | 00:00:00 | 02:30:15 | 00:00:00 | |
| DB0NH | 2026-08-30 07:00:13 | 49.84121 | 8.43435 | 51° | 20km/h | 18001m | -22.3m/s | -51.8°C | 3.3% | 80.4hPa | 2.6V | 00:00:00 | 02:30:14 | 00:00:00 | |
| DM0DOS-11 | 2026-08-30 07:00:12 | 49.84092 | 8.43374 | 54° | 29km/h | 18140m | -23.2m/s | -52.7°C | 3.5% | 78.7hPa | 2.6V | 02:47:39 | 02:30:08 | 00:00:00 | |
| HEMX73-11 | 2026-08-30 07:00:10 | 49.84111 | 8.43415 | 54° | 33km/h | 18049m | -23.4m/s | -52.3°C | 1.1% | 79.8hPa | 2.6V | 02:48:00 | 00:00:00 | 00:00:00 | |
| DD1CC8 | 2026-08-30 07:00:09 | 49.84097 | 8.43384 | 53° | 31km/h | 18117m | -23.3m/s | -52.6°C | 1.1% | 79.0hPa | 2.6V | 00:00:00 | 00:00:00 | 00:00:00 | |
| DO1YAY-16 | 2026-08-30 07:00:08 | 49.84097 | 8.43384 | 53° | 31km/h | 18117m | -23.3m/s | -52.6°C | 1.1% | 79.0hPa | 2.6V | 00:00:00 | 00:00:00 | 00:00:00 | |
| DL0LBS | 2026-08-30 07:00:07 | 49.84097 | 8.43384 | 55° | 33km/h | 18117m | -23.3m/s | -52.6°C | 1.1% | 79.0hPa | 2.6V | 02:48:00 | 00:00:00 | 00:00:00 | |
| DO3MHA-11 | 2026-08-30 07:00:06 | 49.84088 | 8.43365 | 53° | 16km/h | 18165m | -24.7m/s | -52.9°C | 3.5% | 78.4hPa | 2.6V | 00:00:00 | 02:30:07 | 00:00:00 | |
| DL1XH1-15 | 2026-08-30 07:00:05 | 49.84073 | 8.43331 | 53° | 16km/h | 18288m | -24m/s | -53.3°C | 3.6% | 76.9hPa | 2.6V | 02:47:45 | 02:30:02 | 00:00:00 | |
| DL1XH-west | 2026-08-30 07:00:05 | 49.84084 | 8.43357 | 58° | 24km/h | 18190m | -26m/s | -53.1°C | 0.5% | 78.2hPa | 2.7V | 02:48:11 | 02:30:06 | 00:00:00 | |
| BIOWL1-15 | 2026-08-30 07:00:03 | 49.84078 | 8.43343 | 63° | 20km/h | 18241m | -24.4m/s | -53.2°C | 0.5% | 77.5hPa | 2.7V | 02:48:11 | 02:30:04 | 00:00:00 | |
| DM0DOS-11 | 2026-08-30 07:00:02 | 49.84065 | 8.43315 | 46° | 9km/h | 18384m | -23.6m/s | -53.7°C | 3.7% | 75.8hPa | 2.7V | 02:47:49 | 02:29:58 | 00:00:00 | |
| DM7RM-13 | 2026-08-30 07:00:01 | 49.84075 | 8.43336 | 55° | 18km/h | 18265m | -23.3m/s | -53.2°C | 1.2% | 77.2hPa | 2.7V | 02:48:00 | 00:00:00 | 00:00:00 | |
| BIOWL9-15 | 2026-08-30 07:00:00 | 49.84068 | 8.43322 | 47° | 11km/h | 18337m | -24.3m/s | -53.4°C | 1.1% | 76.4hPa | 2.7V | 00:00:00 | 00:00:00 | 00:00:00 | |
| SONCRA | 2026-08-30 06:59:57 | 49.84065 | 8.43315 | 46° | 7km/h | 18385m | -23.7m/s | -53.7°C | 1.1% | 75.8hPa | 2.7V | 00:00:00 | 00:00:00 | 00:00:00 | |
| DO3MHA-11 | 2026-08-30 06:59:56 | 49.84063 | 8.43314 | 3° | 11km/h | 18408m | -23.6m/s | -53.8°C | 3.7% | 75.5hPa | 2.7V | 00:00:00 | 02:29:57 | 00:00:00 | |
| DL1XH1-15 | 2026-08-30 06:59:55 | 49.84050 | 8.43315 | 0° | 9km/h | 18519m | -22.4m/s | -53.8°C | 3.7% | 74.2hPa | 2.7V | 02:47:55 | 02:29:52 | 00:00:00 | |
| DL1XH-west | 2026-08-30 06:59:54 | 49.84058 | 8.43313 | 360° | 9km/h | 18454m | -22.4m/s | -53.7°C | 0.5% | 74.9hPa | 2.6V | 02:48:11 | 02:29:55 | 00:00:00 | |
| BIOWL1-15 | 2026-08-30 06:59:53 | 49.84056 | 8.43313 | 347° | 11km/h | 18476m | -22m/s | -53.8°C | 0.6% | 74.7hPa | 2.7V | 02:48:11 | 02:29:54 | 00:00:00 | |
| DF7PN | 2026-08-30 06:59:53 | 49.84056 | 8.43313 | 346° | 9km/h | 18477m | -22.0m/s | -53.8°C | 1.2% | 74.7hPa | 2.7V | 00:00:00 | 00:00:00 | 00:00:00 | |
| DM0DOS-11 | 2026-08-30 06:59:52 | 49.84038 | 8.43307 | 28° | 18km/h | 18607m | -21.6m/s | -54.4°C | 3.9% | 73.2hPa | 2.7V | 02:47:59 | 02:29:48 | 00:00:00 | |
| DL3AQ-11 | 2026-08-30 06:59:51 | 49.84048 | 8.43314 | 12° | 9km/h | 18541m | -22.0m/s | -53.9°C | 1.2% | 73.9hPa | 2.7V | 00:00:00 | 00:00:00 | 00:00:00 | |
| DL1ZP-14 | 2026-08-30 06:59:47 | 49.84034 | 8.43304 | 30° | 18km/h | 18628m | -21.9m/s | -54.6°C | 1.2% | 72.9hPa | 2.7V | 00:00:00 | 00:00:00 | 00:00:00 | |
| DO3MHA-11 | 2026-08-30 06:59:46 | 49.84034 | 8.43303 | 31° | 20km/h | 18629m | -21.8m/s | -54.5°C | 4.0% | 72.8hPa | 2.7V | 02:48:00 | 02:29:47 | 00:00:00 | |
| DL1XH1-15 | 2026-08-30 06:59:45 | 49.84013 | 8.43281 | 41° | 20km/h | 18740m | -21m/s | -54.8°C | 4.1% | 71.7hPa | 2.7V | 02:48:05 | 02:29:42 | 00:00:00 | |
| DL1XH-west | 2026-08-30 06:59:44 | 49.84026 | 8.43295 | 34° | 20km/h | 18674m | -22.5m/s | -54.8°C | 0.8% | 72.4hPa | 2.6V | 02:48:11 | 02:29:45 | 00:00:00 | |
| BIOWL1-15 | 2026-08-30 06:59:42 | 49.84017 | 8.43285 | 33° | 20km/h | 18719m | -21.4m/s | -54.9°C | 0.8% | 71.8hPa | 2.6V | 02:48:11 | 02:29:43 | 00:00:00 | |
| DJ2DS-15 | 2026-08-30 06:59:42 | 49.84013 | 8.43281 | 41° | 18km/h | 18740m | -21.0m/s | -54.8°C | 1.3% | 71.7hPa | 2.6V | 00:00:00 | 00:00:00 | 00:00:00 | |
| DB0ND-19 | 2026-08-30 06:59:41 | 49.84013 | 8.43281 | 41° | 18km/h | 18740m | -21.0m/s | -54.8°C | 1.3% | 71.7hPa | 2.6V | 00:00:00 | 00:00:00 | 00:00:00 | |
| DL3AQ-11 | 2026-08-30 06:59:40 | 49.84005 | 8.43271 | 31° | 18km/h | 18784m | -23.7m/s | -55.0°C | 1.3% | 71.2hPa | 2.6V | 00:00:00 | 00:00:00 | 00:00:00 | |
| EDDB2-12 | 2026-08-30 06:59:39 | 49.83997 | 8.43261 | 33° | 18km/h | 18834m | -25.7m/s | -54.9°C | 1.3% | 70.7hPa | 2.6V | 00:00:00 | 00:00:00 | 00:00:00 | |
| DD1CC8 | 2026-08-30 06:59:38 | 49.83997 | 8.43261 | 33° | 18km/h | 18834m | -25.7m/s | -54.9°C | 1.3% | 70.7hPa | 2.6V | 00:00:00 | 00:00:00 | 00:00:00 | |
| DO1YAY-16 | 2026-08-30 06:59:37 | 49.83997 | 8.43261 | 33° | 18km/h | 18834m | -25.7m/s | -54.9°C | 1.3% | 70.7hPa | 2.6V | 00:00:00 | 00:00:00 | 00:00:00 | |
| DO3MHA-11 | 2026-08-30 06:59:36 | 49.83993 | 8.43256 | 47° | 27km/h | 18861m | -26.4m/s | -54.8°C | 4.1% | 70.4hPa | 2.6V | 00:00:00 | 02:29:37 | 00:00:00 | |
| DL1XH1-15 | 2026-08-30 06:59:35 | 49.83973 | 8.43222 | 46° | 27km/h | 18998m | -28.7m/s | -54.8°C | 4.1% | 69hPa | 2.6V | 02:48:15 | 02:29:32 | 00:00:00 | |
| DL1XH-west | 2026-08-30 06:59:34 | 49.83986 | 8.43244 | 46° | 22km/h | 18912m | -25.6m/s | -55°C | 0.8% | 69.8hPa | 2.7V | 02:49:02 | 02:29:35 | 00:00:00 | |
| BIOWL1-15 | 2026-08-30 06:59:32 | 49.83977 | 8.43230 | 50° | 27km/h | 18969m | -29.8m/s | -55°C | 0.8% | 69.3hPa | 2.6V | 02:49:02 | 02:29:33 | 00:00:00 | |
| DH7VM-15 | 2026-08-30 06:59:30 | 49.83973 | 8.43222 | 48° | 27km/h | 18998m | -28.7m/s | -54.8°C | 1.3% | 69.0hPa | 2.6V | 00:00:00 | 00:00:00 | 00:00:00 | |
| HEMX73-11 | 2026-08-30 06:59:29 | 49.83968 | 8.43213 | 47° | 31km/h | 19026m | -27.2m/s | -54.8°C | 1.2% | 68.6hPa | 2.6V | 02:49:00 | 00:00:00 | 00:00:00 | |
| DL8OAI-8 | 2026-08-30 06:59:28 | 49.83962 | 8.43204 | 49° | 31km/h | 19053m | -26.5m/s | -54.7°C | 1.3% | 68.3hPa | 2.6V | 02:49:00 | 00:00:00 | 00:00:00 | |
| DF1GD-15 | 2026-08-30 06:59:27 | 49.83958 | 8.43194 | 58° | 33km/h | 19080m | -26.7m/s | -54.8°C | 1.3% | 68.0hPa | 2.6V | 02:49:00 | 00:00:00 | 00:00:00 | |
| DO3MHA-11 | 2026-08-30 06:59:26 | 49.83949 | 8.43172 | 57° | 24km/h | 19133m | -27.1m/s | -55.0°C | 4.2% | 67.4hPa | 2.6V | 00:00:00 | 02:29:27 | 00:00:00 | |
| DL1XH1-15 | 2026-08-30 06:59:25 | 49.83932 | 8.43122 | 69° | 26km/h | 19270m | -24.3m/s | -55.4°C | 4.4% | 66hPa | 2.6V | 02:48:25 | 02:29:22 | 00:00:00 | |
| BIOWL1-15 | 2026-08-30 06:59:25 | 49.83932 | 8.43122 | 70° | 26km/h | 19270m | -24.3m/s | -55.4°C | 0.9% | 66hPa | 2.6V | 02:49:02 | 02:29:22 | 00:00:00 | |
| DL1XH-west | 2026-08-30 06:59:24 | 49.83938 | 8.43141 | 63° | 27km/h | 19218m | -27.2m/s | -55.2°C | 0.9% | 66.6hPa | 2.7V | 02:49:02 | 02:29:24 | 00:00:00 | |
| DL3AQ-11 | 2026-08-30 06:59:24 | 49.83938 | 8.43141 | 62° | 27km/h | 19218m | -27.2m/s | -55.2°C | 1.3% | 66.6hPa | 2.7V | 00:00:00 | 00:00:00 | 00:00:00 | |
| DF7PN | 2026-08-30 06:59:22 | 49.83932 | 8.43122 | 69° | 24km/h | 19270m | -24.3m/s | -55.4°C | 1.3% | 66.0hPa | 2.7V | 00:00:00 | 00:00:00 | 00:00:00 | |
| DB0UT-7 | 2026-08-30 06:59:20 | 49.83930 | 8.43113 | 68° | 13km/h | 19294m | -23.8m/s | -55.3°C | 4.5% | 65.7hPa | 2.7V | 02:48:00 | 02:29:21 | 00:00:00 | |
| DL4BBY-15 | 2026-08-30 06:59:19 | 49.83927 | 8.43107 | 63° | 15km/h | 19318m | -23.9m/s | -56.4°C | 0% | 0hPa | 2.7V | 00:00:00 | 00:00:00 | 00:00:00 | |
| BIOWL7-15 | 2026-08-30 06:59:18 | 49.83928 | 8.43107 | 64° | 16km/h | 19318m | -24.0m/s | -55.3°C | 1.4% | 65.5hPa | 2.7V | 02:49:00 | 00:00:00 | 00:00:00 | |
| DO3MHA-11 | 2026-08-30 06:59:16 | 49.83924 | 8.43090 | 83° | 7km/h | 19387m | -21.6m/s | -55.0°C | 4.4% | 64.7hPa | 2.7V | 02:48:00 | 02:29:17 | 00:00:00 | |
| DL1XH1-15 | 2026-08-30 06:59:15 | 49.83923 | 8.43070 | 86° | 7km/h | 19515m | -26m/s | -53.8°C | 3.9% | 63.5hPa | 2.7V | 02:48:35 | 02:29:12 | 00:00:00 | |
| BIOWL1-15 | 2026-08-30 06:59:15 | 49.83923 | 8.43070 | 87° | 7km/h | 19515m | -26m/s | -53.9°C | 0.7% | 63.5hPa | 2.7V | 02:49:02 | 02:29:12 | 00:00:00 | |
| DK5PH-5 | 2026-08-30 06:59:14 | 49.83924 | 8.43080 | 88° | 15km/h | 19437m | -27.2m/s | -54.4°C | 4.2% | 64.3hPa | 2.6V | 00:00:00 | 02:29:15 | 00:00:00 | |
| DB0NH | 2026-08-30 06:59:13 | 49.83923 | 8.43076 | 80° | 15km/h | 19464m | -26.4m/s | -54.1°C | 4.0% | 64.0hPa | 2.6V | 00:00:00 | 02:29:14 | 00:00:00 | |
| DM0DOS-11 | 2026-08-30 06:59:12 | 49.83922 | 8.43063 | 109° | 2km/h | 19611m | -24.3m/s | -53.7°C | 3.9% | 62.5hPa | 2.6V | 02:48:39 | 02:29:08 | 00:00:00 | |
| DL1XH-west | 2026-08-30 06:59:12 | 49.83923 | 8.43073 | 69° | 9km/h | 19490m | -26m/s | -53.9°C | 0.6% | 63.8hPa | 2.7V | 02:49:02 | 02:29:13 | 00:00:00 | |
| DL1KLB | 2026-08-30 06:59:11 | 49.83923 | 8.43073 | 70° | 9km/h | 19490m | -26.0m/s | -53.9°C | 1.2% | 63.8hPa | 2.6V | 02:49:00 | 00:00:00 | 00:00:00 | |
| DB0ND-19 | 2026-08-30 06:59:10 | 49.83922 | 8.43067 | 83° | 4km/h | 19540m | -25.1m/s | -54.0°C | 1.2% | 63.3hPa | 2.6V | 00:00:00 | 00:00:00 | 00:00:00 | |
| HEMX73-11 | 2026-08-30 06:59:09 | 49.83923 | 8.43067 | 85° | 5km/h | 19541m | -25.1m/s | -54.0°C | 1.2% | 63.3hPa | 2.6V | 02:49:00 | 00:00:00 | 00:00:00 | |
| EDDB2-12 | 2026-08-30 06:59:08 | 49.83922 | 8.43064 | 84° | 2km/h | 19588m | -22.8m/s | -54.0°C | 1.2% | 62.8hPa | 2.6V | 00:00:00 | 00:00:00 | 00:00:00 | |
| DD1CC8 | 2026-08-30 06:59:07 | 49.83922 | 8.43063 | 269° | 2km/h | 19635m | -24.6m/s | -53.5°C | 1.1% | 62.4hPa | 2.6V | 00:00:00 | 00:00:00 | 00:00:00 | |
| DO3MHA-11 | 2026-08-30 06:59:06 | 49.83922 | 8.43063 | 270° | 11km/h | 19636m | -24.6m/s | -53.4°C | 3.8% | 62.3hPa | 2.6V | 00:00:00 | 02:29:07 | 00:00:00 | |
| DL1XH1-15 | 2026-08-30 06:59:05 | 49.83917 | 8.43079 | 297° | 15km/h | 19750m | -23.7m/s | -53.5°C | 3.8% | 61.2hPa | 2.6V | 02:48:45 | 02:29:02 | 00:00:00 | |
| DJ2DS-15 | 2026-08-30 06:59:04 | 49.83921 | 8.43067 | 296° | 18km/h | 19682m | -23.6m/s | -53.3°C | 3.7% | 61.8hPa | 2.6V | 00:00:00 | 02:29:05 | 00:00:00 | |
| DM0DOS-11 | 2026-08-30 06:59:02 | 49.83906 | 8.43097 | 335° | 16km/h | 19849m | -25.9m/s | -53.6°C | 3.9% | 60.3hPa | 2.6V | 02:48:49 | 02:28:58 | 00:00:00 | |
| BIOWL1-15 | 2026-08-30 06:59:02 | 49.83915 | 8.43084 | 305° | 18km/h | 19773m | -23m/s | -53.7°C | 0.6% | 61hPa | 2.7V | 02:49:02 | 02:29:01 | 00:00:00 | |
| DL1XH-west | 2026-08-30 06:59:01 | 49.83917 | 8.43079 | 297° | 15km/h | 19750m | -23.7m/s | -53.5°C | 0.6% | 61.2hPa | 2.6V | 02:49:02 | 02:29:02 | 00:00:00 | |
| NBG1-10 | 2026-08-30 06:59:00 | 49.83915 | 8.43084 | 306° | 18km/h | 19773m | -23.0m/s | -53.6°C | 3.8% | 60.9hPa | 2.6V | 00:00:00 | 02:29:01 | 00:00:00 | |
| DM7RM-13 | 2026-08-30 06:58:59 | 49.83915 | 8.43084 | 306° | 18km/h | 19773m | -23.0m/s | -53.7°C | 1.2% | 60.9hPa | 2.6V | 02:49:00 | 00:00:00 | 00:00:00 | |
| BIOWL7-15 | 2026-08-30 06:58:58 | 49.83909 | 8.43093 | 325° | 16km/h | 19824m | -25.7m/s | -53.6°C | 1.1% | 60.6hPa | 2.6V | 02:49:00 | 00:00:00 | 00:00:00 | |
| DO3MHA-11 | 2026-08-30 06:58:56 | 49.83902 | 8.43099 | 342° | 20km/h | 19874m | -24.0m/s | -53.6°C | 3.9% | 60.0hPa | 2.6V | 00:00:00 | 02:28:57 | 00:00:00 | |
| DL1XH1-15 | 2026-08-30 06:58:55 | 49.83878 | 8.43105 | 359° | 20km/h | 19992m | -28m/s | -53.6°C | 3.8% | 59hPa | 2.6V | 02:48:55 | 02:28:52 | 00:00:00 | |
| AU51GT2 | 2026-08-30 06:58:53 | 49.83888 | 8.43104 | 353° | 20km/h | 19940m | -23.6m/s | -53.5°C | 1.2% | 59.4hPa | 2.7V | 00:00:00 | 00:00:00 | 00:00:00 | |
| DM0DOS-11 | 2026-08-30 06:58:52 | 49.83856 | 8.43102 | 16° | 22km/h | 20096m | -23.8m/s | -54.2°C | 4.1% | 58hPa | 2.7V | 02:48:59 | 02:28:48 | 00:00:00 | |
| DL1XH-15 | 2026-08-30 06:58:51 | 49.83851 | 8.43099 | 15° | 24km/h | 20120m | -23.8m/s | -54.1°C | 4.1% | 57.8hPa | 2.7V | 02:49:00 | 02:28:47 | 00:00:00 | |
| DL1XH-west | 2026-08-30 06:58:50 | 49.83873 | 8.43105 | 360° | 20km/h | 20020m | -27.7m/s | -53.8°C | 0.7% | 58.8hPa | 2.6V | 02:49:02 | 02:28:51 | 00:00:00 | |
| BIOWL1-15 | 2026-08-30 06:58:49 | 49.83867 | 8.43105 | 1° | 22km/h | 20046m | -25.4m/s | -53.9°C | 0.7% | 58.5hPa | 2.6V | 02:49:02 | 02:28:50 | 00:00:00 | |
| DL4BBY-15 | 2026-08-30 06:58:47 | 49.83856 | 8.43102 | 17° | 16km/h | 20096m | -23.8m/s | -55.3°C | 0% | 0hPa | 2.7V | 00:00:00 | 00:00:00 | 00:00:00 | |
| DO3MHA-11 | 2026-08-30 06:58:46 | 49.83851 | 8.43099 | 16° | 18km/h | 20120m | -23.7m/s | -54.1°C | 4.1% | 57.7hPa | 2.7V | 02:49:00 | 02:28:47 | 00:00:00 | |
| DL1XH1-15 | 2026-08-30 06:58:45 | 49.83824 | 8.43083 | 29° | 18km/h | 20235m | -22.9m/s | -53.9°C | 4% | 56.7hPa | 2.6V | 02:49:05 | 02:28:42 | 00:00:00 | |
| DJ2DS-15 | 2026-08-30 06:58:44 | 49.83839 | 8.43093 | 25° | 16km/h | 20166m | -22.0m/s | -53.9°C | 4.1% | 57.3hPa | 2.6V | 00:00:00 | 02:28:45 | 00:00:00 | |
| DB0NH | 2026-08-30 06:58:43 | 49.83834 | 8.43090 | 25° | 15km/h | 20188m | -22.3m/s | -53.8°C | 4.0% | 57.1hPa | 2.6V | 00:00:00 | 02:28:44 | 00:00:00 | |
| HTAHTA | 2026-08-30 06:58:42 | 49.83829 | 8.43086 | 25° | 20km/h | 20211m | -24.2m/s | -53.9°C | 1.2% | 56.9hPa | 2.6V | 00:00:00 | 00:00:00 | 00:00:00 | |
| DM0DOS-11 | 2026-08-30 06:58:42 | 49.83809 | 8.43076 | 9° | 9km/h | 20330m | -22.1m/s | -54°C | 4% | 55.9hPa | 2.6V | 02:49:09 | 02:28:38 | 00:00:00 | |
| DL1XH-15 | 2026-08-30 06:58:41 | 49.83807 | 8.43076 | 352° | 7km/h | 20352m | -21.7m/s | -53.9°C | 4% | 55.7hPa | 2.6V | 02:49:10 | 02:28:37 | 00:00:00 | |
| BIOWL1-15 | 2026-08-30 06:58:40 | 49.83813 | 8.43077 | 16° | 13km/h | 20306m | -23.5m/s | -54°C | 0.8% | 56.1hPa | 2.7V | 02:49:53 | 02:28:39 | 00:00:00 | |
| DL1XH-west | 2026-08-30 06:58:40 | 49.83820 | 8.43080 | 20° | 16km/h | 20258m | -23.8m/s | -54°C | 0.8% | 56.6hPa | 2.6V | 02:49:53 | 02:28:41 | 00:00:00 | |
| DB0ND-19 | 2026-08-30 06:58:39 | 49.83816 | 8.43078 | 18° | 15km/h | 20282m | -23.8m/s | -54.0°C | 1.2% | 56.3hPa | 2.6V | 00:00:00 | 00:00:00 | 00:00:00 | |
| DM7RM-13 | 2026-08-30 06:58:38 | 49.83816 | 8.43078 | 19° | 15km/h | 20283m | -23.8m/s | -53.9°C | 1.2% | 56.3hPa | 2.6V | 02:49:00 | 00:00:00 | 00:00:00 | |
| EDDB2-12 | 2026-08-30 06:58:37 | 49.83807 | 8.43076 | 352° | 7km/h | 20352m | -21.7m/s | -53.9°C | 1.2% | 55.7hPa | 2.6V | 00:00:00 | 00:00:00 | 00:00:00 | |
| DD1CC8 | 2026-08-30 06:58:36 | 49.83805 | 8.43077 | 340° | 9km/h | 20375m | -24.0m/s | -53.8°C | 1.2% | 55.5hPa | 2.6V | 00:00:00 | 00:00:00 | 00:00:00 | |
| DL1XH1-15 | 2026-08-30 06:58:35 | 49.83793 | 8.43083 | 354° | 13km/h | 20472m | -26.5m/s | -53.5°C | 3.9% | 54.7hPa | 2.6V | 02:49:15 | 02:28:32 | 00:00:00 | |
| DC4HF-4 | 2026-08-30 06:58:34 | 49.83802 | 8.43078 | 335° | 9km/h | 20399m | -23.6m/s | -53.7°C | 1.2% | 55.3hPa | 2.7V | 00:00:00 | 00:00:00 | 00:00:00 | |
| DJ2KF-10 | 2026-08-30 06:58:33 | 49.83799 | 8.43080 | 338° | 16km/h | 20423m | -24.4m/s | -53.6°C | 4.0% | 55.1hPa | 2.7V | 00:00:00 | 02:28:34 | 00:00:00 | |
| DM0DOS-11 | 2026-08-30 06:58:32 | 49.83775 | 8.43081 | 19° | 22km/h | 20579m | -25.4m/s | -53.2°C | 3.8% | 53.8hPa | 2.7V | 02:49:19 | 02:28:28 | 00:00:00 | |
| DL1XH-15 | 2026-08-30 06:58:31 | 49.83770 | 8.43077 | 28° | 22km/h | 20604m | -25m/s | -53.3°C | 3.8% | 53.6hPa | 2.6V | 02:49:20 | 02:28:27 | 00:00:00 | |
| DL1XH-west | 2026-08-30 06:58:29 | 49.83784 | 8.43083 | 2° | 18km/h | 20526m | -27.4m/s | -53.3°C | 0.6% | 54.3hPa | 2.7V | 02:49:53 | 02:28:30 | 00:00:00 | |
| BIOWL1-15 | 2026-08-30 06:58:27 | 49.83775 | 8.43081 | 20° | 22km/h | 20579m | -25.4m/s | -53.2°C | 0.6% | 53.8hPa | 2.7V | 02:49:53 | 02:28:28 | 00:00:00 | |
| NBG1-10 | 2026-08-30 06:58:27 | 49.83775 | 8.43080 | 20° | 18km/h | 20579m | -25.3m/s | -53.2°C | 3.8% | 53.7hPa | 2.7V | 00:00:00 | 02:28:28 | 00:00:00 | |
| DO3MHA-11 | 2026-08-30 06:58:26 | 49.83770 | 8.43077 | 29° | 16km/h | 20605m | -24.9m/s | -53.2°C | 3.8% | 53.5hPa | 2.7V | 00:00:00 | 02:28:27 | 00:00:00 | |
| DL1XH1-15 | 2026-08-30 06:58:25 | 49.83746 | 8.43058 | 25° | 16km/h | 20730m | -26.1m/s | -53.9°C | 4.1% | 52.5hPa | 2.7V | 02:49:25 | 02:28:22 | 00:00:00 | |
| DJ2DS-15 | 2026-08-30 06:58:24 | 49.83760 | 8.43068 | 27° | 15km/h | 20653m | -23.1m/s | -53.5°C | 3.9% | 53.1hPa | 2.6V | 02:49:00 | 02:28:25 | 00:00:00 | |
| DM0DOS-11 | 2026-08-30 06:58:22 | 49.83733 | 8.43054 | 353° | 9km/h | 20831m | -25.4m/s | -53.5°C | 3.9% | 51.7hPa | 2.7V | 02:49:29 | 02:28:18 | 00:00:00 | |
| DL1XH-west | 2026-08-30 06:58:19 | 49.83739 | 8.43054 | 11° | 13km/h | 20782m | -25.4m/s | -53.8°C | 0.8% | 52.1hPa | 2.6V | 02:49:53 | 02:28:20 | 00:00:00 | |
| BIOWL1-15 | 2026-08-30 06:58:17 | 49.83733 | 8.43054 | 354° | 9km/h | 20831m | -25.4m/s | -53.5°C | 0.7% | 51.7hPa | 2.7V | 02:49:53 | 02:28:18 | 00:00:00 | |
| DL4BBY-15 | 2026-08-30 06:58:17 | 49.83733 | 8.43053 | 354° | 15km/h | 20832m | -25.3m/s | -54.6°C | 0% | 0hPa | 2.6V | 00:00:00 | 00:00:00 | 00:00:00 | |
| DO3MHA-11 | 2026-08-30 06:58:16 | 49.83731 | 8.43054 | 348° | 13km/h | 20857m | -26.2m/s | -53.4°C | 4.0% | 51.4hPa | 2.6V | 02:49:00 | 02:28:17 | 00:00:00 | |
| DL1XH1-15 | 2026-08-30 06:58:15 | 49.83718 | 8.43053 | 22° | 13km/h | 20985m | -24.9m/s | -53.1°C | 3.8% | 50.5hPa | 2.6V | 02:49:35 | 02:28:12 | 00:00:00 | |
| DK5PH-5 | 2026-08-30 06:58:14 | 49.83726 | 8.43055 | 359° | 13km/h | 20908m | -25.4m/s | -53.4°C | 3.9% | 51.1hPa | 2.7V | 02:49:00 | 02:28:15 | 00:00:00 | |
| DB0NH | 2026-08-30 06:58:13 | 49.83723 | 8.43055 | 359° | 15km/h | 20934m | -26.9m/s | -53.2°C | 3.9% | 50.9hPa | 2.7V | 02:49:00 | 02:28:14 | 00:00:00 | |
| DM0DOS-11 | 2026-08-30 06:58:12 | 49.83707 | 8.43038 | 62° | 20km/h | 21094m | -31.3m/s | -53°C | 3.7% | 49.8hPa | 2.7V | 02:49:39 | 02:28:08 | 00:00:00 | |
| HTAHTA | 2026-08-30 06:58:11 | 49.83715 | 8.43051 | 26° | 13km/h | 21011m | -26.3m/s | -53.1°C | 1.1% | 50.3hPa | 2.6V | 00:00:00 | 00:00:00 | 00:00:00 | |
| DL1XH-15 | 2026-08-30 06:58:10 | 49.83702 | 8.43022 | 69° | 22km/h | 21156m | -30.2m/s | -53.2°C | 3.8% | 49.2hPa | 2.6V | 02:49:41 | 02:28:06 | 00:00:00 | |
| DL1XH-west | 2026-08-30 06:58:08 | 49.83709 | 8.43043 | 44° | 15km/h | 21064m | -28.8m/s | -53°C | 0.5% | 49.9hPa | 2.7V | 02:49:53 | 02:28:09 | 00:00:00 | |
| BIOWL1-15 | 2026-08-30 06:58:06 | 49.83704 | 8.43030 | 66° | 22km/h | 21125m | -30.8m/s | -53.1°C | 0.6% | 49.5hPa | 2.7V | 02:49:53 | 02:28:07 | 00:00:00 | |
| DO3MHA-11 | 2026-08-30 06:58:06 | 49.83704 | 8.43030 | 67° | 22km/h | 21125m | -30.8m/s | -53.0°C | 3.7% | 49.4hPa | 2.7V | 00:00:00 | 02:28:07 | 00:00:00 | |
| DF1GD-15 | 2026-08-30 06:58:05 | 49.83704 | 8.43030 | 67° | 22km/h | 21125m | -30.8m/s | -53.1°C | 1.1% | 49.5hPa | 2.7V | 02:49:00 | 00:00:00 | 00:00:00 | |
| DO1YAY-16 | 2026-08-30 06:58:04 | 49.83700 | 8.43013 | 71° | 24km/h | 21186m | -29.2m/s | -53.4°C | 1.1% | 49.0hPa | 2.7V | 00:00:00 | 00:00:00 | 00:00:00 | |
| DJ2DS-15 | 2026-08-30 06:58:03 | 49.83699 | 8.43004 | 78° | 13km/h | 21214m | -28.0m/s | -53.5°C | 3.9% | 48.7hPa | 2.7V | 00:00:00 | 02:28:04 | 00:00:00 | |
| DM0DOS-11 | 2026-08-30 06:58:02 | 49.83699 | 8.42952 | 107° | 18km/h | 21381m | -24.4m/s | -53.6°C | 3.9% | 47.4hPa | 2.7V | 02:49:49 | 02:27:58 | 00:00:00 | |
| DL1XH-15 | 2026-08-30 06:58:00 | 49.83702 | 8.42943 | 114° | 7km/h | 21434m | -26.9m/s | -53.5°C | 3.9% | 47.1hPa | 2.6V | 02:49:51 | 02:27:56 | 00:00:00 | |
| AA1-15 | 2026-08-30 06:58:00 | 49.83697 | 8.42976 | 94° | 24km/h | 21300m | -29.3m/s | -53.8°C | 0.8% | 48.1hPa | 2.7V | 02:50:44 | 02:28:01 | 00:00:00 | |
| BIOWL1-15 | 2026-08-30 06:58:00 | 49.83701 | 8.42946 | 118° | 13km/h | 21407m | -27.3m/s | -53.6°C | 0.7% | 47.3hPa | 2.7V | 02:49:53 | 02:27:57 | 00:00:00 | |
| HSKMA3-T | 2026-08-30 06:57:58 | 49.83698 | 8.42959 | 102° | 20km/h | 21355m | -26.4m/s | -53.7°C | 0.8% | 47.7hPa | 2.6V | 02:49:53 | 02:27:59 | 00:00:00 | |
| DL1XH-west | 2026-08-30 06:57:57 | 49.83699 | 8.42952 | 108° | 18km/h | 21381m | -24.4m/s | -53.6°C | 0.7% | 47.5hPa | 2.7V | 02:49:53 | 02:27:58 | 00:00:00 | |
| BIOWL9-15 | 2026-08-30 06:57:55 | 49.83702 | 8.42943 | 114° | 7km/h | 21434m | -26.9m/s | -53.5°C | 1.1% | 47.1hPa | 2.7V | 00:00:00 | 00:00:00 | 00:00:00 | |
| DJ2DS-15 | 2026-08-30 06:57:54 | 49.83704 | 8.42939 | 138° | 4km/h | 21492m | -30.4m/s | -53.4°C | 1.1% | 46.8hPa | 2.7V | 00:00:00 | 00:00:00 | 00:00:00 | |
| SONCRA | 2026-08-30 06:57:53 | 49.83704 | 8.42939 | 138° | 4km/h | 21492m | -30.4m/s | -53.4°C | 1.1% | 46.8hPa | 2.7V | 00:00:00 | 00:00:00 | 00:00:00 | |
| DM0DOS-11 | 2026-08-30 06:57:52 | 49.83708 | 8.42938 | 172° | 7km/h | 21676m | -28.6m/s | -53.4°C | 3.8% | 45.4hPa | 2.7V | 02:49:59 | 02:27:48 | 00:00:00 | |
| BIOWL7-15 | 2026-08-30 06:57:51 | 49.83704 | 8.42938 | 150° | 2km/h | 21522m | -30.8m/s | -53.4°C | 1.1% | 46.6hPa | 2.7V | 02:50:00 | 00:00:00 | 00:00:00 | |
| DL1XH-15 | 2026-08-30 06:57:50 | 49.83711 | 8.42939 | 212° | 7km/h | 21733m | -27.9m/s | -53.4°C | 3.8% | 45hPa | 2.7V | 02:50:01 | 02:27:46 | 00:00:00 | |
| HSKMA3-T | 2026-08-30 06:57:48 | 49.83707 | 8.42938 | 167° | 5km/h | 21646m | -29.7m/s | -53.4°C | 0.6% | 45.7hPa | 2.6V | 02:50:44 | 02:27:49 | 00:00:00 | |
| DL1XH-west | 2026-08-30 06:57:46 | 49.83710 | 8.42938 | 187° | 5km/h | 21705m | -28.6m/s | -53.4°C | 0.6% | 45.2hPa | 2.7V | 02:50:44 | 02:27:47 | 00:00:00 | |
| DL1XH1-15 | 2026-08-30 06:57:45 | 49.83721 | 8.42951 | 227° | 15km/h | 21847m | -26.6m/s | -53.5°C | 3.8% | 44.2hPa | 2.7V | 02:50:05 | 02:27:42 | 00:00:00 | |
| BIOWL1-15 | 2026-08-30 06:57:45 | 49.83711 | 8.42939 | 213° | 7km/h | 21733m | -27.9m/s | -53.4°C | 0.6% | 45hPa | 2.7V | 02:50:44 | 02:27:46 | 00:00:00 | |
| DB0UT-7 | 2026-08-30 06:57:44 | 49.83713 | 8.42941 | 206° | 11km/h | 21762m | -29.3m/s | -53.4°C | 3.8% | 44.8hPa | 2.6V | 02:50:00 | 00:00:00 | 00:00:00 | |
| DB0NH | 2026-08-30 06:57:43 | 49.83716 | 8.42943 | 210° | 11km/h | 21791m | -29.4m/s | -53.4°C | 3.8% | 44.5hPa | 2.6V | 00:00:00 | 02:27:44 | 00:00:00 | |
| DM0DOS-11 | 2026-08-30 06:57:42 | 49.83724 | 8.42967 | 292° | 13km/h | 21954m | -26m/s | -53.5°C | 3.8% | 43.4hPa | 2.6V | 02:50:09 | 02:27:38 | 00:00:00 | |
| DL1XH-15 | 2026-08-30 06:57:40 | 49.83720 | 8.42978 | 304° | 15km/h | 22004m | -23.7m/s | -53.7°C | 3.9% | 43hPa | 2.6V | 02:50:11 | 02:27:36 | 00:00:00 | |
| HSKMA3-T | 2026-08-30 06:57:38 | 49.83724 | 8.42963 | 274° | 13km/h | 21927m | -27.6m/s | -53.5°C | 0.7% | 43.6hPa | 2.7V | 02:50:44 | 02:27:39 | 00:00:00 | |
| DL1XH-west | 2026-08-30 06:57:35 | 49.83720 | 8.42977 | 304° | 15km/h | 22004m | -23.7m/s | -53.7°C | 0.6% | 43hPa | 2.6V | 02:50:44 | 02:27:36 | 00:00:00 | |
| DL1XH1-15 | 2026-08-30 06:57:34 | 49.83710 | 8.42998 | 303° | 13km/h | 22107m | -27.4m/s | -53.8°C | 3.9% | 42.4hPa | 2.6V | 02:50:15 | 02:27:32 | 00:00:00 | |
| AA1-15 | 2026-08-30 06:57:32 | 49.83712 | 8.42993 | 307° | 16km/h | 22080m | -26.7m/s | -53.8°C | 0.7% | 42.6hPa | 2.7V | 02:50:44 | 02:27:33 | 00:00:00 | |
| DL1XH-15 | 2026-08-30 06:57:30 | 49.83702 | 8.43021 | 308° | 9km/h | 22262m | -25.9m/s | -54.1°C | 4% | 41.4hPa | 2.6V | 02:50:21 | 02:27:26 | 00:00:00 | |
| HSKMA3-T | 2026-08-30 06:57:27 | 49.83706 | 8.43014 | 302° | 13km/h | 22210m | -26.1m/s | -54°C | 0.8% | 41.7hPa | 2.7V | 02:50:44 | 02:27:28 | 00:00:00 | |
| DO3MHA-11 | 2026-08-30 06:57:26 | 49.83703 | 8.43018 | 309° | 9km/h | 22236m | -26.7m/s | -54.0°C | 4.0% | 41.5hPa | 2.7V | 00:00:00 | 02:27:27 | 00:00:00 | |
| DL8OAI-8 | 2026-08-30 06:57:25 | 49.83703 | 8.43018 | 309° | 11km/h | 22236m | -26.7m/s | -54.1°C | 1.2% | 41.6hPa | 2.7V | 02:50:00 | 00:00:00 | 00:00:00 | |
| DL1XH1-15 | 2026-08-30 06:57:24 | 49.83693 | 8.43027 | 2° | 9km/h | 22364m | -24.5m/s | -54.1°C | 4.1% | 40.8hPa | 2.7V | 02:50:25 | 02:27:22 | 00:00:00 | |
| DL1XH-west | 2026-08-30 06:57:24 | 49.83700 | 8.43024 | 327° | 11km/h | 22287m | -24.6m/s | -54.2°C | 0.7% | 41.2hPa | 2.6V | 02:50:44 | 02:27:25 | 00:00:00 | |
| DJ2DS-15 | 2026-08-30 06:57:23 | 49.83698 | 8.43026 | 338° | 11km/h | 22313m | -26.0m/s | -54.1°C | 4.1% | 41.0hPa | 2.7V | 02:50:00 | 02:27:24 | 00:00:00 | |
| DM0DOS-11 | 2026-08-30 06:57:22 | 49.83688 | 8.43021 | 80° | 5km/h | 22465m | -26.2m/s | -53.8°C | 3.9% | 40.1hPa | 2.7V | 02:50:29 | 02:27:18 | 00:00:00 | |
| AA1-15 | 2026-08-30 06:57:22 | 49.83696 | 8.43027 | 349° | 11km/h | 22339m | -25m/s | -54.1°C | 0.8% | 40.9hPa | 2.7V | 02:50:44 | 02:27:23 | 00:00:00 | |
| DH7VM-15 | 2026-08-30 06:57:21 | 49.83695 | 8.43027 | 350° | 11km/h | 22339m | -25.0m/s | -54.1°C | 1.2% | 40.9hPa | 2.7V | 00:00:00 | 00:00:00 | 00:00:00 | |
| DL1XH-15 | 2026-08-30 06:57:20 | 49.83689 | 8.43019 | 177° | 5km/h | 22517m | -25.8m/s | -53.7°C | 3.8% | 39.8hPa | 2.7V | 02:50:31 | 02:27:16 | 00:00:00 | |
| HSKMA3-T | 2026-08-30 06:57:17 | 49.83688 | 8.43021 | 80° | 5km/h | 22465m | -26.2m/s | -53.8°C | 0.7% | 40.1hPa | 2.7V | 02:50:44 | 02:27:18 | 00:00:00 | |
| DL1XH-west | 2026-08-30 06:57:14 | 49.83690 | 8.43020 | 206° | 7km/h | 22545m | -27.6m/s | -53.6°C | 0.6% | 39.6hPa | 2.6V | 02:50:44 | 02:27:15 | 00:00:00 | |
| DB0UT-7 | 2026-08-30 06:57:14 | 49.83690 | 8.43020 | 207° | 16km/h | 22545m | -27.6m/s | -53.5°C | 3.8% | 39.6hPa | 2.7V | 00:00:00 | 02:27:15 | 00:00:00 | |
| DM0DOS-11 | 2026-08-30 06:57:12 | 49.83704 | 8.43046 | 247° | 18km/h | 22744m | -30.5m/s | -53.2°C | 3.6% | 38.5hPa | 2.7V | 02:50:39 | 02:27:08 | 00:00:00 | |
| AA1-15 | 2026-08-30 06:57:11 | 49.83696 | 8.43026 | 221° | 13km/h | 22628m | -29.1m/s | -53.1°C | 0.5% | 39.1hPa | 2.7V | 02:50:44 | 02:27:12 | 00:00:00 | |
| HSKMA3-T | 2026-08-30 06:57:06 | 49.83705 | 8.43053 | 250° | 18km/h | 22776m | -31.3m/s | -53.4°C | 0.5% | 38.3hPa | 2.7V | 02:50:44 | 02:27:07 | 00:00:00 | |
| DB0ND-19 | 2026-08-30 06:57:06 | 49.83706 | 8.43060 | 258° | 18km/h | 22807m | -29.9m/s | -53.6°C | 1.1% | 38.1hPa | 2.7V | 00:00:00 | 00:00:00 | 00:00:00 | |
| EDDB2-12 | 2026-08-30 06:57:04 | 49.83708 | 8.43074 | 259° | 18km/h | 22863m | -27.8m/s | -53.9°C | 1.1% | 37.7hPa | 2.7V | 00:00:00 | 00:00:00 | 00:00:00 | |
| DL1XH1-15 | 2026-08-30 06:57:03 | 49.83709 | 8.43088 | 271° | 18km/h | 22918m | -28.6m/s | -53.9°C | 3.8% | 37.4hPa | 2.7V | 02:50:45 | 02:27:02 | 00:00:00 | |
| DL1XH-west | 2026-08-30 06:57:03 | 49.83708 | 8.43074 | 260° | 18km/h | 22863m | -27.8m/s | -53.9°C | 0.6% | 37.7hPa | 2.6V | 02:50:44 | 02:27:04 | 00:00:00 | |
| DJ2DS-15 | 2026-08-30 06:57:03 | 49.83708 | 8.43074 | 260° | 18km/h | 22863m | -27.8m/s | -53.8°C | 3.8% | 37.7hPa | 2.7V | 00:00:00 | 02:27:04 | 00:00:00 | |
| DJ2KF-10 | 2026-08-30 06:57:02 | 49.83709 | 8.43081 | 266° | 18km/h | 22890m | -27.5m/s | -53.8°C | 3.8% | 37.5hPa | 2.7V | 00:00:00 | 02:27:03 | 00:00:00 | |
| DL1XH-15 | 2026-08-30 06:57:00 | 49.83700 | 8.43131 | 297° | 18km/h | 23090m | -28.4m/s | -54.7°C | 4.1% | 36.4hPa | 2.7V | 02:50:51 | 02:26:56 | 00:00:00 | |
| AA1-15 | 2026-08-30 06:57:00 | 49.83708 | 8.43095 | 279° | 18km/h | 22947m | -30m/s | -54.1°C | 0.7% | 37.2hPa | 2.7V | 02:51:35 | 02:27:01 | 00:00:00 | |
| HSKMA3-T | 2026-08-30 06:56:55 | 49.83700 | 8.43131 | 298° | 18km/h | 23090m | -28.4m/s | -54.7°C | 0.8% | 36.4hPa | 2.7V | 02:51:35 | 02:26:56 | 00:00:00 | |
| BIOWL1-15 | 2026-08-30 06:56:53 | 49.83696 | 8.43143 | 303° | 18km/h | 23149m | -29.4m/s | -54.7°C | 0.8% | 36.1hPa | 2.6V | 02:51:35 | 02:26:54 | 00:00:00 | |
| DL1XH-west | 2026-08-30 06:56:52 | 49.83693 | 8.43149 | 302° | 18km/h | 23178m | -30.6m/s | -54.9°C | 0.9% | 35.9hPa | 2.6V | 02:51:35 | 02:26:53 | 00:00:00 | |
| SONCRA | 2026-08-30 06:56:51 | 49.83691 | 8.43155 | 299° | 18km/h | 23209m | -31.0m/s | -54.9°C | 1.2% | 35.8hPa | 2.7V | 00:00:00 | 00:00:00 | 00:00:00 | |
| DL1XH-15 | 2026-08-30 06:56:50 | 49.83687 | 8.43195 | 268° | 22km/h | 23398m | -32m/s | -54.6°C | 4.3% | 34.7hPa | 2.7V | 02:51:01 | 02:26:46 | 00:00:00 | |
| AA1-15 | 2026-08-30 06:56:49 | 49.83687 | 8.43167 | 285° | 16km/h | 23272m | -33m/s | -54.7°C | 0.9% | 35.4hPa | 2.7V | 02:51:35 | 02:26:50 | 00:00:00 | |
| HSKMA3-T | 2026-08-30 06:56:44 | 49.83687 | 8.43203 | 268° | 20km/h | 23430m | -31.7m/s | -54.6°C | 0.9% | 34.5hPa | 2.7V | 02:51:35 | 02:26:45 | 00:00:00 | |
| BIOWL1-15 | 2026-08-30 06:56:44 | 49.83687 | 8.43219 | 269° | 20km/h | 23490m | -29.3m/s | -54.8°C | 1% | 34.2hPa | 2.6V | 02:51:35 | 02:26:43 | 00:00:00 | |
| DB0UT-7 | 2026-08-30 06:56:44 | 49.83687 | 8.43203 | 268° | 16km/h | 23430m | -31.7m/s | -54.6°C | 4.3% | 34.5hPa | 2.7V | 00:00:00 | 00:00:00 | 00:00:00 | |
| DL1XH1-15 | 2026-08-30 06:56:43 | 49.83686 | 8.43235 | 283° | 18km/h | 23548m | -29.2m/s | -54.8°C | 4.5% | 33.9hPa | 2.7V | 02:51:06 | 02:26:41 | 00:00:00 | |
| DL1XH-west | 2026-08-30 06:56:41 | 49.83687 | 8.43227 | 275° | 22km/h | 23519m | -28.7m/s | -54.9°C | 1% | 34hPa | 2.6V | 02:51:35 | 02:26:42 | 00:00:00 | |
| DL1XH-15 | 2026-08-30 06:56:40 | 49.83672 | 8.43260 | 336° | 16km/h | 23686m | -29m/s | -54.4°C | 4.5% | 33.2hPa | 2.7V | 02:51:11 | 02:26:36 | 00:00:00 | |
| AA1-15 | 2026-08-30 06:56:38 | 49.83682 | 8.43248 | 309° | 16km/h | 23604m | -28.5m/s | -54.8°C | 1% | 33.6hPa | 2.7V | 02:51:35 | 02:26:39 | 00:00:00 | |
| HTAHTA | 2026-08-30 06:56:38 | 49.83679 | 8.43253 | 315° | 16km/h | 23632m | -27.1m/s | -54.7°C | 1.2% | 33.4hPa | 2.6V | 00:00:00 | 00:00:00 | 00:00:00 | |
| DO3MHA-11 | 2026-08-30 06:56:36 | 49.83675 | 8.43257 | 325° | 15km/h | 23659m | -26.7m/s | -54.5°C | 4.5% | 33.2hPa | 2.6V | 00:00:00 | 02:26:37 | 00:00:00 | |
| DL1XH1-15 | 2026-08-30 06:56:35 | 49.83651 | 8.43264 | 352° | 13km/h | 23833m | -30.1m/s | -53.8°C | 4.2% | 32.4hPa | 2.6V | 02:51:16 | 02:26:31 | 00:00:00 | |
| HSKMA3-T | 2026-08-30 06:56:34 | 49.83668 | 8.43262 | 352° | 16km/h | 23716m | -31.1m/s | -54.4°C | 0.9% | 33hPa | 2.7V | 02:51:35 | 02:26:35 | 00:00:00 | |
| EDDB2-12 | 2026-08-30 06:56:33 | 49.83659 | 8.43264 | 353° | 16km/h | 23775m | -28.0m/s | -54.3°C | 1.2% | 32.7hPa | 2.7V | 00:00:00 | 00:00:00 | 00:00:00 | |
| DM0DOS-11 | 2026-08-30 06:56:32 | 49.83643 | 8.43267 | 330° | 9km/h | 23927m | -31.2m/s | -53.1°C | 4% | 31.9hPa | 2.7V | 02:51:19 | 02:26:28 | 00:00:00 | |
| DL1XH-west | 2026-08-30 06:56:31 | 49.83655 | 8.43264 | 2° | 15km/h | 23803m | -29.2m/s | -54.1°C | 0.9% | 32.5hPa | 2.6V | 02:51:35 | 02:26:32 | 00:00:00 | |
| DL3AQ-11 | 2026-08-30 06:56:31 | 49.83651 | 8.43264 | 352° | 13km/h | 23833m | -30.1m/s | -53.8°C | 1.2% | 32.4hPa | 2.6V | 00:00:00 | 00:00:00 | 00:00:00 | |
| DL1XH-15 | 2026-08-30 06:56:30 | 49.83639 | 8.43271 | 315° | 9km/h | 23985m | -29.2m/s | -52.4°C | 3.8% | 31.6hPa | 2.6V | 02:51:21 | 02:26:26 | 00:00:00 | |
| AA1-15 | 2026-08-30 06:56:27 | 49.83643 | 8.43267 | 330° | 9km/h | 23927m | -31.2m/s | -53.1°C | 0.7% | 31.9hPa | 2.7V | 02:51:35 | 02:26:28 | 00:00:00 | |
| HSKMA3-T | 2026-08-30 06:56:23 | 49.83636 | 8.43275 | 322° | 9km/h | 24045m | -30.8m/s | -52°C | 0.6% | 31.3hPa | 2.7V | 02:51:35 | 02:26:24 | 00:00:00 | |
| DM0DOS-11 | 2026-08-30 06:56:22 | 49.83612 | 8.43277 | 7° | 24km/h | 24229m | -30.6m/s | -52°C | 3.6% | 30.4hPa | 2.7V | 02:51:29 | 02:26:18 | 00:00:00 | |
| DL1XH-west | 2026-08-30 06:56:21 | 49.83631 | 8.43278 | 349° | 13km/h | 24105m | -29.6m/s | -51.8°C | 0.5% | 31hPa | 2.6V | 02:51:35 | 02:26:22 | 00:00:00 | |
| DL1XH-15 | 2026-08-30 06:56:20 | 49.83601 | 8.43273 | 17° | 20km/h | 24290m | -31m/s | -52.2°C | 3.7% | 30.1hPa | 2.6V | 02:51:31 | 02:26:16 | 00:00:00 | |
| DL1XH1-15 | 2026-08-30 06:56:20 | 49.83627 | 8.43279 | 356° | 16km/h | 24136m | -32.6m/s | -51.8°C | 3.6% | 30.9hPa | 2.6V | 02:51:26 | 02:26:21 | 00:00:00 | |
| AA1-15 | 2026-08-30 06:56:16 | 49.83606 | 8.43275 | 13° | 22km/h | 24259m | -30.9m/s | -52.1°C | 0.6% | 30.3hPa | 2.7V | 02:51:35 | 02:26:17 | 00:00:00 | |
| HSKMA3-T | 2026-08-30 06:56:13 | 49.83592 | 8.43269 | 18° | 16km/h | 24351m | -31.6m/s | -52.2°C | 0.5% | 29.9hPa | 2.7V | 02:51:35 | 02:26:14 | 00:00:00 | |
| DB0NH | 2026-08-30 06:56:13 | 49.83592 | 8.43269 | 18° | 11km/h | 24351m | -31.5m/s | -52.1°C | 3.7% | 29.8hPa | 2.7V | 00:00:00 | 02:26:14 | 00:00:00 | |
| DM0DOS-11 | 2026-08-30 06:56:12 | 49.83577 | 8.43264 | 15° | 5km/h | 24537m | -33.2m/s | -52.2°C | 3.7% | 29.1hPa | 2.7V | 02:51:39 | 02:26:08 | 00:00:00 | |
| DL1XH-west | 2026-08-30 06:56:10 | 49.83582 | 8.43266 | 21° | 9km/h | 24442m | -31.1m/s | -52.2°C | 0.6% | 29.5hPa | 2.6V | 02:52:26 | 02:26:11 | 00:00:00 | |
| AA1-15 | 2026-08-30 06:56:05 | 49.83575 | 8.43263 | 21° | 4km/h | 24602m | -32.4m/s | -52.2°C | 0.6% | 28.8hPa | 2.7V | 02:52:26 | 02:26:06 | 00:00:00 | |
| DL1XH1-15 | 2026-08-30 06:56:05 | 49.83578 | 8.43269 | 247° | 9km/h | 24770m | -30.3m/s | -52°C | 3.7% | 28hPa | 2.7V | 02:51:46 | 02:26:01 | 00:00:00 | |
| HSKMA3-T | 2026-08-30 06:56:02 | 49.83576 | 8.43265 | 237° | 5km/h | 24705m | -35.1m/s | -51.9°C | 0.5% | 28.4hPa | 2.6V | 02:52:26 | 02:26:03 | 00:00:00 | |
| DL1XH-west | 2026-08-30 06:56:00 | 49.83579 | 8.43269 | 247° | 9km/h | 24770m | -30.3m/s | -52°C | 0.5% | 28hPa | 2.7V | 02:52:26 | 02:26:01 | 00:00:00 | |
| AA1-15 | 2026-08-30 06:55:54 | 49.83579 | 8.43297 | 299° | 13km/h | 24968m | -36.6m/s | -52°C | 0.6% | 27.2hPa | 2.7V | 02:52:26 | 02:25:55 | 00:00:00 | |
| DN1GJH-1 | 2026-08-30 06:55:53 | 49.83579 | 8.43297 | 300° | 13km/h | 24968m | -36.6m/s | -52.0°C | 1.0% | 27.2hPa | 2.7V | 02:52:00 | 00:00:00 | 00:00:00 | |
| DM0DOS-11 | 2026-08-30 06:55:52 | 49.83553 | 8.43313 | 12° | 16km/h | 25215m | -35.6m/s | -51.7°C | 3.7% | 26.2hPa | 2.7V | 02:51:59 | 02:25:48 | 00:00:00 | |
| HSKMA3-T | 2026-08-30 06:55:52 | 49.83574 | 8.43304 | 326° | 16km/h | 25040m | -35.8m/s | -51.9°C | 0.6% | 26.9hPa | 2.6V | 02:52:26 | 02:25:53 | 00:00:00 | |
| DL3AQ-11 | 2026-08-30 06:55:51 | 49.83566 | 8.43311 | 338° | 16km/h | 25110m | -34.9m/s | -51.8°C | 1.0% | 26.6hPa | 2.6V | 00:00:00 | 00:00:00 | 00:00:00 | |
| DL1XH-15 | 2026-08-30 06:55:50 | 49.83546 | 8.43307 | 40° | 15km/h | 25283m | -32m/s | -51.6°C | 3.7% | 25.8hPa | 2.6V | 02:52:01 | 02:25:46 | 00:00:00 | |
| DL1XH1-15 | 2026-08-30 06:55:50 | 49.83566 | 8.43311 | 338° | 18km/h | 25110m | -34.9m/s | -51.8°C | 3.7% | 26.6hPa | 2.6V | 02:51:56 | 02:25:51 | 00:00:00 | |
| SONCRA | 2026-08-30 06:55:49 | 49.83557 | 8.43314 | 355° | 16km/h | 25180m | -36.7m/s | -51.7°C | 1.0% | 26.3hPa | 2.7V | 00:00:00 | 00:00:00 | 00:00:00 | |
| DL1XH-west | 2026-08-30 06:55:49 | 49.83561 | 8.43313 | 348° | 16km/h | 25144m | -34.9m/s | -51.7°C | 0.5% | 26.5hPa | 2.7V | 02:52:26 | 02:25:50 | 00:00:00 | |
| AU51GT2 | 2026-08-30 06:55:47 | 49.83553 | 8.43313 | 12° | 15km/h | 25215m | -35.6m/s | -51.7°C | 1.0% | 26.2hPa | 2.7V | 00:00:00 | 00:00:00 | 00:00:00 | |
| DO3MHA-11 | 2026-08-30 06:55:46 | 49.83549 | 8.43311 | 35° | 18km/h | 25251m | -34.7m/s | -51.6°C | 3.7% | 26.0hPa | 2.7V | 02:52:00 | 02:25:47 | 00:00:00 | |
| DL1XH1-15 | 2026-08-30 06:55:45 | 49.83535 | 8.43272 | 81° | 22km/h | 25446m | -33.7m/s | -51.3°C | 3.6% | 25.2hPa | 2.7V | 02:52:06 | 02:25:41 | 00:00:00 | |
| DF7PN | 2026-08-30 06:55:44 | 49.83544 | 8.43303 | 56° | 16km/h | 25316m | -32.3m/s | -51.6°C | 1.0% | 25.8hPa | 2.6V | 00:00:00 | 00:00:00 | 00:00:00 | |
| AA1-15 | 2026-08-30 06:55:43 | 49.83541 | 8.43296 | 64° | 22km/h | 25347m | -32.2m/s | -51.6°C | 0.5% | 25.6hPa | 2.6V | 02:52:26 | 02:25:44 | 00:00:00 | |
| HSKMA3-T | 2026-08-30 06:55:41 | 49.83537 | 8.43281 | 72° | 24km/h | 25413m | -32.9m/s | -51.4°C | 0.6% | 25.3hPa | 2.7V | 02:52:26 | 02:25:42 | 00:00:00 | |
| DK5PH-5 | 2026-08-30 06:55:41 | 49.83537 | 8.43280 | 73° | 11km/h | 25413m | -32.8m/s | -51.3°C | 3.7% | 25.3hPa | 2.7V | 02:52:00 | 02:25:42 | 00:00:00 | |
| DL1XH-15 | 2026-08-30 06:55:40 | 49.83540 | 8.43246 | 142° | 11km/h | 25612m | -31.5m/s | -51.3°C | 3.6% | 24.6hPa | 2.7V | 02:52:11 | 02:25:36 | 00:00:00 | |
| BIOWL1-15 | 2026-08-30 06:55:39 | 49.83535 | 8.43264 | 91° | 20km/h | 25479m | -34m/s | -51.3°C | 0.5% | 25.1hPa | 2.6V | 02:52:26 | 02:25:40 | 00:00:00 | |
| DL1XH-west | 2026-08-30 06:55:38 | 49.83535 | 8.43258 | 107° | 16km/h | 25513m | -33.6m/s | -51.4°C | 0.6% | 25hPa | 2.6V | 02:52:26 | 02:25:39 | 00:00:00 | |
| DO3DL | 2026-08-30 06:55:37 | 49.83535 | 8.43258 | 108° | 16km/h | 25514m | -33.6m/s | -51.4°C | 1.0% | 25.0hPa | 2.7V | 02:52:00 | 00:00:00 | 00:00:00 | |
| DO3MHA-11 | 2026-08-30 06:55:36 | 49.83538 | 8.43249 | 127° | 9km/h | 25580m | -33.6m/s | -51.3°C | 3.7% | 24.7hPa | 2.7V | 00:00:00 | 02:25:37 | 00:00:00 | |
| DL1XH1-15 | 2026-08-30 06:55:35 | 49.83550 | 8.43241 | 164° | 9km/h | 25791m | -38m/s | -50.9°C | 3.6% | 23.9hPa | 2.7V | 02:52:16 | 02:25:31 | 00:00:00 | |
| AA1-15 | 2026-08-30 06:55:32 | 49.83546 | 8.43242 | 179° | 5km/h | 25718m | -36.6m/s | -51.1°C | 0.5% | 24.2hPa | 2.6V | 02:52:26 | 02:25:33 | 00:00:00 | |
| HSKMA3-T | 2026-08-30 06:55:30 | 49.83550 | 8.43241 | 164° | 9km/h | 25791m | -38m/s | -50.9°C | 0.5% | 23.9hPa | 2.7V | 02:52:26 | 02:25:31 | 00:00:00 | |
| DL1XH-west | 2026-08-30 06:55:28 | 49.83555 | 8.43240 | 170° | 9km/h | 25866m | -36m/s | -50.8°C | 0.4% | 23.7hPa | 2.7V | 02:52:26 | 02:25:29 | 00:00:00 | |
| CB1BUN | 2026-08-30 06:55:28 | 49.83555 | 8.43240 | 171° | 9km/h | 25866m | -36.0m/s | -50.8°C | 0.9% | 23.7hPa | 2.6V | 02:52:00 | 00:00:00 | 00:00:00 | |
| DD1CC2-15 | 2026-08-30 06:55:27 | 49.83555 | 8.43240 | 171° | 9km/h | 25866m | -36.0m/s | -50.8°C | 1.0% | 23.7hPa | 2.6V | 02:52:00 | 00:00:00 | 00:00:00 | |
| DO3MHA-11 | 2026-08-30 06:55:26 | 49.83559 | 8.43239 | 187° | 11km/h | 25935m | -35.7m/s | -50.8°C | 3.6% | 23.3hPa | 2.6V | 00:00:00 | 02:25:27 | 00:00:00 | |
| DL1XH1-15 | 2026-08-30 06:55:25 | 49.83565 | 8.43259 | 267° | 13km/h | 26152m | -33.5m/s | -50.3°C | 3.5% | 22.6hPa | 2.6V | 02:52:26 | 02:25:21 | 00:00:00 | |
| EDDB2-11 | 2026-08-30 06:55:24 | 49.83562 | 8.43243 | 232° | 9km/h | 26009m | -36.8m/s | -50.5°C | 0.9% | 23.2hPa | 2.7V | 00:00:00 | 00:00:00 | 00:00:00 | |
| KANTATE | 2026-08-30 06:55:23 | 49.83562 | 8.43243 | 234° | 9km/h | 26009m | -36.8m/s | -50.5°C | 0.9% | 23.2hPa | 2.7V | 02:52:00 | 00:00:00 | 00:00:00 | |
| DM0DOS-11 | 2026-08-30 06:55:22 | 49.83563 | 8.43271 | 282° | 9km/h | 26264m | -41.1m/s | -50°C | 3.4% | 22.3hPa | 2.7V | 02:52:29 | 02:25:18 | 00:00:00 | |
| AA1-15 | 2026-08-30 06:55:22 | 49.83564 | 8.43255 | 260° | 11km/h | 26118m | -34.7m/s | -50.4°C | 0.4% | 22.8hPa | 2.6V | 02:52:26 | 02:25:22 | 00:00:00 | |
| DJ2DS-15 | 2026-08-30 06:55:22 | 49.83564 | 8.43250 | 263° | 15km/h | 26082m | -37.7m/s | -50.3°C | 3.4% | 22.8hPa | 2.7V | 02:52:00 | 02:25:23 | 00:00:00 | |
| BIOWL9-15 | 2026-08-30 06:55:21 | 49.83565 | 8.43259 | 267° | 11km/h | 26152m | -33.6m/s | -50.3°C | 0.9% | 22.6hPa | 2.6V | 00:00:00 | 00:00:00 | 00:00:00 | |
| DL1XH-15 | 2026-08-30 06:55:20 | 49.83563 | 8.43275 | 205° | 4km/h | 26343m | -39m/s | -50°C | 3.4% | 22hPa | 2.6V | 02:52:31 | 02:25:16 | 00:00:00 | |
| HSKMA3-T | 2026-08-30 06:55:20 | 49.83565 | 8.43259 | 267° | 13km/h | 26152m | -33.6m/s | -50.3°C | 0.4% | 22.6hPa | 2.6V | 02:52:26 | 02:25:21 | 00:00:00 | |
| DL1XH-west | 2026-08-30 06:55:17 | 49.83563 | 8.43271 | 283° | 9km/h | 26264m | -41.1m/s | -50.1°C | 0.3% | 22.3hPa | 2.7V | 02:53:17 | 02:25:18 | 00:00:00 | |
| DO3MHA-11 | 2026-08-30 06:55:16 | 49.83563 | 8.43274 | 245° | 15km/h | 26304m | -40.0m/s | -49.9°C | 3.4% | 22.1hPa | 2.6V | 02:52:00 | 02:25:17 | 00:00:00 | |
| DL1XH1-15 | 2026-08-30 06:55:15 | 49.83577 | 8.43265 | 147° | 18km/h | 26533m | -38.6m/s | -49.9°C | 3.3% | 21.4hPa | 2.7V | 02:52:36 | 02:25:11 | 00:00:00 | |
| DL4BBY-15 | 2026-08-30 06:55:15 | 49.83564 | 8.43275 | 206° | 20km/h | 26344m | -39.0m/s | -51.1°C | 0% | 0hPa | 2.7V | 00:00:00 | 00:00:00 | 00:00:00 | |
| DB0UT-7 | 2026-08-30 06:55:14 | 49.83564 | 8.43276 | 170° | 20km/h | 26382m | -37.6m/s | -49.9°C | 3.3% | 21.8hPa | 2.7V | 00:00:00 | 02:25:15 | 00:00:00 | |
| DB0NH | 2026-08-30 06:55:13 | 49.83567 | 8.43275 | 153° | 22km/h | 26419m | -36.8m/s | -49.9°C | 3.4% | 21.7hPa | 2.7V | 02:52:00 | 02:25:14 | 00:00:00 | |
| DM0DOS-11 | 2026-08-30 06:55:12 | 49.83591 | 8.43252 | 152° | 26km/h | 26646m | -36.7m/s | -49.8°C | 3.4% | 21hPa | 2.6V | 02:52:39 | 02:25:08 | 00:00:00 | |
| AA1-15 | 2026-08-30 06:55:11 | 49.83572 | 8.43269 | 145° | 18km/h | 26494m | -39.4m/s | -49.9°C | 0.3% | 21.5hPa | 2.6V | 02:53:17 | 02:25:12 | 00:00:00 | |
| DF8AY | 2026-08-30 06:55:09 | 49.83581 | 8.43262 | 144° | 22km/h | 26572m | -37.2m/s | -49.9°C | 0.3% | 21.2hPa | 2.7V | 02:58:23 | 02:25:10 | 00:00:00 | |
| DL1XH-west | 2026-08-30 06:55:07 | 49.83591 | 8.43252 | 153° | 26km/h | 26646m | -36.7m/s | -49.8°C | 0.4% | 21hPa | 2.6V | 02:53:17 | 02:25:08 | 00:00:00 | |
| BIOWL1-15 | 2026-08-30 06:55:06 | 49.83597 | 8.43248 | 158° | 26km/h | 26683m | -38.1m/s | -49.8°C | 0.3% | 20.9hPa | 2.6V | 02:53:17 | 02:25:07 | 00:00:00 | |
| DO3MHA-11 | 2026-08-30 06:55:06 | 49.83597 | 8.43247 | 158° | 26km/h | 26683m | -38.0m/s | -49.7°C | 3.3% | 20.8hPa | 2.6V | 00:00:00 | 02:25:07 | 00:00:00 | |
| DL1XH1-15 | 2026-08-30 06:55:05 | 49.83633 | 8.43240 | 189° | 27km/h | 26902m | -35.6m/s | -49.8°C | 3.3% | 20.2hPa | 2.6V | 02:52:46 | 02:25:01 | 00:00:00 | |
| DL1KLB | 2026-08-30 06:55:04 | 49.83603 | 8.43245 | 163° | 22km/h | 26721m | -36.9m/s | -49.8°C | 0.9% | 20.8hPa | 2.7V | 02:53:00 | 00:00:00 | 00:00:00 | |
| SSTOLZ84 | 2026-08-30 06:55:03 | 49.83614 | 8.43240 | 169° | 22km/h | 26793m | -36.0m/s | -50.0°C | 0.9% | 20.5hPa | 2.7V | 00:00:00 | 00:00:00 | 00:00:00 | |
| DM0DOS-11 | 2026-08-30 06:55:02 | 49.83651 | 8.43254 | 223° | 26km/h | 27012m | -37m/s | -50°C | 3.5% | 19.8hPa | 2.7V | 02:52:49 | 02:24:58 | 00:00:00 | |
| BIOWL7-15 | 2026-08-30 06:55:02 | 49.83620 | 8.43239 | 180° | 24km/h | 26829m | -36.2m/s | -49.8°C | 0.9% | 20.4hPa | 2.6V | 02:53:00 | 00:00:00 | 00:00:00 | |
| HEMX73-11 | 2026-08-30 06:55:01 | 49.83620 | 8.43239 | 180° | 24km/h | 26829m | -36.2m/s | -49.8°C | 0.9% | 20.4hPa | 2.6V | 02:53:00 | 00:00:00 | 00:00:00 | |
| DL1XH-15 | 2026-08-30 06:55:00 | 49.83659 | 8.43270 | 237° | 24km/h | 27089m | -39.1m/s | -49.6°C | 3.3% | 19.6hPa | 2.6V | 02:52:51 | 02:24:56 | 00:00:00 | |
| AA1-15 | 2026-08-30 06:55:00 | 49.83633 | 8.43240 | 190° | 27km/h | 26902m | -35.6m/s | -49.8°C | 0.3% | 20.2hPa | 2.6V | 02:53:17 | 02:25:01 | 00:00:00 | |
| HSKMA3-T | 2026-08-30 06:54:58 | 49.83646 | 8.43248 | 214° | 27km/h | 26976m | -36.6m/s | -50.1°C | 0.4% | 19.9hPa | 2.7V | 02:53:17 | 02:24:59 | 00:00:00 | |
| DL1XH-west | 2026-08-30 06:54:56 | 49.83656 | 8.43262 | 234° | 26km/h | 27050m | -38.8m/s | -49.8°C | 0.3% | 19.7hPa | 2.7V | 02:53:17 | 02:24:57 | 00:00:00 | |
| EDDB2-11 | 2026-08-30 06:54:53 | 49.83664 | 8.43286 | 255° | 22km/h | 27163m | -36.8m/s | -49.6°C | 0.9% | 19.4hPa | 2.7V | 00:00:00 | 00:00:00 | 00:00:00 | |
| DM0DOS-11 | 2026-08-30 06:54:52 | 49.83670 | 8.43325 | 244° | 15km/h | 27375m | -32.6m/s | -49.6°C | 3.4% | 18.7hPa | 2.7V | 02:52:59 | 02:24:48 | 00:00:00 | |
| DL1XH-15 | 2026-08-30 06:54:51 | 49.83674 | 8.43336 | 234° | 15km/h | 27444m | -36.6m/s | -49.4°C | 3.4% | 18.6hPa | 2.7V | 02:53:01 | 02:24:46 | 00:00:00 | |
| AA1-15 | 2026-08-30 06:54:49 | 49.83668 | 8.43314 | 258° | 16km/h | 27308m | -34.6m/s | -49.7°C | 0.3% | 18.9hPa | 2.6V | 02:53:17 | 02:24:50 | 00:00:00 | |
| HSKMA3-T | 2026-08-30 06:54:47 | 49.83670 | 8.43325 | 244° | 15km/h | 27375m | -32.6m/s | -49.6°C | 0.4% | 18.7hPa | 2.7V | 02:53:17 | 02:24:48 | 00:00:00 | |
| BIOWL1-15 | 2026-08-30 06:54:46 | 49.83672 | 8.43331 | 245° | 15km/h | 27409m | -33.7m/s | -49.5°C | 0.3% | 18.6hPa | 2.7V | 02:53:17 | 02:24:47 | 00:00:00 | |
| DL1XH-west | 2026-08-30 06:54:45 | 49.83674 | 8.43336 | 234° | 15km/h | 27444m | -36.7m/s | -49.4°C | 0.3% | 18.6hPa | 2.7V | 02:53:17 | 02:24:46 | 00:00:00 | |
| DL4BBY-15 | 2026-08-30 06:54:45 | 49.83674 | 8.43336 | 235° | 16km/h | 27444m | -36.6m/s | -50.5°C | 0% | 0hPa | 2.6V | 00:00:00 | 00:00:00 | 00:00:00 | |
| DO3MHA-11 | 2026-08-30 06:54:44 | 49.83676 | 8.43341 | 228° | 18km/h | 27482m | -38.4m/s | -49.2°C | 3.3% | 18.4hPa | 2.6V | 02:53:00 | 02:24:45 | 00:00:00 | |
| DB0NH | 2026-08-30 06:54:43 | 49.83679 | 8.43346 | 226° | 16km/h | 27520m | -38.5m/s | -49.1°C | 3.3% | 18.3hPa | 2.6V | 00:00:00 | 02:24:44 | 00:00:00 | |
| DM0DOS-11 | 2026-08-30 06:54:42 | 49.83697 | 8.43376 | 223° | 15km/h | 27743m | -35.2m/s | -48.9°C | 3.2% | 17.7hPa | 2.6V | 02:53:09 | 02:24:38 | 00:00:00 | |
| DJ2DS-15 | 2026-08-30 06:54:42 | 49.83682 | 8.43351 | 229° | 18km/h | 27558m | -35.9m/s | -49.0°C | 3.3% | 18.2hPa | 2.7V | 00:00:00 | 02:24:43 | 00:00:00 | |
| BIOWL7-15 | 2026-08-30 06:54:41 | 49.83686 | 8.43356 | 230° | 18km/h | 27594m | -36.0m/s | -48.9°C | 0.8% | 18.1hPa | 2.7V | 02:53:00 | 00:00:00 | 00:00:00 | |
| DL1XH-15 | 2026-08-30 06:54:40 | 49.83703 | 8.43385 | 216° | 16km/h | 27814m | -35.8m/s | -48.8°C | 3.2% | 17.5hPa | 2.7V | 02:53:11 | 02:24:36 | 00:00:00 | |
| AA1-15 | 2026-08-30 06:54:38 | 49.83694 | 8.43372 | 233° | 16km/h | 27706m | -38.2m/s | -48.8°C | 0.2% | 17.8hPa | 2.6V | 02:53:17 | 02:24:39 | 00:00:00 | |
| HSKMA3-T | 2026-08-30 06:54:37 | 49.83697 | 8.43376 | 223° | 15km/h | 27743m | -35.2m/s | -48.9°C | 0.3% | 17.7hPa | 2.6V | 02:53:17 | 02:24:38 | 00:00:00 | |
| DL1ZP-14 | 2026-08-30 06:54:36 | 49.83700 | 8.43380 | 224° | 16km/h | 27778m | -36.1m/s | -48.8°C | 0.8% | 17.6hPa | 2.7V | 00:00:00 | 00:00:00 | 00:00:00 | |
| DL1XH1-15 | 2026-08-30 06:54:35 | 49.83722 | 8.43412 | 231° | 22km/h | 27994m | -40.8m/s | -48.7°C | 3.2% | 17.1hPa | 2.6V | 02:53:16 | 02:24:31 | 00:00:00 | |
| BIOWL1-15 | 2026-08-30 06:54:35 | 49.83703 | 8.43385 | 217° | 16km/h | 27814m | -35.8m/s | -48.8°C | 0.2% | 17.5hPa | 2.7V | 02:53:17 | 02:24:36 | 00:00:00 | |
| DL1XH-west | 2026-08-30 06:54:34 | 49.83707 | 8.43389 | 220° | 20km/h | 27849m | -34.9m/s | -48.8°C | 0.3% | 17.4hPa | 2.7V | 02:53:17 | 02:24:35 | 00:00:00 | |
| DK5PH-5 | 2026-08-30 06:54:34 | 49.83707 | 8.43389 | 220° | 24km/h | 27850m | -34.8m/s | -48.7°C | 3.2% | 17.4hPa | 2.7V | 00:00:00 | 02:24:35 | 00:00:00 | |
| NBG1-10 | 2026-08-30 06:54:33 | 49.83711 | 8.43394 | 217° | 24km/h | 27884m | -34.7m/s | -48.8°C | 3.2% | 17.3hPa | 2.7V | 02:53:00 | 02:24:34 | 00:00:00 | |
| DJ2KF-10 | 2026-08-30 06:54:32 | 49.83715 | 8.43399 | 225° | 20km/h | 27919m | -36.1m/s | -48.8°C | 3.3% | 17.2hPa | 2.6V | 00:00:00 | 02:24:33 | 00:00:00 | |
| DB0ND-19 | 2026-08-30 06:54:31 | 49.83722 | 8.43412 | 231° | 20km/h | 27995m | -40.8m/s | -48.7°C | 0.8% | 17.1hPa | 2.6V | 00:00:00 | 00:00:00 | 00:00:00 | |
| DL1XH-15 | 2026-08-30 06:54:30 | 49.83733 | 8.43442 | 254° | 11km/h | 28183m | -36.5m/s | -48.9°C | 3.4% | 16.6hPa | 2.6V | 02:53:21 | 02:24:26 | 00:00:00 | |
| AA1-15 | 2026-08-30 06:54:27 | 49.83730 | 8.43431 | 241° | 16km/h | 28111m | -36.7m/s | -48.8°C | 0.3% | 16.7hPa | 2.7V | 02:54:08 | 02:24:28 | 00:00:00 | |
| HSKMA3-T | 2026-08-30 06:54:26 | 49.83731 | 8.43437 | 256° | 15km/h | 28147m | -36.7m/s | -48.8°C | 0.3% | 16.7hPa | 2.7V | 02:54:08 | 02:24:27 | 00:00:00 | |
| BIOWL1-15 | 2026-08-30 06:54:26 | 49.83733 | 8.43446 | 254° | 9km/h | 28218m | -33.7m/s | -49°C | 0.4% | 16.4hPa | 2.6V | 02:54:08 | 02:24:25 | 00:00:00 | |
| DL1XH1-15 | 2026-08-30 06:54:25 | 49.83740 | 8.43453 | 195° | 13km/h | 28367m | -37.8m/s | -48.9°C | 3.5% | 16.1hPa | 2.7V | 02:53:26 | 02:24:21 | 00:00:00 | |
| DL1XH-west | 2026-08-30 06:54:23 | 49.83734 | 8.43448 | 240° | 7km/h | 28253m | -36.3m/s | -49°C | 0.4% | 16.4hPa | 2.6V | 02:54:08 | 02:24:24 | 00:00:00 | |
| DF8AY | 2026-08-30 06:54:22 | 49.83735 | 8.43451 | 232° | 9km/h | 28290m | -39.8m/s | -48.9°C | 0.4% | 16.3hPa | 2.7V | 02:58:23 | 02:24:23 | 00:00:00 | |
| DJ2DS-15 | 2026-08-30 06:54:22 | 49.83735 | 8.43451 | 233° | 22km/h | 28291m | -39.7m/s | -48.8°C | 3.4% | 16.3hPa | 2.7V | 02:53:00 | 02:24:23 | 00:00:00 | |
| KANTATE | 2026-08-30 06:54:21 | 49.83735 | 8.43451 | 233° | 9km/h | 28291m | -39.8m/s | -48.9°C | 0.9% | 16.3hPa | 2.7V | 02:54:00 | 00:00:00 | 00:00:00 | |
| DL1XH-15 | 2026-08-30 06:54:20 | 49.83763 | 8.43464 | 204° | 22km/h | 28548m | -36.2m/s | -48.3°C | 3.3% | 15.6hPa | 2.7V | 02:53:31 | 02:24:16 | 00:00:00 | |
| AA1-15 | 2026-08-30 06:54:16 | 49.83757 | 8.43461 | 201° | 22km/h | 28512m | -37.3m/s | -48.4°C | 0.3% | 15.8hPa | 2.6V | 02:54:08 | 02:24:17 | 00:00:00 | |
| HSKMA3-T | 2026-08-30 06:54:15 | 49.83763 | 8.43464 | 204° | 22km/h | 28548m | -36.2m/s | -48.3°C | 0.3% | 15.6hPa | 2.7V | 02:54:08 | 02:24:16 | 00:00:00 | |
| BIOWL1-15 | 2026-08-30 06:54:13 | 49.83773 | 8.43473 | 216° | 22km/h | 28625m | -42.2m/s | -48°C | 0.3% | 15.5hPa | 2.7V | 02:54:08 | 02:24:14 | 00:00:00 | |
| DL1XH-west | 2026-08-30 06:54:12 | 49.83777 | 8.43478 | 228° | 22km/h | 28669m | -45m/s | -47.8°C | 0.2% | 15.4hPa | 2.7V | 02:54:08 | 02:24:13 | 00:00:00 | |
| DF8AY | 2026-08-30 06:54:11 | 49.83780 | 8.43485 | 235° | 22km/h | 28713m | -44.2m/s | -47.7°C | 0.2% | 15.3hPa | 2.6V | 02:58:23 | 02:24:12 | 00:00:00 | |
| DL1XH-15 | 2026-08-30 06:54:10 | 49.83795 | 8.43543 | 255° | 31km/h | 28997m | -45.9m/s | -47.1°C | 3.1% | 14.7hPa | 2.7V | 02:53:41 | 02:24:06 | 00:00:00 | |
| DB0UT-7 | 2026-08-30 06:54:10 | 49.83783 | 8.43492 | 241° | 22km/h | 28758m | -46.5m/s | -47.4°C | 3.1% | 15.2hPa | 2.7V | 00:00:00 | 02:24:11 | 00:00:00 | |
| DH7VM-15 | 2026-08-30 06:54:07 | 49.83788 | 8.43510 | 251° | 27km/h | 28854m | -49.2m/s | -46.9°C | 0.7% | 15.0hPa | 2.7V | 00:00:00 | 00:00:00 | 00:00:00 | |
| DD1CC2-15 | 2026-08-30 06:54:06 | 49.83790 | 8.43520 | 249° | 29km/h | 28904m | -49.5m/s | -46.8°C | 0.8% | 14.9hPa | 2.7V | 02:54:00 | 00:00:00 | 00:00:00 | |
| DL1XH1-15 | 2026-08-30 06:54:05 | 49.83800 | 8.43593 | 278° | 20km/h | 29204m | -43.7m/s | -46.5°C | 2.9% | 14.2hPa | 2.7V | 02:53:46 | 02:24:01 | 00:00:00 | |
| HSKMA3-T | 2026-08-30 06:54:05 | 49.83795 | 8.43543 | 256° | 31km/h | 28997m | -45.9m/s | -47.2°C | 0.1% | 14.7hPa | 2.7V | 02:54:08 | 02:24:06 | 00:00:00 | |
| BIOWL1-15 | 2026-08-30 06:54:04 | 49.83799 | 8.43576 | 262° | 26km/h | 29123m | -41.6m/s | -47°C | 0.1% | 14.4hPa | 2.6V | 02:54:08 | 02:24:03 | 00:00:00 | |
| DL3AQ-11 | 2026-08-30 06:54:04 | 49.83798 | 8.43565 | 261° | 27km/h | 29082m | -40.1m/s | -47.2°C | 0.8% | 14.4hPa | 2.6V | 00:00:00 | 00:00:00 | 00:00:00 | |
| DM0DOS-11 | 2026-08-30 06:54:02 | 49.83794 | 8.43612 | 304° | 18km/h | 29335m | -39.5m/s | -46.2°C | 2.9% | 13.9hPa | 2.6V | 02:53:49 | 02:23:58 | 00:00:00 | |
| DL1XH-west | 2026-08-30 06:54:01 | 49.83800 | 8.43585 | 264° | 22km/h | 29163m | -39.6m/s | -46.7°C | 0% | 14.3hPa | 2.7V | 02:54:08 | 02:24:02 | 00:00:00 | |
| HSKMA3-T | 2026-08-30 06:53:55 | 49.83789 | 8.43623 | 305° | 18km/h | 29410m | -38.1m/s | -46.3°C | 0% | 13.7hPa | 2.6V | 02:54:08 | 02:23:56 | 00:00:00 | |
| AA1-15 | 2026-08-30 06:53:54 | 49.83787 | 8.43630 | 301° | 20km/h | 29447m | -36.7m/s | -46.5°C | 0% | 13.6hPa | 2.7V | 02:54:08 | 02:23:55 | 00:00:00 | |
| BIOWL1-15 | 2026-08-30 06:53:52 | 49.83782 | 8.43643 | 292° | 18km/h | 29517m | -36.7m/s | -46.7°C | 0.1% | 13.5hPa | 2.7V | 02:54:08 | 02:23:53 | 00:00:00 | |
| DF8AY | 2026-08-30 06:53:51 | 49.83780 | 8.43650 | 283° | 22km/h | 29556m | -40.3m/s | -46.6°C | 0.1% | 13.4hPa | 2.7V | 02:58:23 | 02:23:52 | 00:00:00 | |
| DL1XH-west | 2026-08-30 06:53:50 | 49.83780 | 8.43658 | 275° | 18km/h | 29597m | -42.1m/s | -46.5°C | 0.1% | 13.4hPa | 2.6V | 02:54:08 | 02:23:51 | 00:00:00 | |
| BIOWL9-15 | 2026-08-30 06:53:47 | 49.83778 | 8.43678 | 273° | 16km/h | 29719m | -39.9m/s | -46.3°C | 0.7% | 13.1hPa | 2.7V | 00:00:00 | 00:00:00 | 00:00:00 | |
| DC4HF-4 | 2026-08-30 06:53:46 | 49.83776 | 8.43691 | 284° | 18km/h | 29798m | -40.5m/s | -46.1°C | 0.8% | 13.0hPa | 2.7V | 00:00:00 | 00:00:00 | 00:00:00 | |
| DL1XH1-15 | 2026-08-30 06:53:45 | 49.83766 | 8.43722 | 308° | 15km/h | 29992m | -38.8m/s | -45.1°C | 2.8% | 12.6hPa | 2.7V | 02:54:06 | 02:23:41 | 00:00:00 | |
| HSKMA3-T | 2026-08-30 06:53:45 | 49.83776 | 8.43691 | 285° | 18km/h | 29797m | -40.5m/s | -46.1°C | 0.1% | 13hPa | 2.7V | 02:54:08 | 02:23:46 | 00:00:00 | |
| SONCRA | 2026-08-30 06:53:45 | 49.83775 | 8.43698 | 289° | 16km/h | 29837m | -39.1m/s | -46.0°C | 0.7% | 12.9hPa | 2.6V | 00:00:00 | 00:00:00 | 00:00:00 | |
| BIOWL1-15 | 2026-08-30 06:53:42 | 49.83771 | 8.43711 | 296° | 18km/h | 29915m | -40.2m/s | -45.4°C | 0% | 12.7hPa | 2.6V | 02:54:08 | 02:23:43 | 00:00:00 | |
| DJ2DS-15 | 2026-08-30 06:53:42 | 49.83771 | 8.43711 | 296° | 11km/h | 29915m | -40.2m/s | -45.3°C | 2.8% | 12.7hPa | 2.6V | 00:00:00 | 02:23:43 | 00:00:00 | |
| BUE01 | 2026-08-30 06:53:41 | 49.83769 | 8.43717 | 300° | 18km/h | 29954m | -37.7m/s | -45.3°C | 0.7% | 12.6hPa | 2.6V | 00:00:00 | 00:00:00 | 00:00:00 | |
| DL1XH-15 | 2026-08-30 06:53:40 | 49.83753 | 8.43731 | 14° | 13km/h | 30193m | -36.8m/s | -45.2°C | 2.8% | 12.2hPa | 2.6V | 02:54:11 | 02:23:36 | 00:00:00 | |
| DF8AY | 2026-08-30 06:53:40 | 49.83766 | 8.43722 | 309° | 15km/h | 29992m | -38.8m/s | -45.1°C | 0% | 12.6hPa | 2.7V | 02:58:23 | 02:23:41 | 00:00:00 | |
| DL1XH-west | 2026-08-30 06:53:39 | 49.83764 | 8.43727 | 315° | 13km/h | 30030m | -38.8m/s | -45°C | 0% | 12.5hPa | 2.7V | 02:54:08 | 02:23:40 | 00:00:00 | |
| DO3DL | 2026-08-30 06:53:39 | 49.83764 | 8.43727 | 316° | 13km/h | 30031m | -38.8m/s | -45.0°C | 0.6% | 12.5hPa | 2.7V | 02:54:00 | 00:00:00 | 00:00:00 | |
| HEMX73-11 | 2026-08-30 06:53:38 | 49.83764 | 8.43727 | 316° | 13km/h | 30031m | -38.8m/s | -45.0°C | 0.6% | 12.5hPa | 2.7V | 02:54:00 | 00:00:00 | 00:00:00 | |
| DL1XH1-15 | 2026-08-30 06:53:35 | 49.83741 | 8.43722 | 122° | 2km/h | 30392m | -46.6m/s | -45.1°C | 2.8% | 11.8hPa | 2.7V | 02:54:16 | 02:23:31 | 00:00:00 | |
| HSKMA3-T | 2026-08-30 06:53:34 | 49.83750 | 8.43729 | 32° | 11km/h | 30229m | -34.5m/s | -45.2°C | 0% | 12.1hPa | 2.6V | 02:54:59 | 02:23:35 | 00:00:00 | |
| DO3MHA-11 | 2026-08-30 06:53:34 | 49.83750 | 8.43729 | 33° | 9km/h | 30229m | -34.4m/s | -45.2°C | 2.8% | 12.1hPa | 2.6V | 00:00:00 | 02:23:35 | 00:00:00 | |
| DM0DOS-11 | 2026-08-30 06:53:32 | 49.83743 | 8.43726 | 222° | 11km/h | 30527m | -42.6m/s | -45.4°C | 3% | 11.6hPa | 2.6V | 02:54:19 | 02:23:28 | 00:00:00 | |
| AA1-15 | 2026-08-30 06:53:31 | 49.83742 | 8.43723 | 28° | 7km/h | 30346m | -46.1m/s | -45°C | 0% | 11.9hPa | 2.7V | 02:54:59 | 02:23:32 | 00:00:00 | |
| DL1XH-west | 2026-08-30 06:53:29 | 49.83741 | 8.43722 | 270° | 4km/h | 30438m | -44.3m/s | -45.2°C | 0% | 11.8hPa | 2.6V | 02:54:59 | 02:23:30 | 00:00:00 | |
| DF8AY | 2026-08-30 06:53:27 | 49.83743 | 8.43726 | 223° | 11km/h | 30527m | -42.6m/s | -45.4°C | 0.1% | 11.6hPa | 2.6V | 02:58:23 | 02:23:28 | 00:00:00 | |
| NBG1-10 | 2026-08-30 06:53:27 | 49.83743 | 8.43726 | 223° | 13km/h | 30527m | -42.6m/s | -45.3°C | 3.0% | 11.5hPa | 2.6V | 00:00:00 | 02:23:28 | 00:00:00 | |
| EDDB2-12 | 2026-08-30 06:53:26 | 49.83745 | 8.43729 | 235° | 11km/h | 30569m | -41.8m/s | -45.4°C | 0.7% | 11.5hPa | 2.6V | 00:00:00 | 00:00:00 | 00:00:00 | |
| DL1XH1-15 | 2026-08-30 06:53:25 | 49.83749 | 8.43758 | 311° | 15km/h | 30844m | -47.9m/s | -45.1°C | 3.1% | 11.1hPa | 2.6V | 02:54:26 | 02:23:21 | 00:00:00 | |
| HSKMA3-T | 2026-08-30 06:53:23 | 49.83750 | 8.43743 | 249° | 15km/h | 30702m | -46.7m/s | -45.4°C | 0.1% | 11.3hPa | 2.7V | 02:54:59 | 02:23:24 | 00:00:00 | |
| BIOWL1-15 | 2026-08-30 06:53:23 | 49.83751 | 8.43753 | 292° | 15km/h | 30796m | -47.6m/s | -45.2°C | 0.2% | 11.2hPa | 2.6V | 02:54:59 | 02:23:22 | 00:00:00 | |
| DM0DOS-11 | 2026-08-30 06:53:22 | 49.83737 | 8.43766 | 344° | 18km/h | 30985m | -44.9m/s | -44.7°C | 3% | 10.8hPa | 2.7V | 02:54:29 | 02:23:18 | 00:00:00 | |
| AA1-15 | 2026-08-30 06:53:20 | 49.83749 | 8.43758 | 312° | 15km/h | 30844m | -47.9m/s | -45.1°C | 0.1% | 11.1hPa | 2.6V | 02:54:59 | 02:23:21 | 00:00:00 | |
| DL1XH-west | 2026-08-30 06:53:18 | 49.83742 | 8.43764 | 341° | 18km/h | 30938m | -48.5m/s | -44.9°C | 0.1% | 10.9hPa | 2.7V | 02:54:59 | 02:23:19 | 00:00:00 | |
| DF8AY | 2026-08-30 06:53:16 | 49.83733 | 8.43768 | 353° | 16km/h | 31028m | -42.4m/s | -44.5°C | 0% | 10.7hPa | 2.7V | 02:58:23 | 02:23:17 | 00:00:00 | |
| DL1XH1-15 | 2026-08-30 06:53:15 | 49.83727 | 8.43765 | 189° | 5km/h | 31292m | -47.3m/s | -43.1°C | 2.8% | 10.3hPa | 2.7V | 02:54:36 | 02:23:11 | 00:00:00 | |
| HSKMA3-T | 2026-08-30 06:53:13 | 49.83724 | 8.43767 | 84° | 4km/h | 31155m | -45.4m/s | -44°C | 0% | 10.5hPa | 2.6V | 02:54:59 | 02:23:14 | 00:00:00 | |
| DB0NH | 2026-08-30 06:53:13 | 49.83724 | 8.43767 | 84° | 11km/h | 31155m | -45.3m/s | -43.9°C | 2.9% | 10.5hPa | 2.6V | 00:00:00 | 02:23:14 | 00:00:00 | |
| DM0DOS-11 | 2026-08-30 06:53:12 | 49.83728 | 8.43767 | 314° | 7km/h | 31441m | -50.5m/s | -41.9°C | 2.5% | 10.1hPa | 2.6V | 02:54:39 | 02:23:08 | 00:00:00 | |
| BIOWL1-15 | 2026-08-30 06:53:12 | 49.83727 | 8.43765 | 189° | 5km/h | 31292m | -47.3m/s | -43.1°C | 0% | 10.3hPa | 2.7V | 02:54:59 | 02:23:11 | 00:00:00 | |
| AA1-15 | 2026-08-30 06:53:09 | 49.83728 | 8.43765 | 242° | 4km/h | 31340m | -50.3m/s | -42.6°C | 0% | 10.3hPa | 2.7V | 02:54:59 | 02:23:10 | 00:00:00 | |
| DL1XH-west | 2026-08-30 06:53:07 | 49.83728 | 8.43767 | 315° | 7km/h | 31441m | -50.5m/s | -41.9°C | 0% | 10.1hPa | 2.6V | 02:54:59 | 02:23:08 | 00:00:00 | |
| IW2NTF | 2026-08-30 06:53:06 | 49.83707 | 8.43780 | 333° | 18km/h | 31726m | -48.5m/s | -41.3°C | 2.6% | 9.7hPa | 2.6V | 02:54:45 | 02:23:02 | 00:00:00 | |
| DF8AY | 2026-08-30 06:53:06 | 49.83726 | 8.43769 | 327° | 9km/h | 31492m | -51.3m/s | -41.6°C | 0% | 10.1hPa | 2.6V | 02:58:23 | 02:23:07 | 00:00:00 | |
| HSKMA3-T | 2026-08-30 06:53:03 | 49.83716 | 8.43776 | 338° | 18km/h | 31636m | -44.7m/s | -41.7°C | 0% | 9.8hPa | 2.7V | 02:54:59 | 02:23:04 | 00:00:00 | |
| BIOWL1-15 | 2026-08-30 06:52:59 | 49.83699 | 8.43787 | 326° | 16km/h | 31819m | -43.3m/s | -40.8°C | 0% | 9.5hPa | 2.6V | 02:54:59 | 02:23:00 | 00:00:00 | |
| AA1-15 | 2026-08-30 06:52:58 | 49.83697 | 8.43790 | 308° | 11km/h | 31863m | -44.7m/s | -40.6°C | 0% | 9.5hPa | 2.7V | 02:54:59 | 02:22:59 | 00:00:00 | |
| DL1XH-west | 2026-08-30 06:52:57 | 49.83695 | 8.43794 | 296° | 11km/h | 31906m | -42.3m/s | -40.5°C | 0% | 9.4hPa | 2.7V | 02:54:59 | 02:22:58 | 00:00:00 | |
| DF8AY | 2026-08-30 06:52:56 | 49.83694 | 8.43797 | 284° | 9km/h | 31949m | -42.2m/s | -40.4°C | 0% | 9.3hPa | 2.7V | 02:58:23 | 02:22:57 | 00:00:00 | |
| DL1XH1-15 | 2026-08-30 06:52:55 | 49.83694 | 8.43806 | 1° | 9km/h | 32253m | -57m/s | -39.1°C | 2.2% | 9hPa | 2.7V | 02:54:56 | 02:22:51 | 00:00:00 | |
| HSKMA3-T | 2026-08-30 06:52:52 | 49.83697 | 8.43805 | 285° | 2km/h | 32142m | -53.3m/s | -40°C | 0% | 9.1hPa | 2.6V | 02:54:59 | 02:22:53 | 00:00:00 | |
| DO3DL | 2026-08-30 06:52:51 | 49.83697 | 8.43805 | 0° | 0km/h | 32142m | -53.3m/s | -40.0°C | 0.6% | 9.1hPa | 2.6V | 02:54:00 | 00:00:00 | 00:00:00 | |
| DL1XH-15 | 2026-08-30 06:52:50 | 49.83678 | 8.43812 | 330° | 15km/h | 32544m | -59.9m/s | -38°C | 2% | 8.6hPa | 2.6V | 02:55:01 | 02:22:46 | 00:00:00 | |
| BIOWL1-15 | 2026-08-30 06:52:49 | 49.83691 | 8.43806 | 2° | 11km/h | 32310m | -57.7m/s | -38.8°C | 0% | 8.9hPa | 2.7V | 02:54:59 | 02:22:50 | 00:00:00 | |
| AA1-15 | 2026-08-30 06:52:47 | 49.83685 | 8.43807 | 340° | 15km/h | 32427m | -60.5m/s | -38.2°C | 0% | 8.8hPa | 2.6V | 02:54:59 | 02:22:48 | 00:00:00 | |
| DL1XH-west | 2026-08-30 06:52:46 | 49.83681 | 8.43809 | 333° | 11km/h | 32486m | -57.6m/s | -38°C | 0% | 8.7hPa | 2.6V | 02:55:50 | 02:22:47 | 00:00:00 | |
| DL1XH1-15 | 2026-08-30 06:52:45 | 49.83666 | 8.43822 | 357° | 9km/h | 32833m | -56.3m/s | -37.5°C | 2% | 8.2hPa | 2.6V | 02:55:06 | 02:22:41 | 00:00:00 | |
| DF8AY | 2026-08-30 06:52:44 | 49.83675 | 8.43815 | 321° | 15km/h | 32604m | -57.9m/s | -38°C | 0% | 8.5hPa | 2.7V | 02:58:23 | 02:22:45 | 00:00:00 | |
| HSKMA3-T | 2026-08-30 06:52:41 | 49.83669 | 8.43821 | 337° | 11km/h | 32777m | -56.1m/s | -37.5°C | 0% | 8.3hPa | 2.7V | 02:55:50 | 02:22:42 | 00:00:00 | |
| BIOWL1-15 | 2026-08-30 06:52:41 | 49.83663 | 8.43823 | 355° | 11km/h | 32889m | -54.1m/s | -37.6°C | 0% | 8.2hPa | 2.6V | 02:55:50 | 02:22:40 | 00:00:00 | |
| AU51GT2 | 2026-08-30 06:52:41 | 49.83666 | 8.43822 | 357° | 9km/h | 32834m | -56.3m/s | -37.6°C | 0.4% | 8.2hPa | 2.7V | 00:00:00 | 00:00:00 | 00:00:00 | |
| DL1XH-15 | 2026-08-30 06:52:40 | 49.83649 | 8.43817 | 16° | 18km/h | 33093m | -48.9m/s | -37.5°C | 2% | 7.9hPa | 2.7V | 02:55:11 | 02:22:36 | 00:00:00 | |
| AA1-15 | 2026-08-30 06:52:36 | 49.83654 | 8.43820 | 24° | 15km/h | 33044m | -50.6m/s | -37.5°C | 0% | 8hPa | 2.7V | 02:55:50 | 02:22:37 | 00:00:00 | |
| DL1XH1-15 | 2026-08-30 06:52:35 | 49.83633 | 8.43814 | 312° | 4km/h | 33347m | -51.1m/s | -36.9°C | 2% | 7.6hPa | 2.7V | 02:55:16 | 02:22:31 | 00:00:00 | |
| DL1XH-west | 2026-08-30 06:52:35 | 49.83650 | 8.43817 | 17° | 18km/h | 33093m | -48.9m/s | -37.5°C | 0% | 7.9hPa | 2.7V | 02:55:50 | 02:22:36 | 00:00:00 | |
| HSKMA3-T | 2026-08-30 06:52:31 | 49.83635 | 8.43813 | 352° | 5km/h | 33295m | -52.5m/s | -36.8°C | 0% | 7.7hPa | 2.6V | 02:55:50 | 02:22:32 | 00:00:00 | |
| BIOWL1-15 | 2026-08-30 06:52:28 | 49.83633 | 8.43817 | 242° | 5km/h | 33442m | -44.5m/s | -37°C | 0% | 7.5hPa | 2.7V | 02:55:50 | 02:22:29 | 00:00:00 | |
| DL1XH-15 | 2026-08-30 06:52:27 | 49.83640 | 8.43826 | 18° | 9km/h | 33725m | -62.8m/s | -35.6°C | 1.7% | 7.2hPa | 2.7V | 02:55:24 | 02:22:23 | 00:00:00 | |
| SONDE2-11 | 2026-08-30 06:52:27 | 49.83636 | 8.43821 | 212° | 11km/h | 33528m | -41.4m/s | -36.8°C | 0.4% | 7.4hPa | 2.7V | 00:00:00 | 00:00:00 | 00:00:00 | |
| IW2NTF | 2026-08-30 06:52:26 | 49.83638 | 8.43825 | 12° | 13km/h | 33786m | -60m/s | -35.6°C | 1.8% | 7.2hPa | 2.7V | 02:55:25 | 02:22:22 | 00:00:00 | |
| AA1-15 | 2026-08-30 06:52:25 | 49.83638 | 8.43823 | 205° | 11km/h | 33570m | -44.7m/s | -36.5°C | 0% | 7.3hPa | 2.6V | 02:55:50 | 02:22:26 | 00:00:00 | |
| DF8AY | 2026-08-30 06:52:23 | 49.83641 | 8.43827 | 247° | 2km/h | 33667m | -53.4m/s | -35.9°C | 0% | 7.3hPa | 2.7V | 02:58:23 | 02:22:24 | 00:00:00 | |
| HSKMA3-T | 2026-08-30 06:52:21 | 49.83638 | 8.43825 | 13° | 13km/h | 33786m | -60m/s | -35.6°C | 0% | 7.2hPa | 2.7V | 02:55:50 | 02:22:22 | 00:00:00 | |
| BIOWL1-15 | 2026-08-30 06:52:18 | 49.83628 | 8.43817 | 40° | 15km/h | 33954m | -52.1m/s | -35.6°C | 0% | 7hPa | 2.6V | 02:55:50 | 02:22:19 | 00:00:00 | |
| DF8AY | 2026-08-30 06:52:17 | 49.83637 | 8.43783 | 149° | 27km/h | 34253m | -49.4m/s | -36.4°C | 0% | 6.7hPa | 2.6V | 02:58:23 | 02:22:13 | 00:00:00 | |
| DL1XH-15 | 2026-08-30 06:52:16 | 49.83643 | 8.43778 | 151° | 26km/h | 34303m | -51.5m/s | -36.6°C | 2.1% | 6.6hPa | 2.6V | 02:55:35 | 02:22:12 | 00:00:00 | |
| DL1XH-west | 2026-08-30 06:52:15 | 49.83625 | 8.43800 | 101° | 18km/h | 34104m | -48.1m/s | -35.7°C | 0% | 6.8hPa | 2.7V | 02:55:50 | 02:22:16 | 00:00:00 | |
| HSKMA3-T | 2026-08-30 06:52:11 | 49.83642 | 8.43778 | 152° | 26km/h | 34303m | -51.5m/s | -36.6°C | 0% | 6.6hPa | 2.6V | 02:55:50 | 02:22:12 | 00:00:00 | |
| BIOWL1-15 | 2026-08-30 06:52:07 | 49.83652 | 8.43767 | 6° | 11km/h | 34513m | -54.6m/s | -36.8°C | 0% | 6.4hPa | 2.7V | 02:55:50 | 02:22:08 | 00:00:00 | |
| DF7PN | 2026-08-30 06:52:07 | 49.83652 | 8.43767 | 6° | 9km/h | 34513m | -54.6m/s | -36.8°C | 0.5% | 6.4hPa | 2.7V | 00:00:00 | 00:00:00 | 00:00:00 | |
| IW2NTF | 2026-08-30 06:52:06 | 49.83622 | 8.43762 | 64° | 9km/h | 34860m | -60.4m/s | -35.5°C | 2.1% | 6.1hPa | 2.7V | 02:55:45 | 02:22:02 | 00:00:00 | |
| DL1XH-west | 2026-08-30 06:52:04 | 49.83635 | 8.43767 | 5° | 27km/h | 34679m | -56.8m/s | -36.2°C | 0% | 6.2hPa | 2.6V | 02:55:50 | 02:22:05 | 00:00:00 | |
| DO3MHA-11 | 2026-08-30 06:52:04 | 49.83635 | 8.43767 | 5° | 27km/h | 34680m | -56.7m/s | -36.1°C | 2.2% | 6.2hPa | 2.6V | 00:00:00 | 02:22:05 | 00:00:00 | |
| DL8OAI-8 | 2026-08-30 06:52:03 | 49.83635 | 8.43767 | 6° | 27km/h | 34680m | -56.8m/s | -36.2°C | 0.5% | 6.2hPa | 2.6V | 00:00:00 | 00:00:00 | 00:00:00 | |
| DM0DOS-11 | 2026-08-30 06:52:02 | 49.83634 | 8.43743 | 154° | 37km/h | 35071m | -47.9m/s | -33.4°C | 1.8% | 5.8hPa | 2.6V | 02:55:49 | 02:21:58 | 00:00:00 | |
| HSKMA3-T | 2026-08-30 06:52:01 | 49.83622 | 8.43762 | 64° | 9km/h | 34860m | -60.4m/s | -35.5°C | 0% | 6.1hPa | 2.7V | 02:55:50 | 02:22:02 | 00:00:00 | |
| BIOWL1-15 | 2026-08-30 06:51:58 | 49.83644 | 8.43737 | 164° | 49km/h | 35117m | -45.4m/s | -32.6°C | 0% | 5.8hPa | 2.6V | 02:55:50 | 02:21:57 | 00:00:00 | |
| DC4HF-4 | 2026-08-30 06:51:58 | 49.83634 | 8.43743 | 154° | 37km/h | 35071m | -47.9m/s | -33.4°C | 0.4% | 5.8hPa | 2.6V | 00:00:00 | 00:00:00 | 00:00:00 | |
| DK5PH-5 | 2026-08-30 06:51:57 | 49.83634 | 8.43743 | 155° | 35km/h | 35072m | -47.8m/s | -33.3°C | 1.8% | 5.8hPa | 2.6V | 02:55:00 | 02:21:58 | 00:00:00 | |
| IW2NTF | 2026-08-30 06:51:56 | 49.83701 | 8.43731 | 194° | 29km/h | 35378m | -54.7m/s | -31.1°C | 1.5% | 5.6hPa | 2.6V | 02:55:55 | 02:21:52 | 00:00:00 | |
| DL1XH-west | 2026-08-30 06:51:54 | 49.83672 | 8.43728 | 172° | 60km/h | 35206m | -49.3m/s | -31.4°C | 0% | 5.7hPa | 2.7V | 02:56:41 | 02:21:55 | 00:00:00 | |
| AA1-15 | 2026-08-30 06:51:53 | 49.83685 | 8.43727 | 185° | 37km/h | 35261m | -61.2m/s | -31.2°C | 0% | 5.7hPa | 2.7V | 02:56:41 | 02:21:54 | 00:00:00 | |
| DF8AY | 2026-08-30 06:51:51 | 49.83701 | 8.43731 | 195° | 29km/h | 35378m | -54.7m/s | -31.1°C | 0% | 5.6hPa | 2.6V | 02:58:23 | 02:21:52 | 00:00:00 | |
| HSKMA3-T | 2026-08-30 06:51:50 | 49.83707 | 8.43734 | 204° | 22km/h | 35430m | -50.1m/s | -31.1°C | 0% | 5.5hPa | 2.7V | 02:56:41 | 02:21:51 | 00:00:00 | |
| BIOWL1-15 | 2026-08-30 06:51:46 | 49.83694 | 8.43741 | 0° | 55km/h | 35595m | -39.9m/s | -30.6°C | 0% | 5.4hPa | 2.6V | 02:56:41 | 02:21:47 | 00:00:00 | |
| DL1XH-15 | 2026-08-30 06:51:45 | 49.83663 | 8.43727 | 162° | 18km/h | 35885m | -40m/s | -30.5°C | 1.4% | 5.2hPa | 2.6V | 02:56:06 | 02:21:41 | 00:00:00 | |
| DL1XH-west | 2026-08-30 06:51:44 | 49.83664 | 8.43736 | 9° | 58km/h | 35680m | -47.3m/s | -30.4°C | 0% | 5.3hPa | 2.7V | 02:56:41 | 02:21:45 | 00:00:00 | |
| DO3MHA-11 | 2026-08-30 06:51:44 | 49.83664 | 8.43736 | 10° | 22km/h | 35680m | -47.2m/s | -30.3°C | 1.4% | 5.3hPa | 2.7V | 02:56:00 | 02:21:45 | 00:00:00 | |
| DB0NH | 2026-08-30 06:51:43 | 49.83656 | 8.43733 | 87° | 29km/h | 35733m | -60.0m/s | -30.2°C | 1.3% | 5.3hPa | 2.7V | 00:00:00 | 02:21:44 | 00:00:00 | |
| DM0DOS-11 | 2026-08-30 06:51:42 | 49.83678 | 8.43725 | 179° | 22km/h | 35963m | -12.7m/s | -30.7°C | 1.4% | 5.1hPa | 2.7V | 02:56:09 | 02:21:38 | 00:00:00 | |
| AA1-15 | 2026-08-30 06:51:42 | 49.83657 | 8.43731 | 137° | 9km/h | 35790m | -55.2m/s | -30.4°C | 0% | 5.3hPa | 2.6V | 02:56:41 | 02:21:43 | 00:00:00 | |
| HSKMA3-T | 2026-08-30 06:51:39 | 49.83667 | 8.43725 | 179° | 16km/h | 35920m | -30.3m/s | -30.6°C | 0% | 5.1hPa | 2.7V | 02:56:41 | 02:21:40 | 00:00:00 | |
| BIOWL1-15 | 2026-08-30 06:51:36 | 49.83684 | 8.43724 | 180° | 24km/h | 35971m | -3.2m/s | -30.6°C | 0% | 5.1hPa | 2.7V | 02:56:41 | 02:21:37 | 00:00:00 | |
| DL1XH-west | 2026-08-30 06:51:34 | 49.83693 | 8.43727 | 255° | 16km/h | 35963m | 5.8m/s | -30.6°C | 0% | 5.1hPa | 2.6V | 02:56:41 | 02:21:35 | 00:00:00 | |
| DO3MHA-11 | 2026-08-30 06:51:34 | 49.83693 | 8.43727 | 255° | 29km/h | 35963m | 5.7m/s | -30.5°C | 1.4% | 5.0hPa | 2.6V | 00:00:00 | 02:21:35 | 00:00:00 | |
| DL1XH1-15 | 2026-08-30 06:51:33 | 49.83651 | 8.43772 | 343° | 22km/h | 35934m | 2.1m/s | -30.6°C | 1.4% | 5.1hPa | 2.6V | 02:56:18 | 02:21:29 | 00:00:00 | |
| DF8AY | 2026-08-30 06:51:33 | 49.83692 | 8.43733 | 307° | 22km/h | 35956m | 7.7m/s | -30.6°C | 0% | 5.1hPa | 2.6V | 02:58:23 | 02:21:34 | 00:00:00 | |
| DL1XH-15 | 2026-08-30 06:51:32 | 49.83647 | 8.43773 | 22° | 7km/h | 35931m | 4.9m/s | -30.7°C | 1.4% | 5.1hPa | 2.6V | 02:56:19 | 02:21:28 | 00:00:00 | |
| AA1-15 | 2026-08-30 06:51:31 | 49.83678 | 8.43751 | 327° | 47km/h | 35942m | 5.7m/s | -30.6°C | 0% | 5.1hPa | 2.7V | 02:56:41 | 02:21:32 | 00:00:00 | |
| HSKMA3-T | 2026-08-30 06:51:29 | 49.83658 | 8.43768 | 337° | 38km/h | 35936m | 0.8m/s | -30.6°C | 0% | 5.1hPa | 2.7V | 02:56:41 | 02:21:30 | 00:00:00 | |
| BIOWL1-15 | 2026-08-30 06:51:25 | 49.83652 | 8.43764 | 143° | 33km/h | 35916m | 8.7m/s | -30.7°C | 0% | 5.1hPa | 2.7V | 02:56:41 | 02:21:26 | 00:00:00 | |
| DL1XH-west | 2026-08-30 06:51:23 | 49.83671 | 8.43744 | 148° | 53km/h | 35903m | 4.2m/s | -30.7°C | 0% | 5.1hPa | 2.7V | 02:56:41 | 02:21:24 | 00:00:00 | |
| DM0DOS-11 | 2026-08-30 06:51:22 | 49.83694 | 8.43731 | 315° | 33km/h | 35874m | 8.3m/s | -30.9°C | 1.4% | 5.1hPa | 2.7V | 02:56:29 | 02:21:18 | 00:00:00 | |
| DJ2DS-15 | 2026-08-30 06:51:22 | 49.83682 | 8.43734 | 150° | 27km/h | 35900m | 1.7m/s | -30.7°C | 1.4% | 5.1hPa | 2.7V | 02:56:00 | 02:21:23 | 00:00:00 | |
| DD1CC8 | 2026-08-30 06:51:21 | 49.83691 | 8.43726 | 151° | 33km/h | 35898m | 1.7m/s | -30.8°C | 0.3% | 5.1hPa | 2.7V | 00:00:00 | 00:00:00 | 00:00:00 | |
| DL1XH-15 | 2026-08-30 06:51:20 | 49.83680 | 8.43753 | 310° | 42km/h | 35862m | 3.6m/s | -30.9°C | 1.4% | 5.1hPa | 2.7V | 02:56:31 | 02:21:16 | 00:00:00 | |
| DF8AY | 2026-08-30 06:51:20 | 49.83697 | 8.43722 | 156° | 18km/h | 35895m | 3.7m/s | -30.9°C | 0% | 5.1hPa | 2.6V | 02:58:23 | 02:21:21 | 00:00:00 | |
| HSKMA3-T | 2026-08-30 06:51:19 | 49.83699 | 8.43721 | 230° | 4km/h | 35891m | 6.4m/s | -31°C | 0% | 5.1hPa | 2.6V | 02:56:41 | 02:21:20 | 00:00:00 | |
| BIOWL1-15 | 2026-08-30 06:51:15 | 49.83680 | 8.43753 | 310° | 42km/h | 35862m | 3.6m/s | -30.9°C | 0% | 5.1hPa | 2.7V | 02:56:41 | 02:21:16 | 00:00:00 | |
| DL1XH-west | 2026-08-30 06:51:13 | 49.83671 | 8.43775 | 288° | 22km/h | 35857m | 2.9m/s | -30.8°C | 0% | 5.2hPa | 2.6V | 02:56:41 | 02:21:14 | 00:00:00 | |
| DM0DOS-11 | 2026-08-30 06:51:12 | 49.83701 | 8.43755 | 129° | 37km/h | 35823m | 3.3m/s | -30.9°C | 1.4% | 5.2hPa | 2.6V | 02:56:39 | 02:21:08 | 00:00:00 | |
| DB0NH | 2026-08-30 06:51:12 | 49.83670 | 8.43781 | 246° | 27km/h | 35853m | 4.7m/s | -30.9°C | 1.4% | 5.1hPa | 2.7V | 00:00:00 | 02:21:13 | 00:00:00 | |
| DL3AQ-11 | 2026-08-30 06:51:11 | 49.83679 | 8.43781 | 157° | 27km/h | 35841m | 7.5m/s | -30.9°C | 0.3% | 5.2hPa | 2.7V | 00:00:00 | 00:00:00 | 00:00:00 | |
| DL1XH-15 | 2026-08-30 06:51:10 | 49.83707 | 8.43737 | 92° | 15km/h | 35816m | 4m/s | -31.1°C | 1.4% | 5.2hPa | 2.7V | 02:56:41 | 02:21:06 | 00:00:00 | |
| HSKMA3-T | 2026-08-30 06:51:09 | 49.83686 | 8.43775 | 147° | 38km/h | 35833m | 6.9m/s | -31°C | 0% | 5.2hPa | 2.7V | 02:56:41 | 02:21:10 | 00:00:00 | |
| DF8AY | 2026-08-30 06:51:06 | 49.83705 | 8.43745 | 118° | 26km/h | 35820m | 2.9m/s | -31°C | 0% | 5.2hPa | 2.7V | 02:58:23 | 02:21:07 | 00:00:00 | |
| BIOWL1-15 | 2026-08-30 06:51:04 | 49.83705 | 8.43734 | 21° | 11km/h | 35812m | 5.5m/s | -31.2°C | 0% | 5.2hPa | 2.7V | 02:57:32 | 02:21:05 | 00:00:00 | |
| DL1XH-west | 2026-08-30 06:51:02 | 49.83697 | 8.43740 | 319° | 31km/h | 35799m | 6.9m/s | -31.1°C | 0% | 5.2hPa | 2.6V | 02:57:32 | 02:21:03 | 00:00:00 | |
| DJ2KF-10 | 2026-08-30 06:51:02 | 49.83697 | 8.43740 | 320° | 27km/h | 35799m | 6.8m/s | -31.1°C | 1.4% | 5.2hPa | 2.7V | 00:00:00 | 02:21:03 | 00:00:00 | |
| DL1XH-15 | 2026-08-30 06:51:00 | 49.83692 | 8.43811 | 182° | 24km/h | 35762m | 5.8m/s | -30.9°C | 1.5% | 5.2hPa | 2.7V | 02:56:51 | 02:20:56 | 00:00:00 | |
| HSKMA3-T | 2026-08-30 06:50:58 | 49.83681 | 8.43791 | 267° | 31km/h | 35778m | 4.4m/s | -31.1°C | 0% | 5.2hPa | 2.6V | 02:57:32 | 02:20:59 | 00:00:00 | |
| DF8AY | 2026-08-30 06:50:54 | 49.83698 | 8.43809 | 157° | 26km/h | 35757m | 5.3m/s | -31°C | 0% | 5.2hPa | 2.7V | 02:58:23 | 02:20:55 | 00:00:00 | |
| BIOWL1-15 | 2026-08-30 06:50:53 | 49.83703 | 8.43804 | 135° | 24km/h | 35752m | 4.5m/s | -31°C | 0% | 5.2hPa | 2.7V | 02:57:32 | 02:20:54 | 00:00:00 | |
| DL1XH-west | 2026-08-30 06:50:52 | 49.83706 | 8.43797 | 110° | 20km/h | 35748m | 4.3m/s | -31°C | 0% | 5.2hPa | 2.7V | 02:57:32 | 02:20:53 | 00:00:00 | |
| EDDB2-12 | 2026-08-30 06:50:51 | 49.83706 | 8.43791 | 76° | 15km/h | 35743m | 5.0m/s | -31.0°C | 0.3% | 5.2hPa | 2.7V | 00:00:00 | 00:00:00 | 00:00:00 | |
| DL1XH-15 | 2026-08-30 06:50:50 | 49.83682 | 8.43814 | 270° | 29km/h | 35714m | 4.5m/s | -31.1°C | 1.5% | 5.2hPa | 2.7V | 02:57:01 | 02:20:46 | 00:00:00 | |
| HSKMA3-T | 2026-08-30 06:50:48 | 49.83694 | 8.43787 | 334° | 27km/h | 35727m | 4.9m/s | -31.2°C | 0% | 5.2hPa | 2.7V | 02:57:32 | 02:20:49 | 00:00:00 | |
| AA1-15 | 2026-08-30 06:50:47 | 49.83688 | 8.43793 | 314° | 31km/h | 35723m | 4m/s | -31.2°C | 0% | 5.2hPa | 2.7V | 02:57:32 | 02:20:48 | 00:00:00 | |
| EDDB2-11 | 2026-08-30 06:50:45 | 49.83684 | 8.43825 | 244° | 29km/h | 35709m | 5.7m/s | -31.0°C | 0.3% | 5.3hPa | 2.6V | 00:00:00 | 00:00:00 | 00:00:00 | |
| BIOWL1-15 | 2026-08-30 06:50:44 | 49.83695 | 8.43840 | 198° | 35km/h | 35697m | 5.7m/s | -31°C | 0% | 5.3hPa | 2.6V | 02:57:32 | 02:20:43 | 00:00:00 | |
| DL3AQ-11 | 2026-08-30 06:50:44 | 49.83688 | 8.43834 | 219° | 31km/h | 35704m | 6.3m/s | -31.0°C | 0.3% | 5.3hPa | 2.6V | 00:00:00 | 00:00:00 | 00:00:00 | |
| DL1XH1-15 | 2026-08-30 06:50:43 | 49.83722 | 8.43829 | 117° | 18km/h | 35681m | 4.6m/s | -31.2°C | 1.5% | 5.3hPa | 2.6V | 02:57:08 | 02:20:39 | 00:00:00 | |
| DL1XH-west | 2026-08-30 06:50:41 | 49.83704 | 8.43842 | 179° | 35km/h | 35692m | 4.4m/s | -31°C | 0% | 5.3hPa | 2.7V | 02:57:32 | 02:20:42 | 00:00:00 | |
| BIOWL9-15 | 2026-08-30 06:50:41 | 49.83704 | 8.43842 | 179° | 35km/h | 35693m | 4.4m/s | -31.0°C | 0.3% | 5.3hPa | 2.7V | 00:00:00 | 00:00:00 | 00:00:00 | |
| DL1XH-15 | 2026-08-30 06:50:40 | 49.83714 | 8.43817 | 3° | 27km/h | 35662m | 6.1m/s | -31.2°C | 1.5% | 5.3hPa | 2.7V | 02:57:11 | 02:20:36 | 00:00:00 | |
| HSKMA3-T | 2026-08-30 06:50:37 | 49.83723 | 8.43824 | 72° | 15km/h | 35675m | 6.5m/s | -31.2°C | 0% | 5.3hPa | 2.6V | 02:57:32 | 02:20:38 | 00:00:00 | |
| AA1-15 | 2026-08-30 06:50:36 | 49.83720 | 8.43819 | 28° | 20km/h | 35668m | 7.2m/s | -31.2°C | 0% | 5.3hPa | 2.7V | 02:57:32 | 02:20:37 | 00:00:00 | |
| BIOWL1-15 | 2026-08-30 06:50:34 | 49.83697 | 8.43827 | 296° | 18km/h | 35652m | 2.2m/s | -31.3°C | 0% | 5.3hPa | 2.6V | 02:57:32 | 02:20:33 | 00:00:00 | |
| DL1XH1-15 | 2026-08-30 06:50:33 | 49.83720 | 8.43847 | 183° | 53km/h | 35627m | 7.5m/s | -31.1°C | 1.5% | 5.3hPa | 2.6V | 02:57:18 | 02:20:29 | 00:00:00 | |
| DL1XH-west | 2026-08-30 06:50:31 | 49.83697 | 8.43834 | 246° | 18km/h | 35648m | 4.5m/s | -31.2°C | 0% | 5.3hPa | 2.7V | 02:57:32 | 02:20:32 | 00:00:00 | |
| DL3AQ-11 | 2026-08-30 06:50:31 | 49.83701 | 8.43839 | 211° | 26km/h | 35643m | 7.2m/s | -31.2°C | 0.3% | 5.3hPa | 2.6V | 00:00:00 | 00:00:00 | 00:00:00 | |
| DL1XH-15 | 2026-08-30 06:50:29 | 49.83768 | 8.43836 | 156° | 27km/h | 35612m | 4.2m/s | -30.9°C | 1.4% | 5.3hPa | 2.6V | 02:57:22 | 02:20:25 | 00:00:00 | |
| IW2NTF | 2026-08-30 06:50:28 | 49.83773 | 8.43832 | 134° | 13km/h | 35607m | 6.7m/s | -31.1°C | 1.4% | 5.3hPa | 2.6V | 02:57:23 | 02:20:24 | 00:00:00 | |
| HSKMA3-T | 2026-08-30 06:50:27 | 49.83735 | 8.43846 | 176° | 58km/h | 35620m | 4.6m/s | -31°C | 0% | 5.3hPa | 2.7V | 02:57:32 | 02:20:28 | 00:00:00 | |
| AA1-15 | 2026-08-30 06:50:26 | 49.83749 | 8.43844 | 170° | 53km/h | 35617m | 2m/s | -31°C | 0% | 5.3hPa | 2.7V | 02:57:32 | 02:20:27 | 00:00:00 | |
| DO3MHA-11 | 2026-08-30 06:50:26 | 49.83749 | 8.43844 | 171° | 24km/h | 35618m | 2.0m/s | -31.0°C | 1.4% | 5.3hPa | 2.7V | 02:57:00 | 02:20:27 | 00:00:00 | |
| HTAHTA | 2026-08-30 06:50:25 | 49.83760 | 8.43840 | 164° | 40km/h | 35616m | 1.9m/s | -30.9°C | 0.3% | 5.3hPa | 2.6V | 00:00:00 | 00:00:00 | 00:00:00 | |
| DK5PH-5 | 2026-08-30 06:50:24 | 49.83769 | 8.43835 | 157° | 29km/h | 35613m | 4.1m/s | -30.9°C | 1.4% | 5.3hPa | 2.6V | 02:57:00 | 02:20:25 | 00:00:00 | |
| DL1XH1-15 | 2026-08-30 06:50:23 | 49.83751 | 8.43831 | 339° | 13km/h | 35582m | 1.3m/s | -31.1°C | 1.5% | 5.3hPa | 2.6V | 02:57:28 | 02:20:19 | 00:00:00 | |
| BIOWL1-15 | 2026-08-30 06:50:23 | 49.83769 | 8.43828 | 3° | 24km/h | 35592m | 7.2m/s | -31.3°C | 0% | 5.4hPa | 2.7V | 02:57:32 | 02:20:22 | 00:00:00 | |
| DM0DOS-11 | 2026-08-30 06:50:22 | 49.83750 | 8.43832 | 217° | 5km/h | 35580m | 3.3m/s | -31.1°C | 1.5% | 5.3hPa | 2.6V | 02:57:29 | 02:20:18 | 00:00:00 | |
| DL1XH-west | 2026-08-30 06:50:20 | 49.83762 | 8.43828 | 356° | 29km/h | 35586m | 4.2m/s | -31.3°C | 0% | 5.4hPa | 2.7V | 02:57:32 | 02:20:21 | 00:00:00 | |
| BIOWL1-15 | 2026-08-30 06:50:19 | 49.83821 | 8.43826 | 172° | 57km/h | 35546m | 1.7m/s | -31°C | 0% | 5.4hPa | 2.6V | 02:58:23 | 02:20:12 | 00:00:00 | |
| DO1YAY-16 | 2026-08-30 06:50:18 | 49.83751 | 8.43831 | 339° | 11km/h | 35582m | 1.3m/s | -31.1°C | 0.3% | 5.4hPa | 2.6V | 00:00:00 | 00:00:00 | 00:00:00 | |
| DL1XH-15 | 2026-08-30 06:50:17 | 49.83806 | 8.43829 | 174° | 68km/h | 35548m | 2.8m/s | -31.1°C | 1.4% | 5.4hPa | 2.6V | 02:57:34 | 02:20:13 | 00:00:00 | |
| DF8AY | 2026-08-30 06:50:17 | 49.83750 | 8.43832 | 217° | 5km/h | 35580m | 3.3m/s | -31.1°C | 0% | 5.4hPa | 2.6V | 02:58:23 | 02:20:18 | 00:00:00 | |
| HSKMA3-T | 2026-08-30 06:50:16 | 49.83753 | 8.43833 | 185° | 22km/h | 35575m | 6.3m/s | -31.2°C | 0% | 5.4hPa | 2.7V | 02:57:32 | 02:20:17 | 00:00:00 | |
| AA1-15 | 2026-08-30 06:50:15 | 49.83761 | 8.43834 | 180° | 40km/h | 35567m | 8.4m/s | -31.2°C | 0% | 5.4hPa | 2.7V | 02:57:32 | 02:20:16 | 00:00:00 | |
| DL4BBY-15 | 2026-08-30 06:50:15 | 49.83761 | 8.43834 | 180° | 33km/h | 35568m | 8.3m/s | -32.3°C | 0% | 0hPa | 2.7V | 00:00:00 | 00:00:00 | 00:00:00 | |
| DL9PN | 2026-08-30 06:50:14 | 49.83834 | 8.43823 | 168° | 40km/h | 35544m | 2.7m/s | -31.1°C | 0.3% | 5.4hPa | 2.7V | 00:00:00 | 00:00:00 | 00:00:00 | |
| DL1XH1-15 | 2026-08-30 06:50:13 | 49.83846 | 8.43816 | 133° | 11km/h | 35534m | 7.3m/s | -31.2°C | 1.4% | 5.4hPa | 2.7V | 02:57:38 | 02:20:09 | 00:00:00 | |
| DM0DOS-11 | 2026-08-30 06:50:12 | 49.83846 | 8.43813 | 50° | 13km/h | 35526m | 8.1m/s | -31.2°C | 1.4% | 5.4hPa | 2.7V | 02:57:39 | 02:20:08 | 00:00:00 | |
| DL1XH-west | 2026-08-30 06:50:10 | 49.83834 | 8.43823 | 169° | 42km/h | 35544m | 2.7m/s | -31.1°C | 0% | 5.4hPa | 2.6V | 02:58:23 | 02:20:11 | 00:00:00 | |
| HSKMA3-T | 2026-08-30 06:50:06 | 49.83843 | 8.43809 | 30° | 22km/h | 35519m | 6.9m/s | -31.1°C | 0% | 5.4hPa | 2.7V | 02:58:23 | 02:20:07 | 00:00:00 | |
| AA1-15 | 2026-08-30 06:50:04 | 49.83832 | 8.43800 | 38° | 22km/h | 35509m | 3.1m/s | -31°C | 0% | 5.4hPa | 2.6V | 02:58:23 | 02:20:05 | 00:00:00 | |
| BIOWL1-15 | 2026-08-30 06:50:02 | 49.83842 | 8.43782 | 169° | 38km/h | 35491m | 6.9m/s | -31.4°C | 0% | 5.5hPa | 2.7V | 02:58:23 | 02:20:01 | 00:00:00 | |
| DF8AY | 2026-08-30 06:49:59 | 49.83905 | 8.43781 | 179° | 15km/h | 35462m | 5.3m/s | -31.4°C | 0% | 5.5hPa | 2.6V | 02:58:23 | 02:19:55 | 00:00:00 | |
| DL1XH-west | 2026-08-30 06:49:59 | 49.83853 | 8.43780 | 175° | 49km/h | 35484m | 6.4m/s | -31.4°C | 0% | 5.5hPa | 2.6V | 02:58:23 | 02:20:00 | 00:00:00 | |
| HSKMA3-T | 2026-08-30 06:49:55 | 49.83899 | 8.43781 | 184° | 27km/h | 35467m | 4m/s | -31.4°C | 0% | 5.5hPa | 2.7V | 02:58:23 | 02:19:56 | 00:00:00 | |
| BIOWL1-15 | 2026-08-30 06:49:54 | 49.83900 | 8.43765 | 62° | 24km/h | 35440m | 4.1m/s | -31.5°C | 0% | 5.5hPa | 2.7V | 02:58:23 | 02:19:51 | 00:00:00 | |
| DK5PH-5 | 2026-08-30 06:49:54 | 49.83905 | 8.43781 | 179° | 27km/h | 35462m | 5.2m/s | -31.3°C | 1.5% | 5.4hPa | 2.7V | 00:00:00 | 02:19:55 | 00:00:00 | |
| DL1XH1-15 | 2026-08-30 06:49:53 | 49.83899 | 8.43747 | 106° | 27km/h | 35431m | 4.8m/s | -31.6°C | 1.5% | 5.5hPa | 2.7V | 02:57:58 | 02:19:49 | 00:00:00 | |
| AA1-15 | 2026-08-30 06:49:53 | 49.83907 | 8.43780 | 110° | 5km/h | 35456m | 6.1m/s | -31.4°C | 0% | 5.5hPa | 2.6V | 02:58:23 | 02:19:54 | 00:00:00 | |
| DL1XH-west | 2026-08-30 06:49:49 | 49.83898 | 8.43756 | 82° | 24km/h | 35436m | 4.2m/s | -31.6°C | 0% | 5.5hPa | 2.7V | 02:58:23 | 02:19:50 | 00:00:00 | |
| IW2NTF | 2026-08-30 06:49:48 | 49.83939 | 8.43710 | 170° | 40km/h | 35406m | 3.2m/s | -31.6°C | 1.5% | 5.5hPa | 2.7V | 02:58:03 | 02:19:44 | 00:00:00 | |
| D01LWL | 2026-08-30 06:49:48 | 49.83902 | 8.43737 | 128° | 31km/h | 35427m | 5.6m/s | -31.7°C | 0.3% | 5.5hPa | 2.7V | 00:00:00 | 00:00:00 | 00:00:00 | |
| DL1XH-15 | 2026-08-30 06:49:47 | 49.83949 | 8.43708 | 174° | 31km/h | 35403m | 3.7m/s | -31.6°C | 1.5% | 5.5hPa | 2.7V | 02:58:04 | 02:19:43 | 00:00:00 | |
| HSKMA3-T | 2026-08-30 06:49:44 | 49.83929 | 8.43713 | 164° | 46km/h | 35410m | 4.1m/s | -31.7°C | 0% | 5.5hPa | 2.7V | 02:58:23 | 02:19:45 | 00:00:00 | |
| DL1XH1-15 | 2026-08-30 06:49:43 | 49.83957 | 8.43702 | 40° | 16km/h | 35382m | 5m/s | -31.8°C | 1.5% | 5.5hPa | 2.6V | 02:58:08 | 02:19:39 | 00:00:00 | |
| EDDB2-11 | 2026-08-30 06:49:43 | 49.83948 | 8.43708 | 174° | 31km/h | 35403m | 3.7m/s | -31.6°C | 0.3% | 5.5hPa | 2.7V | 00:00:00 | 00:00:00 | 00:00:00 | |
| DM0DOS-11 | 2026-08-30 06:49:42 | 49.83953 | 8.43696 | 50° | 24km/h | 35378m | 3.7m/s | -31.9°C | 1.5% | 5.5hPa | 2.7V | 02:58:09 | 02:19:38 | 00:00:00 | |
| AA1-15 | 2026-08-30 06:49:42 | 49.83948 | 8.43708 | 174° | 33km/h | 35403m | 3.7m/s | -31.6°C | 0% | 5.5hPa | 2.7V | 02:58:23 | 02:19:43 | 00:00:00 | |
| DF8AY | 2026-08-30 06:49:41 | 49.83955 | 8.43707 | 176° | 20km/h | 35399m | 5.1m/s | -31.6°C | 0% | 5.5hPa | 2.7V | 02:58:23 | 02:19:42 | 00:00:00 | |
| BIOWL1-15 | 2026-08-30 06:49:39 | 49.83959 | 8.43705 | 50° | 7km/h | 35387m | 5.9m/s | -31.8°C | 0% | 5.5hPa | 2.6V | 02:58:23 | 02:19:40 | 00:00:00 | |
| DL1XH-west | 2026-08-30 06:49:38 | 49.83957 | 8.43702 | 40° | 16km/h | 35382m | 5m/s | -31.8°C | 0% | 5.5hPa | 2.6V | 02:58:23 | 02:19:39 | 00:00:00 | |
| HSKMA3-T | 2026-08-30 06:49:34 | 49.83950 | 8.43666 | 110° | 33km/h | 35365m | 5.5m/s | -31.9°C | 0% | 5.5hPa | 2.6V | 02:58:23 | 02:19:35 | 00:00:00 | |
| DF3TZ-5 | 2026-08-30 06:49:34 | 49.83972 | 8.43635 | 157° | 44km/h | 35348m | 4.4m/s | -31.9°C | 0.3% | 5.5hPa | 2.6V | 00:00:00 | 00:00:00 | 00:00:00 | |
| DL1XH1-15 | 2026-08-30 06:49:33 | 49.83998 | 8.43630 | 197° | 22km/h | 35338m | 4.3m/s | -31.7°C | 1.5% | 5.6hPa | 2.6V | 02:58:18 | 02:19:29 | 00:00:00 | |
| DM0DOS-11 | 2026-08-30 06:49:32 | 49.84002 | 8.43634 | 232° | 13km/h | 35333m | 6.2m/s | -31.8°C | 1.5% | 5.6hPa | 2.6V | 02:58:19 | 02:19:28 | 00:00:00 | |
| AA1-15 | 2026-08-30 06:49:31 | 49.83972 | 8.43635 | 157° | 46km/h | 35348m | 4.4m/s | -31.9°C | 0% | 5.5hPa | 2.7V | 02:58:23 | 02:19:32 | 00:00:00 | |
| BIOWL1-15 | 2026-08-30 06:49:29 | 49.83991 | 8.43629 | 181° | 33km/h | 35342m | 2.9m/s | -31.7°C | 0% | 5.5hPa | 2.6V | 02:58:23 | 02:19:30 | 00:00:00 | |
| DL1XH-west | 2026-08-30 06:49:28 | 49.83998 | 8.43630 | 197° | 22km/h | 35338m | 4.3m/s | -31.7°C | 0% | 5.6hPa | 2.6V | 02:58:23 | 02:19:29 | 00:00:00 | |
| HSKMA3-T | 2026-08-30 06:49:24 | 49.83993 | 8.43644 | 359° | 27km/h | 35315m | 3.9m/s | -31.9°C | 0% | 5.6hPa | 2.7V | 02:58:23 | 02:19:25 | 00:00:00 | |
| AA1-15 | 2026-08-30 06:49:20 | 49.83980 | 8.43617 | 111° | 33km/h | 35301m | 6.6m/s | -32°C | 0% | 5.6hPa | 2.6V | 02:59:14 | 02:19:21 | 00:00:00 | |
| BIOWL1-15 | 2026-08-30 06:49:20 | 49.83993 | 8.43593 | 146° | 51km/h | 35287m | 6.2m/s | -32.1°C | 0% | 5.6hPa | 2.7V | 02:59:14 | 02:19:19 | 00:00:00 | |
| DL1XH-west | 2026-08-30 06:49:17 | 49.84005 | 8.43584 | 157° | 53km/h | 35282m | 3.3m/s | -32.1°C | 0% | 5.6hPa | 2.7V | 02:59:14 | 02:19:18 | 00:00:00 | |
| KANTATE | 2026-08-30 06:49:17 | 49.84005 | 8.43584 | 158° | 53km/h | 35283m | 3.3m/s | -32.1°C | 0.3% | 5.6hPa | 2.6V | 00:00:00 | 00:00:00 | 00:00:00 | |
| DO3MHA-11 | 2026-08-30 06:49:16 | 49.84017 | 8.43578 | 169° | 29km/h | 35281m | 1.4m/s | -31.9°C | 1.5% | 5.5hPa | 2.6V | 00:00:00 | 02:19:17 | 00:00:00 | |
| DL4BBY-15 | 2026-08-30 06:49:15 | 49.84027 | 8.43576 | 181° | 33km/h | 35278m | 2.1m/s | -33.0°C | 0% | 0hPa | 2.6V | 00:00:00 | 00:00:00 | 00:00:00 | |
| DL1XH-15 | 2026-08-30 06:49:14 | 49.84013 | 8.43599 | 6° | 31km/h | 35248m | 1.2m/s | -32°C | 1.5% | 5.6hPa | 2.6V | 02:58:37 | 02:19:10 | 00:00:00 | |
| DF8AY | 2026-08-30 06:49:14 | 49.84033 | 8.43578 | 202° | 22km/h | 35275m | 4.7m/s | -31.9°C | 0% | 5.6hPa | 2.7V | 02:59:14 | 02:19:15 | 00:00:00 | |
| HSKMA3-T | 2026-08-30 06:49:13 | 49.84036 | 8.43582 | 256° | 15km/h | 35269m | 7m/s | -32°C | 0% | 5.6hPa | 2.7V | 02:59:14 | 02:19:14 | 00:00:00 | |
| AA1-15 | 2026-08-30 06:49:10 | 49.84021 | 8.43598 | 349° | 37km/h | 35250m | 3.2m/s | -32°C | 0% | 5.6hPa | 2.6V | 02:59:14 | 02:19:11 | 00:00:00 | |
| DL1XH1-15 | 2026-08-30 06:49:10 | 49.84010 | 8.43569 | 136° | 44km/h | 35231m | 7.7m/s | -32.1°C | 1.4% | 5.6hPa | 2.7V | 02:58:41 | 02:19:06 | 00:00:00 | |
| BIOWL1-15 | 2026-08-30 06:49:10 | 49.84006 | 8.43596 | 34° | 24km/h | 35247m | 1.9m/s | -32°C | 0% | 5.6hPa | 2.7V | 02:59:14 | 02:19:09 | 00:00:00 | |
| DL1XH-west | 2026-08-30 06:49:07 | 49.84003 | 8.43589 | 77° | 22km/h | 35244m | 4.5m/s | -32°C | 0% | 5.6hPa | 2.7V | 02:59:14 | 02:19:08 | 00:00:00 | |
| BIOWL1-15 | 2026-08-30 06:49:04 | 49.84066 | 8.43541 | 327° | 16km/h | 35200m | 7.3m/s | -32.7°C | 0% | 5.7hPa | 2.6V | 02:59:14 | 02:18:59 | 00:00:00 | |
| HSKMA3-T | 2026-08-30 06:49:02 | 49.84045 | 8.43540 | 165° | 51km/h | 35216m | 1.8m/s | -32.3°C | 0% | 5.6hPa | 2.6V | 02:59:14 | 02:19:03 | 00:00:00 | |
| DF8AY | 2026-08-30 06:49:01 | 49.84056 | 8.43537 | 173° | 38km/h | 35214m | 2m/s | -32.2°C | 0% | 5.7hPa | 2.7V | 02:59:14 | 02:19:02 | 00:00:00 | |
| DF7PN | 2026-08-30 06:49:01 | 49.84064 | 8.43536 | 185° | 22km/h | 35212m | 3.7m/s | -32.3°C | 0.3% | 5.7hPa | 2.7V | 00:00:00 | 00:00:00 | 00:00:00 | |
| DL1XH1-15 | 2026-08-30 06:49:00 | 49.84042 | 8.43544 | 12° | 38km/h | 35184m | 2.4m/s | -32.9°C | 1.5% | 5.7hPa | 2.7V | 02:58:51 | 02:18:56 | 00:00:00 | |
| AA1-15 | 2026-08-30 06:48:59 | 49.84067 | 8.43538 | 235° | 7km/h | 35207m | 5.9m/s | -32.5°C | 0% | 5.7hPa | 2.7V | 02:59:14 | 02:19:00 | 00:00:00 | |
| DL1XH-west | 2026-08-30 06:48:56 | 49.84052 | 8.43545 | 359° | 38km/h | 35187m | 4.5m/s | -32.8°C | 0% | 5.7hPa | 2.7V | 02:59:14 | 02:18:57 | 00:00:00 | |
| HSKMA3-T | 2026-08-30 06:48:51 | 49.84032 | 8.43509 | 127° | 37km/h | 35168m | 7.1m/s | -33.5°C | 0% | 5.7hPa | 2.6V | 02:59:14 | 02:18:52 | 00:00:00 | |
| DL1XH1-15 | 2026-08-30 06:48:50 | 49.84086 | 8.43473 | 180° | 7km/h | 35144m | 4.7m/s | -33.9°C | 1.6% | 5.7hPa | 2.6V | 02:59:01 | 02:18:46 | 00:00:00 | |
| AA1-15 | 2026-08-30 06:48:48 | 49.84063 | 8.43480 | 162° | 51km/h | 35153m | 2.4m/s | -33.8°C | 0% | 5.7hPa | 2.7V | 02:59:14 | 02:18:49 | 00:00:00 | |
| DF8AY | 2026-08-30 06:48:47 | 49.84082 | 8.43474 | 174° | 24km/h | 35148m | 2.8m/s | -33.9°C | 0% | 5.7hPa | 2.6V | 02:59:14 | 02:18:47 | 00:00:00 | |
| BIOWL1-15 | 2026-08-30 06:48:47 | 49.84074 | 8.43476 | 168° | 40km/h | 35150m | 1.8m/s | -34°C | 0% | 5.7hPa | 2.7V | 02:59:14 | 02:18:48 | 00:00:00 | |
| DL1XH-west | 2026-08-30 06:48:45 | 49.84086 | 8.43473 | 181° | 7km/h | 35144m | 4.7m/s | -33.9°C | 0% | 5.7hPa | 2.6V | 02:59:14 | 02:18:46 | 00:00:00 | |
| DL4BBY-15 | 2026-08-30 06:48:45 | 49.84086 | 8.43473 | 181° | 29km/h | 35144m | 4.7m/s | -35.0°C | 0% | 0hPa | 2.7V | 00:00:00 | 00:00:00 | 00:00:00 | |
| DL3AQ-11 | 2026-08-30 06:48:44 | 49.84081 | 8.43472 | 10° | 27km/h | 35132m | 7.1m/s | -33.9°C | 0.3% | 5.7hPa | 2.7V | 00:00:00 | 00:00:00 | 00:00:00 | |
| DM0DOS-11 | 2026-08-30 06:48:42 | 49.84041 | 8.43406 | 101° | 40km/h | 35105m | 5.9m/s | -34.5°C | 1.6% | 5.7hPa | 2.7V | 02:59:09 | 02:18:38 | 00:00:00 | |
| HSKMA3-T | 2026-08-30 06:48:41 | 49.84062 | 8.43461 | 29° | 49km/h | 35120m | 3.9m/s | -34.1°C | 0% | 5.7hPa | 2.7V | 02:59:14 | 02:18:42 | 00:00:00 | |
| DL1XH1-15 | 2026-08-30 06:48:40 | 49.84051 | 8.43379 | 138° | 44km/h | 35093m | 6.1m/s | -34.7°C | 1.7% | 5.8hPa | 2.6V | 02:59:11 | 02:18:36 | 00:00:00 | |
| AA1-15 | 2026-08-30 06:48:38 | 49.84041 | 8.43421 | 79° | 42km/h | 35111m | 4.5m/s | -34.4°C | 0% | 5.8hPa | 2.7V | 02:59:14 | 02:18:39 | 00:00:00 | |
| BIOWL1-15 | 2026-08-30 06:48:36 | 49.84044 | 8.43391 | 122° | 42km/h | 35099m | 6.6m/s | -34.6°C | 0% | 5.8hPa | 2.7V | 02:59:14 | 02:18:37 | 00:00:00 | |
| DL1XH-west | 2026-08-30 06:48:34 | 49.84060 | 8.43369 | 151° | 42km/h | 35087m | 4.7m/s | -34.8°C | 0% | 5.8hPa | 2.6V | 02:59:14 | 02:18:35 | 00:00:00 | |
| DM0DOS-11 | 2026-08-30 06:48:32 | 49.84063 | 8.43331 | 35° | 42km/h | 35053m | 5.8m/s | -35.6°C | 1.7% | 5.8hPa | 2.7V | 02:59:19 | 02:18:28 | 00:00:00 | |
| DF8AY | 2026-08-30 06:48:32 | 49.84075 | 8.43358 | 157° | 24km/h | 35080m | 3.1m/s | -35.1°C | 0% | 5.8hPa | 2.7V | 02:59:14 | 02:18:33 | 00:00:00 | |
| HSKMA3-T | 2026-08-30 06:48:31 | 49.84079 | 8.43355 | 136° | 11km/h | 35076m | 4m/s | -35.3°C | 0% | 5.8hPa | 2.7V | 03:00:05 | 02:18:32 | 00:00:00 | |
| DL8DAS-14 | 2026-08-30 06:48:31 | 49.84080 | 8.43351 | 60° | 11km/h | 35072m | 5.3m/s | -35.4°C | 0.4% | 5.8hPa | 2.7V | 00:00:00 | 00:00:00 | 00:00:00 | |
| DL1XH1-15 | 2026-08-30 06:48:30 | 49.84045 | 8.43310 | 42° | 40km/h | 35044m | 3.7m/s | -35.7°C | 1.7% | 5.8hPa | 2.7V | 02:59:21 | 02:18:26 | 00:00:00 | |
| AA1-15 | 2026-08-30 06:48:27 | 49.84063 | 8.43331 | 35° | 42km/h | 35053m | 5.8m/s | -35.6°C | 0% | 5.8hPa | 2.7V | 03:00:05 | 02:18:28 | 00:00:00 | |
| DF1GD-15 | 2026-08-30 06:48:26 | 49.84062 | 8.43331 | 36° | 42km/h | 35054m | 5.8m/s | -35.6°C | 0.4% | 5.8hPa | 2.7V | 03:00:00 | 00:00:00 | 00:00:00 | |
| BIOWL1-15 | 2026-08-30 06:48:26 | 49.84054 | 8.43321 | 38° | 44km/h | 35048m | 4.4m/s | -35.7°C | 0% | 5.8hPa | 2.7V | 03:00:05 | 02:18:27 | 00:00:00 | |
| DL1XH-15 | 2026-08-30 06:48:25 | 49.84038 | 8.43279 | 169° | 16km/h | 35019m | 5.4m/s | -35.7°C | 1.8% | 5.8hPa | 2.7V | 02:59:26 | 02:18:21 | 00:00:00 | |
| IW2NTF | 2026-08-30 06:48:24 | 49.84042 | 8.43278 | 177° | 18km/h | 35015m | 4m/s | -35.7°C | 1.8% | 5.8hPa | 2.7V | 02:59:27 | 02:18:20 | 00:00:00 | |
| DL1XH-west | 2026-08-30 06:48:23 | 49.84035 | 8.43292 | 61° | 22km/h | 35036m | 4.7m/s | -35.7°C | 0% | 5.8hPa | 2.6V | 03:00:05 | 02:18:24 | 00:00:00 | |
| DF8AY | 2026-08-30 06:48:22 | 49.84034 | 8.43285 | 88° | 15km/h | 35031m | 5.6m/s | -35.8°C | 0% | 5.8hPa | 2.6V | 03:00:05 | 02:18:23 | 00:00:00 | |
| HSKMA3-T | 2026-08-30 06:48:20 | 49.84038 | 8.43279 | 170° | 16km/h | 35019m | 5.4m/s | -35.7°C | 0% | 5.8hPa | 2.7V | 03:00:05 | 02:18:21 | 00:00:00 | |
| BIOWL1-15 | 2026-08-30 06:48:17 | 49.84051 | 8.43265 | 73° | 22km/h | 34998m | 5.9m/s | -35.9°C | 0% | 5.8hPa | 2.6V | 03:00:05 | 02:18:16 | 00:00:00 | |
| AA1-15 | 2026-08-30 06:48:16 | 49.84052 | 8.43272 | 102° | 15km/h | 35004m | 4.6m/s | -35.8°C | 0% | 5.8hPa | 2.6V | 03:00:05 | 02:18:17 | 00:00:00 | |
| DD1CC8 | 2026-08-30 06:48:15 | 49.84043 | 8.43245 | 48° | 38km/h | 34987m | 5.2m/s | -36.0°C | 0.4% | 5.8hPa | 2.7V | 00:00:00 | 00:00:00 | 00:00:00 | |
| IW2NTF | 2026-08-30 06:48:14 | 49.84016 | 8.43216 | 6° | 18km/h | 34971m | 5.3m/s | -36.1°C | 1.8% | 5.9hPa | 2.7V | 02:59:37 | 02:18:10 | 00:00:00 | |
| DL1XH-west | 2026-08-30 06:48:13 | 49.84043 | 8.43245 | 49° | 38km/h | 34987m | 5.2m/s | -36°C | 0% | 5.8hPa | 2.7V | 03:00:05 | 02:18:14 | 00:00:00 | |
| DF8AY | 2026-08-30 06:48:12 | 49.84036 | 8.43234 | 41° | 40km/h | 34982m | 3.7m/s | -36°C | 0% | 5.8hPa | 2.7V | 03:00:05 | 02:18:13 | 00:00:00 | |
| DL1XH1-15 | 2026-08-30 06:48:10 | 49.84015 | 8.43232 | 224° | 18km/h | 34949m | 3.7m/s | -36.5°C | 1.9% | 5.9hPa | 2.6V | 02:59:41 | 02:18:06 | 00:00:00 | |
| HSKMA3-T | 2026-08-30 06:48:10 | 49.84022 | 8.43219 | 24° | 27km/h | 34975m | 3.9m/s | -36.1°C | 0% | 5.9hPa | 2.6V | 03:00:05 | 02:18:11 | 00:00:00 | |
| BIOWL1-15 | 2026-08-30 06:48:05 | 49.84015 | 8.43232 | 225° | 18km/h | 34949m | 3.7m/s | -36.5°C | 0% | 5.9hPa | 2.6V | 03:00:05 | 02:18:06 | 00:00:00 | |
| DO3DL | 2026-08-30 06:48:04 | 49.84015 | 8.43232 | 226° | 18km/h | 34949m | 3.7m/s | -36.5°C | 0.4% | 5.9hPa | 2.6V | 03:00:00 | 00:00:00 | 00:00:00 | |
| SONCRA | 2026-08-30 06:48:03 | 49.84021 | 8.43236 | 150° | 7km/h | 34942m | 4.5m/s | -36.7°C | 0.4% | 5.9hPa | 2.6V | 00:00:00 | 00:00:00 | 00:00:00 | |
| DM0DOS-11 | 2026-08-30 06:48:02 | 49.83993 | 8.43198 | 9° | 31km/h | 34914m | 4.1m/s | -37°C | 1.9% | 5.9hPa | 2.6V | 02:59:49 | 02:17:58 | 00:00:00 | |
| DL1XH-west | 2026-08-30 06:48:02 | 49.84021 | 8.43233 | 82° | 13km/h | 34936m | 5.6m/s | -36.8°C | 0% | 5.9hPa | 2.7V | 03:00:05 | 02:18:03 | 00:00:00 | |
| DF8AY | 2026-08-30 06:48:01 | 49.84020 | 8.43226 | 60° | 24km/h | 34931m | 5.7m/s | -36.8°C | 0% | 5.9hPa | 2.7V | 03:00:05 | 02:18:02 | 00:00:00 | |
| DF3TZ-5 | 2026-08-30 06:48:01 | 49.83985 | 8.43198 | 347° | 26km/h | 34909m | 5.2m/s | -36.9°C | 0.4% | 5.9hPa | 2.7V | 00:00:00 | 00:00:00 | 00:00:00 | |
| DL1XH1-15 | 2026-08-30 06:48:00 | 49.83979 | 8.43202 | 318° | 26km/h | 34903m | 6.2m/s | -36.8°C | 1.8% | 5.9hPa | 2.7V | 02:59:51 | 02:17:56 | 00:00:00 | |
| HSKMA3-T | 2026-08-30 06:47:59 | 49.84009 | 8.43209 | 36° | 37km/h | 34921m | 3.8m/s | -36.8°C | 0% | 5.9hPa | 2.6V | 03:00:05 | 02:18:00 | 00:00:00 | |
| DF7PN | 2026-08-30 06:47:59 | 49.84001 | 8.43202 | 24° | 35km/h | 34918m | 3.4m/s | -36.9°C | 0.4% | 5.9hPa | 2.6V | 00:00:00 | 00:00:00 | 00:00:00 | |
| NBG1-10 | 2026-08-30 06:47:57 | 49.83993 | 8.43198 | 10° | 27km/h | 34914m | 4.1m/s | -36.9°C | 1.9% | 5.9hPa | 2.6V | 02:59:00 | 02:17:58 | 00:00:00 | |
| DO3MHA-11 | 2026-08-30 06:47:56 | 49.83985 | 8.43198 | 348° | 22km/h | 34909m | 5.2m/s | -36.8°C | 1.9% | 5.9hPa | 2.7V | 02:59:00 | 02:17:57 | 00:00:00 | |
| DL1XH-15 | 2026-08-30 06:47:55 | 49.83978 | 8.43250 | 254° | 11km/h | 34881m | 2.5m/s | -36.7°C | 1.9% | 5.9hPa | 2.7V | 02:59:56 | 02:17:51 | 00:00:00 | |
| BIOWL1-15 | 2026-08-30 06:47:55 | 49.83976 | 8.43211 | 291° | 27km/h | 34897m | 6.5m/s | -36.8°C | 0% | 5.9hPa | 2.7V | 03:00:05 | 02:17:55 | 00:00:00 | |
| DK5PH-5 | 2026-08-30 06:47:54 | 49.83976 | 8.43211 | 292° | 27km/h | 34897m | 6.4m/s | -36.7°C | 1.8% | 5.9hPa | 2.6V | 00:00:00 | 02:17:55 | 00:00:00 | |
| DM0DOS-11 | 2026-08-30 06:47:52 | 49.83972 | 8.43242 | 44° | 33km/h | 34864m | 7.5m/s | -36.8°C | 1.9% | 5.9hPa | 2.6V | 02:59:59 | 02:17:48 | 00:00:00 | |
| DL1XH-west | 2026-08-30 06:47:51 | 49.83977 | 8.43244 | 253° | 24km/h | 34883m | 2.2m/s | -36.7°C | 0% | 6hPa | 2.7V | 03:00:05 | 02:17:52 | 00:00:00 | |
| DF8AY | 2026-08-30 06:47:50 | 49.83978 | 8.43250 | 254° | 11km/h | 34881m | 2.5m/s | -36.7°C | 0% | 5.9hPa | 2.7V | 03:00:05 | 02:17:51 | 00:00:00 | |
| HSKMA3-T | 2026-08-30 06:47:48 | 49.83976 | 8.43249 | 46° | 16km/h | 34871m | 7.2m/s | -36.8°C | 0% | 6hPa | 2.6V | 03:00:05 | 02:17:49 | 00:00:00 | |
| BIOWL1-15 | 2026-08-30 06:47:44 | 49.83945 | 8.43213 | 23° | 44km/h | 34850m | 2.1m/s | -36.9°C | 0% | 6hPa | 2.7V | 03:00:05 | 02:17:45 | 00:00:00 | |
| AA1-15 | 2026-08-30 06:47:43 | 49.83936 | 8.43209 | 8° | 35km/h | 34847m | 3.4m/s | -37°C | 0% | 6hPa | 2.7V | 03:00:05 | 02:17:44 | 00:00:00 | |
| DL1XH-west | 2026-08-30 06:47:40 | 49.83919 | 8.43226 | 282° | 33km/h | 34830m | 7m/s | -36.9°C | 0% | 6hPa | 2.7V | 03:00:56 | 02:17:41 | 00:00:00 | |
| HSKMA3-T | 2026-08-30 06:47:38 | 49.83920 | 8.43255 | 255° | 38km/h | 34819m | 4m/s | -36.9°C | 0% | 6hPa | 2.7V | 03:00:56 | 02:17:39 | 00:00:00 | |
| DF8AY | 2026-08-30 06:47:36 | 49.83925 | 8.43276 | 246° | 18km/h | 34812m | 3.6m/s | -36.8°C | 0% | 6hPa | 2.6V | 03:00:56 | 02:17:37 | 00:00:00 | |
| BIOWL1-15 | 2026-08-30 06:47:33 | 49.83922 | 8.43273 | 47° | 26km/h | 34796m | 6.5m/s | -36.7°C | 0% | 6hPa | 2.7V | 03:00:56 | 02:17:34 | 00:00:00 | |
| OE5DRO-10 | 2026-08-30 06:47:33 | 49.83922 | 8.43273 | 48° | 24km/h | 34797m | 6.5m/s | -36.7°C | 1.9% | 6.0hPa | 2.7V | 03:00:00 | 00:00:00 | 00:00:00 | |
| DM0DOS-11 | 2026-08-30 06:47:32 | 49.83881 | 8.43244 | 323° | 20km/h | 34767m | 5.7m/s | -37.2°C | 1.9% | 6.1hPa | 2.7V | 03:00:19 | 02:17:28 | 00:00:00 | |
| AA1-15 | 2026-08-30 06:47:32 | 49.83916 | 8.43265 | 43° | 37km/h | 34790m | 5.7m/s | -36.8°C | 0% | 6.1hPa | 2.7V | 03:00:56 | 02:17:33 | 00:00:00 | |
| DL1XH-west | 2026-08-30 06:47:30 | 49.83893 | 8.43242 | 15° | 31km/h | 34776m | 4.1m/s | -37°C | 0% | 6hPa | 2.6V | 03:00:56 | 02:17:30 | 00:00:00 | |
| HSKMA3-T | 2026-08-30 06:47:30 | 49.83886 | 8.43241 | 354° | 24km/h | 34772m | 4.8m/s | -37.1°C | 0% | 6.1hPa | 2.6V | 03:00:56 | 02:17:29 | 00:00:00 | |
| DF3TZ-5 | 2026-08-30 06:47:30 | 49.83893 | 8.43242 | 14° | 29km/h | 34777m | 4.1m/s | -37.0°C | 0.4% | 6.0hPa | 2.7V | 00:00:00 | 00:00:00 | 00:00:00 | |
| DL8DAS-14 | 2026-08-30 06:47:29 | 49.83893 | 8.43242 | 14° | 29km/h | 34777m | 4.1m/s | -37.0°C | 0.4% | 6.0hPa | 2.7V | 00:00:00 | 00:00:00 | 00:00:00 | |
| BUE01 | 2026-08-30 06:47:28 | 49.83881 | 8.43244 | 323° | 20km/h | 34767m | 5.7m/s | -37.2°C | 0.4% | 6.1hPa | 2.7V | 00:00:00 | 00:00:00 | 00:00:00 | |
| DL1XH1-15 | 2026-08-30 06:47:27 | 49.83876 | 8.43281 | 289° | 11km/h | 34741m | 4.7m/s | -37.2°C | 1.9% | 6.1hPa | 2.7V | 03:00:24 | 02:17:23 | 00:00:00 | |
| DF8AY | 2026-08-30 06:47:23 | 49.83876 | 8.43276 | 270° | 18km/h | 34746m | 4.3m/s | -37.2°C | 0% | 6.1hPa | 2.6V | 03:00:56 | 02:17:24 | 00:00:00 | |
| DM0DOS-11 | 2026-08-30 06:47:23 | 49.83856 | 8.43267 | 36° | 27km/h | 34715m | 4.4m/s | -37.2°C | 1.9% | 6.1hPa | 2.6V | 03:00:29 | 02:17:18 | 00:00:00 | |
| BIOWL1-15 | 2026-08-30 06:47:22 | 49.83876 | 8.43281 | 290° | 11km/h | 34742m | 4.7m/s | -37.2°C | 0% | 6.1hPa | 2.7V | 03:00:56 | 02:17:23 | 00:00:00 | |
| AA1-15 | 2026-08-30 06:47:21 | 49.83874 | 8.43284 | 348° | 9km/h | 34737m | 5.3m/s | -37.2°C | 0% | 6.1hPa | 2.7V | 03:00:56 | 02:17:22 | 00:00:00 | |
| DL1XH-west | 2026-08-30 06:47:19 | 49.83867 | 8.43279 | 34° | 24km/h | 34725m | 5.6m/s | -37.2°C | 0% | 6.1hPa | 2.6V | 03:00:56 | 02:17:20 | 00:00:00 | |
| HSKMA3-T | 2026-08-30 06:47:18 | 49.83861 | 8.43273 | 37° | 27km/h | 34720m | 5m/s | -37.2°C | 0% | 6.1hPa | 2.6V | 03:00:56 | 02:17:19 | 00:00:00 | |
| DL1XH1-15 | 2026-08-30 06:47:17 | 49.83841 | 8.43262 | 275° | 13km/h | 34689m | 5.1m/s | -37.3°C | 1.9% | 6.1hPa | 2.6V | 03:00:34 | 02:17:13 | 00:00:00 | |
| DO3MHA-11 | 2026-08-30 06:47:16 | 49.83851 | 8.43261 | 34° | 13km/h | 34711m | 4.7m/s | -37.2°C | 1.9% | 6.1hPa | 2.6V | 00:00:00 | 02:17:17 | 00:00:00 | |
| DL4BBY-15 | 2026-08-30 06:47:15 | 49.83846 | 8.43257 | 23° | 11km/h | 34706m | 5.3m/s | -38.5°C | 0% | 0hPa | 2.6V | 00:00:00 | 00:00:00 | 00:00:00 | |
| OE5DRO-10 | 2026-08-30 06:47:14 | 49.83843 | 8.43256 | 353° | 9km/h | 34701m | 5.5m/s | -37.3°C | 1.9% | 6.1hPa | 2.6V | 00:00:00 | 00:00:00 | 00:00:00 | |
| DL1XH-15 | 2026-08-30 06:47:13 | 49.83839 | 8.43277 | 4° | 5km/h | 34669m | 5.8m/s | -37.5°C | 2% | 6.1hPa | 2.6V | 03:00:38 | 02:17:09 | 00:00:00 | |
| DF8AY | 2026-08-30 06:47:13 | 49.83841 | 8.43258 | 301° | 9km/h | 34694m | 5.6m/s | -37.3°C | 0% | 6.1hPa | 2.6V | 03:00:56 | 02:17:14 | 00:00:00 | |
| BIOWL1-15 | 2026-08-30 06:47:12 | 49.83840 | 8.43262 | 275° | 13km/h | 34689m | 5.1m/s | -37.3°C | 0% | 6.1hPa | 2.6V | 03:00:56 | 02:17:13 | 00:00:00 | |
| AA1-15 | 2026-08-30 06:47:10 | 49.83840 | 8.43276 | 297° | 7km/h | 34674m | 5.4m/s | -37.5°C | 0% | 6.1hPa | 2.7V | 03:00:56 | 02:17:10 | 00:00:00 | |
| DL1XH-west | 2026-08-30 06:47:08 | 49.83839 | 8.43277 | 5° | 5km/h | 34669m | 5.8m/s | -37.5°C | 0% | 6.1hPa | 2.6V | 03:00:56 | 02:17:09 | 00:00:00 | |
| DF8AY | 2026-08-30 06:47:07 | 49.83830 | 8.43254 | 97° | 5km/h | 34637m | 5.6m/s | -37.4°C | 0% | 6.2hPa | 2.6V | 03:00:56 | 02:17:03 | 00:00:00 | |
| HSKMA3-T | 2026-08-30 06:47:07 | 49.83837 | 8.43275 | 43° | 11km/h | 34663m | 5.6m/s | -37.4°C | 0% | 6.2hPa | 2.6V | 03:00:56 | 02:17:08 | 00:00:00 | |
| DB0UT-7 | 2026-08-30 06:47:07 | 49.83837 | 8.43275 | 43° | 11km/h | 34664m | 5.6m/s | -37.4°C | 1.9% | 6.1hPa | 2.6V | 00:00:00 | 02:17:08 | 00:00:00 | |
| KANTATE | 2026-08-30 06:47:04 | 49.83833 | 8.43266 | 63° | 16km/h | 34653m | 5.0m/s | -37.5°C | 0.4% | 6.2hPa | 2.6V | 00:00:00 | 00:00:00 | 00:00:00 | |
| DL0LBS | 2026-08-30 06:47:03 | 49.83831 | 8.43261 | 69° | 15km/h | 34648m | 5.0m/s | -37.5°C | 0.5% | 6.2hPa | 2.6V | 03:00:00 | 00:00:00 | 00:00:00 | |
| DM0DOS-11 | 2026-08-30 06:47:02 | 49.83834 | 8.43259 | 209° | 2km/h | 34612m | 5.6m/s | -37.4°C | 2% | 6.2hPa | 2.6V | 03:00:49 | 02:16:58 | 00:00:00 | |
| BIOWL1-15 | 2026-08-30 06:47:01 | 49.83832 | 8.43254 | 225° | 5km/h | 34627m | 4.8m/s | -37.3°C | 0% | 6.2hPa | 2.7V | 03:00:56 | 02:17:01 | 00:00:00 | |
| DL1XH-west | 2026-08-30 06:46:58 | 49.83834 | 8.43258 | 232° | 5km/h | 34617m | 4.8m/s | -37.4°C | 0% | 6.2hPa | 2.7V | 03:00:56 | 02:16:59 | 00:00:00 | |
| HSKMA3-T | 2026-08-30 06:46:57 | 49.83834 | 8.43259 | 210° | 2km/h | 34612m | 5.6m/s | -37.4°C | 0% | 6.2hPa | 2.6V | 03:00:56 | 02:16:58 | 00:00:00 | |
| DO3MHA-11 | 2026-08-30 06:46:56 | 49.83834 | 8.43258 | 81° | 11km/h | 34607m | 5.8m/s | -37.2°C | 1.9% | 6.2hPa | 2.6V | 03:00:00 | 02:16:57 | 00:00:00 | |
| OE5DRO-10 | 2026-08-30 06:46:55 | 49.83834 | 8.43256 | 79° | 13km/h | 34601m | 5.5m/s | -37.3°C | 2.0% | 6.2hPa | 2.6V | 00:00:00 | 00:00:00 | 00:00:00 | |
| DK5PH-5 | 2026-08-30 06:46:54 | 49.83834 | 8.43252 | 84° | 15km/h | 34596m | 5.0m/s | -37.3°C | 1.9% | 6.2hPa | 2.6V | 00:00:00 | 02:16:55 | 00:00:00 | |
| IW2NTF | 2026-08-30 06:46:53 | 49.83846 | 8.43240 | 178° | 15km/h | 34564m | 4.7m/s | -37.4°C | 2% | 6.2hPa | 2.6V | 03:00:58 | 02:16:49 | 00:00:00 | |
| DM7RM-13 | 2026-08-30 06:46:53 | 49.83834 | 8.43252 | 84° | 11km/h | 34596m | 5.0m/s | -37.4°C | 0.5% | 6.2hPa | 2.7V | 00:00:00 | 00:00:00 | 00:00:00 | |
| DM0DOS-11 | 2026-08-30 06:46:52 | 49.83849 | 8.43239 | 167° | 15km/h | 34559m | 4.7m/s | -37.4°C | 2% | 6.2hPa | 2.7V | 03:00:59 | 02:16:48 | 00:00:00 | |
| BIOWL1-15 | 2026-08-30 06:46:52 | 49.83838 | 8.43240 | 170° | 13km/h | 34574m | 5.9m/s | -37.3°C | 0% | 6.2hPa | 2.6V | 03:00:56 | 02:16:51 | 00:00:00 | |
| DF8AY | 2026-08-30 06:46:51 | 49.83836 | 8.43242 | 146° | 9km/h | 34580m | 6m/s | -37.3°C | 0% | 6.2hPa | 2.7V | 03:00:56 | 02:16:52 | 00:00:00 | |
| DL1ZP-14 | 2026-08-30 06:46:50 | 49.83838 | 8.43240 | 170° | 11km/h | 34574m | 5.9m/s | -37.3°C | 0.4% | 6.2hPa | 2.6V | 00:00:00 | 00:00:00 | 00:00:00 | |
| HTAHTA | 2026-08-30 06:46:48 | 49.83849 | 8.43239 | 167° | 13km/h | 34559m | 4.7m/s | -37.4°C | 0.4% | 6.2hPa | 2.7V | 00:00:00 | 00:00:00 | 00:00:00 | |
| DL1XH1-15 | 2026-08-30 06:46:47 | 49.83857 | 8.43216 | 94° | 15km/h | 34532m | 4.3m/s | -37.2°C | 1.9% | 6.3hPa | 2.7V | 03:01:04 | 02:16:43 | 00:00:00 | |
| DL1XH-west | 2026-08-30 06:46:47 | 49.83849 | 8.43239 | 168° | 15km/h | 34559m | 4.7m/s | -37.4°C | 0% | 6.2hPa | 2.7V | 03:01:47 | 02:16:48 | 00:00:00 | |
| HSKMA3-T | 2026-08-30 06:46:46 | 49.83852 | 8.43237 | 148° | 13km/h | 34554m | 5.8m/s | -37.3°C | 0% | 6.2hPa | 2.7V | 03:01:47 | 02:16:47 | 00:00:00 | |
| DO3MHA-11 | 2026-08-30 06:46:46 | 49.83852 | 8.43237 | 149° | 15km/h | 34554m | 5.7m/s | -37.3°C | 2.0% | 6.2hPa | 2.6V | 00:00:00 | 02:16:47 | 00:00:00 | |
| DL4BBY-15 | 2026-08-30 06:46:45 | 49.83855 | 8.43234 | 124° | 20km/h | 34548m | 6.2m/s | -38.5°C | 0% | 0hPa | 2.6V | 00:00:00 | 00:00:00 | 00:00:00 | |
| IW2NTF | 2026-08-30 06:46:44 | 49.83865 | 8.43206 | 182° | 15km/h | 34510m | 5.5m/s | -37.3°C | 2% | 6.3hPa | 2.6V | 03:01:08 | 02:16:39 | 00:00:00 | |
| DL3AQ-11 | 2026-08-30 06:46:44 | 49.83857 | 8.43222 | 95° | 15km/h | 34537m | 4.9m/s | -37.3°C | 0.4% | 6.3hPa | 2.6V | 00:00:00 | 00:00:00 | 00:00:00 | |
| EDDB2-12 | 2026-08-30 06:46:43 | 49.83857 | 8.43222 | 95° | 15km/h | 34537m | 4.9m/s | -37.3°C | 0.4% | 6.3hPa | 2.6V | 00:00:00 | 00:00:00 | 00:00:00 | |
| DM0DOS-11 | 2026-08-30 06:46:42 | 49.83868 | 8.43206 | 179° | 16km/h | 34505m | 4.8m/s | -37.2°C | 1.9% | 6.3hPa | 2.6V | 03:01:09 | 02:16:38 | 00:00:00 | |
| DK7TD | 2026-08-30 06:46:42 | 49.83857 | 8.43216 | 95° | 15km/h | 34532m | 4.4m/s | 0°C | 0% | 0hPa | 2.7V | 18:12:15 | 02:16:43 | 00:00:00 | |
| DF8AY | 2026-08-30 06:46:40 | 49.83859 | 8.43208 | 134° | 9km/h | 34522m | 6.1m/s | -37.2°C | 0% | 6.3hPa | 2.7V | 03:01:47 | 02:16:41 | 00:00:00 | |
| BIOWL1-15 | 2026-08-30 06:46:39 | 49.83861 | 8.43206 | 169° | 11km/h | 34516m | 6.4m/s | -37.3°C | 0% | 6.3hPa | 2.6V | 03:01:47 | 02:16:40 | 00:00:00 | |
| DO3DL | 2026-08-30 06:46:38 | 49.83861 | 8.43206 | 170° | 11km/h | 34516m | 6.4m/s | -37.3°C | 0.4% | 6.3hPa | 2.6V | 03:01:00 | 00:00:00 | 00:00:00 | |
| DL1XH1-15 | 2026-08-30 06:46:37 | 49.83886 | 8.43180 | 104° | 27km/h | 34477m | 5.2m/s | -37.1°C | 1.9% | 6.3hPa | 2.6V | 03:01:14 | 02:16:33 | 00:00:00 | |
| DL1XH-west | 2026-08-30 06:46:36 | 49.83873 | 8.43205 | 167° | 18km/h | 34500m | 4.6m/s | -37.1°C | 0% | 6.3hPa | 2.7V | 03:01:47 | 02:16:37 | 00:00:00 | |
| DO3MHA-11 | 2026-08-30 06:46:36 | 49.83873 | 8.43205 | 167° | 20km/h | 34500m | 4.5m/s | -37.1°C | 1.9% | 6.3hPa | 2.6V | 00:00:00 | 02:16:37 | 00:00:00 | |
| DO2KSM | 2026-08-30 06:46:34 | 49.83877 | 8.43202 | 149° | 18km/h | 34495m | 5.4m/s | -37.1°C | 0.4% | 6.3hPa | 2.6V | 03:01:00 | 00:00:00 | 00:00:00 | |
| IW2NTF | 2026-08-30 06:46:33 | 49.83890 | 8.43146 | 106° | 11km/h | 34456m | 6m/s | -37.1°C | 1.9% | 6.3hPa | 2.6V | 03:01:18 | 02:16:29 | 00:00:00 | |
| BIOWL9-15 | 2026-08-30 06:46:33 | 49.83886 | 8.43180 | 104° | 27km/h | 34478m | 5.2m/s | -37.1°C | 0.4% | 6.3hPa | 2.6V | 00:00:00 | 00:00:00 | 00:00:00 | |
| DM0DOS-11 | 2026-08-30 06:46:32 | 49.83891 | 8.43143 | 123° | 7km/h | 34450m | 5.4m/s | -37.1°C | 1.9% | 6.3hPa | 2.6V | 03:01:19 | 02:16:28 | 00:00:00 | |
| DF8AY | 2026-08-30 06:46:29 | 49.83889 | 8.43152 | 100° | 18km/h | 34462m | 6m/s | -37.3°C | 0% | 6.3hPa | 2.7V | 03:01:47 | 02:16:30 | 00:00:00 | |
| BIOWL1-15 | 2026-08-30 06:46:28 | 49.83890 | 8.43146 | 107° | 13km/h | 34456m | 6.1m/s | -37.2°C | 0% | 6.3hPa | 2.6V | 03:01:47 | 02:16:29 | 00:00:00 | |
| DL1XH1-15 | 2026-08-30 06:46:27 | 49.83899 | 8.43123 | 109° | 26km/h | 34424m | 6.1m/s | -37.3°C | 1.9% | 6.4hPa | 2.6V | 03:01:24 | 02:16:23 | 00:00:00 | |
| DL1XH-west | 2026-08-30 06:46:25 | 49.83893 | 8.43139 | 139° | 7km/h | 34441m | 4.4m/s | -37.1°C | 0% | 6.4hPa | 2.7V | 03:01:47 | 02:16:26 | 00:00:00 | |
| DF8AY | 2026-08-30 06:46:24 | 49.83907 | 8.43087 | 112° | 37km/h | 34408m | 4.7m/s | -37.3°C | 0% | 6.4hPa | 2.7V | 03:01:47 | 02:16:20 | 00:00:00 | |
| DK5PH-5 | 2026-08-30 06:46:24 | 49.83895 | 8.43136 | 124° | 24km/h | 34437m | 5.0m/s | -37.2°C | 1.9% | 6.3hPa | 2.7V | 00:00:00 | 02:16:25 | 00:00:00 | |
| IW2NTF | 2026-08-30 06:46:23 | 49.83910 | 8.43075 | 117° | 35km/h | 34403m | 5.2m/s | -37.3°C | 2% | 6.4hPa | 2.7V | 03:01:28 | 02:16:19 | 00:00:00 | |
| KANTATE | 2026-08-30 06:46:23 | 49.83895 | 8.43136 | 125° | 11km/h | 34437m | 5.0m/s | -37.2°C | 0.4% | 6.4hPa | 2.6V | 03:01:00 | 00:00:00 | 00:00:00 | |
| DM0DOS-11 | 2026-08-30 06:46:22 | 49.83915 | 8.43064 | 124° | 31km/h | 34398m | 5.9m/s | -37.3°C | 2% | 6.4hPa | 2.6V | 03:01:29 | 02:16:18 | 00:00:00 | |
| DJ2DS-15 | 2026-08-30 06:46:22 | 49.83898 | 8.43123 | 110° | 26km/h | 34425m | 6.1m/s | -37.2°C | 1.9% | 6.3hPa | 2.6V | 00:00:00 | 02:16:23 | 00:00:00 | |
| DL1XH-15 | 2026-08-30 06:46:21 | 49.83919 | 8.43056 | 133° | 26km/h | 34392m | 6m/s | -37.3°C | 2% | 6.4hPa | 2.6V | 03:01:30 | 02:16:17 | 00:00:00 | |
| BIOWL1-15 | 2026-08-30 06:46:17 | 49.83914 | 8.43064 | 124° | 31km/h | 34398m | 5.9m/s | -37.3°C | 0% | 6.4hPa | 2.6V | 03:01:47 | 02:16:18 | 00:00:00 | |
| DL1XH-west | 2026-08-30 06:46:14 | 49.83927 | 8.43044 | 139° | 18km/h | 34381m | 4.6m/s | -37°C | 0% | 6.4hPa | 2.7V | 03:01:47 | 02:16:15 | 00:00:00 | |
| DO2KSM | 2026-08-30 06:46:14 | 49.83927 | 8.43044 | 140° | 18km/h | 34382m | 4.6m/s | -37.0°C | 0.5% | 6.4hPa | 2.7V | 03:01:00 | 00:00:00 | 00:00:00 | |
| DL4BBY-15 | 2026-08-30 06:46:13 | 49.83930 | 8.43039 | 127° | 20km/h | 34377m | 4.6m/s | -38.1°C | 0% | 0hPa | 2.7V | 00:00:00 | 00:00:00 | 00:00:00 | |
| DM0DOS-11 | 2026-08-30 06:46:12 | 49.83929 | 8.42982 | 78° | 27km/h | 34344m | 5.2m/s | -36.6°C | 2% | 6.5hPa | 2.7V | 03:01:39 | 02:16:08 | 00:00:00 | |
| DL1XH-15 | 2026-08-30 06:46:11 | 49.83928 | 8.42973 | 82° | 22km/h | 34338m | 6.1m/s | -36.6°C | 1.9% | 6.5hPa | 2.6V | 03:01:40 | 02:16:07 | 00:00:00 | |
| DF8AY | 2026-08-30 06:46:09 | 49.83932 | 8.43004 | 79° | 31km/h | 34354m | 5.3m/s | -36.8°C | 0% | 6.5hPa | 2.7V | 03:01:47 | 02:16:10 | 00:00:00 | |
| BIOWL1-15 | 2026-08-30 06:46:09 | 49.83929 | 8.42982 | 78° | 27km/h | 34344m | 5.2m/s | -36.6°C | 0% | 6.5hPa | 2.7V | 03:01:47 | 02:16:08 | 00:00:00 | |
| CB1BUN | 2026-08-30 06:46:09 | 49.83932 | 8.43004 | 80° | 31km/h | 34354m | 5.3m/s | -36.8°C | 0.5% | 6.5hPa | 2.7V | 03:01:00 | 00:00:00 | 00:00:00 | |
| DO3MHA-11 | 2026-08-30 06:46:06 | 49.83927 | 8.42973 | 83° | 20km/h | 34339m | 6.0m/s | -36.6°C | 1.9% | 6.4hPa | 2.7V | 00:00:00 | 02:16:07 | 00:00:00 | |
| DO1YAY-16 | 2026-08-30 06:46:05 | 49.83928 | 8.42959 | 111° | 13km/h | 34327m | 5.6m/s | -36.6°C | 0.4% | 6.5hPa | 2.7V | 00:00:00 | 00:00:00 | 00:00:00 | |
| HEMX73-11 | 2026-08-30 06:46:04 | 49.83928 | 8.42959 | 112° | 15km/h | 34327m | 5.6m/s | -36.6°C | 0.4% | 6.5hPa | 2.7V | 03:01:00 | 00:00:00 | 00:00:00 | |
| DB0UT-9 | 2026-08-30 06:46:03 | 49.83928 | 8.42959 | 112° | 15km/h | 34327m | 5.6m/s | -36.6°C | 0.4% | 6.5hPa | 2.7V | 03:01:00 | 00:00:00 | 00:00:00 | |
| DL1XH-west | 2026-08-30 06:46:03 | 49.83930 | 8.42955 | 127° | 15km/h | 34321m | 5.3m/s | -36.6°C | 0% | 6.5hPa | 2.7V | 03:01:47 | 02:16:04 | 00:00:00 | |
| BIOWL9-15 | 2026-08-30 06:46:02 | 49.83935 | 8.42944 | 122° | 18km/h | 34311m | 5.3m/s | -36.5°C | 0.4% | 6.5hPa | 2.7V | 00:00:00 | 00:00:00 | 00:00:00 | |
| DL1XH-15 | 2026-08-30 06:46:01 | 49.83938 | 8.42900 | 76° | 22km/h | 34284m | 4.8m/s | -36.2°C | 1.9% | 6.5hPa | 2.7V | 03:01:50 | 02:15:57 | 00:00:00 | |
| DF8AY | 2026-08-30 06:45:59 | 49.83939 | 8.42929 | 102° | 26km/h | 34299m | 5.8m/s | -36.4°C | 0% | 6.5hPa | 2.6V | 03:01:47 | 02:16:00 | 00:00:00 | |
| BIOWL1-15 | 2026-08-30 06:45:58 | 49.83938 | 8.42900 | 76° | 22km/h | 34284m | 4.8m/s | -36.2°C | 0% | 6.5hPa | 2.7V | 03:02:38 | 02:15:57 | 00:00:00 | |
| OE5DRO-10 | 2026-08-30 06:45:58 | 49.83939 | 8.42919 | 93° | 15km/h | 34294m | 5.0m/s | -36.2°C | 1.9% | 6.4hPa | 2.7V | 00:00:00 | 00:00:00 | 00:00:00 | |
| DL1XH1-15 | 2026-08-30 06:45:57 | 49.83932 | 8.42884 | 31° | 5km/h | 34261m | 5.1m/s | -36.3°C | 1.9% | 6.5hPa | 2.7V | 03:01:54 | 02:15:53 | 00:00:00 | |
| DL1XH-west | 2026-08-30 06:45:52 | 49.83933 | 8.42884 | 32° | 5km/h | 34261m | 5.1m/s | -36.3°C | 0% | 6.5hPa | 2.7V | 03:02:38 | 02:15:53 | 00:00:00 | |
| DL1XH-15 | 2026-08-30 06:45:51 | 49.83935 | 8.42848 | 106° | 27km/h | 34229m | 4.6m/s | -36.1°C | 1.9% | 6.6hPa | 2.7V | 03:02:00 | 02:15:47 | 00:00:00 | |
| DF8AY | 2026-08-30 06:45:48 | 49.83932 | 8.42868 | 100° | 22km/h | 34239m | 6m/s | -36.2°C | 0% | 6.5hPa | 2.6V | 03:02:38 | 02:15:49 | 00:00:00 | |
| DL1ZP-14 | 2026-08-30 06:45:48 | 49.83932 | 8.42868 | 99° | 22km/h | 34239m | 6.0m/s | -36.2°C | 0.4% | 6.5hPa | 2.6V | 00:00:00 | 00:00:00 | 00:00:00 | |
| BIOWL1-15 | 2026-08-30 06:45:48 | 49.83935 | 8.42848 | 107° | 27km/h | 34229m | 4.6m/s | -36.1°C | 0% | 6.6hPa | 2.7V | 03:02:38 | 02:15:47 | 00:00:00 | |
| DL1XH1-15 | 2026-08-30 06:45:47 | 49.83943 | 8.42822 | 137° | 7km/h | 34207m | 5.6m/s | -36.1°C | 1.9% | 6.6hPa | 2.6V | 03:02:04 | 02:15:43 | 00:00:00 | |
| SSTOLZ84 | 2026-08-30 06:45:44 | 49.83939 | 8.42831 | 116° | 18km/h | 34219m | 5.7m/s | -36.0°C | 0.4% | 6.6hPa | 2.6V | 00:00:00 | 00:00:00 | 00:00:00 | |
| DL4BBY-15 | 2026-08-30 06:45:43 | 49.83941 | 8.42825 | 126° | 11km/h | 34213m | 6.0m/s | -37.1°C | 0% | 0hPa | 2.6V | 00:00:00 | 00:00:00 | 00:00:00 | |
| DM0DOS-11 | 2026-08-30 06:45:42 | 49.83941 | 8.42809 | 61° | 18km/h | 34180m | 6m/s | -35.9°C | 1.9% | 6.6hPa | 2.6V | 03:02:09 | 02:15:38 | 00:00:00 | |
| AA1-15 | 2026-08-30 06:45:42 | 49.83943 | 8.42822 | 138° | 7km/h | 34207m | 5.6m/s | -36.1°C | 0% | 6.6hPa | 2.6V | 03:02:38 | 02:15:43 | 00:00:00 | |
| DL1XH-west | 2026-08-30 06:45:41 | 49.83944 | 8.42820 | 140° | 4km/h | 34202m | 4.9m/s | -36.1°C | 0% | 6.6hPa | 2.7V | 03:02:38 | 02:15:42 | 00:00:00 | |
| DL3AQ-11 | 2026-08-30 06:45:40 | 49.83944 | 8.42818 | 56° | 5km/h | 34192m | 5.5m/s | -36.0°C | 0.4% | 6.6hPa | 2.7V | 00:00:00 | 00:00:00 | 00:00:00 | |
| DL1XH-15 | 2026-08-30 06:45:39 | 49.83934 | 8.42786 | 71° | 20km/h | 34164m | 4.9m/s | -35.9°C | 1.8% | 6.6hPa | 2.7V | 03:02:12 | 02:15:35 | 00:00:00 | |
| DF8AY | 2026-08-30 06:45:38 | 49.83942 | 8.42814 | 58° | 13km/h | 34186m | 6.3m/s | -35.9°C | 0% | 6.6hPa | 2.6V | 03:02:38 | 02:15:39 | 00:00:00 | |
| BIOWL1-15 | 2026-08-30 06:45:35 | 49.83936 | 8.42794 | 68° | 22km/h | 34169m | 4.8m/s | -35.9°C | 0% | 6.6hPa | 2.7V | 03:02:38 | 02:15:36 | 00:00:00 | |
| DO1YAY-16 | 2026-08-30 06:45:34 | 49.83933 | 8.42780 | 74° | 15km/h | 34159m | 5.9m/s | -35.9°C | 0.4% | 6.6hPa | 2.6V | 00:00:00 | 00:00:00 | 00:00:00 | |
| DM0DOS-11 | 2026-08-30 06:45:32 | 49.83933 | 8.42761 | 86° | 13km/h | 34126m | 6.1m/s | -35.6°C | 1.8% | 6.7hPa | 2.6V | 03:02:19 | 02:15:28 | 00:00:00 | |
| DL1XH-west | 2026-08-30 06:45:31 | 49.83932 | 8.42772 | 97° | 5km/h | 34147m | 5.5m/s | -35.7°C | 0% | 6.7hPa | 2.6V | 03:02:38 | 02:15:32 | 00:00:00 | |
| BIOWL9-15 | 2026-08-30 06:45:31 | 49.83932 | 8.42770 | 112° | 4km/h | 34142m | 4.9m/s | -35.6°C | 0.4% | 6.6hPa | 2.7V | 00:00:00 | 00:00:00 | 00:00:00 | |
| DL1XH-15 | 2026-08-30 06:45:29 | 49.83930 | 8.42741 | 69° | 18km/h | 34110m | 4.4m/s | -35.6°C | 1.8% | 6.7hPa | 2.7V | 03:02:22 | 02:15:25 | 00:00:00 | |
| DL1XH1-15 | 2026-08-30 06:45:28 | 49.83926 | 8.42731 | 55° | 11km/h | 34101m | 5.7m/s | -35.7°C | 1.8% | 6.7hPa | 2.6V | 03:02:24 | 02:15:23 | 00:00:00 | |
| DF8AY | 2026-08-30 06:45:27 | 49.83933 | 8.42761 | 87° | 13km/h | 34126m | 6.1m/s | -35.6°C | 0% | 6.7hPa | 2.6V | 03:02:38 | 02:15:28 | 00:00:00 | |
| BIOWL1-15 | 2026-08-30 06:45:24 | 49.83930 | 8.42741 | 69° | 18km/h | 34110m | 4.4m/s | -35.6°C | 0% | 6.7hPa | 2.7V | 03:02:38 | 02:15:25 | 00:00:00 | |
| DL3AQ-11 | 2026-08-30 06:45:24 | 49.83928 | 8.42735 | 64° | 15km/h | 34106m | 4.7m/s | -35.7°C | 0.4% | 6.7hPa | 2.7V | 00:00:00 | 00:00:00 | 00:00:00 | |
| DK5PH-5 | 2026-08-30 06:45:23 | 49.83928 | 8.42735 | 65° | 13km/h | 34106m | 4.6m/s | -35.6°C | 1.8% | 6.6hPa | 2.7V | 03:02:00 | 02:15:24 | 00:00:00 | |
| DM0DOS-11 | 2026-08-30 06:45:22 | 49.83926 | 8.42731 | 149° | 5km/h | 34074m | 4.5m/s | -35.8°C | 1.8% | 6.7hPa | 2.7V | 03:02:29 | 02:15:18 | 00:00:00 | |
| HSKMA3-T | 2026-08-30 06:45:20 | 49.83924 | 8.42728 | 305° | 2km/h | 34089m | 5.9m/s | -35.9°C | 0% | 6.7hPa | 2.6V | 03:02:38 | 02:15:21 | 00:00:00 | |
| DF8AY | 2026-08-30 06:45:16 | 49.83927 | 8.42729 | 113° | 11km/h | 34069m | 5.6m/s | -35.9°C | 0% | 6.7hPa | 2.6V | 03:02:38 | 02:15:17 | 00:00:00 | |
| BIOWL1-15 | 2026-08-30 06:45:14 | 49.83929 | 8.42716 | 94° | 22km/h | 34056m | 6m/s | -35.9°C | 0% | 6.7hPa | 2.7V | 03:02:38 | 02:15:15 | 00:00:00 | |
| DL4BBY-15 | 2026-08-30 06:45:13 | 49.83929 | 8.42706 | 87° | 15km/h | 34052m | 4.7m/s | -37.0°C | 0% | 0hPa | 2.7V | 00:00:00 | 00:00:00 | 00:00:00 | |
| DM0DOS-11 | 2026-08-30 06:45:12 | 49.83918 | 8.42690 | 312° | 16km/h | 34019m | 4.6m/s | -35.8°C | 1.8% | 6.8hPa | 2.7V | 03:02:39 | 02:15:08 | 00:00:00 | |
| DL1XH-west | 2026-08-30 06:45:10 | 49.83925 | 8.42685 | 44° | 11km/h | 34036m | 6.2m/s | -36.1°C | 0% | 6.8hPa | 2.6V | 03:02:38 | 02:15:11 | 00:00:00 | |
| HSKMA3-T | 2026-08-30 06:45:09 | 49.83923 | 8.42684 | 353° | 9km/h | 34030m | 6.3m/s | -36°C | 0% | 6.8hPa | 2.6V | 03:02:38 | 02:15:10 | 00:00:00 | |
| D01LWL | 2026-08-30 06:45:08 | 49.83917 | 8.42690 | 312° | 16km/h | 34019m | 4.6m/s | -35.9°C | 0.4% | 6.8hPa | 2.7V | 00:00:00 | 00:00:00 | 00:00:00 | |
| DL1XH1-15 | 2026-08-30 06:45:07 | 49.83907 | 8.42691 | 71° | 18km/h | 33993m | 5.7m/s | -35.8°C | 1.8% | 6.8hPa | 2.7V | 03:02:44 | 02:15:03 | 00:00:00 | |
| DF8AY | 2026-08-30 06:45:04 | 49.83910 | 8.42699 | 11° | 9km/h | 34005m | 6.1m/s | -35.8°C | 0% | 6.8hPa | 2.6V | 03:03:29 | 02:15:05 | 00:00:00 | |
| EDDB2-11 | 2026-08-30 06:45:03 | 49.83908 | 8.42696 | 55° | 11km/h | 33999m | 6.2m/s | -35.8°C | 0.4% | 6.8hPa | 2.7V | 00:00:00 | 00:00:00 | 00:00:00 | |
| DM0DOS-11 | 2026-08-30 06:45:02 | 49.83899 | 8.42665 | 344° | 7km/h | 33967m | 6.3m/s | -36°C | 1.8% | 6.8hPa | 2.7V | 03:02:49 | 02:14:58 | 00:00:00 | |
| DL1XH-west | 2026-08-30 06:44:59 | 49.83903 | 8.42670 | 67° | 15km/h | 33978m | 4.6m/s | -35.9°C | 0% | 6.8hPa | 2.6V | 03:03:29 | 02:15:00 | 00:00:00 | |
| HSKMA3-T | 2026-08-30 06:44:58 | 49.83901 | 8.42666 | 43° | 9km/h | 33973m | 6m/s | -36°C | 0% | 6.8hPa | 2.6V | 03:03:29 | 02:14:59 | 00:00:00 | |
| DK7TD | 2026-08-30 06:44:56 | 49.83897 | 8.42668 | 310° | 13km/h | 33961m | 5.7m/s | 0°C | 0% | 0hPa | 2.7V | 18:12:15 | 02:14:57 | 00:00:00 | |
| BIOWL1-15 | 2026-08-30 06:44:54 | 49.83893 | 8.42677 | 303° | 15km/h | 33951m | 4.4m/s | -35.8°C | 0% | 6.8hPa | 2.6V | 03:03:29 | 02:14:55 | 00:00:00 | |
| DF8AY | 2026-08-30 06:44:53 | 49.83891 | 8.42682 | 309° | 11km/h | 33946m | 4.7m/s | -35.8°C | 0% | 6.8hPa | 2.6V | 03:03:29 | 02:14:54 | 00:00:00 | |
| DL1XH-west | 2026-08-30 06:44:48 | 49.83885 | 8.42665 | 72° | 20km/h | 33919m | 4.5m/s | -36.1°C | 0% | 6.9hPa | 2.7V | 03:03:29 | 02:14:49 | 00:00:00 | |
| AA1-15 | 2026-08-30 06:44:47 | 49.83883 | 8.42658 | 61° | 16km/h | 33914m | 4.9m/s | -36.2°C | 0% | 6.9hPa | 2.7V | 03:03:29 | 02:14:48 | 00:00:00 | |
| BIOWL1-15 | 2026-08-30 06:44:44 | 49.83874 | 8.42651 | 347° | 16km/h | 33897m | 5.9m/s | -36.2°C | 0% | 6.9hPa | 2.6V | 03:03:29 | 02:14:45 | 00:00:00 | |
| DF8AY | 2026-08-30 06:44:43 | 49.83870 | 8.42653 | 336° | 18km/h | 33892m | 5.2m/s | -36.2°C | 0% | 6.9hPa | 2.6V | 03:03:29 | 02:14:44 | 00:00:00 | |
| DM0DOS-11 | 2026-08-30 06:44:43 | 49.83858 | 8.42647 | 98° | 16km/h | 33860m | 5.2m/s | -36.2°C | 1.8% | 6.9hPa | 2.7V | 03:03:09 | 02:14:38 | 00:00:00 | |
| DK7TD | 2026-08-30 06:44:42 | 49.83866 | 8.42656 | 334° | 16km/h | 33886m | 4.5m/s | 0°C | 0% | 0hPa | 2.7V | 18:12:15 | 02:14:43 | 00:00:00 | |
| DL1XH-west | 2026-08-30 06:44:38 | 49.83858 | 8.42653 | 90° | 13km/h | 33865m | 5.8m/s | -36.2°C | 0% | 6.9hPa | 2.6V | 03:03:29 | 02:14:39 | 00:00:00 | |
| HSKMA3-T | 2026-08-30 06:44:37 | 49.83858 | 8.42647 | 98° | 16km/h | 33860m | 5.2m/s | -36.2°C | 0% | 6.9hPa | 2.7V | 03:03:29 | 02:14:38 | 00:00:00 | |
| AA1-15 | 2026-08-30 06:44:36 | 49.83859 | 8.42641 | 103° | 15km/h | 33855m | 4.5m/s | -36.3°C | 0% | 6.9hPa | 2.7V | 03:03:29 | 02:14:37 | 00:00:00 | |
| BIOWL1-15 | 2026-08-30 06:44:35 | 49.83860 | 8.42634 | 291° | 5km/h | 33839m | 6.3m/s | -36.3°C | 0% | 7hPa | 2.6V | 03:03:29 | 02:14:34 | 00:00:00 | |
| DF8AY | 2026-08-30 06:44:32 | 49.83859 | 8.42637 | 290° | 13km/h | 33832m | 5.7m/s | -36.3°C | 0% | 7hPa | 2.6V | 03:03:29 | 02:14:33 | 00:00:00 | |
| DK7TD | 2026-08-30 06:44:31 | 49.83858 | 8.42642 | 290° | 16km/h | 33827m | 5m/s | 0°C | 0% | 0hPa | 2.7V | 18:12:15 | 02:14:32 | 00:00:00 | |
| SFWM-10 | 2026-08-30 06:44:30 | 49.83858 | 8.42642 | 291° | 16km/h | 33828m | 5.0m/s | -36.2°C | 0.4% | 7.0hPa | 2.7V | 00:00:00 | 00:00:00 | 00:00:00 | |
| BIOWL9-15 | 2026-08-30 06:44:28 | 49.83855 | 8.42656 | 286° | 4km/h | 33812m | 6.0m/s | -36.3°C | 0.4% | 7.0hPa | 2.7V | 00:00:00 | 00:00:00 | 00:00:00 | |
| DL1XH1-15 | 2026-08-30 06:44:27 | 49.83859 | 8.42641 | 123° | 2km/h | 33781m | 5.6m/s | -36.5°C | 1.8% | 7hPa | 2.7V | 03:03:24 | 02:14:23 | 00:00:00 | |
| DL1XH-west | 2026-08-30 06:44:27 | 49.83855 | 8.42656 | 118° | 2km/h | 33806m | 6.1m/s | -36.2°C | 0% | 7hPa | 2.6V | 03:03:29 | 02:14:28 | 00:00:00 | |
| HSKMA3-T | 2026-08-30 06:44:26 | 49.83855 | 8.42654 | 112° | 9km/h | 33800m | 5.6m/s | -36.2°C | 0% | 7hPa | 2.7V | 03:03:29 | 02:14:27 | 00:00:00 | |
| AA1-15 | 2026-08-30 06:44:25 | 49.83856 | 8.42650 | 112° | 13km/h | 33795m | 4.8m/s | -36.3°C | 0% | 7hPa | 2.7V | 03:03:29 | 02:14:26 | 00:00:00 | |
| BIOWL1-15 | 2026-08-30 06:44:23 | 49.83858 | 8.42643 | 112° | 7km/h | 33786m | 4.4m/s | -36.4°C | 0% | 7hPa | 2.6V | 03:03:29 | 02:14:24 | 00:00:00 | |
| DL8DAS-14 | 2026-08-30 06:44:23 | 49.83859 | 8.42641 | 123° | 0km/h | 33781m | 5.6m/s | -36.5°C | 0.4% | 7.0hPa | 2.6V | 00:00:00 | 00:00:00 | 00:00:00 | |
| DM0DOS-11 | 2026-08-30 06:44:22 | 49.83855 | 8.42662 | 282° | 11km/h | 33753m | 4.1m/s | -36.3°C | 1.9% | 7hPa | 2.6V | 03:03:29 | 02:14:18 | 00:00:00 | |
| DF8AY | 2026-08-30 06:44:22 | 49.83859 | 8.42641 | 124° | 2km/h | 33781m | 5.6m/s | -36.5°C | 0% | 7hPa | 2.7V | 03:03:29 | 02:14:23 | 00:00:00 | |
| DK7TD | 2026-08-30 06:44:20 | 49.83858 | 8.42645 | 286° | 13km/h | 33768m | 6.4m/s | 0°C | 0% | 0hPa | 2.7V | 18:12:15 | 02:14:21 | 00:00:00 | |
| DL0LBS | 2026-08-30 06:44:19 | 49.83858 | 8.42645 | 287° | 13km/h | 33768m | 6.4m/s | -36.4°C | 0.5% | 7.0hPa | 2.6V | 03:03:00 | 00:00:00 | 00:00:00 | |
| PG1ADW-2 | 2026-08-30 06:44:18 | 49.83856 | 8.42657 | 286° | 15km/h | 33758m | 4.4m/s | -36.3°C | 1.9% | 7.0hPa | 2.6V | 00:00:00 | 02:14:19 | 00:00:00 | |
| DL1XH1-15 | 2026-08-30 06:44:17 | 49.83861 | 8.42646 | 111° | 22km/h | 33725m | 4.1m/s | -36.6°C | 1.8% | 7hPa | 2.6V | 03:03:34 | 02:14:13 | 00:00:00 | |
| DF8AY | 2026-08-30 06:44:16 | 49.83863 | 8.42639 | 108° | 16km/h | 33721m | 4.1m/s | -36.6°C | 0% | 7.1hPa | 2.7V | 03:05:11 | 02:14:12 | 00:00:00 | |
| DL1XH-west | 2026-08-30 06:44:16 | 49.83855 | 8.42665 | 251° | 4km/h | 33748m | 5.1m/s | -36.3°C | 0% | 7hPa | 2.7V | 03:04:20 | 02:14:17 | 00:00:00 | |
| HSKMA3-T | 2026-08-30 06:44:15 | 49.83856 | 8.42664 | 124° | 7km/h | 33742m | 6.5m/s | -36.4°C | 0% | 7.1hPa | 2.7V | 03:04:20 | 02:14:16 | 00:00:00 | |
| AA1-15 | 2026-08-30 06:44:14 | 49.83857 | 8.42660 | 117° | 16km/h | 33736m | 6.5m/s | -36.5°C | 0% | 7hPa | 2.7V | 03:04:20 | 02:14:15 | 00:00:00 | |
| HTAHTA | 2026-08-30 06:44:13 | 49.83861 | 8.42646 | 111° | 22km/h | 33725m | 4.1m/s | -36.6°C | 0.4% | 7.1hPa | 2.6V | 00:00:00 | 00:00:00 | 00:00:00 | |
| DM0DOS-11 | 2026-08-30 06:44:12 | 49.83860 | 8.42640 | 294° | 20km/h | 33698m | 5.7m/s | -36.6°C | 1.9% | 7.1hPa | 2.6V | 03:03:39 | 02:14:08 | 00:00:00 | |
| BIOWL1-15 | 2026-08-30 06:44:12 | 49.83861 | 8.42646 | 112° | 22km/h | 33725m | 4.1m/s | -36.6°C | 0% | 7.1hPa | 2.6V | 03:04:20 | 02:14:13 | 00:00:00 | |
| DK7TD | 2026-08-30 06:44:09 | 49.83864 | 8.42632 | 343° | 4km/h | 33710m | 6.3m/s | 0°C | 0% | 0hPa | 2.7V | 18:12:15 | 02:14:10 | 00:00:00 | |
| DC4HF-4 | 2026-08-30 06:44:09 | 49.83864 | 8.42632 | 342° | 2km/h | 33710m | 6.3m/s | -36.7°C | 0.4% | 7.1hPa | 2.6V | 00:00:00 | 00:00:00 | 00:00:00 | |
| EDDB2-12 | 2026-08-30 06:44:08 | 49.83860 | 8.42640 | 294° | 20km/h | 33698m | 5.7m/s | -36.7°C | 0.4% | 7.1hPa | 2.6V | 00:00:00 | 00:00:00 | 00:00:00 | |
| DL1XH1-15 | 2026-08-30 06:44:07 | 49.83858 | 8.42673 | 214° | 9km/h | 33671m | 5.3m/s | -36.6°C | 1.9% | 7.1hPa | 2.6V | 03:03:44 | 02:14:03 | 00:00:00 | |
| DL1XH-west | 2026-08-30 06:44:05 | 49.83857 | 8.42657 | 283° | 22km/h | 33687m | 5.2m/s | -36.7°C | 0% | 7.1hPa | 2.7V | 03:04:20 | 02:14:06 | 00:00:00 | |
| HSKMA3-T | 2026-08-30 06:44:04 | 49.83856 | 8.42664 | 273° | 16km/h | 33682m | 5.7m/s | -36.6°C | 0% | 7.1hPa | 2.7V | 03:04:20 | 02:14:05 | 00:00:00 | |
| BIOWL1-15 | 2026-08-30 06:44:04 | 49.83858 | 8.42673 | 215° | 9km/h | 33671m | 5.3m/s | -36.6°C | 0% | 7.1hPa | 2.6V | 03:04:20 | 02:14:03 | 00:00:00 | |
| AA1-15 | 2026-08-30 06:44:03 | 49.83856 | 8.42670 | 252° | 11km/h | 33676m | 5.6m/s | -36.6°C | 0% | 7.1hPa | 2.7V | 03:04:20 | 02:14:04 | 00:00:00 | |
| DF8AY | 2026-08-30 06:44:00 | 49.83862 | 8.42673 | 164° | 9km/h | 33661m | 5.1m/s | -36.7°C | 0% | 7.1hPa | 2.7V | 03:05:11 | 02:14:01 | 00:00:00 | |
| DK7TD | 2026-08-30 06:43:57 | 49.83864 | 8.42673 | 307° | 5km/h | 33644m | 5.6m/s | 0°C | 0% | 0hPa | 2.6V | 18:12:15 | 02:13:58 | 00:00:00 | |
| DL1XH1-15 | 2026-08-30 06:43:57 | 49.83854 | 8.42688 | 318° | 11km/h | 33616m | 5.7m/s | -36.6°C | 1.8% | 7.2hPa | 2.6V | 03:03:54 | 02:13:53 | 00:00:00 | |
| DL1XH-west | 2026-08-30 06:43:54 | 49.83858 | 8.42681 | 319° | 15km/h | 33627m | 5.4m/s | -36.6°C | 0% | 7.2hPa | 2.7V | 03:04:20 | 02:13:55 | 00:00:00 | |
| AA1-15 | 2026-08-30 06:43:52 | 49.83854 | 8.42688 | 319° | 11km/h | 33616m | 5.7m/s | -36.7°C | 0% | 7.2hPa | 2.6V | 03:04:20 | 02:13:53 | 00:00:00 | |
| DF8AY | 2026-08-30 06:43:50 | 49.83851 | 8.42692 | 311° | 7km/h | 33605m | 4.8m/s | -36.8°C | 0% | 7.2hPa | 2.7V | 03:05:11 | 02:13:51 | 00:00:00 | |
| DL1XH-15 | 2026-08-30 06:43:47 | 49.83851 | 8.42700 | 131° | 9km/h | 33560m | 5.5m/s | -37.2°C | 1.9% | 7.2hPa | 2.6V | 03:04:04 | 02:13:43 | 00:00:00 | |
| DK7TD | 2026-08-30 06:43:45 | 49.83847 | 8.42703 | 231° | 2km/h | 33578m | 4.8m/s | 0°C | 0% | 0hPa | 2.7V | 18:12:15 | 02:13:46 | 00:00:00 | |
| DL1ZP-14 | 2026-08-30 06:43:44 | 49.83848 | 8.42703 | 163° | 4km/h | 33573m | 6.0m/s | -37.1°C | 0.5% | 7.2hPa | 2.7V | 00:00:00 | 00:00:00 | 00:00:00 | |
| DL1XH-west | 2026-08-30 06:43:43 | 49.83849 | 8.42702 | 143° | 9km/h | 33566m | 6.5m/s | -37.2°C | 0% | 7.3hPa | 2.7V | 03:04:20 | 02:13:44 | 00:00:00 | |
| DL4BBY-15 | 2026-08-30 06:43:43 | 49.83849 | 8.42702 | 144° | 13km/h | 33567m | 6.4m/s | -38.3°C | 0% | 0hPa | 2.7V | 00:00:00 | 00:00:00 | 00:00:00 | |
| DM0DOS-11 | 2026-08-30 06:43:42 | 49.83843 | 8.42698 | 334° | 22km/h | 33533m | 5.8m/s | -37.1°C | 1.9% | 7.3hPa | 2.7V | 03:04:09 | 02:13:38 | 00:00:00 | |
| AA1-15 | 2026-08-30 06:43:41 | 49.83852 | 8.42697 | 112° | 7km/h | 33555m | 4.5m/s | -37.2°C | 0% | 7.2hPa | 2.6V | 03:04:20 | 02:13:42 | 00:00:00 | |
| DF8AY | 2026-08-30 06:43:39 | 49.83850 | 8.42694 | 357° | 9km/h | 33545m | 5.9m/s | -37.1°C | 0% | 7.2hPa | 2.7V | 03:05:11 | 02:13:40 | 00:00:00 | |
| SONDE2-11 | 2026-08-30 06:43:39 | 49.83847 | 8.42695 | 340° | 15km/h | 33539m | 6.7m/s | -37.1°C | 0.5% | 7.3hPa | 2.6V | 00:00:00 | 00:00:00 | 00:00:00 | |
| DO3DL | 2026-08-30 06:43:38 | 49.83847 | 8.42695 | 342° | 16km/h | 33539m | 6.7m/s | -37.1°C | 0.5% | 7.3hPa | 2.6V | 03:04:00 | 00:00:00 | 00:00:00 | |
| DL1XH1-15 | 2026-08-30 06:43:37 | 49.83825 | 8.42713 | 100° | 0km/h | 33507m | 6.6m/s | -37°C | 1.9% | 7.3hPa | 2.6V | 03:04:14 | 02:13:33 | 00:00:00 | |
| DK7TD | 2026-08-30 06:43:34 | 49.83828 | 8.42710 | 332° | 16km/h | 33519m | 4.9m/s | 0°C | 0% | 0hPa | 2.7V | 18:12:15 | 02:13:35 | 00:00:00 | |
| DL1XH-west | 2026-08-30 06:43:32 | 49.83825 | 8.42713 | 101° | 0km/h | 33507m | 6.6m/s | -37°C | 0% | 7.3hPa | 2.6V | 03:04:20 | 02:13:33 | 00:00:00 | |
| AA1-15 | 2026-08-30 06:43:31 | 49.83825 | 8.42712 | 144° | 7km/h | 33500m | 6m/s | -37°C | 0% | 7.3hPa | 2.6V | 03:04:20 | 02:13:32 | 00:00:00 | |
| BIOWL1-15 | 2026-08-30 06:43:30 | 49.83827 | 8.42710 | 145° | 9km/h | 33495m | 5.1m/s | -36.9°C | 0% | 7.3hPa | 2.7V | 03:04:20 | 02:13:31 | 00:00:00 | |
| DF8AY | 2026-08-30 06:43:30 | 49.83829 | 8.42707 | 9° | 2km/h | 33485m | 4.8m/s | -36.9°C | 0% | 7.3hPa | 2.7V | 03:05:11 | 02:13:29 | 00:00:00 | |
| DB0NH | 2026-08-30 06:43:29 | 49.83829 | 8.42708 | 141° | 13km/h | 33490m | 4.4m/s | -36.9°C | 1.9% | 7.3hPa | 2.7V | 00:00:00 | 02:13:30 | 00:00:00 | |
| DL1XH1-15 | 2026-08-30 06:43:28 | 49.83799 | 8.42729 | 338° | 24km/h | 33452m | 5.3m/s | -37°C | 2% | 7.3hPa | 2.7V | 03:04:24 | 02:13:23 | 00:00:00 | |
| DO3MHA-11 | 2026-08-30 06:43:26 | 49.83824 | 8.42711 | 334° | 18km/h | 33474m | 6.5m/s | -37.0°C | 1.9% | 7.3hPa | 2.6V | 00:00:00 | 02:13:27 | 00:00:00 | |
| DL1CLM-18 | 2026-08-30 06:43:24 | 49.83818 | 8.42715 | 334° | 29km/h | 33468m | 5.8m/s | 0°C | 0% | 7.4hPa | 2.6V | 03:05:00 | 00:00:00 | 00:00:00 | |
| CB1BUN | 2026-08-30 06:43:23 | 49.83812 | 8.42720 | 335° | 31km/h | 33462m | 4.8m/s | -37.2°C | 0.5% | 7.3hPa | 2.6V | 03:05:00 | 00:00:00 | 00:00:00 | |
| DM0DOS-11 | 2026-08-30 06:43:22 | 49.83790 | 8.42723 | 101° | 9km/h | 33424m | 5.5m/s | -37.2°C | 2% | 7.4hPa | 2.6V | 03:04:29 | 02:13:18 | 00:00:00 | |
| DL1XH-west | 2026-08-30 06:43:22 | 49.83799 | 8.42730 | 339° | 24km/h | 33452m | 5.3m/s | -37°C | 0% | 7.3hPa | 2.7V | 03:05:11 | 02:13:23 | 00:00:00 | |
| AA1-15 | 2026-08-30 06:43:20 | 49.83791 | 8.42732 | 19° | 7km/h | 33441m | 5.8m/s | -37.1°C | 0% | 7.4hPa | 2.6V | 03:05:11 | 02:13:21 | 00:00:00 | |
| BIOWL1-15 | 2026-08-30 06:43:19 | 49.83790 | 8.42730 | 75° | 7km/h | 33435m | 5.5m/s | -37.1°C | 0% | 7.4hPa | 2.7V | 03:05:11 | 02:13:20 | 00:00:00 | |
| DL0LBS | 2026-08-30 06:43:18 | 49.83790 | 8.42730 | 76° | 7km/h | 33436m | 5.5m/s | -37.1°C | 0.5% | 7.4hPa | 2.6V | 03:05:00 | 00:00:00 | 00:00:00 | |
| DL1XH1-15 | 2026-08-30 06:43:17 | 49.83783 | 8.42720 | 337° | 15km/h | 33397m | 5m/s | -37.1°C | 1.9% | 7.4hPa | 2.6V | 03:04:34 | 02:13:13 | 00:00:00 | |
| DF8AY | 2026-08-30 06:43:14 | 49.83788 | 8.42717 | 355° | 7km/h | 33407m | 5.6m/s | -37.1°C | 0% | 7.4hPa | 2.7V | 03:05:11 | 02:13:15 | 00:00:00 | |
| DL4BBY-15 | 2026-08-30 06:43:13 | 49.83786 | 8.42718 | 341° | 11km/h | 33402m | 5.4m/s | -38.3°C | 0% | 0hPa | 2.7V | 00:00:00 | 00:00:00 | 00:00:00 | |
| DM0DOS-11 | 2026-08-30 06:43:12 | 49.83773 | 8.42722 | 55° | 7km/h | 33368m | 5.3m/s | -37°C | 1.9% | 7.5hPa | 2.7V | 03:04:39 | 02:13:08 | 00:00:00 | |
| DL1XH-west | 2026-08-30 06:43:11 | 49.83780 | 8.42722 | 337° | 13km/h | 33391m | 5m/s | -37°C | 0% | 7.4hPa | 2.6V | 03:05:11 | 02:13:12 | 00:00:00 | |
| AA1-15 | 2026-08-30 06:43:09 | 49.83775 | 8.42724 | 359° | 5km/h | 33380m | 6.4m/s | -37°C | 0% | 7.4hPa | 2.7V | 03:05:11 | 02:13:10 | 00:00:00 | |
| BIOWL1-15 | 2026-08-30 06:43:08 | 49.83774 | 8.42723 | 40° | 5km/h | 33374m | 6m/s | -37°C | 0% | 7.4hPa | 2.7V | 03:05:11 | 02:13:09 | 00:00:00 | |
| SONDE2-11 | 2026-08-30 06:43:08 | 49.83773 | 8.42722 | 55° | 5km/h | 33368m | 5.3m/s | -37.0°C | 0.4% | 7.5hPa | 2.6V | 00:00:00 | 00:00:00 | 00:00:00 | |
| DL1XH1-15 | 2026-08-30 06:43:07 | 49.83757 | 8.42710 | 16° | 20km/h | 33340m | 5m/s | -37°C | 2% | 7.5hPa | 2.6V | 03:04:44 | 02:13:03 | 00:00:00 | |
| DF8AY | 2026-08-30 06:43:04 | 49.83766 | 8.42714 | 24° | 16km/h | 33352m | 6.4m/s | -37°C | 0% | 7.5hPa | 2.7V | 03:05:11 | 02:13:05 | 00:00:00 | |
| CB1BUN | 2026-08-30 06:43:03 | 49.83762 | 8.42712 | 18° | 20km/h | 33346m | 5.8m/s | -37.1°C | 0.5% | 7.5hPa | 2.6V | 03:05:00 | 00:00:00 | 00:00:00 | |
| DM0DOS-11 | 2026-08-30 06:43:02 | 49.83746 | 8.42694 | 92° | 9km/h | 33313m | 4.9m/s | -37.1°C | 1.9% | 7.5hPa | 2.6V | 03:04:49 | 02:12:58 | 00:00:00 | |
| DL1XH-west | 2026-08-30 06:43:00 | 49.83750 | 8.42705 | 31° | 15km/h | 33330m | 5.8m/s | -37.1°C | 0% | 7.5hPa | 2.7V | 03:05:11 | 02:13:01 | 00:00:00 | |
| BIOWL1-15 | 2026-08-30 06:42:58 | 49.83746 | 8.42698 | 80° | 11km/h | 33318m | 5.7m/s | -37.1°C | 0% | 7.5hPa | 2.7V | 03:05:11 | 02:12:59 | 00:00:00 | |
| DF8AY | 2026-08-30 06:42:54 | 49.83744 | 8.42686 | 20° | 9km/h | 33296m | 6.6m/s | -37.1°C | 0% | 7.5hPa | 2.7V | 03:05:11 | 02:12:55 | 00:00:00 | |
| DL1XH-west | 2026-08-30 06:42:50 | 49.83728 | 8.42684 | 10° | 16km/h | 33273m | 4.9m/s | -37.2°C | 0% | 7.5hPa | 2.6V | 03:05:11 | 02:12:51 | 00:00:00 | |
| BIOWL1-15 | 2026-08-30 06:42:48 | 49.83722 | 8.42679 | 58° | 9km/h | 33262m | 6.5m/s | -37.2°C | 0% | 7.6hPa | 2.7V | 03:05:11 | 02:12:49 | 00:00:00 | |
| AA1-15 | 2026-08-30 06:42:47 | 49.83722 | 8.42676 | 99° | 9km/h | 33256m | 6.1m/s | -37.3°C | 0% | 7.6hPa | 2.6V | 03:05:11 | 02:12:48 | 00:00:00 | |
| DK7TD | 2026-08-30 06:42:44 | 49.83724 | 8.42666 | 82° | 5km/h | 33241m | 4.5m/s | 0°C | 0% | 0hPa | 2.7V | 18:12:15 | 02:12:45 | 00:00:00 | |
| DL4BBY-15 | 2026-08-30 06:42:43 | 49.83723 | 8.42665 | 7° | 16km/h | 33236m | 6.0m/s | -38.5°C | 0% | 0hPa | 2.7V | 00:00:00 | 00:00:00 | 00:00:00 | |
| DM0DOS-11 | 2026-08-30 06:42:42 | 49.83693 | 8.42677 | 1° | 18km/h | 33201m | 6.3m/s | -37.5°C | 2% | 7.7hPa | 2.7V | 03:05:09 | 02:12:38 | 00:00:00 | |
| DF8AY | 2026-08-30 06:42:42 | 49.83720 | 8.42666 | 346° | 15km/h | 33230m | 6.8m/s | -37.5°C | 0% | 7.6hPa | 2.6V | 03:05:11 | 02:12:43 | 00:00:00 | |
| DL1XH-west | 2026-08-30 06:42:40 | 49.83710 | 8.42671 | 341° | 27km/h | 33217m | 5.4m/s | -37.4°C | 0% | 7.6hPa | 2.6V | 03:05:11 | 02:12:41 | 00:00:00 | |
| HSKMA3-T | 2026-08-30 06:42:39 | 49.83704 | 8.42674 | 344° | 26km/h | 33212m | 4.7m/s | -37.5°C | 0% | 7.6hPa | 2.7V | 03:05:11 | 02:12:40 | 00:00:00 | |
| BIOWL1-15 | 2026-08-30 06:42:37 | 49.83693 | 8.42677 | 2° | 18km/h | 33201m | 6.4m/s | -37.5°C | 0% | 7.7hPa | 2.7V | 03:05:11 | 02:12:38 | 00:00:00 | |
| AA1-15 | 2026-08-30 06:42:36 | 49.83689 | 8.42676 | 23° | 13km/h | 33195m | 6.1m/s | -37.5°C | 0% | 7.7hPa | 2.6V | 03:05:11 | 02:12:37 | 00:00:00 | |
| DO3MHA-11 | 2026-08-30 06:42:36 | 49.83689 | 8.42676 | 24° | 18km/h | 33195m | 6.0m/s | -37.5°C | 2.0% | 7.6hPa | 2.6V | 00:00:00 | 02:12:37 | 00:00:00 | |
| BIOWL7-15 | 2026-08-30 06:42:35 | 49.83689 | 8.42676 | 24° | 13km/h | 33195m | 6.1m/s | -37.5°C | 0.5% | 7.7hPa | 2.6V | 03:05:00 | 00:00:00 | 00:00:00 | |
| DO3DL | 2026-08-30 06:42:34 | 49.83686 | 8.42674 | 49° | 11km/h | 33190m | 5.3m/s | -37.5°C | 0.5% | 7.7hPa | 2.6V | 03:05:00 | 00:00:00 | 00:00:00 | |
| PG1ADW-2 | 2026-08-30 06:42:33 | 49.83683 | 8.42668 | 48° | 16km/h | 33180m | 4.6m/s | 0°C | 0% | 0hPa | 2.6V | 00:00:00 | 00:00:00 | 00:00:00 | |
| DM0DOS-11 | 2026-08-30 06:42:32 | 49.83654 | 8.42674 | 339° | 26km/h | 33146m | 5.2m/s | -37.5°C | 2% | 7.7hPa | 2.6V | 03:05:19 | 02:12:28 | 00:00:00 | |
| DF8AY | 2026-08-30 06:42:31 | 49.83678 | 8.42664 | 2° | 16km/h | 33169m | 6.2m/s | -37.6°C | 0% | 7.7hPa | 2.6V | 03:06:02 | 02:12:32 | 00:00:00 | |
| DL1XH-west | 2026-08-30 06:42:29 | 49.83667 | 8.42667 | 344° | 27km/h | 33156m | 5.6m/s | -37.6°C | 0% | 7.7hPa | 2.7V | 03:06:02 | 02:12:30 | 00:00:00 | |
| HSKMA3-T | 2026-08-30 06:42:28 | 49.83660 | 8.42670 | 340° | 27km/h | 33151m | 5.2m/s | -37.4°C | 0% | 7.7hPa | 2.7V | 03:06:02 | 02:12:29 | 00:00:00 | |
| BIOWL1-15 | 2026-08-30 06:42:27 | 49.83654 | 8.42674 | 339° | 26km/h | 33146m | 5.2m/s | -37.5°C | 0% | 7.7hPa | 2.6V | 03:06:02 | 02:12:28 | 00:00:00 | |
| AA1-15 | 2026-08-30 06:42:26 | 49.83648 | 8.42677 | 339° | 22km/h | 33140m | 5.8m/s | -37.5°C | 0% | 7.7hPa | 2.6V | 03:06:02 | 02:12:27 | 00:00:00 | |
| DO3MHA-11 | 2026-08-30 06:42:26 | 49.83648 | 8.42677 | 339° | 15km/h | 33141m | 5.8m/s | -37.5°C | 2.0% | 7.7hPa | 2.6V | 00:00:00 | 02:12:27 | 00:00:00 | |
| BIOWL9-15 | 2026-08-30 06:42:24 | 49.83641 | 8.42681 | 348° | 9km/h | 33129m | 5.7m/s | -37.5°C | 0.5% | 7.7hPa | 2.7V | 00:00:00 | 00:00:00 | 00:00:00 | |
| DM0DOS-11 | 2026-08-30 06:42:22 | 49.83619 | 8.42688 | 343° | 22km/h | 33089m | 5.3m/s | -37.6°C | 1.9% | 7.8hPa | 2.7V | 03:05:29 | 02:12:18 | 00:00:00 | |
| DL1XH-west | 2026-08-30 06:42:19 | 49.83629 | 8.42684 | 345° | 18km/h | 33100m | 6m/s | -37.6°C | 0% | 7.8hPa | 2.6V | 03:06:02 | 02:12:20 | 00:00:00 | |
| HSKMA3-T | 2026-08-30 06:42:17 | 49.83619 | 8.42688 | 343° | 22km/h | 33089m | 5.4m/s | -37.6°C | 0% | 7.8hPa | 2.7V | 03:06:02 | 02:12:18 | 00:00:00 | |
| AA1-15 | 2026-08-30 06:42:16 | 49.83614 | 8.42691 | 343° | 18km/h | 33084m | 5.8m/s | -37.6°C | 0% | 7.8hPa | 2.7V | 03:06:02 | 02:12:17 | 00:00:00 | |
| DK7TD | 2026-08-30 06:42:13 | 49.83604 | 8.42698 | 318° | 13km/h | 33066m | 5m/s | 0°C | 0% | 0hPa | 2.6V | 18:12:15 | 02:12:14 | 00:00:00 | |
| DL4BBY-15 | 2026-08-30 06:42:13 | 49.83604 | 8.42698 | 318° | 16km/h | 33066m | 5.0m/s | -38.8°C | 0% | 0hPa | 2.6V | 00:00:00 | 00:00:00 | 00:00:00 | |
| DM0DOS-11 | 2026-08-30 06:42:12 | 49.83585 | 8.42737 | 309° | 24km/h | 33033m | 4.5m/s | -37.7°C | 2% | 7.8hPa | 2.6V | 03:05:39 | 02:12:08 | 00:00:00 | |
| BIOWL1-15 | 2026-08-30 06:42:08 | 49.83582 | 8.42743 | 315° | 18km/h | 33028m | 5m/s | -37.8°C | 0% | 7.8hPa | 2.6V | 03:06:02 | 02:12:07 | 00:00:00 | |
| DL1XH-west | 2026-08-30 06:42:08 | 49.83589 | 8.42729 | 307° | 26km/h | 33038m | 4.9m/s | -37.7°C | 0% | 7.8hPa | 2.6V | 03:06:02 | 02:12:09 | 00:00:00 | |
| OE5DRO-10 | 2026-08-30 06:42:08 | 49.83589 | 8.42729 | 307° | 18km/h | 33038m | 4.8m/s | 0°C | 0% | 0hPa | 2.6V | 00:00:00 | 00:00:00 | 00:00:00 | |
| DL1XH1-15 | 2026-08-30 06:42:07 | 49.83575 | 8.42745 | 56° | 5km/h | 33005m | 4.5m/s | -37.6°C | 1.9% | 7.9hPa | 2.6V | 03:05:44 | 02:12:03 | 00:00:00 | |
| HSKMA3-T | 2026-08-30 06:42:07 | 49.83585 | 8.42737 | 310° | 24km/h | 33033m | 4.5m/s | -37.7°C | 0% | 7.8hPa | 2.6V | 03:06:02 | 02:12:08 | 00:00:00 | |
| AA1-15 | 2026-08-30 06:42:05 | 49.83579 | 8.42747 | 325° | 11km/h | 33022m | 6.5m/s | -37.7°C | 0% | 7.8hPa | 2.7V | 03:06:02 | 02:12:06 | 00:00:00 | |
| EDDB2-12 | 2026-08-30 06:42:04 | 49.83576 | 8.42747 | 55° | 4km/h | 33010m | 5.5m/s | -37.6°C | 0.5% | 7.9hPa | 2.6V | 00:00:00 | 00:00:00 | 00:00:00 | |
| DL3AQ-11 | 2026-08-30 06:42:03 | 49.83576 | 8.42747 | 55° | 4km/h | 33010m | 5.5m/s | -37.6°C | 0.5% | 7.9hPa | 2.6V | 00:00:00 | 00:00:00 | 00:00:00 | |
| DM0DOS-11 | 2026-08-30 06:42:02 | 49.83559 | 8.42760 | 318° | 31km/h | 32977m | 5.7m/s | -37.7°C | 2% | 7.9hPa | 2.6V | 03:05:49 | 02:11:58 | 00:00:00 | |
| DL1XH-west | 2026-08-30 06:41:57 | 49.83559 | 8.42760 | 318° | 31km/h | 32977m | 5.7m/s | -37.7°C | 0% | 7.9hPa | 2.6V | 03:06:02 | 02:11:58 | 00:00:00 | |
| HSKMA3-T | 2026-08-30 06:41:56 | 49.83553 | 8.42768 | 318° | 33km/h | 32971m | 4.8m/s | -37.8°C | 0% | 7.9hPa | 2.7V | 03:06:02 | 02:11:57 | 00:00:00 | |
| BIOWL1-15 | 2026-08-30 06:41:55 | 49.83547 | 8.42776 | 320° | 29km/h | 32966m | 5.3m/s | -37.9°C | 0% | 7.9hPa | 2.7V | 03:06:02 | 02:11:56 | 00:00:00 | |
| AA1-15 | 2026-08-30 06:41:54 | 49.83542 | 8.42782 | 324° | 22km/h | 32960m | 6m/s | -37.9°C | 0% | 7.9hPa | 2.7V | 03:06:02 | 02:11:55 | 00:00:00 | |
| DF8AY | 2026-08-30 06:41:53 | 49.83538 | 8.42786 | 336° | 15km/h | 32954m | 6m/s | -37.9°C | 0% | 7.9hPa | 2.6V | 03:06:02 | 02:11:54 | 00:00:00 | |
| NBG1-10 | 2026-08-30 06:41:53 | 49.83538 | 8.42786 | 336° | 22km/h | 32955m | 5.9m/s | -37.8°C | 2.0% | 7.9hPa | 2.6V | 00:00:00 | 02:11:54 | 00:00:00 | |
| DM0DOS-11 | 2026-08-30 06:41:52 | 49.83525 | 8.42788 | 324° | 15km/h | 32921m | 5.6m/s | -37.9°C | 2% | 8hPa | 2.6V | 03:05:59 | 02:11:48 | 00:00:00 | |
| DL3AQ-11 | 2026-08-30 06:41:51 | 49.83533 | 8.42787 | 24° | 5km/h | 32944m | 5.0m/s | -37.9°C | 0.5% | 7.9hPa | 2.6V | 00:00:00 | 00:00:00 | 00:00:00 | |
| BIOWL7-15 | 2026-08-30 06:41:50 | 49.83533 | 8.42787 | 25° | 7km/h | 32944m | 5.0m/s | -37.9°C | 0.5% | 7.9hPa | 2.6V | 00:00:00 | 00:00:00 | 00:00:00 | |
| DM7RM-13 | 2026-08-30 06:41:49 | 49.83529 | 8.42785 | 2° | 7km/h | 32934m | 5.9m/s | -38.0°C | 0.5% | 8.0hPa | 2.6V | 03:06:00 | 00:00:00 | 00:00:00 | |
| DK7TD | 2026-08-30 06:41:49 | 49.83527 | 8.42786 | 336° | 11km/h | 32927m | 6m/s | 0°C | 0% | 0hPa | 2.7V | 18:12:15 | 02:11:49 | 00:00:00 | |
| OE5DRO-10 | 2026-08-30 06:41:48 | 49.83527 | 8.42786 | 337° | 15km/h | 32928m | 6.0m/s | 0°C | 0% | 0hPa | 2.6V | 00:00:00 | 00:00:00 | 00:00:00 | |
| DL1XH1-15 | 2026-08-30 06:41:47 | 49.83506 | 8.42806 | 347° | 15km/h | 32893m | 5.8m/s | -38.1°C | 2% | 8hPa | 2.6V | 03:06:04 | 02:11:43 | 00:00:00 | |
| DL1XH-west | 2026-08-30 06:41:47 | 49.83525 | 8.42788 | 324° | 15km/h | 32921m | 5.6m/s | -37.9°C | 0% | 8hPa | 2.6V | 03:06:02 | 02:11:48 | 00:00:00 | |
| HSKMA3-T | 2026-08-30 06:41:45 | 49.83518 | 8.42796 | 323° | 18km/h | 32911m | 5m/s | -37.9°C | 0% | 8hPa | 2.7V | 03:06:02 | 02:11:46 | 00:00:00 | |
| BIOWL1-15 | 2026-08-30 06:41:44 | 49.83514 | 8.42801 | 327° | 18km/h | 32906m | 5.9m/s | -38°C | 0% | 8hPa | 2.7V | 03:06:02 | 02:11:45 | 00:00:00 | |
| AA1-15 | 2026-08-30 06:41:43 | 49.83510 | 8.42804 | 336° | 16km/h | 32900m | 6.4m/s | -38°C | 0% | 8hPa | 2.6V | 03:06:53 | 02:11:44 | 00:00:00 | |
| DF8AY | 2026-08-30 06:41:40 | 49.83498 | 8.42807 | 359° | 18km/h | 32883m | 5m/s | -38°C | 0% | 8hPa | 2.7V | 03:07:44 | 02:11:41 | 00:00:00 | |
| DL1ZP-14 | 2026-08-30 06:41:40 | 49.83482 | 8.42810 | 347° | 26km/h | 32865m | 6.4m/s | -38.0°C | 0.5% | 8.0hPa | 2.6V | 00:00:00 | 00:00:00 | 00:00:00 | |
| DL1XH1-15 | 2026-08-30 06:41:37 | 49.83450 | 8.42814 | 21° | 20km/h | 32837m | 6.8m/s | -38.2°C | 2% | 8.1hPa | 2.6V | 03:06:14 | 02:11:33 | 00:00:00 | |
| DL1XH-west | 2026-08-30 06:41:36 | 49.83475 | 8.42812 | 347° | 29km/h | 32859m | 5.7m/s | -38.1°C | 0% | 8.1hPa | 2.6V | 03:06:53 | 02:11:37 | 00:00:00 | |
| BIOWL1-15 | 2026-08-30 06:41:35 | 49.83455 | 8.42816 | 7° | 22km/h | 32843m | 5.8m/s | -38.2°C | 0% | 8.1hPa | 2.7V | 03:06:53 | 02:11:34 | 00:00:00 | |
| HSKMA3-T | 2026-08-30 06:41:34 | 49.83461 | 8.42816 | 356° | 26km/h | 32849m | 5m/s | -38.2°C | 0% | 8.1hPa | 2.7V | 03:06:53 | 02:11:35 | 00:00:00 | |
| EDDB2-12 | 2026-08-30 06:41:33 | 49.83450 | 8.42814 | 21° | 20km/h | 32837m | 6.8m/s | -38.2°C | 0.5% | 8.1hPa | 2.7V | 00:00:00 | 00:00:00 | 00:00:00 | |
| DM0DOS-11 | 2026-08-30 06:41:32 | 49.83426 | 8.42803 | 346° | 27km/h | 32811m | 6.6m/s | -38.3°C | 2% | 8.1hPa | 2.7V | 03:06:19 | 02:11:28 | 00:00:00 | |
| AA1-15 | 2026-08-30 06:41:32 | 49.83450 | 8.42814 | 21° | 20km/h | 32837m | 6.8m/s | -38.2°C | 0% | 8.1hPa | 2.6V | 03:06:53 | 02:11:33 | 00:00:00 | |
| DF8AY | 2026-08-30 06:41:29 | 49.83437 | 8.42803 | 20° | 20km/h | 32821m | 4.3m/s | -38.3°C | 0% | 8.1hPa | 2.7V | 03:07:44 | 02:11:30 | 00:00:00 | |
| DL1CLM-18 | 2026-08-30 06:41:28 | 49.83437 | 8.42803 | 21° | 20km/h | 32821m | 4.3m/s | 0°C | 0% | 0hPa | 2.7V | 00:00:00 | 00:00:00 | 00:00:00 | |
| DL1XH1-15 | 2026-08-30 06:41:27 | 49.83379 | 8.42835 | 342° | 38km/h | 32783m | 5m/s | -38.1°C | 2% | 8.2hPa | 2.7V | 03:06:24 | 02:11:23 | 00:00:00 | |
| DL1XH-west | 2026-08-30 06:41:25 | 49.83409 | 8.42813 | 333° | 44km/h | 32797m | 5.9m/s | -38.2°C | 0% | 8.1hPa | 2.6V | 03:06:53 | 02:11:26 | 00:00:00 | |
| DL1XH-15 | 2026-08-30 06:41:24 | 49.83359 | 8.42834 | 35° | 22km/h | 32764m | 6.3m/s | -38.1°C | 2.1% | 8.2hPa | 2.6V | 03:06:27 | 02:11:20 | 00:00:00 | |
| HSKMA3-T | 2026-08-30 06:41:24 | 49.83399 | 8.42822 | 332° | 46km/h | 32792m | 4.4m/s | -38.2°C | 0% | 8.1hPa | 2.7V | 03:06:53 | 02:11:25 | 00:00:00 | |
| BIOWL1-15 | 2026-08-30 06:41:23 | 49.83389 | 8.42829 | 336° | 44km/h | 32788m | 3.9m/s | -38.1°C | 0% | 8.1hPa | 2.7V | 03:06:53 | 02:11:24 | 00:00:00 | |
| DM0DOS-11 | 2026-08-30 06:41:22 | 49.83351 | 8.42823 | 44° | 18km/h | 32754m | 4.2m/s | -38.1°C | 2% | 8.2hPa | 2.7V | 03:06:29 | 02:11:18 | 00:00:00 | |
| AA1-15 | 2026-08-30 06:41:21 | 49.83371 | 8.42838 | 354° | 31km/h | 32778m | 6.3m/s | -38.2°C | 0% | 8.2hPa | 2.6V | 03:06:53 | 02:11:22 | 00:00:00 | |
| DF8AY | 2026-08-30 06:41:18 | 49.83355 | 8.42829 | 48° | 20km/h | 32758m | 5.2m/s | -38.1°C | 0% | 8.2hPa | 2.7V | 03:07:44 | 02:11:19 | 00:00:00 | |
| DF3TZ-5 | 2026-08-30 06:41:17 | 49.83351 | 8.42823 | 44° | 18km/h | 32754m | 4.2m/s | -38.1°C | 0.5% | 8.2hPa | 2.6V | 00:00:00 | 00:00:00 | 00:00:00 | |
| BUE01 | 2026-08-30 06:41:16 | 49.83343 | 8.42817 | 2° | 20km/h | 32744m | 5.9m/s | -38.2°C | 0.5% | 8.2hPa | 2.6V | 00:00:00 | 00:00:00 | 00:00:00 | |
| DB0NH | 2026-08-30 06:41:15 | 49.83343 | 8.42817 | 3° | 31km/h | 32745m | 5.9m/s | -38.2°C | 2.0% | 8.1hPa | 2.6V | 00:00:00 | 02:11:16 | 00:00:00 | |
| DL1XH-15 | 2026-08-30 06:41:14 | 49.83287 | 8.42847 | 352° | 42km/h | 32712m | 5.3m/s | -38.1°C | 2.1% | 8.2hPa | 2.6V | 03:06:37 | 02:11:10 | 00:00:00 | |
| DL1XH-west | 2026-08-30 06:41:14 | 49.83337 | 8.42819 | 345° | 29km/h | 32738m | 6.5m/s | -38.3°C | 0% | 8.2hPa | 2.6V | 03:06:53 | 02:11:15 | 00:00:00 | |
| HSKMA3-T | 2026-08-30 06:41:13 | 49.83329 | 8.42823 | 337° | 38km/h | 32732m | 6m/s | -38.3°C | 0% | 8.2hPa | 2.6V | 03:06:53 | 02:11:14 | 00:00:00 | |
| DK7TD | 2026-08-30 06:41:12 | 49.83319 | 8.42830 | 336° | 46km/h | 32726m | 5.2m/s | 0°C | 0% | 0hPa | 2.7V | 18:12:15 | 02:11:13 | 00:00:00 | |
| AA1-15 | 2026-08-30 06:41:10 | 49.83298 | 8.42843 | 343° | 46km/h | 32717m | 4.4m/s | -38.1°C | 0% | 8.2hPa | 2.7V | 03:06:53 | 02:11:11 | 00:00:00 | |
| PG1ADW-2 | 2026-08-30 06:41:10 | 49.83298 | 8.42843 | 344° | 31km/h | 32717m | 4.3m/s | 0°C | 0% | 0hPa | 2.7V | 00:00:00 | 00:00:00 | 00:00:00 | |
| DC4HF-4 | 2026-08-30 06:41:09 | 49.83277 | 8.42847 | 5° | 37km/h | 32707m | 6.1m/s | -38.2°C | 0.5% | 8.2hPa | 2.7V | 00:00:00 | 00:00:00 | 00:00:00 | |
| DF8AY | 2026-08-30 06:41:08 | 49.83277 | 8.42847 | 5° | 37km/h | 32706m | 6.1m/s | -38.2°C | 0% | 8.2hPa | 2.6V | 03:07:44 | 02:11:09 | 00:00:00 | |
| DL1XH1-15 | 2026-08-30 06:41:08 | 49.83241 | 8.42826 | 337° | 22km/h | 32674m | 6m/s | -38.6°C | 2.1% | 8.2hPa | 2.7V | 03:06:44 | 02:11:03 | 00:00:00 | |
| DL1XH-west | 2026-08-30 06:41:04 | 49.83251 | 8.42827 | 28° | 22km/h | 32685m | 4.7m/s | -38.6°C | 0% | 8.2hPa | 2.6V | 03:06:53 | 02:11:05 | 00:00:00 | |
| BIOWL1-15 | 2026-08-30 06:41:02 | 49.83241 | 8.42826 | 338° | 22km/h | 32674m | 6m/s | -38.6°C | 0% | 8.2hPa | 2.7V | 03:06:53 | 02:11:03 | 00:00:00 | |
| AA1-15 | 2026-08-30 06:40:59 | 49.83224 | 8.42850 | 310° | 37km/h | 32657m | 5.2m/s | -38.5°C | 0% | 8.3hPa | 2.6V | 03:06:53 | 02:11:00 | 00:00:00 | |
| DL1XH1-15 | 2026-08-30 06:40:57 | 49.83175 | 8.42890 | 355° | 33km/h | 32618m | 6.3m/s | -38.5°C | 2.1% | 8.3hPa | 2.6V | 03:06:54 | 02:10:53 | 00:00:00 | |
| DF8AY | 2026-08-30 06:40:56 | 49.83205 | 8.42878 | 326° | 31km/h | 32640m | 5.3m/s | -38.4°C | 0% | 8.3hPa | 2.7V | 03:07:44 | 02:10:57 | 00:00:00 | |
| DL1XH-west | 2026-08-30 06:40:54 | 49.83191 | 8.42887 | 348° | 29km/h | 32630m | 4.9m/s | -38.4°C | 0% | 8.3hPa | 2.6V | 03:06:53 | 02:10:55 | 00:00:00 | |
| BIOWL1-15 | 2026-08-30 06:40:53 | 49.83167 | 8.42891 | 355° | 35km/h | 32613m | 5.6m/s | -38.6°C | 0% | 8.3hPa | 2.7V | 03:07:44 | 02:10:52 | 00:00:00 | |
| HSKMA3-T | 2026-08-30 06:40:52 | 49.83175 | 8.42890 | 356° | 33km/h | 32618m | 6.3m/s | -38.5°C | 0% | 8.3hPa | 2.6V | 03:07:44 | 02:10:53 | 00:00:00 | |
| AA1-15 | 2026-08-30 06:40:48 | 49.83144 | 8.42896 | 349° | 24km/h | 32597m | 5.3m/s | -38.6°C | 0% | 8.4hPa | 2.6V | 03:07:44 | 02:10:49 | 00:00:00 | |
| AU51GT2 | 2026-08-30 06:40:47 | 49.83138 | 8.42898 | 343° | 18km/h | 32592m | 6.1m/s | -38.6°C | 0.5% | 8.4hPa | 2.6V | 00:00:00 | 00:00:00 | 00:00:00 | |
| DL8DAS-14 | 2026-08-30 06:40:46 | 49.83132 | 8.42904 | 310° | 13km/h | 32580m | 5.0m/s | -38.7°C | 0.5% | 8.4hPa | 2.6V | 00:00:00 | 00:00:00 | 00:00:00 | |
| BUE01 | 2026-08-30 06:40:45 | 49.83130 | 8.42910 | 298° | 18km/h | 32575m | 4.5m/s | -38.7°C | 0.5% | 8.4hPa | 2.6V | 00:00:00 | 00:00:00 | 00:00:00 | |
| DF7PN | 2026-08-30 06:40:44 | 49.83130 | 8.42910 | 298° | 18km/h | 32575m | 4.5m/s | -38.7°C | 0.5% | 8.4hPa | 2.6V | 00:00:00 | 00:00:00 | 00:00:00 | |
| DL1XH-west | 2026-08-30 06:40:43 | 49.83127 | 8.42917 | 296° | 26km/h | 32570m | 5.2m/s | -38.8°C | 0% | 8.4hPa | 2.6V | 03:07:44 | 02:10:44 | 00:00:00 | |
| HSKMA3-T | 2026-08-30 06:40:42 | 49.83124 | 8.42927 | 298° | 33km/h | 32564m | 6.5m/s | -38.7°C | 0% | 8.4hPa | 2.7V | 03:07:44 | 02:10:43 | 00:00:00 | |
| BIOWL1-15 | 2026-08-30 06:40:42 | 49.83113 | 8.42953 | 308° | 44km/h | 32552m | 5.3m/s | -38.5°C | 0% | 8.4hPa | 2.7V | 03:07:44 | 02:10:41 | 00:00:00 | |
| DK7TD | 2026-08-30 06:40:41 | 49.83119 | 8.42940 | 302° | 40km/h | 32558m | 6.7m/s | 0°C | 0% | 0hPa | 2.7V | 18:12:15 | 02:10:42 | 00:00:00 | |
| AA1-15 | 2026-08-30 06:40:37 | 49.83091 | 8.42983 | 335° | 31km/h | 32538m | 5.6m/s | -38.4°C | 0% | 8.4hPa | 2.6V | 03:07:44 | 02:10:38 | 00:00:00 | |
| DL1XH1-15 | 2026-08-30 06:40:37 | 49.83076 | 8.42981 | 231° | 4km/h | 32511m | 4.6m/s | -38.1°C | 2% | 8.5hPa | 2.6V | 03:07:14 | 02:10:33 | 00:00:00 | |
| DL1XH-west | 2026-08-30 06:40:32 | 49.83076 | 8.42981 | 231° | 4km/h | 32511m | 4.6m/s | -38.1°C | 0% | 8.5hPa | 2.6V | 03:07:44 | 02:10:33 | 00:00:00 | |
| HSKMA3-T | 2026-08-30 06:40:31 | 49.83076 | 8.42984 | 260° | 13km/h | 32506m | 5.5m/s | -38.2°C | 0% | 8.5hPa | 2.6V | 03:07:44 | 02:10:32 | 00:00:00 | |
| BIOWL1-15 | 2026-08-30 06:40:30 | 49.83076 | 8.42991 | 273° | 24km/h | 32500m | 6m/s | -38.2°C | 0% | 8.5hPa | 2.7V | 03:07:44 | 02:10:31 | 00:00:00 | |
| DK7TD | 2026-08-30 06:40:28 | 49.83073 | 8.43015 | 289° | 38km/h | 32489m | 5.3m/s | 0°C | 0% | 0hPa | 2.7V | 18:12:15 | 02:10:29 | 00:00:00 | |
| DL1XH1-15 | 2026-08-30 06:40:27 | 49.83041 | 8.43065 | 0° | 18km/h | 32457m | 4.5m/s | -38.6°C | 2% | 8.5hPa | 2.6V | 03:07:24 | 02:10:23 | 00:00:00 | |
| AA1-15 | 2026-08-30 06:40:26 | 49.83064 | 8.43043 | 305° | 38km/h | 32479m | 5.3m/s | -38.4°C | 0% | 8.5hPa | 2.6V | 03:07:44 | 02:10:27 | 00:00:00 | |
| DF8AY | 2026-08-30 06:40:24 | 49.83046 | 8.43064 | 348° | 24km/h | 32462m | 5.1m/s | -38.5°C | 0% | 8.5hPa | 2.6V | 03:07:44 | 02:10:24 | 00:00:00 | |
| DL1XH-west | 2026-08-30 06:40:22 | 49.83041 | 8.43065 | 1° | 18km/h | 32457m | 4.5m/s | -38.6°C | 0% | 8.5hPa | 2.6V | 03:07:44 | 02:10:23 | 00:00:00 | |
| HSKMA3-T | 2026-08-30 06:40:21 | 49.83037 | 8.43065 | 359° | 11km/h | 32453m | 4.2m/s | -38.6°C | 0% | 8.6hPa | 2.7V | 03:07:44 | 02:10:22 | 00:00:00 | |
| BIOWL1-15 | 2026-08-30 06:40:21 | 49.83035 | 8.43069 | 257° | 13km/h | 32443m | 6.3m/s | -38.7°C | 0% | 8.6hPa | 2.7V | 03:07:44 | 02:10:20 | 00:00:00 | |
| BIOWL9-15 | 2026-08-30 06:40:20 | 49.83035 | 8.43066 | 310° | 5km/h | 32448m | 5.0m/s | -38.7°C | 0.5% | 8.6hPa | 2.7V | 00:00:00 | 00:00:00 | 00:00:00 | |
| DK5PH-5 | 2026-08-30 06:40:19 | 49.83035 | 8.43069 | 257° | 20km/h | 32443m | 6.3m/s | -38.7°C | 2.1% | 8.5hPa | 2.7V | 03:07:00 | 02:10:20 | 00:00:00 | |
| CB1BUN | 2026-08-30 06:40:18 | 49.83035 | 8.43069 | 258° | 13km/h | 32443m | 6.3m/s | -38.7°C | 0.5% | 8.6hPa | 2.6V | 03:07:00 | 00:00:00 | 00:00:00 | |
| DL1XH1-15 | 2026-08-30 06:40:17 | 49.83049 | 8.43141 | 288° | 16km/h | 32405m | 6.4m/s | -38.8°C | 2.1% | 8.6hPa | 2.6V | 03:07:34 | 02:10:13 | 00:00:00 | |
| AA1-15 | 2026-08-30 06:40:15 | 49.83046 | 8.43110 | 252° | 35km/h | 32421m | 4m/s | -38.6°C | 0% | 8.6hPa | 2.7V | 03:07:44 | 02:10:16 | 00:00:00 | |
| DB0NH | 2026-08-30 06:40:15 | 49.83046 | 8.43110 | 252° | 16km/h | 32421m | 4.0m/s | -38.5°C | 2.0% | 8.5hPa | 2.7V | 00:00:00 | 02:10:16 | 00:00:00 | |
| BUE01 | 2026-08-30 06:40:14 | 49.83049 | 8.43133 | 267° | 22km/h | 32411m | 6.0m/s | -38.7°C | 0.5% | 8.6hPa | 2.7V | 00:00:00 | 00:00:00 | 00:00:00 | |
| DL4BBY-15 | 2026-08-30 06:40:13 | 49.83049 | 8.43133 | 268° | 16km/h | 32411m | 5.9m/s | -39.8°C | 0% | 0hPa | 2.7V | 00:00:00 | 00:00:00 | 00:00:00 | |
| DL1XH-15 | 2026-08-30 06:40:12 | 49.83032 | 8.43158 | 302° | 16km/h | 32379m | 5.2m/s | -39.1°C | 2.1% | 8.7hPa | 2.7V | 03:07:39 | 02:10:08 | 00:00:00 | |
| DF8AY | 2026-08-30 06:40:11 | 49.83039 | 8.43203 | 232° | 26km/h | 32352m | 5.8m/s | -39°C | 0% | 8.7hPa | 2.6V | 03:07:44 | 02:10:03 | 00:00:00 | |
| DL1XH-west | 2026-08-30 06:40:11 | 49.83046 | 8.43146 | 320° | 15km/h | 32398m | 6.1m/s | -38.9°C | 0% | 8.6hPa | 2.6V | 03:07:44 | 02:10:12 | 00:00:00 | |
| BIOWL1-15 | 2026-08-30 06:40:09 | 49.83039 | 8.43151 | 341° | 16km/h | 32388m | 4.4m/s | -39.1°C | 0% | 8.6hPa | 2.7V | 03:07:44 | 02:10:10 | 00:00:00 | |
| AA1-15 | 2026-08-30 06:40:05 | 49.83031 | 8.43174 | 261° | 26km/h | 32368m | 5.6m/s | -39.1°C | 0% | 8.7hPa | 2.6V | 03:07:44 | 02:10:06 | 00:00:00 | |
| PG1ADW-2 | 2026-08-30 06:40:05 | 49.83031 | 8.43174 | 261° | 13km/h | 32368m | 5.6m/s | 0°C | 0% | 0hPa | 2.6V | 00:00:00 | 02:10:06 | 00:00:00 | |
| DB0UT-7 | 2026-08-30 06:40:04 | 49.83033 | 8.43184 | 250° | 15km/h | 32362m | 5.2m/s | -39.0°C | 2.1% | 8.6hPa | 2.6V | 03:07:00 | 02:10:05 | 00:00:00 | |
| DL3AQ-11 | 2026-08-30 06:40:03 | 49.83036 | 8.43194 | 240° | 27km/h | 32357m | 4.8m/s | -39.1°C | 0.5% | 8.7hPa | 2.6V | 00:00:00 | 00:00:00 | 00:00:00 | |
| DL1XH-15 | 2026-08-30 06:40:02 | 49.83057 | 8.43218 | 199° | 11km/h | 32324m | 5.9m/s | -39.3°C | 2.1% | 8.7hPa | 2.6V | 03:07:49 | 02:09:58 | 00:00:00 | |
| HSKMA3-T | 2026-08-30 06:40:01 | 49.83043 | 8.43209 | 221° | 20km/h | 32346m | 5.9m/s | -39.1°C | 0% | 8.7hPa | 2.6V | 03:08:35 | 02:10:02 | 00:00:00 | |
| DL1XH-west | 2026-08-30 06:40:00 | 49.83047 | 8.43213 | 207° | 16km/h | 32340m | 5.4m/s | -39.1°C | 0% | 8.7hPa | 2.7V | 03:08:35 | 02:10:01 | 00:00:00 | |
| BIOWL1-15 | 2026-08-30 06:39:58 | 49.83054 | 8.43217 | 192° | 13km/h | 32330m | 5m/s | -39.2°C | 0% | 8.7hPa | 2.7V | 03:08:35 | 02:09:59 | 00:00:00 | |
| D01LWL | 2026-08-30 06:39:58 | 49.83060 | 8.43220 | 214° | 11km/h | 32319m | 5.8m/s | -39.3°C | 0.5% | 8.7hPa | 2.7V | 00:00:00 | 00:00:00 | 00:00:00 | |
| DL1XH1-15 | 2026-08-30 06:39:57 | 49.83065 | 8.43236 | 270° | 9km/h | 32298m | 5.9m/s | -39.5°C | 2.2% | 8.7hPa | 2.7V | 03:07:54 | 02:09:53 | 00:00:00 | |
| AA1-15 | 2026-08-30 06:39:54 | 49.83063 | 8.43228 | 246° | 13km/h | 32308m | 4.6m/s | -39.5°C | 0% | 8.7hPa | 2.7V | 03:08:35 | 02:09:55 | 00:00:00 | |
| DD1CC8 | 2026-08-30 06:39:53 | 49.83065 | 8.43236 | 270° | 7km/h | 32298m | 5.9m/s | -39.6°C | 0.5% | 8.7hPa | 2.7V | 00:00:00 | 00:00:00 | 00:00:00 | |
| DL1XH-15 | 2026-08-30 06:39:52 | 49.83064 | 8.43249 | 254° | 13km/h | 32271m | 5.6m/s | -39.4°C | 2.1% | 8.8hPa | 2.7V | 03:07:59 | 02:09:48 | 00:00:00 | |
| DM0DOS-11 | 2026-08-30 06:39:51 | 49.83065 | 8.43254 | 247° | 18km/h | 32266m | 6.4m/s | -39.4°C | 2.1% | 8.8hPa | 2.7V | 03:08:00 | 02:09:47 | 00:00:00 | |
| DL1XH-west | 2026-08-30 06:39:50 | 49.83064 | 8.43241 | 301° | 5km/h | 32286m | 5.4m/s | -39.5°C | 0% | 8.8hPa | 2.6V | 03:08:35 | 02:09:51 | 00:00:00 | |
| BIOWL1-15 | 2026-08-30 06:39:48 | 49.83063 | 8.43245 | 267° | 7km/h | 32276m | 4.6m/s | -39.5°C | 0% | 8.8hPa | 2.7V | 03:08:35 | 02:09:49 | 00:00:00 | |
| DL1XH1-15 | 2026-08-30 06:39:47 | 49.83079 | 8.43277 | 197° | 18km/h | 32245m | 5.6m/s | -39.7°C | 2.1% | 8.8hPa | 2.7V | 03:08:04 | 02:09:43 | 00:00:00 | |
| DF8AY | 2026-08-30 06:39:46 | 49.83065 | 8.43254 | 247° | 18km/h | 32266m | 6.4m/s | -39.4°C | 0% | 8.8hPa | 2.7V | 03:10:17 | 02:09:47 | 00:00:00 | |
| AU51GT2 | 2026-08-30 06:39:45 | 49.83067 | 8.43261 | 238° | 20km/h | 32260m | 5.4m/s | -39.4°C | 0.5% | 8.8hPa | 2.7V | 00:00:00 | 00:00:00 | 00:00:00 | |
| DF3TZ-5 | 2026-08-30 06:39:44 | 49.83070 | 8.43268 | 229° | 22km/h | 32255m | 4.3m/s | -39.5°C | 0.5% | 8.8hPa | 2.7V | 00:00:00 | 00:00:00 | 00:00:00 | |
| AA1-15 | 2026-08-30 06:39:43 | 49.83074 | 8.43274 | 216° | 22km/h | 32250m | 4.4m/s | -39.7°C | 0% | 8.8hPa | 2.7V | 03:08:35 | 02:09:44 | 00:00:00 | |
| BUE01 | 2026-08-30 06:39:43 | 49.83079 | 8.43277 | 197° | 18km/h | 32245m | 5.6m/s | -39.7°C | 0.5% | 8.8hPa | 2.6V | 00:00:00 | 00:00:00 | 00:00:00 | |
| DJ2DS-15 | 2026-08-30 06:39:42 | 49.83079 | 8.43277 | 198° | 13km/h | 32246m | 5.6m/s | -39.7°C | 2.1% | 8.8hPa | 2.6V | 00:00:00 | 02:09:43 | 00:00:00 | |
| DM0DOS-11 | 2026-08-30 06:39:41 | 49.83089 | 8.43265 | 332° | 11km/h | 32212m | 6.2m/s | -40.1°C | 2.2% | 8.8hPa | 2.6V | 03:08:10 | 02:09:37 | 00:00:00 | |
| BIOWL1-15 | 2026-08-30 06:39:41 | 49.83091 | 8.43265 | 40° | 5km/h | 32218m | 5.6m/s | -39.9°C | 0% | 8.8hPa | 2.6V | 03:08:35 | 02:09:38 | 00:00:00 | |
| DL1XH-west | 2026-08-30 06:39:39 | 49.83090 | 8.43271 | 126° | 15km/h | 32228m | 4.7m/s | -39.8°C | 0% | 8.8hPa | 2.7V | 03:08:35 | 02:09:40 | 00:00:00 | |
| DF8AY | 2026-08-30 06:39:35 | 49.83087 | 8.43269 | 312° | 18km/h | 32206m | 5.8m/s | -40.1°C | 0% | 8.9hPa | 2.7V | 03:10:17 | 02:09:36 | 00:00:00 | |
| NBG1-10 | 2026-08-30 06:39:35 | 49.83086 | 8.43269 | 313° | 11km/h | 32207m | 5.8m/s | -40.0°C | 2.2% | 8.8hPa | 2.7V | 00:00:00 | 02:09:36 | 00:00:00 | |
| DB0UT-7 | 2026-08-30 06:39:34 | 49.83083 | 8.43275 | 304° | 11km/h | 32202m | 4.9m/s | -39.9°C | 2.2% | 8.8hPa | 2.7V | 00:00:00 | 00:00:00 | 00:00:00 | |
| HTAHTA | 2026-08-30 06:39:33 | 49.83080 | 8.43284 | 297° | 26km/h | 32197m | 4.5m/s | -40.0°C | 0.5% | 8.9hPa | 2.7V | 00:00:00 | 00:00:00 | 00:00:00 | |
| DL1XH-15 | 2026-08-30 06:39:32 | 49.83073 | 8.43308 | 105° | 2km/h | 32166m | 4.7m/s | -40.4°C | 2.3% | 8.9hPa | 2.7V | 03:08:19 | 02:09:28 | 00:00:00 | |
| AA1-15 | 2026-08-30 06:39:32 | 49.83078 | 8.43293 | 294° | 24km/h | 32192m | 4.6m/s | -40°C | 0% | 8.9hPa | 2.6V | 03:08:35 | 02:09:33 | 00:00:00 | |
| DL1XH-west | 2026-08-30 06:39:28 | 49.83073 | 8.43309 | 77° | 0km/h | 32170m | 5m/s | -40.3°C | 0% | 8.9hPa | 2.7V | 03:08:35 | 02:09:29 | 00:00:00 | |
| BIOWL1-15 | 2026-08-30 06:39:27 | 49.83073 | 8.43308 | 105° | 2km/h | 32166m | 4.7m/s | -40.4°C | 0% | 8.9hPa | 2.7V | 03:08:35 | 02:09:28 | 00:00:00 | |
| DF8AY | 2026-08-30 06:39:24 | 49.83073 | 8.43312 | 279° | 11km/h | 32149m | 5.4m/s | -40.7°C | 0% | 8.9hPa | 2.6V | 03:10:17 | 02:09:25 | 00:00:00 | |
| DD1CC2-15 | 2026-08-30 06:39:23 | 49.83073 | 8.43312 | 280° | 11km/h | 32150m | 5.4m/s | -40.7°C | 0.6% | 8.9hPa | 2.7V | 03:08:00 | 00:00:00 | 00:00:00 | |
| DL1XH-15 | 2026-08-30 06:39:22 | 49.83063 | 8.43325 | 50° | 11km/h | 32113m | 5.1m/s | -40.4°C | 2.3% | 9hPa | 2.7V | 03:08:29 | 02:09:18 | 00:00:00 | |
| DD1CC8 | 2026-08-30 06:39:22 | 49.83070 | 8.43326 | 301° | 11km/h | 32136m | 4.9m/s | -40.7°C | 0.6% | 8.9hPa | 2.6V | 00:00:00 | 00:00:00 | 00:00:00 | |
| DM0DOS-11 | 2026-08-30 06:39:21 | 49.83061 | 8.43321 | 49° | 11km/h | 32108m | 5.2m/s | -40.4°C | 2.3% | 9hPa | 2.6V | 03:08:30 | 02:09:17 | 00:00:00 | |
| AA1-15 | 2026-08-30 06:39:21 | 49.83070 | 8.43326 | 302° | 11km/h | 32135m | 4.9m/s | -40.7°C | 0% | 8.9hPa | 2.7V | 03:08:35 | 02:09:22 | 00:00:00 | |
| BIOWL1-15 | 2026-08-30 06:39:18 | 49.83061 | 8.43321 | 50° | 11km/h | 32108m | 5.2m/s | -40.4°C | 0% | 9hPa | 2.6V | 03:08:35 | 02:09:17 | 00:00:00 | |
| HSKMA3-T | 2026-08-30 06:39:18 | 49.83065 | 8.43328 | 43° | 11km/h | 32118m | 5.6m/s | -40.5°C | 0% | 9hPa | 2.7V | 03:08:35 | 02:09:19 | 00:00:00 | |
| DL1XH-west | 2026-08-30 06:39:17 | 49.83063 | 8.43325 | 51° | 11km/h | 32113m | 5.1m/s | -40.4°C | 0% | 9hPa | 2.7V | 03:08:35 | 02:09:18 | 00:00:00 | |
| DF8AY | 2026-08-30 06:39:14 | 49.83058 | 8.43316 | 31° | 7km/h | 32096m | 5.6m/s | -40.4°C | 0% | 9hPa | 2.7V | 03:10:17 | 02:09:15 | 00:00:00 | |
| AU51GT2 | 2026-08-30 06:39:14 | 49.83058 | 8.43316 | 30° | 5km/h | 32096m | 5.6m/s | -40.4°C | 0.6% | 9.0hPa | 2.6V | 00:00:00 | 00:00:00 | 00:00:00 | |
| HEMX73-11 | 2026-08-30 06:39:13 | 49.83056 | 8.43315 | 27° | 5km/h | 32091m | 5.0m/s | -40.4°C | 0.6% | 9.0hPa | 2.6V | 03:08:00 | 00:00:00 | 00:00:00 | |
| DL1XH-15 | 2026-08-30 06:39:12 | 49.83049 | 8.43299 | 29° | 11km/h | 32059m | 4.7m/s | -40.1°C | 2.2% | 9.1hPa | 2.6V | 03:08:39 | 02:09:08 | 00:00:00 | |
| BUE01 | 2026-08-30 06:39:12 | 49.83052 | 8.43306 | 64° | 11km/h | 32069m | 5.4m/s | -40.2°C | 0.6% | 9.0hPa | 2.6V | 00:00:00 | 00:00:00 | 00:00:00 | |
| DM0DOS-11 | 2026-08-30 06:39:11 | 49.83046 | 8.43298 | 359° | 11km/h | 32053m | 6m/s | -40.1°C | 2.2% | 9.1hPa | 2.6V | 03:08:40 | 02:09:07 | 00:00:00 | |
| AA1-15 | 2026-08-30 06:39:10 | 49.83053 | 8.43310 | 66° | 9km/h | 32074m | 6.3m/s | -40.3°C | 0% | 9.1hPa | 2.7V | 03:09:26 | 02:09:11 | 00:00:00 | |
| HSKMA3-T | 2026-08-30 06:39:07 | 49.83049 | 8.43299 | 29° | 11km/h | 32059m | 4.7m/s | -40.1°C | 0% | 9.1hPa | 2.6V | 03:09:26 | 02:09:08 | 00:00:00 | |
| DL1XH-west | 2026-08-30 06:39:06 | 49.83046 | 8.43298 | 360° | 11km/h | 32053m | 6m/s | -40.1°C | 0% | 9.1hPa | 2.6V | 03:09:26 | 02:09:07 | 00:00:00 | |
| DF8AY | 2026-08-30 06:39:03 | 49.83036 | 8.43306 | 326° | 18km/h | 32036m | 4.7m/s | -40.2°C | 0% | 9.1hPa | 2.7V | 03:10:17 | 02:09:04 | 00:00:00 | |
| DL1XH-15 | 2026-08-30 06:39:02 | 49.83017 | 8.43297 | 55° | 15km/h | 32005m | 4.1m/s | -40.2°C | 2.3% | 9.2hPa | 2.7V | 03:08:49 | 02:08:58 | 00:00:00 | |
| DJ2DS-15 | 2026-08-30 06:39:02 | 49.83032 | 8.43310 | 336° | 16km/h | 32032m | 4.4m/s | -40.1°C | 2.2% | 9.1hPa | 2.7V | 03:08:00 | 02:09:03 | 00:00:00 | |
| DM0DOS-11 | 2026-08-30 06:39:01 | 49.83015 | 8.43292 | 40° | 13km/h | 32000m | 5.5m/s | -40.2°C | 2.3% | 9.1hPa | 2.7V | 03:08:50 | 02:08:57 | 00:00:00 | |
| DB0ND-19 | 2026-08-30 06:39:00 | 49.83022 | 8.43307 | 48° | 15km/h | 32014m | 5.5m/s | -40.2°C | 0.6% | 9.1hPa | 2.6V | 00:00:00 | 00:00:00 | 00:00:00 | |
| IW2NTF | 2026-08-30 06:38:59 | 49.83010 | 8.43292 | 331° | 13km/h | 31988m | 6.2m/s | -40.3°C | 2.3% | 9.2hPa | 2.6V | 03:08:52 | 02:08:55 | 00:00:00 | |
| AA1-15 | 2026-08-30 06:38:59 | 49.83022 | 8.43307 | 48° | 16km/h | 32014m | 5.5m/s | -40.2°C | 0% | 9.1hPa | 2.6V | 03:09:26 | 02:09:00 | 00:00:00 | |
| HSKMA3-T | 2026-08-30 06:38:57 | 49.83017 | 8.43297 | 55° | 16km/h | 32005m | 4.1m/s | -40.2°C | 0% | 9.2hPa | 2.7V | 03:09:26 | 02:08:58 | 00:00:00 | |
| DL1XH-west | 2026-08-30 06:38:56 | 49.83015 | 8.43292 | 41° | 13km/h | 32000m | 5.5m/s | -40.2°C | 0% | 9.2hPa | 2.7V | 03:09:26 | 02:08:57 | 00:00:00 | |
| BIOWL1-15 | 2026-08-30 06:38:55 | 49.83012 | 8.43291 | 5° | 11km/h | 31994m | 6.3m/s | -40.2°C | 0% | 9.1hPa | 2.6V | 03:09:26 | 02:08:56 | 00:00:00 | |
| DO3DL | 2026-08-30 06:38:54 | 49.83012 | 8.43290 | 6° | 11km/h | 31995m | 6.3m/s | -40.2°C | 0.6% | 9.1hPa | 2.7V | 03:09:00 | 00:00:00 | 00:00:00 | |
| DL1XH-15 | 2026-08-30 06:38:52 | 49.82989 | 8.43319 | 341° | 18km/h | 31949m | 5.6m/s | -40.2°C | 2.2% | 9.2hPa | 2.7V | 03:08:59 | 02:08:48 | 00:00:00 | |
| DM0DOS-11 | 2026-08-30 06:38:51 | 49.82984 | 8.43321 | 344° | 20km/h | 31943m | 6.5m/s | -40.2°C | 2.2% | 9.2hPa | 2.7V | 03:09:00 | 02:08:47 | 00:00:00 | |
| DD1CC8 | 2026-08-30 06:38:51 | 49.82998 | 8.43310 | 313° | 15km/h | 31965m | 5.8m/s | -40.1°C | 0.5% | 9.2hPa | 2.6V | 00:00:00 | 00:00:00 | 00:00:00 | |
| DO1YAY-16 | 2026-08-30 06:38:50 | 49.82998 | 8.43310 | 313° | 15km/h | 31965m | 5.8m/s | -40.1°C | 0.5% | 9.2hPa | 2.6V | 00:00:00 | 00:00:00 | 00:00:00 | |
| IW2NTF | 2026-08-30 06:38:49 | 49.82973 | 8.43325 | 349° | 24km/h | 31931m | 5.2m/s | -40.1°C | 2.2% | 9.2hPa | 2.6V | 03:09:02 | 02:08:45 | 00:00:00 | |
| AA1-15 | 2026-08-30 06:38:48 | 49.82992 | 8.43316 | 336° | 15km/h | 31955m | 4.8m/s | -40.1°C | 0% | 9.2hPa | 2.6V | 03:09:26 | 02:08:49 | 00:00:00 | |
| BIOWL1-15 | 2026-08-30 06:38:47 | 49.82979 | 8.43323 | 346° | 24km/h | 31937m | 5.9m/s | -40.1°C | 0% | 9.2hPa | 2.6V | 03:09:26 | 02:08:46 | 00:00:00 | |
| HSKMA3-T | 2026-08-30 06:38:47 | 49.82989 | 8.43319 | 342° | 18km/h | 31949m | 5.6m/s | -40.2°C | 0% | 9.2hPa | 2.7V | 03:09:26 | 02:08:48 | 00:00:00 | |
| DL1XH-west | 2026-08-30 06:38:46 | 49.82984 | 8.43321 | 345° | 20km/h | 31943m | 6.5m/s | -40.2°C | 0% | 9.2hPa | 2.7V | 03:09:26 | 02:08:47 | 00:00:00 | |
| DK7TD | 2026-08-30 06:38:44 | 49.82973 | 8.43325 | 350° | 24km/h | 31931m | 5.2m/s | 0°C | 0% | 0hPa | 2.6V | 18:12:15 | 02:08:45 | 00:00:00 | |
| SONCRA | 2026-08-30 06:38:44 | 49.82973 | 8.43325 | 349° | 22km/h | 31932m | 5.2m/s | -40.1°C | 0.5% | 9.2hPa | 2.7V | 00:00:00 | 00:00:00 | 00:00:00 | |
| DL4BBY-15 | 2026-08-30 06:38:43 | 49.82967 | 8.43326 | 356° | 22km/h | 31927m | 5.1m/s | -41.3°C | 0% | 0hPa | 2.7V | 00:00:00 | 00:00:00 | 00:00:00 | |
| DL1XH-15 | 2026-08-30 06:38:42 | 49.82949 | 8.43328 | 318° | 16km/h | 31894m | 5.9m/s | -40.1°C | 2.2% | 9.3hPa | 2.7V | 03:09:09 | 02:08:38 | 00:00:00 | |
| DJ2DS-15 | 2026-08-30 06:38:42 | 49.82962 | 8.43326 | 4° | 24km/h | 31921m | 6.2m/s | -40.2°C | 2.2% | 9.2hPa | 2.6V | 00:00:00 | 02:08:43 | 00:00:00 | |
| DM0DOS-11 | 2026-08-30 06:38:41 | 49.82945 | 8.43333 | 317° | 26km/h | 31888m | 6.8m/s | -40.1°C | 2.2% | 9.3hPa | 2.6V | 03:09:10 | 02:08:37 | 00:00:00 | |
| DF7PN | 2026-08-30 06:38:40 | 49.82954 | 8.43323 | 0° | 7km/h | 31904m | 4.3m/s | -40.2°C | 0.6% | 9.3hPa | 2.6V | 00:00:00 | 00:00:00 | 00:00:00 | |
| IW2NTF | 2026-08-30 06:38:39 | 49.82933 | 8.43348 | 325° | 35km/h | 31875m | 5m/s | -40.3°C | 2.2% | 9.3hPa | 2.6V | 03:09:12 | 02:08:35 | 00:00:00 | |
| DL1XH1-15 | 2026-08-30 06:38:37 | 49.82917 | 8.43361 | 340° | 33km/h | 31865m | 5.9m/s | -40.3°C | 2.2% | 9.4hPa | 2.7V | 03:09:14 | 02:08:33 | 00:00:00 | |
| HSKMA3-T | 2026-08-30 06:38:37 | 49.82949 | 8.43328 | 319° | 16km/h | 31894m | 5.9m/s | -40.1°C | 0% | 9.3hPa | 2.7V | 03:09:26 | 02:08:38 | 00:00:00 | |
| BIOWL1-15 | 2026-08-30 06:38:36 | 49.82933 | 8.43348 | 325° | 35km/h | 31876m | 5m/s | -40.3°C | 0% | 9.3hPa | 2.6V | 03:09:26 | 02:08:35 | 00:00:00 | |
| DF8AY | 2026-08-30 06:38:36 | 49.82945 | 8.43333 | 317° | 26km/h | 31888m | 6.8m/s | -40.1°C | 0% | 9.3hPa | 2.6V | 03:10:17 | 02:08:37 | 00:00:00 | |
| DL1XH-west | 2026-08-30 06:38:35 | 49.82940 | 8.43340 | 320° | 33km/h | 31881m | 6m/s | -40.2°C | 0% | 9.3hPa | 2.6V | 03:09:26 | 02:08:36 | 00:00:00 | |
| DB0UT-7 | 2026-08-30 06:38:34 | 49.82933 | 8.43348 | 326° | 22km/h | 31876m | 4.9m/s | -40.3°C | 2.2% | 9.3hPa | 2.7V | 00:00:00 | 00:00:00 | 00:00:00 | |
| DL1ZP-14 | 2026-08-30 06:38:33 | 49.82925 | 8.43356 | 332° | 35km/h | 31871m | 4.8m/s | -40.4°C | 0.6% | 9.3hPa | 2.7V | 00:00:00 | 00:00:00 | 00:00:00 | |
| DJ2KF-10 | 2026-08-30 06:38:32 | 49.82917 | 8.43361 | 341° | 18km/h | 31866m | 5.9m/s | -40.3°C | 2.2% | 9.3hPa | 2.7V | 00:00:00 | 02:08:33 | 00:00:00 | |
| DL1XH-15 | 2026-08-30 06:38:32 | 49.82884 | 8.43360 | 5° | 24km/h | 31836m | 6m/s | -40.4°C | 2.3% | 9.4hPa | 2.7V | 03:09:19 | 02:08:28 | 00:00:00 | |
| DM0DOS-11 | 2026-08-30 06:38:31 | 49.82878 | 8.43360 | 352° | 24km/h | 31830m | 6m/s | -40.2°C | 2.2% | 9.4hPa | 2.7V | 03:09:20 | 02:08:27 | 00:00:00 | |
| HEMX73-11 | 2026-08-30 06:38:30 | 49.82910 | 8.43364 | 352° | 29km/h | 31860m | 6.4m/s | -40.3°C | 0.6% | 9.3hPa | 2.6V | 03:09:00 | 00:00:00 | 00:00:00 | |
| IW2NTF | 2026-08-30 06:38:29 | 49.82867 | 8.43366 | 325° | 24km/h | 31819m | 4.9m/s | -40.4°C | 0% | 9.4hPa | 2.6V | 03:09:22 | 02:08:25 | 00:00:00 | |
| DO3DL | 2026-08-30 06:38:29 | 49.82896 | 8.43363 | 13° | 26km/h | 31848m | 5.4m/s | -40.4°C | 0.6% | 9.4hPa | 2.6V | 03:09:00 | 00:00:00 | 00:00:00 | |
| SONDE2-11 | 2026-08-30 06:38:28 | 49.82890 | 8.43361 | 11° | 24km/h | 31842m | 5.4m/s | -40.4°C | 0.5% | 9.4hPa | 2.6V | 00:00:00 | 00:00:00 | 00:00:00 | |
| DL1XH1-15 | 2026-08-30 06:38:27 | 49.82859 | 8.43378 | 313° | 20km/h | 31809m | 5.8m/s | -40.5°C | 2.2% | 9.4hPa | 2.6V | 03:09:24 | 02:08:23 | 00:00:00 | |
| DK7TD | 2026-08-30 06:38:26 | 49.82878 | 8.43360 | 353° | 24km/h | 31830m | 6m/s | 0°C | 0% | 0hPa | 2.7V | 18:12:15 | 02:08:27 | 00:00:00 | |
| DF8AY | 2026-08-30 06:38:25 | 49.82873 | 8.43362 | 338° | 24km/h | 31824m | 5.3m/s | -40.3°C | 0% | 9.4hPa | 2.7V | 03:10:17 | 02:08:26 | 00:00:00 | |
| BIOWL1-15 | 2026-08-30 06:38:24 | 49.82867 | 8.43366 | 326° | 24km/h | 31819m | 4.9m/s | -40.4°C | 0% | 9.4hPa | 2.6V | 03:09:26 | 02:08:25 | 00:00:00 | |
| DL3OBA | 2026-08-30 06:38:23 | 49.82867 | 8.43366 | 327° | 24km/h | 31820m | 4.9m/s | 0°C | 0% | 0hPa | 2.6V | 00:00:00 | 00:00:00 | 00:00:00 | |
| DL1XH-15 | 2026-08-30 06:38:22 | 49.82845 | 8.43389 | 354° | 18km/h | 31780m | 5.5m/s | -40.8°C | 2.2% | 9.4hPa | 2.6V | 03:09:29 | 02:08:18 | 00:00:00 | |
| DJ2DS-15 | 2026-08-30 06:38:22 | 49.82859 | 8.43378 | 314° | 15km/h | 31809m | 5.8m/s | -40.5°C | 2.2% | 9.4hPa | 2.6V | 00:00:00 | 02:08:23 | 00:00:00 | |
| DM0DOS-11 | 2026-08-30 06:38:21 | 49.82840 | 8.43390 | 351° | 22km/h | 31774m | 6.6m/s | -40.8°C | 2.2% | 9.4hPa | 2.7V | 03:09:30 | 02:08:17 | 00:00:00 | |
| IW2NTF | 2026-08-30 06:38:19 | 49.82826 | 8.43394 | 347° | 29km/h | 31762m | 5m/s | -40.6°C | 0% | 9.5hPa | 2.6V | 00:00:00 | 02:08:15 | 00:00:00 | |
| DK5PH-5 | 2026-08-30 06:38:17 | 49.82845 | 8.43389 | 355° | 16km/h | 31781m | 5.5m/s | -40.7°C | 2.2% | 9.4hPa | 2.6V | 00:00:00 | 02:08:18 | 00:00:00 | |
| DL1XH1-15 | 2026-08-30 06:38:16 | 49.82808 | 8.43399 | 355° | 18km/h | 31746m | 6.3m/s | -40.9°C | 2.2% | 9.5hPa | 2.7V | 03:09:35 | 02:08:12 | 00:00:00 | |
| HSKMA3-T | 2026-08-30 06:38:15 | 49.82833 | 8.43392 | 348° | 27km/h | 31767m | 6.2m/s | -40.7°C | 0% | 9.5hPa | 2.7V | 03:10:17 | 02:08:16 | 00:00:00 | |
| DF8AY | 2026-08-30 06:38:14 | 49.82826 | 8.43394 | 348° | 29km/h | 31762m | 5m/s | -40.6°C | 0% | 9.5hPa | 2.6V | 03:10:17 | 02:08:15 | 00:00:00 | |
| BIOWL1-15 | 2026-08-30 06:38:13 | 49.82819 | 8.43396 | 349° | 27km/h | 31757m | 4.7m/s | -40.7°C | 0% | 9.5hPa | 2.6V | 03:10:17 | 02:08:14 | 00:00:00 | |
| DL4BBY-15 | 2026-08-30 06:38:13 | 49.82819 | 8.43396 | 349° | 11km/h | 31757m | 4.7m/s | -41.8°C | 0% | 0hPa | 2.7V | 00:00:00 | 00:00:00 | 00:00:00 | |
| AU51GT2 | 2026-08-30 06:38:12 | 49.82807 | 8.43399 | 355° | 16km/h | 31746m | 6.3m/s | -40.9°C | 0.6% | 9.5hPa | 2.7V | 00:00:00 | 00:00:00 | 00:00:00 | |
| DM0DOS-11 | 2026-08-30 06:38:11 | 49.82803 | 8.43403 | 268° | 9km/h | 31716m | 6.2m/s | -41°C | 2.3% | 9.5hPa | 2.7V | 03:09:40 | 02:08:07 | 00:00:00 | |
| HEMX73-11 | 2026-08-30 06:38:10 | 49.82808 | 8.43399 | 357° | 18km/h | 31746m | 6.3m/s | -40.9°C | 0.6% | 9.5hPa | 2.6V | 03:10:00 | 00:00:00 | 00:00:00 | |
| IW2NTF | 2026-08-30 06:38:09 | 49.82801 | 8.43412 | 296° | 13km/h | 31705m | 5.1m/s | -41.2°C | 0% | 0hPa | 2.6V | 00:00:00 | 02:08:05 | 00:00:00 | |
| DF7PN | 2026-08-30 06:38:09 | 49.82802 | 8.43399 | 245° | 0km/h | 31728m | 5.4m/s | -41.0°C | 0.6% | 9.6hPa | 2.7V | 00:00:00 | 00:00:00 | 00:00:00 | |
| DC4HF-4 | 2026-08-30 06:38:08 | 49.82802 | 8.43399 | 245° | 0km/h | 31728m | 5.4m/s | -41.0°C | 0.6% | 9.6hPa | 2.7V | 00:00:00 | 00:00:00 | 00:00:00 | |
| DG1MJG | 2026-08-30 06:38:07 | 49.82802 | 8.43399 | 0° | 0km/h | 31728m | 5.4m/s | -41.0°C | 0.6% | 9.5hPa | 2.7V | 03:10:00 | 00:00:00 | 00:00:00 | |
| DL1XH1-15 | 2026-08-30 06:38:06 | 49.82795 | 8.43419 | 3° | 9km/h | 31687m | 6.7m/s | -41.4°C | 2.4% | 9.6hPa | 2.7V | 03:09:45 | 02:08:02 | 00:00:00 | |
| HSKMA3-T | 2026-08-30 06:38:05 | 49.82802 | 8.43407 | 282° | 13km/h | 31710m | 5.6m/s | -41.2°C | 0% | 9.6hPa | 2.6V | 03:10:17 | 02:08:06 | 00:00:00 | |
| DF8AY | 2026-08-30 06:38:04 | 49.82801 | 8.43412 | 297° | 13km/h | 31705m | 5.1m/s | -41.2°C | 0% | 9.6hPa | 2.6V | 03:10:17 | 02:08:05 | 00:00:00 | |
| DL1XH-west | 2026-08-30 06:38:03 | 49.82799 | 8.43416 | 314° | 11km/h | 31700m | 5.1m/s | -41.2°C | 0% | 9.6hPa | 2.6V | 03:10:17 | 02:08:04 | 00:00:00 | |
| BIOWL1-15 | 2026-08-30 06:38:02 | 49.82797 | 8.43418 | 336° | 11km/h | 31694m | 6.3m/s | -41.3°C | 0% | 9.6hPa | 2.7V | 03:10:17 | 02:08:03 | 00:00:00 | |
| DJ2KF-10 | 2026-08-30 06:38:02 | 49.82797 | 8.43418 | 336° | 11km/h | 31694m | 6.3m/s | -41.2°C | 2.4% | 9.5hPa | 2.7V | 00:00:00 | 02:08:03 | 00:00:00 | |
| DO3DL | 2026-08-30 06:38:01 | 49.82797 | 8.43418 | 337° | 11km/h | 31694m | 6.3m/s | -41.3°C | 0.6% | 9.6hPa | 2.7V | 03:10:00 | 00:00:00 | 00:00:00 | |
| HTAHTA | 2026-08-30 06:38:00 | 49.82792 | 8.43418 | 19° | 9km/h | 31682m | 5.8m/s | -41.4°C | 0.6% | 9.6hPa | 2.7V | 00:00:00 | 00:00:00 | 00:00:00 | |
| IW2NTF | 2026-08-30 06:37:59 | 49.82782 | 8.43427 | 260° | 9km/h | 31647m | 5m/s | -41.4°C | 0% | 0hPa | 2.7V | 00:00:00 | 02:07:55 | 00:00:00 | |
| SONDE2-11 | 2026-08-30 06:37:58 | 49.82786 | 8.43417 | 334° | 9km/h | 31665m | 6.5m/s | -41.3°C | 0.6% | 9.6hPa | 2.6V | 00:00:00 | 00:00:00 | 00:00:00 | |
| DL1XH1-15 | 2026-08-30 06:37:56 | 49.82788 | 8.43431 | 162° | 13km/h | 31629m | 6.1m/s | -41.4°C | 2.3% | 9.7hPa | 2.6V | 03:09:55 | 02:07:52 | 00:00:00 | |
| HSKMA3-T | 2026-08-30 06:37:54 | 49.82783 | 8.43427 | 260° | 9km/h | 31648m | 5.1m/s | -41.4°C | 0% | 9.7hPa | 2.7V | 03:10:17 | 02:07:55 | 00:00:00 | |
| DF8AY | 2026-08-30 06:37:53 | 49.82783 | 8.43430 | 228° | 9km/h | 31642m | 6.1m/s | -41.4°C | 0% | 9.7hPa | 2.6V | 03:10:17 | 02:07:54 | 00:00:00 | |
| BIOWL1-15 | 2026-08-30 06:37:53 | 49.82788 | 8.43431 | 162° | 13km/h | 31629m | 6.1m/s | -41.4°C | 0% | 9.7hPa | 2.6V | 03:10:17 | 02:07:52 | 00:00:00 | |
| DL1XH-west | 2026-08-30 06:37:52 | 49.82785 | 8.43431 | 189° | 9km/h | 31635m | 6.9m/s | -41.4°C | 0% | 9.7hPa | 2.6V | 03:10:17 | 02:07:53 | 00:00:00 | |
| DL3AQ-11 | 2026-08-30 06:37:51 | 49.82791 | 8.43428 | 146° | 13km/h | 31624m | 5.1m/s | -41.5°C | 0.6% | 9.7hPa | 2.7V | 00:00:00 | 00:00:00 | 00:00:00 | |
| IW2NTF | 2026-08-30 06:37:49 | 49.82791 | 8.43425 | 315° | 13km/h | 31590m | 5.1m/s | -41.5°C | 0% | 0hPa | 2.7V | 00:00:00 | 02:07:45 | 00:00:00 | |
| EDDB2-11 | 2026-08-30 06:37:49 | 49.82794 | 8.43425 | 135° | 11km/h | 31619m | 4.4m/s | -41.4°C | 0.6% | 9.7hPa | 2.6V | 00:00:00 | 00:00:00 | 00:00:00 | |
| DO1YAY-16 | 2026-08-30 06:37:48 | 49.82796 | 8.43422 | 118° | 7km/h | 31614m | 4.8m/s | -41.5°C | 0.6% | 9.7hPa | 2.6V | 00:00:00 | 00:00:00 | 00:00:00 | |
| DK5PH-5 | 2026-08-30 06:37:47 | 49.82796 | 8.43420 | 63° | 11km/h | 31609m | 6.5m/s | -41.5°C | 2.4% | 9.7hPa | 2.6V | 03:09:00 | 02:07:48 | 00:00:00 | |
| DL1XH1-15 | 2026-08-30 06:37:46 | 49.82788 | 8.43431 | 153° | 5km/h | 31573m | 6.5m/s | -41.5°C | 2.4% | 9.7hPa | 2.6V | 03:10:05 | 02:07:42 | 00:00:00 | |
| HSKMA3-T | 2026-08-30 06:37:44 | 49.82791 | 8.43425 | 315° | 13km/h | 31590m | 5.1m/s | -41.5°C | 0% | 9.7hPa | 2.7V | 03:10:17 | 02:07:45 | 00:00:00 | |
| DF8AY | 2026-08-30 06:37:43 | 49.82789 | 8.43429 | 308° | 9km/h | 31585m | 4.9m/s | -41.6°C | 0% | 9.7hPa | 2.7V | 03:10:17 | 02:07:44 | 00:00:00 | |
| DL1XH-west | 2026-08-30 06:37:41 | 49.82789 | 8.43431 | 153° | 5km/h | 31573m | 6.5m/s | -41.5°C | 0% | 9.7hPa | 2.6V | 03:10:17 | 02:07:42 | 00:00:00 | |
| BIOWL1-15 | 2026-08-30 06:37:40 | 49.82790 | 8.43429 | 141° | 13km/h | 31567m | 5.8m/s | -41.4°C | 0% | 9.8hPa | 2.6V | 03:10:17 | 02:07:41 | 00:00:00 | |
| DF3TZ-5 | 2026-08-30 06:37:40 | 49.82796 | 8.43421 | 132° | 16km/h | 31556m | 5.2m/s | -41.4°C | 0.6% | 9.8hPa | 2.7V | 00:00:00 | 00:00:00 | 00:00:00 | |
| IW2NTF | 2026-08-30 06:37:39 | 49.82796 | 8.43406 | 27° | 15km/h | 31532m | 5.9m/s | -41.3°C | 0% | 0hPa | 2.7V | 00:00:00 | 02:07:35 | 00:00:00 | |
| BUE01 | 2026-08-30 06:37:38 | 49.82796 | 8.43421 | 132° | 16km/h | 31556m | 5.2m/s | -41.4°C | 0.6% | 9.8hPa | 2.7V | 00:00:00 | 00:00:00 | 00:00:00 | |
| DN1GJH-1 | 2026-08-30 06:37:37 | 49.82796 | 8.43421 | 133° | 16km/h | 31557m | 5.2m/s | -41.4°C | 0.6% | 9.8hPa | 2.7V | 00:00:00 | 00:00:00 | 00:00:00 | |
| DL1XH1-15 | 2026-08-30 06:37:36 | 49.82784 | 8.43396 | 37° | 18km/h | 31515m | 6.4m/s | -41.2°C | 2.3% | 9.8hPa | 2.7V | 03:10:15 | 02:07:32 | 00:00:00 | |
| HSKMA3-T | 2026-08-30 06:37:34 | 49.82796 | 8.43406 | 27° | 15km/h | 31532m | 5.9m/s | -41.3°C | 0% | 9.8hPa | 2.7V | 03:10:17 | 02:07:35 | 00:00:00 | |
| AA1-15 | 2026-08-30 06:37:32 | 49.82788 | 8.43400 | 30° | 20km/h | 31521m | 5.6m/s | -41.2°C | 0% | 9.8hPa | 2.6V | 03:10:17 | 02:07:33 | 00:00:00 | |
| DL1XH-west | 2026-08-30 06:37:31 | 49.82784 | 8.43396 | 38° | 18km/h | 31515m | 6.4m/s | -41.2°C | 0% | 9.8hPa | 2.7V | 03:10:17 | 02:07:32 | 00:00:00 | |
| BIOWL1-15 | 2026-08-30 06:37:30 | 49.82781 | 8.43391 | 51° | 16km/h | 31509m | 5.9m/s | -41.2°C | 0% | 9.8hPa | 2.7V | 03:10:17 | 02:07:31 | 00:00:00 | |
| IW2NTF | 2026-08-30 06:37:29 | 49.82782 | 8.43385 | 232° | 11km/h | 31473m | 5.5m/s | -41.3°C | 0% | 0hPa | 2.6V | 00:00:00 | 02:07:25 | 00:00:00 | |
| HTAHTA | 2026-08-30 06:37:29 | 49.82778 | 8.43383 | 87° | 7km/h | 31498m | 5.1m/s | 0°C | -1.0% | 9.9hPa | 2.7V | 00:00:00 | 00:00:00 | 00:00:00 | |
| DJ2DS-15 | 2026-08-30 06:37:28 | 49.82778 | 8.43383 | 87° | 7km/h | 31498m | 5.1m/s | -41.2°C | 0.6% | 9.9hPa | 2.7V | 00:00:00 | 00:00:00 | 00:00:00 | |
| SSTOLZ84 | 2026-08-30 06:37:27 | 49.82778 | 8.43381 | 122° | 4km/h | 31493m | 6.2m/s | -41.2°C | 0.6% | 9.9hPa | 2.7V | 00:00:00 | 00:00:00 | 00:00:00 | |
| DL1XH1-15 | 2026-08-30 06:37:26 | 49.82788 | 8.43391 | 162° | 9km/h | 31458m | 5.8m/s | -41.7°C | 2.3% | 9.9hPa | 2.7V | 03:10:25 | 02:07:22 | 00:00:00 | |
| HSKMA3-T | 2026-08-30 06:37:24 | 49.82782 | 8.43385 | 233° | 11km/h | 31473m | 5.5m/s | -41.3°C | 0% | 9.9hPa | 2.6V | 03:11:08 | 02:07:25 | 00:00:00 | |
| DL1XH-west | 2026-08-30 06:37:21 | 49.82788 | 8.43391 | 162° | 9km/h | 31458m | 5.8m/s | -41.7°C | 0% | 9.9hPa | 2.7V | 03:11:08 | 02:07:22 | 00:00:00 | |
| DF8AY | 2026-08-30 06:37:20 | 49.82790 | 8.43389 | 130° | 13km/h | 31451m | 7m/s | -41.7°C | 0% | 9.9hPa | 2.7V | 03:21:20 | 02:07:21 | 00:00:00 | |
| IW2NTF | 2026-08-30 06:37:19 | 49.82788 | 8.43365 | 330° | 15km/h | 31416m | 6.5m/s | -42°C | 0% | 0hPa | 2.7V | 00:00:00 | 02:07:15 | 00:00:00 | |
| HSKMA3-T | 2026-08-30 06:37:14 | 49.82788 | 8.43365 | 331° | 15km/h | 31416m | 6.5m/s | -42°C | 0% | 10hPa | 2.7V | 03:11:08 | 02:07:15 | 00:00:00 | |
| BIOWL9-15 | 2026-08-30 06:37:14 | 49.82784 | 8.43369 | 317° | 18km/h | 31410m | 5.4m/s | -42.0°C | 0.6% | 10.0hPa | 2.6V | 00:00:00 | 00:00:00 | 00:00:00 | |
| DL4BBY-15 | 2026-08-30 06:37:13 | 49.82784 | 8.43369 | 318° | 11km/h | 31410m | 5.4m/s | -43.1°C | 0% | 0hPa | 2.6V | 00:00:00 | 00:00:00 | 00:00:00 | |
| CB1BUN | 2026-08-30 06:37:12 | 49.82784 | 8.43369 | 319° | 20km/h | 31410m | 5.4m/s | -42.0°C | 0.6% | 10.0hPa | 2.6V | 03:11:00 | 00:00:00 | 00:00:00 | |
| DM0DOS-11 | 2026-08-30 06:37:11 | 49.82784 | 8.43380 | 141° | 11km/h | 31370m | 5.7m/s | -42.1°C | 2.4% | 10hPa | 2.6V | 03:10:40 | 02:07:07 | 00:00:00 | |
| DL1XH-west | 2026-08-30 06:37:10 | 49.82777 | 8.43383 | 288° | 7km/h | 31392m | 6.3m/s | -42°C | 0% | 10hPa | 2.6V | 03:11:08 | 02:07:11 | 00:00:00 | |
| BIOWL1-15 | 2026-08-30 06:37:09 | 49.82777 | 8.43385 | 207° | 4km/h | 31386m | 6.1m/s | -42.1°C | 0% | 10hPa | 2.7V | 03:11:08 | 02:07:10 | 00:00:00 | |
| DF8AY | 2026-08-30 06:37:07 | 49.82781 | 8.43383 | 148° | 11km/h | 31375m | 5.3m/s | -42.1°C | 0% | 10.1hPa | 2.7V | 03:21:20 | 02:07:08 | 00:00:00 | |
| DL1XH1-15 | 2026-08-30 06:37:06 | 49.82780 | 8.43374 | 12° | 13km/h | 31340m | 5.8m/s | -42.3°C | 2.3% | 10.1hPa | 2.7V | 03:10:45 | 02:07:02 | 00:00:00 | |
| HSKMA3-T | 2026-08-30 06:37:03 | 49.82785 | 8.43375 | 19° | 5km/h | 31351m | 5.8m/s | -42.1°C | 0% | 10.1hPa | 2.7V | 03:11:08 | 02:07:04 | 00:00:00 | |
| DJ2DS-15 | 2026-08-30 06:37:02 | 49.82783 | 8.43374 | 12° | 11km/h | 31346m | 5.3m/s | -42.2°C | 2.3% | 10.0hPa | 2.7V | 00:00:00 | 02:07:03 | 00:00:00 | |
| DM0DOS-11 | 2026-08-30 06:37:01 | 49.82770 | 8.43359 | 80° | 7km/h | 31311m | 5.3m/s | -42.7°C | 2.4% | 10.2hPa | 2.7V | 03:10:50 | 02:06:57 | 00:00:00 | |
| AA1-15 | 2026-08-30 06:37:00 | 49.82777 | 8.43372 | 25° | 13km/h | 31334m | 6.6m/s | -42.3°C | 0% | 10.1hPa | 2.6V | 03:11:08 | 02:07:01 | 00:00:00 | |
| BIOWL1-15 | 2026-08-30 06:36:59 | 49.82774 | 8.43369 | 41° | 13km/h | 31328m | 6.4m/s | -42.3°C | 0% | 10.1hPa | 2.6V | 03:11:08 | 02:07:00 | 00:00:00 | |
| DO3DL | 2026-08-30 06:36:58 | 49.82772 | 8.43366 | 57° | 11km/h | 31322m | 6.0m/s | -42.4°C | 0.6% | 10.1hPa | 2.7V | 03:11:00 | 00:00:00 | 00:00:00 | |
| DL1XH1-15 | 2026-08-30 06:36:56 | 49.82771 | 8.43362 | 263° | 2km/h | 31281m | 5.3m/s | -43°C | 2.5% | 10.2hPa | 2.7V | 03:10:55 | 02:06:52 | 00:00:00 | |
| DB0ND-19 | 2026-08-30 06:36:56 | 49.82770 | 8.43357 | 97° | 2km/h | 31305m | 6.0m/s | -42.7°C | 0.6% | 10.2hPa | 2.7V | 00:00:00 | 00:00:00 | 00:00:00 | |
| DL1XH-15 | 2026-08-30 06:36:55 | 49.82771 | 8.43361 | 86° | 4km/h | 31275m | 6.6m/s | -43.1°C | 2.5% | 10.2hPa | 2.7V | 03:10:56 | 02:06:51 | 00:00:00 | |
| DF8AY | 2026-08-30 06:36:55 | 49.82770 | 8.43357 | 98° | 2km/h | 31305m | 6m/s | -42.7°C | 0% | 10.2hPa | 2.7V | 03:21:20 | 02:06:56 | 00:00:00 | |
| HSKMA3-T | 2026-08-30 06:36:52 | 49.82771 | 8.43361 | 268° | 5km/h | 31286m | 5.3m/s | -42.9°C | 0% | 10.2hPa | 2.6V | 03:11:08 | 02:06:53 | 00:00:00 | |
| DL1XH-west | 2026-08-30 06:36:48 | 49.82770 | 8.43354 | 71° | 15km/h | 31262m | 5.5m/s | -43.3°C | 0% | 10.2hPa | 2.6V | 03:11:08 | 02:06:49 | 00:00:00 | |
| EDDB2-11 | 2026-08-30 06:36:47 | 49.82765 | 8.43344 | 41° | 18km/h | 31252m | 5.7m/s | -43.4°C | 0.7% | 10.2hPa | 2.7V | 00:00:00 | 00:00:00 | 00:00:00 | |
| DL1XH1-15 | 2026-08-30 06:36:46 | 49.82740 | 8.43339 | 352° | 16km/h | 31222m | 6m/s | -43.4°C | 2.6% | 10.3hPa | 2.7V | 03:11:05 | 02:06:42 | 00:00:00 | |
| DO3MHA-11 | 2026-08-30 06:36:46 | 49.82765 | 8.43343 | 42° | 15km/h | 31252m | 5.7m/s | -43.4°C | 2.6% | 10.2hPa | 2.6V | 00:00:00 | 02:06:47 | 00:00:00 | |
| DL1XH-15 | 2026-08-30 06:36:45 | 49.82736 | 8.43339 | 0° | 11km/h | 31215m | 6.9m/s | -43.5°C | 2.5% | 10.3hPa | 2.6V | 03:11:06 | 02:06:41 | 00:00:00 | |
| DF8AY | 2026-08-30 06:36:43 | 49.82750 | 8.43337 | 357° | 24km/h | 31233m | 5.6m/s | -43.3°C | 0% | 10.3hPa | 2.6V | 03:21:20 | 02:06:44 | 00:00:00 | |
| HSKMA3-T | 2026-08-30 06:36:41 | 49.82740 | 8.43339 | 353° | 16km/h | 31222m | 6m/s | -43.4°C | 0% | 10.3hPa | 2.7V | 03:11:08 | 02:06:42 | 00:00:00 | |
| DL1XH-west | 2026-08-30 06:36:38 | 49.82733 | 8.43337 | 56° | 5km/h | 31203m | 5.6m/s | -43.5°C | 0% | 10.3hPa | 2.7V | 03:11:08 | 02:06:39 | 00:00:00 | |
| BIOWL1-15 | 2026-08-30 06:36:37 | 49.82732 | 8.43336 | 61° | 4km/h | 31197m | 5.1m/s | -43.6°C | 0% | 10.3hPa | 2.7V | 03:11:59 | 02:06:38 | 00:00:00 | |
| DO3MHA-11 | 2026-08-30 06:36:36 | 49.82731 | 8.43335 | 25° | 18km/h | 31193m | 5.4m/s | -43.5°C | 2.5% | 10.3hPa | 2.7V | 00:00:00 | 02:06:37 | 00:00:00 | |
| DL1XH-15 | 2026-08-30 06:36:35 | 49.82706 | 8.43340 | 10° | 24km/h | 31157m | 6.7m/s | -43.5°C | 2.6% | 10.4hPa | 2.7V | 03:11:16 | 02:06:31 | 00:00:00 | |
| DF8AY | 2026-08-30 06:36:33 | 49.82723 | 8.43338 | 342° | 20km/h | 31173m | 6m/s | -43.4°C | 0% | 10.4hPa | 2.7V | 03:21:20 | 02:06:34 | 00:00:00 | |
| DJ2KF-10 | 2026-08-30 06:36:32 | 49.82718 | 8.43340 | 350° | 15km/h | 31168m | 5.1m/s | -43.4°C | 2.5% | 10.3hPa | 2.6V | 00:00:00 | 02:06:33 | 00:00:00 | |
| DM0DOS-11 | 2026-08-30 06:36:31 | 49.82688 | 8.43324 | 30° | 15km/h | 31133m | 5.4m/s | -43.8°C | 2.5% | 10.4hPa | 2.6V | 03:11:20 | 02:06:27 | 00:00:00 | |
| HSKMA3-T | 2026-08-30 06:36:30 | 49.82706 | 8.43340 | 11° | 24km/h | 31157m | 6.7m/s | -43.5°C | 0% | 10.4hPa | 2.7V | 03:11:59 | 02:06:31 | 00:00:00 | |
| DL1XH-west | 2026-08-30 06:36:27 | 49.82692 | 8.43328 | 38° | 20km/h | 31138m | 5m/s | -43.7°C | 0% | 10.4hPa | 2.6V | 03:11:59 | 02:06:28 | 00:00:00 | |
| BIOWL1-15 | 2026-08-30 06:36:26 | 49.82688 | 8.43324 | 30° | 15km/h | 31133m | 5.4m/s | -43.8°C | 0% | 10.4hPa | 2.6V | 03:11:59 | 02:06:27 | 00:00:00 | |
| DO3MHA-11 | 2026-08-30 06:36:26 | 49.82688 | 8.43324 | 31° | 9km/h | 31133m | 5.3m/s | -43.8°C | 2.5% | 10.4hPa | 2.6V | 00:00:00 | 02:06:27 | 00:00:00 | |
| SSTOLZ84 | 2026-08-30 06:36:25 | 49.82683 | 8.43324 | 320° | 9km/h | 31120m | 6.8m/s | -44.0°C | 0.6% | 10.4hPa | 2.7V | 00:00:00 | 00:00:00 | 00:00:00 | |
| SONDE2-11 | 2026-08-30 06:36:24 | 49.82683 | 8.43324 | 320° | 9km/h | 31120m | 6.8m/s | -44.0°C | 0.6% | 10.4hPa | 2.7V | 00:00:00 | 00:00:00 | 00:00:00 | |
| SFWM-10 | 2026-08-30 06:36:23 | 49.82683 | 8.43324 | 322° | 9km/h | 31120m | 6.8m/s | -44.0°C | 0.6% | 10.4hPa | 2.7V | 03:11:00 | 00:00:00 | 00:00:00 | |
| DJ2DS-15 | 2026-08-30 06:36:22 | 49.82680 | 8.43332 | 278° | 11km/h | 31108m | 5.7m/s | -43.9°C | 2.6% | 10.4hPa | 2.7V | 03:11:00 | 02:06:23 | 00:00:00 | |
| DM0DOS-11 | 2026-08-30 06:36:21 | 49.82677 | 8.43345 | 354° | 11km/h | 31071m | 7m/s | -44.2°C | 2.6% | 10.5hPa | 2.7V | 03:11:30 | 02:06:17 | 00:00:00 | |
| DF8AY | 2026-08-30 06:36:20 | 49.82681 | 8.43341 | 260° | 9km/h | 31095m | 6.5m/s | -43.9°C | 0% | 10.5hPa | 2.6V | 03:21:20 | 02:06:21 | 00:00:00 | |
| HSKMA3-T | 2026-08-30 06:36:19 | 49.82681 | 8.43344 | 263° | 4km/h | 31089m | 5.7m/s | -44°C | 0% | 10.5hPa | 2.6V | 03:11:59 | 02:06:20 | 00:00:00 | |
| DL1XH-west | 2026-08-30 06:36:17 | 49.82679 | 8.43345 | 356° | 7km/h | 31078m | 5.8m/s | -44.1°C | 0% | 10.5hPa | 2.7V | 03:11:59 | 02:06:18 | 00:00:00 | |
| NBG1-10 | 2026-08-30 06:36:17 | 49.82679 | 8.43345 | 356° | 15km/h | 31078m | 5.7m/s | -44.0°C | 2.6% | 10.5hPa | 2.7V | 00:00:00 | 02:06:18 | 00:00:00 | |
| DL1XH1-15 | 2026-08-30 06:36:16 | 49.82658 | 8.43347 | 23° | 9km/h | 31041m | 6.7m/s | -44.3°C | 2.6% | 10.6hPa | 2.7V | 03:11:35 | 02:06:12 | 00:00:00 | |
| BIOWL1-15 | 2026-08-30 06:36:16 | 49.82677 | 8.43345 | 355° | 11km/h | 31071m | 7m/s | -44.2°C | 0% | 10.5hPa | 2.7V | 03:11:59 | 02:06:17 | 00:00:00 | |
| AA1-15 | 2026-08-30 06:36:15 | 49.82673 | 8.43346 | 352° | 16km/h | 31064m | 6.7m/s | -44.2°C | 0% | 10.5hPa | 2.6V | 03:11:59 | 02:06:16 | 00:00:00 | |
| DO1YAY-16 | 2026-08-30 06:36:15 | 49.82669 | 8.43347 | 352° | 16km/h | 31059m | 5.6m/s | -44.2°C | 0.7% | 10.6hPa | 2.7V | 00:00:00 | 00:00:00 | 00:00:00 | |
| DL4BBY-15 | 2026-08-30 06:36:13 | 49.82664 | 8.43347 | 358° | 15km/h | 31054m | 5.0m/s | -45.3°C | 0% | 0hPa | 2.7V | 00:00:00 | 00:00:00 | 00:00:00 | |
| BIOWL9-15 | 2026-08-30 06:36:12 | 49.82658 | 8.43346 | 23° | 9km/h | 31041m | 6.7m/s | -44.3°C | 0.7% | 10.6hPa | 2.7V | 00:00:00 | 00:00:00 | 00:00:00 | |
| DM0DOS-11 | 2026-08-30 06:36:11 | 49.82663 | 8.43351 | 240° | 16km/h | 31011m | 7m/s | -44.4°C | 2.6% | 10.6hPa | 2.7V | 03:11:40 | 02:06:07 | 00:00:00 | |
| HSKMA3-T | 2026-08-30 06:36:09 | 49.82657 | 8.43344 | 157° | 5km/h | 31029m | 5.3m/s | -44.4°C | 0% | 10.6hPa | 2.6V | 03:11:59 | 02:06:10 | 00:00:00 | |
| DL1XH-west | 2026-08-30 06:36:07 | 49.82661 | 8.43346 | 225° | 13km/h | 31018m | 6.7m/s | -44.4°C | 0% | 10.6hPa | 2.6V | 03:11:59 | 02:06:08 | 00:00:00 | |
| BIOWL1-15 | 2026-08-30 06:36:05 | 49.82665 | 8.43357 | 253° | 18km/h | 31005m | 5.5m/s | -44.4°C | 0% | 10.6hPa | 2.7V | 03:11:59 | 02:06:06 | 00:00:00 | |
| AA1-15 | 2026-08-30 06:36:04 | 49.82666 | 8.43364 | 267° | 16km/h | 31000m | 4.4m/s | -44.5°C | 0% | 10.7hPa | 2.7V | 03:11:59 | 02:06:05 | 00:00:00 | |
| DL3AQ-11 | 2026-08-30 06:36:04 | 49.82665 | 8.43370 | 283° | 11km/h | 30995m | 5.1m/s | -44.5°C | 0.7% | 10.7hPa | 2.6V | 00:00:00 | 00:00:00 | 00:00:00 | |
| DJ2KF-10 | 2026-08-30 06:36:02 | 49.82664 | 8.43373 | 323° | 16km/h | 30989m | 6.8m/s | -44.5°C | 2.6% | 10.6hPa | 2.6V | 00:00:00 | 02:06:03 | 00:00:00 | |
| DM0DOS-11 | 2026-08-30 06:36:01 | 49.82642 | 8.43357 | 2° | 13km/h | 30952m | 5.1m/s | -45°C | 2.8% | 10.7hPa | 2.6V | 03:11:50 | 02:05:57 | 00:00:00 | |
| HSKMA3-T | 2026-08-30 06:35:58 | 49.82650 | 8.43362 | 31° | 22km/h | 30964m | 5.9m/s | -44.9°C | 0% | 10.7hPa | 2.7V | 03:11:59 | 02:05:59 | 00:00:00 | |
| BIOWL1-15 | 2026-08-30 06:35:56 | 49.82639 | 8.43360 | 268° | 7km/h | 30941m | 6.4m/s | -45.1°C | 0% | 10.7hPa | 2.7V | 03:11:59 | 02:05:55 | 00:00:00 | |
| DL1XH-west | 2026-08-30 06:35:56 | 49.82642 | 8.43357 | 3° | 13km/h | 30952m | 5.1m/s | -45°C | 0% | 10.7hPa | 2.6V | 03:11:59 | 02:05:57 | 00:00:00 | |
| DO3MHA-11 | 2026-08-30 06:35:56 | 49.82642 | 8.43357 | 3° | 15km/h | 30953m | 5.1m/s | -45.0°C | 2.8% | 10.7hPa | 2.6V | 00:00:00 | 02:05:57 | 00:00:00 | |
| DL1XH-15 | 2026-08-30 06:35:55 | 49.82647 | 8.43377 | 247° | 16km/h | 30918m | 4.7m/s | -45.3°C | 2.8% | 10.8hPa | 2.6V | 03:11:56 | 02:05:51 | 00:00:00 | |
| AA1-15 | 2026-08-30 06:35:53 | 49.82639 | 8.43363 | 234° | 11km/h | 30935m | 7m/s | -45.1°C | 0% | 10.8hPa | 2.7V | 03:11:59 | 02:05:54 | 00:00:00 | |
| DF8AY | 2026-08-30 06:35:52 | 49.82642 | 8.43367 | 225° | 15km/h | 30928m | 6.1m/s | -45.1°C | 0% | 10.7hPa | 2.7V | 03:21:20 | 02:05:53 | 00:00:00 | |
| DM0DOS-11 | 2026-08-30 06:35:51 | 49.82638 | 8.43405 | 328° | 26km/h | 30894m | 5.4m/s | -45.2°C | 2.8% | 10.8hPa | 2.7V | 03:12:00 | 02:05:47 | 00:00:00 | |
| HSKMA3-T | 2026-08-30 06:35:47 | 49.82643 | 8.43399 | 312° | 24km/h | 30899m | 6.3m/s | -45.3°C | 0% | 10.8hPa | 2.7V | 03:11:59 | 02:05:48 | 00:00:00 | |
| DL1XH-15 | 2026-08-30 06:35:45 | 49.82622 | 8.43406 | 197° | 9km/h | 30861m | 5.9m/s | -45°C | 2.8% | 10.9hPa | 2.7V | 03:12:06 | 02:05:41 | 00:00:00 | |
| DL1XH-west | 2026-08-30 06:35:45 | 49.82633 | 8.43409 | 342° | 24km/h | 30888m | 5.3m/s | -45.2°C | 0% | 10.8hPa | 2.6V | 03:12:50 | 02:05:46 | 00:00:00 | |
| EDDB2-11 | 2026-08-30 06:35:45 | 49.82627 | 8.43411 | 356° | 20km/h | 30883m | 6.3m/s | -45.2°C | 0.7% | 10.8hPa | 2.6V | 00:00:00 | 00:00:00 | 00:00:00 | |
| DL9PN | 2026-08-30 06:35:44 | 49.82627 | 8.43411 | 356° | 20km/h | 30883m | 6.3m/s | -45.2°C | 0.7% | 10.8hPa | 2.6V | 00:00:00 | 00:00:00 | 00:00:00 | |
| BIOWL1-15 | 2026-08-30 06:35:44 | 49.82627 | 8.43411 | 356° | 20km/h | 30882m | 6.3m/s | -45.2°C | 0% | 10.8hPa | 2.6V | 03:12:50 | 02:05:45 | 00:00:00 | |
| AA1-15 | 2026-08-30 06:35:43 | 49.82623 | 8.43410 | 17° | 15km/h | 30876m | 5.9m/s | -45.1°C | 0% | 10.8hPa | 2.6V | 03:12:50 | 02:05:44 | 00:00:00 | |
| DL4BBY-15 | 2026-08-30 06:35:43 | 49.82623 | 8.43410 | 17° | 16km/h | 30877m | 5.9m/s | 0°C | 0% | 0hPa | 2.7V | 00:00:00 | 00:00:00 | 00:00:00 | |
| DJ2DS-15 | 2026-08-30 06:35:42 | 49.82621 | 8.43408 | 53° | 15km/h | 30871m | 4.9m/s | -45.0°C | 2.7% | 10.8hPa | 2.7V | 00:00:00 | 02:05:43 | 00:00:00 | |
| DM0DOS-11 | 2026-08-30 06:35:41 | 49.82635 | 8.43432 | 243° | 27km/h | 30836m | 5.3m/s | -45.1°C | 2.8% | 10.9hPa | 2.7V | 03:12:10 | 02:05:37 | 00:00:00 | |
| BIOWL1-15 | 2026-08-30 06:35:37 | 49.82642 | 8.43456 | 254° | 15km/h | 30819m | 5.5m/s | -45.2°C | 0% | 10.9hPa | 2.6V | 03:12:50 | 02:05:34 | 00:00:00 | |
| AU51GT2 | 2026-08-30 06:35:37 | 49.82635 | 8.43432 | 243° | 27km/h | 30836m | 5.3m/s | -45.1°C | 0.7% | 10.9hPa | 2.6V | 00:00:00 | 00:00:00 | 00:00:00 | |
| DL1XH1-15 | 2026-08-30 06:35:36 | 49.82641 | 8.43463 | 328° | 7km/h | 30808m | 5.7m/s | -45.4°C | 2.8% | 10.9hPa | 2.6V | 03:12:15 | 02:05:32 | 00:00:00 | |
| HSKMA3-T | 2026-08-30 06:35:36 | 49.82635 | 8.43432 | 243° | 27km/h | 30836m | 5.3m/s | -45.1°C | 0% | 10.9hPa | 2.7V | 03:12:50 | 02:05:37 | 00:00:00 | |
| DL1XH-west | 2026-08-30 06:35:35 | 49.82638 | 8.43441 | 245° | 26km/h | 30830m | 5.5m/s | -45.2°C | 0% | 10.9hPa | 2.7V | 03:12:50 | 02:05:36 | 00:00:00 | |
| AA1-15 | 2026-08-30 06:35:33 | 49.82642 | 8.43461 | 282° | 9km/h | 30813m | 5.4m/s | -45.3°C | 0% | 10.9hPa | 2.6V | 03:12:50 | 02:05:33 | 00:00:00 | |
| DJ2KF-10 | 2026-08-30 06:35:32 | 49.82642 | 8.43460 | 282° | 16km/h | 30814m | 5.4m/s | -45.3°C | 2.7% | 10.9hPa | 2.6V | 03:12:00 | 02:05:33 | 00:00:00 | |
| DO3DL | 2026-08-30 06:35:30 | 49.82641 | 8.43463 | 329° | 7km/h | 30808m | 5.7m/s | -45.4°C | 0.7% | 11.0hPa | 2.6V | 03:12:00 | 00:00:00 | 00:00:00 | |
| DM3KS-11 | 2026-08-30 06:35:28 | 49.82631 | 8.43467 | 342° | 4km/h | 30785m | 4.4m/s | -45.4°C | 0.7% | 11.0hPa | 2.6V | 00:00:00 | 00:00:00 | 00:00:00 | |
| DN1GJH-1 | 2026-08-30 06:35:27 | 49.82631 | 8.43467 | 344° | 5km/h | 30785m | 4.4m/s | -45.4°C | 0.7% | 11.0hPa | 2.6V | 03:12:00 | 00:00:00 | 00:00:00 | |
| DL1XH1-15 | 2026-08-30 06:35:26 | 49.82654 | 8.43464 | 194° | 24km/h | 30751m | 4.4m/s | -45.4°C | 2.9% | 11.1hPa | 2.6V | 03:12:25 | 02:05:22 | 00:00:00 | |
| HSKMA3-T | 2026-08-30 06:35:26 | 49.82631 | 8.43467 | 176° | 4km/h | 30780m | 4.9m/s | -45.5°C | 0% | 11hPa | 2.6V | 03:12:50 | 02:05:27 | 00:00:00 | |
| BIOWL1-15 | 2026-08-30 06:35:25 | 49.82642 | 8.43464 | 171° | 26km/h | 30761m | 5.9m/s | -45.6°C | 0% | 11hPa | 2.7V | 03:12:50 | 02:05:24 | 00:00:00 | |
| DL1XH-west | 2026-08-30 06:35:25 | 49.82632 | 8.43467 | 168° | 11km/h | 30774m | 6.7m/s | -45.6°C | 0% | 11hPa | 2.6V | 03:12:50 | 02:05:26 | 00:00:00 | |
| AA1-15 | 2026-08-30 06:35:21 | 49.82654 | 8.43464 | 195° | 24km/h | 30751m | 4.4m/s | -45.4°C | 0.1% | 11.1hPa | 2.6V | 03:12:50 | 02:05:22 | 00:00:00 | |
| DF8AY | 2026-08-30 06:35:19 | 49.82663 | 8.43474 | 242° | 20km/h | 30739m | 6.7m/s | -45.5°C | 0.1% | 0hPa | 2.6V | 03:21:20 | 02:05:20 | 00:00:00 | |
| BIOWL1-15 | 2026-08-30 06:35:17 | 49.82653 | 8.43495 | 94° | 11km/h | 30705m | 5.2m/s | -45.6°C | 0% | 11.1hPa | 2.6V | 03:12:50 | 02:05:14 | 00:00:00 | |
| DL1XH1-15 | 2026-08-30 06:35:16 | 49.82657 | 8.43486 | 146° | 20km/h | 30694m | 5.9m/s | -45.6°C | 2.8% | 11.1hPa | 2.7V | 03:12:35 | 02:05:12 | 00:00:00 | |
| HSKMA3-T | 2026-08-30 06:35:16 | 49.82660 | 8.43495 | 318° | 18km/h | 30722m | 5.2m/s | -45.5°C | 0% | 11.1hPa | 2.7V | 03:12:50 | 02:05:17 | 00:00:00 | |
| DL1XH-west | 2026-08-30 06:35:14 | 49.82654 | 8.43498 | 28° | 9km/h | 30711m | 5.7m/s | -45.5°C | 0% | 11.1hPa | 2.6V | 03:12:50 | 02:05:15 | 00:00:00 | |
| EDDB2-11 | 2026-08-30 06:35:14 | 49.82653 | 8.43495 | 93° | 9km/h | 30706m | 5.2m/s | -45.6°C | 0.7% | 11.1hPa | 2.7V | 00:00:00 | 00:00:00 | 00:00:00 | |
| DO1YAY-16 | 2026-08-30 06:35:13 | 49.82654 | 8.43491 | 125° | 15km/h | 30700m | 5.4m/s | -45.6°C | 0.7% | 11.1hPa | 2.7V | 00:00:00 | 00:00:00 | 00:00:00 | |
| DM0DOS-11 | 2026-08-30 06:35:11 | 49.82685 | 8.43490 | 208° | 20km/h | 30666m | 5.1m/s | -45.5°C | 2.8% | 11.2hPa | 2.7V | 03:12:40 | 02:05:07 | 00:00:00 | |
| AA1-15 | 2026-08-30 06:35:10 | 49.82662 | 8.43483 | 164° | 22km/h | 30688m | 6.2m/s | -45.7°C | 0% | 11.2hPa | 2.7V | 03:12:50 | 02:05:11 | 00:00:00 | |
| DF8AY | 2026-08-30 06:35:07 | 49.82680 | 8.43486 | 202° | 24km/h | 30671m | 4.9m/s | -45.5°C | 0% | 0hPa | 2.6V | 03:21:20 | 02:05:08 | 00:00:00 | |
| DL1XH1-15 | 2026-08-30 06:35:06 | 49.82692 | 8.43499 | 337° | 5km/h | 30639m | 5.8m/s | -45.7°C | 2.8% | 11.2hPa | 2.6V | 03:12:45 | 02:05:02 | 00:00:00 | |
| HSKMA3-T | 2026-08-30 06:35:06 | 49.82686 | 8.43490 | 208° | 20km/h | 30666m | 5.1m/s | -45.5°C | 0% | 11.2hPa | 2.7V | 03:12:50 | 02:05:07 | 00:00:00 | |
| BIOWL1-15 | 2026-08-30 06:35:06 | 49.82693 | 8.43498 | 332° | 4km/h | 30644m | 4.9m/s | -45.7°C | 0% | 11.2hPa | 2.6V | 03:12:50 | 02:05:03 | 00:00:00 | |
| DL1XH-west | 2026-08-30 06:35:04 | 49.82692 | 8.43496 | 217° | 9km/h | 30655m | 5.7m/s | -45.6°C | 0% | 11.2hPa | 2.7V | 03:12:50 | 02:05:05 | 00:00:00 | |
| AA1-15 | 2026-08-30 06:35:00 | 49.82690 | 8.43500 | 331° | 7km/h | 30633m | 6.3m/s | -45.6°C | 0% | 11.2hPa | 2.7V | 03:12:50 | 02:05:01 | 00:00:00 | |
| HSKMA3-T | 2026-08-30 06:34:56 | 49.82689 | 8.43499 | 130° | 11km/h | 30612m | 5.8m/s | -45.5°C | 0% | 11.3hPa | 2.6V | 03:12:50 | 02:04:57 | 00:00:00 | |
| DL1XH-west | 2026-08-30 06:34:54 | 49.82695 | 8.43488 | 131° | 26km/h | 30599m | 6.2m/s | -45.4°C | 0% | 11.3hPa | 2.7V | 03:13:41 | 02:04:55 | 00:00:00 | |
| BIOWL1-15 | 2026-08-30 06:34:52 | 49.82704 | 8.43475 | 144° | 24km/h | 30590m | 3.7m/s | -45.4°C | 0% | 11.3hPa | 2.7V | 03:13:41 | 02:04:53 | 00:00:00 | |
| DF8AY | 2026-08-30 06:34:51 | 49.82709 | 8.43471 | 160° | 18km/h | 30585m | 4.7m/s | -45.3°C | 0% | 0hPa | 2.6V | 03:21:20 | 02:04:52 | 00:00:00 | |
| AA1-15 | 2026-08-30 06:34:49 | 49.82716 | 8.43472 | 230° | 15km/h | 30573m | 6.8m/s | -45.4°C | 0% | 11.3hPa | 2.6V | 03:13:41 | 02:04:50 | 00:00:00 | |
| DO9LL-15 | 2026-08-30 06:34:48 | 49.82718 | 8.43478 | 259° | 13km/h | 30567m | 5.6m/s | -45.4°C | 2.8% | 11.3hPa | 2.7V | 03:12:00 | 02:04:49 | 00:00:00 | |
| DL1XH1-15 | 2026-08-30 06:34:46 | 49.82714 | 8.43468 | 101° | 26km/h | 30529m | 5.7m/s | -45.5°C | 2.9% | 11.4hPa | 2.7V | 03:13:05 | 02:04:42 | 00:00:00 | |
| HSKMA3-T | 2026-08-30 06:34:46 | 49.82717 | 8.43490 | 295° | 13km/h | 30557m | 4.5m/s | -45.5°C | 0% | 11.4hPa | 2.7V | 03:13:41 | 02:04:47 | 00:00:00 | |
| DL1XH-west | 2026-08-30 06:34:43 | 49.82713 | 8.43486 | 83° | 18km/h | 30540m | 5.6m/s | -45.7°C | 0% | 11.4hPa | 2.6V | 03:13:41 | 02:04:44 | 00:00:00 | |
| EDDB2-11 | 2026-08-30 06:34:43 | 49.82713 | 8.43478 | 92° | 24km/h | 30535m | 5.3m/s | -45.6°C | 0.8% | 11.4hPa | 2.7V | 00:00:00 | 00:00:00 | 00:00:00 | |
| DO1YAY-16 | 2026-08-30 06:34:42 | 49.82714 | 8.43468 | 101° | 24km/h | 30530m | 5.7m/s | -45.5°C | 0.8% | 11.4hPa | 2.7V | 00:00:00 | 00:00:00 | 00:00:00 | |
| DM0DOS-11 | 2026-08-30 06:34:41 | 49.82727 | 8.43443 | 177° | 13km/h | 30500m | 5.7m/s | -45.6°C | 2.9% | 11.5hPa | 2.7V | 03:13:10 | 02:04:37 | 00:00:00 | |
| BIOWL1-15 | 2026-08-30 06:34:41 | 49.82714 | 8.43468 | 101° | 26km/h | 30529m | 5.7m/s | -45.5°C | 0.1% | 11.4hPa | 2.7V | 03:13:41 | 02:04:42 | 00:00:00 | |
| DF8AY | 2026-08-30 06:34:40 | 49.82715 | 8.43459 | 110° | 24km/h | 30524m | 6m/s | -45.6°C | 0% | 0hPa | 2.7V | 03:21:20 | 02:04:41 | 00:00:00 | |
| AA1-15 | 2026-08-30 06:34:38 | 49.82721 | 8.43446 | 142° | 16km/h | 30512m | 5.7m/s | -45.6°C | 0% | 11.5hPa | 2.6V | 03:13:41 | 02:04:39 | 00:00:00 | |
| DO3DL | 2026-08-30 06:34:38 | 49.82721 | 8.43446 | 143° | 16km/h | 30512m | 5.7m/s | -45.6°C | 0.7% | 11.5hPa | 2.6V | 03:13:00 | 00:00:00 | 00:00:00 | |
| DL1XH1-15 | 2026-08-30 06:34:36 | 49.82734 | 8.43438 | 78° | 5km/h | 30471m | 5.3m/s | -45.7°C | 2.8% | 11.5hPa | 2.6V | 03:13:15 | 02:04:32 | 00:00:00 | |
| HSKMA3-T | 2026-08-30 06:34:35 | 49.82730 | 8.43443 | 181° | 11km/h | 30495m | 6m/s | -45.5°C | 0% | 11.5hPa | 2.7V | 03:13:41 | 02:04:36 | 00:00:00 | |
| DL1XH-west | 2026-08-30 06:34:32 | 49.82734 | 8.43440 | 96° | 5km/h | 30477m | 5.7m/s | -45.6°C | 0% | 11.5hPa | 2.6V | 03:13:41 | 02:04:33 | 00:00:00 | |
| DJ2KF-10 | 2026-08-30 06:34:32 | 49.82734 | 8.43440 | 96° | 7km/h | 30477m | 5.6m/s | -45.6°C | 2.8% | 11.5hPa | 2.6V | 00:00:00 | 02:04:33 | 00:00:00 | |
| DM0DOS-11 | 2026-08-30 06:34:31 | 49.82733 | 8.43431 | 106° | 5km/h | 30444m | 4.9m/s | -45.6°C | 2.9% | 11.6hPa | 2.6V | 03:13:20 | 02:04:27 | 00:00:00 | |
| BIOWL1-15 | 2026-08-30 06:34:30 | 49.82733 | 8.43436 | 71° | 5km/h | 30466m | 5.4m/s | -45.6°C | 0% | 11.5hPa | 2.7V | 03:13:41 | 02:04:31 | 00:00:00 | |
| DF8AY | 2026-08-30 06:34:29 | 49.82733 | 8.43434 | 67° | 4km/h | 30460m | 6.4m/s | -45.5°C | 0% | 0hPa | 2.7V | 03:21:20 | 02:04:30 | 00:00:00 | |
| AA1-15 | 2026-08-30 06:34:28 | 49.82733 | 8.43433 | 83° | 2km/h | 30454m | 6m/s | -45.5°C | 0% | 11.6hPa | 2.7V | 03:13:41 | 02:04:29 | 00:00:00 | |
| DH7VM-15 | 2026-08-30 06:34:27 | 49.82733 | 8.43433 | 0° | 0km/h | 30454m | 6.0m/s | -45.5°C | 0.7% | 11.6hPa | 2.6V | 00:00:00 | 00:00:00 | 00:00:00 | |
| DL1XH1-15 | 2026-08-30 06:34:26 | 49.82737 | 8.43404 | 114° | 15km/h | 30417m | 4.8m/s | -45.5°C | 2.8% | 11.6hPa | 2.6V | 03:13:25 | 02:04:22 | 00:00:00 | |
| HSKMA3-T | 2026-08-30 06:34:24 | 49.82734 | 8.43423 | 99° | 15km/h | 30432m | 6.3m/s | -45.5°C | 0% | 11.6hPa | 2.7V | 03:13:41 | 02:04:25 | 00:00:00 | |
| DL1XH-west | 2026-08-30 06:34:22 | 49.82736 | 8.43410 | 105° | 18km/h | 30421m | 4.4m/s | -45.5°C | 0% | 11.6hPa | 2.7V | 03:13:41 | 02:04:23 | 00:00:00 | |
| DM0DOS-11 | 2026-08-30 06:34:21 | 49.82742 | 8.43405 | 300° | 5km/h | 30388m | 5.5m/s | -45.5°C | 2.8% | 11.7hPa | 2.7V | 03:13:30 | 02:04:17 | 00:00:00 | |
| BIOWL1-15 | 2026-08-30 06:34:19 | 49.82740 | 8.43399 | 185° | 5km/h | 30404m | 6.5m/s | -45.6°C | 0% | 11.7hPa | 2.6V | 03:13:41 | 02:04:20 | 00:00:00 | |
| DF8AY | 2026-08-30 06:34:18 | 49.82741 | 8.43400 | 235° | 7km/h | 30399m | 5.3m/s | -45.6°C | 0% | 0hPa | 2.7V | 03:21:20 | 02:04:19 | 00:00:00 | |
| AA1-15 | 2026-08-30 06:34:17 | 49.82742 | 8.43403 | 263° | 7km/h | 30393m | 4.9m/s | -45.5°C | 0% | 11.7hPa | 2.7V | 03:13:41 | 02:04:18 | 00:00:00 | |
| HSKMA3-T | 2026-08-30 06:34:13 | 49.82736 | 8.43403 | 38° | 13km/h | 30371m | 5.2m/s | -45.5°C | 0% | 11.7hPa | 2.6V | 03:13:41 | 02:04:14 | 00:00:00 | |
| DL1XH-west | 2026-08-30 06:34:12 | 49.82734 | 8.43400 | 45° | 15km/h | 30366m | 5m/s | -45.5°C | 0% | 11.7hPa | 2.7V | 03:13:41 | 02:04:13 | 00:00:00 | |
| BIOWL1-15 | 2026-08-30 06:34:09 | 49.82729 | 8.43392 | 52° | 2km/h | 30349m | 6.1m/s | -45.5°C | 0% | 11.8hPa | 2.6V | 03:13:41 | 02:04:10 | 00:00:00 | |
| DF8AY | 2026-08-30 06:34:07 | 49.82729 | 8.43393 | 237° | 4km/h | 30338m | 4.8m/s | -45.6°C | 0% | 0hPa | 2.6V | 03:21:20 | 02:04:08 | 00:00:00 | |
| DL1XH1-15 | 2026-08-30 06:34:06 | 49.82722 | 8.43387 | 12° | 11km/h | 30306m | 5.2m/s | -45.8°C | 2.7% | 11.8hPa | 2.6V | 03:13:45 | 02:04:02 | 00:00:00 | |
| AA1-15 | 2026-08-30 06:34:06 | 49.82730 | 8.43394 | 244° | 2km/h | 30333m | 5.4m/s | -45.7°C | 0.1% | 11.8hPa | 2.7V | 03:13:41 | 02:04:07 | 00:00:00 | |
| HSKMA3-T | 2026-08-30 06:34:03 | 49.82727 | 8.43391 | 36° | 11km/h | 30316m | 5.3m/s | -45.7°C | 0% | 11.8hPa | 2.6V | 03:14:32 | 02:04:04 | 00:00:00 | |
| NBG1-10 | 2026-08-30 06:34:02 | 49.82725 | 8.43389 | 28° | 13km/h | 30311m | 4.7m/s | -45.7°C | 2.8% | 11.8hPa | 2.6V | 00:00:00 | 02:04:03 | 00:00:00 | |
| DM0DOS-11 | 2026-08-30 06:34:01 | 49.82709 | 8.43395 | 344° | 15km/h | 30277m | 6.5m/s | -45.7°C | 2.9% | 11.8hPa | 2.6V | 03:13:50 | 02:03:57 | 00:00:00 | |
| DL1XH-west | 2026-08-30 06:34:01 | 49.82722 | 8.43387 | 13° | 11km/h | 30306m | 5.2m/s | -45.8°C | 0% | 11.8hPa | 2.6V | 03:14:32 | 02:04:02 | 00:00:00 | |
| BIOWL1-15 | 2026-08-30 06:34:00 | 49.82715 | 8.43391 | 324° | 11km/h | 30288m | 5.1m/s | -45.7°C | 0% | 11.9hPa | 2.7V | 03:14:32 | 02:03:59 | 00:00:00 | |
| BIOWL7-15 | 2026-08-30 06:33:58 | 49.82717 | 8.43388 | 331° | 11km/h | 30294m | 6.1m/s | -45.8°C | 0.8% | 11.9hPa | 2.6V | 03:14:00 | 00:00:00 | 00:00:00 | |
| DL1KLB | 2026-08-30 06:33:57 | 49.82715 | 8.43391 | 325° | 11km/h | 30289m | 5.1m/s | -45.7°C | 0.8% | 11.9hPa | 2.6V | 03:14:00 | 00:00:00 | 00:00:00 | |
| DL1XH1-15 | 2026-08-30 06:33:56 | 49.82697 | 8.43396 | 297° | 2km/h | 30249m | 6.4m/s | -45.9°C | 2.9% | 11.9hPa | 2.6V | 03:13:55 | 02:03:52 | 00:00:00 | |
| AA1-15 | 2026-08-30 06:33:55 | 49.82706 | 8.43396 | 358° | 15km/h | 30271m | 5.6m/s | -45.7°C | 0.1% | 11.9hPa | 2.6V | 03:14:32 | 02:03:56 | 00:00:00 | |
| DF8AY | 2026-08-30 06:33:53 | 49.82699 | 8.43395 | 7° | 9km/h | 30261m | 4.9m/s | -45.7°C | 0.1% | 0hPa | 2.7V | 03:21:20 | 02:03:54 | 00:00:00 | |
| HSKMA3-T | 2026-08-30 06:33:52 | 49.82697 | 8.43395 | 356° | 5km/h | 30255m | 6.2m/s | -45.8°C | 0% | 11.9hPa | 2.7V | 03:14:32 | 02:03:53 | 00:00:00 | |
| HTAHTA | 2026-08-30 06:33:52 | 49.82697 | 8.43398 | 207° | 2km/h | 30239m | 4.6m/s | 0°C | -1.0% | -1.0hPa | 2.7V | 00:00:00 | 00:00:00 | 00:00:00 | |
| DM0DOS-11 | 2026-08-30 06:33:51 | 49.82698 | 8.43395 | 57° | 7km/h | 30221m | 5.8m/s | -45.9°C | 2.8% | 12hPa | 2.7V | 03:14:00 | 02:03:47 | 00:00:00 | |
| BIOWL1-15 | 2026-08-30 06:33:50 | 49.82698 | 8.43398 | 162° | 2km/h | 30233m | 5.6m/s | -45.9°C | 0% | 11.9hPa | 2.7V | 03:14:32 | 02:03:49 | 00:00:00 | |
| DL1XH-west | 2026-08-30 06:33:50 | 49.82697 | 8.43397 | 231° | 4km/h | 30243m | 5.2m/s | -45.9°C | 0% | 11.9hPa | 2.6V | 03:14:32 | 02:03:51 | 00:00:00 | |
| SONDE2-11 | 2026-08-30 06:33:49 | 49.82698 | 8.43398 | 162° | 2km/h | 30233m | 5.6m/s | -45.9°C | 0.7% | 11.9hPa | 2.7V | 00:00:00 | 00:00:00 | 00:00:00 | |
| EDDB2-12 | 2026-08-30 06:33:47 | 49.82698 | 8.43397 | 81° | 4km/h | 30228m | 6.5m/s | -45.9°C | 0.7% | 12.0hPa | 2.7V | 00:00:00 | 00:00:00 | 00:00:00 | |
| DL1XH1-15 | 2026-08-30 06:33:46 | 49.82687 | 8.43400 | 288° | 20km/h | 30195m | 6.6m/s | -45.9°C | 2.9% | 12hPa | 2.7V | 03:14:05 | 02:03:42 | 00:00:00 | |
| AA1-15 | 2026-08-30 06:33:44 | 49.82694 | 8.43390 | 16° | 11km/h | 30211m | 4.2m/s | -45.9°C | 0% | 12hPa | 2.6V | 03:14:32 | 02:03:45 | 00:00:00 | |
| HSKMA3-T | 2026-08-30 06:33:42 | 49.82689 | 8.43394 | 308° | 15km/h | 30201m | 6.2m/s | -45.8°C | 0% | 12hPa | 2.7V | 03:14:32 | 02:03:43 | 00:00:00 | |
| DF8AY | 2026-08-30 06:33:41 | 49.82687 | 8.43399 | 288° | 20km/h | 30195m | 6.6m/s | -45.9°C | 0% | 0hPa | 2.7V | 03:21:20 | 02:03:42 | 00:00:00 | |
| DL1XH-west | 2026-08-30 06:33:39 | 49.82685 | 8.43418 | 273° | 27km/h | 30184m | 4.3m/s | -46°C | 0.1% | 12.1hPa | 2.6V | 03:14:32 | 02:03:40 | 00:00:00 | |
| BIOWL1-15 | 2026-08-30 06:33:37 | 49.82684 | 8.43436 | 277° | 18km/h | 30175m | 5.6m/s | -46°C | 0.1% | 12.1hPa | 2.6V | 03:14:32 | 02:03:38 | 00:00:00 | |
| AA1-15 | 2026-08-30 06:33:33 | 49.82676 | 8.43446 | 350° | 13km/h | 30153m | 4.4m/s | -45.8°C | 0.1% | 12.1hPa | 2.6V | 03:14:32 | 02:03:34 | 00:00:00 | |
| HSKMA3-T | 2026-08-30 06:33:31 | 49.82670 | 8.43451 | 309° | 16km/h | 30143m | 6m/s | -45.6°C | 0% | 12.1hPa | 2.6V | 03:14:32 | 02:03:32 | 00:00:00 | |
| DL1XH-west | 2026-08-30 06:33:29 | 49.82667 | 8.43467 | 280° | 26km/h | 30131m | 5.5m/s | -45.7°C | 0% | 12.2hPa | 2.7V | 03:14:32 | 02:03:30 | 00:00:00 | |
| NBG1-10 | 2026-08-30 06:33:29 | 49.82667 | 8.43467 | 280° | 18km/h | 30131m | 5.4m/s | -45.6°C | 2.8% | 12.1hPa | 2.6V | 00:00:00 | 02:03:30 | 00:00:00 | |
| DL8DAS-15 | 2026-08-30 06:33:28 | 49.82667 | 8.43467 | 281° | 26km/h | 30131m | 5.5m/s | -45.7°C | 0.8% | 12.2hPa | 2.6V | 00:00:00 | 00:00:00 | 00:00:00 | |
| KANTATE | 2026-08-30 06:33:27 | 49.82666 | 8.43477 | 275° | 27km/h | 30126m | 4.7m/s | -45.8°C | 0.7% | 12.2hPa | 2.6V | 00:00:00 | 00:00:00 | 00:00:00 | |
| DL1XH1-15 | 2026-08-30 06:33:26 | 49.82664 | 8.43519 | 290° | 11km/h | 30087m | 6.1m/s | -45.8°C | 2.8% | 12.2hPa | 2.6V | 03:14:25 | 02:03:22 | 00:00:00 | |
| BIOWL1-15 | 2026-08-30 06:33:26 | 49.82666 | 8.43497 | 269° | 22km/h | 30116m | 5.8m/s | -45.8°C | 0% | 12.2hPa | 2.6V | 03:14:32 | 02:03:27 | 00:00:00 | |
| AA1-15 | 2026-08-30 06:33:22 | 49.82665 | 8.43516 | 290° | 7km/h | 30093m | 5.1m/s | -45.7°C | 0% | 12.2hPa | 2.7V | 03:14:32 | 02:03:23 | 00:00:00 | |
| HSKMA3-T | 2026-08-30 06:33:20 | 49.82663 | 8.43524 | 287° | 15km/h | 30081m | 6.3m/s | -45.8°C | 0% | 12.2hPa | 2.6V | 03:14:32 | 02:03:21 | 00:00:00 | |
| DL1XH-west | 2026-08-30 06:33:19 | 49.82662 | 8.43530 | 286° | 18km/h | 30075m | 5.6m/s | -45.9°C | 0% | 12.2hPa | 2.6V | 03:14:32 | 02:03:20 | 00:00:00 | |
| SONDE2-11 | 2026-08-30 06:33:18 | 49.82660 | 8.43545 | 282° | 18km/h | 30064m | 5.6m/s | -46.1°C | 0.7% | 12.3hPa | 2.7V | 00:00:00 | 00:00:00 | 00:00:00 | |
| DL1XH1-15 | 2026-08-30 06:33:16 | 49.82660 | 8.43586 | 257° | 24km/h | 30030m | 6.2m/s | -46.3°C | 2.9% | 12.3hPa | 2.7V | 03:14:35 | 02:03:12 | 00:00:00 | |
| BIOWL1-15 | 2026-08-30 06:33:15 | 49.82658 | 8.43558 | 276° | 15km/h | 30052m | 5.5m/s | -46.2°C | 0% | 12.3hPa | 2.6V | 03:14:32 | 02:03:16 | 00:00:00 | |
| DB0UT-9 | 2026-08-30 06:33:14 | 49.82658 | 8.43558 | 277° | 15km/h | 30052m | 5.5m/s | -46.2°C | 0.8% | 12.3hPa | 2.7V | 03:14:00 | 00:00:00 | 00:00:00 | |
| DL4BBY-15 | 2026-08-30 06:33:13 | 49.82658 | 8.43570 | 262° | 20km/h | 30043m | 5.1m/s | -47.4°C | 0% | 0hPa | 2.7V | 00:00:00 | 00:00:00 | 00:00:00 | |
| DM0DOS-11 | 2026-08-30 06:33:11 | 49.82668 | 8.43618 | 245° | 11km/h | 30001m | 5.3m/s | -46.5°C | 2.8% | 12.4hPa | 2.7V | 03:14:40 | 02:03:07 | 00:00:00 | |
| AA1-15 | 2026-08-30 06:33:11 | 49.82660 | 8.43586 | 258° | 24km/h | 30030m | 6.3m/s | -46.3°C | 0% | 12.3hPa | 2.7V | 03:15:23 | 02:03:12 | 00:00:00 | |
| HSKMA3-T | 2026-08-30 06:33:10 | 49.82662 | 8.43594 | 254° | 24km/h | 30024m | 5m/s | -46.3°C | 0.1% | 12.4hPa | 2.7V | 03:15:23 | 02:03:11 | 00:00:00 | |
| DL1XH-west | 2026-08-30 06:33:08 | 49.82665 | 8.43609 | 249° | 16km/h | 30014m | 6.4m/s | -46.4°C | 0.1% | 12.4hPa | 2.6V | 03:15:23 | 02:03:09 | 00:00:00 | |
| DB0NH | 2026-08-30 06:33:07 | 49.82666 | 8.43614 | 245° | 22km/h | 30008m | 6.5m/s | -46.4°C | 2.9% | 12.3hPa | 2.6V | 00:00:00 | 02:03:08 | 00:00:00 | |
| DL1XH1-15 | 2026-08-30 06:33:06 | 49.82670 | 8.43658 | 269° | 31km/h | 29973m | 4.9m/s | -46.7°C | 2.9% | 12.4hPa | 2.6V | 03:14:45 | 02:03:02 | 00:00:00 | |
| BIOWL1-15 | 2026-08-30 06:33:04 | 49.82669 | 8.43628 | 261° | 16km/h | 29991m | 5.7m/s | -46.7°C | 0% | 12.4hPa | 2.7V | 03:15:23 | 02:03:05 | 00:00:00 | |
| DB0UT-7 | 2026-08-30 06:33:04 | 49.82669 | 8.43628 | 261° | 22km/h | 29991m | 5.6m/s | -46.6°C | 2.8% | 12.4hPa | 2.6V | 00:00:00 | 02:03:05 | 00:00:00 | |
| SONCRA | 2026-08-30 06:33:03 | 49.82670 | 8.43646 | 267° | 29km/h | 29979m | 5.7m/s | -46.7°C | 0.8% | 12.4hPa | 2.6V | 00:00:00 | 00:00:00 | 00:00:00 | |
| DJ2KF-10 | 2026-08-30 06:33:02 | 49.82670 | 8.43646 | 268° | 22km/h | 29979m | 5.6m/s | -46.7°C | 2.9% | 12.4hPa | 2.6V | 00:00:00 | 02:03:03 | 00:00:00 | |
| DM0DOS-11 | 2026-08-30 06:33:01 | 49.82669 | 8.43705 | 263° | 13km/h | 29945m | 5m/s | -46.9°C | 3% | 12.5hPa | 2.6V | 03:14:50 | 02:02:57 | 00:00:00 | |
| AA1-15 | 2026-08-30 06:33:00 | 49.82670 | 8.43670 | 272° | 31km/h | 29969m | 5m/s | -46.8°C | 0.1% | 12.4hPa | 2.7V | 03:15:23 | 02:03:01 | 00:00:00 | |
| HSKMA3-T | 2026-08-30 06:32:59 | 49.82670 | 8.43682 | 274° | 27km/h | 29963m | 6.3m/s | -46.8°C | 0.1% | 12.5hPa | 2.7V | 03:15:23 | 02:03:00 | 00:00:00 | |
| DL1XH-west | 2026-08-30 06:32:57 | 49.82669 | 8.43699 | 273° | 16km/h | 29951m | 5.4m/s | -46.8°C | 0.1% | 12.5hPa | 2.6V | 03:15:23 | 02:02:58 | 00:00:00 | |
| BIOWL1-15 | 2026-08-30 06:32:54 | 49.82671 | 8.43715 | 245° | 16km/h | 29934m | 6.2m/s | -47.1°C | 0.1% | 12.5hPa | 2.7V | 03:15:23 | 02:02:55 | 00:00:00 | |
| DM3KS-11 | 2026-08-30 06:32:52 | 49.82683 | 8.43750 | 245° | 27km/h | 29912m | 4.9m/s | -47.1°C | 0.8% | 12.6hPa | 2.7V | 00:00:00 | 00:00:00 | 00:00:00 | |
| DM0DOS-11 | 2026-08-30 06:32:51 | 49.82688 | 8.43782 | 280° | 15km/h | 29888m | 5.1m/s | -47°C | 3% | 12.6hPa | 2.7V | 03:15:00 | 02:02:47 | 00:00:00 | |
| AA1-15 | 2026-08-30 06:32:49 | 49.82685 | 8.43760 | 249° | 26km/h | 29906m | 5.4m/s | -47.1°C | 0.1% | 12.6hPa | 2.6V | 03:15:23 | 02:02:50 | 00:00:00 | |
| HSKMA3-T | 2026-08-30 06:32:48 | 49.82687 | 8.43769 | 254° | 20km/h | 29901m | 6.5m/s | -47.1°C | 0.1% | 12.6hPa | 2.7V | 03:15:23 | 02:02:49 | 00:00:00 | |
| SONDE2-11 | 2026-08-30 06:32:47 | 49.82688 | 8.43782 | 280° | 15km/h | 29889m | 5.1m/s | -47.0°C | 0.8% | 12.6hPa | 2.7V | 00:00:00 | 00:00:00 | 00:00:00 | |
| DL1XH1-15 | 2026-08-30 06:32:46 | 49.82683 | 8.43823 | 270° | 26km/h | 29860m | 4.8m/s | -47.2°C | 3% | 12.7hPa | 2.7V | 03:15:05 | 02:02:42 | 00:00:00 | |
| DL1XH-west | 2026-08-30 06:32:46 | 49.82688 | 8.43782 | 281° | 15km/h | 29889m | 5.1m/s | -47°C | 0.1% | 12.6hPa | 2.7V | 03:15:23 | 02:02:47 | 00:00:00 | |
| BIOWL1-15 | 2026-08-30 06:32:43 | 49.82684 | 8.43803 | 283° | 24km/h | 29871m | 6.4m/s | -47.1°C | 0.1% | 12.7hPa | 2.6V | 03:15:23 | 02:02:44 | 00:00:00 | |
| DF8AY | 2026-08-30 06:32:42 | 49.82683 | 8.43812 | 277° | 27km/h | 29865m | 5.5m/s | 0°C | 0% | 0hPa | 2.7V | 03:21:20 | 02:02:43 | 00:00:00 | |
| DM0DOS-11 | 2026-08-30 06:32:41 | 49.82690 | 8.43861 | 241° | 20km/h | 29831m | 5.2m/s | -47.4°C | 3.1% | 12.7hPa | 2.7V | 03:15:10 | 02:02:37 | 00:00:00 | |
| HSKMA3-T | 2026-08-30 06:32:38 | 49.82686 | 8.43848 | 245° | 18km/h | 29842m | 6.2m/s | -47.4°C | 0.2% | 12.7hPa | 2.6V | 03:15:23 | 02:02:39 | 00:00:00 | |
| DO1YAY-16 | 2026-08-30 06:32:37 | 49.82688 | 8.43855 | 239° | 16km/h | 29837m | 5.1m/s | -47.3°C | 0.8% | 12.7hPa | 2.6V | 00:00:00 | 00:00:00 | 00:00:00 | |
| DL1XH1-15 | 2026-08-30 06:32:36 | 49.82694 | 8.43903 | 286° | 20km/h | 29803m | 6.5m/s | -47.5°C | 3% | 12.8hPa | 2.6V | 03:15:15 | 02:02:32 | 00:00:00 | |
| DL1XH-west | 2026-08-30 06:32:35 | 49.82693 | 8.43868 | 248° | 22km/h | 29826m | 6.4m/s | -47.5°C | 0.2% | 12.7hPa | 2.7V | 03:15:23 | 02:02:36 | 00:00:00 | |
| BIOWL1-15 | 2026-08-30 06:32:34 | 49.82695 | 8.43895 | 277° | 24km/h | 29809m | 5.1m/s | -47.5°C | 0.2% | 12.8hPa | 2.6V | 03:15:23 | 02:02:33 | 00:00:00 | |
| DB0UT-7 | 2026-08-30 06:32:34 | 49.82694 | 8.43877 | 258° | 18km/h | 29820m | 6.1m/s | -47.5°C | 3.1% | 12.7hPa | 2.7V | 00:00:00 | 00:00:00 | 00:00:00 | |
| DL1XH-15 | 2026-08-30 06:32:33 | 49.82687 | 8.43921 | 306° | 16km/h | 29784m | 5.2m/s | -47.6°C | 3% | 12.8hPa | 2.7V | 03:15:18 | 02:02:29 | 00:00:00 | |
| SONCRA | 2026-08-30 06:32:32 | 49.82694 | 8.43903 | 286° | 20km/h | 29803m | 6.5m/s | -47.5°C | 0.8% | 12.8hPa | 2.6V | 00:00:00 | 00:00:00 | 00:00:00 | |
| DM0DOS-11 | 2026-08-30 06:32:31 | 49.82683 | 8.43934 | 292° | 22km/h | 29773m | 6.7m/s | -47.6°C | 3.1% | 12.8hPa | 2.6V | 03:15:20 | 02:02:27 | 00:00:00 | |
| HSKMA3-T | 2026-08-30 06:32:27 | 49.82685 | 8.43927 | 299° | 18km/h | 29779m | 5.2m/s | -47.7°C | 0.2% | 12.8hPa | 2.6V | 03:15:23 | 02:02:28 | 00:00:00 | |
| DL1XH1-15 | 2026-08-30 06:32:26 | 49.82680 | 8.43977 | 260° | 15km/h | 29744m | 6.9m/s | -48°C | 3.2% | 12.9hPa | 2.6V | 03:15:25 | 02:02:22 | 00:00:00 | |
| BIOWL1-15 | 2026-08-30 06:32:24 | 49.82679 | 8.43970 | 266° | 20km/h | 29751m | 6.3m/s | -47.9°C | 0.3% | 12.9hPa | 2.7V | 03:16:14 | 02:02:23 | 00:00:00 | |
| DL1XH-west | 2026-08-30 06:32:24 | 49.82680 | 8.43952 | 278° | 26km/h | 29761m | 5m/s | -47.6°C | 0.2% | 12.9hPa | 2.7V | 03:15:23 | 02:02:25 | 00:00:00 | |
| DF8AY | 2026-08-30 06:32:18 | 49.82680 | 8.43989 | 290° | 11km/h | 29726m | 5.4m/s | 0°C | 0% | 0hPa | 2.7V | 03:21:20 | 02:02:19 | 00:00:00 | |
| HSKMA3-T | 2026-08-30 06:32:16 | 49.82677 | 8.43999 | 300° | 22km/h | 29714m | 6.4m/s | -47.9°C | 0.2% | 12.9hPa | 2.7V | 03:16:14 | 02:02:17 | 00:00:00 | |
| AA1-15 | 2026-08-30 06:32:14 | 49.82670 | 8.44015 | 306° | 26km/h | 29703m | 4.9m/s | -47.8°C | 0.2% | 13hPa | 2.6V | 03:16:14 | 02:02:15 | 00:00:00 | |
| DL1XH-west | 2026-08-30 06:32:13 | 49.82666 | 8.44022 | 311° | 24km/h | 29697m | 6.4m/s | -47.8°C | 0.3% | 12.9hPa | 2.6V | 03:16:14 | 02:02:14 | 00:00:00 | |
| DL4BBY-15 | 2026-08-30 06:32:13 | 49.82666 | 8.44022 | 311° | 20km/h | 29698m | 6.3m/s | -48.9°C | 0% | 0hPa | 2.7V | 00:00:00 | 00:00:00 | 00:00:00 | |
| DM0DOS-11 | 2026-08-30 06:32:11 | 49.82653 | 8.44065 | 266° | 18km/h | 29654m | 5.1m/s | -47.6°C | 3.2% | 13.1hPa | 2.7V | 03:15:40 | 02:02:07 | 00:00:00 | |
| BIOWL1-15 | 2026-08-30 06:32:11 | 49.82659 | 8.44034 | 315° | 16km/h | 29684m | 5.7m/s | -47.7°C | 0.3% | 13hPa | 2.7V | 03:16:14 | 02:02:12 | 00:00:00 | |
| DD1CC2-15 | 2026-08-30 06:32:11 | 49.82659 | 8.44034 | 316° | 16km/h | 29685m | 5.7m/s | -47.7°C | 0.9% | 13.0hPa | 2.6V | 03:16:00 | 00:00:00 | 00:00:00 | |
| DB0UT-9 | 2026-08-30 06:32:10 | 49.82659 | 8.44034 | 316° | 16km/h | 29685m | 5.7m/s | -47.7°C | 0.9% | 13.0hPa | 2.6V | 03:16:00 | 00:00:00 | 00:00:00 | |
| EDDB2-11 | 2026-08-30 06:32:08 | 49.82653 | 8.44058 | 271° | 18km/h | 29660m | 5.7m/s | -47.7°C | 0.8% | 13.1hPa | 2.6V | 00:00:00 | 00:00:00 | 00:00:00 | |
| DL1XH1-15 | 2026-08-30 06:32:07 | 49.82650 | 8.44088 | 313° | 15km/h | 29626m | 5.3m/s | -47.6°C | 3.1% | 13.1hPa | 2.6V | 03:15:45 | 02:02:02 | 00:00:00 | |
| HSKMA3-T | 2026-08-30 06:32:06 | 49.82653 | 8.44065 | 266° | 18km/h | 29654m | 5.1m/s | -47.6°C | 0.3% | 13.1hPa | 2.7V | 03:16:14 | 02:02:07 | 00:00:00 | |
| DO3MHA-11 | 2026-08-30 06:32:06 | 49.82653 | 8.44065 | 267° | 20km/h | 29655m | 5.1m/s | -47.6°C | 3.2% | 13.0hPa | 2.7V | 00:00:00 | 02:02:07 | 00:00:00 | |
| KANTATE | 2026-08-30 06:32:05 | 49.82653 | 8.44065 | 267° | 18km/h | 29655m | 5.1m/s | -47.6°C | 0.8% | 13.1hPa | 2.7V | 03:16:00 | 00:00:00 | 00:00:00 | |
| DJ2DS-15 | 2026-08-30 06:32:04 | 49.82654 | 8.44081 | 284° | 7km/h | 29637m | 5.8m/s | -47.6°C | 0.8% | 13.1hPa | 2.7V | 00:00:00 | 00:00:00 | 00:00:00 | |
| DL1XH-15 | 2026-08-30 06:32:03 | 49.82639 | 8.44109 | 307° | 33km/h | 29607m | 5.9m/s | -47.4°C | 3.1% | 13.2hPa | 2.7V | 03:15:48 | 02:01:59 | 00:00:00 | |
| AA1-15 | 2026-08-30 06:32:03 | 49.82654 | 8.44081 | 284° | 7km/h | 29637m | 5.8m/s | -47.6°C | 0.2% | 13.1hPa | 2.6V | 03:16:14 | 02:02:04 | 00:00:00 | |
| BIOWL1-15 | 2026-08-30 06:32:02 | 49.82648 | 8.44093 | 313° | 20km/h | 29620m | 6.7m/s | -47.6°C | 0.2% | 13.1hPa | 2.7V | 03:16:14 | 02:02:01 | 00:00:00 | |
| DL1XH-west | 2026-08-30 06:32:02 | 49.82653 | 8.44084 | 307° | 9km/h | 29631m | 4.9m/s | -47.6°C | 0.2% | 13.1hPa | 2.6V | 03:16:14 | 02:02:03 | 00:00:00 | |
| DJ2KF-10 | 2026-08-30 06:32:02 | 49.82653 | 8.44084 | 307° | 20km/h | 29632m | 4.8m/s | -47.5°C | 3.1% | 13.1hPa | 2.6V | 00:00:00 | 02:02:03 | 00:00:00 | |
| DM0DOS-11 | 2026-08-30 06:32:01 | 49.82629 | 8.44130 | 304° | 31km/h | 29597m | 5m/s | -47.5°C | 3.2% | 13.2hPa | 2.6V | 03:15:50 | 02:01:57 | 00:00:00 | |
| SONCRA | 2026-08-30 06:32:01 | 49.82648 | 8.44093 | 312° | 20km/h | 29620m | 6.7m/s | -47.6°C | 0.8% | 13.1hPa | 2.6V | 00:00:00 | 00:00:00 | 00:00:00 | |
| AU51GT2 | 2026-08-30 06:31:59 | 49.82644 | 8.44100 | 309° | 27km/h | 29614m | 6.9m/s | -47.5°C | 0.8% | 13.1hPa | 2.6V | 00:00:00 | 00:00:00 | 00:00:00 | |
| DL8DAS-14 | 2026-08-30 06:31:58 | 49.82639 | 8.44109 | 307° | 33km/h | 29607m | 5.9m/s | -47.4°C | 0.8% | 13.2hPa | 2.6V | 00:00:00 | 00:00:00 | 00:00:00 | |
| BUE01 | 2026-08-30 06:31:57 | 49.82634 | 8.44120 | 305° | 33km/h | 29602m | 5.0m/s | 0°C | -1.0% | -1.0hPa | 2.6V | 00:00:00 | 00:00:00 | 00:00:00 | |
| DL1XH1-15 | 2026-08-30 06:31:56 | 49.82623 | 8.44157 | 222° | 13km/h | 29568m | 4.9m/s | -47.4°C | 3.1% | 13.2hPa | 2.6V | 03:15:55 | 02:01:52 | 00:00:00 | |
| HSKMA3-T | 2026-08-30 06:31:55 | 49.82625 | 8.44139 | 304° | 26km/h | 29591m | 6.2m/s | -47.5°C | 0.3% | 13.2hPa | 2.6V | 03:16:14 | 02:01:56 | 00:00:00 | |
| DN1GJH-1 | 2026-08-30 06:31:54 | 49.82625 | 8.44139 | 305° | 26km/h | 29592m | 6.2m/s | -47.5°C | 0.9% | 13.2hPa | 2.7V | 03:16:00 | 00:00:00 | 00:00:00 | |
| DL1XH-15 | 2026-08-30 06:31:52 | 49.82630 | 8.44187 | 273° | 29km/h | 29546m | 5.2m/s | -47.1°C | 3% | 13.3hPa | 2.7V | 03:15:59 | 02:01:48 | 00:00:00 | |
| DL1XH-west | 2026-08-30 06:31:52 | 49.82621 | 8.44154 | 234° | 9km/h | 29573m | 5m/s | -47.4°C | 0.3% | 13.2hPa | 2.7V | 03:16:14 | 02:01:53 | 00:00:00 | |
| BIOWL1-15 | 2026-08-30 06:31:49 | 49.82628 | 8.44168 | 245° | 22km/h | 29557m | 6m/s | -47.4°C | 0.2% | 13.2hPa | 2.6V | 03:16:14 | 02:01:50 | 00:00:00 | |
| HTAHTA | 2026-08-30 06:31:47 | 49.82629 | 8.44199 | 286° | 31km/h | 29541m | 5.4m/s | 0°C | -1.0% | -1.0hPa | 2.7V | 00:00:00 | 00:00:00 | 00:00:00 | |
| DL1XH1-15 | 2026-08-30 06:31:46 | 49.82614 | 8.44232 | 275° | 5km/h | 29513m | 5.4m/s | -47°C | 3.1% | 13.4hPa | 2.7V | 03:16:05 | 02:01:42 | 00:00:00 | |
| HSKMA3-T | 2026-08-30 06:31:44 | 49.82622 | 8.44219 | 310° | 26km/h | 29529m | 6m/s | -47.2°C | 0.3% | 13.3hPa | 2.6V | 03:16:14 | 02:01:45 | 00:00:00 | |
| DL4BBY-15 | 2026-08-30 06:31:43 | 49.82618 | 8.44225 | 320° | 26km/h | 29524m | 5.4m/s | -48.2°C | 0% | 0hPa | 2.6V | 00:00:00 | 00:00:00 | 00:00:00 | |
| DL1XH-15 | 2026-08-30 06:31:42 | 49.82627 | 8.44255 | 234° | 33km/h | 29490m | 5.3m/s | -46.9°C | 3% | 13.4hPa | 2.6V | 03:16:09 | 02:01:38 | 00:00:00 | |
| DL1XH-west | 2026-08-30 06:31:41 | 49.82614 | 8.44232 | 276° | 5km/h | 29513m | 5.4m/s | -47°C | 0.2% | 13.4hPa | 2.7V | 03:16:14 | 02:01:42 | 00:00:00 | |
| BIOWL1-15 | 2026-08-30 06:31:39 | 49.82618 | 8.44239 | 222° | 20km/h | 29502m | 5.9m/s | -46.9°C | 0.2% | 13.4hPa | 2.6V | 03:16:14 | 02:01:40 | 00:00:00 | |
| EDDB2-11 | 2026-08-30 06:31:37 | 49.82632 | 8.44266 | 240° | 33km/h | 29485m | 5.2m/s | -47.0°C | 0.8% | 13.4hPa | 2.6V | 00:00:00 | 00:00:00 | 00:00:00 | |
| DL1XH1-15 | 2026-08-30 06:31:36 | 49.82636 | 8.44314 | 288° | 18km/h | 29456m | 5.3m/s | -46.9°C | 3% | 13.4hPa | 2.6V | 03:16:15 | 02:01:32 | 00:00:00 | |
| HSKMA3-T | 2026-08-30 06:31:33 | 49.82638 | 8.44298 | 269° | 24km/h | 29468m | 6.3m/s | -46.9°C | 0.1% | 13.4hPa | 2.6V | 03:16:14 | 02:01:34 | 00:00:00 | |
| DC4HF-4 | 2026-08-30 06:31:32 | 49.82636 | 8.44314 | 288° | 16km/h | 29456m | 5.3m/s | -46.9°C | 0.8% | 13.4hPa | 2.6V | 00:00:00 | 00:00:00 | 00:00:00 | |
| DM0DOS-11 | 2026-08-30 06:31:31 | 49.82636 | 8.44357 | 255° | 31km/h | 29426m | 5.9m/s | -46.7°C | 3% | 13.5hPa | 2.6V | 03:16:20 | 02:01:27 | 00:00:00 | |
| DL1XH-west | 2026-08-30 06:31:30 | 49.82635 | 8.44320 | 287° | 18km/h | 29450m | 5.6m/s | -46.9°C | 0.1% | 13.5hPa | 2.7V | 03:17:05 | 02:01:31 | 00:00:00 | |
| BIOWL1-15 | 2026-08-30 06:31:29 | 49.82634 | 8.44335 | 268° | 24km/h | 29438m | 6m/s | -46.7°C | 0.1% | 13.5hPa | 2.7V | 03:17:05 | 02:01:29 | 00:00:00 | |
| DF8AY | 2026-08-30 06:31:28 | 49.82634 | 8.44345 | 261° | 27km/h | 29432m | 6.3m/s | 0°C | 0% | 0hPa | 2.6V | 03:21:20 | 02:01:28 | 00:00:00 | |
| DG1MJG | 2026-08-30 06:31:28 | 49.82634 | 8.44335 | 269° | 24km/h | 29439m | 6.0m/s | 0°C | 0% | 0hPa | 2.6V | 00:00:00 | 00:00:00 | 00:00:00 | |
| DL8DAS-14 | 2026-08-30 06:31:27 | 49.82634 | 8.44345 | 260° | 27km/h | 29432m | 6.3m/s | -46.7°C | 0.8% | 13.5hPa | 2.6V | 00:00:00 | 00:00:00 | 00:00:00 | |
| DL1XH1-15 | 2026-08-30 06:31:26 | 49.82644 | 8.44407 | 267° | 22km/h | 29397m | 5.1m/s | -46.6°C | 3% | 13.6hPa | 2.6V | 03:16:25 | 02:01:22 | 00:00:00 | |
| DO3MHA-11 | 2026-08-30 06:31:26 | 49.82636 | 8.44356 | 256° | 29km/h | 29427m | 5.8m/s | -46.6°C | 3.0% | 13.5hPa | 2.6V | 00:00:00 | 02:01:27 | 00:00:00 | |
| DL8OAI-8 | 2026-08-30 06:31:25 | 49.82636 | 8.44356 | 256° | 31km/h | 29427m | 5.9m/s | -46.7°C | 0.8% | 13.5hPa | 2.7V | 03:17:00 | 00:00:00 | 00:00:00 | |
| KANTATE | 2026-08-30 06:31:24 | 49.82638 | 8.44368 | 254° | 31km/h | 29421m | 5.6m/s | -46.7°C | 0.8% | 13.6hPa | 2.7V | 00:00:00 | 00:00:00 | 00:00:00 | |
| DO3DL | 2026-08-30 06:31:23 | 49.82640 | 8.44380 | 253° | 29km/h | 29415m | 5.6m/s | -46.7°C | 0.8% | 13.6hPa | 2.7V | 03:17:00 | 00:00:00 | 00:00:00 | |
| DL1XH-15 | 2026-08-30 06:31:22 | 49.82643 | 8.44452 | 274° | 37km/h | 29373m | 5.7m/s | -46.6°C | 2.9% | 13.6hPa | 2.7V | 03:16:29 | 02:01:18 | 00:00:00 | |
| HSKMA3-T | 2026-08-30 06:31:22 | 49.82644 | 8.44399 | 261° | 22km/h | 29403m | 5.9m/s | -46.6°C | 0.2% | 13.6hPa | 2.7V | 03:17:05 | 02:01:23 | 00:00:00 | |
| BIOWL1-15 | 2026-08-30 06:31:20 | 49.82644 | 8.44438 | 274° | 33km/h | 29379m | 6.4m/s | -46.6°C | 0.1% | 13.7hPa | 2.7V | 03:17:05 | 02:01:19 | 00:00:00 | |
| DL1XH-west | 2026-08-30 06:31:20 | 49.82644 | 8.44416 | 272° | 24km/h | 29392m | 5.4m/s | -46.6°C | 0.1% | 13.6hPa | 2.6V | 03:17:05 | 02:01:21 | 00:00:00 | |
| AA1-15 | 2026-08-30 06:31:19 | 49.82644 | 8.44426 | 273° | 29km/h | 29385m | 6.8m/s | -46.6°C | 0.1% | 13.6hPa | 2.6V | 03:17:05 | 02:01:20 | 00:00:00 | |
| NBG1-10 | 2026-08-30 06:31:17 | 49.82643 | 8.44452 | 275° | 33km/h | 29373m | 5.7m/s | -46.6°C | 2.9% | 13.6hPa | 2.7V | 00:00:00 | 02:01:18 | 00:00:00 | |
| DL1XH1-15 | 2026-08-30 06:31:16 | 49.82640 | 8.44532 | 261° | 35km/h | 29338m | 6.1m/s | -46.4°C | 2.8% | 13.7hPa | 2.7V | 03:16:35 | 02:01:12 | 00:00:00 | |
| DF8AY | 2026-08-30 06:31:13 | 49.82639 | 8.44519 | 268° | 33km/h | 29344m | 5.4m/s | 0°C | 0% | 0hPa | 2.7V | 03:21:20 | 02:01:13 | 00:00:00 | |
| DL4BBY-15 | 2026-08-30 06:31:13 | 49.82639 | 8.44506 | 274° | 33km/h | 29349m | 5.3m/s | -47.5°C | 0% | 0hPa | 2.7V | 00:00:00 | 00:00:00 | 00:00:00 | |
| DL1XH-15 | 2026-08-30 06:31:12 | 49.82648 | 8.44588 | 255° | 35km/h | 29314m | 5.9m/s | -46.6°C | 2.8% | 13.8hPa | 2.7V | 03:16:39 | 02:01:08 | 00:00:00 | |
| HSKMA3-T | 2026-08-30 06:31:11 | 49.82640 | 8.44532 | 262° | 35km/h | 29338m | 6.1m/s | -46.4°C | 0% | 13.7hPa | 2.7V | 03:17:05 | 02:01:12 | 00:00:00 | |
| DL1XH-west | 2026-08-30 06:31:09 | 49.82644 | 8.44560 | 255° | 40km/h | 29325m | 5.7m/s | -46.4°C | 0% | 13.8hPa | 2.6V | 03:17:05 | 02:01:10 | 00:00:00 | |
| AA1-15 | 2026-08-30 06:31:08 | 49.82646 | 8.44575 | 255° | 38km/h | 29320m | 4.8m/s | -46.5°C | 0% | 13.8hPa | 2.7V | 03:17:05 | 02:01:09 | 00:00:00 | |
| DB0NH | 2026-08-30 06:31:07 | 49.82649 | 8.44588 | 256° | 33km/h | 29315m | 5.9m/s | -46.5°C | 2.8% | 13.7hPa | 2.6V | 00:00:00 | 02:01:08 | 00:00:00 | |
| DL1XH1-15 | 2026-08-30 06:31:06 | 49.82655 | 8.44652 | 258° | 35km/h | 29278m | 6m/s | -46.9°C | 3% | 13.8hPa | 2.6V | 03:16:45 | 02:01:02 | 00:00:00 | |
| DO3MHA-11 | 2026-08-30 06:31:06 | 49.82650 | 8.44600 | 259° | 31km/h | 29309m | 6.8m/s | -46.6°C | 2.9% | 13.8hPa | 2.6V | 00:00:00 | 02:01:07 | 00:00:00 | |
| DD1CC8 | 2026-08-30 06:31:05 | 49.82652 | 8.44620 | 264° | 22km/h | 29296m | 5.1m/s | -46.8°C | 0.8% | 13.8hPa | 2.6V | 00:00:00 | 00:00:00 | 00:00:00 | |
| DB0UT-7 | 2026-08-30 06:31:04 | 49.82652 | 8.44620 | 265° | 33km/h | 29297m | 5.1m/s | -46.7°C | 3.0% | 13.8hPa | 2.6V | 00:00:00 | 02:01:05 | 00:00:00 | |
| KANTATE | 2026-08-30 06:31:03 | 49.82652 | 8.44620 | 265° | 24km/h | 29297m | 5.1m/s | -46.8°C | 0.8% | 13.8hPa | 2.6V | 00:00:00 | 00:00:00 | 00:00:00 | |
| DL1XH-15 | 2026-08-30 06:31:02 | 49.82661 | 8.44710 | 267° | 37km/h | 29255m | 6m/s | -47.3°C | 3% | 13.9hPa | 2.6V | 03:16:49 | 02:00:58 | 00:00:00 | |
| HSKMA3-T | 2026-08-30 06:31:00 | 49.82657 | 8.44666 | 259° | 37km/h | 29273m | 5.3m/s | -47°C | 0.2% | 13.9hPa | 2.7V | 03:17:05 | 02:01:01 | 00:00:00 | |
| DL1XH-west | 2026-08-30 06:30:58 | 49.82660 | 8.44695 | 264° | 38km/h | 29261m | 6.6m/s | -47.2°C | 0.2% | 13.9hPa | 2.6V | 03:17:05 | 02:00:59 | 00:00:00 | |
| AA1-15 | 2026-08-30 06:30:57 | 49.82661 | 8.44710 | 268° | 37km/h | 29255m | 6m/s | -47.3°C | 0.2% | 13.9hPa | 2.6V | 03:17:05 | 02:00:58 | 00:00:00 | |
| DC4HF-4 | 2026-08-30 06:30:56 | 49.82662 | 8.44739 | 265° | 38km/h | 29244m | 5.5m/s | -47.3°C | 0.9% | 13.9hPa | 2.6V | 00:00:00 | 00:00:00 | 00:00:00 | |
| DF7PN | 2026-08-30 06:30:54 | 49.82666 | 8.44785 | 256° | 38km/h | 29226m | 5.2m/s | -47.3°C | 0.8% | 13.9hPa | 2.6V | 00:00:00 | 00:00:00 | 00:00:00 | |
| DL1KLB | 2026-08-30 06:30:52 | 49.82664 | 8.44770 | 260° | 42km/h | 29232m | 6.1m/s | -47.3°C | 0.8% | 14.0hPa | 2.6V | 03:17:00 | 00:00:00 | 00:00:00 | |
| DL1XH-15 | 2026-08-30 06:30:51 | 49.82677 | 8.44844 | 247° | 22km/h | 29192m | 4.5m/s | -47.5°C | 3% | 14hPa | 2.6V | 03:17:00 | 02:00:47 | 00:00:00 | |
| HSKMA3-T | 2026-08-30 06:30:50 | 49.82671 | 8.44812 | 255° | 29km/h | 29215m | 6m/s | -47.4°C | 0.1% | 14hPa | 2.7V | 03:17:05 | 02:00:51 | 00:00:00 | |
| DL1XH-west | 2026-08-30 06:30:47 | 49.82676 | 8.44837 | 251° | 18km/h | 29197m | 4.6m/s | -47.5°C | 0.2% | 14hPa | 2.6V | 03:17:05 | 02:00:48 | 00:00:00 | |
| AA1-15 | 2026-08-30 06:30:46 | 49.82677 | 8.44844 | 248° | 22km/h | 29192m | 4.5m/s | -47.5°C | 0.1% | 14hPa | 2.6V | 03:17:05 | 02:00:47 | 00:00:00 | |
| DO3MHA-11 | 2026-08-30 06:30:46 | 49.82677 | 8.44844 | 248° | 37km/h | 29193m | 4.5m/s | -47.5°C | 3.0% | 14.0hPa | 2.6V | 00:00:00 | 02:00:47 | 00:00:00 | |
| DO2KSM | 2026-08-30 06:30:45 | 49.82677 | 8.44844 | 249° | 22km/h | 29193m | 4.5m/s | -47.5°C | 0.8% | 14.0hPa | 2.6V | 00:00:00 | 00:00:00 | 00:00:00 | |
| NBG1-10 | 2026-08-30 06:30:44 | 49.82683 | 8.44864 | 246° | 29km/h | 29180m | 6.8m/s | -47.7°C | 3.1% | 14.0hPa | 2.6V | 00:00:00 | 02:00:45 | 00:00:00 | |
| SONDE2-11 | 2026-08-30 06:30:43 | 49.82691 | 8.44894 | 249° | 44km/h | 29168m | 5.7m/s | -47.7°C | 0.8% | 14.1hPa | 2.6V | 00:00:00 | 00:00:00 | 00:00:00 | |
| DL1XH-15 | 2026-08-30 06:30:41 | 49.82703 | 8.44978 | 254° | 27km/h | 29133m | 6.4m/s | -47.5°C | 3.1% | 14.2hPa | 2.6V | 03:17:10 | 02:00:37 | 00:00:00 | |
| HSKMA3-T | 2026-08-30 06:30:40 | 49.82698 | 8.44927 | 257° | 42km/h | 29156m | 6.1m/s | -47.6°C | 0.2% | 14.1hPa | 2.6V | 03:17:56 | 02:00:41 | 00:00:00 | |
| BIOWL1-15 | 2026-08-30 06:30:37 | 49.82705 | 8.44988 | 246° | 26km/h | 29127m | 6.1m/s | -47.5°C | 0.2% | 14.2hPa | 2.6V | 03:17:56 | 02:00:36 | 00:00:00 | |
| DL1XH-west | 2026-08-30 06:30:36 | 49.82703 | 8.44978 | 255° | 27km/h | 29133m | 6.4m/s | -47.5°C | 0.2% | 14.2hPa | 2.6V | 03:17:56 | 02:00:37 | 00:00:00 | |
| DO3MHA-11 | 2026-08-30 06:30:36 | 49.82703 | 8.44978 | 255° | 26km/h | 29133m | 6.4m/s | -47.5°C | 3.1% | 14.1hPa | 2.7V | 00:00:00 | 02:00:37 | 00:00:00 | |
| EDDB2-11 | 2026-08-30 06:30:35 | 49.82708 | 8.44996 | 239° | 22km/h | 29122m | 5.4m/s | -47.6°C | 0.8% | 14.2hPa | 2.7V | 00:00:00 | 00:00:00 | 00:00:00 | |
| DD1CC8 | 2026-08-30 06:30:34 | 49.82711 | 8.45004 | 235° | 20km/h | 29116m | 5.7m/s | -47.6°C | 0.8% | 14.2hPa | 2.7V | 00:00:00 | 00:00:00 | 00:00:00 | |
| DO1YAY-16 | 2026-08-30 06:30:33 | 49.82711 | 8.45004 | 235° | 20km/h | 29116m | 5.7m/s | -47.6°C | 0.8% | 14.2hPa | 2.7V | 00:00:00 | 00:00:00 | 00:00:00 | |
| DJ2KF-10 | 2026-08-30 06:30:32 | 49.82714 | 8.45010 | 235° | 24km/h | 29110m | 6.8m/s | -47.6°C | 3.1% | 14.2hPa | 2.7V | 00:00:00 | 02:00:33 | 00:00:00 | |
| DM0DOS-11 | 2026-08-30 06:30:31 | 49.82732 | 8.45069 | 247° | 46km/h | 29074m | 5.7m/s | -47.8°C | 3.1% | 14.3hPa | 2.7V | 03:17:20 | 02:00:27 | 00:00:00 | |
| DF8AY | 2026-08-30 06:30:31 | 49.82716 | 8.45015 | 238° | 16km/h | 29103m | 5.6m/s | 0°C | 0% | 0hPa | 2.7V | 03:21:20 | 02:00:32 | 00:00:00 | |
| HSKMA3-T | 2026-08-30 06:30:29 | 49.82721 | 8.45030 | 245° | 26km/h | 29093m | 4.8m/s | -47.6°C | 0.2% | 14.2hPa | 2.6V | 03:17:56 | 02:00:30 | 00:00:00 | |
| DL1XH-west | 2026-08-30 06:30:26 | 49.82732 | 8.45069 | 247° | 46km/h | 29074m | 5.7m/s | -47.8°C | 0.3% | 14.3hPa | 2.7V | 03:17:56 | 02:00:27 | 00:00:00 | |
| BIOWL1-15 | 2026-08-30 06:30:25 | 49.82736 | 8.45085 | 250° | 44km/h | 29069m | 4.7m/s | -47.7°C | 0.2% | 14.3hPa | 2.7V | 03:17:56 | 02:00:26 | 00:00:00 | |
| DO2KSM | 2026-08-30 06:30:24 | 49.82736 | 8.45085 | 251° | 44km/h | 29069m | 4.7m/s | -47.7°C | 0.8% | 14.3hPa | 2.7V | 00:00:00 | 00:00:00 | 00:00:00 | |
| DO3DL | 2026-08-30 06:30:23 | 49.82740 | 8.45100 | 252° | 40km/h | 29064m | 5.6m/s | -47.7°C | 0.8% | 14.3hPa | 2.7V | 03:17:00 | 00:00:00 | 00:00:00 | |
| KANTATE | 2026-08-30 06:30:22 | 49.82743 | 8.45114 | 254° | 33km/h | 29058m | 6.0m/s | -47.7°C | 0.8% | 14.3hPa | 2.7V | 03:17:00 | 00:00:00 | 00:00:00 | |
| DL1XH-15 | 2026-08-30 06:30:21 | 49.82760 | 8.45160 | 225° | 18km/h | 29018m | 5.4m/s | -47.6°C | 3% | 14.4hPa | 2.7V | 03:17:30 | 02:00:17 | 00:00:00 | |
| HSKMA3-T | 2026-08-30 06:30:19 | 49.82751 | 8.45145 | 232° | 16km/h | 29035m | 6.2m/s | -47.5°C | 0.2% | 14.4hPa | 2.6V | 03:17:56 | 02:00:20 | 00:00:00 | |
| DF8AY | 2026-08-30 06:30:18 | 49.82754 | 8.45150 | 226° | 18km/h | 29029m | 5.6m/s | 0°C | 0% | 0hPa | 2.6V | 03:21:20 | 02:00:19 | 00:00:00 | |
| DL1XH-west | 2026-08-30 06:30:15 | 49.82763 | 8.45166 | 231° | 18km/h | 29012m | 6.4m/s | -47.6°C | 0.2% | 14.4hPa | 2.6V | 03:17:56 | 02:00:16 | 00:00:00 | |
| AA1-15 | 2026-08-30 06:30:14 | 49.82766 | 8.45172 | 238° | 18km/h | 29006m | 5.8m/s | -47.7°C | 0.2% | 14.4hPa | 2.6V | 03:17:56 | 02:00:15 | 00:00:00 | |
| DL4BBY-15 | 2026-08-30 06:30:13 | 49.82768 | 8.45178 | 244° | 26km/h | 29001m | 4.7m/s | -48.8°C | 0% | 0hPa | 2.6V | 00:00:00 | 00:00:00 | 00:00:00 | |
| SSTOLZ84 | 2026-08-30 06:30:12 | 49.82771 | 8.45187 | 244° | 26km/h | 28996m | 4.9m/s | -47.7°C | 0.8% | 14.5hPa | 2.6V | 00:00:00 | 00:00:00 | 00:00:00 | |
| DL1XH-15 | 2026-08-30 06:30:11 | 49.82794 | 8.45247 | 230° | 16km/h | 28962m | 6.8m/s | -47.4°C | 3% | 14.5hPa | 2.6V | 03:17:40 | 02:00:07 | 00:00:00 | |
| NBG1-10 | 2026-08-30 06:30:11 | 49.82774 | 8.45197 | 244° | 27km/h | 28990m | 6.8m/s | -47.6°C | 3.1% | 14.4hPa | 2.6V | 03:17:00 | 02:00:12 | 00:00:00 | |
| IW2NTF | 2026-08-30 06:30:10 | 49.82796 | 8.45250 | 219° | 9km/h | 28955m | 5.5m/s | 0°C | 0% | 0hPa | 2.6V | 00:00:00 | 02:00:06 | 00:00:00 | |
| HSKMA3-T | 2026-08-30 06:30:09 | 49.82783 | 8.45220 | 240° | 35km/h | 28978m | 4.7m/s | -47.5°C | 0.2% | 14.5hPa | 2.7V | 03:17:56 | 02:00:10 | 00:00:00 | |
| DF8AY | 2026-08-30 06:30:08 | 49.82787 | 8.45231 | 237° | 31km/h | 28973m | 4.3m/s | 0°C | 0% | 0hPa | 2.7V | 03:21:20 | 02:00:09 | 00:00:00 | |
| BIOWL1-15 | 2026-08-30 06:30:08 | 49.82798 | 8.45252 | 200° | 7km/h | 28951m | 4.7m/s | -47.5°C | 0.2% | 14.6hPa | 2.7V | 03:17:56 | 02:00:05 | 00:00:00 | |
| DB0NH | 2026-08-30 06:30:07 | 49.82791 | 8.45240 | 236° | 27km/h | 28968m | 6.1m/s | -47.4°C | 3.0% | 14.5hPa | 2.6V | 00:00:00 | 02:00:08 | 00:00:00 | |
| DL1XH1-15 | 2026-08-30 06:30:06 | 49.82806 | 8.45258 | 214° | 20km/h | 28934m | 6.2m/s | -47.7°C | 3.1% | 14.6hPa | 2.6V | 03:17:45 | 02:00:02 | 00:00:00 | |
| DL1XH-west | 2026-08-30 06:30:05 | 49.82796 | 8.45250 | 219° | 9km/h | 28956m | 5.5m/s | -47.5°C | 0.2% | 14.6hPa | 2.6V | 03:17:56 | 02:00:06 | 00:00:00 | |
| AA1-15 | 2026-08-30 06:30:03 | 49.82800 | 8.45253 | 200° | 9km/h | 28946m | 4.6m/s | -47.6°C | 0.2% | 14.6hPa | 2.7V | 03:17:56 | 02:00:04 | 00:00:00 | |
| DJ2KF-10 | 2026-08-30 06:30:02 | 49.82802 | 8.45254 | 208° | 29km/h | 28941m | 5.9m/s | -47.6°C | 3.0% | 14.5hPa | 2.7V | 00:00:00 | 02:00:03 | 00:00:00 | |
| DL1XH-15 | 2026-08-30 06:30:01 | 49.82832 | 8.45300 | 237° | 29km/h | 28907m | 5.6m/s | -47.8°C | 3% | 14.7hPa | 2.7V | 03:17:50 | 01:59:57 | 00:00:00 | |
| HSKMA3-T | 2026-08-30 06:29:58 | 49.82822 | 8.45280 | 227° | 35km/h | 28918m | 5.6m/s | -47.8°C | 0.2% | 14.6hPa | 2.7V | 03:17:56 | 01:59:59 | 00:00:00 | |
| CB1BUN | 2026-08-30 06:29:57 | 49.82821 | 8.45280 | 228° | 35km/h | 28918m | 5.6m/s | -47.8°C | 0.8% | 14.6hPa | 2.7V | 03:17:00 | 00:00:00 | 00:00:00 | |
| DL1XH1-15 | 2026-08-30 06:29:56 | 49.82846 | 8.45343 | 236° | 24km/h | 28879m | 5.7m/s | -47.9°C | 3.1% | 14.7hPa | 2.7V | 03:17:55 | 01:59:52 | 00:00:00 | |
| DF8AY | 2026-08-30 06:29:55 | 49.82835 | 8.45309 | 242° | 26km/h | 28901m | 5.8m/s | 0°C | 0% | 0hPa | 2.6V | 03:21:20 | 01:59:56 | 00:00:00 | |
| BIOWL1-15 | 2026-08-30 06:29:54 | 49.82838 | 8.45318 | 247° | 24km/h | 28895m | 5.2m/s | -47.8°C | 0.2% | 14.7hPa | 2.6V | 03:17:56 | 01:59:55 | 00:00:00 | |
| AA1-15 | 2026-08-30 06:29:53 | 49.82840 | 8.45326 | 247° | 24km/h | 28890m | 5.1m/s | -47.9°C | 0.2% | 14.7hPa | 2.6V | 03:17:56 | 01:59:54 | 00:00:00 | |
| HSKMA3-T | 2026-08-30 06:29:48 | 49.82859 | 8.45359 | 195° | 22km/h | 28862m | 7m/s | -47.9°C | 0.3% | 14.8hPa | 2.6V | 03:18:47 | 01:59:49 | 00:00:00 | |
| DB0UT-9 | 2026-08-30 06:29:47 | 49.82859 | 8.45359 | 196° | 22km/h | 28862m | 7.0m/s | -47.9°C | 0.9% | 14.8hPa | 2.6V | 03:18:00 | 00:00:00 | 00:00:00 | |
| DL1XH1-15 | 2026-08-30 06:29:46 | 49.82914 | 8.45399 | 226° | 46km/h | 28823m | 5.1m/s | -48.2°C | 3.1% | 14.8hPa | 2.6V | 03:18:05 | 01:59:42 | 00:00:00 | |
| DM3KS-11 | 2026-08-30 06:29:46 | 49.82879 | 8.45364 | 195° | 31km/h | 28846m | 5.1m/s | -47.9°C | 0.8% | 14.8hPa | 2.7V | 00:00:00 | 00:00:00 | 00:00:00 | |
| DL1ZP-14 | 2026-08-30 06:29:45 | 49.82879 | 8.45364 | 195° | 31km/h | 28846m | 5.1m/s | -47.9°C | 0.8% | 14.8hPa | 2.7V | 00:00:00 | 00:00:00 | 00:00:00 | |
| IW2NTF | 2026-08-30 06:29:44 | 49.82927 | 8.45424 | 233° | 38km/h | 28811m | 6m/s | 0°C | 0% | 0hPa | 2.7V | 00:00:00 | 01:59:40 | 00:00:00 | |
| DL1XH-west | 2026-08-30 06:29:43 | 49.82896 | 8.45376 | 214° | 42km/h | 28834m | 6m/s | -47.9°C | 0.2% | 14.8hPa | 2.6V | 03:18:47 | 01:59:44 | 00:00:00 | |
| AA1-15 | 2026-08-30 06:29:42 | 49.82905 | 8.45387 | 221° | 46km/h | 28828m | 5.1m/s | -48.1°C | 0.2% | 14.8hPa | 2.6V | 03:18:47 | 01:59:43 | 00:00:00 | |
| DM0DOS-11 | 2026-08-30 06:29:41 | 49.82942 | 8.45452 | 225° | 27km/h | 28796m | 5.3m/s | -48.1°C | 3.1% | 14.9hPa | 2.6V | 03:18:10 | 01:59:37 | 00:00:00 | |
| HSKMA3-T | 2026-08-30 06:29:37 | 49.82937 | 8.45444 | 232° | 29km/h | 28801m | 4.9m/s | -48.1°C | 0.3% | 14.9hPa | 2.6V | 03:18:47 | 01:59:38 | 00:00:00 | |
| DB0NH | 2026-08-30 06:29:37 | 49.82937 | 8.45444 | 232° | 29km/h | 28801m | 4.8m/s | -48.1°C | 3.1% | 14.9hPa | 2.7V | 00:00:00 | 01:59:38 | 00:00:00 | |
| DO3MHA-11 | 2026-08-30 06:29:36 | 49.82942 | 8.45452 | 226° | 29km/h | 28796m | 5.2m/s | -48.1°C | 3.1% | 14.9hPa | 2.7V | 03:18:00 | 01:59:37 | 00:00:00 | |
| IW2NTF | 2026-08-30 06:29:34 | 49.82991 | 8.45490 | 188° | 29km/h | 28758m | 6.2m/s | 0°C | 0% | 0hPa | 2.7V | 00:00:00 | 01:59:30 | 00:00:00 | |
| DL1XH-west | 2026-08-30 06:29:33 | 49.82960 | 8.45473 | 210° | 35km/h | 28779m | 5.2m/s | -48.1°C | 0.3% | 14.9hPa | 2.7V | 03:18:47 | 01:59:34 | 00:00:00 | |
| AA1-15 | 2026-08-30 06:29:31 | 49.82975 | 8.45484 | 199° | 33km/h | 28770m | 4.4m/s | -48.1°C | 0.3% | 15hPa | 2.6V | 03:18:47 | 01:59:32 | 00:00:00 | |
| DF8AY | 2026-08-30 06:29:30 | 49.82983 | 8.45488 | 193° | 31km/h | 28765m | 5.9m/s | 0°C | 0% | 0hPa | 2.7V | 03:21:20 | 01:59:31 | 00:00:00 | |
| HSKMA3-T | 2026-08-30 06:29:27 | 49.83004 | 8.45494 | 201° | 26km/h | 28748m | 4.6m/s | -48.3°C | 0.2% | 15hPa | 2.6V | 03:18:47 | 01:59:28 | 00:00:00 | |
| DL1XH1-15 | 2026-08-30 06:29:26 | 49.83040 | 8.45542 | 214° | 31km/h | 28715m | 6.1m/s | -48.2°C | 3.1% | 15.1hPa | 2.7V | 03:18:25 | 01:59:22 | 00:00:00 | |
| DO3MHA-11 | 2026-08-30 06:29:26 | 49.83009 | 8.45499 | 214° | 31km/h | 28744m | 5.8m/s | -48.3°C | 3.1% | 15.0hPa | 2.7V | 00:00:00 | 01:59:27 | 00:00:00 | |
| SONCRA | 2026-08-30 06:29:25 | 49.83015 | 8.45506 | 222° | 29km/h | 28737m | 6.8m/s | -48.4°C | 0.9% | 15.0hPa | 2.7V | 00:00:00 | 00:00:00 | 00:00:00 | |
| IW2NTF | 2026-08-30 06:29:24 | 49.83054 | 8.45552 | 192° | 29km/h | 28704m | 4.9m/s | 0°C | 0% | 0hPa | 2.7V | 00:00:00 | 01:59:20 | 00:00:00 | |
| DL1XH-west | 2026-08-30 06:29:22 | 49.83033 | 8.45534 | 222° | 35km/h | 28720m | 5.5m/s | -48.2°C | 0.2% | 15.1hPa | 2.6V | 03:18:47 | 01:59:23 | 00:00:00 | |
| AA1-15 | 2026-08-30 06:29:21 | 49.83040 | 8.45542 | 214° | 31km/h | 28715m | 6.1m/s | -48.2°C | 0.2% | 15.1hPa | 2.7V | 03:18:47 | 01:59:22 | 00:00:00 | |
| HSKMA3-T | 2026-08-30 06:29:16 | 49.83076 | 8.45556 | 187° | 31km/h | 28687m | 6.2m/s | -48.2°C | 0.3% | 15.2hPa | 2.6V | 03:18:47 | 01:59:17 | 00:00:00 | |
| DF8AY | 2026-08-30 06:29:15 | 49.83084 | 8.45558 | 190° | 33km/h | 28681m | 5.4m/s | 0°C | 0% | 0hPa | 2.7V | 03:21:20 | 01:59:16 | 00:00:00 | |
| DL1XH-west | 2026-08-30 06:29:11 | 49.83113 | 8.45565 | 179° | 22km/h | 28660m | 6.6m/s | -48.3°C | 0.3% | 15.2hPa | 2.6V | 03:18:47 | 01:59:12 | 00:00:00 | |
| AA1-15 | 2026-08-30 06:29:10 | 49.83118 | 8.45565 | 175° | 20km/h | 28654m | 6m/s | -48.3°C | 0.3% | 15.2hPa | 2.6V | 03:18:47 | 01:59:11 | 00:00:00 | |
| HSKMA3-T | 2026-08-30 06:29:06 | 49.83136 | 8.45572 | 213° | 22km/h | 28631m | 5.4m/s | -48.4°C | 0.3% | 15.3hPa | 2.6V | 03:18:47 | 01:59:07 | 00:00:00 | |
| BIOWL1-15 | 2026-08-30 06:29:04 | 49.83166 | 8.45577 | 160° | 22km/h | 28599m | 5m/s | -48.5°C | 0.2% | 15.4hPa | 2.6V | 03:18:47 | 01:59:01 | 00:00:00 | |
| DB0UT-7 | 2026-08-30 06:29:04 | 49.83145 | 8.45580 | 202° | 13km/h | 28622m | 5.2m/s | -48.3°C | 3.1% | 15.3hPa | 2.6V | 00:00:00 | 01:59:05 | 00:00:00 | |
| DJ2DS-15 | 2026-08-30 06:29:03 | 49.83151 | 8.45582 | 187° | 20km/h | 28616m | 6.5m/s | -48.3°C | 0.8% | 15.3hPa | 2.7V | 00:00:00 | 00:00:00 | 00:00:00 | |
| DJ2KF-10 | 2026-08-30 06:29:02 | 49.83156 | 8.45582 | 172° | 13km/h | 28610m | 5.7m/s | -48.3°C | 3.1% | 15.3hPa | 2.7V | 00:00:00 | 01:59:03 | 00:00:00 | |
| DM0DOS-11 | 2026-08-30 06:29:01 | 49.83186 | 8.45572 | 181° | 16km/h | 28577m | 4.8m/s | -48.6°C | 3.2% | 15.4hPa | 2.7V | 03:18:50 | 01:58:57 | 00:00:00 | |
| DL1XH-west | 2026-08-30 06:29:01 | 49.83161 | 8.45580 | 162° | 22km/h | 28604m | 5m/s | -48.4°C | 0.3% | 15.4hPa | 2.7V | 03:18:47 | 01:59:02 | 00:00:00 | |
| AA1-15 | 2026-08-30 06:28:59 | 49.83171 | 8.45575 | 165° | 22km/h | 28593m | 6.4m/s | -48.6°C | 0.3% | 15.4hPa | 2.6V | 03:18:47 | 01:59:00 | 00:00:00 | |
| HSKMA3-T | 2026-08-30 06:28:55 | 49.83189 | 8.45572 | 176° | 15km/h | 28572m | 5.5m/s | -48.6°C | 0.3% | 15.4hPa | 2.7V | 03:19:38 | 01:58:56 | 00:00:00 | |
| SONCRA | 2026-08-30 06:28:54 | 49.83193 | 8.45571 | 162° | 11km/h | 28566m | 5.8m/s | -48.6°C | 0.9% | 15.5hPa | 2.7V | 00:00:00 | 00:00:00 | 00:00:00 | |
| AU51GT2 | 2026-08-30 06:28:53 | 49.83195 | 8.45569 | 149° | 11km/h | 28561m | 5.7m/s | -48.6°C | 0.9% | 15.5hPa | 2.7V | 00:00:00 | 00:00:00 | 00:00:00 | |
| DF3TZ-5 | 2026-08-30 06:28:52 | 49.83224 | 8.45559 | 138° | 11km/h | 28517m | 6.3m/s | -48.9°C | 0.8% | 15.6hPa | 2.7V | 00:00:00 | 00:00:00 | 00:00:00 | |
| DL1XH-15 | 2026-08-30 06:28:51 | 49.83221 | 8.45561 | 161° | 13km/h | 28523m | 6.3m/s | -48.9°C | 3.1% | 15.6hPa | 2.7V | 03:19:00 | 01:58:47 | 00:00:00 | |
| BIOWL1-15 | 2026-08-30 06:28:51 | 49.83209 | 8.45562 | 181° | 16km/h | 28538m | 6.2m/s | -48.8°C | 0.3% | 15.5hPa | 2.6V | 03:19:38 | 01:58:50 | 00:00:00 | |
| DL1XH-west | 2026-08-30 06:28:50 | 49.83205 | 8.45563 | 170° | 15km/h | 28544m | 6.2m/s | -48.7°C | 0.3% | 15.5hPa | 2.7V | 03:19:38 | 01:58:51 | 00:00:00 | |
| AA1-15 | 2026-08-30 06:28:48 | 49.83213 | 8.45562 | 183° | 18km/h | 28533m | 4.8m/s | -48.8°C | 0.2% | 15.5hPa | 2.6V | 03:19:38 | 01:58:49 | 00:00:00 | |
| DL1KLB | 2026-08-30 06:28:47 | 49.83213 | 8.45562 | 184° | 18km/h | 28533m | 4.8m/s | -48.8°C | 0.8% | 15.5hPa | 2.6V | 03:19:00 | 00:00:00 | 00:00:00 | |
| DL1XH1-15 | 2026-08-30 06:28:46 | 49.83228 | 8.45550 | 196° | 4km/h | 28494m | 6.1m/s | -49.1°C | 3.2% | 15.6hPa | 2.6V | 03:19:05 | 01:58:42 | 00:00:00 | |
| HSKMA3-T | 2026-08-30 06:28:45 | 49.83224 | 8.45559 | 138° | 11km/h | 28516m | 6.3m/s | -48.9°C | 0.2% | 15.6hPa | 2.6V | 03:19:38 | 01:58:46 | 00:00:00 | |
| DD1CC2-15 | 2026-08-30 06:28:44 | 49.83224 | 8.45559 | 139° | 11km/h | 28517m | 6.3m/s | -48.9°C | 0.9% | 15.6hPa | 2.7V | 03:19:00 | 00:00:00 | 00:00:00 | |
| DL4BBY-15 | 2026-08-30 06:28:43 | 49.83227 | 8.45552 | 115° | 11km/h | 28506m | 4.7m/s | -50.2°C | 0% | 0hPa | 2.7V | 00:00:00 | 00:00:00 | 00:00:00 | |
| DJTTGO | 2026-08-30 06:28:42 | 49.83227 | 8.45553 | 116° | 7km/h | 28506m | 4.7m/s | -49.1°C | 0.9% | 15.6hPa | 2.7V | 03:19:00 | 00:00:00 | 00:00:00 | |
| DM0DOS-11 | 2026-08-30 06:28:41 | 49.83234 | 8.45559 | 208° | 7km/h | 28466m | 5m/s | -49.5°C | 3.3% | 15.7hPa | 2.7V | 03:19:10 | 01:58:37 | 00:00:00 | |
| DJ2DS-15 | 2026-08-30 06:28:41 | 49.83228 | 8.45550 | 197° | 11km/h | 28495m | 6.1m/s | -49.1°C | 3.2% | 15.6hPa | 2.6V | 00:00:00 | 01:58:42 | 00:00:00 | |
| DL1XH-15 | 2026-08-30 06:28:40 | 49.83236 | 8.45561 | 202° | 11km/h | 28461m | 5.3m/s | -49.5°C | 3.3% | 15.7hPa | 2.6V | 03:19:11 | 01:58:36 | 00:00:00 | |
| BIOWL1-15 | 2026-08-30 06:28:39 | 49.83230 | 8.45553 | 239° | 7km/h | 28483m | 5m/s | -49.2°C | 0.4% | 15.7hPa | 2.6V | 03:19:38 | 01:58:40 | 00:00:00 | |
| DF8AY | 2026-08-30 06:28:38 | 49.83231 | 8.45555 | 238° | 7km/h | 28477m | 6.2m/s | 0°C | 0% | 0hPa | 2.7V | 03:21:20 | 01:58:39 | 00:00:00 | |
| AA1-15 | 2026-08-30 06:28:37 | 49.83232 | 8.45557 | 225° | 5km/h | 28472m | 5.8m/s | -49.4°C | 0.3% | 15.7hPa | 2.7V | 03:19:38 | 01:58:38 | 00:00:00 | |
| HSKMA3-T | 2026-08-30 06:28:35 | 49.83236 | 8.45561 | 203° | 11km/h | 28461m | 5.4m/s | -49.5°C | 0.4% | 15.7hPa | 2.6V | 03:19:38 | 01:58:36 | 00:00:00 | |
| DB0UT-7 | 2026-08-30 06:28:34 | 49.83239 | 8.45563 | 203° | 15km/h | 28455m | 6.5m/s | -49.6°C | 3.3% | 15.7hPa | 2.7V | 00:00:00 | 00:00:00 | 00:00:00 | |
| SFWM-10 | 2026-08-30 06:28:33 | 49.83239 | 8.45563 | 203° | 15km/h | 28455m | 6.6m/s | -49.6°C | 0.9% | 15.7hPa | 2.7V | 03:19:00 | 00:00:00 | 00:00:00 | |
| NBG1-10 | 2026-08-30 06:28:32 | 49.83247 | 8.45568 | 199° | 13km/h | 28443m | 5.2m/s | -49.6°C | 3.4% | 15.7hPa | 2.7V | 00:00:00 | 01:58:33 | 00:00:00 | |
| DM0DOS-11 | 2026-08-30 06:28:31 | 49.83262 | 8.45573 | 245° | 9km/h | 28411m | 6.2m/s | -49.6°C | 3.4% | 15.8hPa | 2.7V | 03:19:20 | 01:58:27 | 00:00:00 | |
| DO9LL-15 | 2026-08-30 06:28:31 | 49.83252 | 8.45569 | 192° | 20km/h | 28438m | 5.2m/s | -49.5°C | 3.4% | 15.7hPa | 2.7V | 00:00:00 | 01:58:32 | 00:00:00 | |
| DL1XH-15 | 2026-08-30 06:28:30 | 49.83263 | 8.45577 | 250° | 16km/h | 28404m | 6.6m/s | -49.6°C | 3.4% | 15.8hPa | 2.7V | 03:19:21 | 01:58:26 | 00:00:00 | |
| BIOWL1-15 | 2026-08-30 06:28:30 | 49.83260 | 8.45569 | 174° | 5km/h | 28421m | 4.7m/s | -49.7°C | 0.4% | 15.8hPa | 2.6V | 03:19:38 | 01:58:29 | 00:00:00 | |
| DL1XH-west | 2026-08-30 06:28:29 | 49.83258 | 8.45570 | 168° | 9km/h | 28426m | 5.6m/s | -49.6°C | 0.4% | 15.8hPa | 2.6V | 03:19:38 | 01:58:30 | 00:00:00 | |
| AA1-15 | 2026-08-30 06:28:26 | 49.83262 | 8.45573 | 246° | 9km/h | 28411m | 6.2m/s | -49.6°C | 0.5% | 15.8hPa | 2.7V | 03:19:38 | 01:58:27 | 00:00:00 | |
| DL1XH1-15 | 2026-08-30 06:28:26 | 49.83270 | 8.45604 | 242° | 15km/h | 28381m | 5.9m/s | -49.7°C | 3.4% | 15.9hPa | 2.6V | 03:19:25 | 01:58:22 | 00:00:00 | |
| HSKMA3-T | 2026-08-30 06:28:24 | 49.83265 | 8.45584 | 251° | 20km/h | 28399m | 5.3m/s | -49.6°C | 0.4% | 15.9hPa | 2.7V | 03:19:38 | 01:58:25 | 00:00:00 | |
| SONCRA | 2026-08-30 06:28:23 | 49.83266 | 8.45591 | 248° | 20km/h | 28394m | 5.0m/s | -49.6°C | 1.0% | 15.9hPa | 2.6V | 00:00:00 | 00:00:00 | 00:00:00 | |
| AU51GT2 | 2026-08-30 06:28:22 | 49.83268 | 8.45599 | 247° | 18km/h | 28388m | 6.3m/s | -49.7°C | 0.9% | 15.9hPa | 2.6V | 00:00:00 | 00:00:00 | 00:00:00 | |
| DM0DOS-11 | 2026-08-30 06:28:21 | 49.83283 | 8.45623 | 211° | 13km/h | 28354m | 4.8m/s | -49.7°C | 3.4% | 15.9hPa | 2.6V | 03:19:30 | 01:58:17 | 00:00:00 | |
| DL1XH-west | 2026-08-30 06:28:18 | 49.83277 | 8.45616 | 220° | 15km/h | 28365m | 6.7m/s | -49.8°C | 0.5% | 15.9hPa | 2.7V | 03:19:38 | 01:58:19 | 00:00:00 | |
| DL1XH1-15 | 2026-08-30 06:28:16 | 49.83287 | 8.45632 | 277° | 11km/h | 28327m | 5.4m/s | -49.7°C | 3.4% | 16hPa | 2.6V | 03:19:35 | 01:58:12 | 00:00:00 | |
| AA1-15 | 2026-08-30 06:28:16 | 49.83285 | 8.45626 | 206° | 9km/h | 28349m | 5.2m/s | -49.7°C | 0.4% | 16hPa | 2.6V | 03:19:38 | 01:58:16 | 00:00:00 | |
| HSKMA3-T | 2026-08-30 06:28:14 | 49.83287 | 8.45627 | 204° | 5km/h | 28343m | 6.6m/s | -49.8°C | 0.4% | 16hPa | 2.7V | 03:19:38 | 01:58:15 | 00:00:00 | |
| DL4BBY-15 | 2026-08-30 06:28:13 | 49.83288 | 8.45628 | 250° | 16km/h | 28337m | 5.5m/s | -50.9°C | 0% | 0hPa | 2.6V | 00:00:00 | 00:00:00 | 00:00:00 | |
| DL1ZP-14 | 2026-08-30 06:28:12 | 49.83288 | 8.45629 | 281° | 4km/h | 28332m | 4.8m/s | -49.8°C | 0.9% | 16.0hPa | 2.6V | 00:00:00 | 00:00:00 | 00:00:00 | |
| DM0DOS-11 | 2026-08-30 06:28:11 | 49.83292 | 8.45669 | 252° | 18km/h | 28300m | 6.1m/s | -49.7°C | 3.5% | 16.1hPa | 2.7V | 03:19:40 | 01:58:07 | 00:00:00 | |
| DL1XH-15 | 2026-08-30 06:28:10 | 49.83293 | 8.45675 | 243° | 13km/h | 28294m | 6m/s | -49.6°C | 3.5% | 16.1hPa | 2.7V | 03:19:41 | 01:58:06 | 00:00:00 | |
| DL1XH-west | 2026-08-30 06:28:07 | 49.83290 | 8.45661 | 255° | 22km/h | 28306m | 4.8m/s | -49.7°C | 0.5% | 16.1hPa | 2.6V | 03:20:29 | 01:58:08 | 00:00:00 | |
| AA1-15 | 2026-08-30 06:28:04 | 49.83295 | 8.45679 | 228° | 9km/h | 28289m | 5.2m/s | -49.7°C | 0.5% | 16.1hPa | 2.6V | 03:20:29 | 01:58:05 | 00:00:00 | |
| HSKMA3-T | 2026-08-30 06:28:03 | 49.83296 | 8.45681 | 211° | 9km/h | 28284m | 4.8m/s | -49.7°C | 0.5% | 16.1hPa | 2.6V | 03:20:29 | 01:58:04 | 00:00:00 | |
| DJ2KF-10 | 2026-08-30 06:28:02 | 49.83299 | 8.45683 | 208° | 22km/h | 28279m | 5.5m/s | -49.6°C | 3.5% | 16.1hPa | 2.6V | 00:00:00 | 01:58:03 | 00:00:00 | |
| DM0DOS-11 | 2026-08-30 06:28:01 | 49.83317 | 8.45713 | 250° | 15km/h | 28244m | 6.4m/s | -49.5°C | 3.3% | 16.2hPa | 2.6V | 03:19:50 | 01:57:57 | 00:00:00 | |
| DJ2DS-15 | 2026-08-30 06:28:01 | 49.83302 | 8.45686 | 213° | 20km/h | 28273m | 6.5m/s | -49.6°C | 3.4% | 16.1hPa | 2.7V | 00:00:00 | 01:58:02 | 00:00:00 | |
| DL1XH-15 | 2026-08-30 06:28:00 | 49.83318 | 8.45719 | 262° | 13km/h | 28239m | 5.6m/s | -49.4°C | 3.3% | 16.2hPa | 2.7V | 03:19:51 | 01:57:56 | 00:00:00 | |
| DF8AY | 2026-08-30 06:28:00 | 49.83309 | 8.45695 | 225° | 22km/h | 28261m | 5.3m/s | 0°C | 0% | 0hPa | 2.7V | 03:21:20 | 01:58:00 | 00:00:00 | |
| DL1XH-west | 2026-08-30 06:27:56 | 49.83317 | 8.45713 | 251° | 15km/h | 28245m | 6.4m/s | -49.5°C | 0.4% | 16.2hPa | 2.6V | 03:20:29 | 01:57:57 | 00:00:00 | |
| HSKMA3-T | 2026-08-30 06:27:53 | 49.83319 | 8.45729 | 259° | 15km/h | 28228m | 5.4m/s | -49.3°C | 0.4% | 16.3hPa | 2.7V | 03:20:29 | 01:57:54 | 00:00:00 | |
| SONCRA | 2026-08-30 06:27:52 | 49.83320 | 8.45735 | 247° | 16km/h | 28222m | 6.3m/s | -49.3°C | 0.9% | 16.3hPa | 2.6V | 00:00:00 | 00:00:00 | 00:00:00 | |
| DM0DOS-11 | 2026-08-30 06:27:51 | 49.83344 | 8.45771 | 207° | 20km/h | 28189m | 4.7m/s | -49.3°C | 3.4% | 16.4hPa | 2.6V | 03:20:00 | 01:57:47 | 00:00:00 | |
| DL3AQ-11 | 2026-08-30 06:27:51 | 49.83326 | 8.45749 | 228° | 24km/h | 28211m | 4.7m/s | -49.4°C | 0.9% | 16.3hPa | 2.6V | 00:00:00 | 00:00:00 | 00:00:00 | |
| DL1XH-15 | 2026-08-30 06:27:50 | 49.83349 | 8.45775 | 208° | 20km/h | 28184m | 4.9m/s | -49.3°C | 3.4% | 16.4hPa | 2.6V | 03:20:01 | 01:57:46 | 00:00:00 | |
| DL1XH-west | 2026-08-30 06:27:46 | 49.83344 | 8.45771 | 207° | 20km/h | 28189m | 4.7m/s | -49.3°C | 0.4% | 16.4hPa | 2.6V | 03:20:29 | 01:57:47 | 00:00:00 | |
| DF8AY | 2026-08-30 06:27:45 | 49.83349 | 8.45775 | 208° | 20km/h | 28184m | 4.9m/s | 0°C | 0% | 0hPa | 2.6V | 03:21:20 | 01:57:46 | 00:00:00 | |
| HSKMA3-T | 2026-08-30 06:27:42 | 49.83363 | 8.45791 | 223° | 26km/h | 28166m | 5.4m/s | -49.2°C | 0.3% | 16.4hPa | 2.7V | 03:20:29 | 01:57:43 | 00:00:00 | |
| DJ2DS-15 | 2026-08-30 06:27:41 | 49.83368 | 8.45797 | 228° | 27km/h | 28161m | 5.3m/s | -49.2°C | 3.3% | 16.4hPa | 2.6V | 00:00:00 | 01:57:42 | 00:00:00 | |
| DL1XH-15 | 2026-08-30 06:27:40 | 49.83390 | 8.45831 | 209° | 29km/h | 28128m | 6.1m/s | -49.4°C | 3.4% | 16.5hPa | 2.6V | 03:20:11 | 01:57:36 | 00:00:00 | |
| DL1XH-west | 2026-08-30 06:27:36 | 49.83385 | 8.45826 | 216° | 24km/h | 28134m | 6.1m/s | -49.4°C | 0.4% | 16.5hPa | 2.7V | 03:20:29 | 01:57:37 | 00:00:00 | |
| BIOWL1-15 | 2026-08-30 06:27:35 | 49.83390 | 8.45831 | 209° | 29km/h | 28128m | 6.1m/s | -49.4°C | 0.4% | 16.5hPa | 2.6V | 03:20:29 | 01:57:36 | 00:00:00 | |
| EDDB2-12 | 2026-08-30 06:27:35 | 49.83397 | 8.45836 | 203° | 33km/h | 28122m | 5.6m/s | -49.5°C | 0.9% | 16.5hPa | 2.7V | 00:00:00 | 00:00:00 | 00:00:00 | |
| IW2NTF | 2026-08-30 06:27:34 | 49.83434 | 8.45848 | 186° | 22km/h | 28094m | 5m/s | 0°C | 0% | 0hPa | 2.7V | 00:00:00 | 01:57:30 | 00:00:00 | |
| DF8AY | 2026-08-30 06:27:33 | 49.83405 | 8.45841 | 198° | 35km/h | 28117m | 5m/s | 0°C | 0% | 0hPa | 2.7V | 03:21:20 | 01:57:34 | 00:00:00 | |
| HSKMA3-T | 2026-08-30 06:27:32 | 49.83414 | 8.45844 | 192° | 33km/h | 28111m | 5.5m/s | -49.4°C | 0.4% | 16.6hPa | 2.7V | 03:20:29 | 01:57:33 | 00:00:00 | |
| AA1-15 | 2026-08-30 06:27:31 | 49.83421 | 8.45846 | 187° | 29km/h | 28105m | 6.5m/s | -49.4°C | 0.4% | 16.6hPa | 2.6V | 03:20:29 | 01:57:32 | 00:00:00 | |
| DO9LL-15 | 2026-08-30 06:27:31 | 49.83421 | 8.45846 | 187° | 26km/h | 28106m | 6.4m/s | -49.4°C | 3.4% | 16.6hPa | 2.6V | 00:00:00 | 01:57:32 | 00:00:00 | |
| DL1XH-15 | 2026-08-30 06:27:30 | 49.83458 | 8.45865 | 215° | 33km/h | 28071m | 5.3m/s | -49.5°C | 3.3% | 16.7hPa | 2.6V | 03:20:21 | 01:57:26 | 00:00:00 | |
| HEMX73-11 | 2026-08-30 06:27:30 | 49.83428 | 8.45847 | 184° | 26km/h | 28100m | 5.6m/s | -49.5°C | 0.9% | 16.6hPa | 2.6V | 03:20:00 | 00:00:00 | 00:00:00 | |
| DL0LBS | 2026-08-30 06:27:29 | 49.83428 | 8.45847 | 184° | 26km/h | 28100m | 5.6m/s | -49.5°C | 1.0% | 16.6hPa | 2.6V | 03:20:00 | 00:00:00 | 00:00:00 | |
| DD1CC8 | 2026-08-30 06:27:28 | 49.83445 | 8.45853 | 205° | 24km/h | 28083m | 6.5m/s | -49.6°C | 0.9% | 16.7hPa | 2.6V | 00:00:00 | 00:00:00 | 00:00:00 | |
| DL1XH1-15 | 2026-08-30 06:27:27 | 49.83484 | 8.45890 | 198° | 26km/h | 28048m | 5.7m/s | -49.3°C | 3.4% | 16.7hPa | 2.6V | 03:20:25 | 01:57:22 | 00:00:00 | |
| BIOWL1-15 | 2026-08-30 06:27:26 | 49.83458 | 8.45865 | 216° | 33km/h | 28071m | 5.4m/s | -49.5°C | 0.4% | 16.7hPa | 2.6V | 03:20:29 | 01:57:26 | 00:00:00 | |
| DO3MHA-11 | 2026-08-30 06:27:26 | 49.83451 | 8.45858 | 213° | 27km/h | 28077m | 6.4m/s | -49.5°C | 3.3% | 16.6hPa | 2.6V | 00:00:00 | 01:57:27 | 00:00:00 | |
| IW2NTF | 2026-08-30 06:27:25 | 49.83496 | 8.45894 | 189° | 24km/h | 28037m | 5.5m/s | 0°C | 0% | 0hPa | 2.6V | 00:00:00 | 01:57:20 | 00:00:00 | |
| DF8AY | 2026-08-30 06:27:22 | 49.83478 | 8.45886 | 207° | 27km/h | 28054m | 6.4m/s | 0°C | 0% | 0hPa | 2.7V | 03:21:20 | 01:57:23 | 00:00:00 | |
| DM0DOS-11 | 2026-08-30 06:27:21 | 49.83515 | 8.45902 | 202° | 26km/h | 28019m | 5.3m/s | -49.4°C | 3.3% | 16.8hPa | 2.7V | 03:20:30 | 01:57:17 | 00:00:00 | |
| HSKMA3-T | 2026-08-30 06:27:21 | 49.83484 | 8.45890 | 198° | 26km/h | 28048m | 5.7m/s | -49.3°C | 0.4% | 16.7hPa | 2.6V | 03:20:29 | 01:57:22 | 00:00:00 | |
| AA1-15 | 2026-08-30 06:27:20 | 49.83490 | 8.45892 | 191° | 24km/h | 28042m | 5.4m/s | -49.3°C | 0.5% | 16.8hPa | 2.6V | 03:20:29 | 01:57:21 | 00:00:00 | |
| DF3TZ-5 | 2026-08-30 06:27:19 | 49.83502 | 8.45896 | 193° | 24km/h | 28031m | 6.4m/s | -49.4°C | 0.9% | 16.8hPa | 2.7V | 00:00:00 | 00:00:00 | 00:00:00 | |
| BUE01 | 2026-08-30 06:27:17 | 49.83509 | 8.45898 | 197° | 26km/h | 28025m | 5.9m/s | 0°C | -1.0% | -1.0hPa | 2.7V | 00:00:00 | 00:00:00 | 00:00:00 | |
| DL1XH1-15 | 2026-08-30 06:27:16 | 49.83538 | 8.45916 | 200° | 16km/h | 27991m | 5m/s | -49.3°C | 3.3% | 16.9hPa | 2.7V | 03:20:35 | 01:57:12 | 00:00:00 | |
| DL1XH-west | 2026-08-30 06:27:15 | 49.83521 | 8.45906 | 204° | 24km/h | 28014m | 5.1m/s | -49.3°C | 0.4% | 16.8hPa | 2.6V | 03:21:20 | 01:57:16 | 00:00:00 | |
| BIOWL1-15 | 2026-08-30 06:27:14 | 49.83526 | 8.45909 | 203° | 20km/h | 28008m | 6.3m/s | -49.3°C | 0.4% | 16.9hPa | 2.6V | 03:21:20 | 01:57:15 | 00:00:00 | |
| DL4BBY-15 | 2026-08-30 06:27:13 | 49.83530 | 8.45912 | 200° | 24km/h | 28003m | 6.5m/s | -50.4°C | 0% | 0hPa | 2.7V | 00:00:00 | 00:00:00 | 00:00:00 | |
| DM0DOS-11 | 2026-08-30 06:27:11 | 49.83569 | 8.45933 | 189° | 29km/h | 27962m | 6.8m/s | -49.3°C | 3.4% | 16.9hPa | 2.7V | 03:20:40 | 01:57:07 | 00:00:00 | |
| DL3AQ-11 | 2026-08-30 06:27:11 | 49.83542 | 8.45919 | 203° | 20km/h | 27985m | 6.3m/s | -49.4°C | 0.9% | 16.9hPa | 2.7V | 00:00:00 | 00:00:00 | 00:00:00 | |
| DL1XH-15 | 2026-08-30 06:27:10 | 49.83576 | 8.45934 | 183° | 29km/h | 27955m | 6.3m/s | -49.3°C | 3.4% | 17hPa | 2.7V | 03:20:41 | 01:57:06 | 00:00:00 | |
| HSKMA3-T | 2026-08-30 06:27:10 | 49.83542 | 8.45919 | 204° | 20km/h | 27985m | 6.3m/s | -49.4°C | 0.4% | 16.9hPa | 2.7V | 03:21:20 | 01:57:11 | 00:00:00 | |
| DF8AY | 2026-08-30 06:27:07 | 49.83561 | 8.45930 | 196° | 31km/h | 27968m | 4.9m/s | 0°C | 0% | 0hPa | 2.6V | 03:21:20 | 01:57:08 | 00:00:00 | |
| DB0NH | 2026-08-30 06:27:07 | 49.83561 | 8.45930 | 196° | 22km/h | 27968m | 4.9m/s | 0°C | 0% | 0hPa | 2.7V | 00:00:00 | 01:57:08 | 00:00:00 | |
| DL1XH1-15 | 2026-08-30 06:27:06 | 49.83601 | 8.45942 | 212° | 24km/h | 27932m | 6m/s | -49.2°C | 3.3% | 17hPa | 2.7V | 03:20:45 | 01:57:02 | 00:00:00 | |
| BIOWL1-15 | 2026-08-30 06:27:04 | 49.83583 | 8.45935 | 183° | 27km/h | 27950m | 5m/s | -49.3°C | 0.5% | 17hPa | 2.6V | 03:21:20 | 01:57:05 | 00:00:00 | |
| DB0UT-7 | 2026-08-30 06:27:04 | 49.83583 | 8.45935 | 184° | 22km/h | 27950m | 5.0m/s | -49.3°C | 3.4% | 16.9hPa | 2.6V | 00:00:00 | 01:57:05 | 00:00:00 | |
| SFWM-10 | 2026-08-30 06:27:03 | 49.83583 | 8.45935 | 184° | 27km/h | 27950m | 5.0m/s | -49.3°C | 0.9% | 17.0hPa | 2.6V | 03:21:00 | 00:00:00 | 00:00:00 | |
| DJ2KF-10 | 2026-08-30 06:27:02 | 49.83596 | 8.45938 | 201° | 22km/h | 27939m | 6.7m/s | -49.3°C | 3.4% | 17.0hPa | 2.6V | 00:00:00 | 01:57:03 | 00:00:00 | |
| DM0DOS-11 | 2026-08-30 06:27:01 | 49.83619 | 8.45965 | 213° | 18km/h | 27904m | 5.1m/s | -49.3°C | 3.2% | 17.1hPa | 2.6V | 03:20:50 | 01:56:57 | 00:00:00 | |
| DJ2DS-15 | 2026-08-30 06:27:01 | 49.83601 | 8.45942 | 213° | 24km/h | 27932m | 6.0m/s | -49.2°C | 3.3% | 17.0hPa | 2.6V | 03:20:00 | 01:57:02 | 00:00:00 | |
| DL1XH-15 | 2026-08-30 06:27:00 | 49.83623 | 8.45970 | 211° | 22km/h | 27898m | 6.5m/s | -49.2°C | 3.2% | 17.1hPa | 2.6V | 03:20:51 | 01:56:56 | 00:00:00 | |
| HSKMA3-T | 2026-08-30 06:26:59 | 49.83609 | 8.45953 | 225° | 18km/h | 27921m | 6.2m/s | -49.3°C | 0.4% | 17.1hPa | 2.6V | 03:21:20 | 01:57:00 | 00:00:00 | |
| BIOWL1-15 | 2026-08-30 06:26:57 | 49.83634 | 8.45979 | 204° | 29km/h | 27886m | 5m/s | -49.2°C | 0.3% | 17.2hPa | 2.7V | 03:21:20 | 01:56:54 | 00:00:00 | |
| DO9LL-15 | 2026-08-30 06:26:57 | 49.83615 | 8.45962 | 220° | 22km/h | 27909m | 5.2m/s | -49.3°C | 3.3% | 17.0hPa | 2.7V | 00:00:00 | 01:56:58 | 00:00:00 | |
| DL1XH1-15 | 2026-08-30 06:26:56 | 49.83648 | 8.45986 | 190° | 31km/h | 27875m | 6.1m/s | -49.2°C | 3.3% | 17.2hPa | 2.7V | 03:20:55 | 01:56:52 | 00:00:00 | |
| DL1XH-west | 2026-08-30 06:26:54 | 49.83628 | 8.45974 | 210° | 26km/h | 27891m | 6.3m/s | -49.2°C | 0.3% | 17.2hPa | 2.6V | 03:21:20 | 01:56:55 | 00:00:00 | |
| NBG1-10 | 2026-08-30 06:26:53 | 49.83634 | 8.45979 | 205° | 20km/h | 27886m | 5.0m/s | -49.1°C | 3.2% | 17.1hPa | 2.7V | 00:00:00 | 01:56:54 | 00:00:00 | |
| DM0DOS-11 | 2026-08-30 06:26:51 | 49.83680 | 8.45994 | 211° | 24km/h | 27847m | 6.3m/s | -49.2°C | 3.3% | 17.3hPa | 2.7V | 03:21:00 | 01:56:47 | 00:00:00 | |
| DL1XH-15 | 2026-08-30 06:26:50 | 49.83685 | 8.45999 | 227° | 24km/h | 27841m | 5.5m/s | -49.3°C | 3.3% | 17.3hPa | 2.7V | 03:21:01 | 01:56:46 | 00:00:00 | |
| HSKMA3-T | 2026-08-30 06:26:48 | 49.83669 | 8.45988 | 185° | 24km/h | 27858m | 4.5m/s | -49.2°C | 0.4% | 17.2hPa | 2.6V | 03:21:20 | 01:56:49 | 00:00:00 | |
| DF8AY | 2026-08-30 06:26:47 | 49.83675 | 8.45990 | 196° | 24km/h | 27853m | 5.9m/s | 0°C | 0% | 0hPa | 2.7V | 03:21:20 | 01:56:48 | 00:00:00 | |
| DL1XH1-15 | 2026-08-30 06:26:46 | 49.83695 | 8.46025 | 240° | 13km/h | 27818m | 6.1m/s | -49.3°C | 3.3% | 17.3hPa | 2.7V | 03:21:05 | 01:56:42 | 00:00:00 | |
| DF7PN | 2026-08-30 06:26:45 | 49.83685 | 8.45999 | 227° | 22km/h | 27841m | 5.5m/s | -49.3°C | 0.9% | 17.3hPa | 2.6V | 00:00:00 | 00:00:00 | 00:00:00 | |
| BIOWL1-15 | 2026-08-30 06:26:44 | 49.83693 | 8.46020 | 244° | 16km/h | 27825m | 6.1m/s | -49.3°C | 0.4% | 17.3hPa | 2.6V | 03:21:20 | 01:56:43 | 00:00:00 | |
| DL1XH-west | 2026-08-30 06:26:43 | 49.83691 | 8.46014 | 242° | 20km/h | 27831m | 5.7m/s | -49.4°C | 0.4% | 17.3hPa | 2.6V | 03:21:20 | 01:56:44 | 00:00:00 | |
| DL4BBY-15 | 2026-08-30 06:26:43 | 49.83692 | 8.46014 | 243° | 20km/h | 27831m | 5.6m/s | -50.4°C | 0% | 0hPa | 2.7V | 00:00:00 | 00:00:00 | 00:00:00 | |
| SFWM-10 | 2026-08-30 06:26:42 | 49.83691 | 8.46014 | 243° | 20km/h | 27831m | 5.7m/s | -49.4°C | 0.9% | 17.3hPa | 2.7V | 03:21:00 | 00:00:00 | 00:00:00 | |
| DJ2DS-15 | 2026-08-30 06:26:41 | 49.83695 | 8.46025 | 241° | 18km/h | 27819m | 6.0m/s | -49.2°C | 3.3% | 17.3hPa | 2.7V | 00:00:00 | 01:56:42 | 00:00:00 | |
| DL1XH-15 | 2026-08-30 06:26:40 | 49.83717 | 8.46045 | 197° | 24km/h | 27785m | 5.3m/s | -49.4°C | 3.3% | 17.4hPa | 2.7V | 03:21:11 | 01:56:36 | 00:00:00 | |
| HSKMA3-T | 2026-08-30 06:26:37 | 49.83706 | 8.46038 | 209° | 20km/h | 27796m | 6.4m/s | -49.5°C | 0.4% | 17.4hPa | 2.6V | 03:21:20 | 01:56:38 | 00:00:00 | |
| BIOWL1-15 | 2026-08-30 06:26:35 | 49.83737 | 8.46052 | 199° | 18km/h | 27762m | 5.4m/s | -49.3°C | 0.4% | 17.5hPa | 2.7V | 03:21:20 | 01:56:32 | 00:00:00 | |
| DL1XH-west | 2026-08-30 06:26:33 | 49.83728 | 8.46049 | 187° | 20km/h | 27772m | 5.8m/s | -49.4°C | 0.4% | 17.5hPa | 2.6V | 03:21:20 | 01:56:34 | 00:00:00 | |
| DJ2KF-10 | 2026-08-30 06:26:32 | 49.83733 | 8.46050 | 190° | 18km/h | 27767m | 4.7m/s | -49.3°C | 3.3% | 17.4hPa | 2.6V | 00:00:00 | 01:56:33 | 00:00:00 | |
| DL3AQ-11 | 2026-08-30 06:26:31 | 49.83742 | 8.46055 | 211° | 18km/h | 27756m | 6.8m/s | -49.4°C | 0.9% | 17.5hPa | 2.7V | 00:00:00 | 00:00:00 | 00:00:00 | |
| DL1XH-15 | 2026-08-30 06:26:30 | 49.83759 | 8.46079 | 202° | 13km/h | 27727m | 5.8m/s | -49.4°C | 3.3% | 17.6hPa | 2.7V | 03:21:21 | 01:56:26 | 00:00:00 | |
| HSKMA3-T | 2026-08-30 06:26:27 | 49.83753 | 8.46072 | 226° | 18km/h | 27739m | 4.9m/s | -49.5°C | 0.4% | 17.6hPa | 2.6V | 03:21:20 | 01:56:28 | 00:00:00 | |
| DO9LL-15 | 2026-08-30 06:26:27 | 49.83753 | 8.46072 | 227° | 18km/h | 27739m | 4.8m/s | -49.4°C | 3.3% | 17.5hPa | 2.6V | 03:21:00 | 01:56:28 | 00:00:00 | |
| DL1XH1-15 | 2026-08-30 06:26:26 | 49.83776 | 8.46084 | 191° | 24km/h | 27704m | 5.9m/s | -49.6°C | 3.4% | 17.6hPa | 2.6V | 03:21:25 | 01:56:22 | 00:00:00 | |
| DF8AY | 2026-08-30 06:26:26 | 49.83756 | 8.46076 | 220° | 15km/h | 27733m | 6.7m/s | 0°C | 0% | 0hPa | 2.7V | 03:21:20 | 01:56:27 | 00:00:00 | |
| DL1XH-west | 2026-08-30 06:26:23 | 49.83766 | 8.46081 | 187° | 16km/h | 27716m | 5.3m/s | -49.5°C | 0.4% | 17.6hPa | 2.6V | 03:22:11 | 01:56:24 | 00:00:00 | |
| BIOWL1-15 | 2026-08-30 06:26:22 | 49.83782 | 8.46086 | 191° | 27km/h | 27699m | 4.8m/s | -49.6°C | 0.4% | 17.7hPa | 2.7V | 03:22:11 | 01:56:21 | 00:00:00 | |
| DJ2DS-15 | 2026-08-30 06:26:21 | 49.83776 | 8.46084 | 192° | 18km/h | 27704m | 5.8m/s | -49.6°C | 3.4% | 17.6hPa | 2.6V | 00:00:00 | 01:56:22 | 00:00:00 | |
| DL3AQ-11 | 2026-08-30 06:26:20 | 49.83789 | 8.46087 | 188° | 27km/h | 27694m | 4.9m/s | -49.6°C | 0.9% | 17.7hPa | 2.7V | 00:00:00 | 00:00:00 | 00:00:00 | |
| SONCRA | 2026-08-30 06:26:19 | 49.83789 | 8.46087 | 188° | 27km/h | 27694m | 4.9m/s | -49.6°C | 0.9% | 17.7hPa | 2.7V | 00:00:00 | 00:00:00 | 00:00:00 | |
| DL1XH-15 | 2026-08-30 06:26:18 | 49.83822 | 8.46098 | 221° | 20km/h | 27660m | 6.3m/s | -49.5°C | 3.3% | 17.8hPa | 2.7V | 03:21:33 | 01:56:14 | 00:00:00 | |
| HSKMA3-T | 2026-08-30 06:26:16 | 49.83808 | 8.46090 | 185° | 20km/h | 27677m | 4.8m/s | -49.6°C | 0.4% | 17.7hPa | 2.6V | 03:22:11 | 01:56:17 | 00:00:00 | |
| AA1-15 | 2026-08-30 06:26:15 | 49.83813 | 8.46091 | 195° | 20km/h | 27672m | 4.8m/s | -49.6°C | 0.4% | 17.7hPa | 2.6V | 03:22:11 | 01:56:16 | 00:00:00 | |
| DL1XH-west | 2026-08-30 06:26:12 | 49.83825 | 8.46104 | 236° | 20km/h | 27655m | 5m/s | -49.6°C | 0.4% | 17.8hPa | 2.7V | 03:22:11 | 01:56:13 | 00:00:00 | |
| BIOWL1-15 | 2026-08-30 06:26:12 | 49.83828 | 8.46115 | 262° | 13km/h | 27644m | 6.6m/s | -49.7°C | 0.4% | 17.8hPa | 2.6V | 03:22:11 | 01:56:11 | 00:00:00 | |
| CB1BUN | 2026-08-30 06:26:11 | 49.83825 | 8.46104 | 237° | 20km/h | 27655m | 5.0m/s | -49.6°C | 0.9% | 17.8hPa | 2.7V | 03:22:00 | 00:00:00 | 00:00:00 | |
| DO2KSM | 2026-08-30 06:26:10 | 49.83827 | 8.46110 | 249° | 16km/h | 27650m | 5.0m/s | -49.7°C | 0.9% | 17.8hPa | 2.7V | 03:22:00 | 00:00:00 | 00:00:00 | |
| DL1XH-15 | 2026-08-30 06:26:08 | 49.83841 | 8.46140 | 208° | 24km/h | 27604m | 4.9m/s | -49.9°C | 3.4% | 17.9hPa | 2.7V | 03:21:43 | 01:56:04 | 00:00:00 | |
| DL1ZP-14 | 2026-08-30 06:26:08 | 49.83828 | 8.46126 | 255° | 5km/h | 27626m | 4.9m/s | -49.7°C | 0.9% | 17.9hPa | 2.7V | 00:00:00 | 00:00:00 | 00:00:00 | |
| DB0NH | 2026-08-30 06:26:07 | 49.83828 | 8.46126 | 256° | 20km/h | 27627m | 4.8m/s | -49.7°C | 3.4% | 17.8hPa | 2.7V | 00:00:00 | 01:56:08 | 00:00:00 | |
| DL1XH1-15 | 2026-08-30 06:26:06 | 49.83850 | 8.46148 | 211° | 18km/h | 27592m | 5.9m/s | -49.9°C | 3.5% | 18hPa | 2.6V | 03:21:45 | 01:56:02 | 00:00:00 | |
| HSKMA3-T | 2026-08-30 06:26:06 | 49.83830 | 8.46129 | 230° | 11km/h | 27621m | 6.3m/s | -49.8°C | 0.5% | 17.9hPa | 2.6V | 03:22:11 | 01:56:07 | 00:00:00 | |
| AA1-15 | 2026-08-30 06:26:04 | 49.83836 | 8.46136 | 212° | 20km/h | 27609m | 5.2m/s | -49.9°C | 0.5% | 17.9hPa | 2.7V | 03:22:11 | 01:56:05 | 00:00:00 | |
| DL1XH-west | 2026-08-30 06:26:01 | 49.83850 | 8.46148 | 211° | 18km/h | 27592m | 5.9m/s | -49.9°C | 0.5% | 18hPa | 2.6V | 03:22:11 | 01:56:02 | 00:00:00 | |
| BIOWL1-15 | 2026-08-30 06:26:00 | 49.83853 | 8.46152 | 224° | 15km/h | 27587m | 5.5m/s | -49.9°C | 0.6% | 18hPa | 2.7V | 03:22:11 | 01:56:01 | 00:00:00 | |
| KANTATE | 2026-08-30 06:25:59 | 49.83853 | 8.46152 | 225° | 15km/h | 27587m | 5.5m/s | -49.9°C | 1.0% | 18.0hPa | 2.7V | 03:22:00 | 00:00:00 | 00:00:00 | |
| DL1XH-15 | 2026-08-30 06:25:58 | 49.83865 | 8.46199 | 247° | 15km/h | 27548m | 6.5m/s | -49.7°C | 3.4% | 18.1hPa | 2.7V | 03:21:53 | 01:55:54 | 00:00:00 | |
| DO9LL-15 | 2026-08-30 06:25:57 | 49.83859 | 8.46169 | 251° | 16km/h | 27571m | 6.6m/s | -49.7°C | 3.4% | 18.0hPa | 2.6V | 00:00:00 | 01:55:58 | 00:00:00 | |
| DL1XH1-15 | 2026-08-30 06:25:56 | 49.83869 | 8.46206 | 212° | 13km/h | 27537m | 5.3m/s | -49.7°C | 3.4% | 18.1hPa | 2.6V | 03:21:55 | 01:55:52 | 00:00:00 | |
| HSKMA3-T | 2026-08-30 06:25:55 | 49.83862 | 8.46185 | 253° | 22km/h | 27559m | 4.9m/s | -49.8°C | 0.4% | 18.1hPa | 2.7V | 03:22:11 | 01:55:56 | 00:00:00 | |
| AA1-15 | 2026-08-30 06:25:53 | 49.83866 | 8.46199 | 247° | 15km/h | 27548m | 6.5m/s | -49.7°C | 0.4% | 18.1hPa | 2.7V | 03:22:11 | 01:55:54 | 00:00:00 | |
| DL1XH-west | 2026-08-30 06:25:50 | 49.83872 | 8.46209 | 202° | 16km/h | 27531m | 5.3m/s | -49.8°C | 0.5% | 18.1hPa | 2.6V | 03:22:11 | 01:55:51 | 00:00:00 | |
| BIOWL1-15 | 2026-08-30 06:25:49 | 49.83877 | 8.46211 | 203° | 22km/h | 27526m | 6m/s | -49.7°C | 0.5% | 18.1hPa | 2.7V | 03:22:11 | 01:55:50 | 00:00:00 | |
| DK5PH-5 | 2026-08-30 06:25:49 | 49.83877 | 8.46211 | 203° | 24km/h | 27526m | 5.9m/s | -49.7°C | 3.4% | 18.1hPa | 2.7V | 03:21:00 | 01:55:50 | 00:00:00 | |
| DL1XH-15 | 2026-08-30 06:25:48 | 49.83900 | 8.46255 | 266° | 22km/h | 27492m | 5.7m/s | -49.7°C | 3.4% | 18.2hPa | 2.7V | 03:22:03 | 01:55:44 | 00:00:00 | |
| AU51GT2 | 2026-08-30 06:25:47 | 49.83888 | 8.46221 | 218° | 27km/h | 27515m | 4.8m/s | -49.7°C | 1.0% | 18.2hPa | 2.6V | 00:00:00 | 00:00:00 | 00:00:00 | |
| DL1XH1-15 | 2026-08-30 06:25:46 | 49.83900 | 8.46271 | 266° | 20km/h | 27481m | 5.4m/s | -49.7°C | 3.4% | 18.3hPa | 2.6V | 03:22:05 | 01:55:42 | 00:00:00 | |
| HSKMA3-T | 2026-08-30 06:25:44 | 49.83899 | 8.46247 | 254° | 24km/h | 27498m | 6.5m/s | -49.7°C | 0.5% | 18.2hPa | 2.6V | 03:22:11 | 01:55:45 | 00:00:00 | |
| AA1-15 | 2026-08-30 06:25:42 | 49.83901 | 8.46263 | 271° | 20km/h | 27486m | 5.1m/s | -49.7°C | 0.5% | 18.3hPa | 2.7V | 03:22:11 | 01:55:43 | 00:00:00 | |
| BIOWL1-15 | 2026-08-30 06:25:40 | 49.83906 | 8.46293 | 231° | 22km/h | 27464m | 5.1m/s | -49.8°C | 0.5% | 18.3hPa | 2.7V | 03:22:11 | 01:55:39 | 00:00:00 | |
| DL1XH-west | 2026-08-30 06:25:40 | 49.83901 | 8.46279 | 255° | 20km/h | 27475m | 6.4m/s | -49.7°C | 0.4% | 18.3hPa | 2.6V | 03:22:11 | 01:55:41 | 00:00:00 | |
| DO3DL | 2026-08-30 06:25:39 | 49.83901 | 8.46279 | 256° | 20km/h | 27476m | 6.4m/s | -49.7°C | 0.9% | 18.3hPa | 2.6V | 03:22:00 | 00:00:00 | 00:00:00 | |
| DL1XH-15 | 2026-08-30 06:25:38 | 49.83920 | 8.46322 | 250° | 22km/h | 27437m | 5m/s | -49.6°C | 3.4% | 18.4hPa | 2.6V | 03:22:13 | 01:55:34 | 00:00:00 | |
| DL1ZP-14 | 2026-08-30 06:25:37 | 49.83913 | 8.46304 | 225° | 18km/h | 27453m | 6.1m/s | -49.8°C | 0.9% | 18.4hPa | 2.6V | 00:00:00 | 00:00:00 | 00:00:00 | |
| DL1XH1-15 | 2026-08-30 06:25:36 | 49.83924 | 8.46342 | 250° | 31km/h | 27426m | 6.3m/s | -49.7°C | 3.4% | 18.4hPa | 2.6V | 03:22:15 | 01:55:32 | 00:00:00 | |
| HSKMA3-T | 2026-08-30 06:25:34 | 49.83918 | 8.46315 | 245° | 18km/h | 27442m | 4.6m/s | -49.7°C | 0.5% | 18.4hPa | 2.7V | 03:23:02 | 01:55:35 | 00:00:00 | |
| AA1-15 | 2026-08-30 06:25:31 | 49.83925 | 8.46342 | 250° | 31km/h | 27426m | 6.3m/s | -49.7°C | 0.4% | 18.4hPa | 2.6V | 03:23:02 | 01:55:32 | 00:00:00 | |
| DM0DOS-11 | 2026-08-30 06:25:31 | 49.83936 | 8.46395 | 263° | 18km/h | 27396m | 5.6m/s | -49.7°C | 3.4% | 18.5hPa | 2.6V | 03:22:20 | 01:55:27 | 00:00:00 | |
| DL1XH-west | 2026-08-30 06:25:30 | 49.83927 | 8.46354 | 250° | 33km/h | 27420m | 5.7m/s | -49.8°C | 0.5% | 18.4hPa | 2.7V | 03:23:02 | 01:55:31 | 00:00:00 | |
| DF8AY | 2026-08-30 06:25:28 | 49.83933 | 8.46377 | 252° | 27km/h | 27409m | 5.8m/s | 0°C | 0% | 0hPa | 2.7V | 18:12:15 | 01:55:29 | 00:00:00 | |
| DJ2DS-15 | 2026-08-30 06:25:27 | 49.83935 | 8.46386 | 257° | 22km/h | 27403m | 6.5m/s | -49.7°C | 1.0% | 18.5hPa | 2.6V | 00:00:00 | 00:00:00 | 00:00:00 | |
| DL1XH1-15 | 2026-08-30 06:25:26 | 49.83941 | 8.46437 | 250° | 27km/h | 27368m | 4.7m/s | -49.7°C | 3.4% | 18.6hPa | 2.6V | 03:22:25 | 01:55:22 | 00:00:00 | |
| HSKMA3-T | 2026-08-30 06:25:23 | 49.83938 | 8.46417 | 257° | 24km/h | 27379m | 6.5m/s | -49.8°C | 0.5% | 18.6hPa | 2.7V | 03:23:02 | 01:55:24 | 00:00:00 | |
| AA1-15 | 2026-08-30 06:25:20 | 49.83944 | 8.46447 | 250° | 27km/h | 27363m | 5.4m/s | -49.7°C | 0.4% | 18.6hPa | 2.6V | 03:23:02 | 01:55:21 | 00:00:00 | |
| DL1XH-west | 2026-08-30 06:25:19 | 49.83946 | 8.46456 | 250° | 24km/h | 27357m | 6.6m/s | -49.7°C | 0.5% | 18.6hPa | 2.6V | 03:23:02 | 01:55:20 | 00:00:00 | |
| BIOWL1-15 | 2026-08-30 06:25:18 | 49.83948 | 8.46464 | 249° | 22km/h | 27351m | 6.3m/s | -49.7°C | 0.5% | 18.6hPa | 2.7V | 03:23:02 | 01:55:19 | 00:00:00 | |
| DM0DOS-11 | 2026-08-30 06:25:17 | 49.83952 | 8.46480 | 243° | 22km/h | 27339m | 5.8m/s | -49.6°C | 3.4% | 18.7hPa | 2.6V | 03:22:30 | 01:55:17 | 00:00:00 | |
| DL1XH1-15 | 2026-08-30 06:25:16 | 49.83969 | 8.46520 | 230° | 20km/h | 27310m | 6.6m/s | -49.6°C | 3.3% | 18.8hPa | 2.6V | 03:22:35 | 01:55:12 | 00:00:00 | |
| HSKMA3-T | 2026-08-30 06:25:13 | 49.83962 | 8.46505 | 235° | 26km/h | 27322m | 4.9m/s | -49.7°C | 0.4% | 18.7hPa | 2.7V | 03:23:02 | 01:55:14 | 00:00:00 | |
| DL1XH-west | 2026-08-30 06:25:09 | 49.83975 | 8.46530 | 234° | 16km/h | 27299m | 4.7m/s | -49.7°C | 0.4% | 18.8hPa | 2.7V | 03:23:02 | 01:55:10 | 00:00:00 | |
| BIOWL1-15 | 2026-08-30 06:25:07 | 49.83980 | 8.46543 | 241° | 24km/h | 27289m | 6m/s | -49.6°C | 0.4% | 18.8hPa | 2.7V | 03:23:02 | 01:55:08 | 00:00:00 | |
| DB0NH | 2026-08-30 06:25:07 | 49.83980 | 8.46543 | 241° | 26km/h | 27289m | 6.0m/s | -49.6°C | 3.3% | 18.8hPa | 2.7V | 00:00:00 | 01:55:08 | 00:00:00 | |
| DL1XH1-15 | 2026-08-30 06:25:06 | 49.84007 | 8.46607 | 224° | 27km/h | 27254m | 5.7m/s | -49.7°C | 3.4% | 18.9hPa | 2.7V | 03:22:45 | 01:55:02 | 00:00:00 | |
| HSKMA3-T | 2026-08-30 06:25:02 | 49.84002 | 8.46599 | 232° | 31km/h | 27260m | 6.3m/s | -49.7°C | 0.5% | 18.9hPa | 2.7V | 03:23:02 | 01:55:03 | 00:00:00 | |
| BIOWL1-15 | 2026-08-30 06:24:59 | 49.84023 | 8.46630 | 232° | 22km/h | 27233m | 6m/s | -49.6°C | 0.5% | 19hPa | 2.7V | 03:23:02 | 01:54:58 | 00:00:00 | |
| DL1XH-west | 2026-08-30 06:24:59 | 49.84016 | 8.46619 | 219° | 20km/h | 27244m | 4.9m/s | -49.8°C | 0.5% | 19hPa | 2.6V | 03:23:02 | 01:55:00 | 00:00:00 | |
| DB0UT-9 | 2026-08-30 06:24:57 | 49.84023 | 8.46630 | 233° | 22km/h | 27233m | 6.0m/s | -49.6°C | 1.0% | 19.0hPa | 2.7V | 03:23:00 | 00:00:00 | 00:00:00 | |
| DL1XH1-15 | 2026-08-30 06:24:56 | 49.84038 | 8.46677 | 233° | 22km/h | 27198m | 4.5m/s | -49.5°C | 3.4% | 19.1hPa | 2.7V | 03:22:55 | 01:54:52 | 00:00:00 | |
| HSKMA3-T | 2026-08-30 06:24:52 | 49.84035 | 8.46670 | 243° | 20km/h | 27203m | 5.6m/s | -49.7°C | 0.4% | 19.1hPa | 2.6V | 03:23:02 | 01:54:53 | 00:00:00 | |
| DJ2DS-15 | 2026-08-30 06:24:51 | 49.84038 | 8.46677 | 233° | 22km/h | 27199m | 4.5m/s | -49.5°C | 0.9% | 19.1hPa | 2.6V | 00:00:00 | 00:00:00 | 00:00:00 | |
| DJTTGO | 2026-08-30 06:24:50 | 49.84038 | 8.46677 | 234° | 22km/h | 27199m | 4.5m/s | -49.5°C | 0.9% | 19.1hPa | 2.6V | 03:23:00 | 00:00:00 | 00:00:00 | |
| DM0DOS-11 | 2026-08-30 06:24:49 | 49.84079 | 8.46727 | 197° | 24km/h | 27159m | 5.7m/s | -49.5°C | 3.4% | 19.2hPa | 2.6V | 03:23:02 | 01:54:45 | 00:00:00 | |
| DF8AY | 2026-08-30 06:24:49 | 49.84047 | 8.46693 | 225° | 31km/h | 27188m | 6.6m/s | 0°C | 0% | 0hPa | 2.6V | 18:12:15 | 01:54:50 | 00:00:00 | |
| BIOWL1-15 | 2026-08-30 06:24:49 | 49.84060 | 8.46710 | 218° | 35km/h | 27176m | 4.8m/s | -49.6°C | 0.4% | 19.2hPa | 2.7V | 03:23:02 | 01:54:48 | 00:00:00 | |
| AA1-15 | 2026-08-30 06:24:48 | 49.84053 | 8.46702 | 223° | 35km/h | 27181m | 5.7m/s | -49.5°C | 0.4% | 19.1hPa | 2.6V | 03:23:02 | 01:54:49 | 00:00:00 | |
| SONCRA | 2026-08-30 06:24:46 | 49.84073 | 8.46723 | 205° | 27km/h | 27165m | 6.6m/s | -49.6°C | 0.9% | 19.2hPa | 2.7V | 00:00:00 | 00:00:00 | 00:00:00 | |
| AU51GT2 | 2026-08-30 06:24:45 | 49.84073 | 8.46723 | 205° | 27km/h | 27165m | 6.6m/s | -49.6°C | 0.9% | 19.2hPa | 2.7V | 00:00:00 | 00:00:00 | 00:00:00 | |
| HSKMA3-T | 2026-08-30 06:24:41 | 49.84094 | 8.46735 | 210° | 20km/h | 27143m | 6.2m/s | -49.5°C | 0.4% | 19.2hPa | 2.7V | 03:23:53 | 01:54:42 | 00:00:00 | |
| DJ2DS-15 | 2026-08-30 06:24:41 | 49.84094 | 8.46735 | 210° | 22km/h | 27143m | 6.1m/s | -49.5°C | 3.4% | 19.2hPa | 2.7V | 00:00:00 | 01:54:42 | 00:00:00 | |
| DM0DOS-11 | 2026-08-30 06:24:39 | 49.84121 | 8.46774 | 202° | 16km/h | 27103m | 5.7m/s | -50°C | 3.4% | 19.4hPa | 2.7V | 03:23:12 | 01:54:35 | 00:00:00 | |
| BIOWL1-15 | 2026-08-30 06:24:38 | 49.84114 | 8.46767 | 226° | 20km/h | 27115m | 6m/s | -49.9°C | 0.4% | 19.3hPa | 2.7V | 03:23:53 | 01:54:37 | 00:00:00 | |
| DL1XH-west | 2026-08-30 06:24:38 | 49.84106 | 8.46753 | 231° | 26km/h | 27126m | 4.8m/s | -49.7°C | 0.4% | 19.3hPa | 2.6V | 03:23:53 | 01:54:39 | 00:00:00 | |
| AA1-15 | 2026-08-30 06:24:37 | 49.84110 | 8.46760 | 230° | 24km/h | 27121m | 5.2m/s | -49.8°C | 0.4% | 19.3hPa | 2.6V | 03:23:53 | 01:54:38 | 00:00:00 | |
| HSKMA3-T | 2026-08-30 06:24:31 | 49.84136 | 8.46781 | 199° | 26km/h | 27086m | 6.3m/s | -50°C | 0.5% | 19.4hPa | 2.6V | 03:23:53 | 01:54:32 | 00:00:00 | |
| DL3AQ-11 | 2026-08-30 06:24:31 | 49.84142 | 8.46785 | 198° | 27km/h | 27081m | 5.1m/s | -50.0°C | 1.0% | 19.4hPa | 2.6V | 00:00:00 | 00:00:00 | 00:00:00 | |
| DM0DOS-11 | 2026-08-30 06:24:29 | 49.84177 | 8.46794 | 202° | 16km/h | 27047m | 6.4m/s | -50.4°C | 3.6% | 19.5hPa | 2.6V | 03:23:22 | 01:54:25 | 00:00:00 | |
| DL1XH-15 | 2026-08-30 06:24:28 | 49.84181 | 8.46798 | 213° | 18km/h | 27041m | 6.3m/s | -50.3°C | 3.6% | 19.6hPa | 2.6V | 03:23:23 | 01:54:24 | 00:00:00 | |
| DL1XH-west | 2026-08-30 06:24:27 | 49.84162 | 8.46791 | 183° | 24km/h | 27064m | 6.3m/s | -50.2°C | 0.5% | 19.5hPa | 2.6V | 03:23:53 | 01:54:28 | 00:00:00 | |
| DL1XH1-15 | 2026-08-30 06:24:26 | 49.84188 | 8.46806 | 212° | 18km/h | 27030m | 4.9m/s | -50.2°C | 3.6% | 19.6hPa | 2.7V | 03:23:25 | 01:54:22 | 00:00:00 | |
| AA1-15 | 2026-08-30 06:24:26 | 49.84168 | 8.46792 | 183° | 20km/h | 27058m | 5.3m/s | -50.3°C | 0.5% | 19.5hPa | 2.7V | 03:23:53 | 01:54:27 | 00:00:00 | |
| BIOWL1-15 | 2026-08-30 06:24:25 | 49.84173 | 8.46793 | 190° | 18km/h | 27053m | 5.1m/s | -50.4°C | 0.6% | 19.5hPa | 2.7V | 03:23:53 | 01:54:26 | 00:00:00 | |
| HSKMA3-T | 2026-08-30 06:24:20 | 49.84192 | 8.46809 | 202° | 18km/h | 27025m | 6m/s | -50.3°C | 0.6% | 19.6hPa | 2.6V | 03:23:53 | 01:54:21 | 00:00:00 | |
| DL3AQ-11 | 2026-08-30 06:24:20 | 49.84197 | 8.46811 | 186° | 18km/h | 27019m | 5.8m/s | -50.3°C | 1.0% | 19.6hPa | 2.6V | 00:00:00 | 00:00:00 | 00:00:00 | |
| DK5PH-5 | 2026-08-30 06:24:19 | 49.84197 | 8.46811 | 187° | 26km/h | 27019m | 5.7m/s | -50.2°C | 3.6% | 19.6hPa | 2.6V | 00:00:00 | 01:54:20 | 00:00:00 | |
| DL1XH-15 | 2026-08-30 06:24:18 | 49.84238 | 8.46811 | 183° | 33km/h | 26986m | 4.8m/s | -50.1°C | 3.5% | 19.7hPa | 2.6V | 03:23:33 | 01:54:14 | 00:00:00 | |
| DL1XH-west | 2026-08-30 06:24:17 | 49.84208 | 8.46810 | 174° | 26km/h | 27008m | 5.3m/s | -50.2°C | 0.6% | 19.7hPa | 2.7V | 03:23:53 | 01:54:18 | 00:00:00 | |
| DL1XH1-15 | 2026-08-30 06:24:16 | 49.84255 | 8.46811 | 173° | 33km/h | 26974m | 6.9m/s | -50°C | 3.5% | 19.8hPa | 2.7V | 03:23:35 | 01:54:12 | 00:00:00 | |
| AA1-15 | 2026-08-30 06:24:15 | 49.84222 | 8.46810 | 183° | 29km/h | 26996m | 5.9m/s | -50.1°C | 0.6% | 19.7hPa | 2.7V | 03:23:53 | 01:54:16 | 00:00:00 | |
| DJ2DS-15 | 2026-08-30 06:24:15 | 49.84222 | 8.46810 | 182° | 29km/h | 26997m | 5.9m/s | -50.1°C | 1.0% | 19.7hPa | 2.7V | 00:00:00 | 00:00:00 | 00:00:00 | |
| AU51GT2 | 2026-08-30 06:24:14 | 49.84230 | 8.46810 | 185° | 31km/h | 26991m | 5.5m/s | -50.1°C | 1.0% | 19.7hPa | 2.7V | 00:00:00 | 00:00:00 | 00:00:00 | |
| DL4BBY-15 | 2026-08-30 06:24:13 | 49.84238 | 8.46811 | 184° | 27km/h | 26986m | 4.8m/s | -51.2°C | 0% | 0hPa | 2.7V | 00:00:00 | 00:00:00 | 00:00:00 | |
| DD1CC2-15 | 2026-08-30 06:24:12 | 49.84238 | 8.46811 | 185° | 33km/h | 26986m | 4.8m/s | -50.1°C | 1.0% | 19.7hPa | 2.7V | 03:23:00 | 00:00:00 | 00:00:00 | |
| DO3DL | 2026-08-30 06:24:11 | 49.84246 | 8.46812 | 181° | 33km/h | 26981m | 5.7m/s | -50.0°C | 1.0% | 19.7hPa | 2.7V | 03:23:00 | 00:00:00 | 00:00:00 | |
| DF7PN | 2026-08-30 06:24:10 | 49.84263 | 8.46809 | 169° | 31km/h | 26968m | 5.7m/s | -49.9°C | 1.0% | 19.8hPa | 2.7V | 00:00:00 | 00:00:00 | 00:00:00 | |
| DM0DOS-11 | 2026-08-30 06:24:09 | 49.84298 | 8.46807 | 174° | 20km/h | 26934m | 6.5m/s | -49.8°C | 3.6% | 19.9hPa | 2.7V | 03:23:42 | 01:54:05 | 00:00:00 | |
| HSKMA3-T | 2026-08-30 06:24:09 | 49.84270 | 8.46807 | 170° | 27km/h | 26963m | 5m/s | -49.9°C | 0.5% | 19.8hPa | 2.7V | 03:23:53 | 01:54:10 | 00:00:00 | |
| DL1XH-west | 2026-08-30 06:24:06 | 49.84288 | 8.46807 | 188° | 20km/h | 26945m | 4.9m/s | -49.8°C | 0.6% | 19.9hPa | 2.6V | 03:23:53 | 01:54:07 | 00:00:00 | |
| BIOWL1-15 | 2026-08-30 06:24:04 | 49.84298 | 8.46807 | 174° | 22km/h | 26934m | 6.5m/s | -49.8°C | 0.6% | 19.9hPa | 2.7V | 03:23:53 | 01:54:05 | 00:00:00 | |
| DB0UT-7 | 2026-08-30 06:24:04 | 49.84298 | 8.46807 | 175° | 27km/h | 26935m | 6.5m/s | -49.8°C | 3.6% | 19.9hPa | 2.7V | 03:23:00 | 01:54:05 | 00:00:00 | |
| DL0LBS | 2026-08-30 06:24:03 | 49.84298 | 8.46807 | 175° | 20km/h | 26935m | 6.5m/s | -49.8°C | 1.0% | 19.9hPa | 2.7V | 03:23:00 | 00:00:00 | 00:00:00 | |
| DJ2KF-10 | 2026-08-30 06:24:02 | 49.84310 | 8.46803 | 168° | 27km/h | 26923m | 5.2m/s | -49.7°C | 3.6% | 19.9hPa | 2.7V | 00:00:00 | 01:54:03 | 00:00:00 | |
| DF1GD-15 | 2026-08-30 06:24:01 | 49.84310 | 8.46803 | 168° | 29km/h | 26923m | 5.3m/s | -49.8°C | 1.0% | 19.9hPa | 2.7V | 03:23:00 | 00:00:00 | 00:00:00 | |
| DB0ND-19 | 2026-08-30 06:24:00 | 49.84334 | 8.46799 | 178° | 33km/h | 26905m | 5.3m/s | -49.6°C | 1.0% | 20.0hPa | 2.7V | 00:00:00 | 00:00:00 | 00:00:00 | |
| DM0DOS-11 | 2026-08-30 06:23:59 | 49.84373 | 8.46787 | 159° | 24km/h | 26878m | 4.9m/s | -49.5°C | 3.3% | 20.1hPa | 2.7V | 03:23:52 | 01:53:55 | 00:00:00 | |
| SONDE2-11 | 2026-08-30 06:23:59 | 49.84343 | 8.46798 | 176° | 33km/h | 26900m | 4.4m/s | -49.5°C | 1.0% | 20.0hPa | 2.6V | 00:00:00 | 00:00:00 | 00:00:00 | |
| DL1XH-15 | 2026-08-30 06:23:58 | 49.84378 | 8.46784 | 161° | 20km/h | 26872m | 6m/s | -49.5°C | 3.3% | 20.1hPa | 2.6V | 03:23:53 | 01:53:54 | 00:00:00 | |
| HSKMA3-T | 2026-08-30 06:23:58 | 49.84343 | 8.46798 | 177° | 35km/h | 26900m | 4.4m/s | -49.5°C | 0.5% | 20hPa | 2.6V | 03:23:53 | 01:53:59 | 00:00:00 | |
| DL1XH-west | 2026-08-30 06:23:56 | 49.84359 | 8.46794 | 166° | 31km/h | 26889m | 6.2m/s | -49.5°C | 0.4% | 20hPa | 2.7V | 03:23:53 | 01:53:57 | 00:00:00 | |
| BIOWL1-15 | 2026-08-30 06:23:53 | 49.84378 | 8.46784 | 162° | 20km/h | 26872m | 6m/s | -49.6°C | 0.4% | 20.1hPa | 2.6V | 03:23:53 | 01:53:54 | 00:00:00 | |
| DL3AQ-11 | 2026-08-30 06:23:51 | 49.84390 | 8.46783 | 183° | 15km/h | 26855m | 4.6m/s | -49.3°C | 0.9% | 20.1hPa | 2.7V | 00:00:00 | 00:00:00 | 00:00:00 | |
| DD1CC8 | 2026-08-30 06:23:50 | 49.84390 | 8.46783 | 183° | 15km/h | 26855m | 4.6m/s | -49.3°C | 0.9% | 20.1hPa | 2.7V | 00:00:00 | 00:00:00 | 00:00:00 | |
| DK5PH-5 | 2026-08-30 06:23:49 | 49.84394 | 8.46783 | 176° | 27km/h | 26850m | 5.3m/s | -49.3°C | 3.3% | 20.1hPa | 2.7V | 03:23:00 | 01:53:50 | 00:00:00 | |
| DL1XH-15 | 2026-08-30 06:23:48 | 49.84444 | 8.46764 | 169° | 37km/h | 26816m | 5.1m/s | -49.3°C | 3.3% | 20.3hPa | 2.7V | 03:24:03 | 01:53:44 | 00:00:00 | |
| DM0DOS-11 | 2026-08-30 06:23:47 | 49.84434 | 8.46767 | 168° | 38km/h | 26821m | 6m/s | -49.4°C | 3.3% | 20.2hPa | 2.7V | 03:24:02 | 01:53:45 | 00:00:00 | |
| HSKMA3-T | 2026-08-30 06:23:47 | 49.84407 | 8.46779 | 164° | 33km/h | 26838m | 5.6m/s | -49.4°C | 0.5% | 20.2hPa | 2.6V | 03:24:44 | 01:53:48 | 00:00:00 | |
| BIOWL9-15 | 2026-08-30 06:23:47 | 49.84415 | 8.46775 | 163° | 37km/h | 26833m | 5.0m/s | -49.5°C | 1.0% | 20.2hPa | 2.6V | 00:00:00 | 00:00:00 | 00:00:00 | |
| DL1XH1-15 | 2026-08-30 06:23:46 | 49.84460 | 8.46758 | 160° | 29km/h | 26806m | 4.9m/s | -49.4°C | 3.3% | 20.3hPa | 2.6V | 03:24:05 | 01:53:42 | 00:00:00 | |
| DL1XH-west | 2026-08-30 06:23:45 | 49.84425 | 8.46771 | 165° | 38km/h | 26827m | 5.9m/s | -49.5°C | 0.5% | 20.2hPa | 2.6V | 03:24:44 | 01:53:46 | 00:00:00 | |
| BIOWL1-15 | 2026-08-30 06:23:42 | 49.84452 | 8.46762 | 166° | 33km/h | 26811m | 4.5m/s | -49.4°C | 0.4% | 20.3hPa | 2.6V | 03:24:44 | 01:53:43 | 00:00:00 | |
| DL8DAS-14 | 2026-08-30 06:23:42 | 49.84460 | 8.46758 | 160° | 29km/h | 26807m | 4.9m/s | -49.4°C | 0.9% | 20.3hPa | 2.7V | 00:00:00 | 00:00:00 | 00:00:00 | |
| DJ2DS-15 | 2026-08-30 06:23:41 | 49.84460 | 8.46758 | 161° | 26km/h | 26807m | 4.9m/s | -49.4°C | 3.3% | 20.2hPa | 2.7V | 00:00:00 | 01:53:42 | 00:00:00 | |
| DL3AQ-11 | 2026-08-30 06:23:40 | 49.84472 | 8.46748 | 142° | 26km/h | 26795m | 5.7m/s | -49.5°C | 0.9% | 20.3hPa | 2.7V | 00:00:00 | 00:00:00 | 00:00:00 | |
| DJ2DS-15 | 2026-08-30 06:23:39 | 49.84477 | 8.46741 | 136° | 24km/h | 26789m | 4.9m/s | -49.5°C | 0.9% | 20.3hPa | 2.7V | 00:00:00 | 00:00:00 | 00:00:00 | |
| DL1XH-15 | 2026-08-30 06:23:38 | 49.84501 | 8.46724 | 175° | 24km/h | 26761m | 5.5m/s | -49.6°C | 3.3% | 20.4hPa | 2.7V | 03:24:13 | 01:53:34 | 00:00:00 | |
| DH7VM-15 | 2026-08-30 06:23:38 | 49.84482 | 8.46735 | 138° | 24km/h | 26785m | 4.7m/s | -49.4°C | 0.9% | 20.3hPa | 2.7V | 00:00:00 | 00:00:00 | 00:00:00 | |
| DB0NH | 2026-08-30 06:23:37 | 49.84482 | 8.46735 | 138° | 22km/h | 26785m | 4.7m/s | -49.4°C | 3.2% | 20.3hPa | 2.7V | 00:00:00 | 01:53:38 | 00:00:00 | |
| DM0DOS-11 | 2026-08-30 06:23:36 | 49.84495 | 8.46725 | 172° | 20km/h | 26767m | 5.8m/s | -49.4°C | 3.3% | 20.4hPa | 2.7V | 03:24:12 | 01:53:35 | 00:00:00 | |
| HSKMA3-T | 2026-08-30 06:23:36 | 49.84486 | 8.46730 | 145° | 20km/h | 26779m | 5.7m/s | -49.4°C | 0.4% | 20.4hPa | 2.6V | 03:24:44 | 01:53:37 | 00:00:00 | |
| DL1XH-west | 2026-08-30 06:23:35 | 49.84490 | 8.46726 | 160° | 18km/h | 26773m | 6.3m/s | -49.3°C | 0.4% | 20.4hPa | 2.7V | 03:24:44 | 01:53:36 | 00:00:00 | |
| BIOWL1-15 | 2026-08-30 06:23:32 | 49.84507 | 8.46722 | 169° | 27km/h | 26756m | 5.7m/s | -49.7°C | 0.4% | 20.4hPa | 2.6V | 03:24:44 | 01:53:33 | 00:00:00 | |
| AA1-15 | 2026-08-30 06:23:31 | 49.84514 | 8.46719 | 160° | 29km/h | 26750m | 6.1m/s | -49.7°C | 0.5% | 20.5hPa | 2.6V | 03:24:44 | 01:53:32 | 00:00:00 | |
| DO3DL | 2026-08-30 06:23:30 | 49.84514 | 8.46719 | 161° | 29km/h | 26750m | 6.1m/s | -49.7°C | 1.0% | 20.5hPa | 2.7V | 03:24:00 | 00:00:00 | 00:00:00 | |
| DB0ND-19 | 2026-08-30 06:23:29 | 49.84534 | 8.46700 | 140° | 29km/h | 26736m | 5.9m/s | -49.8°C | 1.0% | 20.5hPa | 2.7V | 00:00:00 | 00:00:00 | 00:00:00 | |
| DL1XH-15 | 2026-08-30 06:23:28 | 49.84554 | 8.46659 | 119° | 26km/h | 26707m | 4.8m/s | -49.7°C | 3.3% | 20.6hPa | 2.7V | 03:24:23 | 01:53:24 | 00:00:00 | |
| SFWM-10 | 2026-08-30 06:23:28 | 49.84534 | 8.46700 | 141° | 29km/h | 26736m | 5.9m/s | -49.8°C | 1.0% | 20.5hPa | 2.6V | 00:00:00 | 00:00:00 | 00:00:00 | |
| EDDB2-12 | 2026-08-30 06:23:27 | 49.84544 | 8.46685 | 129° | 26km/h | 26724m | 5.1m/s | -49.7°C | 1.0% | 20.6hPa | 2.6V | 00:00:00 | 00:00:00 | 00:00:00 | |
| DL1XH1-15 | 2026-08-30 06:23:26 | 49.84560 | 8.46645 | 126° | 16km/h | 26697m | 5.8m/s | -49.8°C | 3.4% | 20.6hPa | 2.6V | 03:24:25 | 01:53:22 | 00:00:00 | |
| HSKMA3-T | 2026-08-30 06:23:26 | 49.84544 | 8.46685 | 129° | 26km/h | 26724m | 5.1m/s | -49.7°C | 0.5% | 20.6hPa | 2.6V | 03:24:44 | 01:53:27 | 00:00:00 | |
| DO3MHA-11 | 2026-08-30 06:23:26 | 49.84544 | 8.46685 | 130° | 18km/h | 26724m | 5.1m/s | -49.7°C | 3.5% | 20.5hPa | 2.6V | 00:00:00 | 01:53:27 | 00:00:00 | |
| DM0DOS-11 | 2026-08-30 06:23:24 | 49.84551 | 8.46668 | 120° | 27km/h | 26712m | 6.4m/s | -49.7°C | 3.4% | 20.6hPa | 2.6V | 03:24:22 | 01:53:25 | 00:00:00 | |
| DL1XH-west | 2026-08-30 06:23:24 | 49.84551 | 8.46668 | 120° | 27km/h | 26713m | 6.4m/s | -49.7°C | 0.5% | 20.6hPa | 2.6V | 03:24:44 | 01:53:25 | 00:00:00 | |
| BIOWL1-15 | 2026-08-30 06:23:24 | 49.84557 | 8.46651 | 122° | 22km/h | 26702m | 4.3m/s | -49.8°C | 0.4% | 20.6hPa | 2.7V | 03:24:44 | 01:53:23 | 00:00:00 | |
| AA1-15 | 2026-08-30 06:23:20 | 49.84562 | 8.46641 | 135° | 11km/h | 26691m | 6.7m/s | -49.8°C | 0.5% | 20.6hPa | 2.6V | 03:24:44 | 01:53:21 | 00:00:00 | |
| EDDB2-11 | 2026-08-30 06:23:20 | 49.84562 | 8.46641 | 134° | 11km/h | 26691m | 6.7m/s | -49.8°C | 1.0% | 20.6hPa | 2.7V | 00:00:00 | 00:00:00 | 00:00:00 | |
| DK5PH-5 | 2026-08-30 06:23:19 | 49.84564 | 8.46638 | 150° | 13km/h | 26685m | 5.5m/s | -49.7°C | 3.4% | 20.6hPa | 2.7V | 00:00:00 | 01:53:20 | 00:00:00 | |
| DL1XH-15 | 2026-08-30 06:23:18 | 49.84579 | 8.46611 | 105° | 20km/h | 26654m | 5.8m/s | -49.6°C | 3.4% | 20.8hPa | 2.7V | 03:24:33 | 01:53:14 | 00:00:00 | |
| DL8DAS-15 | 2026-08-30 06:23:17 | 49.84566 | 8.46636 | 154° | 9km/h | 26680m | 4.8m/s | -49.7°C | 1.0% | 20.7hPa | 2.6V | 00:00:00 | 00:00:00 | 00:00:00 | |
| DL1XH1-15 | 2026-08-30 06:23:16 | 49.84579 | 8.46597 | 89° | 16km/h | 26642m | 5.2m/s | -49.7°C | 3.4% | 20.8hPa | 2.6V | 03:24:35 | 01:53:12 | 00:00:00 | |
| HSKMA3-T | 2026-08-30 06:23:15 | 49.84574 | 8.46625 | 123° | 20km/h | 26664m | 4.7m/s | -49.6°C | 0.5% | 20.7hPa | 2.6V | 03:24:44 | 01:53:16 | 00:00:00 | |
| DL1XH-west | 2026-08-30 06:23:13 | 49.84579 | 8.46611 | 106° | 20km/h | 26654m | 5.8m/s | -49.7°C | 0.4% | 20.8hPa | 2.7V | 03:24:44 | 01:53:14 | 00:00:00 | |
| BIOWL1-15 | 2026-08-30 06:23:11 | 49.84580 | 8.46597 | 89° | 16km/h | 26642m | 5.2m/s | -49.7°C | 0.4% | 20.8hPa | 2.6V | 03:24:44 | 01:53:12 | 00:00:00 | |
| AA1-15 | 2026-08-30 06:23:09 | 49.84580 | 8.46585 | 106° | 15km/h | 26632m | 5.2m/s | -49.7°C | 0.5% | 20.8hPa | 2.6V | 03:24:44 | 01:53:10 | 00:00:00 | |
| DF7PN | 2026-08-30 06:23:08 | 49.84584 | 8.46574 | 135° | 16km/h | 26621m | 5.2m/s | -49.9°C | 1.0% | 20.9hPa | 2.7V | 00:00:00 | 00:00:00 | 00:00:00 | |
| DB0NH | 2026-08-30 06:23:07 | 49.84584 | 8.46574 | 136° | 7km/h | 26621m | 5.1m/s | -49.8°C | 3.4% | 20.8hPa | 2.7V | 00:00:00 | 01:53:08 | 00:00:00 | |
| DL1XH1-15 | 2026-08-30 06:23:06 | 49.84598 | 8.46561 | 140° | 9km/h | 26587m | 6m/s | -49.8°C | 3.4% | 21hPa | 2.7V | 03:24:45 | 01:53:02 | 00:00:00 | |
| DO3MHA-11 | 2026-08-30 06:23:06 | 49.84588 | 8.46570 | 146° | 11km/h | 26616m | 4.7m/s | -49.8°C | 3.4% | 20.8hPa | 2.6V | 00:00:00 | 01:53:07 | 00:00:00 | |
| DM0DOS-11 | 2026-08-30 06:23:04 | 49.84595 | 8.46564 | 157° | 7km/h | 26598m | 5.5m/s | -49.8°C | 3.4% | 20.9hPa | 2.6V | 03:24:43 | 01:53:04 | 00:00:00 | |
| BIOWL1-15 | 2026-08-30 06:23:04 | 49.84600 | 8.46558 | 133° | 11km/h | 26582m | 5.7m/s | -49.8°C | 0.4% | 21hPa | 2.6V | 03:25:35 | 01:53:01 | 00:00:00 | |
| HSKMA3-T | 2026-08-30 06:23:04 | 49.84593 | 8.46565 | 155° | 9km/h | 26604m | 6.2m/s | -49.8°C | 0.5% | 20.9hPa | 2.6V | 03:24:44 | 01:53:05 | 00:00:00 | |
| DL1XH-west | 2026-08-30 06:23:03 | 49.84595 | 8.46564 | 157° | 7km/h | 26598m | 5.5m/s | -49.8°C | 0.5% | 20.9hPa | 2.6V | 03:24:44 | 01:53:04 | 00:00:00 | |
| AA1-15 | 2026-08-30 06:22:58 | 49.84603 | 8.46551 | 105° | 11km/h | 26572m | 4.6m/s | -49.9°C | 0.5% | 21hPa | 2.7V | 03:25:35 | 01:52:59 | 00:00:00 | |
| DB0ND-19 | 2026-08-30 06:22:58 | 49.84603 | 8.46546 | 84° | 9km/h | 26567m | 6.4m/s | -50.0°C | 1.0% | 21.1hPa | 2.7V | 00:00:00 | 00:00:00 | 00:00:00 | |
| SONDE2-11 | 2026-08-30 06:22:57 | 49.84603 | 8.46543 | 60° | 9km/h | 26560m | 6.1m/s | -49.9°C | 1.0% | 21.1hPa | 2.7V | 00:00:00 | 00:00:00 | 00:00:00 | |
| DL1XH1-15 | 2026-08-30 06:22:56 | 49.84599 | 8.46529 | 102° | 5km/h | 26534m | 4.4m/s | -49.9°C | 3.4% | 21.2hPa | 2.7V | 03:24:55 | 01:52:52 | 00:00:00 | |
| HSKMA3-T | 2026-08-30 06:22:54 | 49.84600 | 8.46537 | 57° | 9km/h | 26550m | 5.2m/s | -49.9°C | 0.5% | 21.1hPa | 2.6V | 03:25:35 | 01:52:55 | 00:00:00 | |
| DL1XH-west | 2026-08-30 06:22:52 | 49.84599 | 8.46531 | 95° | 7km/h | 26539m | 4.7m/s | -50°C | 0.5% | 21.1hPa | 2.7V | 03:25:35 | 01:52:53 | 00:00:00 | |
| BIOWL1-15 | 2026-08-30 06:22:50 | 49.84599 | 8.46527 | 79° | 4km/h | 26529m | 6.1m/s | -49.9°C | 0.5% | 21.2hPa | 2.6V | 03:25:35 | 01:52:51 | 00:00:00 | |
| AA1-15 | 2026-08-30 06:22:48 | 49.84598 | 8.46526 | 345° | 4km/h | 26517m | 5.3m/s | -49.9°C | 0.4% | 21.2hPa | 2.6V | 03:25:35 | 01:52:49 | 00:00:00 | |
| CB1BUN | 2026-08-30 06:22:47 | 49.84597 | 8.46527 | 311° | 2km/h | 26512m | 5.2m/s | -49.9°C | 1.0% | 21.2hPa | 2.7V | 03:25:00 | 00:00:00 | 00:00:00 | |
| DL1XH1-15 | 2026-08-30 06:22:46 | 49.84598 | 8.46536 | 306° | 11km/h | 26478m | 5.3m/s | -49.9°C | 3.4% | 21.3hPa | 2.7V | 03:25:05 | 01:52:42 | 00:00:00 | |
| DO3MHA-11 | 2026-08-30 06:22:46 | 49.84597 | 8.46527 | 226° | 5km/h | 26506m | 6.4m/s | -49.9°C | 3.5% | 21.2hPa | 2.6V | 00:00:00 | 01:52:47 | 00:00:00 | |
| DM0DOS-11 | 2026-08-30 06:22:44 | 49.84599 | 8.46530 | 261° | 5km/h | 26490m | 5.3m/s | -50°C | 3.4% | 21.3hPa | 2.6V | 03:25:03 | 01:52:44 | 00:00:00 | |
| HSKMA3-T | 2026-08-30 06:22:44 | 49.84599 | 8.46529 | 225° | 5km/h | 26495m | 4.5m/s | -50°C | 0.5% | 21.3hPa | 2.6V | 03:25:35 | 01:52:45 | 00:00:00 | |
| DL1XH-west | 2026-08-30 06:22:41 | 49.84598 | 8.46536 | 306° | 11km/h | 26478m | 5.3m/s | -49.9°C | 0.4% | 21.3hPa | 2.7V | 03:25:35 | 01:52:42 | 00:00:00 | |
| BIOWL1-15 | 2026-08-30 06:22:40 | 49.84596 | 8.46539 | 312° | 11km/h | 26473m | 4.6m/s | -49.8°C | 0.4% | 21.4hPa | 2.7V | 03:25:35 | 01:52:41 | 00:00:00 | |
| AA1-15 | 2026-08-30 06:22:37 | 49.84593 | 8.46544 | 9° | 2km/h | 26457m | 4.9m/s | -49.8°C | 0.5% | 21.4hPa | 2.7V | 03:25:35 | 01:52:38 | 00:00:00 | |
| DF7PN | 2026-08-30 06:22:37 | 49.84592 | 8.46544 | 36° | 2km/h | 26452m | 4.7m/s | -49.9°C | 1.0% | 21.4hPa | 2.6V | 00:00:00 | 00:00:00 | 00:00:00 | |
| DO3MHA-11 | 2026-08-30 06:22:36 | 49.84592 | 8.46543 | 37° | 5km/h | 26452m | 4.6m/s | -49.8°C | 3.4% | 21.4hPa | 2.6V | 00:00:00 | 01:52:37 | 00:00:00 | |
| DM0DOS-11 | 2026-08-30 06:22:34 | 49.84590 | 8.46546 | 308° | 7km/h | 26435m | 5.4m/s | -49.9°C | 3.4% | 21.5hPa | 2.6V | 03:25:13 | 01:52:34 | 00:00:00 | |
| HSKMA3-T | 2026-08-30 06:22:33 | 49.84590 | 8.46546 | 308° | 7km/h | 26435m | 5.4m/s | -49.9°C | 0.4% | 21.5hPa | 2.6V | 03:25:35 | 01:52:34 | 00:00:00 | |
| DL1XH-west | 2026-08-30 06:22:30 | 49.84587 | 8.46554 | 297° | 5km/h | 26419m | 6.4m/s | -50°C | 0.5% | 21.5hPa | 2.7V | 03:25:35 | 01:52:31 | 00:00:00 | |
| BIOWL1-15 | 2026-08-30 06:22:29 | 49.84586 | 8.46555 | 299° | 4km/h | 26414m | 5m/s | -50°C | 0.5% | 21.6hPa | 2.6V | 03:25:35 | 01:52:30 | 00:00:00 | |
| AA1-15 | 2026-08-30 06:22:26 | 49.84583 | 8.46563 | 309° | 13km/h | 26398m | 6.5m/s | -50°C | 0.5% | 21.6hPa | 2.7V | 03:25:35 | 01:52:27 | 00:00:00 | |
| DL8OAI-8 | 2026-08-30 06:22:25 | 49.84583 | 8.46563 | 310° | 13km/h | 26399m | 6.5m/s | -50.0°C | 1.0% | 21.6hPa | 2.6V | 03:25:00 | 00:00:00 | 00:00:00 | |
| DL1XH1-15 | 2026-08-30 06:22:24 | 49.84570 | 8.46581 | 334° | 9km/h | 26370m | 5m/s | -50.1°C | 3.4% | 21.7hPa | 2.6V | 03:25:25 | 01:52:22 | 00:00:00 | |
| HSKMA3-T | 2026-08-30 06:22:23 | 49.84575 | 8.46576 | 321° | 15km/h | 26382m | 5.9m/s | -50.1°C | 0.4% | 21.6hPa | 2.6V | 03:25:35 | 01:52:24 | 00:00:00 | |
| DL1XH-west | 2026-08-30 06:22:20 | 49.84568 | 8.46582 | 329° | 9km/h | 26365m | 5m/s | -50.1°C | 0.5% | 21.7hPa | 2.7V | 03:25:35 | 01:52:21 | 00:00:00 | |
| BIOWL1-15 | 2026-08-30 06:22:18 | 49.84564 | 8.46588 | 306° | 13km/h | 26354m | 5.6m/s | -50°C | 0.5% | 21.7hPa | 2.6V | 03:25:35 | 01:52:19 | 00:00:00 | |
| AA1-15 | 2026-08-30 06:22:15 | 49.84561 | 8.46600 | 268° | 7km/h | 26338m | 6.2m/s | -50.2°C | 0.5% | 21.8hPa | 2.7V | 03:25:35 | 01:52:16 | 00:00:00 | |
| DL1XH1-15 | 2026-08-30 06:22:14 | 49.84563 | 8.46610 | 272° | 9km/h | 26316m | 6.2m/s | -50°C | 3.4% | 21.9hPa | 2.7V | 03:25:35 | 01:52:12 | 00:00:00 | |
| HSKMA3-T | 2026-08-30 06:22:12 | 49.84563 | 8.46607 | 248° | 7km/h | 26321m | 5.2m/s | -50°C | 0.4% | 21.9hPa | 2.6V | 03:25:35 | 01:52:13 | 00:00:00 | |
| BIOWL1-15 | 2026-08-30 06:22:09 | 49.84557 | 8.46631 | 305° | 15km/h | 26294m | 6m/s | -50.2°C | 0.5% | 21.9hPa | 2.6V | 03:26:26 | 01:52:08 | 00:00:00 | |
| DL1XH-west | 2026-08-30 06:22:09 | 49.84561 | 8.46620 | 298° | 16km/h | 26304m | 4.6m/s | -50.1°C | 0.5% | 21.9hPa | 2.7V | 03:26:26 | 01:52:10 | 00:00:00 | |
| DL8DAS-14 | 2026-08-30 06:22:09 | 49.84559 | 8.46626 | 302° | 16km/h | 26300m | 4.6m/s | -50.2°C | 1.0% | 21.9hPa | 2.6V | 00:00:00 | 00:00:00 | 00:00:00 | |
| DF3TZ-5 | 2026-08-30 06:22:08 | 49.84559 | 8.46626 | 302° | 16km/h | 26300m | 4.6m/s | -50.2°C | 1.0% | 21.9hPa | 2.6V | 00:00:00 | 00:00:00 | 00:00:00 | |
| DB0NH | 2026-08-30 06:22:07 | 49.84557 | 8.46631 | 306° | 15km/h | 26295m | 6.0m/s | -50.1°C | 3.5% | 21.9hPa | 2.6V | 00:00:00 | 01:52:08 | 00:00:00 | |
| DO3MHA-11 | 2026-08-30 06:22:06 | 49.84555 | 8.46635 | 309° | 13km/h | 26289m | 5.6m/s | -50.1°C | 3.4% | 21.9hPa | 2.6V | 00:00:00 | 01:52:07 | 00:00:00 | |
| KANTATE | 2026-08-30 06:22:05 | 49.84555 | 8.46635 | 309° | 13km/h | 26289m | 5.6m/s | -50.1°C | 1.0% | 22.0hPa | 2.6V | 03:26:00 | 00:00:00 | 00:00:00 | |
| DL1XH1-15 | 2026-08-30 06:22:04 | 49.84549 | 8.46660 | 283° | 18km/h | 26263m | 5.5m/s | -50.3°C | 3.5% | 22.1hPa | 2.6V | 03:25:45 | 01:52:02 | 00:00:00 | |
| AA1-15 | 2026-08-30 06:22:04 | 49.84552 | 8.46643 | 293° | 11km/h | 26279m | 4.4m/s | -50.2°C | 0.5% | 22hPa | 2.7V | 03:26:26 | 01:52:05 | 00:00:00 | |
| HSKMA3-T | 2026-08-30 06:22:01 | 49.84549 | 8.46660 | 284° | 18km/h | 26263m | 5.5m/s | -50.3°C | 0.5% | 22.1hPa | 2.6V | 03:26:26 | 01:52:02 | 00:00:00 | |
| DF8AY | 2026-08-30 06:21:59 | 49.84547 | 8.46672 | 291° | 15km/h | 26252m | 6.2m/s | 0°C | 0% | 0hPa | 2.7V | 18:12:15 | 01:52:00 | 00:00:00 | |
| DL1XH-west | 2026-08-30 06:21:58 | 49.84545 | 8.46676 | 297° | 11km/h | 26246m | 5.6m/s | -50.2°C | 0.5% | 22.1hPa | 2.7V | 03:26:26 | 01:51:59 | 00:00:00 | |
| BIOWL1-15 | 2026-08-30 06:21:57 | 49.84544 | 8.46680 | 291° | 9km/h | 26241m | 4.5m/s | -50.2°C | 0.5% | 22.1hPa | 2.6V | 03:26:26 | 01:51:58 | 00:00:00 | |
| SONDE2-11 | 2026-08-30 06:21:55 | 49.84545 | 8.46693 | 250° | 16km/h | 26225m | 6.0m/s | -50.2°C | 1.0% | 22.2hPa | 2.6V | 00:00:00 | 00:00:00 | 00:00:00 | |
| DL1XH1-15 | 2026-08-30 06:21:54 | 49.84553 | 8.46713 | 223° | 20km/h | 26209m | 6m/s | -50.3°C | 3.4% | 22.2hPa | 2.6V | 03:25:55 | 01:51:52 | 00:00:00 | |
| AA1-15 | 2026-08-30 06:21:53 | 49.84547 | 8.46700 | 243° | 20km/h | 26219m | 5.4m/s | -50.2°C | 0.5% | 22.2hPa | 2.6V | 03:26:26 | 01:51:54 | 00:00:00 | |
| HSKMA3-T | 2026-08-30 06:21:50 | 49.84557 | 8.46718 | 216° | 16km/h | 26203m | 5.6m/s | -50.4°C | 0.5% | 22.3hPa | 2.7V | 03:26:26 | 01:51:51 | 00:00:00 | |
| DL1XH-west | 2026-08-30 06:21:48 | 49.84561 | 8.46724 | 244° | 9km/h | 26193m | 4.4m/s | -50.5°C | 0.6% | 22.3hPa | 2.7V | 03:26:26 | 01:51:49 | 00:00:00 | |
| BIOWL1-15 | 2026-08-30 06:21:47 | 49.84561 | 8.46728 | 272° | 11km/h | 26188m | 6.3m/s | -50.5°C | 0.6% | 22.3hPa | 2.6V | 03:26:26 | 01:51:48 | 00:00:00 | |
| DO3MHA-11 | 2026-08-30 06:21:46 | 49.84561 | 8.46732 | 290° | 15km/h | 26182m | 6.0m/s | -50.5°C | 3.6% | 22.3hPa | 2.7V | 00:00:00 | 01:51:47 | 00:00:00 | |
| KANTATE | 2026-08-30 06:21:45 | 49.84561 | 8.46732 | 291° | 15km/h | 26182m | 6.1m/s | -50.5°C | 1.0% | 22.3hPa | 2.7V | 03:26:00 | 00:00:00 | 00:00:00 | |
| DM0DOS-11 | 2026-08-30 06:21:44 | 49.84552 | 8.46752 | 315° | 13km/h | 26160m | 5.2m/s | -50.4°C | 3.5% | 22.4hPa | 2.7V | 03:26:04 | 01:51:43 | 00:00:00 | |
| AA1-15 | 2026-08-30 06:21:42 | 49.84551 | 8.46752 | 315° | 13km/h | 26160m | 5.3m/s | -50.4°C | 0.6% | 22.4hPa | 2.7V | 03:26:26 | 01:51:43 | 00:00:00 | |
| HSKMA3-T | 2026-08-30 06:21:40 | 49.84549 | 8.46759 | 283° | 9km/h | 26150m | 4.9m/s | -50.4°C | 0.5% | 22.4hPa | 2.6V | 03:26:26 | 01:51:41 | 00:00:00 | |
| DL3AQ-11 | 2026-08-30 06:21:40 | 49.84548 | 8.46763 | 266° | 11km/h | 26145m | 6.5m/s | -50.4°C | 1.0% | 22.5hPa | 2.6V | 00:00:00 | 00:00:00 | 00:00:00 | |
| AU51GT2 | 2026-08-30 06:21:39 | 49.84549 | 8.46769 | 253° | 15km/h | 26138m | 5.7m/s | -50.5°C | 1.0% | 22.5hPa | 2.6V | 00:00:00 | 00:00:00 | 00:00:00 | |
| DL8DAS-14 | 2026-08-30 06:21:38 | 49.84551 | 8.46775 | 242° | 16km/h | 26133m | 4.9m/s | -50.5°C | 1.0% | 22.5hPa | 2.6V | 00:00:00 | 00:00:00 | 00:00:00 | |
| DM0DOS-11 | 2026-08-30 06:21:37 | 49.84563 | 8.46788 | 172° | 5km/h | 26105m | 4.9m/s | -50.4°C | 3.5% | 22.6hPa | 2.6V | 03:26:14 | 01:51:33 | 00:00:00 | |
| DL1XH-west | 2026-08-30 06:21:37 | 49.84551 | 8.46775 | 243° | 18km/h | 26133m | 4.9m/s | -50.5°C | 0.6% | 22.5hPa | 2.7V | 03:26:26 | 01:51:38 | 00:00:00 | |
| DB0NH | 2026-08-30 06:21:37 | 49.84551 | 8.46775 | 243° | 9km/h | 26133m | 4.9m/s | -50.4°C | 3.5% | 22.4hPa | 2.7V | 00:00:00 | 01:51:38 | 00:00:00 | |
| DL1XH1-15 | 2026-08-30 06:21:36 | 49.84564 | 8.46788 | 211° | 4km/h | 26100m | 5.8m/s | -50.4°C | 3.5% | 22.6hPa | 2.6V | 03:26:15 | 01:51:32 | 00:00:00 | |
| BIOWL1-15 | 2026-08-30 06:21:36 | 49.84553 | 8.46781 | 233° | 16km/h | 26128m | 5.2m/s | -50.5°C | 0.5% | 22.5hPa | 2.6V | 03:26:26 | 01:51:37 | 00:00:00 | |
| AA1-15 | 2026-08-30 06:21:31 | 49.84564 | 8.46788 | 212° | 4km/h | 26100m | 5.8m/s | -50.4°C | 0.5% | 22.6hPa | 2.6V | 03:26:26 | 01:51:32 | 00:00:00 | |
| HSKMA3-T | 2026-08-30 06:21:29 | 49.84564 | 8.46793 | 288° | 9km/h | 26088m | 5.2m/s | -50.2°C | 0.5% | 22.7hPa | 2.7V | 03:26:26 | 01:51:30 | 00:00:00 | |
| DM3KS-11 | 2026-08-30 06:21:29 | 49.84563 | 8.46797 | 287° | 9km/h | 26083m | 4.6m/s | -50.3°C | 0.9% | 22.7hPa | 2.7V | 00:00:00 | 00:00:00 | 00:00:00 | |
| DL1XH-15 | 2026-08-30 06:21:28 | 49.84565 | 8.46815 | 242° | 13km/h | 26056m | 6.5m/s | -50.4°C | 3.4% | 22.8hPa | 2.7V | 03:26:23 | 01:51:24 | 00:00:00 | |
| BIOWL1-15 | 2026-08-30 06:21:27 | 49.84563 | 8.46807 | 250° | 9km/h | 26067m | 5m/s | -50.5°C | 0.4% | 22.8hPa | 2.6V | 03:26:26 | 01:51:26 | 00:00:00 | |
| DL1XH-west | 2026-08-30 06:21:27 | 49.84563 | 8.46800 | 283° | 9km/h | 26078m | 5.9m/s | -50.4°C | 0.4% | 22.7hPa | 2.7V | 03:26:26 | 01:51:28 | 00:00:00 | |
| DL1XH1-15 | 2026-08-30 06:21:26 | 49.84569 | 8.46824 | 228° | 11km/h | 26045m | 4m/s | -50.4°C | 3.4% | 22.8hPa | 2.7V | 03:26:25 | 01:51:22 | 00:00:00 | |
| AA1-15 | 2026-08-30 06:21:20 | 49.84571 | 8.46826 | 206° | 7km/h | 26041m | 5.7m/s | -50.5°C | 0.5% | 22.8hPa | 2.6V | 03:26:26 | 01:51:21 | 00:00:00 | |
| DC4HF-4 | 2026-08-30 06:21:19 | 49.84574 | 8.46824 | 123° | 7km/h | 26029m | 5.1m/s | -50.6°C | 1.0% | 22.9hPa | 2.6V | 00:00:00 | 00:00:00 | 00:00:00 | |
| DL1XH-15 | 2026-08-30 06:21:18 | 49.84574 | 8.46820 | 263° | 5km/h | 26002m | 4.9m/s | -51°C | 3.7% | 23hPa | 2.6V | 03:26:33 | 01:51:14 | 00:00:00 | |
| HSKMA3-T | 2026-08-30 06:21:18 | 49.84574 | 8.46824 | 123° | 9km/h | 26029m | 5.1m/s | -50.6°C | 0.5% | 22.9hPa | 2.6V | 03:27:17 | 01:51:19 | 00:00:00 | |
| DL1XH-west | 2026-08-30 06:21:17 | 49.84575 | 8.46821 | 106° | 9km/h | 26024m | 4.3m/s | -50.6°C | 0.5% | 22.9hPa | 2.7V | 03:27:17 | 01:51:18 | 00:00:00 | |
| DL1XH1-15 | 2026-08-30 06:21:16 | 49.84576 | 8.46825 | 211° | 9km/h | 25992m | 6.1m/s | -51°C | 3.6% | 23hPa | 2.7V | 03:26:35 | 01:51:12 | 00:00:00 | |
| BIOWL1-15 | 2026-08-30 06:21:14 | 49.84574 | 8.46818 | 289° | 4km/h | 26007m | 5.1m/s | -50.9°C | 0.6% | 22.9hPa | 2.6V | 03:27:17 | 01:51:15 | 00:00:00 | |
| AA1-15 | 2026-08-30 06:21:09 | 49.84583 | 8.46827 | 187° | 16km/h | 25981m | 4.3m/s | -51.1°C | 0.6% | 23.1hPa | 2.6V | 03:27:17 | 01:51:10 | 00:00:00 | |
| HSKMA3-T | 2026-08-30 06:21:08 | 49.84587 | 8.46828 | 189° | 16km/h | 25977m | 4.7m/s | -51.2°C | 0.6% | 23hPa | 2.6V | 03:27:17 | 01:51:09 | 00:00:00 | |
| DL8DAS-14 | 2026-08-30 06:21:07 | 49.84594 | 8.46831 | 197° | 9km/h | 25966m | 5.2m/s | -51.0°C | 1.0% | 23.1hPa | 2.6V | 00:00:00 | 00:00:00 | 00:00:00 | |
| DL1XH1-15 | 2026-08-30 06:21:06 | 49.84590 | 8.46819 | 41° | 16km/h | 25939m | 4.7m/s | -51.1°C | 3.6% | 23.2hPa | 2.6V | 03:26:45 | 01:51:02 | 00:00:00 | |
| DL1XH-west | 2026-08-30 06:21:06 | 49.84594 | 8.46831 | 197° | 11km/h | 25966m | 5.2m/s | -51°C | 0.5% | 23.1hPa | 2.7V | 03:27:17 | 01:51:07 | 00:00:00 | |
| BIOWL1-15 | 2026-08-30 06:21:03 | 49.84595 | 8.46828 | 56° | 11km/h | 25950m | 6.8m/s | -51°C | 0.5% | 23.2hPa | 2.6V | 03:27:17 | 01:51:04 | 00:00:00 | |
| HSKMA3-T | 2026-08-30 06:20:58 | 49.84583 | 8.46815 | 288° | 4km/h | 25923m | 4.8m/s | -50.9°C | 0.6% | 23.3hPa | 2.6V | 03:27:17 | 01:50:59 | 00:00:00 | |
| DM3KS-11 | 2026-08-30 06:20:58 | 49.84584 | 8.46817 | 226° | 7km/h | 25919m | 5.1m/s | -50.9°C | 1.0% | 23.3hPa | 2.6V | 00:00:00 | 00:00:00 | 00:00:00 | |
| DM0DOS-11 | 2026-08-30 06:20:57 | 49.84601 | 8.46827 | 203° | 15km/h | 25892m | 5.9m/s | -51.1°C | 3.6% | 23.4hPa | 2.6V | 03:26:54 | 01:50:53 | 00:00:00 | |
| DL1XH-west | 2026-08-30 06:20:56 | 49.84586 | 8.46819 | 207° | 13km/h | 25913m | 6.2m/s | -50.9°C | 0.5% | 23.3hPa | 2.7V | 03:27:17 | 01:50:57 | 00:00:00 | |
| BIOWL1-15 | 2026-08-30 06:20:52 | 49.84601 | 8.46827 | 203° | 15km/h | 25892m | 5.9m/s | -51.1°C | 0.6% | 23.4hPa | 2.6V | 03:27:17 | 01:50:53 | 00:00:00 | |
| DO3DL | 2026-08-30 06:20:51 | 49.84601 | 8.46827 | 204° | 15km/h | 25892m | 5.9m/s | -51.1°C | 1.0% | 23.4hPa | 2.7V | 03:27:00 | 00:00:00 | 00:00:00 | |
| NBG1-10 | 2026-08-30 06:20:50 | 49.84605 | 8.46831 | 230° | 5km/h | 25882m | 4.3m/s | -51.0°C | 3.5% | 23.4hPa | 2.7V | 00:00:00 | 01:50:51 | 00:00:00 | |
| DK5PH-5 | 2026-08-30 06:20:49 | 49.84606 | 8.46832 | 256° | 5km/h | 25877m | 5.1m/s | -51.0°C | 3.5% | 23.4hPa | 2.7V | 00:00:00 | 01:50:50 | 00:00:00 | |
| DL1XH-15 | 2026-08-30 06:20:48 | 49.84603 | 8.46822 | 298° | 4km/h | 25844m | 5.5m/s | -51.4°C | 3.7% | 23.5hPa | 2.7V | 03:27:03 | 01:50:44 | 00:00:00 | |
| AA1-15 | 2026-08-30 06:20:48 | 49.84606 | 8.46831 | 71° | 4km/h | 25871m | 6.4m/s | -51.2°C | 0.5% | 23.4hPa | 2.6V | 03:27:17 | 01:50:49 | 00:00:00 | |
| HSKMA3-T | 2026-08-30 06:20:47 | 49.84605 | 8.46829 | 72° | 7km/h | 25865m | 5.6m/s | -51.3°C | 0.5% | 23.5hPa | 2.6V | 03:27:17 | 01:50:48 | 00:00:00 | |
| DL1XH-west | 2026-08-30 06:20:46 | 49.84605 | 8.46826 | 72° | 9km/h | 25860m | 4.7m/s | -51.3°C | 0.6% | 23.5hPa | 2.6V | 03:27:17 | 01:50:47 | 00:00:00 | |
| EDDB2-11 | 2026-08-30 06:20:45 | 49.84603 | 8.46821 | 31° | 2km/h | 25850m | 5.7m/s | -51.4°C | -1.0% | -1.0hPa | 2.6V | 00:00:00 | 00:00:00 | 00:00:00 | |
| BIOWL1-15 | 2026-08-30 06:20:44 | 49.84602 | 8.46824 | 276° | 7km/h | 25839m | 4.6m/s | -51.3°C | 0.6% | 23.6hPa | 2.6V | 03:27:17 | 01:50:43 | 00:00:00 | |
| DL4BBY-15 | 2026-08-30 06:20:43 | 49.84603 | 8.46821 | 299° | 7km/h | 25845m | 5.5m/s | -52.5°C | 0% | 0hPa | 2.6V | 00:00:00 | 00:00:00 | 00:00:00 | |
| DJTTGO | 2026-08-30 06:20:42 | 49.84603 | 8.46821 | 300° | 4km/h | 25845m | 5.5m/s | -51.4°C | 1.1% | 23.5hPa | 2.6V | 03:27:00 | 00:00:00 | 00:00:00 | |
| DJ2DS-15 | 2026-08-30 06:20:41 | 49.84602 | 8.46827 | 257° | 5km/h | 25835m | 4.4m/s | -51.2°C | 3.6% | 23.5hPa | 2.6V | 00:00:00 | 01:50:42 | 00:00:00 | |
| BIOWL9-15 | 2026-08-30 06:20:40 | 49.84603 | 8.46829 | 230° | 7km/h | 25830m | 6.0m/s | -51.3°C | 1.0% | 23.6hPa | 2.6V | 00:00:00 | 00:00:00 | 00:00:00 | |
| DJ2DS-15 | 2026-08-30 06:20:39 | 49.84607 | 8.46831 | 178° | 11km/h | 25818m | 5.2m/s | -51.2°C | 1.0% | 23.6hPa | 2.6V | 00:00:00 | 00:00:00 | 00:00:00 | |
| DL1XH-15 | 2026-08-30 06:20:38 | 49.84617 | 8.46833 | 234° | 4km/h | 25791m | 5m/s | -51.4°C | 3.7% | 23.7hPa | 2.6V | 03:27:13 | 01:50:34 | 00:00:00 | |
| HSKMA3-T | 2026-08-30 06:20:37 | 49.84610 | 8.46831 | 172° | 11km/h | 25813m | 4.8m/s | -51.2°C | 0.6% | 23.7hPa | 2.6V | 03:27:17 | 01:50:38 | 00:00:00 | |
| DL1XH-west | 2026-08-30 06:20:35 | 49.84615 | 8.46830 | 187° | 7km/h | 25802m | 6.1m/s | -51.4°C | 0.6% | 23.7hPa | 2.7V | 03:27:17 | 01:50:36 | 00:00:00 | |
| BIOWL1-15 | 2026-08-30 06:20:34 | 49.84618 | 8.46834 | 225° | 4km/h | 25786m | 4.8m/s | -51.4°C | 0.6% | 23.8hPa | 2.6V | 03:27:17 | 01:50:33 | 00:00:00 | |
| DB0UT-7 | 2026-08-30 06:20:34 | 49.84616 | 8.46831 | 217° | 9km/h | 25797m | 5.5m/s | -51.4°C | 3.7% | 23.7hPa | 2.6V | 00:00:00 | 00:00:00 | 00:00:00 | |
| DF1GD-15 | 2026-08-30 06:20:33 | 49.84616 | 8.46831 | 217° | 5km/h | 25797m | 5.6m/s | -51.4°C | 1.1% | 23.7hPa | 2.6V | 03:27:00 | 00:00:00 | 00:00:00 | |
| DJ2KF-10 | 2026-08-30 06:20:32 | 49.84618 | 8.46834 | 226° | 9km/h | 25786m | 4.8m/s | -51.3°C | 3.7% | 23.7hPa | 2.6V | 00:00:00 | 01:50:33 | 00:00:00 | |
| DB0UT-9 | 2026-08-30 06:20:30 | 49.84618 | 8.46834 | 160° | 4km/h | 25781m | 5.9m/s | -51.4°C | 1.1% | 23.8hPa | 2.7V | 03:27:00 | 00:00:00 | 00:00:00 | |
| DL1XH-15 | 2026-08-30 06:20:28 | 49.84621 | 8.46821 | 167° | 4km/h | 25739m | 6.3m/s | -51.6°C | 3.6% | 23.9hPa | 2.7V | 03:27:23 | 01:50:24 | 00:00:00 | |
| HSKMA3-T | 2026-08-30 06:20:26 | 49.84620 | 8.46822 | 57° | 4km/h | 25755m | 5.8m/s | -51.7°C | 0.6% | 23.9hPa | 2.6V | 03:28:08 | 01:50:27 | 00:00:00 | |
| BIOWL1-15 | 2026-08-30 06:20:26 | 49.84622 | 8.46820 | 153° | 7km/h | 25733m | 5.6m/s | -51.5°C | 0.6% | 23.9hPa | 2.6V | 03:28:08 | 01:50:23 | 00:00:00 | |
| DL1XH-west | 2026-08-30 06:20:25 | 49.84620 | 8.46821 | 39° | 2km/h | 25749m | 4.9m/s | -51.6°C | 0.6% | 23.9hPa | 2.6V | 03:28:08 | 01:50:26 | 00:00:00 | |
| KANTATE | 2026-08-30 06:20:23 | 49.84620 | 8.46821 | 0° | 0km/h | 25745m | 4.7m/s | -51.6°C | 1.0% | 23.9hPa | 2.6V | 00:00:00 | 00:00:00 | 00:00:00 | |
| CB1BUN | 2026-08-30 06:20:22 | 49.84621 | 8.46821 | 169° | 4km/h | 25739m | 6.3m/s | -51.6°C | 1.0% | 23.9hPa | 2.6V | 03:28:00 | 00:00:00 | 00:00:00 | |
| DJ2DS-15 | 2026-08-30 06:20:21 | 49.84623 | 8.46818 | 140° | 13km/h | 25728m | 4.3m/s | -51.4°C | 3.6% | 23.9hPa | 2.6V | 03:27:00 | 01:50:22 | 00:00:00 | |
| DK5PH-5 | 2026-08-30 06:20:19 | 49.84624 | 8.46814 | 75° | 15km/h | 25719m | 5.8m/s | -51.4°C | 3.7% | 24.0hPa | 2.7V | 00:00:00 | 01:50:20 | 00:00:00 | |
| DL1XH-15 | 2026-08-30 06:20:18 | 49.84618 | 8.46795 | 102° | 15km/h | 25686m | 5.1m/s | -51.7°C | 3.8% | 24.1hPa | 2.7V | 03:27:33 | 01:50:14 | 00:00:00 | |
| NBG1-10 | 2026-08-30 06:20:17 | 49.84621 | 8.46810 | 36° | 16km/h | 25708m | 4.6m/s | -51.4°C | 3.7% | 24.0hPa | 2.6V | 00:00:00 | 01:50:18 | 00:00:00 | |
| DL1XH1-15 | 2026-08-30 06:20:16 | 49.84620 | 8.46785 | 103° | 11km/h | 25676m | 6m/s | -51.8°C | 3.7% | 24.2hPa | 2.6V | 03:27:35 | 01:50:12 | 00:00:00 | |
| HSKMA3-T | 2026-08-30 06:20:16 | 49.84619 | 8.46808 | 45° | 11km/h | 25703m | 4.8m/s | -51.5°C | 0.7% | 24.1hPa | 2.6V | 03:28:08 | 01:50:17 | 00:00:00 | |
| DL1XH-west | 2026-08-30 06:20:15 | 49.84618 | 8.46804 | 66° | 11km/h | 25698m | 5.7m/s | -51.6°C | 0.6% | 24.1hPa | 2.7V | 03:28:08 | 01:50:16 | 00:00:00 | |
| BIOWL1-15 | 2026-08-30 06:20:14 | 49.84619 | 8.46790 | 108° | 13km/h | 25682m | 4.8m/s | -51.8°C | 0.7% | 24.1hPa | 2.6V | 03:28:08 | 01:50:13 | 00:00:00 | |
| DL4BBY-15 | 2026-08-30 06:20:13 | 49.84618 | 8.46795 | 103° | 18km/h | 25686m | 5.1m/s | -52.8°C | 0% | 0hPa | 2.7V | 00:00:00 | 00:00:00 | 00:00:00 | |
| DO1YAY-16 | 2026-08-30 06:20:12 | 49.84619 | 8.46790 | 107° | 13km/h | 25682m | 4.8m/s | -51.8°C | 1.1% | 24.1hPa | 2.7V | 00:00:00 | 00:00:00 | 00:00:00 | |
| DO3DL | 2026-08-30 06:20:11 | 49.84619 | 8.46790 | 109° | 13km/h | 25682m | 4.8m/s | -51.8°C | 1.1% | 24.1hPa | 2.7V | 03:28:00 | 00:00:00 | 00:00:00 | |
| DB0UT-9 | 2026-08-30 06:20:10 | 49.84619 | 8.46785 | 105° | 11km/h | 25676m | 6.0m/s | -51.8°C | 1.1% | 24.2hPa | 2.7V | 03:28:00 | 00:00:00 | 00:00:00 | |
| BIOWL9-15 | 2026-08-30 06:20:09 | 49.84620 | 8.46777 | 86° | 9km/h | 25665m | 4.7m/s | -51.7°C | 1.0% | 24.2hPa | 2.7V | 00:00:00 | 00:00:00 | 00:00:00 | |
| DL1XH-15 | 2026-08-30 06:20:08 | 49.84616 | 8.46742 | 59° | 22km/h | 25633m | 6.2m/s | -51.6°C | 3.6% | 24.3hPa | 2.7V | 03:27:43 | 01:50:04 | 00:00:00 | |
| DC4HF-4 | 2026-08-30 06:20:07 | 49.84620 | 8.46763 | 87° | 15km/h | 25649m | 5.6m/s | -51.6°C | 1.0% | 24.3hPa | 2.6V | 00:00:00 | 00:00:00 | 00:00:00 | |
| DL1XH1-15 | 2026-08-30 06:20:06 | 49.84610 | 8.46727 | 56° | 24km/h | 25623m | 4.7m/s | -51.7°C | 3.7% | 24.4hPa | 2.6V | 03:27:45 | 01:50:02 | 00:00:00 | |
| HSKMA3-T | 2026-08-30 06:20:05 | 49.84619 | 8.46756 | 81° | 18km/h | 25644m | 4.5m/s | -51.6°C | 0.6% | 24.3hPa | 2.6V | 03:28:08 | 01:50:06 | 00:00:00 | |
| DL1XH-west | 2026-08-30 06:20:04 | 49.84618 | 8.46749 | 70° | 20km/h | 25639m | 5.3m/s | -51.6°C | 0.6% | 24.3hPa | 2.6V | 03:28:08 | 01:50:05 | 00:00:00 | |
| BIOWL1-15 | 2026-08-30 06:20:03 | 49.84609 | 8.46727 | 56° | 24km/h | 25623m | 4.7m/s | -51.7°C | 0.7% | 24.4hPa | 2.6V | 03:28:08 | 01:50:02 | 00:00:00 | |
| DJ2KF-10 | 2026-08-30 06:20:02 | 49.84613 | 8.46735 | 54° | 18km/h | 25628m | 5.0m/s | -51.6°C | 3.6% | 24.3hPa | 2.7V | 00:00:00 | 01:50:03 | 00:00:00 | |
| DJ2DS-15 | 2026-08-30 06:20:01 | 49.84609 | 8.46727 | 57° | 18km/h | 25623m | 4.6m/s | -51.7°C | 3.7% | 24.3hPa | 2.7V | 00:00:00 | 01:50:02 | 00:00:00 | |
| DL1XH-15 | 2026-08-30 06:19:57 | 49.84596 | 8.46680 | 36° | 13km/h | 25577m | 4.9m/s | -51.9°C | 3.9% | 24.6hPa | 2.7V | 03:27:54 | 01:49:53 | 00:00:00 | |
| DL1XH1-15 | 2026-08-30 06:19:56 | 49.84594 | 8.46676 | 52° | 15km/h | 25572m | 5.7m/s | -51.9°C | 3.8% | 24.6hPa | 2.7V | 03:27:55 | 01:49:52 | 00:00:00 | |
| HSKMA3-T | 2026-08-30 06:19:54 | 49.84601 | 8.46685 | 36° | 9km/h | 25586m | 4.9m/s | -51.8°C | 0.8% | 24.5hPa | 2.6V | 03:28:08 | 01:49:55 | 00:00:00 | |
| DL1XH-west | 2026-08-30 06:19:53 | 49.84599 | 8.46683 | 29° | 11km/h | 25582m | 4.2m/s | -51.9°C | 0.7% | 24.5hPa | 2.6V | 03:28:08 | 01:49:54 | 00:00:00 | |
| BIOWL1-15 | 2026-08-30 06:19:51 | 49.84594 | 8.46676 | 52° | 15km/h | 25572m | 5.7m/s | -51.9°C | 0.7% | 24.6hPa | 2.7V | 03:28:08 | 01:49:52 | 00:00:00 | |
| SONDE2-11 | 2026-08-30 06:19:50 | 49.84592 | 8.46671 | 63° | 18km/h | 25566m | 5.5m/s | -51.8°C | 1.1% | 24.6hPa | 2.6V | 00:00:00 | 00:00:00 | 00:00:00 | |
| DK5PH-5 | 2026-08-30 06:19:49 | 49.84589 | 8.46663 | 69° | 22km/h | 25561m | 4.8m/s | -51.8°C | 3.7% | 24.6hPa | 2.6V | 03:27:00 | 01:49:50 | 00:00:00 | |
| DL1XH-15 | 2026-08-30 06:19:47 | 49.84564 | 8.46611 | 45° | 16km/h | 25525m | 5.7m/s | -51.7°C | 3.6% | 24.8hPa | 2.6V | 03:28:04 | 01:49:43 | 00:00:00 | |
| BIOWL1-15 | 2026-08-30 06:19:44 | 49.84559 | 8.46603 | 39° | 13km/h | 25515m | 4.5m/s | -51.6°C | 0.6% | 24.8hPa | 2.7V | 03:28:08 | 01:49:41 | 00:00:00 | |
| HSKMA3-T | 2026-08-30 06:19:44 | 49.84571 | 8.46621 | 41° | 24km/h | 25536m | 4.6m/s | -51.8°C | 0.6% | 24.7hPa | 2.6V | 03:28:08 | 01:49:45 | 00:00:00 | |
| DL1XH-west | 2026-08-30 06:19:43 | 49.84567 | 8.46616 | 42° | 20km/h | 25531m | 5.5m/s | -51.8°C | 0.6% | 24.7hPa | 2.6V | 03:28:08 | 01:49:44 | 00:00:00 | |
| DL4BBY-15 | 2026-08-30 06:19:43 | 49.84567 | 8.46616 | 42° | 20km/h | 25531m | 5.5m/s | -52.9°C | 0% | 0hPa | 2.7V | 00:00:00 | 00:00:00 | 00:00:00 | |
| DM0DOS-11 | 2026-08-30 06:19:42 | 49.84561 | 8.46606 | 47° | 15km/h | 25520m | 4.8m/s | -51.6°C | 3.6% | 24.8hPa | 2.7V | 03:28:05 | 01:49:42 | 00:00:00 | |
| AA1-15 | 2026-08-30 06:19:42 | 49.84564 | 8.46611 | 45° | 16km/h | 25525m | 5.7m/s | -51.7°C | 0.6% | 24.8hPa | 2.6V | 03:28:59 | 01:49:43 | 00:00:00 | |
| DD1CC8 | 2026-08-30 06:19:42 | 49.84561 | 8.46606 | 47° | 13km/h | 25520m | 4.8m/s | -51.6°C | 1.0% | 24.8hPa | 2.6V | 00:00:00 | 00:00:00 | 00:00:00 | |
| DO1YAY-16 | 2026-08-30 06:19:41 | 49.84559 | 8.46603 | 39° | 13km/h | 25516m | 4.5m/s | -51.6°C | 1.0% | 24.8hPa | 2.6V | 00:00:00 | 00:00:00 | 00:00:00 | |
| DL3AQ-11 | 2026-08-30 06:19:40 | 49.84559 | 8.46603 | 39° | 13km/h | 25516m | 4.5m/s | -51.6°C | 1.0% | 24.8hPa | 2.6V | 00:00:00 | 00:00:00 | 00:00:00 | |
| BIOWL9-15 | 2026-08-30 06:19:38 | 49.84552 | 8.46598 | 15° | 16km/h | 25505m | 6.2m/s | -51.6°C | 1.0% | 24.8hPa | 2.6V | 00:00:00 | 00:00:00 | 00:00:00 | |
| DL1XH-15 | 2026-08-30 06:19:37 | 49.84528 | 8.46583 | 37° | 16km/h | 25475m | 4.2m/s | -51.8°C | 3.7% | 24.9hPa | 2.6V | 03:28:14 | 01:49:33 | 00:00:00 | |
| HSKMA3-T | 2026-08-30 06:19:33 | 49.84531 | 8.46587 | 37° | 16km/h | 25479m | 4.7m/s | -51.8°C | 0.7% | 24.9hPa | 2.7V | 03:28:59 | 01:49:34 | 00:00:00 | |
| DM0DOS-11 | 2026-08-30 06:19:32 | 49.84524 | 8.46579 | 33° | 20km/h | 25471m | 5.1m/s | -51.8°C | 3.7% | 24.9hPa | 2.6V | 03:28:15 | 01:49:32 | 00:00:00 | |
| DL1XH-west | 2026-08-30 06:19:32 | 49.84527 | 8.46583 | 38° | 16km/h | 25475m | 4.2m/s | -51.8°C | 0.7% | 24.9hPa | 2.6V | 03:28:59 | 01:49:33 | 00:00:00 | |
| AA1-15 | 2026-08-30 06:19:31 | 49.84524 | 8.46579 | 33° | 20km/h | 25471m | 5.1m/s | -51.8°C | 0.7% | 24.9hPa | 2.6V | 03:28:59 | 01:49:32 | 00:00:00 | |
| BIOWL1-15 | 2026-08-30 06:19:31 | 49.84513 | 8.46571 | 21° | 27km/h | 25459m | 5.7m/s | -51.9°C | 0.7% | 25hPa | 2.7V | 03:28:59 | 01:49:30 | 00:00:00 | |
| DJ2KF-10 | 2026-08-30 06:19:30 | 49.84519 | 8.46575 | 27° | 22km/h | 25465m | 5.8m/s | -51.8°C | 3.7% | 24.9hPa | 2.6V | 03:28:00 | 01:49:31 | 00:00:00 | |
| DB0UT-9 | 2026-08-30 06:19:28 | 49.84513 | 8.46571 | 22° | 27km/h | 25460m | 5.7m/s | -51.9°C | 1.1% | 25.0hPa | 2.6V | 03:28:00 | 00:00:00 | 00:00:00 | |
| DL1XH-15 | 2026-08-30 06:19:27 | 49.84472 | 8.46546 | 24° | 24km/h | 25424m | 5.7m/s | -52°C | 3.8% | 25.1hPa | 2.6V | 03:28:24 | 01:49:23 | 00:00:00 | |
| HSKMA3-T | 2026-08-30 06:19:23 | 49.84478 | 8.46550 | 27° | 22km/h | 25429m | 4.5m/s | -52°C | 0.8% | 25.1hPa | 2.6V | 03:28:59 | 01:49:24 | 00:00:00 | |
| DM0DOS-11 | 2026-08-30 06:19:22 | 49.84467 | 8.46543 | 19° | 27km/h | 25418m | 5.6m/s | -52°C | 3.8% | 25.2hPa | 2.6V | 03:28:25 | 01:49:22 | 00:00:00 | |
| AA1-15 | 2026-08-30 06:19:21 | 49.84466 | 8.46543 | 20° | 27km/h | 25418m | 5.6m/s | -52°C | 0.7% | 25.2hPa | 2.6V | 03:28:59 | 01:49:22 | 00:00:00 | |
| BIOWL1-15 | 2026-08-30 06:19:19 | 49.84454 | 8.46537 | 11° | 24km/h | 25409m | 4.6m/s | -52°C | 0.7% | 25.2hPa | 2.7V | 03:28:59 | 01:49:20 | 00:00:00 | |
| DK5PH-5 | 2026-08-30 06:19:19 | 49.84454 | 8.46537 | 12° | 20km/h | 25409m | 4.5m/s | -51.9°C | 3.7% | 25.1hPa | 2.7V | 00:00:00 | 01:49:20 | 00:00:00 | |
| DL1XH-15 | 2026-08-30 06:19:17 | 49.84426 | 8.46532 | 11° | 20km/h | 25371m | 4.8m/s | -51.8°C | 3.7% | 25.3hPa | 2.6V | 03:28:34 | 01:49:13 | 00:00:00 | |
| DO3MHA-11 | 2026-08-30 06:19:16 | 49.84440 | 8.46534 | 2° | 16km/h | 25392m | 5.1m/s | -51.8°C | 3.7% | 25.2hPa | 2.6V | 00:00:00 | 01:49:17 | 00:00:00 | |
| DL0LBS | 2026-08-30 06:19:14 | 49.84438 | 8.46534 | 1° | 11km/h | 25387m | 4.6m/s | -51.8°C | 1.1% | 25.3hPa | 2.6V | 03:28:00 | 00:00:00 | 00:00:00 | |
| DL4BBY-15 | 2026-08-30 06:19:13 | 49.84430 | 8.46534 | 10° | 20km/h | 25376m | 5.7m/s | -52.9°C | 0% | 0hPa | 2.6V | 00:00:00 | 00:00:00 | 00:00:00 | |
| DM0DOS-11 | 2026-08-30 06:19:12 | 49.84421 | 8.46531 | 13° | 22km/h | 25367m | 4.3m/s | -51.8°C | 3.7% | 25.4hPa | 2.6V | 03:28:35 | 01:49:12 | 00:00:00 | |
| HSKMA3-T | 2026-08-30 06:19:12 | 49.84426 | 8.46532 | 12° | 20km/h | 25371m | 4.8m/s | -51.8°C | 0.6% | 25.3hPa | 2.6V | 03:28:59 | 01:49:13 | 00:00:00 | |
| DL1XH-west | 2026-08-30 06:19:10 | 49.84416 | 8.46529 | 15° | 20km/h | 25362m | 5.5m/s | -51.8°C | 0.6% | 25.4hPa | 2.7V | 03:28:59 | 01:49:11 | 00:00:00 | |
| BIOWL1-15 | 2026-08-30 06:19:09 | 49.84411 | 8.46527 | 11° | 18km/h | 25356m | 5.8m/s | -51.9°C | 0.7% | 25.4hPa | 2.7V | 03:28:59 | 01:49:10 | 00:00:00 | |
| DL8DAS-15 | 2026-08-30 06:19:08 | 49.84411 | 8.46527 | 12° | 18km/h | 25357m | 5.8m/s | -51.9°C | 1.1% | 25.4hPa | 2.6V | 03:28:00 | 00:00:00 | 00:00:00 | |
| DL1XH-15 | 2026-08-30 06:19:07 | 49.84375 | 8.46535 | 338° | 20km/h | 25321m | 5.7m/s | -51.9°C | 3.7% | 25.5hPa | 2.6V | 03:28:44 | 01:49:03 | 00:00:00 | |
| DB0NH | 2026-08-30 06:19:07 | 49.84403 | 8.46526 | 358° | 20km/h | 25346m | 4.8m/s | -51.8°C | 3.7% | 25.4hPa | 2.6V | 00:00:00 | 01:49:08 | 00:00:00 | |
| DO3MHA-11 | 2026-08-30 06:19:06 | 49.84398 | 8.46527 | 353° | 18km/h | 25341m | 5.5m/s | -51.8°C | 3.7% | 25.4hPa | 2.6V | 00:00:00 | 01:49:07 | 00:00:00 | |
| DB0UT-7 | 2026-08-30 06:19:04 | 49.84386 | 8.46530 | 348° | 22km/h | 25330m | 4.4m/s | -51.8°C | 3.7% | 25.5hPa | 2.6V | 00:00:00 | 01:49:05 | 00:00:00 | |
| DO3DL | 2026-08-30 06:19:03 | 49.84386 | 8.46530 | 348° | 26km/h | 25330m | 4.4m/s | -51.9°C | 1.1% | 25.5hPa | 2.6V | 03:28:00 | 00:00:00 | 00:00:00 | |
| DM0DOS-11 | 2026-08-30 06:19:02 | 49.84372 | 8.46538 | 329° | 16km/h | 25315m | 5.8m/s | -52°C | 3.7% | 25.6hPa | 2.6V | 03:28:45 | 01:49:02 | 00:00:00 | |
| HSKMA3-T | 2026-08-30 06:19:01 | 49.84371 | 8.46538 | 330° | 16km/h | 25315m | 5.8m/s | -52°C | 0.6% | 25.6hPa | 2.6V | 03:28:59 | 01:49:02 | 00:00:00 | |
| DL1XH-west | 2026-08-30 06:19:00 | 49.84368 | 8.46541 | 322° | 13km/h | 25310m | 4.7m/s | -52°C | 0.6% | 25.6hPa | 2.6V | 03:28:59 | 01:49:01 | 00:00:00 | |
| AA1-15 | 2026-08-30 06:18:58 | 49.84363 | 8.46547 | 329° | 15km/h | 25301m | 5.1m/s | -52°C | 0.6% | 25.6hPa | 2.7V | 03:28:59 | 01:48:59 | 00:00:00 | |
| DL1XH-15 | 2026-08-30 06:18:57 | 49.84329 | 8.46556 | 3° | 22km/h | 25268m | 5.2m/s | -52.1°C | 3.8% | 25.8hPa | 2.7V | 03:28:54 | 01:48:53 | 00:00:00 | |
| DM0DOS-11 | 2026-08-30 06:18:56 | 49.84324 | 8.46556 | 0° | 20km/h | 25263m | 4.4m/s | -52.1°C | 3.8% | 25.8hPa | 2.7V | 03:28:55 | 01:48:52 | 00:00:00 | |
| HSKMA3-T | 2026-08-30 06:18:51 | 49.84324 | 8.46556 | 0° | 20km/h | 25263m | 4.4m/s | -52.1°C | 0.8% | 25.8hPa | 2.7V | 03:28:59 | 01:48:52 | 00:00:00 | |
| DL1XH-west | 2026-08-30 06:18:49 | 49.84313 | 8.46559 | 342° | 22km/h | 25253m | 5.9m/s | -52°C | 0.8% | 25.8hPa | 2.6V | 03:28:59 | 01:48:50 | 00:00:00 | |
| SSTOLZ84 | 2026-08-30 06:18:49 | 49.84308 | 8.46562 | 331° | 20km/h | 25247m | 4.7m/s | -52.0°C | 1.1% | 25.9hPa | 2.6V | 00:00:00 | 00:00:00 | 00:00:00 | |
| SONDE2-11 | 2026-08-30 06:18:48 | 49.84308 | 8.46562 | 331° | 20km/h | 25247m | 4.7m/s | -52.0°C | 1.1% | 25.9hPa | 2.6V | 00:00:00 | 00:00:00 | 00:00:00 | |
| DL1XH-15 | 2026-08-30 06:18:47 | 49.84288 | 8.46591 | 318° | 20km/h | 25217m | 6.2m/s | -52.1°C | 3.7% | 26hPa | 2.6V | 03:29:04 | 01:48:43 | 00:00:00 | |
| AA1-15 | 2026-08-30 06:18:47 | 49.84303 | 8.46567 | 323° | 20km/h | 25243m | 4.2m/s | -52.1°C | 0.7% | 25.9hPa | 2.6V | 03:28:59 | 01:48:48 | 00:00:00 | |
| DL1XH1-15 | 2026-08-30 06:18:46 | 49.84284 | 8.46596 | 323° | 24km/h | 25211m | 5.1m/s | -52.1°C | 3.7% | 26hPa | 2.6V | 03:29:05 | 01:48:42 | 00:00:00 | |
| BIOWL1-15 | 2026-08-30 06:18:41 | 49.84264 | 8.46614 | 334° | 20km/h | 25190m | 5m/s | -52°C | 0.8% | 26.1hPa | 2.6V | 03:29:50 | 01:48:38 | 00:00:00 | |
| HSKMA3-T | 2026-08-30 06:18:41 | 49.84284 | 8.46596 | 323° | 24km/h | 25211m | 5.1m/s | -52.1°C | 0.7% | 26hPa | 2.6V | 03:29:50 | 01:48:42 | 00:00:00 | |
| DL1XH-west | 2026-08-30 06:18:39 | 49.84273 | 8.46606 | 332° | 24km/h | 25201m | 5.6m/s | -52.1°C | 0.6% | 26hPa | 2.7V | 03:29:50 | 01:48:40 | 00:00:00 | |
| DO1YAY-16 | 2026-08-30 06:18:39 | 49.84268 | 8.46610 | 334° | 20km/h | 25196m | 5.9m/s | -52.0°C | 1.1% | 26.1hPa | 2.7V | 00:00:00 | 00:00:00 | 00:00:00 | |
| NBG1-10 | 2026-08-30 06:18:38 | 49.84268 | 8.46610 | 335° | 18km/h | 25196m | 5.9m/s | -52.0°C | 3.8% | 26.0hPa | 2.7V | 00:00:00 | 01:48:39 | 00:00:00 | |
| DM0DOS-11 | 2026-08-30 06:18:37 | 49.84240 | 8.46645 | 304° | 18km/h | 25159m | 6.3m/s | -52°C | 3.7% | 26.2hPa | 2.7V | 03:29:15 | 01:48:32 | 00:00:00 | |
| AA1-15 | 2026-08-30 06:18:32 | 49.84243 | 8.46639 | 310° | 22km/h | 25165m | 4.6m/s | -52°C | 0.7% | 26.2hPa | 2.6V | 03:29:50 | 01:48:33 | 00:00:00 | |
| BIOWL1-15 | 2026-08-30 06:18:31 | 49.84234 | 8.46669 | 290° | 22km/h | 25139m | 6m/s | -51.8°C | 0.6% | 26.3hPa | 2.6V | 03:29:50 | 01:48:28 | 00:00:00 | |
| HSKMA3-T | 2026-08-30 06:18:30 | 49.84238 | 8.46650 | 296° | 15km/h | 25154m | 5.4m/s | -52°C | 0.7% | 26.2hPa | 2.7V | 03:29:50 | 01:48:31 | 00:00:00 | |
| DL1XH-west | 2026-08-30 06:18:28 | 49.84235 | 8.46662 | 288° | 18km/h | 25144m | 4.4m/s | -51.8°C | 0.7% | 26.2hPa | 2.6V | 03:29:50 | 01:48:29 | 00:00:00 | |
| DO3MHA-11 | 2026-08-30 06:18:26 | 49.84232 | 8.46677 | 293° | 22km/h | 25134m | 5.7m/s | -51.8°C | 3.7% | 26.3hPa | 2.6V | 00:00:00 | 01:48:27 | 00:00:00 | |
| DM0DOS-11 | 2026-08-30 06:18:24 | 49.84218 | 8.46717 | 301° | 16km/h | 25107m | 4.3m/s | -52°C | 3.8% | 26.4hPa | 2.7V | 03:29:25 | 01:48:22 | 00:00:00 | |
| AA1-15 | 2026-08-30 06:18:22 | 49.84220 | 8.46711 | 302° | 20km/h | 25112m | 5.2m/s | -52°C | 0.7% | 26.4hPa | 2.6V | 03:29:50 | 01:48:23 | 00:00:00 | |
| HSKMA3-T | 2026-08-30 06:18:19 | 49.84213 | 8.46729 | 298° | 18km/h | 25097m | 5.5m/s | -52°C | 0.6% | 26.4hPa | 2.6V | 03:29:50 | 01:48:20 | 00:00:00 | |
| DL1XH-west | 2026-08-30 06:18:17 | 49.84209 | 8.46742 | 294° | 18km/h | 25087m | 4.2m/s | -52°C | 0.7% | 26.5hPa | 2.6V | 03:29:50 | 01:48:18 | 00:00:00 | |
| BIOWL1-15 | 2026-08-30 06:18:16 | 49.84208 | 8.46748 | 292° | 16km/h | 25082m | 4.6m/s | -52°C | 0.7% | 26.5hPa | 2.7V | 03:29:50 | 01:48:17 | 00:00:00 | |
| DM0DOS-11 | 2026-08-30 06:18:14 | 49.84205 | 8.46773 | 278° | 18km/h | 25055m | 5.9m/s | -51.9°C | 3.7% | 26.6hPa | 2.6V | 03:29:35 | 01:48:12 | 00:00:00 | |
| AA1-15 | 2026-08-30 06:18:11 | 49.84205 | 8.46773 | 278° | 18km/h | 25055m | 5.9m/s | -51.9°C | 0.6% | 26.6hPa | 2.6V | 03:29:50 | 01:48:12 | 00:00:00 | |
| HSKMA3-T | 2026-08-30 06:18:09 | 49.84203 | 8.46789 | 278° | 22km/h | 25045m | 4.6m/s | -52°C | 0.7% | 26.7hPa | 2.7V | 03:29:50 | 01:48:10 | 00:00:00 | |
| DL1XH-west | 2026-08-30 06:18:06 | 49.84202 | 8.46810 | 274° | 16km/h | 25029m | 5.2m/s | -52.1°C | 0.6% | 26.7hPa | 2.7V | 03:29:50 | 01:48:07 | 00:00:00 | |
| BIOWL9-15 | 2026-08-30 06:18:06 | 49.84202 | 8.46817 | 273° | 15km/h | 25024m | 5.1m/s | -52.1°C | 1.1% | 26.8hPa | 2.7V | 00:00:00 | 00:00:00 | 00:00:00 | |
| NBG1-10 | 2026-08-30 06:18:05 | 49.84201 | 8.46817 | 274° | 11km/h | 25024m | 5.0m/s | -52.1°C | 3.7% | 26.7hPa | 2.7V | 00:00:00 | 01:48:06 | 00:00:00 | |
| DM0DOS-11 | 2026-08-30 06:18:04 | 49.84201 | 8.46842 | 265° | 13km/h | 25004m | 4.8m/s | -52.1°C | 3.8% | 26.8hPa | 2.7V | 03:29:45 | 01:48:02 | 00:00:00 | |
| HSKMA3-T | 2026-08-30 06:17:58 | 49.84203 | 8.46850 | 211° | 7km/h | 24988m | 4.8m/s | -52.2°C | 0.7% | 26.9hPa | 2.6V | 03:29:50 | 01:47:59 | 00:00:00 | |
| DL1XH-west | 2026-08-30 06:17:56 | 49.84207 | 8.46855 | 242° | 13km/h | 24977m | 5.9m/s | -52.2°C | 0.7% | 26.9hPa | 2.6V | 03:29:50 | 01:47:57 | 00:00:00 | |
| DO3MHA-11 | 2026-08-30 06:17:56 | 49.84206 | 8.46855 | 243° | 13km/h | 24978m | 5.9m/s | -52.1°C | 3.7% | 26.9hPa | 2.6V | 00:00:00 | 01:47:57 | 00:00:00 | |
| DM0DOS-11 | 2026-08-30 06:17:54 | 49.84213 | 8.46884 | 249° | 13km/h | 24951m | 4.6m/s | -52.1°C | 3.7% | 27hPa | 2.7V | 03:29:55 | 01:47:52 | 00:00:00 | |
| HSKMA3-T | 2026-08-30 06:17:48 | 49.84213 | 8.46897 | 286° | 11km/h | 24936m | 5.6m/s | -52.2°C | 0.7% | 27.1hPa | 2.6V | 03:30:41 | 01:47:49 | 00:00:00 | |
| DL1XH-west | 2026-08-30 06:17:46 | 49.84212 | 8.46904 | 294° | 7km/h | 24927m | 4.4m/s | -52.2°C | 0.6% | 27.2hPa | 2.7V | 03:30:41 | 01:47:47 | 00:00:00 | |
| HSKMA3-T | 2026-08-30 06:17:38 | 49.84221 | 8.46920 | 229° | 11km/h | 24885m | 5.8m/s | -52.2°C | 0.7% | 27.3hPa | 2.6V | 03:30:41 | 01:47:39 | 00:00:00 | |
| AA1-15 | 2026-08-30 06:17:37 | 49.84222 | 8.46922 | 224° | 9km/h | 24879m | 5.2m/s | -52.3°C | 0.6% | 27.4hPa | 2.6V | 03:30:41 | 01:47:38 | 00:00:00 | |
| DL1XH-west | 2026-08-30 06:17:36 | 49.84224 | 8.46925 | 232° | 7km/h | 24874m | 4.6m/s | -52.2°C | 0.7% | 27.4hPa | 2.7V | 03:30:41 | 01:47:37 | 00:00:00 | |
| DO3MHA-11 | 2026-08-30 06:17:36 | 49.84224 | 8.46925 | 232° | 5km/h | 24875m | 4.5m/s | -52.2°C | 3.8% | 27.3hPa | 2.7V | 03:30:00 | 01:47:37 | 00:00:00 | |
| DM0DOS-11 | 2026-08-30 06:17:34 | 49.84220 | 8.46935 | 356° | 5km/h | 24849m | 5.7m/s | -52.3°C | 3.8% | 27.5hPa | 2.7V | 03:30:15 | 01:47:32 | 00:00:00 | |
| HSKMA3-T | 2026-08-30 06:17:27 | 49.84221 | 8.46928 | 130° | 4km/h | 24829m | 4.8m/s | -52.4°C | 0.7% | 27.6hPa | 2.6V | 03:30:41 | 01:47:28 | 00:00:00 | |
| AA1-15 | 2026-08-30 06:17:26 | 49.84221 | 8.46928 | 280° | 0km/h | 24824m | 5.5m/s | -52.4°C | 0.8% | 27.6hPa | 2.6V | 03:30:41 | 01:47:27 | 00:00:00 | |
| BIOWL1-15 | 2026-08-30 06:17:25 | 49.84221 | 8.46929 | 298° | 5km/h | 24818m | 5m/s | -52.4°C | 0.7% | 27.6hPa | 2.7V | 03:30:41 | 01:47:26 | 00:00:00 | |
| HSKMA3-T | 2026-08-30 06:17:17 | 49.84214 | 8.46944 | 315° | 9km/h | 24779m | 5.7m/s | -52.4°C | 0.7% | 27.8hPa | 2.6V | 03:30:41 | 01:47:18 | 00:00:00 | |
| AA1-15 | 2026-08-30 06:17:16 | 49.84212 | 8.46947 | 313° | 11km/h | 24774m | 4.6m/s | -52.3°C | 0.6% | 27.8hPa | 2.7V | 03:30:41 | 01:47:17 | 00:00:00 | |
| DL1XH-west | 2026-08-30 06:17:14 | 49.84209 | 8.46952 | 306° | 5km/h | 24765m | 5m/s | -52.5°C | 0.7% | 27.9hPa | 2.7V | 03:30:41 | 01:47:15 | 00:00:00 | |
| HSKMA3-T | 2026-08-30 06:17:06 | 49.84212 | 8.46953 | 291° | 4km/h | 24724m | 5.6m/s | -52.6°C | 0.7% | 28hPa | 2.7V | 03:30:41 | 01:47:07 | 00:00:00 | |
| AA1-15 | 2026-08-30 06:17:05 | 49.84212 | 8.46954 | 265° | 2km/h | 24718m | 5.6m/s | 0°C | 0% | 28.1hPa | 2.7V | 03:30:41 | 01:47:06 | 00:00:00 | |
| DM0DOS-11 | 2026-08-30 06:17:04 | 49.84209 | 8.46956 | 358° | 5km/h | 24698m | 5.2m/s | -52.9°C | 3.9% | 28.1hPa | 2.7V | 03:30:45 | 01:47:02 | 00:00:00 | |
| BIOWL1-15 | 2026-08-30 06:17:03 | 49.84208 | 8.46956 | 22° | 5km/h | 24693m | 4.1m/s | -52.9°C | 0.8% | 28.1hPa | 2.7V | 03:31:32 | 01:47:01 | 00:00:00 | |
| DL1XH-west | 2026-08-30 06:17:03 | 49.84212 | 8.46956 | 322° | 2km/h | 24709m | 4.5m/s | -52.7°C | 0.8% | 28.1hPa | 2.6V | 03:31:32 | 01:47:04 | 00:00:00 | |
| HSKMA3-T | 2026-08-30 06:16:56 | 49.84207 | 8.46947 | 99° | 7km/h | 24673m | 4.5m/s | -53.1°C | 0.8% | 28.2hPa | 2.6V | 03:31:32 | 01:46:57 | 00:00:00 | |
| AA1-15 | 2026-08-30 06:16:55 | 49.84207 | 8.46944 | 79° | 7km/h | 24667m | 6m/s | 0°C | 0% | 28.3hPa | 2.7V | 03:31:32 | 01:46:56 | 00:00:00 | |
| DM0DOS-11 | 2026-08-30 06:16:54 | 49.84203 | 8.46935 | 41° | 5km/h | 24646m | 5m/s | -52.9°C | 3.8% | 28.4hPa | 2.7V | 03:30:55 | 01:46:52 | 00:00:00 | |
| DL1XH-west | 2026-08-30 06:16:52 | 49.84204 | 8.46937 | 46° | 7km/h | 24651m | 5.9m/s | -52.9°C | 0.7% | 28.3hPa | 2.6V | 03:31:32 | 01:46:53 | 00:00:00 | |
| BIOWL1-15 | 2026-08-30 06:16:51 | 49.84203 | 8.46935 | 42° | 5km/h | 24646m | 5m/s | -52.9°C | 0.7% | 28.4hPa | 2.7V | 03:31:32 | 01:46:52 | 00:00:00 | |
| HSKMA3-T | 2026-08-30 06:16:46 | 49.84190 | 8.46936 | 349° | 13km/h | 24621m | 4.6m/s | -52.9°C | 0.8% | 28.4hPa | 2.7V | 03:31:32 | 01:46:47 | 00:00:00 | |
| DO3MHA-11 | 2026-08-30 06:16:46 | 49.84190 | 8.46936 | 350° | 11km/h | 24621m | 4.6m/s | -52.9°C | 3.9% | 28.4hPa | 2.6V | 00:00:00 | 01:46:47 | 00:00:00 | |
| DM7RM-13 | 2026-08-30 06:16:45 | 49.84190 | 8.46936 | 350° | 13km/h | 24621m | 4.6m/s | -52.9°C | 1.2% | 28.5hPa | 2.6V | 03:31:00 | 00:00:00 | 00:00:00 | |
| DM0DOS-11 | 2026-08-30 06:16:44 | 49.84180 | 8.46932 | 32° | 11km/h | 24596m | 5.7m/s | -53°C | 4% | 28.6hPa | 2.6V | 03:31:05 | 01:46:42 | 00:00:00 | |
| AA1-15 | 2026-08-30 06:16:44 | 49.84185 | 8.46937 | 16° | 7km/h | 24610m | 5.5m/s | 0°C | 0% | 0hPa | 2.7V | 03:31:32 | 01:46:45 | 00:00:00 | |
| BIOWL1-15 | 2026-08-30 06:16:42 | 49.84178 | 8.46929 | 24° | 13km/h | 24590m | 5.1m/s | -53.1°C | 0.8% | 28.6hPa | 2.7V | 03:31:32 | 01:46:41 | 00:00:00 | |
| DL1XH-west | 2026-08-30 06:16:41 | 49.84180 | 8.46932 | 33° | 11km/h | 24596m | 5.7m/s | -53°C | 0.8% | 28.6hPa | 2.6V | 03:31:32 | 01:46:42 | 00:00:00 | |
| DJ2DS-15 | 2026-08-30 06:16:41 | 49.84180 | 8.46932 | 33° | 20km/h | 24596m | 5.6m/s | -53.0°C | 4.0% | 28.6hPa | 2.6V | 00:00:00 | 01:46:42 | 00:00:00 | |
| SFWM-10 | 2026-08-30 06:16:40 | 49.84180 | 8.46932 | 34° | 11km/h | 24596m | 5.7m/s | -53.0°C | 1.1% | 28.6hPa | 2.6V | 03:31:00 | 00:00:00 | 00:00:00 | |
| DL1XH-15 | 2026-08-30 06:16:37 | 49.84145 | 8.46922 | 349° | 26km/h | 24549m | 4.5m/s | -52.9°C | 3.9% | 28.8hPa | 2.6V | 03:31:14 | 01:46:33 | 00:00:00 | |
| HSKMA3-T | 2026-08-30 06:16:36 | 49.84164 | 8.46921 | 18° | 15km/h | 24570m | 5.1m/s | -53.2°C | 0.9% | 28.7hPa | 2.7V | 03:31:32 | 01:46:37 | 00:00:00 | |
| AA1-15 | 2026-08-30 06:16:33 | 49.84151 | 8.46921 | 351° | 24km/h | 24554m | 6.3m/s | 0°C | 0% | 0hPa | 2.6V | 03:31:32 | 01:46:34 | 00:00:00 | |
| DL1XH-west | 2026-08-30 06:16:30 | 49.84132 | 8.46925 | 357° | 24km/h | 24539m | 5.9m/s | -53°C | 0.8% | 28.9hPa | 2.7V | 03:31:32 | 01:46:31 | 00:00:00 | |
| BIOWL1-15 | 2026-08-30 06:16:29 | 49.84126 | 8.46925 | 5° | 22km/h | 24533m | 5.2m/s | -53°C | 0.8% | 28.9hPa | 2.7V | 03:31:32 | 01:46:30 | 00:00:00 | |
| AU51GT2 | 2026-08-30 06:16:28 | 49.84121 | 8.46924 | 8° | 22km/h | 24529m | 4.4m/s | -53.0°C | 1.1% | 28.9hPa | 2.6V | 00:00:00 | 00:00:00 | 00:00:00 | |
| DL1XH-15 | 2026-08-30 06:16:27 | 49.84084 | 8.46920 | 1° | 24km/h | 24497m | 4.9m/s | -52.9°C | 4% | 29.1hPa | 2.6V | 03:31:24 | 01:46:23 | 00:00:00 | |
| HSKMA3-T | 2026-08-30 06:16:26 | 49.84109 | 8.46922 | 4° | 26km/h | 24518m | 6.2m/s | -53°C | 0.8% | 28.9hPa | 2.6V | 03:31:32 | 01:46:27 | 00:00:00 | |
| AA1-15 | 2026-08-30 06:16:22 | 49.84084 | 8.46920 | 2° | 24km/h | 24497m | 4.9m/s | 0°C | 0% | 0hPa | 2.6V | 03:31:32 | 01:46:23 | 00:00:00 | |
| DL1XH-west | 2026-08-30 06:16:20 | 49.84072 | 8.46921 | 351° | 27km/h | 24487m | 5.3m/s | -52.9°C | 0.8% | 29.1hPa | 2.7V | 03:31:32 | 01:46:21 | 00:00:00 | |
| BIOWL1-15 | 2026-08-30 06:16:19 | 49.84065 | 8.46923 | 346° | 31km/h | 24482m | 5.8m/s | -52.8°C | 0.8% | 29.1hPa | 2.7V | 03:31:32 | 01:46:20 | 00:00:00 | |
| DL1ZP-14 | 2026-08-30 06:16:18 | 49.84049 | 8.46930 | 344° | 33km/h | 24473m | 3.6m/s | -52.8°C | 1.1% | 29.1hPa | 2.6V | 00:00:00 | 00:00:00 | 00:00:00 | |
| DL1XH-15 | 2026-08-30 06:16:17 | 49.84015 | 8.46933 | 17° | 26km/h | 24447m | 4.3m/s | -52.9°C | 3.8% | 29.2hPa | 2.7V | 03:31:34 | 01:46:13 | 00:00:00 | |
| HSKMA3-T | 2026-08-30 06:16:15 | 49.84033 | 8.46936 | 353° | 27km/h | 24463m | 5.7m/s | -52.9°C | 0.8% | 29.2hPa | 2.6V | 03:31:32 | 01:46:16 | 00:00:00 | |
| DL1XH1-15 | 2026-08-30 06:16:14 | 49.84008 | 8.46930 | 17° | 27km/h | 24443m | 5.9m/s | -52.9°C | 3.8% | 29.3hPa | 2.6V | 03:31:35 | 01:46:12 | 00:00:00 | |
| BIOWL1-15 | 2026-08-30 06:16:12 | 49.83988 | 8.46921 | 14° | 24km/h | 24427m | 5m/s | -52.9°C | 0.8% | 29.3hPa | 2.6V | 03:32:23 | 01:46:09 | 00:00:00 | |
| AA1-15 | 2026-08-30 06:16:11 | 49.84008 | 8.46930 | 18° | 27km/h | 24443m | 5.9m/s | 0°C | 0% | 0hPa | 2.6V | 18:12:15 | 01:46:12 | 00:00:00 | |
| DL1XH-west | 2026-08-30 06:16:09 | 49.83995 | 8.46923 | 15° | 27km/h | 24432m | 4.7m/s | -52.9°C | 0.7% | 29.3hPa | 2.6V | 03:32:23 | 01:46:10 | 00:00:00 | |
| HSKMA3-T | 2026-08-30 06:16:05 | 49.83974 | 8.46918 | 351° | 15km/h | 24411m | 4m/s | -52.7°C | 0.8% | 29.4hPa | 2.7V | 03:32:23 | 01:46:06 | 00:00:00 | |
| DL1XH1-15 | 2026-08-30 06:16:04 | 49.83954 | 8.46929 | 340° | 27km/h | 24392m | 4.3m/s | -52.9°C | 3.9% | 29.5hPa | 2.7V | 03:31:45 | 01:46:02 | 00:00:00 | |
| DB0UT-7 | 2026-08-30 06:16:04 | 49.83970 | 8.46919 | 342° | 18km/h | 24407m | 4.8m/s | -52.7°C | 3.9% | 29.4hPa | 2.6V | 03:31:00 | 01:46:05 | 00:00:00 | |
| DO1YAY-16 | 2026-08-30 06:16:03 | 49.83966 | 8.46922 | 337° | 20km/h | 24402m | 5.7m/s | -52.9°C | 1.1% | 29.5hPa | 2.6V | 00:00:00 | 00:00:00 | 00:00:00 | |
| DL1XH-15 | 2026-08-30 06:16:02 | 49.83933 | 8.46933 | 18° | 15km/h | 24371m | 4.9m/s | -52.9°C | 3.9% | 29.6hPa | 2.6V | 03:31:49 | 01:45:58 | 00:00:00 | |
| AA1-15 | 2026-08-30 06:16:01 | 49.83954 | 8.46929 | 340° | 27km/h | 24392m | 4.4m/s | 0°C | 0% | 0hPa | 2.7V | 18:12:15 | 01:46:02 | 00:00:00 | |
| DL1XH-west | 2026-08-30 06:15:59 | 49.83942 | 8.46934 | 353° | 22km/h | 24382m | 5.8m/s | -52.9°C | 0.7% | 29.5hPa | 2.7V | 03:32:23 | 01:46:00 | 00:00:00 | |
| BIOWL1-15 | 2026-08-30 06:15:58 | 49.83937 | 8.46934 | 5° | 18km/h | 24377m | 5.6m/s | -52.9°C | 0.8% | 29.6hPa | 2.6V | 03:32:23 | 01:45:59 | 00:00:00 | |
| HSKMA3-T | 2026-08-30 06:15:54 | 49.83922 | 8.46928 | 359° | 16km/h | 24357m | 5.4m/s | -53°C | 0.8% | 29.7hPa | 2.7V | 03:32:23 | 01:45:55 | 00:00:00 | |
| NBG1-10 | 2026-08-30 06:15:53 | 49.83918 | 8.46929 | 341° | 13km/h | 24353m | 4.5m/s | -52.9°C | 3.9% | 29.6hPa | 2.6V | 00:00:00 | 01:45:54 | 00:00:00 | |
| DL1XH-15 | 2026-08-30 06:15:52 | 49.83896 | 8.46964 | 322° | 22km/h | 24321m | 5.5m/s | -53°C | 4% | 29.9hPa | 2.6V | 03:31:59 | 01:45:48 | 00:00:00 | |
| DM0DOS-11 | 2026-08-30 06:15:52 | 49.83910 | 8.46938 | 311° | 20km/h | 24342m | 6.1m/s | -53.1°C | 3.9% | 29.7hPa | 2.6V | 03:31:55 | 01:45:52 | 00:00:00 | |
| DL1XH-west | 2026-08-30 06:15:49 | 49.83904 | 8.46951 | 304° | 22km/h | 24331m | 5m/s | -53°C | 0.9% | 29.8hPa | 2.7V | 03:32:23 | 01:45:50 | 00:00:00 | |
| BIOWL1-15 | 2026-08-30 06:15:48 | 49.83900 | 8.46958 | 311° | 22km/h | 24326m | 5.2m/s | -53°C | 0.9% | 29.8hPa | 2.7V | 03:32:23 | 01:45:49 | 00:00:00 | |
| DL1ZP-14 | 2026-08-30 06:15:47 | 49.83891 | 8.46968 | 338° | 20km/h | 24316m | 4.6m/s | -52.9°C | 1.2% | 29.9hPa | 2.6V | 00:00:00 | 00:00:00 | 00:00:00 | |
| HSKMA3-T | 2026-08-30 06:15:43 | 49.83880 | 8.46967 | 40° | 11km/h | 24300m | 5.9m/s | -52.9°C | 0.7% | 29.9hPa | 2.7V | 03:32:23 | 01:45:44 | 00:00:00 | |
| DL4BBY-15 | 2026-08-30 06:15:43 | 49.83880 | 8.46967 | 41° | 11km/h | 24300m | 5.8m/s | -54.0°C | 0% | 0hPa | 2.6V | 00:00:00 | 00:00:00 | 00:00:00 | |
| DM0DOS-11 | 2026-08-30 06:15:42 | 49.83877 | 8.46961 | 57° | 9km/h | 24290m | 4.1m/s | -52.9°C | 3.8% | 30hPa | 2.6V | 03:32:05 | 01:45:42 | 00:00:00 | |
| DL1XH-west | 2026-08-30 06:15:39 | 49.83874 | 8.46958 | 8° | 9km/h | 24280m | 5.6m/s | -52.9°C | 0.8% | 30.1hPa | 2.7V | 03:32:23 | 01:45:40 | 00:00:00 | |
| BIOWL1-15 | 2026-08-30 06:15:37 | 49.83868 | 8.46960 | 334° | 13km/h | 24271m | 4.2m/s | -52.8°C | 0.8% | 30.1hPa | 2.6V | 03:32:23 | 01:45:38 | 00:00:00 | |
| DO3MHA-11 | 2026-08-30 06:15:36 | 49.83866 | 8.46962 | 323° | 11km/h | 24266m | 5.3m/s | -52.7°C | 3.8% | 30.1hPa | 2.7V | 03:32:00 | 01:45:37 | 00:00:00 | |
| DO3DL | 2026-08-30 06:15:35 | 49.83866 | 8.46962 | 323° | 13km/h | 24266m | 5.4m/s | -52.8°C | 1.1% | 30.1hPa | 2.7V | 03:32:00 | 00:00:00 | 00:00:00 | |
| DB0UT-7 | 2026-08-30 06:15:34 | 49.83862 | 8.46968 | 297° | 11km/h | 24255m | 5.1m/s | -52.6°C | 3.8% | 30.1hPa | 2.7V | 00:00:00 | 00:00:00 | 00:00:00 | |
| DD1CC8 | 2026-08-30 06:15:33 | 49.83862 | 8.46971 | 291° | 5km/h | 24250m | 4.7m/s | -52.7°C | 1.1% | 30.2hPa | 2.6V | 00:00:00 | 00:00:00 | 00:00:00 | |
| DM0DOS-11 | 2026-08-30 06:15:32 | 49.83859 | 8.46975 | 332° | 9km/h | 24240m | 6m/s | -52.8°C | 3.8% | 30.2hPa | 2.6V | 03:32:15 | 01:45:32 | 00:00:00 | |
| HSKMA3-T | 2026-08-30 06:15:32 | 49.83861 | 8.46973 | 306° | 7km/h | 24245m | 4.8m/s | -52.7°C | 0.8% | 30.2hPa | 2.6V | 03:32:23 | 01:45:33 | 00:00:00 | |
| DL1XH-west | 2026-08-30 06:15:28 | 49.83851 | 8.46976 | 13° | 13km/h | 24225m | 4.4m/s | -53°C | 0.8% | 30.3hPa | 2.7V | 03:32:23 | 01:45:29 | 00:00:00 | |
| BIOWL1-15 | 2026-08-30 06:15:26 | 49.83846 | 8.46972 | 44° | 9km/h | 24214m | 5.4m/s | -53.1°C | 0.7% | 30.3hPa | 2.6V | 03:32:23 | 01:45:27 | 00:00:00 | |
| HSKMA3-T | 2026-08-30 06:15:21 | 49.83838 | 8.46976 | 294° | 16km/h | 24188m | 4.8m/s | -53°C | 0.7% | 30.5hPa | 2.6V | 03:33:14 | 01:45:22 | 00:00:00 | |
| DL1XH-west | 2026-08-30 06:15:17 | 49.83837 | 8.46999 | 270° | 11km/h | 24168m | 4.3m/s | -53.1°C | 0.8% | 30.6hPa | 2.6V | 03:33:14 | 01:45:18 | 00:00:00 | |
| BIOWL1-15 | 2026-08-30 06:15:16 | 49.83836 | 8.47003 | 292° | 9km/h | 24163m | 4.7m/s | -53.2°C | 0.7% | 30.6hPa | 2.6V | 03:33:14 | 01:45:17 | 00:00:00 | |
| HSKMA3-T | 2026-08-30 06:15:11 | 49.83822 | 8.47017 | 331° | 15km/h | 24138m | 5.5m/s | -53.4°C | 0.7% | 30.7hPa | 2.6V | 03:33:14 | 01:45:12 | 00:00:00 | |
| BIOWL1-15 | 2026-08-30 06:15:07 | 49.83813 | 8.47017 | 21° | 11km/h | 24106m | 5.8m/s | -53.9°C | 0.8% | 30.9hPa | 2.6V | 03:33:14 | 01:45:06 | 00:00:00 | |
| DL1XH-west | 2026-08-30 06:15:07 | 49.83816 | 8.47019 | 45° | 4km/h | 24118m | 5.4m/s | -53.6°C | 0.8% | 30.8hPa | 2.7V | 03:33:14 | 01:45:08 | 00:00:00 | |
| DB0NH | 2026-08-30 06:15:07 | 49.83816 | 8.47019 | 46° | 15km/h | 24118m | 5.4m/s | -53.6°C | 3.9% | 30.7hPa | 2.6V | 00:00:00 | 01:45:08 | 00:00:00 | |
| DM0DOS-11 | 2026-08-30 06:15:06 | 49.83801 | 8.47018 | 328° | 13km/h | 24084m | 5.7m/s | -54.2°C | 4.1% | 31hPa | 2.6V | 03:32:45 | 01:45:02 | 00:00:00 | |
| DJTTGO | 2026-08-30 06:15:06 | 49.83815 | 8.47018 | 32° | 7km/h | 24112m | 5.6m/s | -53.7°C | 1.2% | 30.8hPa | 2.6V | 03:33:00 | 00:00:00 | 00:00:00 | |
| DL1KLB | 2026-08-30 06:15:05 | 49.83815 | 8.47018 | 32° | 7km/h | 24112m | 5.6m/s | -53.7°C | 1.2% | 30.8hPa | 2.6V | 03:33:00 | 00:00:00 | 00:00:00 | |
| DB0UT-7 | 2026-08-30 06:15:04 | 49.83810 | 8.47016 | 8° | 16km/h | 24101m | 5.4m/s | -53.9°C | 3.9% | 30.8hPa | 2.6V | 00:00:00 | 01:45:05 | 00:00:00 | |
| DL1XH-15 | 2026-08-30 06:15:02 | 49.83787 | 8.47025 | 4° | 20km/h | 24063m | 5.5m/s | -54.4°C | 4% | 31.1hPa | 2.6V | 03:32:49 | 01:44:58 | 00:00:00 | |
| HSKMA3-T | 2026-08-30 06:15:01 | 49.83801 | 8.47018 | 329° | 13km/h | 24084m | 5.7m/s | -54.2°C | 0.9% | 31hPa | 2.6V | 03:33:14 | 01:45:02 | 00:00:00 | |
| BIOWL1-15 | 2026-08-30 06:14:57 | 49.83777 | 8.47022 | 23° | 22km/h | 24053m | 4.8m/s | -54.4°C | 0.8% | 31.1hPa | 2.6V | 03:33:14 | 01:44:56 | 00:00:00 | |
| DL1XH-west | 2026-08-30 06:14:56 | 49.83782 | 8.47024 | 15° | 22km/h | 24058m | 4.8m/s | -54.4°C | 0.8% | 31.1hPa | 2.6V | 03:33:14 | 01:44:57 | 00:00:00 | |
| AU51GT2 | 2026-08-30 06:14:55 | 49.83777 | 8.47022 | 22° | 20km/h | 24054m | 4.8m/s | -54.4°C | 1.2% | 31.1hPa | 2.7V | 00:00:00 | 00:00:00 | 00:00:00 | |
| DL8DAS-14 | 2026-08-30 06:14:54 | 49.83773 | 8.47018 | 27° | 18km/h | 24048m | 5.5m/s | -54.5°C | 1.2% | 31.1hPa | 2.7V | 00:00:00 | 00:00:00 | 00:00:00 | |
| DL1XH-15 | 2026-08-30 06:14:52 | 49.83749 | 8.47009 | 342° | 16km/h | 24012m | 4.8m/s | -54.7°C | 4.2% | 31.3hPa | 2.7V | 03:32:59 | 01:44:48 | 00:00:00 | |
| HSKMA3-T | 2026-08-30 06:14:51 | 49.83763 | 8.47010 | 25° | 11km/h | 24033m | 4.7m/s | -54.6°C | 0.9% | 31.2hPa | 2.6V | 03:33:14 | 01:44:52 | 00:00:00 | |
| DL1XH-west | 2026-08-30 06:14:46 | 49.83745 | 8.47011 | 330° | 16km/h | 24007m | 6.4m/s | -54.8°C | 0.9% | 31.3hPa | 2.6V | 03:33:14 | 01:44:47 | 00:00:00 | |
| BIOWL1-15 | 2026-08-30 06:14:44 | 49.83739 | 8.47020 | 314° | 16km/h | 23995m | 4.7m/s | -54.8°C | 1% | 31.4hPa | 2.7V | 03:33:14 | 01:44:45 | 00:00:00 | |
| DL3AQ-11 | 2026-08-30 06:14:44 | 49.83735 | 8.47024 | 318° | 18km/h | 23991m | 5.6m/s | -54.8°C | 1.3% | 31.4hPa | 2.7V | 00:00:00 | 00:00:00 | 00:00:00 | |
| DL4BBY-15 | 2026-08-30 06:14:43 | 49.83735 | 8.47024 | 319° | 15km/h | 23990m | 5.6m/s | -55.9°C | 0% | 0hPa | 2.7V | 00:00:00 | 00:00:00 | 00:00:00 | |
| DL1XH-15 | 2026-08-30 06:14:42 | 49.83713 | 8.47044 | 330° | 13km/h | 23958m | 4.9m/s | -54.9°C | 4.1% | 31.6hPa | 2.7V | 03:33:09 | 01:44:38 | 00:00:00 | |
| DJ2DS-15 | 2026-08-30 06:14:41 | 49.83727 | 8.47032 | 334° | 15km/h | 23979m | 4.7m/s | -54.7°C | 4.1% | 31.4hPa | 2.6V | 00:00:00 | 01:44:42 | 00:00:00 | |
| SONDE2-11 | 2026-08-30 06:14:40 | 49.83723 | 8.47036 | 335° | 16km/h | 23975m | 4.5m/s | -54.8°C | 1.2% | 31.5hPa | 2.6V | 00:00:00 | 00:00:00 | 00:00:00 | |
| HSKMA3-T | 2026-08-30 06:14:40 | 49.83723 | 8.47036 | 335° | 18km/h | 23974m | 4.5m/s | -54.8°C | 0.9% | 31.5hPa | 2.6V | 03:33:14 | 01:44:41 | 00:00:00 | |
| DO2KSM | 2026-08-30 06:14:39 | 49.83723 | 8.47036 | 336° | 18km/h | 23975m | 4.5m/s | -54.8°C | 1.2% | 31.5hPa | 2.6V | 00:00:00 | 00:00:00 | 00:00:00 | |
| DJ2DS-15 | 2026-08-30 06:14:38 | 49.83716 | 8.47041 | 329° | 13km/h | 23964m | 5.6m/s | -54.9°C | 1.2% | 31.5hPa | 2.6V | 00:00:00 | 00:00:00 | 00:00:00 | |
| DB0NH | 2026-08-30 06:14:37 | 49.83713 | 8.47044 | 331° | 15km/h | 23959m | 4.9m/s | -54.9°C | 4.1% | 31.5hPa | 2.6V | 03:33:00 | 01:44:38 | 00:00:00 | |
| DL1XH1-15 | 2026-08-30 06:14:36 | 49.83690 | 8.47056 | 328° | 13km/h | 23927m | 5.9m/s | -55.1°C | 4.3% | 31.7hPa | 2.6V | 03:33:15 | 01:44:32 | 00:00:00 | |
| DL1XH-west | 2026-08-30 06:14:35 | 49.83706 | 8.47048 | 344° | 16km/h | 23948m | 5.9m/s | -55°C | 1% | 31.6hPa | 2.6V | 03:33:14 | 01:44:36 | 00:00:00 | |
| BIOWL1-15 | 2026-08-30 06:14:34 | 49.83702 | 8.47050 | 348° | 18km/h | 23942m | 4.8m/s | -55°C | 1% | 31.7hPa | 2.6V | 03:33:14 | 01:44:35 | 00:00:00 | |
| DL1XH-15 | 2026-08-30 06:14:32 | 49.83679 | 8.47068 | 332° | 15km/h | 23905m | 5.8m/s | -55.2°C | 4.4% | 31.8hPa | 2.7V | 03:33:19 | 01:44:28 | 00:00:00 | |
| HSKMA3-T | 2026-08-30 06:14:29 | 49.83685 | 8.47062 | 318° | 13km/h | 23916m | 4.6m/s | -55.2°C | 1% | 31.8hPa | 2.6V | 03:34:05 | 01:44:30 | 00:00:00 | |
| BIOWL9-15 | 2026-08-30 06:14:28 | 49.83682 | 8.47065 | 324° | 13km/h | 23911m | 5.9m/s | -55.2°C | 1.3% | 31.8hPa | 2.7V | 00:00:00 | 00:00:00 | 00:00:00 | |
| DO3DL | 2026-08-30 06:14:27 | 49.83682 | 8.47065 | 326° | 13km/h | 23912m | 5.9m/s | -55.2°C | 1.3% | 31.8hPa | 2.7V | 03:34:00 | 00:00:00 | 00:00:00 | |
| DL1XH1-15 | 2026-08-30 06:14:26 | 49.83664 | 8.47086 | 320° | 13km/h | 23873m | 5.9m/s | -55.2°C | 4.3% | 32hPa | 2.7V | 03:33:25 | 01:44:22 | 00:00:00 | |
| DL1XH-west | 2026-08-30 06:14:25 | 49.83673 | 8.47073 | 330° | 13km/h | 23895m | 5.4m/s | -55.3°C | 1.1% | 31.9hPa | 2.6V | 03:34:05 | 01:44:26 | 00:00:00 | |
| BIOWL1-15 | 2026-08-30 06:14:23 | 49.83668 | 8.47079 | 311° | 11km/h | 23884m | 5.1m/s | -55.2°C | 1% | 32hPa | 2.6V | 03:34:05 | 01:44:24 | 00:00:00 | |
| DL8DAS-14 | 2026-08-30 06:14:23 | 49.83668 | 8.47079 | 310° | 11km/h | 23884m | 5.1m/s | -55.2°C | 1.3% | 32.0hPa | 2.7V | 00:00:00 | 00:00:00 | 00:00:00 | |
| DL1XH-15 | 2026-08-30 06:14:22 | 49.83651 | 8.47102 | 309° | 18km/h | 23853m | 6.2m/s | -55.3°C | 4.3% | 32.1hPa | 2.7V | 03:33:29 | 01:44:18 | 00:00:00 | |
| HSKMA3-T | 2026-08-30 06:14:18 | 49.83654 | 8.47097 | 319° | 18km/h | 23859m | 4.5m/s | -55.3°C | 1% | 32.1hPa | 2.7V | 03:34:05 | 01:44:19 | 00:00:00 | |
| DL1XH1-15 | 2026-08-30 06:14:16 | 49.83635 | 8.47130 | 324° | 15km/h | 23822m | 4m/s | -55.2°C | 4.4% | 32.3hPa | 2.7V | 03:33:35 | 01:44:12 | 00:00:00 | |
| BIOWL1-15 | 2026-08-30 06:14:14 | 49.83638 | 8.47127 | 325° | 15km/h | 23826m | 4.7m/s | -55.2°C | 1.1% | 32.3hPa | 2.7V | 03:34:05 | 01:44:13 | 00:00:00 | |
| DL1XH-west | 2026-08-30 06:14:14 | 49.83644 | 8.47119 | 307° | 15km/h | 23837m | 5.2m/s | -55.2°C | 1% | 32.2hPa | 2.6V | 03:34:05 | 01:44:15 | 00:00:00 | |
| HSKMA3-T | 2026-08-30 06:14:08 | 49.83630 | 8.47143 | 281° | 13km/h | 23806m | 5.5m/s | -55.3°C | 1.1% | 32.4hPa | 2.6V | 03:34:05 | 01:44:09 | 00:00:00 | |
| DB0NH | 2026-08-30 06:14:07 | 49.83629 | 8.47148 | 280° | 20km/h | 23801m | 4.8m/s | -55.2°C | 4.4% | 32.3hPa | 2.7V | 00:00:00 | 01:44:08 | 00:00:00 | |
| DL1XH1-15 | 2026-08-30 06:14:06 | 49.83616 | 8.47186 | 291° | 22km/h | 23769m | 6m/s | -55.3°C | 4.3% | 32.5hPa | 2.6V | 03:33:45 | 01:44:02 | 00:00:00 | |
| DL1XH-west | 2026-08-30 06:14:04 | 49.83624 | 8.47165 | 307° | 18km/h | 23784m | 4.8m/s | -55.2°C | 1% | 32.5hPa | 2.6V | 03:34:05 | 01:44:05 | 00:00:00 | |
| BIOWL1-15 | 2026-08-30 06:14:03 | 49.83618 | 8.47178 | 300° | 22km/h | 23775m | 5.3m/s | -55.3°C | 1% | 32.5hPa | 2.7V | 03:34:05 | 01:44:03 | 00:00:00 | |
| HSKMA3-T | 2026-08-30 06:13:58 | 49.83611 | 8.47210 | 287° | 20km/h | 23752m | 6.2m/s | -55.2°C | 1.1% | 32.6hPa | 2.7V | 03:34:05 | 01:43:59 | 00:00:00 | |
| BIOWL9-15 | 2026-08-30 06:13:57 | 49.83610 | 8.47217 | 290° | 16km/h | 23746m | 5.5m/s | -55.2°C | 1.3% | 32.6hPa | 2.7V | 00:00:00 | 00:00:00 | 00:00:00 | |
| DL1XH1-15 | 2026-08-30 06:13:56 | 49.83607 | 8.47256 | 276° | 16km/h | 23716m | 5.5m/s | -55.3°C | 4.3% | 32.8hPa | 2.7V | 03:33:55 | 01:43:52 | 00:00:00 | |
| DL1XH-west | 2026-08-30 06:13:53 | 49.83607 | 8.47242 | 267° | 18km/h | 23726m | 4.9m/s | -55.1°C | 1.1% | 32.8hPa | 2.6V | 03:34:05 | 01:43:54 | 00:00:00 | |
| AU51GT2 | 2026-08-30 06:13:53 | 49.83607 | 8.47242 | 267° | 18km/h | 23726m | 4.9m/s | -55.1°C | 1.3% | 32.8hPa | 2.7V | 00:00:00 | 00:00:00 | 00:00:00 | |
| DL1XH-15 | 2026-08-30 06:13:52 | 49.83601 | 8.47285 | 283° | 24km/h | 23694m | 6.2m/s | -55.5°C | 4.3% | 32.9hPa | 2.7V | 03:33:59 | 01:43:48 | 00:00:00 | |
| BIOWL1-15 | 2026-08-30 06:13:51 | 49.83607 | 8.47256 | 276° | 16km/h | 23716m | 5.5m/s | -55.3°C | 1% | 32.8hPa | 2.7V | 03:34:05 | 01:43:52 | 00:00:00 | |
| HSKMA3-T | 2026-08-30 06:13:48 | 49.83603 | 8.47276 | 289° | 22km/h | 23699m | 5.1m/s | -55.5°C | 1% | 32.9hPa | 2.6V | 03:34:05 | 01:43:49 | 00:00:00 | |
| DL0LBS | 2026-08-30 06:13:47 | 49.83603 | 8.47276 | 290° | 22km/h | 23700m | 5.1m/s | -55.5°C | 1.3% | 32.9hPa | 2.7V | 03:34:00 | 00:00:00 | 00:00:00 | |
| DL1XH1-15 | 2026-08-30 06:13:46 | 49.83603 | 8.47339 | 264° | 18km/h | 23664m | 4.8m/s | -55.4°C | 4.4% | 33.1hPa | 2.7V | 03:34:05 | 01:43:42 | 00:00:00 | |
| DL1XH-west | 2026-08-30 06:13:43 | 49.83601 | 8.47323 | 264° | 22km/h | 23674m | 5.2m/s | -55.4°C | 1.1% | 33hPa | 2.6V | 03:34:05 | 01:43:44 | 00:00:00 | |
| DL4BBY-15 | 2026-08-30 06:13:43 | 49.83601 | 8.47323 | 264° | 18km/h | 23675m | 5.2m/s | -56.5°C | 0% | 0hPa | 2.7V | 00:00:00 | 00:00:00 | 00:00:00 | |
| DL1XH-15 | 2026-08-30 06:13:42 | 49.83606 | 8.47369 | 253° | 20km/h | 23643m | 4.1m/s | -55.2°C | 4.4% | 33.2hPa | 2.7V | 03:34:09 | 01:43:38 | 00:00:00 | |
| BIOWL1-15 | 2026-08-30 06:13:41 | 49.83602 | 8.47339 | 265° | 18km/h | 23664m | 4.8m/s | -55.4°C | 1.1% | 33.1hPa | 2.7V | 03:34:05 | 01:43:42 | 00:00:00 | |
| HSKMA3-T | 2026-08-30 06:13:37 | 49.83606 | 8.47369 | 254° | 20km/h | 23643m | 4.1m/s | -55.2°C | 1.1% | 33.2hPa | 2.7V | 03:34:56 | 01:43:38 | 00:00:00 | |
| DB0NH | 2026-08-30 06:13:37 | 49.83606 | 8.47369 | 254° | 18km/h | 23643m | 4.1m/s | -55.2°C | 4.4% | 33.2hPa | 2.7V | 00:00:00 | 01:43:38 | 00:00:00 | |
| DL1XH1-15 | 2026-08-30 06:13:36 | 49.83614 | 8.47402 | 244° | 18km/h | 23610m | 5.3m/s | -55.2°C | 4.2% | 33.4hPa | 2.7V | 03:34:15 | 01:43:32 | 00:00:00 | |
| DL1XH-west | 2026-08-30 06:13:33 | 49.83611 | 8.47391 | 246° | 13km/h | 23622m | 5.1m/s | -55.2°C | 1.1% | 33.3hPa | 2.6V | 03:34:56 | 01:43:34 | 00:00:00 | |
| DL1XH-15 | 2026-08-30 06:13:32 | 49.83620 | 8.47425 | 251° | 15km/h | 23589m | 4.6m/s | -55.3°C | 4.3% | 33.5hPa | 2.6V | 03:34:19 | 01:43:28 | 00:00:00 | |
| BIOWL1-15 | 2026-08-30 06:13:30 | 49.83616 | 8.47409 | 245° | 18km/h | 23606m | 4.7m/s | -55.3°C | 1% | 33.4hPa | 2.7V | 03:34:56 | 01:43:31 | 00:00:00 | |
| HSKMA3-T | 2026-08-30 06:13:27 | 49.83621 | 8.47425 | 252° | 15km/h | 23589m | 4.6m/s | -55.3°C | 1% | 33.5hPa | 2.6V | 03:34:56 | 01:43:28 | 00:00:00 | |
| BIOWL1-15 | 2026-08-30 06:13:24 | 49.83632 | 8.47476 | 249° | 16km/h | 23554m | 4.8m/s | -55.3°C | 1.1% | 33.7hPa | 2.6V | 03:34:56 | 01:43:21 | 00:00:00 | |
| DL1XH-west | 2026-08-30 06:13:23 | 49.83627 | 8.47455 | 249° | 24km/h | 23569m | 4.1m/s | -55.3°C | 1.2% | 33.6hPa | 2.6V | 03:34:56 | 01:43:24 | 00:00:00 | |
| SONCRA | 2026-08-30 06:13:23 | 49.83627 | 8.47455 | 248° | 22km/h | 23570m | 4.1m/s | -55.3°C | 1.4% | 33.6hPa | 2.7V | 00:00:00 | 00:00:00 | 00:00:00 | |
| DL1XH1-15 | 2026-08-30 06:13:21 | 49.83631 | 8.47470 | 250° | 18km/h | 23559m | 5.7m/s | -55.3°C | 4.4% | 33.6hPa | 2.7V | 03:34:25 | 01:43:22 | 00:00:00 | |
| HSKMA3-T | 2026-08-30 06:13:17 | 49.83639 | 8.47497 | 242° | 24km/h | 23538m | 5.5m/s | -55.2°C | 1.1% | 33.8hPa | 2.7V | 03:34:56 | 01:43:18 | 00:00:00 | |
| DO3DL | 2026-08-30 06:13:17 | 49.83639 | 8.47497 | 243° | 24km/h | 23538m | 5.5m/s | -55.2°C | 1.3% | 33.8hPa | 2.6V | 03:34:00 | 00:00:00 | 00:00:00 | |
| DN1GJH-1 | 2026-08-30 06:13:16 | 49.83639 | 8.47497 | 243° | 24km/h | 23538m | 5.5m/s | -55.2°C | 1.4% | 33.8hPa | 2.6V | 00:00:00 | 00:00:00 | 00:00:00 | |
| SFWM-10 | 2026-08-30 06:13:14 | 49.83644 | 8.47512 | 244° | 22km/h | 23528m | 5.5m/s | -55.1°C | 1.3% | 33.8hPa | 2.6V | 03:34:00 | 00:00:00 | 00:00:00 | |
| DL4BBY-15 | 2026-08-30 06:13:13 | 49.83648 | 8.47526 | 246° | 15km/h | 23517m | 4.4m/s | -56.2°C | 0% | 0hPa | 2.6V | 00:00:00 | 00:00:00 | 00:00:00 | |
| DL1XH-15 | 2026-08-30 06:13:12 | 49.83662 | 8.47562 | 226° | 13km/h | 23486m | 6.3m/s | -54.9°C | 4.4% | 34hPa | 2.6V | 03:34:39 | 01:43:08 | 00:00:00 | |
| DL1XH-west | 2026-08-30 06:13:12 | 49.83650 | 8.47532 | 244° | 16km/h | 23512m | 4.5m/s | -55.1°C | 1.1% | 33.9hPa | 2.6V | 03:34:56 | 01:43:13 | 00:00:00 | |
| BIOWL1-15 | 2026-08-30 06:13:09 | 49.83657 | 8.47552 | 237° | 20km/h | 23496m | 4.5m/s | -55°C | 1.1% | 34hPa | 2.6V | 03:34:56 | 01:43:10 | 00:00:00 | |
| NBG1-10 | 2026-08-30 06:13:08 | 49.83660 | 8.47558 | 232° | 15km/h | 23492m | 5.2m/s | -54.9°C | 4.4% | 33.9hPa | 2.6V | 00:00:00 | 01:43:09 | 00:00:00 | |
| SONDE2-11 | 2026-08-30 06:13:07 | 49.83665 | 8.47565 | 221° | 11km/h | 23481m | 4.9m/s | -54.9°C | 1.3% | 34.1hPa | 2.6V | 00:00:00 | 00:00:00 | 00:00:00 | |
| DL1XH1-15 | 2026-08-30 06:13:06 | 49.83673 | 8.47585 | 256° | 13km/h | 23456m | 5.1m/s | -54.8°C | 4.2% | 34.2hPa | 2.6V | 03:34:45 | 01:43:02 | 00:00:00 | |
| HSKMA3-T | 2026-08-30 06:13:06 | 49.83665 | 8.47565 | 221° | 11km/h | 23480m | 4.9m/s | -54.9°C | 1.1% | 34.1hPa | 2.7V | 03:34:56 | 01:43:07 | 00:00:00 | |
| DO3MHA-11 | 2026-08-30 06:13:06 | 49.83664 | 8.47565 | 222° | 13km/h | 23481m | 4.9m/s | -54.8°C | 4.4% | 34.0hPa | 2.6V | 00:00:00 | 01:43:07 | 00:00:00 | |
| HEMX73-11 | 2026-08-30 06:13:04 | 49.83667 | 8.47568 | 222° | 11km/h | 23476m | 4.3m/s | -54.8°C | 1.3% | 34.1hPa | 2.6V | 03:34:00 | 00:00:00 | 00:00:00 | |
| DL1XH-15 | 2026-08-30 06:13:02 | 49.83674 | 8.47604 | 264° | 15km/h | 23435m | 5.7m/s | -54.6°C | 4.2% | 34.3hPa | 2.6V | 03:34:49 | 01:42:58 | 00:00:00 | |
| DL1XH-west | 2026-08-30 06:13:01 | 49.83674 | 8.47585 | 256° | 13km/h | 23456m | 5.1m/s | -54.8°C | 0.9% | 34.2hPa | 2.6V | 03:34:56 | 01:43:02 | 00:00:00 | |
| BIOWL1-15 | 2026-08-30 06:12:59 | 49.83674 | 8.47594 | 276° | 11km/h | 23445m | 4.8m/s | -54.7°C | 1% | 34.2hPa | 2.7V | 03:34:56 | 01:43:00 | 00:00:00 | |
| DD1CC8 | 2026-08-30 06:12:58 | 49.83674 | 8.47599 | 272° | 11km/h | 23441m | 4.6m/s | -54.6°C | 1.3% | 34.3hPa | 2.7V | 00:00:00 | 00:00:00 | 00:00:00 | |
| DL6DJ-15 | 2026-08-30 06:12:57 | 49.83675 | 8.47610 | 255° | 16km/h | 23430m | 5.2m/s | 0°C | -1.0% | -1.0hPa | 2.7V | 00:00:00 | 00:00:00 | 00:00:00 | |
| DL1XH1-15 | 2026-08-30 06:12:56 | 49.83681 | 8.47635 | 244° | 9km/h | 23406m | 4.3m/s | -54.7°C | 4.3% | 34.5hPa | 2.7V | 03:34:55 | 01:42:52 | 00:00:00 | |
| HSKMA3-T | 2026-08-30 06:12:55 | 49.83676 | 8.47617 | 251° | 18km/h | 23425m | 4.3m/s | -54.7°C | 1% | 34.4hPa | 2.6V | 03:34:56 | 01:42:56 | 00:00:00 | |
| BIOWL9-15 | 2026-08-30 06:12:55 | 49.83676 | 8.47617 | 251° | 16km/h | 23425m | 4.3m/s | -54.7°C | 1.2% | 34.4hPa | 2.7V | 00:00:00 | 00:00:00 | 00:00:00 | |
| DC4HF-4 | 2026-08-30 06:12:54 | 49.83677 | 8.47623 | 248° | 15km/h | 23421m | 4.6m/s | -54.7°C | 1.3% | 34.4hPa | 2.7V | 00:00:00 | 00:00:00 | 00:00:00 | |
| SFWM-10 | 2026-08-30 06:12:53 | 49.83677 | 8.47623 | 250° | 16km/h | 23421m | 4.6m/s | -54.7°C | 1.3% | 34.4hPa | 2.7V | 03:34:00 | 00:00:00 | 00:00:00 | |
| DL1XH-15 | 2026-08-30 06:12:52 | 49.83685 | 8.47652 | 261° | 13km/h | 23385m | 5m/s | -54.7°C | 4.2% | 34.6hPa | 2.7V | 03:34:59 | 01:42:48 | 00:00:00 | |
| DL1XH-west | 2026-08-30 06:12:50 | 49.83682 | 8.47639 | 243° | 9km/h | 23401m | 5.4m/s | -54.8°C | 1.1% | 34.5hPa | 2.6V | 03:34:56 | 01:42:51 | 00:00:00 | |
| BIOWL1-15 | 2026-08-30 06:12:48 | 49.83684 | 8.47647 | 253° | 13km/h | 23390m | 4.7m/s | -54.7°C | 1% | 34.6hPa | 2.6V | 03:35:47 | 01:42:49 | 00:00:00 | |
| HSKMA3-T | 2026-08-30 06:12:44 | 49.83683 | 8.47666 | 286° | 13km/h | 23370m | 4.1m/s | -54.7°C | 1% | 34.6hPa | 2.6V | 03:35:47 | 01:42:45 | 00:00:00 | |
| DL3AQ-11 | 2026-08-30 06:12:44 | 49.83683 | 8.47672 | 281° | 15km/h | 23365m | 5.3m/s | -54.7°C | 1.3% | 34.7hPa | 2.6V | 00:00:00 | 00:00:00 | 00:00:00 | |
| DL4BBY-15 | 2026-08-30 06:12:43 | 49.83683 | 8.47671 | 282° | 13km/h | 23366m | 5.3m/s | -55.8°C | 0% | 0hPa | 2.6V | 00:00:00 | 00:00:00 | 00:00:00 | |
| DL1XH-15 | 2026-08-30 06:12:42 | 49.83680 | 8.47711 | 282° | 15km/h | 23335m | 4.1m/s | -54.8°C | 4.3% | 34.9hPa | 2.6V | 03:35:09 | 01:42:38 | 00:00:00 | |
| DL1XH1-15 | 2026-08-30 06:12:41 | 49.83682 | 8.47685 | 270° | 18km/h | 23354m | 4.8m/s | -54.6°C | 4.2% | 34.7hPa | 2.7V | 03:35:05 | 01:42:42 | 00:00:00 | |
| BIOWL1-15 | 2026-08-30 06:12:40 | 49.83681 | 8.47705 | 283° | 15km/h | 23339m | 5m/s | -54.8°C | 1% | 34.8hPa | 2.6V | 03:35:47 | 01:42:39 | 00:00:00 | |
| DL1XH-west | 2026-08-30 06:12:40 | 49.83682 | 8.47692 | 272° | 18km/h | 23350m | 4.7m/s | -54.7°C | 1% | 34.8hPa | 2.7V | 03:35:47 | 01:42:41 | 00:00:00 | |
| DB0UT-9 | 2026-08-30 06:12:39 | 49.83681 | 8.47699 | 279° | 16km/h | 23345m | 5.8m/s | -54.7°C | 1.3% | 34.8hPa | 2.6V | 03:35:00 | 00:00:00 | 00:00:00 | |
| DO2KSM | 2026-08-30 06:12:38 | 49.83681 | 8.47699 | 279° | 16km/h | 23345m | 5.8m/s | -54.7°C | 1.3% | 34.8hPa | 2.6V | 00:00:00 | 00:00:00 | 00:00:00 | |
| DB0NH | 2026-08-30 06:12:37 | 49.83680 | 8.47710 | 283° | 13km/h | 23335m | 4.0m/s | -54.8°C | 4.3% | 34.8hPa | 2.6V | 03:35:00 | 01:42:38 | 00:00:00 | |
| DL1XH1-15 | 2026-08-30 06:12:36 | 49.83677 | 8.47740 | 321° | 9km/h | 23304m | 5.5m/s | -54.6°C | 4.2% | 35hPa | 2.6V | 03:35:15 | 01:42:32 | 00:00:00 | |
| HSKMA3-T | 2026-08-30 06:12:34 | 49.83679 | 8.47728 | 270° | 15km/h | 23319m | 4.3m/s | -54.7°C | 1.1% | 34.9hPa | 2.7V | 03:35:47 | 01:42:35 | 00:00:00 | |
| DB0UT-7 | 2026-08-30 06:12:34 | 49.83679 | 8.47728 | 271° | 15km/h | 23320m | 4.3m/s | -54.7°C | 4.3% | 34.9hPa | 2.7V | 00:00:00 | 00:00:00 | 00:00:00 | |
| DN1GJH-1 | 2026-08-30 06:12:33 | 49.83679 | 8.47728 | 271° | 15km/h | 23320m | 4.3m/s | -54.7°C | 1.3% | 34.9hPa | 2.6V | 03:35:00 | 00:00:00 | 00:00:00 | |
| DL1XH-15 | 2026-08-30 06:12:32 | 49.83669 | 8.47751 | 289° | 11km/h | 23284m | 4.8m/s | -54.6°C | 4.2% | 35.1hPa | 2.6V | 03:35:19 | 01:42:28 | 00:00:00 | |
| DL1XH-west | 2026-08-30 06:12:29 | 49.83672 | 8.47744 | 322° | 11km/h | 23295m | 4.7m/s | -54.7°C | 1% | 35hPa | 2.7V | 03:35:47 | 01:42:30 | 00:00:00 | |
| BIOWL1-15 | 2026-08-30 06:12:27 | 49.83669 | 8.47751 | 289° | 11km/h | 23284m | 4.8m/s | -54.6°C | 1% | 35.1hPa | 2.6V | 03:35:47 | 01:42:28 | 00:00:00 | |
| HSKMA3-T | 2026-08-30 06:12:24 | 49.83667 | 8.47765 | 299° | 13km/h | 23271m | 5.5m/s | -54.7°C | 1% | 35.2hPa | 2.6V | 03:35:47 | 01:42:25 | 00:00:00 | |
| HEMX73-11 | 2026-08-30 06:12:23 | 49.83667 | 8.47765 | 300° | 13km/h | 23271m | 5.5m/s | -54.7°C | 1.3% | 35.2hPa | 2.6V | 03:35:00 | 00:00:00 | 00:00:00 | |
| DL1XH-15 | 2026-08-30 06:12:22 | 49.83661 | 8.47788 | 261° | 9km/h | 23238m | 4.5m/s | -54.7°C | 4.3% | 35.4hPa | 2.6V | 03:35:29 | 01:42:18 | 00:00:00 | |
| BIOWL1-15 | 2026-08-30 06:12:18 | 49.83661 | 8.47792 | 282° | 9km/h | 23233m | 5.4m/s | -54.7°C | 1% | 35.4hPa | 2.6V | 03:35:47 | 01:42:17 | 00:00:00 | |
| DL1XH-west | 2026-08-30 06:12:18 | 49.83660 | 8.47785 | 257° | 9km/h | 23242m | 4.6m/s | -54.7°C | 1% | 35.4hPa | 2.6V | 03:35:47 | 01:42:19 | 00:00:00 | |
| HSKMA3-T | 2026-08-30 06:12:13 | 49.83656 | 8.47806 | 296° | 18km/h | 23219m | 5m/s | -54.6°C | 1% | 35.5hPa | 2.6V | 03:35:47 | 01:42:14 | 00:00:00 | |
| DL4BBY-15 | 2026-08-30 06:12:13 | 49.83656 | 8.47806 | 297° | 18km/h | 23219m | 4.9m/s | -55.7°C | 0% | 0hPa | 2.6V | 00:00:00 | 00:00:00 | 00:00:00 | |
| DL1XH-15 | 2026-08-30 06:12:12 | 49.83641 | 8.47851 | 310° | 20km/h | 23189m | 4.1m/s | -54.6°C | 4.3% | 35.7hPa | 2.6V | 03:35:39 | 01:42:08 | 00:00:00 | |
| DL1XH-west | 2026-08-30 06:12:08 | 49.83645 | 8.47845 | 307° | 22km/h | 23193m | 5.1m/s | -54.5°C | 1% | 35.6hPa | 2.6V | 03:35:47 | 01:42:09 | 00:00:00 | |
| BIOWL1-15 | 2026-08-30 06:12:05 | 49.83636 | 8.47863 | 294° | 16km/h | 23180m | 5.5m/s | -54.5°C | 1% | 35.7hPa | 2.7V | 03:35:47 | 01:42:06 | 00:00:00 | |
| HSKMA3-T | 2026-08-30 06:12:03 | 49.83634 | 8.47876 | 278° | 18km/h | 23170m | 4.1m/s | -54.5°C | 1% | 35.8hPa | 2.6V | 03:35:47 | 01:42:04 | 00:00:00 | |
| DO3DL | 2026-08-30 06:12:02 | 49.83634 | 8.47875 | 279° | 18km/h | 23171m | 4.1m/s | -54.5°C | 1.3% | 35.8hPa | 2.6V | 03:35:00 | 00:00:00 | 00:00:00 | |
| DL1XH-15 | 2026-08-30 06:12:01 | 49.83622 | 8.47924 | 276° | 18km/h | 23135m | 5.7m/s | -54.3°C | 4.2% | 35.9hPa | 2.6V | 03:35:50 | 01:41:57 | 00:00:00 | |
| DL1XH-west | 2026-08-30 06:11:58 | 49.83625 | 8.47910 | 297° | 20km/h | 23147m | 4.4m/s | -54.4°C | 1% | 35.9hPa | 2.6V | 03:36:38 | 01:41:59 | 00:00:00 | |
| BIOWL1-15 | 2026-08-30 06:11:55 | 49.83622 | 8.47932 | 270° | 18km/h | 23130m | 4.5m/s | -54.3°C | 1% | 36hPa | 2.7V | 03:36:38 | 01:41:56 | 00:00:00 | |
| HSKMA3-T | 2026-08-30 06:11:52 | 49.83621 | 8.47950 | 274° | 13km/h | 23115m | 3.9m/s | -54.2°C | 0.9% | 36.1hPa | 2.6V | 03:37:29 | 01:41:53 | 00:00:00 | |
| DL1XH-15 | 2026-08-30 06:11:51 | 49.83621 | 8.47977 | 300° | 13km/h | 23085m | 4.9m/s | -54.2°C | 4.1% | 36.2hPa | 2.6V | 03:36:00 | 01:41:47 | 00:00:00 | |
| DL1XH-west | 2026-08-30 06:11:48 | 49.83622 | 8.47968 | 270° | 11km/h | 23095m | 4.4m/s | -54.3°C | 0.9% | 36.2hPa | 2.7V | 03:36:38 | 01:41:49 | 00:00:00 | |
| BIOWL1-15 | 2026-08-30 06:11:45 | 49.83619 | 8.47982 | 298° | 16km/h | 23080m | 4.6m/s | -54.3°C | 1% | 36.3hPa | 2.7V | 03:36:38 | 01:41:46 | 00:00:00 | |
| HSKMA3-T | 2026-08-30 06:11:42 | 49.83616 | 8.48003 | 270° | 20km/h | 23065m | 4.6m/s | -54.2°C | 1% | 36.4hPa | 2.6V | 03:37:29 | 01:41:43 | 00:00:00 | |
| DC4HF-4 | 2026-08-30 06:11:42 | 49.83616 | 8.48011 | 267° | 20km/h | 23061m | 4.6m/s | -54.2°C | 1.3% | 36.4hPa | 2.6V | 00:00:00 | 00:00:00 | 00:00:00 | |
| DL1XH-15 | 2026-08-30 06:11:41 | 49.83617 | 8.48040 | 248° | 13km/h | 23036m | 5.9m/s | -54.1°C | 4.2% | 36.5hPa | 2.6V | 03:36:10 | 01:41:37 | 00:00:00 | |
| DL1XH1-15 | 2026-08-30 06:11:41 | 49.83616 | 8.48011 | 267° | 20km/h | 23060m | 4.6m/s | -54.2°C | 4.2% | 36.4hPa | 2.6V | 03:36:05 | 01:41:42 | 00:00:00 | |
| DL1XH-west | 2026-08-30 06:11:37 | 49.83617 | 8.48035 | 258° | 13km/h | 23041m | 4.4m/s | -54.1°C | 1% | 36.5hPa | 2.6V | 03:36:38 | 01:41:38 | 00:00:00 | |
| BIOWL1-15 | 2026-08-30 06:11:35 | 49.83619 | 8.48045 | 243° | 15km/h | 23030m | 5.5m/s | -54.1°C | 1% | 36.5hPa | 2.6V | 03:36:38 | 01:41:36 | 00:00:00 | |
| HSKMA3-T | 2026-08-30 06:11:32 | 49.83623 | 8.48060 | 265° | 13km/h | 23015m | 5.6m/s | -54°C | 1% | 36.6hPa | 2.6V | 03:37:29 | 01:41:33 | 00:00:00 | |
| DL1XH-15 | 2026-08-30 06:11:31 | 49.83622 | 8.48100 | 267° | 18km/h | 22986m | 5.7m/s | -53.9°C | 4.2% | 36.8hPa | 2.6V | 03:36:20 | 01:41:27 | 00:00:00 | |
| DL1XH-west | 2026-08-30 06:11:26 | 49.83622 | 8.48100 | 267° | 18km/h | 22986m | 5.7m/s | -53.9°C | 1% | 36.8hPa | 2.6V | 03:36:38 | 01:41:27 | 00:00:00 | |
| BIOWL1-15 | 2026-08-30 06:11:24 | 49.83623 | 8.48111 | 249° | 13km/h | 22975m | 4.8m/s | -53.7°C | 0.9% | 36.9hPa | 2.7V | 03:36:38 | 01:41:25 | 00:00:00 | |
| DO3DL | 2026-08-30 06:11:23 | 49.83623 | 8.48111 | 250° | 13km/h | 22976m | 4.8m/s | -53.7°C | 1.2% | 36.9hPa | 2.6V | 03:36:00 | 00:00:00 | 00:00:00 | |
| DL1XH-15 | 2026-08-30 06:11:21 | 49.83636 | 8.48142 | 275° | 13km/h | 22936m | 5.1m/s | -53.4°C | 4.1% | 37.1hPa | 2.6V | 03:36:30 | 01:41:17 | 00:00:00 | |
| HSKMA3-T | 2026-08-30 06:11:21 | 49.83629 | 8.48125 | 224° | 16km/h | 22959m | 4.4m/s | -53.6°C | 0.9% | 37hPa | 2.6V | 03:37:29 | 01:41:22 | 00:00:00 | |
| DJ2DS-15 | 2026-08-30 06:11:21 | 49.83629 | 8.48125 | 225° | 13km/h | 22960m | 4.3m/s | -53.5°C | 4.1% | 36.9hPa | 2.6V | 00:00:00 | 01:41:22 | 00:00:00 | |
| SONCRA | 2026-08-30 06:11:19 | 49.83636 | 8.48135 | 242° | 7km/h | 22945m | 4.5m/s | -53.5°C | 1.2% | 37.0hPa | 2.6V | 00:00:00 | 00:00:00 | 00:00:00 | |
| AU51GT2 | 2026-08-30 06:11:18 | 49.83636 | 8.48135 | 242° | 7km/h | 22945m | 4.5m/s | -53.5°C | 1.2% | 37.0hPa | 2.6V | 00:00:00 | 00:00:00 | 00:00:00 | |
| DM7RM-13 | 2026-08-30 06:11:17 | 49.83636 | 8.48135 | 243° | 7km/h | 22945m | 4.5m/s | -53.5°C | 1.2% | 37.0hPa | 2.6V | 03:36:00 | 00:00:00 | 00:00:00 | |
| DL1XH1-15 | 2026-08-30 06:11:16 | 49.83639 | 8.48177 | 245° | 16km/h | 22912m | 5m/s | -53.2°C | 4.1% | 37.3hPa | 2.6V | 03:36:35 | 01:41:12 | 00:00:00 | |
| BIOWL1-15 | 2026-08-30 06:11:15 | 49.83636 | 8.48163 | 260° | 20km/h | 22921m | 4.5m/s | -53.3°C | 0.9% | 37.2hPa | 2.7V | 03:36:38 | 01:41:14 | 00:00:00 | |
| DL1XH-west | 2026-08-30 06:11:15 | 49.83636 | 8.48148 | 274° | 16km/h | 22930m | 5.6m/s | -53.4°C | 0.9% | 37.1hPa | 2.6V | 03:36:38 | 01:41:16 | 00:00:00 | |
| DF7PN | 2026-08-30 06:11:14 | 49.83636 | 8.48163 | 260° | 20km/h | 22921m | 4.5m/s | -53.3°C | 1.2% | 37.2hPa | 2.6V | 00:00:00 | 00:00:00 | 00:00:00 | |
| DL4BBY-15 | 2026-08-30 06:11:13 | 49.83636 | 8.48163 | 261° | 15km/h | 22921m | 4.4m/s | -54.4°C | 0% | 0hPa | 2.6V | 00:00:00 | 00:00:00 | 00:00:00 | |
| DL1XH-15 | 2026-08-30 06:11:11 | 49.83647 | 8.48193 | 230° | 13km/h | 22888m | 5.5m/s | -53.2°C | 4% | 37.4hPa | 2.6V | 03:36:40 | 01:41:07 | 00:00:00 | |
| HSKMA3-T | 2026-08-30 06:11:11 | 49.83639 | 8.48177 | 246° | 16km/h | 22912m | 5m/s | -53.2°C | 0.9% | 37.3hPa | 2.6V | 03:37:29 | 01:41:12 | 00:00:00 | |
| DN1GJH-1 | 2026-08-30 06:11:10 | 49.83639 | 8.48177 | 247° | 16km/h | 22912m | 5.0m/s | -53.2°C | 0% | 0hPa | 2.7V | 00:00:00 | 00:00:00 | 00:00:00 | |
| SFWM-10 | 2026-08-30 06:11:09 | 49.83641 | 8.48182 | 237° | 11km/h | 22907m | 4.9m/s | -53.2°C | 1.2% | 37.3hPa | 2.7V | 03:36:00 | 00:00:00 | 00:00:00 | |
| DM3KS-11 | 2026-08-30 06:11:08 | 49.83645 | 8.48190 | 227° | 9km/h | 22893m | 4.9m/s | -53.2°C | 1.2% | 37.3hPa | 2.7V | 00:00:00 | 00:00:00 | 00:00:00 | |
| DB0NH | 2026-08-30 06:11:07 | 49.83645 | 8.48190 | 228° | 16km/h | 22894m | 4.9m/s | -53.1°C | 4.0% | 37.3hPa | 2.7V | 00:00:00 | 01:41:08 | 00:00:00 | |
| DL1XH1-15 | 2026-08-30 06:11:06 | 49.83658 | 8.48211 | 225° | 13km/h | 22863m | 4.6m/s | -53.2°C | 4% | 37.5hPa | 2.6V | 03:36:45 | 01:41:02 | 00:00:00 | |
| DL1XH-west | 2026-08-30 06:11:05 | 49.83649 | 8.48197 | 232° | 15km/h | 22883m | 4.5m/s | -53.2°C | 0.9% | 37.4hPa | 2.6V | 03:37:29 | 01:41:06 | 00:00:00 | |
| BIOWL1-15 | 2026-08-30 06:11:03 | 49.83654 | 8.48205 | 224° | 13km/h | 22873m | 5.8m/s | -53.2°C | 0.9% | 37.5hPa | 2.7V | 03:37:29 | 01:41:04 | 00:00:00 | |
| SONDE2-11 | 2026-08-30 06:11:03 | 49.83656 | 8.48208 | 221° | 11km/h | 22868m | 4.9m/s | -53.2°C | 1.2% | 37.5hPa | 2.6V | 00:00:00 | 00:00:00 | 00:00:00 | |
| DJ2DS-15 | 2026-08-30 06:11:02 | 49.83658 | 8.48211 | 225° | 11km/h | 22863m | 4.6m/s | -53.2°C | 1.2% | 37.5hPa | 2.6V | 00:00:00 | 00:00:00 | 00:00:00 | |
| DL1XH-15 | 2026-08-30 06:11:01 | 49.83669 | 8.48238 | 238° | 15km/h | 22838m | 5.7m/s | -53°C | 4% | 37.7hPa | 2.6V | 03:36:50 | 01:40:57 | 00:00:00 | |
| HSKMA3-T | 2026-08-30 06:10:57 | 49.83667 | 8.48232 | 240° | 16km/h | 22844m | 4.3m/s | -53°C | 0.9% | 37.7hPa | 2.7V | 03:37:29 | 01:40:58 | 00:00:00 | |
| DL1XH1-15 | 2026-08-30 06:10:56 | 49.83680 | 8.48256 | 224° | 16km/h | 22814m | 4.8m/s | -53.1°C | 4% | 37.8hPa | 2.6V | 03:36:55 | 01:40:52 | 00:00:00 | |
| DL1XH-west | 2026-08-30 06:10:54 | 49.83673 | 8.48245 | 225° | 11km/h | 22829m | 4m/s | -53.1°C | 0.9% | 37.7hPa | 2.6V | 03:37:29 | 01:40:55 | 00:00:00 | |
| BIOWL1-15 | 2026-08-30 06:10:52 | 49.83677 | 8.48252 | 223° | 15km/h | 22819m | 5.6m/s | -53.1°C | 0.9% | 37.8hPa | 2.7V | 03:37:29 | 01:40:53 | 00:00:00 | |
| HSKMA3-T | 2026-08-30 06:10:46 | 49.83694 | 8.48279 | 234° | 18km/h | 22790m | 4.3m/s | -52.9°C | 0.8% | 38hPa | 2.7V | 03:37:29 | 01:40:47 | 00:00:00 | |
| DL1XH-west | 2026-08-30 06:10:44 | 49.83700 | 8.48292 | 233° | 26km/h | 22780m | 5.2m/s | -52.8°C | 0.9% | 38hPa | 2.6V | 03:37:29 | 01:40:45 | 00:00:00 | |
| BIOWL1-15 | 2026-08-30 06:10:41 | 49.83713 | 8.48313 | 214° | 22km/h | 22766m | 5.6m/s | -52.7°C | 0.8% | 38.1hPa | 2.7V | 03:37:29 | 01:40:42 | 00:00:00 | |
| HSKMA3-T | 2026-08-30 06:10:36 | 49.83738 | 8.48332 | 211° | 20km/h | 22741m | 4.2m/s | -52.7°C | 0.8% | 38.2hPa | 2.6V | 03:37:29 | 01:40:37 | 00:00:00 | |
| DL1XH-west | 2026-08-30 06:10:34 | 49.83745 | 8.48340 | 216° | 15km/h | 22731m | 5.8m/s | -52.6°C | 0.8% | 38.3hPa | 2.6V | 03:37:29 | 01:40:35 | 00:00:00 | |
| DB0UT-7 | 2026-08-30 06:10:34 | 49.83745 | 8.48340 | 216° | 18km/h | 22731m | 5.8m/s | -52.6°C | 3.9% | 38.2hPa | 2.7V | 00:00:00 | 00:00:00 | 00:00:00 | |
| DF1GD-15 | 2026-08-30 06:10:33 | 49.83745 | 8.48340 | 217° | 15km/h | 22731m | 5.8m/s | -52.6°C | 1.2% | 38.3hPa | 2.7V | 03:37:00 | 00:00:00 | 00:00:00 | |
| SONDE2-11 | 2026-08-30 06:10:32 | 49.83752 | 8.48351 | 233° | 15km/h | 22716m | 5.8m/s | -52.7°C | 1.2% | 38.4hPa | 2.7V | 00:00:00 | 00:00:00 | 00:00:00 | |
| DL1XH-15 | 2026-08-30 06:10:31 | 49.83770 | 8.48376 | 197° | 16km/h | 22691m | 5.4m/s | -52.4°C | 3.9% | 38.5hPa | 2.7V | 03:37:20 | 01:40:27 | 00:00:00 | |
| DL1XH1-15 | 2026-08-30 06:10:31 | 49.83752 | 8.48351 | 233° | 16km/h | 22716m | 5.8m/s | -52.7°C | 3.9% | 38.4hPa | 2.7V | 03:37:15 | 01:40:32 | 00:00:00 | |
| BIOWL1-15 | 2026-08-30 06:10:30 | 49.83755 | 8.48357 | 232° | 20km/h | 22710m | 5.3m/s | -52.6°C | 0.8% | 38.4hPa | 2.6V | 03:37:29 | 01:40:31 | 00:00:00 | |
| HSKMA3-T | 2026-08-30 06:10:25 | 49.83774 | 8.48378 | 187° | 16km/h | 22686m | 4.4m/s | -52.4°C | 0.9% | 38.6hPa | 2.6V | 03:37:29 | 01:40:26 | 00:00:00 | |
| DL1XH-west | 2026-08-30 06:10:24 | 49.83779 | 8.48378 | 186° | 16km/h | 22681m | 4.7m/s | -52.4°C | 0.8% | 38.6hPa | 2.6V | 03:37:29 | 01:40:25 | 00:00:00 | |
| BIOWL1-15 | 2026-08-30 06:10:22 | 49.83797 | 8.48385 | 193° | 20km/h | 22661m | 4.9m/s | -52.2°C | 0.8% | 38.7hPa | 2.7V | 03:37:29 | 01:40:21 | 00:00:00 | |
| DO1YAY-16 | 2026-08-30 06:10:22 | 49.83792 | 8.48383 | 195° | 18km/h | 22666m | 4.7m/s | -52.3°C | 1.2% | 38.7hPa | 2.7V | 00:00:00 | 00:00:00 | 00:00:00 | |
| DL1XH-15 | 2026-08-30 06:10:21 | 49.83814 | 8.48387 | 189° | 16km/h | 22641m | 4.2m/s | -52.2°C | 3.7% | 38.8hPa | 2.7V | 03:37:30 | 01:40:17 | 00:00:00 | |
| DL1XH1-15 | 2026-08-30 06:10:21 | 49.83792 | 8.48383 | 195° | 20km/h | 22665m | 4.7m/s | -52.3°C | 3.9% | 38.7hPa | 2.7V | 03:37:25 | 01:40:22 | 00:00:00 | |
| HSKMA3-T | 2026-08-30 06:10:14 | 49.83823 | 8.48391 | 204° | 20km/h | 22631m | 5.1m/s | -52.1°C | 0.7% | 38.9hPa | 2.6V | 03:38:20 | 01:40:15 | 00:00:00 | |
| DL1XH-west | 2026-08-30 06:10:13 | 49.83828 | 8.48395 | 202° | 22km/h | 22626m | 4.5m/s | -52.1°C | 0.7% | 38.9hPa | 2.6V | 03:38:20 | 01:40:14 | 00:00:00 | |
| DL4BBY-15 | 2026-08-30 06:10:13 | 49.83828 | 8.48395 | 203° | 11km/h | 22627m | 4.4m/s | -53.2°C | 0% | 0hPa | 2.7V | 00:00:00 | 00:00:00 | 00:00:00 | |
| DF1GD-15 | 2026-08-30 06:10:12 | 49.83828 | 8.48395 | 203° | 22km/h | 22627m | 4.5m/s | -52.1°C | 1.2% | 38.9hPa | 2.7V | 03:38:00 | 00:00:00 | 00:00:00 | |
| DL1XH1-15 | 2026-08-30 06:10:11 | 49.83838 | 8.48399 | 184° | 20km/h | 22617m | 5.7m/s | -52.1°C | 3.8% | 39hPa | 2.7V | 03:37:35 | 01:40:12 | 00:00:00 | |
| BIOWL1-15 | 2026-08-30 06:10:09 | 49.83848 | 8.48397 | 163° | 18km/h | 22606m | 4.7m/s | -52°C | 0.7% | 39hPa | 2.6V | 03:38:20 | 01:40:10 | 00:00:00 | |
| HSKMA3-T | 2026-08-30 06:10:04 | 49.83863 | 8.48394 | 181° | 7km/h | 22582m | 4.8m/s | -52°C | 0.8% | 39.2hPa | 2.6V | 03:38:20 | 01:40:05 | 00:00:00 | |
| DL1XH-west | 2026-08-30 06:10:02 | 49.83867 | 8.48392 | 162° | 7km/h | 22572m | 4.6m/s | -52°C | 0.7% | 39.3hPa | 2.6V | 03:38:20 | 01:40:03 | 00:00:00 | |
| DL1XH1-15 | 2026-08-30 06:10:01 | 49.83869 | 8.48392 | 174° | 7km/h | 22567m | 4.5m/s | -52°C | 3.7% | 39.3hPa | 2.7V | 03:37:45 | 01:40:02 | 00:00:00 | |
| DJ2DS-15 | 2026-08-30 06:10:00 | 49.83871 | 8.48392 | 190° | 9km/h | 22562m | 5.9m/s | -52.0°C | 3.8% | 39.3hPa | 2.7V | 00:00:00 | 01:40:01 | 00:00:00 | |
| DL1XH-15 | 2026-08-30 06:09:59 | 49.83887 | 8.48389 | 140° | 11km/h | 22533m | 4.4m/s | -52.1°C | 3.7% | 39.5hPa | 2.7V | 03:37:52 | 01:39:55 | 00:00:00 | |
| BIOWL1-15 | 2026-08-30 06:09:58 | 49.83877 | 8.48394 | 190° | 13km/h | 22552m | 4.3m/s | -52°C | 0.7% | 39.4hPa | 2.6V | 03:38:20 | 01:39:59 | 00:00:00 | |
| DL8DAS-15 | 2026-08-30 06:09:57 | 49.83877 | 8.48394 | 191° | 13km/h | 22552m | 4.3m/s | -52.0°C | 1.1% | 39.4hPa | 2.6V | 03:38:00 | 00:00:00 | 00:00:00 | |
| DL1XH1-15 | 2026-08-30 06:09:56 | 49.83895 | 8.48384 | 169° | 11km/h | 22517m | 4.6m/s | -52.1°C | 3.7% | 39.6hPa | 2.6V | 03:37:55 | 01:39:52 | 00:00:00 | |
| HSKMA3-T | 2026-08-30 06:09:53 | 49.83890 | 8.48387 | 149° | 11km/h | 22528m | 5.4m/s | -52.1°C | 0.7% | 39.5hPa | 2.6V | 03:38:20 | 01:39:54 | 00:00:00 | |
| DL1XH-west | 2026-08-30 06:09:52 | 49.83892 | 8.48385 | 161° | 11km/h | 22522m | 5.4m/s | -52°C | 0.7% | 39.5hPa | 2.6V | 03:38:20 | 01:39:53 | 00:00:00 | |
| DD1CC8 | 2026-08-30 06:09:52 | 49.83895 | 8.48384 | 169° | 9km/h | 22518m | 4.6m/s | -52.1°C | 1.1% | 39.6hPa | 2.6V | 00:00:00 | 00:00:00 | 00:00:00 | |
| DO1YAY-16 | 2026-08-30 06:09:51 | 49.83897 | 8.48383 | 163° | 7km/h | 22513m | 4.0m/s | -52.2°C | 1.1% | 39.6hPa | 2.6V | 00:00:00 | 00:00:00 | 00:00:00 | |
| DJ2DS-15 | 2026-08-30 06:09:50 | 49.83899 | 8.48382 | 145° | 5km/h | 22509m | 4.9m/s | -52.1°C | 1.1% | 39.6hPa | 2.6V | 00:00:00 | 00:00:00 | 00:00:00 | |
| DL1XH-15 | 2026-08-30 06:09:49 | 49.83900 | 8.48370 | 110° | 5km/h | 22484m | 5m/s | -52.2°C | 3.8% | 39.8hPa | 2.6V | 03:38:02 | 01:39:45 | 00:00:00 | |
| BIOWL1-15 | 2026-08-30 06:09:47 | 49.83900 | 8.48377 | 85° | 7km/h | 22498m | 4.6m/s | -52.1°C | 0.7% | 39.7hPa | 2.6V | 03:38:20 | 01:39:48 | 00:00:00 | |
| AU51GT2 | 2026-08-30 06:09:45 | 49.83899 | 8.48372 | 86° | 4km/h | 22489m | 5.7m/s | -52.2°C | 1.1% | 39.8hPa | 2.6V | 00:00:00 | 00:00:00 | 00:00:00 | |
| DL8DAS-14 | 2026-08-30 06:09:44 | 49.83900 | 8.48370 | 110° | 4km/h | 22484m | 5.0m/s | -52.2°C | 1.2% | 39.8hPa | 2.6V | 00:00:00 | 00:00:00 | 00:00:00 | |
| DL1XH-west | 2026-08-30 06:09:42 | 49.83900 | 8.48366 | 99° | 7km/h | 22474m | 5.1m/s | -52.3°C | 0.8% | 39.9hPa | 2.6V | 03:38:20 | 01:39:43 | 00:00:00 | |
| CB1BUN | 2026-08-30 06:09:42 | 49.83900 | 8.48366 | 100° | 7km/h | 22475m | 5.1m/s | -52.3°C | 1.2% | 39.9hPa | 2.6V | 03:38:00 | 00:00:00 | 00:00:00 | |
| DJ2DS-15 | 2026-08-30 06:09:40 | 49.83900 | 8.48358 | 87° | 9km/h | 22464m | 4.7m/s | -52.3°C | 3.8% | 39.9hPa | 2.6V | 03:38:00 | 01:39:41 | 00:00:00 | |
| DL0LBS | 2026-08-30 06:09:39 | 49.83900 | 8.48358 | 87° | 11km/h | 22464m | 4.8m/s | -52.4°C | 1.2% | 39.9hPa | 2.6V | 03:38:00 | 00:00:00 | 00:00:00 | |
| DL1XH-15 | 2026-08-30 06:09:39 | 49.83902 | 8.48336 | 81° | 11km/h | 22434m | 5.6m/s | -52.5°C | 3.7% | 40.1hPa | 2.7V | 03:38:12 | 01:39:35 | 00:00:00 | |
| DH7VM-15 | 2026-08-30 06:09:38 | 49.83900 | 8.48354 | 89° | 11km/h | 22459m | 4.6m/s | -52.4°C | 1.2% | 39.9hPa | 2.6V | 00:00:00 | 00:00:00 | 00:00:00 | |
| DB0NH | 2026-08-30 06:09:37 | 49.83901 | 8.48346 | 106° | 7km/h | 22449m | 5.2m/s | -52.3°C | 3.8% | 40.0hPa | 2.6V | 00:00:00 | 01:39:38 | 00:00:00 | |
| DL1XH1-15 | 2026-08-30 06:09:36 | 49.83900 | 8.48320 | 87° | 13km/h | 22419m | 6m/s | -52.7°C | 3.8% | 40.2hPa | 2.6V | 03:38:15 | 01:39:32 | 00:00:00 | |
| BIOWL1-15 | 2026-08-30 06:09:36 | 49.83901 | 8.48343 | 103° | 9km/h | 22444m | 4.3m/s | -52.4°C | 0.7% | 40hPa | 2.6V | 03:38:20 | 01:39:37 | 00:00:00 | |
| HSKMA3-T | 2026-08-30 06:09:31 | 49.83900 | 8.48320 | 88° | 13km/h | 22419m | 6m/s | -52.7°C | 0.8% | 40.2hPa | 2.6V | 03:38:20 | 01:39:32 | 00:00:00 | |
| DL1XH-15 | 2026-08-30 06:09:29 | 49.83897 | 8.48289 | 48° | 9km/h | 22385m | 5.4m/s | -52.6°C | 3.9% | 40.4hPa | 2.7V | 03:38:22 | 01:39:25 | 00:00:00 | |
| BIOWL1-15 | 2026-08-30 06:09:27 | 49.83899 | 8.48293 | 60° | 13km/h | 22389m | 4.5m/s | -52.6°C | 0.8% | 40.4hPa | 2.6V | 03:39:11 | 01:39:26 | 00:00:00 | |
| DO3MHA-11 | 2026-08-30 06:09:26 | 49.83900 | 8.48297 | 69° | 7km/h | 22394m | 4.7m/s | -52.6°C | 3.9% | 40.3hPa | 2.6V | 00:00:00 | 01:39:27 | 00:00:00 | |
| SFWM-10 | 2026-08-30 06:09:25 | 49.83900 | 8.48297 | 70° | 13km/h | 22394m | 4.7m/s | -52.7°C | 1.2% | 40.4hPa | 2.6V | 03:38:00 | 00:00:00 | 00:00:00 | |
| DN1GJH-1 | 2026-08-30 06:09:24 | 49.83899 | 8.48293 | 60° | 13km/h | 22390m | 4.5m/s | -52.6°C | 0% | 0hPa | 2.6V | 00:00:00 | 00:00:00 | 00:00:00 | |
| BIOWL7-15 | 2026-08-30 06:09:23 | 49.83897 | 8.48289 | 50° | 9km/h | 22385m | 5.4m/s | -52.6°C | 1.2% | 40.4hPa | 2.6V | 03:39:00 | 00:00:00 | 00:00:00 | |
| DO3DL | 2026-08-30 06:09:22 | 49.83896 | 8.48287 | 34° | 5km/h | 22379m | 5.9m/s | -52.6°C | 1.2% | 40.4hPa | 2.6V | 03:39:00 | 00:00:00 | 00:00:00 | |
| DL1XH1-15 | 2026-08-30 06:09:21 | 49.83894 | 8.48287 | 348° | 4km/h | 22369m | 4.1m/s | -52.6°C | 3.9% | 40.5hPa | 2.6V | 03:38:25 | 01:39:22 | 00:00:00 | |
| HSKMA3-T | 2026-08-30 06:09:21 | 49.83894 | 8.48287 | 348° | 4km/h | 22369m | 4.1m/s | -52.6°C | 0.8% | 40.5hPa | 2.6V | 03:39:11 | 01:39:22 | 00:00:00 | |
| DL1XH-west | 2026-08-30 06:09:20 | 49.83893 | 8.48287 | 14° | 4km/h | 22364m | 4.7m/s | -52.7°C | 0.8% | 40.5hPa | 2.7V | 03:39:11 | 01:39:21 | 00:00:00 | |
| DO1YAY-16 | 2026-08-30 06:09:20 | 49.83892 | 8.48286 | 39° | 5km/h | 22359m | 5.7m/s | -52.7°C | 1.2% | 40.6hPa | 2.7V | 00:00:00 | 00:00:00 | 00:00:00 | |
| DL1XH-15 | 2026-08-30 06:09:19 | 49.83888 | 8.48275 | 79° | 4km/h | 22335m | 4.3m/s | -52.8°C | 3.9% | 40.7hPa | 2.7V | 03:38:32 | 01:39:15 | 00:00:00 | |
| DK5PH-5 | 2026-08-30 06:09:19 | 49.83892 | 8.48286 | 40° | 7km/h | 22360m | 5.7m/s | -52.6°C | 3.9% | 40.5hPa | 2.6V | 00:00:00 | 01:39:20 | 00:00:00 | |
| HEMX73-11 | 2026-08-30 06:09:17 | 49.83890 | 8.48284 | 54° | 7km/h | 22354m | 4.8m/s | -52.7°C | 1.2% | 40.6hPa | 2.6V | 03:39:00 | 00:00:00 | 00:00:00 | |
| DL1XH1-15 | 2026-08-30 06:09:16 | 49.83887 | 8.48269 | 62° | 7km/h | 22320m | 4.7m/s | -52.8°C | 3.9% | 40.8hPa | 2.6V | 03:38:35 | 01:39:12 | 00:00:00 | |
| BIOWL1-15 | 2026-08-30 06:09:14 | 49.83888 | 8.48275 | 79° | 4km/h | 22335m | 4.3m/s | -52.8°C | 0.8% | 40.7hPa | 2.7V | 03:39:11 | 01:39:15 | 00:00:00 | |
| HSKMA3-T | 2026-08-30 06:09:11 | 49.83887 | 8.48269 | 63° | 7km/h | 22320m | 4.7m/s | -52.8°C | 0.8% | 40.8hPa | 2.6V | 03:39:11 | 01:39:12 | 00:00:00 | |
| DL1XH-west | 2026-08-30 06:09:10 | 49.83886 | 8.48266 | 58° | 7km/h | 22316m | 3.6m/s | -52.8°C | 0.8% | 40.9hPa | 2.6V | 03:39:11 | 01:39:11 | 00:00:00 | |
| DL1XH-15 | 2026-08-30 06:09:09 | 49.83883 | 8.48272 | 325° | 9km/h | 22289m | 5.5m/s | -52.9°C | 4% | 41hPa | 2.7V | 03:38:42 | 01:39:05 | 00:00:00 | |
| DL8OAI-8 | 2026-08-30 06:09:08 | 49.83885 | 8.48264 | 0° | 0km/h | 22307m | 5.6m/s | -52.8°C | 1.2% | 40.9hPa | 2.6V | 00:00:00 | 00:00:00 | 00:00:00 | |
| DB0NH | 2026-08-30 06:09:07 | 49.83885 | 8.48264 | 269° | 7km/h | 22302m | 5.1m/s | -52.8°C | 3.9% | 40.9hPa | 2.6V | 00:00:00 | 01:39:08 | 00:00:00 | |
| DL1XH1-15 | 2026-08-30 06:09:06 | 49.83874 | 8.48273 | 11° | 11km/h | 22274m | 4.2m/s | -52.8°C | 4% | 41.1hPa | 2.6V | 03:38:45 | 01:39:02 | 00:00:00 | |
| BIOWL1-15 | 2026-08-30 06:09:06 | 49.83882 | 8.48272 | 325° | 9km/h | 22289m | 5.5m/s | -52.9°C | 0.8% | 41hPa | 2.7V | 03:39:11 | 01:39:05 | 00:00:00 | |
| DL1XH-west | 2026-08-30 06:09:00 | 49.83872 | 8.48272 | 17° | 9km/h | 22270m | 5m/s | -52.8°C | 0.8% | 41.1hPa | 2.6V | 03:39:11 | 01:39:01 | 00:00:00 | |
| DL3AQ-11 | 2026-08-30 06:09:00 | 49.83870 | 8.48271 | 17° | 4km/h | 22265m | 5.4m/s | -52.8°C | 1.2% | 41.2hPa | 2.7V | 00:00:00 | 00:00:00 | 00:00:00 | |
| DL1XH-15 | 2026-08-30 06:08:59 | 49.83868 | 8.48270 | 301° | 4km/h | 22239m | 4.2m/s | -52.9°C | 3.8% | 41.3hPa | 2.7V | 03:38:52 | 01:38:55 | 00:00:00 | |
| BIOWL1-15 | 2026-08-30 06:08:57 | 49.83867 | 8.48272 | 284° | 7km/h | 22235m | 5.3m/s | -53°C | 0.8% | 41.4hPa | 2.7V | 03:39:11 | 01:38:54 | 00:00:00 | |
| DL1XH1-15 | 2026-08-30 06:08:56 | 49.83866 | 8.48282 | 280° | 16km/h | 22224m | 5m/s | -53°C | 3.9% | 41.4hPa | 2.6V | 03:38:55 | 01:38:52 | 00:00:00 | |
| DL1XH-west | 2026-08-30 06:08:49 | 49.83864 | 8.48294 | 295° | 16km/h | 22214m | 5.5m/s | -53°C | 0.8% | 41.5hPa | 2.7V | 03:39:11 | 01:38:50 | 00:00:00 | |
| DO1YAY-16 | 2026-08-30 06:08:49 | 49.83862 | 8.48299 | 306° | 13km/h | 22209m | 4.5m/s | -53.0°C | 1.2% | 41.5hPa | 2.6V | 00:00:00 | 00:00:00 | 00:00:00 | |
| BIOWL9-15 | 2026-08-30 06:08:47 | 49.83859 | 8.48305 | 303° | 5km/h | 22199m | 5.5m/s | -53.1°C | 1.2% | 41.6hPa | 2.6V | 00:00:00 | 00:00:00 | 00:00:00 | |
| DL1XH1-15 | 2026-08-30 06:08:46 | 49.83861 | 8.48305 | 103° | 5km/h | 22173m | 4.5m/s | -53°C | 4% | 41.8hPa | 2.6V | 03:39:05 | 01:38:42 | 00:00:00 | |
| BIOWL1-15 | 2026-08-30 06:08:45 | 49.83860 | 8.48308 | 145° | 4km/h | 22184m | 4.9m/s | -53.1°C | 0.9% | 41.7hPa | 2.7V | 03:39:11 | 01:38:44 | 00:00:00 | |
| DL1XH-west | 2026-08-30 06:08:39 | 49.83861 | 8.48302 | 184° | 2km/h | 22165m | 4.7m/s | -53.1°C | 0.8% | 41.8hPa | 2.6V | 03:39:11 | 01:38:40 | 00:00:00 | |
| DJ2DS-15 | 2026-08-30 06:08:38 | 49.83863 | 8.48306 | 239° | 9km/h | 22155m | 4.7m/s | -52.9°C | 1.2% | 41.9hPa | 2.7V | 00:00:00 | 00:00:00 | 00:00:00 | |
| DB0NH | 2026-08-30 06:08:37 | 49.83863 | 8.48306 | 240° | 9km/h | 22155m | 4.6m/s | -52.8°C | 3.9% | 41.8hPa | 2.7V | 03:39:00 | 01:38:38 | 00:00:00 | |
| DL1XH1-15 | 2026-08-30 06:08:36 | 49.83865 | 8.48318 | 342° | 4km/h | 22126m | 5m/s | -52.8°C | 3.9% | 42.1hPa | 2.7V | 03:39:15 | 01:38:32 | 00:00:00 | |
| BIOWL1-15 | 2026-08-30 06:08:32 | 49.83866 | 8.48318 | 352° | 4km/h | 22131m | 4.5m/s | -52.8°C | 0.8% | 42hPa | 2.7V | 03:40:02 | 01:38:33 | 00:00:00 | |
| HSKMA3-T | 2026-08-30 06:08:29 | 49.83864 | 8.48321 | 274° | 5km/h | 22116m | 5.1m/s | -52.8°C | 0.8% | 42.1hPa | 2.6V | 03:40:02 | 01:38:30 | 00:00:00 | |
| DL1XH-west | 2026-08-30 06:08:28 | 49.83864 | 8.48323 | 258° | 7km/h | 22111m | 4.3m/s | -52.7°C | 0.8% | 42.2hPa | 2.6V | 03:40:02 | 01:38:29 | 00:00:00 | |
| NBG1-10 | 2026-08-30 06:08:28 | 49.83864 | 8.48323 | 258° | 13km/h | 22111m | 4.3m/s | -52.7°C | 3.9% | 42.1hPa | 2.6V | 00:00:00 | 01:38:29 | 00:00:00 | |
| SONDE2-11 | 2026-08-30 06:08:27 | 49.83864 | 8.48326 | 256° | 5km/h | 22106m | 5.4m/s | -52.7°C | 1.2% | 42.2hPa | 2.7V | 00:00:00 | 00:00:00 | 00:00:00 | |
| DL1XH1-15 | 2026-08-30 06:08:26 | 49.83869 | 8.48349 | 254° | 15km/h | 22076m | 3.7m/s | -52.8°C | 3.9% | 42.4hPa | 2.7V | 03:39:25 | 01:38:22 | 00:00:00 | |
| BIOWL1-15 | 2026-08-30 06:08:22 | 49.83868 | 8.48343 | 254° | 16km/h | 22081m | 5m/s | -52.7°C | 0.7% | 42.4hPa | 2.6V | 03:40:02 | 01:38:23 | 00:00:00 | |
| DL1XH-west | 2026-08-30 06:08:18 | 49.83870 | 8.48360 | 291° | 4km/h | 22062m | 4.7m/s | -52.9°C | 0.9% | 42.5hPa | 2.6V | 03:40:02 | 01:38:19 | 00:00:00 | |
| DN1GJH-1 | 2026-08-30 06:08:17 | 49.83870 | 8.48360 | 292° | 4km/h | 22062m | 4.7m/s | -52.9°C | 0% | 0hPa | 2.7V | 00:00:00 | 00:00:00 | 00:00:00 | |
| DL1XH1-15 | 2026-08-30 06:08:16 | 49.83862 | 8.48381 | 282° | 15km/h | 22028m | 5.7m/s | -52.8°C | 3.9% | 42.7hPa | 2.7V | 03:39:35 | 01:38:12 | 00:00:00 | |
| DO3MHA-11 | 2026-08-30 06:08:16 | 49.83869 | 8.48362 | 338° | 13km/h | 22053m | 4.7m/s | -52.9°C | 4.0% | 42.5hPa | 2.7V | 03:39:00 | 01:38:17 | 00:00:00 | |
| BIOWL7-15 | 2026-08-30 06:08:15 | 49.83868 | 8.48362 | 338° | 5km/h | 22053m | 4.7m/s | -52.9°C | 1.2% | 42.6hPa | 2.7V | 03:40:00 | 00:00:00 | 00:00:00 | |
| DL4BBY-15 | 2026-08-30 06:08:13 | 49.83864 | 8.48371 | 292° | 13km/h | 22038m | 5.0m/s | -53.9°C | 0% | 0hPa | 2.7V | 00:00:00 | 00:00:00 | 00:00:00 | |
| AU51GT2 | 2026-08-30 06:08:12 | 49.83863 | 8.48376 | 286° | 13km/h | 22033m | 4.4m/s | -52.8°C | 1.2% | 42.7hPa | 2.7V | 00:00:00 | 00:00:00 | 00:00:00 | |
| DL1XH-15 | 2026-08-30 06:08:11 | 49.83863 | 8.48412 | 262° | 18km/h | 22003m | 4.1m/s | -52.6°C | 3.8% | 42.9hPa | 2.7V | 03:39:40 | 01:38:07 | 00:00:00 | |
| BIOWL1-15 | 2026-08-30 06:08:11 | 49.83862 | 8.48381 | 283° | 15km/h | 22028m | 5.7m/s | -52.8°C | 0.8% | 42.7hPa | 2.7V | 03:40:02 | 01:38:12 | 00:00:00 | |
| DL1XH-west | 2026-08-30 06:08:08 | 49.83862 | 8.48398 | 262° | 16km/h | 22013m | 5.8m/s | -52.8°C | 0.8% | 42.8hPa | 2.6V | 03:40:02 | 01:38:09 | 00:00:00 | |
| HSKMA3-T | 2026-08-30 06:08:08 | 49.83863 | 8.48405 | 260° | 18km/h | 22007m | 5.6m/s | -52.7°C | 0.8% | 42.9hPa | 2.6V | 03:40:02 | 01:38:08 | 00:00:00 | |
| DL1XH1-15 | 2026-08-30 06:08:07 | 49.83859 | 8.48439 | 301° | 18km/h | 21978m | 5.6m/s | -52.8°C | 3.9% | 43hPa | 2.7V | 03:39:45 | 01:38:02 | 00:00:00 | |
| BIOWL1-15 | 2026-08-30 06:08:02 | 49.83857 | 8.48446 | 296° | 20km/h | 21973m | 4.8m/s | -52.8°C | 0.8% | 43.1hPa | 2.7V | 03:40:02 | 01:38:01 | 00:00:00 | |
| DL1XH-15 | 2026-08-30 06:08:01 | 49.83852 | 8.48470 | 272° | 11km/h | 21954m | 5.3m/s | -52.7°C | 4.1% | 43.2hPa | 2.6V | 03:39:50 | 01:37:57 | 00:00:00 | |
| DL1XH-west | 2026-08-30 06:07:57 | 49.83852 | 8.48466 | 279° | 15km/h | 21959m | 5.3m/s | -52.8°C | 0.9% | 43.2hPa | 2.6V | 03:40:02 | 01:37:58 | 00:00:00 | |
| DL1XH1-15 | 2026-08-30 06:07:56 | 49.83854 | 8.48492 | 263° | 13km/h | 21930m | 4.5m/s | -52.6°C | 3.8% | 43.4hPa | 2.7V | 03:39:55 | 01:37:52 | 00:00:00 | |
| DO3MHA-11 | 2026-08-30 06:07:56 | 49.83852 | 8.48471 | 273° | 11km/h | 21954m | 5.2m/s | -52.7°C | 4.1% | 43.2hPa | 2.6V | 00:00:00 | 01:37:57 | 00:00:00 | |
| NBG1-10 | 2026-08-30 06:07:55 | 49.83852 | 8.48474 | 262° | 11km/h | 21950m | 4.4m/s | -52.7°C | 4.1% | 43.2hPa | 2.7V | 00:00:00 | 01:37:56 | 00:00:00 | |
| BIOWL7-15 | 2026-08-30 06:07:54 | 49.83852 | 8.48475 | 263° | 9km/h | 21950m | 4.5m/s | -52.7°C | 1.2% | 43.2hPa | 2.7V | 03:40:00 | 00:00:00 | 00:00:00 | |
| DL1XH-15 | 2026-08-30 06:07:51 | 49.83853 | 8.48511 | 280° | 13km/h | 21905m | 5.5m/s | -52.7°C | 3.8% | 43.5hPa | 2.7V | 03:40:00 | 01:37:47 | 00:00:00 | |
| BIOWL1-15 | 2026-08-30 06:07:49 | 49.83855 | 8.48500 | 275° | 7km/h | 21919m | 5.3m/s | -52.6°C | 0.7% | 43.4hPa | 2.6V | 03:40:02 | 01:37:50 | 00:00:00 | |
| DL1XH-west | 2026-08-30 06:07:47 | 49.83854 | 8.48507 | 283° | 9km/h | 21910m | 4.9m/s | -52.7°C | 0.7% | 43.5hPa | 2.6V | 03:40:02 | 01:37:48 | 00:00:00 | |
| HSKMA3-T | 2026-08-30 06:07:46 | 49.83853 | 8.48511 | 281° | 13km/h | 21905m | 5.5m/s | -52.7°C | 0.8% | 43.5hPa | 2.7V | 03:40:02 | 01:37:47 | 00:00:00 | |
| DO3MHA-11 | 2026-08-30 06:07:46 | 49.83853 | 8.48510 | 281° | 13km/h | 21905m | 5.4m/s | -52.6°C | 3.8% | 43.5hPa | 2.6V | 00:00:00 | 01:37:47 | 00:00:00 | |
| DG1MJG | 2026-08-30 06:07:44 | 49.83853 | 8.48516 | 273° | 13km/h | 21900m | 4.4m/s | 0°C | 0% | 0hPa | 2.6V | 00:00:00 | 00:00:00 | 00:00:00 | |
| DL4BBY-15 | 2026-08-30 06:07:43 | 49.83853 | 8.48525 | 249° | 13km/h | 21891m | 5.6m/s | -53.7°C | 0% | 0hPa | 2.6V | 00:00:00 | 00:00:00 | 00:00:00 | |
| DL8OAI-8 | 2026-08-30 06:07:42 | 49.83853 | 8.48525 | 250° | 11km/h | 21891m | 5.6m/s | -52.6°C | 1.2% | 43.6hPa | 2.6V | 03:40:00 | 00:00:00 | 00:00:00 | |
| DL1XH-15 | 2026-08-30 06:07:41 | 49.83870 | 8.48545 | 210° | 13km/h | 21857m | 5.2m/s | -52.5°C | 3.9% | 43.9hPa | 2.6V | 03:40:10 | 01:37:37 | 00:00:00 | |
| BIOWL1-15 | 2026-08-30 06:07:40 | 49.83865 | 8.48538 | 222° | 15km/h | 21866m | 4.8m/s | -52.6°C | 0.9% | 43.8hPa | 2.6V | 03:40:53 | 01:37:39 | 00:00:00 | |
| DL1XH-west | 2026-08-30 06:07:37 | 49.83868 | 8.48542 | 220° | 15km/h | 21861m | 4m/s | -52.5°C | 0.8% | 43.9hPa | 2.6V | 03:40:53 | 01:37:38 | 00:00:00 | |
| DB0NH | 2026-08-30 06:07:37 | 49.83868 | 8.48542 | 220° | 13km/h | 21862m | 3.9m/s | -52.5°C | 3.9% | 43.8hPa | 2.6V | 00:00:00 | 01:37:38 | 00:00:00 | |
| DL1XH1-15 | 2026-08-30 06:07:36 | 49.83879 | 8.48551 | 233° | 5km/h | 21831m | 4.5m/s | -52.7°C | 3.8% | 44hPa | 2.6V | 03:40:15 | 01:37:32 | 00:00:00 | |
| HSKMA3-T | 2026-08-30 06:07:36 | 49.83870 | 8.48545 | 210° | 13km/h | 21857m | 5.2m/s | -52.5°C | 0.8% | 43.9hPa | 2.6V | 03:40:53 | 01:37:37 | 00:00:00 | |
| DO3MHA-11 | 2026-08-30 06:07:36 | 49.83870 | 8.48545 | 211° | 9km/h | 21857m | 5.2m/s | -52.5°C | 3.9% | 43.8hPa | 2.6V | 03:40:00 | 01:37:37 | 00:00:00 | |
| DL0LBS | 2026-08-30 06:07:35 | 49.83870 | 8.48545 | 211° | 13km/h | 21857m | 5.2m/s | -52.5°C | 1.2% | 43.9hPa | 2.6V | 03:40:00 | 00:00:00 | 00:00:00 | |
| BIOWL7-15 | 2026-08-30 06:07:34 | 49.83873 | 8.48547 | 198° | 11km/h | 21852m | 5.7m/s | -52.5°C | 1.2% | 44.0hPa | 2.6V | 00:00:00 | 00:00:00 | 00:00:00 | |
| DB0UT-7 | 2026-08-30 06:07:33 | 49.83877 | 8.48548 | 197° | 13km/h | 21842m | 4.6m/s | -52.5°C | 3.8% | 43.9hPa | 2.6V | 00:00:00 | 00:00:00 | 00:00:00 | |
| SFWM-10 | 2026-08-30 06:07:32 | 49.83877 | 8.48548 | 197° | 7km/h | 21842m | 4.7m/s | -52.6°C | 1.2% | 44.0hPa | 2.6V | 00:00:00 | 00:00:00 | 00:00:00 | |
| DL1XH-15 | 2026-08-30 06:07:31 | 49.83892 | 8.48552 | 176° | 20km/h | 21806m | 4.3m/s | -52.7°C | 3.9% | 44.2hPa | 2.6V | 03:40:20 | 01:37:27 | 00:00:00 | |
| BIOWL1-15 | 2026-08-30 06:07:30 | 49.83884 | 8.48553 | 175° | 13km/h | 21816m | 5.8m/s | -52.7°C | 0.8% | 44.2hPa | 2.7V | 03:40:53 | 01:37:29 | 00:00:00 | |
| DL1XH-west | 2026-08-30 06:07:26 | 49.83893 | 8.48552 | 176° | 20km/h | 21806m | 4.3m/s | -52.7°C | 0.8% | 44.2hPa | 2.6V | 03:40:53 | 01:37:27 | 00:00:00 | |
| HSKMA3-T | 2026-08-30 06:07:25 | 49.83898 | 8.48552 | 184° | 20km/h | 21802m | 5.5m/s | -52.6°C | 0.8% | 44.2hPa | 2.7V | 03:40:53 | 01:37:26 | 00:00:00 | |
| DO3DL | 2026-08-30 06:07:23 | 49.83903 | 8.48553 | 190° | 20km/h | 21797m | 5.0m/s | -52.5°C | 1.2% | 44.3hPa | 2.7V | 03:40:00 | 00:00:00 | 00:00:00 | |
| NBG1-10 | 2026-08-30 06:07:22 | 49.83911 | 8.48555 | 186° | 11km/h | 21788m | 3.9m/s | -52.5°C | 3.9% | 44.3hPa | 2.7V | 00:00:00 | 01:37:23 | 00:00:00 | |
| DB0UT-9 | 2026-08-30 06:07:21 | 49.83912 | 8.48555 | 187° | 15km/h | 21788m | 3.9m/s | -52.6°C | 1.2% | 44.3hPa | 2.7V | 00:00:00 | 00:00:00 | 00:00:00 | |
| DJ2DS-15 | 2026-08-30 06:07:20 | 49.83919 | 8.48553 | 156° | 11km/h | 21778m | 5.3m/s | -52.5°C | 3.9% | 44.4hPa | 2.7V | 00:00:00 | 01:37:21 | 00:00:00 | |
| DL1XH-15 | 2026-08-30 06:07:19 | 49.83932 | 8.48538 | 171° | 11km/h | 21749m | 4.3m/s | -52.5°C | 3.8% | 44.6hPa | 2.7V | 03:40:32 | 01:37:15 | 00:00:00 | |
| BIOWL1-15 | 2026-08-30 06:07:17 | 49.83926 | 8.48543 | 134° | 11km/h | 21764m | 5.5m/s | -52.5°C | 0.8% | 44.5hPa | 2.6V | 03:40:53 | 01:37:18 | 00:00:00 | |
| DL1XH-west | 2026-08-30 06:07:16 | 49.83928 | 8.48541 | 145° | 9km/h | 21758m | 5.4m/s | -52.5°C | 0.8% | 44.6hPa | 2.6V | 03:40:53 | 01:37:17 | 00:00:00 | |
| HSKMA3-T | 2026-08-30 06:07:14 | 49.83933 | 8.48538 | 171° | 11km/h | 21749m | 4.3m/s | -52.5°C | 0.7% | 44.6hPa | 2.7V | 03:40:53 | 01:37:15 | 00:00:00 | |
| BIOWL1-15 | 2026-08-30 06:07:09 | 49.83962 | 8.48541 | 200° | 13km/h | 21715m | 4.6m/s | -52.6°C | 0.8% | 44.9hPa | 2.7V | 03:40:53 | 01:37:08 | 00:00:00 | |
| DL1XH-15 | 2026-08-30 06:07:09 | 49.83966 | 8.48542 | 85° | 2km/h | 21700m | 4.5m/s | -52.6°C | 3.9% | 45hPa | 2.6V | 03:40:42 | 01:37:05 | 00:00:00 | |
| DL1XH-west | 2026-08-30 06:07:05 | 49.83966 | 8.48542 | 167° | 4km/h | 21705m | 5m/s | -52.6°C | 0.8% | 45hPa | 2.6V | 03:40:53 | 01:37:06 | 00:00:00 | |
| HSKMA3-T | 2026-08-30 06:07:04 | 49.83967 | 8.48542 | 85° | 2km/h | 21700m | 4.5m/s | -52.6°C | 0.8% | 45hPa | 2.6V | 03:40:53 | 01:37:05 | 00:00:00 | |
| DB0UT-7 | 2026-08-30 06:07:03 | 49.83966 | 8.48542 | 335° | 9km/h | 21695m | 5.4m/s | -52.6°C | 3.9% | 44.9hPa | 2.7V | 00:00:00 | 01:37:04 | 00:00:00 | |
| DJ2DS-15 | 2026-08-30 06:07:00 | 49.83966 | 8.48546 | 234° | 9km/h | 21680m | 4.7m/s | -52.4°C | 3.7% | 45.0hPa | 2.7V | 03:40:00 | 01:37:01 | 00:00:00 | |
| DL1XH-15 | 2026-08-30 06:06:59 | 49.83984 | 8.48555 | 205° | 16km/h | 21650m | 3.9m/s | -52.5°C | 3.9% | 45.3hPa | 2.7V | 03:40:52 | 01:36:55 | 00:00:00 | |
| BIOWL1-15 | 2026-08-30 06:06:56 | 49.83976 | 8.48550 | 197° | 16km/h | 21659m | 5.9m/s | -52.6°C | 0.8% | 45.2hPa | 2.6V | 03:40:53 | 01:36:57 | 00:00:00 | |
| DL1XH-west | 2026-08-30 06:06:55 | 49.83980 | 8.48553 | 203° | 18km/h | 21654m | 4.9m/s | -52.6°C | 0.8% | 45.3hPa | 2.6V | 03:40:53 | 01:36:56 | 00:00:00 | |
| HSKMA3-T | 2026-08-30 06:06:53 | 49.83987 | 8.48558 | 204° | 15km/h | 21645m | 5.2m/s | -52.5°C | 0.8% | 45.4hPa | 2.7V | 03:40:53 | 01:36:54 | 00:00:00 | |
| BIOWL1-15 | 2026-08-30 06:06:47 | 49.83985 | 8.48579 | 318° | 5km/h | 21605m | 5m/s | -52.7°C | 0.8% | 45.6hPa | 2.6V | 03:41:44 | 01:36:46 | 00:00:00 | |
| DL1XH1-15 | 2026-08-30 06:06:46 | 49.83988 | 8.48586 | 220° | 11km/h | 21585m | 4.6m/s | -52.8°C | 3.9% | 45.7hPa | 2.7V | 03:41:05 | 01:36:42 | 00:00:00 | |
| DL1XH-west | 2026-08-30 06:06:44 | 49.83984 | 8.48580 | 277° | 2km/h | 21601m | 4.1m/s | -52.8°C | 0.8% | 45.7hPa | 2.6V | 03:41:44 | 01:36:45 | 00:00:00 | |
| HSKMA3-T | 2026-08-30 06:06:42 | 49.83986 | 8.48583 | 223° | 9km/h | 21590m | 5.7m/s | -52.8°C | 0.8% | 45.7hPa | 2.7V | 03:41:44 | 01:36:43 | 00:00:00 | |
| AU51GT2 | 2026-08-30 06:06:39 | 49.83993 | 8.48590 | 199° | 9km/h | 21576m | 5.6m/s | -52.8°C | 1.2% | 45.9hPa | 2.7V | 00:00:00 | 00:00:00 | 00:00:00 | |
| DL8DAS-14 | 2026-08-30 06:06:38 | 49.83995 | 8.48591 | 180° | 7km/h | 21570m | 5.5m/s | -52.8°C | 1.2% | 45.9hPa | 2.7V | 00:00:00 | 00:00:00 | 00:00:00 | |
| DB0NH | 2026-08-30 06:06:37 | 49.83997 | 8.48590 | 159° | 11km/h | 21565m | 4.5m/s | -52.8°C | 3.9% | 45.9hPa | 2.7V | 03:41:00 | 01:36:38 | 00:00:00 | |
| DL1XH1-15 | 2026-08-30 06:06:36 | 49.83998 | 8.48587 | 109° | 5km/h | 21538m | 5.4m/s | -52.6°C | 3.9% | 46.1hPa | 2.6V | 03:41:15 | 01:36:32 | 00:00:00 | |
| BIOWL1-15 | 2026-08-30 06:06:35 | 49.83998 | 8.48589 | 113° | 2km/h | 21555m | 5.5m/s | -52.8°C | 0.8% | 46hPa | 2.6V | 03:41:44 | 01:36:36 | 00:00:00 | |
| DL1XH-west | 2026-08-30 06:06:33 | 49.83998 | 8.48588 | 357° | 2km/h | 21546m | 3.3m/s | -52.8°C | 0.9% | 46hPa | 2.7V | 03:41:44 | 01:36:34 | 00:00:00 | |
| HSKMA3-T | 2026-08-30 06:06:31 | 49.83998 | 8.48587 | 110° | 5km/h | 21538m | 5.4m/s | -52.7°C | 0.8% | 46.1hPa | 2.6V | 03:41:44 | 01:36:32 | 00:00:00 | |
| DO3DL | 2026-08-30 06:06:30 | 49.83998 | 8.48587 | 111° | 5km/h | 21538m | 5.4m/s | -52.7°C | 1.2% | 46.1hPa | 2.7V | 03:41:00 | 00:00:00 | 00:00:00 | |
| DM3KS-11 | 2026-08-30 06:06:28 | 49.84002 | 8.48577 | 129° | 11km/h | 21522m | 4.5m/s | -52.7°C | 1.2% | 46.2hPa | 2.7V | 00:00:00 | 00:00:00 | 00:00:00 | |
| DN1GJH-1 | 2026-08-30 06:06:27 | 49.84001 | 8.48577 | 130° | 13km/h | 21522m | 4.5m/s | -52.7°C | 0% | 0hPa | 2.7V | 00:00:00 | 00:00:00 | 00:00:00 | |
| DM0DOS-11 | 2026-08-30 06:06:26 | 49.84015 | 8.48554 | 117° | 11km/h | 21488m | 4.3m/s | -53°C | 4% | 46.5hPa | 2.7V | 03:41:25 | 01:36:22 | 00:00:00 | |
| BIOWL1-15 | 2026-08-30 06:06:24 | 49.84009 | 8.48566 | 135° | 11km/h | 21502m | 5.1m/s | -52.9°C | 0.8% | 46.3hPa | 2.6V | 03:41:44 | 01:36:25 | 00:00:00 | |
| DL1XH-west | 2026-08-30 06:06:23 | 49.84011 | 8.48562 | 129° | 13km/h | 21497m | 5.5m/s | -53°C | 0.9% | 46.4hPa | 2.6V | 03:41:44 | 01:36:24 | 00:00:00 | |
| SONDE2-11 | 2026-08-30 06:06:23 | 49.84011 | 8.48562 | 128° | 11km/h | 21497m | 5.5m/s | -53.0°C | 1.3% | 46.4hPa | 2.7V | 00:00:00 | 00:00:00 | 00:00:00 | |
| DL1XH-15 | 2026-08-30 06:06:20 | 49.84017 | 8.48529 | 101° | 18km/h | 21458m | 4.7m/s | -52.8°C | 3.9% | 46.7hPa | 2.7V | 03:41:31 | 01:36:16 | 00:00:00 | |
| HSKMA3-T | 2026-08-30 06:06:20 | 49.84016 | 8.48551 | 110° | 9km/h | 21483m | 5.7m/s | -53°C | 0.9% | 46.5hPa | 2.6V | 03:41:44 | 01:36:21 | 00:00:00 | |
| DJ2DS-15 | 2026-08-30 06:06:20 | 49.84016 | 8.48551 | 110° | 16km/h | 21483m | 5.6m/s | -52.9°C | 4.0% | 46.4hPa | 2.6V | 00:00:00 | 01:36:21 | 00:00:00 | |
| DL3AQ-11 | 2026-08-30 06:06:19 | 49.84016 | 8.48548 | 97° | 7km/h | 21478m | 4.7m/s | -52.9°C | 1.2% | 46.5hPa | 2.7V | 00:00:00 | 00:00:00 | 00:00:00 | |
| DC4HF-4 | 2026-08-30 06:06:17 | 49.84016 | 8.48540 | 91° | 11km/h | 21469m | 5.1m/s | -52.8°C | 1.2% | 46.6hPa | 2.7V | 00:00:00 | 00:00:00 | 00:00:00 | |
| DL1XH1-15 | 2026-08-30 06:06:16 | 49.84023 | 8.48501 | 115° | 18km/h | 21439m | 3.9m/s | -52.6°C | 3.7% | 46.8hPa | 2.7V | 03:41:35 | 01:36:12 | 00:00:00 | |
| BIOWL1-15 | 2026-08-30 06:06:16 | 49.84018 | 8.48522 | 104° | 18km/h | 21453m | 4.7m/s | -52.8°C | 0.8% | 46.7hPa | 2.6V | 03:41:44 | 01:36:15 | 00:00:00 | |
| DL1XH-west | 2026-08-30 06:06:12 | 49.84021 | 8.48508 | 111° | 18km/h | 21443m | 4.5m/s | -52.7°C | 0.7% | 46.8hPa | 2.6V | 03:41:44 | 01:36:13 | 00:00:00 | |
| HSKMA3-T | 2026-08-30 06:06:09 | 49.84028 | 8.48487 | 120° | 22km/h | 21429m | 4.9m/s | -52.6°C | 0.7% | 46.9hPa | 2.6V | 03:41:44 | 01:36:10 | 00:00:00 | |
| AU51GT2 | 2026-08-30 06:06:08 | 49.84031 | 8.48479 | 119° | 20km/h | 21424m | 3.9m/s | -52.5°C | 1.1% | 46.9hPa | 2.6V | 00:00:00 | 00:00:00 | 00:00:00 | |
| DB0NH | 2026-08-30 06:06:07 | 49.84033 | 8.48473 | 120° | 24km/h | 21420m | 4.6m/s | -52.5°C | 3.8% | 46.9hPa | 2.6V | 00:00:00 | 01:36:08 | 00:00:00 | |
| DM0DOS-11 | 2026-08-30 06:06:06 | 49.84037 | 8.48433 | 88° | 26km/h | 21391m | 4.2m/s | -53.1°C | 4% | 47.2hPa | 2.6V | 03:41:45 | 01:36:02 | 00:00:00 | |
| BIOWL1-15 | 2026-08-30 06:06:05 | 49.84037 | 8.48456 | 95° | 15km/h | 21406m | 4.2m/s | -52.8°C | 0.8% | 47.1hPa | 2.7V | 03:41:44 | 01:36:05 | 00:00:00 | |
| DL1XH-west | 2026-08-30 06:06:02 | 49.84037 | 8.48442 | 89° | 22km/h | 21396m | 5.1m/s | -53°C | 0.9% | 47.1hPa | 2.6V | 03:41:44 | 01:36:03 | 00:00:00 | |
| HSKMA3-T | 2026-08-30 06:05:58 | 49.84037 | 8.48404 | 92° | 22km/h | 21377m | 4.9m/s | -53.2°C | 0.8% | 47.3hPa | 2.6V | 03:44:17 | 01:35:59 | 00:00:00 | |
| DL1XH-15 | 2026-08-30 06:05:57 | 49.84041 | 8.48342 | 95° | 26km/h | 21348m | 5.5m/s | -53.4°C | 3.8% | 47.5hPa | 2.6V | 03:41:54 | 01:35:53 | 00:00:00 | |
| DL1ZP-14 | 2026-08-30 06:05:57 | 49.84038 | 8.48386 | 96° | 26km/h | 21367m | 5.2m/s | -53.2°C | 1.2% | 47.3hPa | 2.7V | 00:00:00 | 00:00:00 | 00:00:00 | |
| DL1XH1-15 | 2026-08-30 06:05:56 | 49.84042 | 8.48332 | 93° | 24km/h | 21342m | 4.7m/s | -53.3°C | 3.9% | 47.5hPa | 2.7V | 03:41:55 | 01:35:52 | 00:00:00 | |
| BIOWL1-15 | 2026-08-30 06:05:53 | 49.84040 | 8.48352 | 96° | 29km/h | 21353m | 4.4m/s | -53.3°C | 0.7% | 47.4hPa | 2.6V | 03:42:35 | 01:35:54 | 00:00:00 | |
| DL1XH-west | 2026-08-30 06:05:51 | 49.84041 | 8.48332 | 94° | 24km/h | 21342m | 4.7m/s | -53.3°C | 0.8% | 47.5hPa | 2.7V | 03:42:35 | 01:35:52 | 00:00:00 | |
| HSKMA3-T | 2026-08-30 06:05:47 | 49.84039 | 8.48292 | 74° | 27km/h | 21324m | 4m/s | -53.3°C | 0.8% | 47.7hPa | 2.6V | 03:44:17 | 01:35:48 | 00:00:00 | |
| DL1XH1-15 | 2026-08-30 06:05:46 | 49.84020 | 8.48234 | 65° | 31km/h | 21294m | 4m/s | -53.5°C | 4% | 47.9hPa | 2.6V | 03:42:05 | 01:35:42 | 00:00:00 | |
| BIOWL1-15 | 2026-08-30 06:05:42 | 49.84023 | 8.48245 | 63° | 31km/h | 21299m | 5.2m/s | -53.5°C | 0.8% | 47.8hPa | 2.6V | 03:42:35 | 01:35:43 | 00:00:00 | |
| DL1XH-west | 2026-08-30 06:05:41 | 49.84020 | 8.48234 | 65° | 31km/h | 21294m | 4m/s | -53.5°C | 0.9% | 47.9hPa | 2.6V | 03:42:35 | 01:35:42 | 00:00:00 | |
| HSKMA3-T | 2026-08-30 06:05:37 | 49.84010 | 8.48198 | 74° | 22km/h | 21275m | 4.2m/s | -53.7°C | 0.9% | 48hPa | 2.6V | 03:44:17 | 01:35:38 | 00:00:00 | |
| DL1XH-west | 2026-08-30 06:05:31 | 49.83991 | 8.48155 | 28° | 29km/h | 21247m | 4.1m/s | -53.8°C | 0.9% | 48.2hPa | 2.6V | 03:42:35 | 01:35:32 | 00:00:00 | |
| DL0LBS | 2026-08-30 06:05:30 | 49.83991 | 8.48155 | 29° | 29km/h | 21247m | 4.1m/s | -53.7°C | 1.3% | 48.2hPa | 2.6V | 03:42:00 | 00:00:00 | 00:00:00 | |
| HEMX73-11 | 2026-08-30 06:05:29 | 49.83984 | 8.48149 | 30° | 31km/h | 21243m | 4.3m/s | -53.7°C | 1.3% | 48.3hPa | 2.6V | 03:42:00 | 00:00:00 | 00:00:00 | |
| AM1SDL-15 | 2026-08-30 06:05:27 | 49.83965 | 8.48127 | 45° | 26km/h | 21229m | 3.8m/s | 0°C | 0% | 0hPa | 2.6V | 00:00:00 | 01:35:28 | 00:00:00 | |
| DM0DOS-11 | 2026-08-30 06:05:26 | 49.83932 | 8.48087 | 33° | 27km/h | 21201m | 5.3m/s | -53.4°C | 4.1% | 48.6hPa | 2.6V | 03:42:25 | 01:35:22 | 00:00:00 | |
| HSKMA3-T | 2026-08-30 06:05:26 | 49.83959 | 8.48118 | 45° | 29km/h | 21224m | 4.4m/s | -53.6°C | 1% | 48.4hPa | 2.6V | 03:44:17 | 01:35:27 | 00:00:00 | |
| BIOWL1-15 | 2026-08-30 06:05:22 | 49.83926 | 8.48082 | 31° | 29km/h | 21196m | 4m/s | -53.4°C | 1% | 48.6hPa | 2.6V | 03:42:35 | 01:35:21 | 00:00:00 | |
| DL1XH-west | 2026-08-30 06:05:21 | 49.83932 | 8.48087 | 33° | 27km/h | 21201m | 5.3m/s | -53.4°C | 1% | 48.6hPa | 2.6V | 03:42:35 | 01:35:22 | 00:00:00 | |
| DJ2DS-15 | 2026-08-30 06:05:20 | 49.83926 | 8.48082 | 32° | 24km/h | 21196m | 3.9m/s | -53.4°C | 4.1% | 48.6hPa | 2.6V | 00:00:00 | 01:35:21 | 00:00:00 | |
| DH7VM-15 | 2026-08-30 06:05:18 | 49.83920 | 8.48076 | 27° | 27km/h | 21192m | 4.0m/s | -53.4°C | 1.3% | 48.7hPa | 2.6V | 00:00:00 | 00:00:00 | 00:00:00 | |
| DO3DL | 2026-08-30 06:05:17 | 49.83914 | 8.48072 | 21° | 26km/h | 21188m | 5.5m/s | -53.4°C | 1.3% | 48.7hPa | 2.6V | 03:42:00 | 00:00:00 | 00:00:00 | |
| DL1XH1-15 | 2026-08-30 06:05:16 | 49.83878 | 8.48047 | 37° | 20km/h | 21155m | 5.4m/s | -53.1°C | 4% | 48.9hPa | 2.6V | 03:42:35 | 01:35:12 | 00:00:00 | |
| HSKMA3-T | 2026-08-30 06:05:15 | 49.83897 | 8.48065 | 19° | 22km/h | 21173m | 4.8m/s | -53.3°C | 0.9% | 48.8hPa | 2.6V | 03:44:17 | 01:35:16 | 00:00:00 | |
| DL1XH-15 | 2026-08-30 06:05:14 | 49.83871 | 8.48038 | 31° | 20km/h | 21145m | 4.2m/s | -53.1°C | 4% | 49hPa | 2.6V | 03:42:37 | 01:35:10 | 00:00:00 | |
| DL1XH-west | 2026-08-30 06:05:10 | 49.83875 | 8.48042 | 35° | 18km/h | 21149m | 4.9m/s | -53.1°C | 0.8% | 49hPa | 2.6V | 03:43:26 | 01:35:11 | 00:00:00 | |
| BIOWL1-15 | 2026-08-30 06:05:09 | 49.83871 | 8.48038 | 32° | 20km/h | 21145m | 4.2m/s | -53.1°C | 0.8% | 49hPa | 2.6V | 03:43:26 | 01:35:10 | 00:00:00 | |
| DL1XH1-15 | 2026-08-30 06:05:06 | 49.83828 | 8.48012 | 7° | 22km/h | 21106m | 4m/s | -52.9°C | 4% | 49.3hPa | 2.7V | 03:42:45 | 01:35:02 | 00:00:00 | |
| DO3MHA-11 | 2026-08-30 06:05:06 | 49.83856 | 8.48025 | 31° | 22km/h | 21130m | 4.7m/s | -52.9°C | 4.0% | 49.1hPa | 2.6V | 00:00:00 | 01:35:07 | 00:00:00 | |
| DM7RM-13 | 2026-08-30 06:05:05 | 49.83851 | 8.48020 | 26° | 26km/h | 21125m | 4.9m/s | -53.0°C | 1.3% | 49.2hPa | 2.6V | 03:43:00 | 00:00:00 | 00:00:00 | |
| DB0UT-7 | 2026-08-30 06:05:03 | 49.83839 | 8.48014 | 9° | 16km/h | 21115m | 5.0m/s | -52.9°C | 4.0% | 49.2hPa | 2.6V | 00:00:00 | 01:35:04 | 00:00:00 | |
| DL1XH-15 | 2026-08-30 06:05:02 | 49.83811 | 8.48001 | 39° | 15km/h | 21088m | 5.6m/s | -52.8°C | 4% | 49.5hPa | 2.7V | 03:42:49 | 01:34:58 | 00:00:00 | |
| DL1XH-west | 2026-08-30 06:04:59 | 49.83818 | 8.48008 | 25° | 20km/h | 21097m | 4.5m/s | -52.9°C | 0.9% | 49.4hPa | 2.6V | 03:43:26 | 01:35:00 | 00:00:00 | |
| BIOWL1-15 | 2026-08-30 06:04:58 | 49.83814 | 8.48005 | 33° | 16km/h | 21092m | 4m/s | -52.8°C | 0.8% | 49.4hPa | 2.6V | 03:43:26 | 01:34:59 | 00:00:00 | |
| HSKMA3-T | 2026-08-30 06:04:57 | 49.83811 | 8.48001 | 40° | 15km/h | 21088m | 5.6m/s | -52.8°C | 0.9% | 49.5hPa | 2.7V | 03:44:17 | 01:34:58 | 00:00:00 | |
| DL1XH1-15 | 2026-08-30 06:04:56 | 49.83791 | 8.47979 | 18° | 24km/h | 21060m | 3.5m/s | -52.7°C | 3.8% | 49.7hPa | 2.7V | 03:42:55 | 01:34:52 | 00:00:00 | |
| DM3KS-11 | 2026-08-30 06:04:55 | 49.83806 | 8.47995 | 44° | 11km/h | 21078m | 4.0m/s | -52.7°C | 1.2% | 49.5hPa | 2.6V | 00:00:00 | 00:00:00 | 00:00:00 | |
| DL1ZP-14 | 2026-08-30 06:04:54 | 49.83804 | 8.47991 | 42° | 13km/h | 21074m | 4.3m/s | -52.7°C | 1.2% | 49.5hPa | 2.6V | 00:00:00 | 00:00:00 | 00:00:00 | |
| HTAHTA | 2026-08-30 06:04:53 | 49.83796 | 8.47983 | 29° | 20km/h | 21064m | 4.3m/s | 0°C | -1.0% | 49.6hPa | 2.6V | 00:00:00 | 00:00:00 | 00:00:00 | |
| DL1XH-15 | 2026-08-30 06:04:52 | 49.83768 | 8.47981 | 337° | 20km/h | 21042m | 3.9m/s | -52.6°C | 3.9% | 49.8hPa | 2.6V | 03:42:59 | 01:34:48 | 00:00:00 | |
| DL1XH-west | 2026-08-30 06:04:49 | 49.83779 | 8.47977 | 355° | 24km/h | 21051m | 5.4m/s | -52.8°C | 0.8% | 49.7hPa | 2.6V | 03:43:26 | 01:34:50 | 00:00:00 | |
| BIOWL1-15 | 2026-08-30 06:04:48 | 49.83774 | 8.47979 | 344° | 22km/h | 21046m | 4.5m/s | -52.7°C | 0.8% | 49.8hPa | 2.6V | 03:43:26 | 01:34:49 | 00:00:00 | |
| HSKMA3-T | 2026-08-30 06:04:47 | 49.83769 | 8.47981 | 338° | 20km/h | 21042m | 3.9m/s | -52.7°C | 0.8% | 49.8hPa | 2.6V | 03:44:17 | 01:34:48 | 00:00:00 | |
| DL1XH1-15 | 2026-08-30 06:04:46 | 49.83747 | 8.47975 | 29° | 18km/h | 21014m | 5.2m/s | -52.6°C | 3.9% | 50hPa | 2.7V | 03:43:05 | 01:34:42 | 00:00:00 | |
| DO3MHA-11 | 2026-08-30 06:04:46 | 49.83764 | 8.47984 | 342° | 16km/h | 21038m | 4.1m/s | -52.5°C | 3.9% | 49.8hPa | 2.6V | 00:00:00 | 01:34:47 | 00:00:00 | |
| DL1KLB | 2026-08-30 06:04:45 | 49.83764 | 8.47984 | 343° | 16km/h | 21038m | 4.2m/s | -52.6°C | 1.2% | 49.8hPa | 2.6V | 03:43:00 | 00:00:00 | 00:00:00 | |
| DL3AQ-11 | 2026-08-30 06:04:44 | 49.83754 | 8.47982 | 34° | 15km/h | 21024m | 4.3m/s | -52.6°C | 1.2% | 50.0hPa | 2.6V | 00:00:00 | 00:00:00 | 00:00:00 | |
| DL4BBY-15 | 2026-08-30 06:04:43 | 49.83754 | 8.47982 | 35° | 15km/h | 21023m | 4.2m/s | -53.7°C | 0% | 0hPa | 2.6V | 00:00:00 | 00:00:00 | 00:00:00 | |
| DL1XH-15 | 2026-08-30 06:04:42 | 49.83731 | 8.47967 | 8° | 15km/h | 20995m | 5.7m/s | -52.7°C | 3.9% | 50.1hPa | 2.6V | 03:43:09 | 01:34:38 | 00:00:00 | |
| DL1XH-west | 2026-08-30 06:04:39 | 49.83739 | 8.47970 | 14° | 18km/h | 21005m | 4.2m/s | -52.6°C | 0.8% | 50.1hPa | 2.7V | 03:43:26 | 01:34:40 | 00:00:00 | |
| BIOWL1-15 | 2026-08-30 06:04:37 | 49.83731 | 8.47967 | 9° | 15km/h | 20995m | 5.7m/s | -52.7°C | 0.8% | 50.1hPa | 2.6V | 03:43:26 | 01:34:38 | 00:00:00 | |
| DO3MHA-11 | 2026-08-30 06:04:36 | 49.83728 | 8.47967 | 2° | 15km/h | 20990m | 4.2m/s | -52.7°C | 3.9% | 50.1hPa | 2.6V | 00:00:00 | 01:34:37 | 00:00:00 | |
| DB0NH | 2026-08-30 06:04:35 | 49.83724 | 8.47967 | 351° | 15km/h | 20986m | 4.0m/s | -52.6°C | 3.9% | 50.2hPa | 2.6V | 03:43:00 | 01:34:36 | 00:00:00 | |
| DL8DAS-14 | 2026-08-30 06:04:34 | 49.83721 | 8.47968 | 340° | 15km/h | 20981m | 5.3m/s | -52.7°C | 1.2% | 50.3hPa | 2.6V | 00:00:00 | 00:00:00 | 00:00:00 | |
| DB0UT-7 | 2026-08-30 06:04:33 | 49.83717 | 8.47971 | 335° | 15km/h | 20976m | 5.1m/s | -52.7°C | 3.9% | 50.3hPa | 2.6V | 00:00:00 | 00:00:00 | 00:00:00 | |
| DL1XH-15 | 2026-08-30 06:04:32 | 49.83698 | 8.47978 | 21° | 13km/h | 20949m | 4.4m/s | -52.8°C | 3.9% | 50.5hPa | 2.6V | 03:43:19 | 01:34:28 | 00:00:00 | |
| HSKMA3-T | 2026-08-30 06:04:30 | 49.83706 | 8.47979 | 341° | 13km/h | 20963m | 5.1m/s | -52.8°C | 0.8% | 50.4hPa | 2.7V | 03:44:17 | 01:34:31 | 00:00:00 | |
| DL1XH-west | 2026-08-30 06:04:28 | 49.83700 | 8.47980 | 16° | 11km/h | 20953m | 4.3m/s | -52.8°C | 0.7% | 50.5hPa | 2.7V | 03:43:26 | 01:34:29 | 00:00:00 | |
| BIOWL1-15 | 2026-08-30 06:04:26 | 49.83694 | 8.47976 | 16° | 15km/h | 20944m | 5.5m/s | -52.8°C | 0.8% | 50.6hPa | 2.6V | 03:43:26 | 01:34:27 | 00:00:00 | |
| DO3MHA-11 | 2026-08-30 06:04:26 | 49.83694 | 8.47976 | 17° | 16km/h | 20944m | 5.4m/s | -52.8°C | 3.9% | 50.5hPa | 2.6V | 00:00:00 | 01:34:27 | 00:00:00 | |
| DJ2DS-15 | 2026-08-30 06:04:25 | 49.83690 | 8.47975 | 8° | 18km/h | 20939m | 4.8m/s | -52.8°C | 1.2% | 50.6hPa | 2.7V | 00:00:00 | 00:00:00 | 00:00:00 | |
| DM3KS-11 | 2026-08-30 06:04:24 | 49.83685 | 8.47974 | 359° | 18km/h | 20934m | 4.2m/s | -52.8°C | 1.2% | 50.6hPa | 2.7V | 00:00:00 | 00:00:00 | 00:00:00 | |
| DL1ZP-14 | 2026-08-30 06:04:23 | 49.83680 | 8.47975 | 353° | 18km/h | 20930m | 4.5m/s | -52.8°C | 1.2% | 50.7hPa | 2.7V | 00:00:00 | 00:00:00 | 00:00:00 | |
| DL1XH-15 | 2026-08-30 06:04:22 | 49.83660 | 8.47996 | 314° | 18km/h | 20900m | 4.4m/s | -53°C | 3.9% | 50.9hPa | 2.7V | 03:43:29 | 01:34:18 | 00:00:00 | |
| DL1XH-west | 2026-08-30 06:04:18 | 49.83663 | 8.47991 | 314° | 18km/h | 20905m | 5.3m/s | -52.8°C | 0.8% | 50.9hPa | 2.7V | 03:44:17 | 01:34:19 | 00:00:00 | |
| DD1CC2-15 | 2026-08-30 06:04:17 | 49.83663 | 8.47991 | 314° | 18km/h | 20905m | 5.3m/s | -52.8°C | 1.3% | 50.9hPa | 2.6V | 00:00:00 | 00:00:00 | 00:00:00 | |
| DM0DOS-11 | 2026-08-30 06:04:16 | 49.83644 | 8.48012 | 341° | 16km/h | 20871m | 5.2m/s | -53.2°C | 3.9% | 51.1hPa | 2.6V | 03:43:35 | 01:34:12 | 00:00:00 | |
| BIOWL1-15 | 2026-08-30 06:04:15 | 49.83655 | 8.48004 | 319° | 13km/h | 20891m | 5.8m/s | -53°C | 0.8% | 51hPa | 2.6V | 03:44:17 | 01:34:16 | 00:00:00 | |
| DH7VM-15 | 2026-08-30 06:04:14 | 49.83654 | 8.48004 | 320° | 13km/h | 20891m | 5.8m/s | -53.0°C | 1.2% | 51.0hPa | 2.7V | 00:00:00 | 00:00:00 | 00:00:00 | |
| DL4BBY-15 | 2026-08-30 06:04:13 | 49.83650 | 8.48008 | 339° | 18km/h | 20881m | 4.2m/s | -54.1°C | 0% | 0hPa | 2.7V | 00:00:00 | 00:00:00 | 00:00:00 | |
| DL1XH-15 | 2026-08-30 06:04:12 | 49.83628 | 8.48025 | 317° | 15km/h | 20853m | 4.7m/s | -53.2°C | 4% | 0hPa | 2.7V | 03:43:39 | 01:34:08 | 00:00:00 | |
| DL1XH-west | 2026-08-30 06:04:08 | 49.83632 | 8.48021 | 325° | 16km/h | 20858m | 5.5m/s | -53.2°C | 0.8% | 51.2hPa | 2.7V | 03:44:17 | 01:34:09 | 00:00:00 | |
| BIOWL1-15 | 2026-08-30 06:04:07 | 49.83623 | 8.48033 | 317° | 15km/h | 20844m | 4.4m/s | -53.3°C | 0.9% | 51.3hPa | 2.6V | 03:44:17 | 01:34:06 | 00:00:00 | |
| DL1XH1-15 | 2026-08-30 06:04:06 | 49.83609 | 8.48047 | 338° | 15km/h | 20826m | 4.3m/s | -53.4°C | 3.9% | 51.5hPa | 2.7V | 03:43:45 | 01:34:02 | 00:00:00 | |
| HSKMA3-T | 2026-08-30 06:04:06 | 49.83626 | 8.48029 | 315° | 15km/h | 20848m | 3.7m/s | -53.2°C | 0.9% | 51.3hPa | 2.7V | 03:44:17 | 01:34:07 | 00:00:00 | |
| DO3MHA-11 | 2026-08-30 06:04:06 | 49.83626 | 8.48029 | 316° | 13km/h | 20849m | 3.7m/s | -53.2°C | 4.0% | 51.3hPa | 2.7V | 00:00:00 | 01:34:07 | 00:00:00 | |
| DB0NH | 2026-08-30 06:04:05 | 49.83623 | 8.48033 | 317° | 22km/h | 20845m | 4.3m/s | -53.2°C | 4.0% | 51.3hPa | 2.7V | 00:00:00 | 01:34:06 | 00:00:00 | |
| DL3AQ-11 | 2026-08-30 06:04:04 | 49.83617 | 8.48041 | 327° | 16km/h | 20835m | 4.8m/s | -53.3°C | 1.3% | 51.4hPa | 2.7V | 00:00:00 | 00:00:00 | 00:00:00 | |
| DB0UT-7 | 2026-08-30 06:04:03 | 49.83617 | 8.48041 | 328° | 22km/h | 20835m | 4.8m/s | -53.3°C | 4.0% | 51.4hPa | 2.7V | 03:43:00 | 01:34:04 | 00:00:00 | |
| DL1XH-15 | 2026-08-30 06:04:02 | 49.83599 | 8.48048 | 7° | 13km/h | 20807m | 4.6m/s | -53.3°C | 3.9% | 0hPa | 2.7V | 03:43:49 | 01:33:58 | 00:00:00 | |
| DL1XH-west | 2026-08-30 06:03:57 | 49.83599 | 8.48048 | 7° | 13km/h | 20807m | 4.6m/s | -53.3°C | 0.8% | 51.6hPa | 2.7V | 03:44:17 | 01:33:58 | 00:00:00 | |
| DL1XH1-15 | 2026-08-30 06:03:56 | 49.83567 | 8.48040 | 11° | 22km/h | 20778m | 4.2m/s | -53.4°C | 3.9% | 51.9hPa | 2.7V | 03:43:55 | 01:33:52 | 00:00:00 | |
| BIOWL1-15 | 2026-08-30 06:03:54 | 49.83584 | 8.48045 | 8° | 26km/h | 20793m | 4.7m/s | -53.5°C | 0.9% | 51.8hPa | 2.6V | 03:44:17 | 01:33:55 | 00:00:00 | |
| HSKMA3-T | 2026-08-30 06:03:53 | 49.83578 | 8.48044 | 9° | 24km/h | 20788m | 5.6m/s | -53.5°C | 0.9% | 51.8hPa | 2.6V | 03:44:17 | 01:33:54 | 00:00:00 | |
| DL1XH-west | 2026-08-30 06:03:46 | 49.83538 | 8.48031 | 15° | 20km/h | 20754m | 5.5m/s | -53.8°C | 0.9% | 52.1hPa | 2.7V | 03:44:17 | 01:33:47 | 00:00:00 | |
| BIOWL1-15 | 2026-08-30 06:03:45 | 49.83527 | 8.48025 | 22° | 16km/h | 20740m | 4.1m/s | -53.7°C | 0.9% | 52.2hPa | 2.6V | 03:44:17 | 01:33:44 | 00:00:00 | |
| DL4BBY-15 | 2026-08-30 06:03:43 | 49.83527 | 8.48025 | 23° | 26km/h | 20740m | 4.0m/s | -54.8°C | 0% | 0hPa | 2.6V | 00:00:00 | 00:00:00 | 00:00:00 | |
| DL1XH-15 | 2026-08-30 06:03:42 | 49.83485 | 8.48010 | 8° | 33km/h | 20709m | 4.5m/s | -53.7°C | 4.1% | 0hPa | 2.6V | 03:44:09 | 01:33:38 | 00:00:00 | |
| HSKMA3-T | 2026-08-30 06:03:42 | 49.83522 | 8.48022 | 19° | 22km/h | 20735m | 5.6m/s | -53.8°C | 0.9% | 52.2hPa | 2.6V | 03:44:17 | 01:33:43 | 00:00:00 | |
| DF1GD-15 | 2026-08-30 06:03:41 | 49.83522 | 8.48022 | 20° | 22km/h | 20735m | 5.6m/s | -53.8°C | 1.3% | 52.2hPa | 2.6V | 03:44:00 | 00:00:00 | 00:00:00 | |
| DL3AQ-11 | 2026-08-30 06:03:40 | 49.83501 | 8.48014 | 11° | 31km/h | 20719m | 5.1m/s | -53.8°C | 1.3% | 52.3hPa | 2.6V | 00:00:00 | 00:00:00 | 00:00:00 | |
| DD1CC8 | 2026-08-30 06:03:39 | 49.83501 | 8.48014 | 11° | 31km/h | 20719m | 5.1m/s | -53.8°C | 1.3% | 52.3hPa | 2.6V | 00:00:00 | 00:00:00 | 00:00:00 | |
| DO1YAY-16 | 2026-08-30 06:03:38 | 49.83485 | 8.48010 | 8° | 33km/h | 20709m | 4.6m/s | -53.7°C | 1.3% | 52.5hPa | 2.6V | 00:00:00 | 00:00:00 | 00:00:00 | |
| DL1XH1-15 | 2026-08-30 06:03:37 | 49.83436 | 8.48003 | 353° | 22km/h | 20680m | 4.8m/s | -53.6°C | 4.1% | 52.7hPa | 2.6V | 03:44:15 | 01:33:32 | 00:00:00 | |
| DL1XH-west | 2026-08-30 06:03:36 | 49.83476 | 8.48008 | 9° | 37km/h | 20704m | 5.2m/s | -53.7°C | 1% | 52.5hPa | 2.6V | 03:44:17 | 01:33:37 | 00:00:00 | |
| BIOWL1-15 | 2026-08-30 06:03:33 | 49.83450 | 8.48003 | 3° | 31km/h | 20690m | 4.3m/s | -53.6°C | 0.9% | 52.6hPa | 2.7V | 03:44:17 | 01:33:34 | 00:00:00 | |
| HSKMA3-T | 2026-08-30 06:03:31 | 49.83436 | 8.48003 | 354° | 22km/h | 20680m | 4.8m/s | -53.6°C | 0.9% | 52.7hPa | 2.6V | 03:44:17 | 01:33:32 | 00:00:00 | |
| SFWM-10 | 2026-08-30 06:03:30 | 49.83436 | 8.48003 | 355° | 22km/h | 20680m | 4.8m/s | -53.6°C | 1.3% | 52.7hPa | 2.6V | 03:44:00 | 00:00:00 | 00:00:00 | |
| DL8DAS-15 | 2026-08-30 06:03:29 | 49.83430 | 8.48004 | 352° | 20km/h | 20675m | 4.0m/s | -53.6°C | 1.3% | 52.7hPa | 2.6V | 00:00:00 | 00:00:00 | 00:00:00 | |
| DF7PN | 2026-08-30 06:03:28 | 49.83413 | 8.48007 | 1° | 27km/h | 20661m | 4.9m/s | -53.6°C | 1.3% | 52.9hPa | 2.6V | 00:00:00 | 00:00:00 | 00:00:00 | |
| DL1XH1-15 | 2026-08-30 06:03:26 | 49.83374 | 8.47996 | 12° | 16km/h | 20634m | 4.7m/s | -53.4°C | 4% | 53.1hPa | 2.6V | 03:44:25 | 01:33:22 | 00:00:00 | |
| DL1XH-west | 2026-08-30 06:03:25 | 49.83398 | 8.48004 | 9° | 31km/h | 20653m | 3.8m/s | -53.5°C | 0.9% | 52.9hPa | 2.6V | 03:45:08 | 01:33:26 | 00:00:00 | |
| BIOWL1-15 | 2026-08-30 06:03:22 | 49.83379 | 8.47998 | 15° | 20km/h | 20639m | 4.9m/s | -53.4°C | 0.9% | 53hPa | 2.7V | 03:45:08 | 01:33:23 | 00:00:00 | |
| HSKMA3-T | 2026-08-30 06:03:20 | 49.83370 | 8.47995 | 10° | 16km/h | 20629m | 4m/s | -53.4°C | 0.8% | 53.1hPa | 2.6V | 04:06:23 | 01:33:21 | 00:00:00 | |
| DJ2DS-15 | 2026-08-30 06:03:20 | 49.83370 | 8.47995 | 11° | 18km/h | 20630m | 4.0m/s | -53.3°C | 3.9% | 53.1hPa | 2.6V | 00:00:00 | 01:33:21 | 00:00:00 | |
| DG1MJG | 2026-08-30 06:03:18 | 49.83361 | 8.47992 | 9° | 22km/h | 20621m | 5.3m/s | 0°C | 0% | 0hPa | 2.7V | 00:00:00 | 00:00:00 | 00:00:00 | |
| DC4HF-4 | 2026-08-30 06:03:17 | 49.83349 | 8.47989 | 10° | 24km/h | 20611m | 3.8m/s | -53.4°C | 1.2% | 53.3hPa | 2.7V | 00:00:00 | 00:00:00 | 00:00:00 | |
| DL1XH1-15 | 2026-08-30 06:03:16 | 49.83323 | 8.47977 | 22° | 20km/h | 20589m | 5.3m/s | -53.6°C | 3.9% | 53.5hPa | 2.7V | 03:44:35 | 01:33:12 | 00:00:00 | |
| DL1XH-west | 2026-08-30 06:03:14 | 49.83338 | 8.47985 | 16° | 22km/h | 20602m | 5.1m/s | -53.5°C | 0.8% | 53.3hPa | 2.6V | 03:45:08 | 01:33:15 | 00:00:00 | |
| NBG1-10 | 2026-08-30 06:03:13 | 49.83332 | 8.47983 | 21° | 15km/h | 20597m | 4.3m/s | -53.5°C | 3.9% | 53.3hPa | 2.7V | 00:00:00 | 01:33:14 | 00:00:00 | |
| DL1XH-15 | 2026-08-30 06:03:12 | 49.83305 | 8.47969 | 3° | 15km/h | 20569m | 5.2m/s | -53.8°C | 4% | 0hPa | 2.7V | 03:44:39 | 01:33:08 | 00:00:00 | |
| BIOWL1-15 | 2026-08-30 06:03:11 | 49.83323 | 8.47977 | 22° | 20km/h | 20589m | 5.3m/s | -53.6°C | 0.8% | 53.5hPa | 2.7V | 03:45:08 | 01:33:12 | 00:00:00 | |
| HSKMA3-T | 2026-08-30 06:03:09 | 49.83313 | 8.47972 | 16° | 20km/h | 20579m | 4.2m/s | -53.7°C | 0.8% | 53.5hPa | 2.6V | 04:06:23 | 01:33:10 | 00:00:00 | |
| DD1CC8 | 2026-08-30 06:03:08 | 49.83309 | 8.47970 | 12° | 16km/h | 20575m | 5.2m/s | -53.8°C | 1.3% | 53.5hPa | 2.7V | 00:00:00 | 00:00:00 | 00:00:00 | |
| DO1YAY-16 | 2026-08-30 06:03:07 | 49.83302 | 8.47969 | 354° | 11km/h | 20565m | 4.3m/s | -53.8°C | 1.3% | 53.7hPa | 2.7V | 00:00:00 | 00:00:00 | 00:00:00 | |
| DL1XH1-15 | 2026-08-30 06:03:06 | 49.83283 | 8.47975 | 342° | 15km/h | 20542m | 5m/s | -53.8°C | 3.9% | 53.8hPa | 2.7V | 03:44:45 | 01:33:02 | 00:00:00 | |
| DL1XH-west | 2026-08-30 06:03:03 | 49.83291 | 8.47972 | 348° | 16km/h | 20551m | 4.1m/s | -53.8°C | 0.8% | 53.8hPa | 2.6V | 03:45:08 | 01:33:04 | 00:00:00 | |
| DJ2KF-10 | 2026-08-30 06:03:03 | 49.83291 | 8.47972 | 349° | 13km/h | 20551m | 4.0m/s | -53.7°C | 4.0% | 53.7hPa | 2.6V | 00:00:00 | 01:33:04 | 00:00:00 | |
| DL1XH-15 | 2026-08-30 06:03:02 | 49.83272 | 8.47981 | 341° | 13km/h | 20522m | 5.2m/s | -54°C | 4% | 0hPa | 2.6V | 03:44:49 | 01:32:58 | 00:00:00 | |
| BIOWL1-15 | 2026-08-30 06:03:01 | 49.83283 | 8.47975 | 343° | 15km/h | 20542m | 5m/s | -53.8°C | 0.8% | 53.8hPa | 2.7V | 03:45:08 | 01:33:02 | 00:00:00 | |
| HSKMA3-T | 2026-08-30 06:02:58 | 49.83275 | 8.47980 | 338° | 11km/h | 20527m | 4.6m/s | -53.9°C | 0.8% | 54hPa | 2.6V | 04:06:23 | 01:32:59 | 00:00:00 | |
| DF7PN | 2026-08-30 06:02:57 | 49.83269 | 8.47983 | 339° | 13km/h | 20518m | 4.0m/s | -54.1°C | 1.3% | 54.0hPa | 2.7V | 00:00:00 | 00:00:00 | 00:00:00 | |
| DL1XH1-15 | 2026-08-30 06:02:56 | 49.83256 | 8.48001 | 312° | 15km/h | 20495m | 5.2m/s | -54.1°C | 4.1% | 54.2hPa | 2.7V | 03:44:55 | 01:32:52 | 00:00:00 | |
| BIOWL1-15 | 2026-08-30 06:02:54 | 49.83254 | 8.48005 | 321° | 15km/h | 20490m | 4.5m/s | -54.1°C | 0.9% | 54.3hPa | 2.7V | 03:45:08 | 01:32:51 | 00:00:00 | |
| DL1XH-west | 2026-08-30 06:02:53 | 49.83261 | 8.47993 | 308° | 13km/h | 20504m | 4.7m/s | -54°C | 0.9% | 54.1hPa | 2.6V | 03:45:08 | 01:32:54 | 00:00:00 | |
| DL1XH-15 | 2026-08-30 06:02:52 | 49.83247 | 8.48013 | 318° | 7km/h | 20476m | 5.4m/s | -54.1°C | 4.1% | 0hPa | 2.6V | 03:44:59 | 01:32:48 | 00:00:00 | |
| HSKMA3-T | 2026-08-30 06:02:47 | 49.83247 | 8.48013 | 319° | 7km/h | 20476m | 5.4m/s | -54.1°C | 0.9% | 54.4hPa | 2.6V | 04:06:23 | 01:32:48 | 00:00:00 | |
| DL1XH1-15 | 2026-08-30 06:02:46 | 49.83234 | 8.48011 | 8° | 16km/h | 20449m | 3.6m/s | -54.2°C | 4.2% | 54.6hPa | 2.6V | 03:45:05 | 01:32:42 | 00:00:00 | |
| DL1XH-west | 2026-08-30 06:02:43 | 49.83241 | 8.48014 | 15° | 13km/h | 20458m | 5.3m/s | -54.2°C | 1% | 54.5hPa | 2.6V | 03:45:08 | 01:32:44 | 00:00:00 | |
| DL4BBY-15 | 2026-08-30 06:02:43 | 49.83241 | 8.48014 | 16° | 16km/h | 20458m | 5.3m/s | -55.3°C | 0% | 0hPa | 2.6V | 00:00:00 | 00:00:00 | 00:00:00 | |
| DL1KLB | 2026-08-30 06:02:42 | 49.83241 | 8.48014 | 16° | 13km/h | 20458m | 5.3m/s | -54.2°C | 1.3% | 54.5hPa | 2.6V | 03:45:00 | 00:00:00 | 00:00:00 | |
| DL1XH-15 | 2026-08-30 06:02:41 | 49.83218 | 8.48015 | 338° | 13km/h | 20427m | 5m/s | -54.2°C | 4.1% | 0hPa | 2.6V | 03:45:10 | 01:32:37 | 00:00:00 | |
| BIOWL1-15 | 2026-08-30 06:02:41 | 49.83226 | 8.48011 | 352° | 13km/h | 20440m | 5.1m/s | -54.3°C | 1% | 54.7hPa | 2.7V | 03:45:08 | 01:32:40 | 00:00:00 | |
| DC4HF-4 | 2026-08-30 06:02:41 | 49.83230 | 8.48011 | 2° | 15km/h | 20445m | 5.1m/s | -54.3°C | 1.3% | 54.6hPa | 2.6V | 00:00:00 | 00:00:00 | 00:00:00 | |
| NBG1-10 | 2026-08-30 06:02:40 | 49.83230 | 8.48010 | 3° | 18km/h | 20445m | 5.0m/s | -54.2°C | 4.2% | 54.6hPa | 2.6V | 00:00:00 | 01:32:41 | 00:00:00 | |
| DF1GD-15 | 2026-08-30 06:02:39 | 49.83230 | 8.48010 | 4° | 15km/h | 20445m | 5.1m/s | -54.3°C | 1.4% | 54.7hPa | 2.6V | 03:45:00 | 00:00:00 | 00:00:00 | |
| DD1CC8 | 2026-08-30 06:02:37 | 49.83218 | 8.48015 | 338° | 11km/h | 20427m | 5.0m/s | -54.3°C | 1.3% | 54.8hPa | 2.6V | 00:00:00 | 00:00:00 | 00:00:00 | |
| DL1XH1-15 | 2026-08-30 06:02:36 | 49.83199 | 8.48012 | 33° | 15km/h | 20402m | 5.3m/s | -54.3°C | 4.1% | 55hPa | 2.6V | 03:45:15 | 01:32:32 | 00:00:00 | |
| DL1XH-west | 2026-08-30 06:02:32 | 49.83203 | 8.48015 | 21° | 16km/h | 20407m | 5m/s | -54.3°C | 0.9% | 55hPa | 2.6V | 03:45:59 | 01:32:33 | 00:00:00 | |
| BIOWL1-15 | 2026-08-30 06:02:28 | 49.83189 | 8.48001 | 28° | 20km/h | 20388m | 5.5m/s | -54.2°C | 1% | 55.1hPa | 2.7V | 03:45:59 | 01:32:29 | 00:00:00 | |
| DJ2KF-10 | 2026-08-30 06:02:28 | 49.83189 | 8.48001 | 29° | 20km/h | 20389m | 5.4m/s | -54.1°C | 4.2% | 55.1hPa | 2.7V | 00:00:00 | 01:32:29 | 00:00:00 | |
| DL1XH1-15 | 2026-08-30 06:02:26 | 49.83155 | 8.47995 | 3° | 20km/h | 20355m | 4.8m/s | -54.3°C | 4.2% | 55.4hPa | 2.6V | 03:45:25 | 01:32:22 | 00:00:00 | |
| DL1XH-west | 2026-08-30 06:02:22 | 49.83160 | 8.47995 | 358° | 20km/h | 20360m | 5.5m/s | -54.4°C | 1% | 55.4hPa | 2.7V | 03:45:59 | 01:32:23 | 00:00:00 | |
| HSKMA3-T | 2026-08-30 06:02:21 | 49.83155 | 8.47995 | 3° | 20km/h | 20355m | 4.8m/s | -54.3°C | 1% | 55.4hPa | 2.6V | 04:06:23 | 01:32:22 | 00:00:00 | |
| BIOWL1-15 | 2026-08-30 06:02:18 | 49.83142 | 8.47992 | 19° | 15km/h | 20341m | 5.1m/s | -54.2°C | 1% | 55.5hPa | 2.7V | 03:45:59 | 01:32:19 | 00:00:00 | |
| DL1XH1-15 | 2026-08-30 06:02:16 | 49.83112 | 8.47970 | 20° | 20km/h | 20308m | 4.7m/s | -54.2°C | 4.1% | 55.9hPa | 2.7V | 03:45:35 | 01:32:12 | 00:00:00 | |
| DL1XH-west | 2026-08-30 06:02:12 | 49.83117 | 8.47973 | 23° | 22km/h | 20313m | 5.5m/s | -54.2°C | 0.9% | 55.8hPa | 2.7V | 03:45:59 | 01:32:13 | 00:00:00 | |
| DD1CC2-15 | 2026-08-30 06:02:11 | 49.83117 | 8.47973 | 24° | 22km/h | 20313m | 5.5m/s | -54.2°C | 1.3% | 55.8hPa | 2.7V | 00:00:00 | 00:00:00 | 00:00:00 | |
| DL8DAS-15 | 2026-08-30 06:02:09 | 49.83106 | 8.47968 | 19° | 22km/h | 20304m | 4.0m/s | -54.2°C | 1.3% | 55.9hPa | 2.7V | 00:00:00 | 00:00:00 | 00:00:00 | |
| DB0UT-9 | 2026-08-30 06:02:08 | 49.83095 | 8.47962 | 15° | 26km/h | 20294m | 4.9m/s | -54.2°C | 1.3% | 56.0hPa | 2.7V | 03:45:00 | 00:00:00 | 00:00:00 | |
| NBG1-10 | 2026-08-30 06:02:07 | 49.83088 | 8.47960 | 14° | 22km/h | 20290m | 3.5m/s | -54.1°C | 4.1% | 55.9hPa | 2.7V | 03:45:00 | 01:32:08 | 00:00:00 | |
| BIOWL1-15 | 2026-08-30 06:02:07 | 49.83088 | 8.47960 | 13° | 26km/h | 20290m | 3.6m/s | -54.1°C | 0.9% | 56hPa | 2.7V | 03:45:59 | 01:32:08 | 00:00:00 | |
| DM0DOS-11 | 2026-08-30 06:02:06 | 49.83062 | 8.47953 | 5° | 18km/h | 20261m | 4.9m/s | -54.2°C | 4.1% | 56.2hPa | 2.7V | 03:45:45 | 01:32:02 | 00:00:00 | |
| HSKMA3-T | 2026-08-30 06:02:03 | 49.83069 | 8.47954 | 7° | 13km/h | 20271m | 4.5m/s | -54.1°C | 0.8% | 56.1hPa | 2.6V | 04:06:23 | 01:32:04 | 00:00:00 | |
| DL1XH-west | 2026-08-30 06:02:01 | 49.83062 | 8.47953 | 6° | 18km/h | 20261m | 4.9m/s | -54.2°C | 0.9% | 56.2hPa | 2.7V | 03:45:59 | 01:32:02 | 00:00:00 | |
| BIOWL1-15 | 2026-08-30 06:01:59 | 49.83042 | 8.47951 | 2° | 20km/h | 20244m | 4.7m/s | -54.4°C | 0.9% | 56.4hPa | 2.6V | 03:45:59 | 01:31:58 | 00:00:00 | |
| DL8DAS-14 | 2026-08-30 06:01:59 | 49.83047 | 8.47951 | 1° | 20km/h | 20248m | 5.1m/s | -54.3°C | 1.3% | 56.4hPa | 2.6V | 00:00:00 | 00:00:00 | 00:00:00 | |
| DL8OAI-8 | 2026-08-30 06:01:58 | 49.83047 | 8.47951 | 3° | 20km/h | 20249m | 5.1m/s | -54.3°C | 1.3% | 56.4hPa | 2.6V | 00:00:00 | 00:00:00 | 00:00:00 | |
| DL1XH1-15 | 2026-08-30 06:01:56 | 49.83003 | 8.47950 | 355° | 24km/h | 20216m | 5.1m/s | -54.7°C | 4.3% | 56.6hPa | 2.6V | 03:45:55 | 01:31:52 | 00:00:00 | |
| HSKMA3-T | 2026-08-30 06:01:52 | 49.83009 | 8.47949 | 360° | 27km/h | 20221m | 4.8m/s | -54.7°C | 0.9% | 56.6hPa | 2.6V | 04:06:23 | 01:31:53 | 00:00:00 | |
| DL1XH-west | 2026-08-30 06:01:50 | 49.82997 | 8.47950 | 352° | 20km/h | 20211m | 4.5m/s | -54.7°C | 1% | 56.7hPa | 2.7V | 03:45:59 | 01:31:51 | 00:00:00 | |
| BIOWL1-15 | 2026-08-30 06:01:46 | 49.82977 | 8.47953 | 4° | 20km/h | 20193m | 4m/s | -54.6°C | 0.9% | 56.9hPa | 2.6V | 03:46:50 | 01:31:47 | 00:00:00 | |
| DL1XH-west | 2026-08-30 06:01:39 | 49.82942 | 8.47947 | 3° | 26km/h | 20161m | 3.3m/s | -54.5°C | 0.9% | 57.2hPa | 2.7V | 03:46:50 | 01:31:40 | 00:00:00 | |
| BIOWL1-15 | 2026-08-30 06:01:36 | 49.82924 | 8.47947 | 359° | 18km/h | 20148m | 4.7m/s | -54.5°C | 1% | 57.3hPa | 2.6V | 03:46:50 | 01:31:37 | 00:00:00 | |
| DL1XH-west | 2026-08-30 06:01:29 | 49.82891 | 8.47958 | 344° | 20km/h | 20115m | 3.7m/s | -54.3°C | 1% | 57.5hPa | 2.6V | 03:46:50 | 01:31:30 | 00:00:00 | |
| BIOWL1-15 | 2026-08-30 06:01:27 | 49.82866 | 8.47967 | 346° | 27km/h | 20097m | 3.7m/s | -54.2°C | 1% | 57.7hPa | 2.6V | 03:46:50 | 01:31:26 | 00:00:00 | |
| DL1XH-west | 2026-08-30 06:01:18 | 49.82832 | 8.47989 | 326° | 20km/h | 20064m | 4m/s | -54.1°C | 0.8% | 58hPa | 2.6V | 03:46:50 | 01:31:19 | 00:00:00 | |
| BIOWL1-15 | 2026-08-30 06:01:17 | 49.82821 | 8.48003 | 320° | 18km/h | 20050m | 4.5m/s | -53.9°C | 0.9% | 58.1hPa | 2.6V | 03:46:50 | 01:31:16 | 00:00:00 | |
| DL1XH1-15 | 2026-08-30 06:01:16 | 49.82804 | 8.48019 | 335° | 20km/h | 20032m | 4.4m/s | -53.9°C | 4% | 58.3hPa | 2.7V | 03:46:35 | 01:31:12 | 00:00:00 | |
| DL1XH-west | 2026-08-30 06:01:07 | 49.82788 | 8.48030 | 331° | 18km/h | 20013m | 5.5m/s | -53.8°C | 0.9% | 58.5hPa | 2.6V | 03:46:50 | 01:31:08 | 00:00:00 | |
| DL1XH1-15 | 2026-08-30 06:01:06 | 49.82769 | 8.48064 | 302° | 20km/h | 19985m | 4.7m/s | -53.6°C | 3.9% | 58.7hPa | 2.7V | 03:46:45 | 01:31:02 | 00:00:00 | |
| BIOWL1-15 | 2026-08-30 06:01:05 | 49.82780 | 8.48039 | 318° | 20km/h | 20003m | 4.3m/s | -53.6°C | 0.8% | 58.6hPa | 2.7V | 03:46:50 | 01:31:06 | 00:00:00 | |
| DL1XH-west | 2026-08-30 06:00:56 | 49.82754 | 8.48087 | 324° | 11km/h | 19963m | 4.6m/s | -53.9°C | 0.8% | 58.9hPa | 2.6V | 03:46:50 | 01:30:57 | 00:00:00 | |
| DO3MHA-11 | 2026-08-30 06:00:56 | 49.82754 | 8.48087 | 324° | 13km/h | 19963m | 4.6m/s | -53.8°C | 4.0% | 58.9hPa | 2.6V | 03:46:00 | 01:30:57 | 00:00:00 | |
| DM0DOS-11 | 2026-08-30 06:00:55 | 49.82739 | 8.48104 | 310° | 15km/h | 19938m | 4.8m/s | -54.1°C | 4.1% | 59.2hPa | 2.7V | 03:46:56 | 01:30:51 | 00:00:00 | |
| BIOWL1-15 | 2026-08-30 06:00:54 | 49.82750 | 8.48091 | 326° | 9km/h | 19955m | 4m/s | -54°C | 0.9% | 59hPa | 2.7V | 03:47:41 | 01:30:55 | 00:00:00 | |
| HSKMA3-T | 2026-08-30 06:00:49 | 49.82737 | 8.48109 | 301° | 16km/h | 19933m | 4.8m/s | -54.2°C | 0.9% | 59.2hPa | 2.7V | 04:06:23 | 01:30:50 | 00:00:00 | |
| DL1XH-west | 2026-08-30 06:00:46 | 49.82731 | 8.48127 | 297° | 20km/h | 19919m | 5.2m/s | -54.2°C | 0.9% | 59.4hPa | 2.6V | 03:47:41 | 01:30:47 | 00:00:00 | |
| DO3MHA-11 | 2026-08-30 06:00:46 | 49.82731 | 8.48127 | 297° | 15km/h | 19919m | 5.1m/s | -54.1°C | 4.1% | 59.3hPa | 2.6V | 00:00:00 | 01:30:47 | 00:00:00 | |
| DM0DOS-11 | 2026-08-30 06:00:45 | 49.82722 | 8.48165 | 291° | 11km/h | 19893m | 4.7m/s | -54.3°C | 4.2% | 59.6hPa | 2.6V | 03:47:06 | 01:30:41 | 00:00:00 | |
| BIOWL1-15 | 2026-08-30 06:00:44 | 49.82727 | 8.48142 | 293° | 20km/h | 19911m | 3.3m/s | -54.2°C | 0.9% | 59.4hPa | 2.7V | 03:47:41 | 01:30:45 | 00:00:00 | |
| DL4BBY-15 | 2026-08-30 06:00:43 | 49.82725 | 8.48149 | 288° | 9km/h | 19907m | 5.1m/s | -55.4°C | 0% | 0hPa | 2.6V | 00:00:00 | 00:00:00 | 00:00:00 | |
| DL0LBS | 2026-08-30 06:00:42 | 49.82725 | 8.48149 | 288° | 18km/h | 19907m | 5.2m/s | -54.3°C | 1.4% | 59.5hPa | 2.6V | 03:47:00 | 00:00:00 | 00:00:00 | |
| BIOWL7-15 | 2026-08-30 06:00:41 | 49.82724 | 8.48155 | 282° | 15km/h | 19902m | 4.8m/s | -54.3°C | 1.3% | 59.5hPa | 2.6V | 00:00:00 | 00:00:00 | 00:00:00 | |
| DJ2DS-15 | 2026-08-30 06:00:40 | 49.82722 | 8.48165 | 292° | 7km/h | 19894m | 4.6m/s | -54.2°C | 4.2% | 59.6hPa | 2.6V | 00:00:00 | 01:30:41 | 00:00:00 | |
| DD1CC2-15 | 2026-08-30 06:00:39 | 49.82722 | 8.48165 | 292° | 11km/h | 19894m | 4.7m/s | -54.3°C | 1.4% | 59.6hPa | 2.6V | 00:00:00 | 00:00:00 | 00:00:00 | |
| DM7RM-13 | 2026-08-30 06:00:38 | 49.82721 | 8.48169 | 303° | 11km/h | 19889m | 5.0m/s | -54.3°C | 1.4% | 59.7hPa | 2.6V | 03:47:00 | 00:00:00 | 00:00:00 | |
| DO2KSM | 2026-08-30 06:00:37 | 49.82719 | 8.48172 | 312° | 9km/h | 19884m | 3.8m/s | -54.3°C | 1.3% | 59.7hPa | 2.6V | 03:47:00 | 00:00:00 | 00:00:00 | |
| DL1XH1-15 | 2026-08-30 06:00:36 | 49.82713 | 8.48185 | 306° | 13km/h | 19853m | 4.4m/s | -54°C | 4.1% | 59.9hPa | 2.6V | 03:47:15 | 01:30:32 | 00:00:00 | |
| BIOWL1-15 | 2026-08-30 06:00:35 | 49.82716 | 8.48179 | 307° | 5km/h | 19863m | 4.8m/s | -54.2°C | 0.9% | 59.9hPa | 2.7V | 03:47:41 | 01:30:34 | 00:00:00 | |
| DL1XH-west | 2026-08-30 06:00:35 | 49.82716 | 8.48177 | 306° | 2km/h | 19871m | 4.3m/s | -54.2°C | 0.9% | 59.8hPa | 2.6V | 03:47:41 | 01:30:36 | 00:00:00 | |
| DB0NH | 2026-08-30 06:00:35 | 49.82716 | 8.48177 | 307° | 7km/h | 19871m | 4.3m/s | -54.1°C | 4.2% | 59.8hPa | 2.6V | 03:47:00 | 01:30:36 | 00:00:00 | |
| DJTTGO | 2026-08-30 06:00:34 | 49.82716 | 8.48177 | 307° | 2km/h | 19871m | 4.3m/s | -54.2°C | 1.3% | 59.8hPa | 2.7V | 00:00:00 | 00:00:00 | 00:00:00 | |
| DD1CC8 | 2026-08-30 06:00:33 | 49.82714 | 8.48182 | 310° | 9km/h | 19858m | 5.2m/s | -54.2°C | 1.3% | 59.9hPa | 2.7V | 00:00:00 | 00:00:00 | 00:00:00 | |
| DL3AQ-11 | 2026-08-30 06:00:31 | 49.82711 | 8.48189 | 299° | 11km/h | 19849m | 4.1m/s | -54.0°C | 1.3% | 60.0hPa | 2.7V | 00:00:00 | 00:00:00 | 00:00:00 | |
| BIOWL9-15 | 2026-08-30 06:00:30 | 49.82711 | 8.48189 | 299° | 11km/h | 19849m | 4.1m/s | -54.0°C | 1.3% | 60.0hPa | 2.7V | 00:00:00 | 00:00:00 | 00:00:00 | |
| DL8OAI-8 | 2026-08-30 06:00:29 | 49.82711 | 8.48189 | 300° | 13km/h | 19849m | 4.1m/s | -54.0°C | 1.3% | 60.0hPa | 2.7V | 03:47:00 | 00:00:00 | 00:00:00 | |
| NBG1-10 | 2026-08-30 06:00:28 | 49.82709 | 8.48197 | 275° | 7km/h | 19839m | 4.6m/s | -53.9°C | 4.2% | 60.0hPa | 2.7V | 00:00:00 | 01:30:29 | 00:00:00 | |
| DL1XH1-15 | 2026-08-30 06:00:26 | 49.82713 | 8.48214 | 203° | 9km/h | 19808m | 4.7m/s | -53.9°C | 4.2% | 60.4hPa | 2.7V | 03:47:25 | 01:30:22 | 00:00:00 | |
| DO3MHA-11 | 2026-08-30 06:00:26 | 49.82709 | 8.48204 | 267° | 7km/h | 19831m | 5.0m/s | -53.9°C | 4.2% | 60.1hPa | 2.7V | 00:00:00 | 01:30:27 | 00:00:00 | |
| DM0DOS-11 | 2026-08-30 06:00:25 | 49.82715 | 8.48215 | 210° | 7km/h | 19804m | 3.9m/s | -53.8°C | 4.1% | 60.4hPa | 2.6V | 03:47:26 | 01:30:21 | 00:00:00 | |
| DL1XH-west | 2026-08-30 06:00:25 | 49.82709 | 8.48207 | 266° | 7km/h | 19826m | 4.6m/s | -53.9°C | 1% | 60.2hPa | 2.6V | 03:47:41 | 01:30:26 | 00:00:00 | |
| BIOWL1-15 | 2026-08-30 06:00:24 | 49.82712 | 8.48212 | 210° | 7km/h | 19814m | 5.1m/s | -53.8°C | 0.9% | 60.3hPa | 2.7V | 03:47:41 | 01:30:23 | 00:00:00 | |
| CB1BUN | 2026-08-30 06:00:23 | 49.82710 | 8.48209 | 254° | 5km/h | 19822m | 3.4m/s | -53.8°C | 1.3% | 60.3hPa | 2.6V | 03:47:00 | 00:00:00 | 00:00:00 | |
| DB0UT-9 | 2026-08-30 06:00:22 | 49.82710 | 8.48211 | 228° | 5km/h | 19818m | 4.2m/s | -53.9°C | 1.3% | 60.3hPa | 2.6V | 03:47:00 | 00:00:00 | 00:00:00 | |
| DL0LBS | 2026-08-30 06:00:21 | 49.82711 | 8.48212 | 211° | 7km/h | 19814m | 5.1m/s | -53.8°C | 1.3% | 60.3hPa | 2.6V | 03:47:00 | 00:00:00 | 00:00:00 | |
| DJ2DS-15 | 2026-08-30 06:00:20 | 49.82715 | 8.48215 | 211° | 7km/h | 19804m | 3.8m/s | -53.7°C | 4.1% | 60.4hPa | 2.6V | 03:47:00 | 01:30:21 | 00:00:00 | |
| DL8DAS-15 | 2026-08-30 06:00:19 | 49.82715 | 8.48215 | 212° | 7km/h | 19804m | 3.9m/s | -53.8°C | 1.3% | 60.4hPa | 2.7V | 00:00:00 | 00:00:00 | 00:00:00 | |
| DL1KLB | 2026-08-30 06:00:18 | 49.82716 | 8.48217 | 244° | 5km/h | 19800m | 4.3m/s | -53.8°C | 1.3% | 60.4hPa | 2.7V | 03:47:00 | 00:00:00 | 00:00:00 | |
| DC4HF-4 | 2026-08-30 06:00:17 | 49.82714 | 8.48227 | 300° | 13km/h | 19787m | 3.5m/s | -53.7°C | 1.3% | 60.6hPa | 2.7V | 00:00:00 | 00:00:00 | 00:00:00 | |
| DL1XH1-15 | 2026-08-30 06:00:16 | 49.82712 | 8.48245 | 230° | 4km/h | 19765m | 5.3m/s | -53.7°C | 4% | 60.8hPa | 2.7V | 03:47:35 | 01:30:12 | 00:00:00 | |
| DO3MHA-11 | 2026-08-30 06:00:16 | 49.82714 | 8.48227 | 301° | 7km/h | 19787m | 3.5m/s | -53.7°C | 4.0% | 60.5hPa | 2.7V | 03:47:00 | 01:30:17 | 00:00:00 | |
| DM0DOS-11 | 2026-08-30 06:00:15 | 49.82713 | 8.48246 | 194° | 4km/h | 19760m | 4.5m/s | -53.7°C | 4.1% | 60.8hPa | 2.7V | 03:47:36 | 01:30:11 | 00:00:00 | |
| DL1XH-west | 2026-08-30 06:00:14 | 49.82711 | 8.48236 | 281° | 13km/h | 19778m | 4.6m/s | -53.7°C | 0.9% | 60.7hPa | 2.6V | 03:47:41 | 01:30:15 | 00:00:00 | |
| BIOWL1-15 | 2026-08-30 06:00:13 | 49.82712 | 8.48245 | 231° | 4km/h | 19765m | 5.3m/s | -53.7°C | 0.8% | 60.8hPa | 2.7V | 03:47:41 | 01:30:12 | 00:00:00 | |
| DL4BBY-15 | 2026-08-30 06:00:13 | 49.82711 | 8.48240 | 266° | 5km/h | 19774m | 3.8m/s | -54.8°C | 0% | 0hPa | 2.6V | 00:00:00 | 00:00:00 | 00:00:00 | |
| DO2KSM | 2026-08-30 06:00:12 | 49.82711 | 8.48240 | 266° | 9km/h | 19774m | 3.8m/s | -53.7°C | 1.3% | 60.7hPa | 2.6V | 03:47:00 | 00:00:00 | 00:00:00 | |
| DO3DL | 2026-08-30 06:00:11 | 49.82711 | 8.48243 | 251° | 5km/h | 19770m | 4.3m/s | -53.7°C | 1.3% | 60.8hPa | 2.6V | 03:47:00 | 00:00:00 | 00:00:00 | |
| SONDE2-11 | 2026-08-30 06:00:10 | 49.82713 | 8.48246 | 194° | 2km/h | 19760m | 4.5m/s | 0°C | -1.0% | 60.8hPa | 2.6V | 00:00:00 | 00:00:00 | 00:00:00 | |
| DL1XH-15 | 2026-08-30 06:00:07 | 49.82714 | 8.48261 | 303° | 7km/h | 19723m | 3.9m/s | -53.5°C | 0% | 0hPa | 2.6V | 03:47:44 | 01:30:03 | 00:00:00 | |
| DL1XH1-15 | 2026-08-30 06:00:06 | 49.82714 | 8.48264 | 280° | 7km/h | 19719m | 5.1m/s | -53.4°C | 3.9% | 61.2hPa | 2.6V | 03:47:45 | 01:30:02 | 00:00:00 | |
| DO3MHA-11 | 2026-08-30 06:00:06 | 49.82717 | 8.48251 | 249° | 5km/h | 19741m | 3.8m/s | -53.6°C | 4.1% | 61.0hPa | 2.7V | 00:00:00 | 01:30:07 | 00:00:00 | |
| DM0DOS-11 | 2026-08-30 06:00:05 | 49.82714 | 8.48266 | 255° | 5km/h | 19714m | 4.6m/s | -53.4°C | 4% | 61.3hPa | 2.7V | 03:47:46 | 01:30:01 | 00:00:00 | |
| DL1XH-west | 2026-08-30 06:00:03 | 49.82716 | 8.48259 | 309° | 7km/h | 19727m | 3.3m/s | -53.6°C | 0.8% | 61.1hPa | 2.6V | 03:48:32 | 01:30:04 | 00:00:00 | |
| BIOWL1-15 | 2026-08-30 06:00:00 | 49.82714 | 8.48266 | 256° | 5km/h | 19714m | 4.6m/s | -53.4°C | 0.9% | 61.3hPa | 2.7V | 03:48:32 | 01:30:01 | 00:00:00 | |
| BIOWL9-15 | 2026-08-30 05:59:59 | 49.82714 | 8.48268 | 235° | 4km/h | 19710m | 3.8m/s | -53.3°C | 1.3% | 61.3hPa | 2.6V | 00:00:00 | 00:00:00 | 00:00:00 | |
| DH7VM-15 | 2026-08-30 05:59:58 | 49.82714 | 8.48268 | 236° | 5km/h | 19710m | 3.8m/s | -53.3°C | 1.3% | 61.3hPa | 2.6V | 00:00:00 | 00:00:00 | 00:00:00 | |
| DM7RM-13 | 2026-08-30 05:59:57 | 49.82715 | 8.48269 | 213° | 4km/h | 19706m | 3.8m/s | -53.4°C | 1.3% | 61.4hPa | 2.6V | 03:48:00 | 00:00:00 | 00:00:00 | |
| DL1XH1-15 | 2026-08-30 05:59:56 | 49.82717 | 8.48257 | 113° | 4km/h | 19673m | 3.8m/s | -53.5°C | 4.1% | 61.7hPa | 2.6V | 03:47:55 | 01:29:52 | 00:00:00 | |
| DO3MHA-11 | 2026-08-30 05:59:56 | 49.82716 | 8.48269 | 92° | 5km/h | 19696m | 4.9m/s | -53.4°C | 3.9% | 61.4hPa | 2.6V | 00:00:00 | 01:29:57 | 00:00:00 | |
| DM0DOS-11 | 2026-08-30 05:59:55 | 49.82718 | 8.48256 | 75° | 2km/h | 19668m | 5m/s | -53.5°C | 4% | 61.7hPa | 2.6V | 03:47:56 | 01:29:51 | 00:00:00 | |
| DL1XH-west | 2026-08-30 05:59:53 | 49.82716 | 8.48261 | 105° | 7km/h | 19682m | 5.5m/s | -53.5°C | 0.9% | 61.6hPa | 2.7V | 03:48:32 | 01:29:54 | 00:00:00 | |
| HSKMA3-T | 2026-08-30 05:59:52 | 49.82717 | 8.48258 | 120° | 5km/h | 19677m | 4.3m/s | -53.5°C | 0.9% | 61.6hPa | 2.6V | 04:06:23 | 01:29:53 | 00:00:00 | |
| BIOWL1-15 | 2026-08-30 05:59:52 | 49.82717 | 8.48256 | 76° | 2km/h | 19668m | 5m/s | -53.5°C | 0.8% | 61.7hPa | 2.6V | 03:48:32 | 01:29:51 | 00:00:00 | |
| DF7PN | 2026-08-30 05:59:51 | 49.82717 | 8.48256 | 75° | 2km/h | 19669m | 5.0m/s | -53.5°C | 1.3% | 61.7hPa | 2.7V | 00:00:00 | 00:00:00 | 00:00:00 | |
| DN1GJH-1 | 2026-08-30 05:59:50 | 49.82718 | 8.48256 | 77° | 2km/h | 19669m | 5.0m/s | -53.5°C | 1.3% | 61.7hPa | 2.7V | 00:00:00 | 00:00:00 | 00:00:00 | |
| DO2KSM | 2026-08-30 05:59:49 | 49.82718 | 8.48256 | 77° | 2km/h | 19669m | 5.0m/s | -53.5°C | 1.3% | 61.7hPa | 2.7V | 03:48:00 | 00:00:00 | 00:00:00 | |
| DL1XH-15 | 2026-08-30 05:59:47 | 49.82713 | 8.48248 | 56° | 7km/h | 19631m | 3.8m/s | -53.6°C | 0% | 0hPa | 2.7V | 03:48:04 | 01:29:43 | 00:00:00 | |
| DL1XH1-15 | 2026-08-30 05:59:46 | 49.82712 | 8.48246 | 50° | 5km/h | 19627m | 4.1m/s | -53.7°C | 3.9% | 62.1hPa | 2.6V | 03:48:05 | 01:29:42 | 00:00:00 | |
| DM0DOS-11 | 2026-08-30 05:59:46 | 49.82711 | 8.48244 | 37° | 4km/h | 19622m | 5.4m/s | -53.9°C | 4% | 62.1hPa | 2.6V | 03:48:06 | 01:29:41 | 00:00:00 | |
| DM3KS-11 | 2026-08-30 05:59:44 | 49.82714 | 8.48252 | 69° | 4km/h | 19640m | 5.1m/s | -53.6°C | 1.2% | 62.0hPa | 2.7V | 00:00:00 | 00:00:00 | 00:00:00 | |
| DL1XH-west | 2026-08-30 05:59:42 | 49.82713 | 8.48248 | 57° | 7km/h | 19631m | 3.8m/s | -53.6°C | 0.8% | 62.1hPa | 2.7V | 03:48:32 | 01:29:43 | 00:00:00 | |
| BIOWL1-15 | 2026-08-30 05:59:39 | 49.82710 | 8.48244 | 1° | 4km/h | 19617m | 4.2m/s | -54°C | 0.8% | 62.2hPa | 2.6V | 03:48:32 | 01:29:40 | 00:00:00 | |
| DJ2DS-15 | 2026-08-30 05:59:37 | 49.82704 | 8.48245 | 353° | 11km/h | 19604m | 4.2m/s | -54.2°C | 1.3% | 62.4hPa | 2.7V | 00:00:00 | 00:00:00 | 00:00:00 | |
| DL1XH1-15 | 2026-08-30 05:59:36 | 49.82693 | 8.48247 | 32° | 4km/h | 19583m | 3.9m/s | -54.3°C | 4.2% | 62.5hPa | 2.7V | 03:48:15 | 01:29:32 | 00:00:00 | |
| DO3MHA-11 | 2026-08-30 05:59:36 | 49.82704 | 8.48245 | 354° | 9km/h | 19604m | 4.2m/s | -54.1°C | 4.1% | 62.3hPa | 2.6V | 03:48:00 | 01:29:37 | 00:00:00 | |
| DL1XH-15 | 2026-08-30 05:59:35 | 49.82692 | 8.48245 | 49° | 7km/h | 19579m | 4.8m/s | -54.3°C | 0% | 0hPa | 2.6V | 03:48:16 | 01:29:31 | 00:00:00 | |
| DL1XH-west | 2026-08-30 05:59:31 | 49.82693 | 8.48247 | 33° | 5km/h | 19583m | 3.9m/s | -54.3°C | 1% | 62.5hPa | 2.7V | 03:48:32 | 01:29:32 | 00:00:00 | |
| BIOWL1-15 | 2026-08-30 05:59:28 | 49.82689 | 8.48239 | 57° | 11km/h | 19570m | 4.1m/s | -54.3°C | 0.9% | 62.7hPa | 2.6V | 03:48:32 | 01:29:29 | 00:00:00 | |
| DL1XH1-15 | 2026-08-30 05:59:26 | 49.82680 | 8.48207 | 61° | 15km/h | 19538m | 3.4m/s | -54.1°C | 3.9% | 63hPa | 2.7V | 03:48:25 | 01:29:22 | 00:00:00 | |
| DO3MHA-11 | 2026-08-30 05:59:26 | 49.82686 | 8.48232 | 71° | 11km/h | 19561m | 4.6m/s | -54.2°C | 4.1% | 62.7hPa | 2.7V | 00:00:00 | 01:29:27 | 00:00:00 | |
| DL1XH-15 | 2026-08-30 05:59:25 | 49.82678 | 8.48202 | 62° | 13km/h | 19534m | 4.7m/s | 0°C | 0% | 0hPa | 2.7V | 03:48:26 | 01:29:21 | 00:00:00 | |
| HSKMA3-T | 2026-08-30 05:59:22 | 49.82682 | 8.48212 | 63° | 16km/h | 19542m | 3.8m/s | -54.1°C | 0.8% | 0hPa | 2.7V | 04:06:23 | 01:29:23 | 00:00:00 | |
| DL1XH-west | 2026-08-30 05:59:20 | 49.82678 | 8.48202 | 62° | 13km/h | 19534m | 4.7m/s | -54.2°C | 0.8% | 63hPa | 2.7V | 03:48:32 | 01:29:21 | 00:00:00 | |
| BIOWL1-15 | 2026-08-30 05:59:19 | 49.82674 | 8.48194 | 39° | 9km/h | 19521m | 3.8m/s | -54.1°C | 0.8% | 63.2hPa | 2.6V | 03:48:32 | 01:29:18 | 00:00:00 | |
| DB0UT-9 | 2026-08-30 05:59:18 | 49.82677 | 8.48199 | 61° | 9km/h | 19529m | 4.8m/s | -54.1°C | 1.3% | 63.0hPa | 2.7V | 03:48:00 | 00:00:00 | 00:00:00 | |
| DL1XH1-15 | 2026-08-30 05:59:16 | 49.82658 | 8.48172 | 57° | 11km/h | 19496m | 4.6m/s | -54.6°C | 4% | 63.4hPa | 2.7V | 03:48:35 | 01:29:12 | 00:00:00 | |
| DK5PH-5 | 2026-08-30 05:59:16 | 49.82672 | 8.48191 | 37° | 11km/h | 19517m | 5.2m/s | -54.1°C | 3.9% | 63.2hPa | 2.7V | 03:48:00 | 01:29:17 | 00:00:00 | |
| DM0DOS-11 | 2026-08-30 05:59:15 | 49.82657 | 8.48169 | 67° | 7km/h | 19491m | 4.1m/s | -54.7°C | 4.1% | 63.4hPa | 2.7V | 03:48:36 | 01:29:11 | 00:00:00 | |
| HSKMA3-T | 2026-08-30 05:59:11 | 49.82658 | 8.48172 | 57° | 11km/h | 19496m | 4.6m/s | -54.6°C | 0.9% | 0hPa | 2.7V | 04:06:23 | 01:29:12 | 00:00:00 | |
| DL1XH-west | 2026-08-30 05:59:10 | 49.82657 | 8.48169 | 68° | 7km/h | 19491m | 4.1m/s | -54.8°C | 0.9% | 63.4hPa | 2.7V | 03:49:23 | 01:29:11 | 00:00:00 | |
| DO3MHA-11 | 2026-08-30 05:59:10 | 49.82657 | 8.48169 | 68° | 9km/h | 19492m | 4.0m/s | -54.7°C | 4.1% | 63.4hPa | 2.7V | 00:00:00 | 01:29:11 | 00:00:00 | |
| DO3DL | 2026-08-30 05:59:06 | 49.82654 | 8.48160 | 55° | 9km/h | 19479m | 5.1m/s | -55.1°C | 1.3% | 63.6hPa | 2.7V | 03:49:00 | 00:00:00 | 00:00:00 | |
| BIOWL1-15 | 2026-08-30 05:59:06 | 49.82653 | 8.48157 | 52° | 11km/h | 19474m | 4m/s | -55.1°C | 0.9% | 63.6hPa | 2.6V | 03:49:23 | 01:29:07 | 00:00:00 | |
| DM0DOS-11 | 2026-08-30 05:59:05 | 49.82647 | 8.48139 | 54° | 11km/h | 19448m | 4.8m/s | -55.6°C | 4.3% | 63.9hPa | 2.7V | 03:48:46 | 01:29:01 | 00:00:00 | |
| DL1XH-west | 2026-08-30 05:58:59 | 49.82645 | 8.48136 | 56° | 11km/h | 19443m | 4.2m/s | -55.6°C | 1.1% | 63.9hPa | 2.7V | 03:49:23 | 01:29:00 | 00:00:00 | |
| DL9PN | 2026-08-30 05:58:58 | 49.82644 | 8.48132 | 64° | 9km/h | 19439m | 4.1m/s | -55.7°C | 1.4% | 64.0hPa | 2.6V | 00:00:00 | 00:00:00 | 00:00:00 | |
| BIOWL9-15 | 2026-08-30 05:58:57 | 49.82643 | 8.48125 | 93° | 7km/h | 19430m | 4.3m/s | -55.7°C | -1.0% | -1.0hPa | 2.6V | 00:00:00 | 00:00:00 | 00:00:00 | |
| DL1XH1-15 | 2026-08-30 05:58:56 | 49.82635 | 8.48112 | 30° | 16km/h | 19410m | 3.5m/s | -55.7°C | 4.4% | 64.2hPa | 2.6V | 03:48:55 | 01:28:52 | 00:00:00 | |
| BIOWL1-15 | 2026-08-30 05:58:56 | 49.82643 | 8.48125 | 93° | 7km/h | 19430m | 4.3m/s | -55.7°C | 1.1% | 64hPa | 2.6V | 03:49:23 | 01:28:57 | 00:00:00 | |
| DL1XH-west | 2026-08-30 05:58:48 | 49.82626 | 8.48097 | 60° | 22km/h | 19397m | 4.5m/s | -55.8°C | 1% | 64.4hPa | 2.7V | 03:49:23 | 01:28:49 | 00:00:00 | |
| DO3DL | 2026-08-30 05:58:47 | 49.82625 | 8.48097 | 61° | 22km/h | 19397m | 4.5m/s | -55.8°C | 1.4% | 64.4hPa | 2.6V | 03:49:00 | 00:00:00 | 00:00:00 | |
| DL1XH1-15 | 2026-08-30 05:58:46 | 49.82604 | 8.48039 | 57° | 27km/h | 19366m | 5.2m/s | -55.8°C | 4.4% | 64.7hPa | 2.6V | 03:49:05 | 01:28:42 | 00:00:00 | |
| DK5PH-5 | 2026-08-30 05:58:46 | 49.82621 | 8.48081 | 67° | 27km/h | 19389m | 4.1m/s | -55.6°C | 4.4% | 64.4hPa | 2.6V | 00:00:00 | 01:28:47 | 00:00:00 | |
| DL1XH-15 | 2026-08-30 05:58:45 | 49.82600 | 8.48030 | 59° | 29km/h | 19362m | 4.4m/s | 0°C | 0% | 0hPa | 2.6V | 03:49:06 | 01:28:41 | 00:00:00 | |
| BIOWL1-15 | 2026-08-30 05:58:45 | 49.82618 | 8.48072 | 62° | 24km/h | 19384m | 4.7m/s | -55.7°C | 1% | 64.5hPa | 2.6V | 03:49:23 | 01:28:46 | 00:00:00 | |
| DL1XH-west | 2026-08-30 05:58:37 | 49.82588 | 8.48004 | 49° | 24km/h | 19348m | 4.3m/s | -55.8°C | 1.1% | 64.9hPa | 2.7V | 03:49:23 | 01:28:38 | 00:00:00 | |
| DJTTGO | 2026-08-30 05:58:37 | 49.82588 | 8.48004 | 50° | 24km/h | 19348m | 4.3m/s | -55.8°C | 1.5% | 64.9hPa | 2.7V | 03:49:00 | 00:00:00 | 00:00:00 | |
| DL1XH1-15 | 2026-08-30 05:58:36 | 49.82570 | 8.47960 | 53° | 22km/h | 19321m | 4.3m/s | -55.8°C | 4.5% | 65.2hPa | 2.7V | 03:49:15 | 01:28:32 | 00:00:00 | |
| DM0DOS-11 | 2026-08-30 05:58:35 | 49.82566 | 8.47953 | 53° | 24km/h | 19317m | 3.9m/s | -55.8°C | 4.6% | 65.2hPa | 2.6V | 03:49:16 | 01:28:31 | 00:00:00 | |
| BIOWL1-15 | 2026-08-30 05:58:34 | 49.82578 | 8.47982 | 61° | 24km/h | 19334m | 4.2m/s | -55.8°C | 1% | 65hPa | 2.6V | 03:49:23 | 01:28:35 | 00:00:00 | |
| DL1XH-west | 2026-08-30 05:58:26 | 49.82550 | 8.47917 | 51° | 33km/h | 19298m | 4.9m/s | -55.8°C | 1.1% | 65.4hPa | 2.7V | 03:49:23 | 01:28:27 | 00:00:00 | |
| DM0DOS-11 | 2026-08-30 05:58:25 | 49.82517 | 8.47862 | 46° | 29km/h | 19272m | 4.5m/s | -55.7°C | 4.4% | 65.7hPa | 2.7V | 03:49:26 | 01:28:21 | 00:00:00 | |
| BIOWL1-15 | 2026-08-30 05:58:23 | 49.82533 | 8.47889 | 47° | 33km/h | 19285m | 4.2m/s | -55.7°C | 1.1% | 65.5hPa | 2.6V | 03:49:23 | 01:28:24 | 00:00:00 | |
| DL1XH-west | 2026-08-30 05:58:16 | 49.82496 | 8.47836 | 38° | 26km/h | 19254m | 4.3m/s | -55.7°C | 1.2% | 65.9hPa | 2.7V | 03:50:14 | 01:28:17 | 00:00:00 | |
| NBG1-10 | 2026-08-30 05:58:16 | 49.82496 | 8.47836 | 39° | 13km/h | 19255m | 4.3m/s | -55.7°C | 4.5% | 65.8hPa | 2.7V | 00:00:00 | 01:28:17 | 00:00:00 | |
| DM0DOS-11 | 2026-08-30 05:58:15 | 49.82467 | 8.47792 | 38° | 29km/h | 19227m | 4.3m/s | -55.6°C | 4.5% | 66.1hPa | 2.7V | 03:49:36 | 01:28:11 | 00:00:00 | |
| BIOWL1-15 | 2026-08-30 05:58:13 | 49.82482 | 8.47814 | 48° | 27km/h | 19241m | 3.9m/s | -55.6°C | 1.1% | 66hPa | 2.6V | 03:50:14 | 01:28:14 | 00:00:00 | |
| DL4BBY-15 | 2026-08-30 05:58:13 | 49.82482 | 8.47814 | 49° | 26km/h | 19241m | 3.8m/s | -56.7°C | 0% | 0hPa | 2.7V | 00:00:00 | 00:00:00 | 00:00:00 | |
| DL1ZP-14 | 2026-08-30 05:58:11 | 49.82467 | 8.47792 | 38° | 27km/h | 19227m | 4.4m/s | -55.6°C | 1.4% | 66.2hPa | 2.7V | 00:00:00 | 00:00:00 | 00:00:00 | |
| DO3MHA-11 | 2026-08-30 05:58:10 | 49.82467 | 8.47792 | 39° | 29km/h | 19227m | 4.3m/s | -55.6°C | 4.5% | 66.1hPa | 2.6V | 03:49:00 | 01:28:11 | 00:00:00 | |
| BIOWL7-15 | 2026-08-30 05:58:09 | 49.82467 | 8.47792 | 40° | 29km/h | 19227m | 4.4m/s | -55.6°C | 1.4% | 66.1hPa | 2.6V | 03:50:00 | 00:00:00 | 00:00:00 | |
| DO3DL | 2026-08-30 05:58:07 | 49.82455 | 8.47777 | 43° | 31km/h | 19217m | 4.9m/s | -55.6°C | 1.4% | 66.3hPa | 2.6V | 03:50:00 | 00:00:00 | 00:00:00 | |
| DM0DOS-11 | 2026-08-30 05:58:05 | 49.82412 | 8.47723 | 44° | 22km/h | 19180m | 5.2m/s | -55.5°C | 4.4% | 66.6hPa | 2.6V | 03:49:46 | 01:28:01 | 00:00:00 | |
| DL1XH-west | 2026-08-30 05:58:05 | 49.82437 | 8.47755 | 33° | 31km/h | 19203m | 5.3m/s | -55.6°C | 1.2% | 66.4hPa | 2.7V | 03:50:14 | 01:28:06 | 00:00:00 | |
| BIOWL1-15 | 2026-08-30 05:58:02 | 49.82420 | 8.47736 | 41° | 26km/h | 19189m | 5.1m/s | -55.5°C | 1.1% | 66.5hPa | 2.6V | 03:50:14 | 01:28:03 | 00:00:00 | |
| DO3DL | 2026-08-30 05:58:01 | 49.82419 | 8.47736 | 42° | 26km/h | 19189m | 5.1m/s | -55.5°C | 1.4% | 66.5hPa | 2.6V | 03:50:00 | 00:00:00 | 00:00:00 | |
| DD1CC8 | 2026-08-30 05:57:57 | 49.82401 | 8.47707 | 50° | 18km/h | 19166m | 4.8m/s | -55.4°C | 1.4% | 66.8hPa | 2.6V | 00:00:00 | 00:00:00 | 00:00:00 | |
| DL1XH1-15 | 2026-08-30 05:57:56 | 49.82375 | 8.47670 | 25° | 26km/h | 19138m | 3.7m/s | -55.2°C | 4.4% | 67.1hPa | 2.6V | 03:49:55 | 01:27:52 | 00:00:00 | |
| DL1XH-west | 2026-08-30 05:57:55 | 49.82394 | 8.47693 | 53° | 24km/h | 19157m | 4.1m/s | -55.3°C | 1% | 66.9hPa | 2.6V | 03:50:14 | 01:27:56 | 00:00:00 | |
| BIOWL1-15 | 2026-08-30 05:57:53 | 49.82375 | 8.47670 | 26° | 26km/h | 19139m | 3.7m/s | -55.2°C | 1.1% | 67.1hPa | 2.6V | 03:50:14 | 01:27:52 | 00:00:00 | |
| DC4HF-4 | 2026-08-30 05:57:52 | 49.82381 | 8.47675 | 29° | 24km/h | 19143m | 4.7m/s | -55.2°C | 1.4% | 67.0hPa | 2.7V | 00:00:00 | 00:00:00 | 00:00:00 | |
| DL8DAS-14 | 2026-08-30 05:57:51 | 49.82369 | 8.47666 | 27° | 24km/h | 19134m | 4.9m/s | -55.2°C | 1.4% | 67.1hPa | 2.7V | 00:00:00 | 00:00:00 | 00:00:00 | |
| DL3AQ-11 | 2026-08-30 05:57:50 | 49.82369 | 8.47666 | 27° | 24km/h | 19134m | 4.9m/s | -55.2°C | 1.4% | 67.1hPa | 2.7V | 00:00:00 | 00:00:00 | 00:00:00 | |
| DJ2DS-15 | 2026-08-30 05:57:49 | 49.82359 | 8.47656 | 33° | 22km/h | 19125m | 4.0m/s | -55.3°C | 1.5% | 67.2hPa | 2.7V | 00:00:00 | 00:00:00 | 00:00:00 | |
| DH7VM-15 | 2026-08-30 05:57:48 | 49.82364 | 8.47661 | 33° | 26km/h | 19130m | 4.8m/s | -55.2°C | 1.4% | 67.2hPa | 2.7V | 00:00:00 | 00:00:00 | 00:00:00 | |
| DL1XH1-15 | 2026-08-30 05:57:46 | 49.82336 | 8.47627 | 50° | 15km/h | 19093m | 4m/s | -55°C | 4.3% | 67.5hPa | 2.7V | 03:50:05 | 01:27:42 | 00:00:00 | |
| DL1XH-west | 2026-08-30 05:57:45 | 49.82346 | 8.47644 | 31° | 16km/h | 19111m | 4.6m/s | -55.1°C | 1.1% | 67.4hPa | 2.6V | 03:50:14 | 01:27:46 | 00:00:00 | |
| BIOWL1-15 | 2026-08-30 05:57:40 | 49.82333 | 8.47623 | 44° | 15km/h | 19088m | 5m/s | -54.9°C | 1% | 67.6hPa | 2.6V | 03:50:14 | 01:27:41 | 00:00:00 | |
| DO3MHA-11 | 2026-08-30 05:57:40 | 49.82333 | 8.47623 | 45° | 18km/h | 19088m | 5.0m/s | -54.9°C | 4.2% | 67.5hPa | 2.7V | 00:00:00 | 01:27:41 | 00:00:00 | |
| DL3AQ-11 | 2026-08-30 05:57:39 | 49.82330 | 8.47619 | 34° | 15km/h | 19084m | 4.1m/s | -54.9°C | 1.4% | 67.6hPa | 2.7V | 00:00:00 | 00:00:00 | 00:00:00 | |
| CB1BUN | 2026-08-30 05:57:38 | 49.82330 | 8.47619 | 36° | 15km/h | 19084m | 4.1m/s | -54.9°C | 1.4% | 67.6hPa | 2.7V | 03:50:00 | 00:00:00 | 00:00:00 | |
| DL0LBS | 2026-08-30 05:57:37 | 49.82327 | 8.47615 | 34° | 18km/h | 19080m | 3.8m/s | -54.9°C | 1.4% | 67.7hPa | 2.7V | 03:50:00 | 00:00:00 | 00:00:00 | |
| DL1XH1-15 | 2026-08-30 05:57:36 | 49.82299 | 8.47585 | 12° | 15km/h | 19048m | 3.7m/s | -54.9°C | 4.2% | 68hPa | 2.7V | 03:50:15 | 01:27:32 | 00:00:00 | |
| DM0DOS-11 | 2026-08-30 05:57:35 | 49.82296 | 8.47584 | 7° | 13km/h | 19045m | 4.1m/s | -55°C | 4.2% | 68hPa | 2.7V | 03:50:16 | 01:27:31 | 00:00:00 | |
| DL1XH-west | 2026-08-30 05:57:34 | 49.82311 | 8.47595 | 41° | 22km/h | 19062m | 3.9m/s | -55°C | 1% | 67.9hPa | 2.6V | 03:50:14 | 01:27:35 | 00:00:00 | |
| BIOWL1-15 | 2026-08-30 05:57:29 | 49.82293 | 8.47583 | 15° | 13km/h | 19040m | 5.2m/s | -55°C | 1% | 68.1hPa | 2.6V | 03:51:05 | 01:27:30 | 00:00:00 | |
| SFWM-10 | 2026-08-30 05:57:28 | 49.82293 | 8.47583 | 16° | 13km/h | 19040m | 5.2m/s | -55.0°C | 1.4% | 68.1hPa | 2.7V | 03:51:00 | 00:00:00 | 00:00:00 | |
| DF1GD-15 | 2026-08-30 05:57:27 | 49.82290 | 8.47582 | 21° | 11km/h | 19035m | 4.6m/s | -54.9°C | 1.4% | 68.1hPa | 2.7V | 03:51:00 | 00:00:00 | 00:00:00 | |
| DL1XH1-15 | 2026-08-30 05:57:26 | 49.82270 | 8.47567 | 41° | 18km/h | 19003m | 4.2m/s | -55°C | 4.2% | 68.5hPa | 2.7V | 03:50:25 | 01:27:22 | 00:00:00 | |
| DM0DOS-11 | 2026-08-30 05:57:25 | 49.82267 | 8.47562 | 37° | 18km/h | 18999m | 3.8m/s | -55°C | 4.1% | 68.5hPa | 2.7V | 03:50:26 | 01:27:21 | 00:00:00 | |
| DL1XH-west | 2026-08-30 05:57:24 | 49.82280 | 8.47576 | 18° | 11km/h | 19016m | 3.8m/s | -55°C | 1% | 68.4hPa | 2.6V | 03:51:05 | 01:27:25 | 00:00:00 | |
| BIOWL1-15 | 2026-08-30 05:57:18 | 49.82260 | 8.47556 | 18° | 15km/h | 18990m | 4.2m/s | -54.9°C | 0.9% | 68.6hPa | 2.6V | 03:51:05 | 01:27:19 | 00:00:00 | |
| DL8DAS-15 | 2026-08-30 05:57:17 | 49.82259 | 8.47556 | 19° | 13km/h | 18990m | 4.2m/s | -54.9°C | 1.4% | 68.6hPa | 2.6V | 00:00:00 | 00:00:00 | 00:00:00 | |
| DL1XH1-15 | 2026-08-30 05:57:16 | 49.82250 | 8.47558 | 310° | 5km/h | 18961m | 4.6m/s | -55.4°C | 4.4% | 69hPa | 2.6V | 03:50:35 | 01:27:12 | 00:00:00 | |
| DM0DOS-11 | 2026-08-30 05:57:15 | 49.82249 | 8.47559 | 342° | 4km/h | 18956m | 3.7m/s | -55.4°C | 4.3% | 69hPa | 2.7V | 03:50:36 | 01:27:11 | 00:00:00 | |
| DL1XH-west | 2026-08-30 05:57:13 | 49.82251 | 8.47556 | 310° | 2km/h | 18969m | 3.7m/s | -55.3°C | 1% | 68.9hPa | 2.6V | 03:51:05 | 01:27:14 | 00:00:00 | |
| BIOWL1-15 | 2026-08-30 05:57:07 | 49.82247 | 8.47553 | 82° | 13km/h | 18944m | 4.8m/s | -55.6°C | 1.1% | 69.1hPa | 2.6V | 03:51:05 | 01:27:08 | 00:00:00 | |
| DL1XH1-15 | 2026-08-30 05:57:06 | 49.82242 | 8.47528 | 43° | 9km/h | 18919m | 4.8m/s | -55.7°C | 4.5% | 69.4hPa | 2.6V | 03:50:45 | 01:27:02 | 00:00:00 | |
| DM0DOS-11 | 2026-08-30 05:57:05 | 49.82240 | 8.47525 | 41° | 11km/h | 18914m | 4.9m/s | -55.7°C | 4.5% | 69.5hPa | 2.6V | 03:50:46 | 01:27:01 | 00:00:00 | |
| DL1XH-west | 2026-08-30 05:57:03 | 49.82245 | 8.47533 | 66° | 9km/h | 18927m | 4.5m/s | -55.5°C | 1.1% | 69.3hPa | 2.7V | 03:51:05 | 01:27:04 | 00:00:00 | |
| BIOWL1-15 | 2026-08-30 05:57:00 | 49.82233 | 8.47518 | 36° | 7km/h | 18897m | 3.6m/s | -55.7°C | 1.2% | 69.7hPa | 2.6V | 03:51:05 | 01:26:57 | 00:00:00 | |
| DL3AQ-11 | 2026-08-30 05:56:59 | 49.82236 | 8.47521 | 32° | 7km/h | 18906m | 4.5m/s | -55.8°C | 1.5% | 69.6hPa | 2.6V | 00:00:00 | 00:00:00 | 00:00:00 | |
| DL8DAS-15 | 2026-08-30 05:56:57 | 49.82236 | 8.47521 | 33° | 9km/h | 18906m | 4.5m/s | -55.8°C | 1.5% | 69.6hPa | 2.6V | 00:00:00 | 00:00:00 | 00:00:00 | |
| SFWM-10 | 2026-08-30 05:56:56 | 49.82234 | 8.47519 | 28° | 7km/h | 18901m | 5.0m/s | -55.8°C | 1.5% | 69.6hPa | 2.6V | 03:51:00 | 00:00:00 | 00:00:00 | |
| DM0DOS-11 | 2026-08-30 05:56:55 | 49.82224 | 8.47484 | 75° | 20km/h | 18870m | 4.8m/s | -55.5°C | 4.4% | 69.9hPa | 2.6V | 03:50:56 | 01:26:51 | 00:00:00 | |
| DL1XH-west | 2026-08-30 05:56:52 | 49.82227 | 8.47499 | 72° | 22km/h | 18879m | 3.7m/s | -55.6°C | 1.1% | 69.9hPa | 2.7V | 03:51:05 | 01:26:53 | 00:00:00 | |
| DL8DAS-14 | 2026-08-30 05:56:49 | 49.82222 | 8.47470 | 68° | 16km/h | 18862m | 4.0m/s | -55.5°C | 1.5% | 70.1hPa | 2.7V | 00:00:00 | 00:00:00 | 00:00:00 | |
| DO3DL | 2026-08-30 05:56:48 | 49.82223 | 8.47476 | 75° | 18km/h | 18866m | 4.1m/s | -55.5°C | 1.4% | 70.0hPa | 2.7V | 03:51:00 | 00:00:00 | 00:00:00 | |
| DL8DAS-15 | 2026-08-30 05:56:47 | 49.82221 | 8.47470 | 69° | 16km/h | 18862m | 4.0m/s | -55.5°C | 1.5% | 70.1hPa | 2.7V | 00:00:00 | 00:00:00 | 00:00:00 | |
| DL1XH1-15 | 2026-08-30 05:56:46 | 49.82206 | 8.47438 | 29° | 9km/h | 18831m | 3.7m/s | -55.2°C | 4.4% | 70.4hPa | 2.7V | 03:51:05 | 01:26:42 | 00:00:00 | |
| BIOWL1-15 | 2026-08-30 05:56:46 | 49.82217 | 8.47458 | 57° | 18km/h | 18852m | 4.4m/s | -55.4°C | 1.1% | 70.1hPa | 2.7V | 03:51:05 | 01:26:47 | 00:00:00 | |
| DF7PN | 2026-08-30 05:56:44 | 49.82212 | 8.47446 | 50° | 15km/h | 18844m | 4.0m/s | -55.3°C | 1.5% | 70.2hPa | 2.7V | 00:00:00 | 00:00:00 | 00:00:00 | |
| DL1XH-west | 2026-08-30 05:56:41 | 49.82206 | 8.47438 | 30° | 9km/h | 18831m | 3.7m/s | -55.2°C | 1.1% | 70.4hPa | 2.7V | 03:51:05 | 01:26:42 | 00:00:00 | |
| DO3MHA-11 | 2026-08-30 05:56:40 | 49.82204 | 8.47436 | 25° | 15km/h | 18826m | 4.8m/s | -55.1°C | 4.3% | 70.4hPa | 2.7V | 00:00:00 | 01:26:41 | 00:00:00 | |
| DJTTGO | 2026-08-30 05:56:39 | 49.82204 | 8.47436 | 26° | 9km/h | 18826m | 4.9m/s | -55.2°C | 1.4% | 70.4hPa | 2.7V | 00:00:00 | 00:00:00 | 00:00:00 | |
| DM3KS-11 | 2026-08-30 05:56:38 | 49.82198 | 8.47432 | 29° | 13km/h | 18817m | 4.1m/s | -55.1°C | 1.4% | 70.5hPa | 2.7V | 00:00:00 | 00:00:00 | 00:00:00 | |
| BIOWL7-15 | 2026-08-30 05:56:37 | 49.82198 | 8.47432 | 30° | 15km/h | 18817m | 4.1m/s | -55.1°C | 1.4% | 70.5hPa | 2.7V | 03:51:00 | 00:00:00 | 00:00:00 | |
| DL1XH1-15 | 2026-08-30 05:56:36 | 49.82181 | 8.47400 | 59° | 16km/h | 18785m | 3.4m/s | -55°C | 4.3% | 70.9hPa | 2.7V | 03:51:15 | 01:26:32 | 00:00:00 | |
| NBG1-10 | 2026-08-30 05:56:36 | 49.82193 | 8.47425 | 44° | 13km/h | 18808m | 5.2m/s | -55.0°C | 4.3% | 70.6hPa | 2.7V | 00:00:00 | 01:26:37 | 00:00:00 | |
| DM0DOS-11 | 2026-08-30 05:56:35 | 49.82179 | 8.47394 | 65° | 15km/h | 18781m | 5.1m/s | -55°C | 4.2% | 70.9hPa | 2.7V | 03:51:16 | 01:26:31 | 00:00:00 | |
| BIOWL1-15 | 2026-08-30 05:56:35 | 49.82190 | 8.47421 | 52° | 15km/h | 18803m | 4.2m/s | -55°C | 1% | 70.7hPa | 2.7V | 03:51:56 | 01:26:36 | 00:00:00 | |
| DL1XH-west | 2026-08-30 05:56:30 | 49.82179 | 8.47394 | 66° | 15km/h | 18781m | 5.1m/s | -55°C | 1% | 70.9hPa | 2.7V | 03:51:56 | 01:26:31 | 00:00:00 | |
| DO3MHA-11 | 2026-08-30 05:56:30 | 49.82179 | 8.47394 | 66° | 11km/h | 18781m | 5.0m/s | -55.0°C | 4.2% | 70.9hPa | 2.6V | 00:00:00 | 01:26:31 | 00:00:00 | |
| DL8DAS-15 | 2026-08-30 05:56:28 | 49.82178 | 8.47389 | 73° | 11km/h | 18777m | 4.7m/s | -55.0°C | 1.4% | 71.0hPa | 2.6V | 03:51:00 | 00:00:00 | 00:00:00 | |
| DL1XH1-15 | 2026-08-30 05:56:26 | 49.82163 | 8.47365 | 30° | 13km/h | 18742m | 2.9m/s | -55°C | 4.3% | 71.3hPa | 2.6V | 03:51:25 | 01:26:22 | 00:00:00 | |
| DM0DOS-11 | 2026-08-30 05:56:25 | 49.82160 | 8.47363 | 24° | 15km/h | 18738m | 4.8m/s | -55°C | 4.3% | 71.4hPa | 2.7V | 03:51:26 | 01:26:21 | 00:00:00 | |
| BIOWL1-15 | 2026-08-30 05:56:24 | 49.82171 | 8.47374 | 35° | 13km/h | 18755m | 4.1m/s | -55°C | 1% | 71.2hPa | 2.7V | 03:51:56 | 01:26:25 | 00:00:00 | |
| DL1XH-west | 2026-08-30 05:56:19 | 49.82156 | 8.47360 | 21° | 16km/h | 18733m | 4.9m/s | -55°C | 1.1% | 71.5hPa | 2.7V | 03:51:56 | 01:26:20 | 00:00:00 | |
| BIOWL1-15 | 2026-08-30 05:56:17 | 49.82137 | 8.47346 | 10° | 11km/h | 18706m | 4.6m/s | -55.1°C | 1.1% | 71.8hPa | 2.7V | 03:51:56 | 01:26:14 | 00:00:00 | |
| DL1XH1-15 | 2026-08-30 05:56:16 | 49.82132 | 8.47347 | 336° | 9km/h | 18698m | 4.8m/s | -55.1°C | 4.4% | 71.9hPa | 2.6V | 03:51:35 | 01:26:12 | 00:00:00 | |
| HSKMA3-T | 2026-08-30 05:56:16 | 49.82145 | 8.47352 | 33° | 15km/h | 18719m | 4.8m/s | -55.1°C | 1% | 0hPa | 2.6V | 04:06:23 | 01:26:17 | 00:00:00 | |
| DK5PH-5 | 2026-08-30 05:56:16 | 49.82145 | 8.47352 | 34° | 11km/h | 18719m | 4.8m/s | -55.1°C | 4.4% | 71.6hPa | 2.6V | 00:00:00 | 01:26:17 | 00:00:00 | |
| DM0DOS-11 | 2026-08-30 05:56:15 | 49.82130 | 8.47348 | 329° | 7km/h | 18692m | 5m/s | -55°C | 4.4% | 71.9hPa | 2.6V | 03:51:36 | 01:26:11 | 00:00:00 | |
| DL1XH-west | 2026-08-30 05:56:08 | 49.82126 | 8.47351 | 346° | 11km/h | 18684m | 4.5m/s | -55°C | 1.1% | 72hPa | 2.7V | 03:51:56 | 01:26:09 | 00:00:00 | |
| DM3KS-11 | 2026-08-30 05:56:07 | 49.82122 | 8.47352 | 356° | 15km/h | 18680m | 4.6m/s | -54.9°C | 1.4% | 72.1hPa | 2.6V | 00:00:00 | 00:00:00 | 00:00:00 | |
| DL1XH1-15 | 2026-08-30 05:56:06 | 49.82101 | 8.47352 | 336° | 11km/h | 18655m | 4.5m/s | -54.8°C | 4.3% | 72.4hPa | 2.6V | 03:51:45 | 01:26:02 | 00:00:00 | |
| DM0DOS-11 | 2026-08-30 05:56:05 | 49.82098 | 8.47354 | 330° | 13km/h | 18650m | 5.5m/s | -54.8°C | 4.3% | 72.4hPa | 2.6V | 03:51:46 | 01:26:01 | 00:00:00 | |
| HSKMA3-T | 2026-08-30 05:56:03 | 49.82106 | 8.47351 | 360° | 13km/h | 18664m | 4.1m/s | -54.9°C | 1% | 0hPa | 2.7V | 04:06:23 | 01:26:04 | 00:00:00 | |
| BIOWL1-15 | 2026-08-30 05:56:02 | 49.82103 | 8.47351 | 350° | 11km/h | 18659m | 4m/s | -54.8°C | 1% | 72.3hPa | 2.7V | 03:51:56 | 01:26:03 | 00:00:00 | |
| DL1XH-west | 2026-08-30 05:55:57 | 49.82093 | 8.47360 | 291° | 4km/h | 18638m | 4.9m/s | -54.7°C | 1.1% | 72.5hPa | 2.7V | 03:51:56 | 01:25:58 | 00:00:00 | |
| BIOWL7-15 | 2026-08-30 05:55:57 | 49.82093 | 8.47360 | 292° | 4km/h | 18638m | 4.9m/s | -54.7°C | 1.4% | 72.6hPa | 2.6V | 03:51:00 | 00:00:00 | 00:00:00 | |
| DO3DL | 2026-08-30 05:55:56 | 49.82093 | 8.47360 | 292° | 4km/h | 18638m | 4.9m/s | -54.7°C | 1.4% | 72.6hPa | 2.6V | 03:51:00 | 00:00:00 | 00:00:00 | |
| DM0DOS-11 | 2026-08-30 05:55:55 | 49.82085 | 8.47353 | 358° | 15km/h | 18608m | 4m/s | -54.5°C | 4.3% | 72.8hPa | 2.6V | 03:51:56 | 01:25:51 | 00:00:00 | |
| BIOWL1-15 | 2026-08-30 05:55:51 | 49.82088 | 8.47353 | 12° | 13km/h | 18612m | 3.5m/s | -54.5°C | 1% | 72.8hPa | 2.7V | 03:51:56 | 01:25:52 | 00:00:00 | |
| DL1XH-west | 2026-08-30 05:55:46 | 49.82075 | 8.47360 | 313° | 5km/h | 18592m | 3.9m/s | -54.3°C | 1% | 73.1hPa | 2.7V | 03:52:47 | 01:25:47 | 00:00:00 | |
| DK5PH-5 | 2026-08-30 05:55:46 | 49.82075 | 8.47360 | 314° | 5km/h | 18592m | 3.8m/s | -54.3°C | 4.2% | 73.0hPa | 2.7V | 00:00:00 | 01:25:47 | 00:00:00 | |
| DM0DOS-11 | 2026-08-30 05:55:45 | 49.82077 | 8.47349 | 115° | 9km/h | 18565m | 3.6m/s | -54.1°C | 4.2% | 73.4hPa | 2.7V | 03:52:06 | 01:25:41 | 00:00:00 | |
| BIOWL1-15 | 2026-08-30 05:55:41 | 49.82076 | 8.47352 | 121° | 9km/h | 18569m | 4.3m/s | -54.2°C | 1% | 73.3hPa | 2.7V | 03:52:47 | 01:25:42 | 00:00:00 | |
| DO3MHA-11 | 2026-08-30 05:55:40 | 49.82077 | 8.47349 | 116° | 5km/h | 18565m | 3.6m/s | -54.1°C | 4.2% | 73.3hPa | 2.7V | 00:00:00 | 01:25:41 | 00:00:00 | |
| DL3AQ-11 | 2026-08-30 05:55:39 | 49.82077 | 8.47345 | 98° | 9km/h | 18560m | 5.0m/s | -54.1°C | 1.4% | 73.4hPa | 2.7V | 00:00:00 | 00:00:00 | 00:00:00 | |
| DD1CC2-15 | 2026-08-30 05:55:38 | 49.82077 | 8.47345 | 99° | 9km/h | 18561m | 5.0m/s | -54.1°C | 1.4% | 73.4hPa | 2.7V | 00:00:00 | 00:00:00 | 00:00:00 | |
| DL1XH1-15 | 2026-08-30 05:55:37 | 49.82074 | 8.47345 | 38° | 4km/h | 18527m | 4.9m/s | -53.8°C | 4.1% | 73.8hPa | 2.7V | 03:52:15 | 01:25:32 | 00:00:00 | |
| DL1XH-west | 2026-08-30 05:55:35 | 49.82076 | 8.47339 | 293° | 4km/h | 18544m | 4.6m/s | -53.9°C | 0.9% | 73.6hPa | 2.7V | 03:52:47 | 01:25:36 | 00:00:00 | |
| BIOWL1-15 | 2026-08-30 05:55:32 | 49.82074 | 8.47343 | 71° | 5km/h | 18523m | 4.2m/s | -53.8°C | 0.9% | 73.9hPa | 2.7V | 03:52:47 | 01:25:31 | 00:00:00 | |
| DL8OAI-8 | 2026-08-30 05:55:31 | 49.82075 | 8.47345 | 308° | 4km/h | 18532m | 5.1m/s | 0°C | 0% | 0hPa | 2.7V | 00:00:00 | 00:00:00 | 00:00:00 | |
| NBG1-10 | 2026-08-30 05:55:30 | 49.82074 | 8.47343 | 71° | 9km/h | 18523m | 4.2m/s | -53.7°C | 4.1% | 73.8hPa | 2.7V | 00:00:00 | 01:25:31 | 00:00:00 | |
| DO3DL | 2026-08-30 05:55:29 | 49.82074 | 8.47343 | 72° | 5km/h | 18523m | 4.2m/s | -53.8°C | 1.3% | 73.9hPa | 2.7V | 03:52:00 | 00:00:00 | 00:00:00 | |
| DL1XH1-15 | 2026-08-30 05:55:26 | 49.82082 | 8.47328 | 50° | 5km/h | 18483m | 4.2m/s | -53.7°C | 4.1% | 74.3hPa | 2.7V | 03:52:25 | 01:25:22 | 00:00:00 | |
| DL1XH-west | 2026-08-30 05:55:25 | 49.82079 | 8.47332 | 166° | 9km/h | 18500m | 4.2m/s | -53.6°C | 0.9% | 74.1hPa | 2.7V | 03:52:47 | 01:25:26 | 00:00:00 | |
| BIOWL1-15 | 2026-08-30 05:55:22 | 49.82081 | 8.47326 | 47° | 7km/h | 18479m | 4.2m/s | -53.7°C | 0.9% | 74.4hPa | 2.7V | 03:52:47 | 01:25:21 | 00:00:00 | |
| DL9PN | 2026-08-30 05:55:21 | 49.82081 | 8.47326 | 46° | 5km/h | 18479m | 4.2m/s | -53.7°C | 1.3% | 74.4hPa | 2.7V | 00:00:00 | 00:00:00 | 00:00:00 | |
| DO3MHA-11 | 2026-08-30 05:55:20 | 49.82081 | 8.47326 | 47° | 9km/h | 18479m | 4.1m/s | -53.6°C | 4.0% | 74.3hPa | 2.7V | 00:00:00 | 01:25:21 | 00:00:00 | |
| DL8DAS-15 | 2026-08-30 05:55:19 | 49.82081 | 8.47326 | 48° | 7km/h | 18479m | 4.2m/s | -53.7°C | 1.4% | 74.4hPa | 2.6V | 03:52:00 | 00:00:00 | 00:00:00 | |
| DD1CC2-15 | 2026-08-30 05:55:18 | 49.82080 | 8.47324 | 58° | 5km/h | 18475m | 4.8m/s | -53.7°C | 1.4% | 74.4hPa | 2.6V | 00:00:00 | 00:00:00 | 00:00:00 | |
| DL1XH1-15 | 2026-08-30 05:55:16 | 49.82089 | 8.47303 | 156° | 13km/h | 18441m | 3.4m/s | -53.7°C | 4.1% | 74.8hPa | 2.6V | 03:52:35 | 01:25:12 | 00:00:00 | |
| DK5PH-5 | 2026-08-30 05:55:16 | 49.82079 | 8.47317 | 93° | 15km/h | 18463m | 5.0m/s | -53.6°C | 4.0% | 74.5hPa | 2.7V | 03:52:00 | 01:25:17 | 00:00:00 | |
| DM0DOS-11 | 2026-08-30 05:55:15 | 49.82091 | 8.47301 | 154° | 9km/h | 18436m | 5.2m/s | -53.8°C | 4.1% | 74.8hPa | 2.7V | 03:52:36 | 01:25:11 | 00:00:00 | |
| DL1XH-west | 2026-08-30 05:55:14 | 49.82081 | 8.47311 | 125° | 11km/h | 18453m | 4.5m/s | -53.7°C | 0.9% | 74.7hPa | 2.7V | 03:52:47 | 01:25:15 | 00:00:00 | |
| BIOWL1-15 | 2026-08-30 05:55:11 | 49.82093 | 8.47300 | 144° | 5km/h | 18432m | 4.4m/s | -53.8°C | 0.9% | 74.9hPa | 2.7V | 03:52:47 | 01:25:10 | 00:00:00 | |
| DL3AQ-11 | 2026-08-30 05:55:11 | 49.82091 | 8.47301 | 154° | 9km/h | 18437m | 5.2m/s | -53.8°C | 1.4% | 74.9hPa | 2.6V | 00:00:00 | 00:00:00 | 00:00:00 | |
| DO3MHA-11 | 2026-08-30 05:55:10 | 49.82091 | 8.47301 | 155° | 13km/h | 18437m | 5.1m/s | -53.7°C | 4.1% | 74.8hPa | 2.6V | 00:00:00 | 01:25:11 | 00:00:00 | |
| DL1XH1-15 | 2026-08-30 05:55:06 | 49.82093 | 8.47272 | 79° | 20km/h | 18397m | 3.2m/s | -53.4°C | 3.9% | 75.3hPa | 2.6V | 03:52:45 | 01:25:02 | 00:00:00 | |
| DM0DOS-11 | 2026-08-30 05:55:05 | 49.82092 | 8.47264 | 90° | 22km/h | 18393m | 3.8m/s | -53.5°C | 3.9% | 75.4hPa | 2.6V | 03:52:46 | 01:25:01 | 00:00:00 | |
| DL1XH-west | 2026-08-30 05:55:04 | 49.82095 | 8.47290 | 87° | 9km/h | 18410m | 3.7m/s | -53.5°C | 0.9% | 75.2hPa | 2.7V | 03:52:47 | 01:25:05 | 00:00:00 | |
| BIOWL1-15 | 2026-08-30 05:54:59 | 49.82093 | 8.47256 | 104° | 22km/h | 18389m | 4.8m/s | -53.6°C | 0.8% | 75.4hPa | 2.7V | 03:52:47 | 01:25:00 | 00:00:00 | |
| NBG1-10 | 2026-08-30 05:54:57 | 49.82098 | 8.47242 | 131° | 24km/h | 18381m | 4.0m/s | -53.5°C | 3.9% | 75.5hPa | 2.6V | 03:52:00 | 01:24:58 | 00:00:00 | |
| DL1XH1-15 | 2026-08-30 05:54:56 | 49.82106 | 8.47209 | 76° | 18km/h | 18356m | 4.2m/s | -53.4°C | 4% | 75.8hPa | 2.6V | 03:52:55 | 01:24:52 | 00:00:00 | |
| DM0DOS-11 | 2026-08-30 05:54:55 | 49.82106 | 8.47202 | 81° | 18km/h | 18351m | 4.4m/s | -53.4°C | 4% | 75.8hPa | 2.6V | 03:52:56 | 01:24:51 | 00:00:00 | |
| DL1XH-west | 2026-08-30 05:54:53 | 49.82108 | 8.47221 | 91° | 15km/h | 18364m | 3.9m/s | -53.4°C | 0.9% | 75.7hPa | 2.7V | 03:53:38 | 01:24:54 | 00:00:00 | |
| BIOWL1-15 | 2026-08-30 05:54:49 | 49.82105 | 8.47194 | 94° | 22km/h | 18347m | 4.5m/s | -53.4°C | 0.8% | 75.9hPa | 2.6V | 03:53:38 | 01:24:50 | 00:00:00 | |
| HSKMA3-T | 2026-08-30 05:54:48 | 49.82106 | 8.47186 | 108° | 22km/h | 18342m | 5.3m/s | -53.4°C | 0.7% | 0hPa | 2.7V | 04:06:23 | 01:24:49 | 00:00:00 | |
| DL1XH1-15 | 2026-08-30 05:54:46 | 49.82112 | 8.47140 | 56° | 16km/h | 18313m | 3.8m/s | -53.9°C | 4.2% | 76.3hPa | 2.6V | 03:53:05 | 01:24:42 | 00:00:00 | |
| AU51GT2 | 2026-08-30 05:54:45 | 49.82114 | 8.47163 | 114° | 18km/h | 18330m | 4.4m/s | -53.8°C | 1.3% | 76.1hPa | 2.7V | 00:00:00 | 00:00:00 | 00:00:00 | |
| DM0DOS-11 | 2026-08-30 05:54:44 | 49.82108 | 8.47129 | 74° | 16km/h | 18304m | 5.3m/s | -53.8°C | 4.1% | 76.4hPa | 2.7V | 03:53:07 | 01:24:40 | 00:00:00 | |
| DL1XH-west | 2026-08-30 05:54:42 | 49.82114 | 8.47146 | 63° | 15km/h | 18317m | 4m/s | -53.9°C | 1% | 76.3hPa | 2.6V | 03:53:38 | 01:24:43 | 00:00:00 | |
| BIOWL1-15 | 2026-08-30 05:54:38 | 49.82107 | 8.47122 | 81° | 20km/h | 18299m | 4.4m/s | -53.8°C | 0.9% | 76.5hPa | 2.7V | 03:53:38 | 01:24:39 | 00:00:00 | |
| DL1XH1-15 | 2026-08-30 05:54:36 | 49.82104 | 8.47033 | 89° | 35km/h | 18267m | 3.2m/s | -53.7°C | 4% | 76.9hPa | 2.6V | 03:53:15 | 01:24:32 | 00:00:00 | |
| DM0DOS-11 | 2026-08-30 05:54:34 | 49.82103 | 8.47007 | 75° | 31km/h | 18258m | 4.4m/s | -53.8°C | 4.1% | 77hPa | 2.6V | 03:53:17 | 01:24:30 | 00:00:00 | |
| DL1XH-west | 2026-08-30 05:54:32 | 49.82104 | 8.47047 | 93° | 37km/h | 18270m | 3m/s | -53.6°C | 0.9% | 76.8hPa | 2.7V | 03:53:38 | 01:24:33 | 00:00:00 | |
| BIOWL1-15 | 2026-08-30 05:54:30 | 49.82100 | 8.46996 | 69° | 29km/h | 18254m | 4.3m/s | -53.9°C | 1% | 77hPa | 2.7V | 03:53:38 | 01:24:29 | 00:00:00 | |
| HEMX73-11 | 2026-08-30 05:54:30 | 49.82104 | 8.47020 | 85° | 35km/h | 18263m | 4.8m/s | -53.7°C | 1.4% | 76.9hPa | 2.7V | 03:53:00 | 00:00:00 | 00:00:00 | |
| BIOWL7-15 | 2026-08-30 05:54:29 | 49.82104 | 8.47020 | 85° | 35km/h | 18263m | 4.8m/s | -53.7°C | 1.4% | 76.9hPa | 2.7V | 00:00:00 | 00:00:00 | 00:00:00 | |
| DM7RM-13 | 2026-08-30 05:54:28 | 49.82103 | 8.47007 | 77° | 31km/h | 18259m | 4.4m/s | -53.8°C | 1.4% | 77.0hPa | 2.7V | 03:53:00 | 00:00:00 | 00:00:00 | |
| DL1XH1-15 | 2026-08-30 05:54:26 | 49.82080 | 8.46920 | 80° | 42km/h | 18226m | 4.1m/s | -53.6°C | 4% | 77.3hPa | 2.7V | 03:53:25 | 01:24:22 | 00:00:00 | |
| DL1XH-west | 2026-08-30 05:54:21 | 49.82080 | 8.46920 | 80° | 42km/h | 18226m | 4.1m/s | -53.6°C | 0.9% | 77.3hPa | 2.7V | 03:53:38 | 01:24:22 | 00:00:00 | |
| DM0DOS-11 | 2026-08-30 05:54:20 | 49.82078 | 8.46887 | 89° | 42km/h | 18218m | 3.4m/s | -53.5°C | 4% | 77.5hPa | 2.6V | 03:53:27 | 01:24:20 | 00:00:00 | |
| BIOWL1-15 | 2026-08-30 05:54:20 | 49.82078 | 8.46871 | 90° | 40km/h | 18214m | 3.4m/s | -53.6°C | 0.8% | 77.5hPa | 2.6V | 03:53:38 | 01:24:19 | 00:00:00 | |
| DL3AQ-11 | 2026-08-30 05:54:20 | 49.82078 | 8.46887 | 89° | 40km/h | 18218m | 3.4m/s | -53.5°C | 1.3% | 77.5hPa | 2.7V | 00:00:00 | 00:00:00 | 00:00:00 | |
| DO1YAY-16 | 2026-08-30 05:54:19 | 49.82078 | 8.46871 | 89° | 38km/h | 18214m | 3.4m/s | -53.6°C | 1.3% | 77.5hPa | 2.7V | 00:00:00 | 00:00:00 | 00:00:00 | |
| DL9PN | 2026-08-30 05:54:18 | 49.82078 | 8.46871 | 89° | 38km/h | 18214m | 3.4m/s | -53.6°C | 1.3% | 77.5hPa | 2.7V | 00:00:00 | 00:00:00 | 00:00:00 | |
| BIOWL9-15 | 2026-08-30 05:54:17 | 49.82078 | 8.46856 | 85° | 37km/h | 18211m | 3.8m/s | -53.6°C | 1.3% | 77.6hPa | 2.7V | 00:00:00 | 00:00:00 | 00:00:00 | |
| DL1XH1-15 | 2026-08-30 05:54:16 | 49.82053 | 8.46784 | 48° | 35km/h | 18184m | 4.7m/s | -53.5°C | 4.1% | 77.9hPa | 2.7V | 03:53:35 | 01:24:12 | 00:00:00 | |
| DL1XH-west | 2026-08-30 05:54:11 | 49.82054 | 8.46784 | 48° | 35km/h | 18184m | 4.7m/s | -53.5°C | 0.9% | 77.9hPa | 2.7V | 03:53:38 | 01:24:12 | 00:00:00 | |
| DM0DOS-11 | 2026-08-30 05:54:10 | 49.82043 | 8.46763 | 57° | 35km/h | 18176m | 3.1m/s | -53.4°C | 4.1% | 78hPa | 2.6V | 03:53:37 | 01:24:10 | 00:00:00 | |
| BIOWL1-15 | 2026-08-30 05:54:07 | 49.82034 | 8.46737 | 63° | 40km/h | 18169m | 4.8m/s | -53.5°C | 0.9% | 78hPa | 2.7V | 03:54:29 | 01:24:08 | 00:00:00 | |
| DO3MHA-11 | 2026-08-30 05:54:07 | 49.82034 | 8.46737 | 64° | 38km/h | 18169m | 4.8m/s | -53.4°C | 4.1% | 78.0hPa | 2.6V | 00:00:00 | 01:24:08 | 00:00:00 | |
| DM0DOS-11 | 2026-08-30 05:54:04 | 49.82002 | 8.46626 | 53° | 35km/h | 18134m | 5.2m/s | -53.4°C | 4% | 78.5hPa | 2.6V | 03:53:47 | 01:24:00 | 00:00:00 | |
| DL1XH-west | 2026-08-30 05:54:00 | 49.82007 | 8.46637 | 60° | 33km/h | 18139m | 4.2m/s | -53.4°C | 0.9% | 78.4hPa | 2.7V | 03:54:29 | 01:24:01 | 00:00:00 | |
| DJ2DS-15 | 2026-08-30 05:54:00 | 49.82006 | 8.46637 | 61° | 40km/h | 18139m | 4.2m/s | -53.4°C | 4.0% | 78.4hPa | 2.6V | 00:00:00 | 01:24:01 | 00:00:00 | |
| DO3MHA-11 | 2026-08-30 05:53:57 | 49.81989 | 8.46604 | 45° | 42km/h | 18125m | 4.2m/s | -53.4°C | 4.0% | 78.5hPa | 2.6V | 00:00:00 | 01:23:58 | 00:00:00 | |
| DL1XH1-15 | 2026-08-30 05:53:56 | 49.81945 | 8.46529 | 52° | 46km/h | 18099m | 4.3m/s | -53.2°C | 4.1% | 78.9hPa | 2.7V | 03:53:55 | 01:23:52 | 00:00:00 | |
| BIOWL1-15 | 2026-08-30 05:53:56 | 49.81982 | 8.46593 | 44° | 42km/h | 18120m | 4.9m/s | -53.4°C | 0.8% | 78.6hPa | 2.7V | 03:54:29 | 01:23:57 | 00:00:00 | |
| DN1GJH-1 | 2026-08-30 05:53:55 | 49.81982 | 8.46592 | 45° | 42km/h | 18121m | 4.9m/s | -53.4°C | 1.4% | 78.6hPa | 2.7V | 00:00:00 | 00:00:00 | 00:00:00 | |
| DM0DOS-11 | 2026-08-30 05:53:54 | 49.81932 | 8.46501 | 59° | 42km/h | 18090m | 5.2m/s | -53.2°C | 4.2% | 79hPa | 2.7V | 03:53:57 | 01:23:50 | 00:00:00 | |
| DL1XH-west | 2026-08-30 05:53:49 | 49.81933 | 8.46501 | 59° | 42km/h | 18090m | 5.3m/s | -53.2°C | 1% | 79hPa | 2.7V | 03:54:29 | 01:23:50 | 00:00:00 | |
| BIOWL1-15 | 2026-08-30 05:53:47 | 49.81913 | 8.46451 | 52° | 37km/h | 18073m | 5.3m/s | -53°C | 0.9% | 79.2hPa | 2.7V | 03:54:29 | 01:23:46 | 00:00:00 | |
| DO3MHA-11 | 2026-08-30 05:53:47 | 49.81923 | 8.46475 | 62° | 38km/h | 18082m | 3.3m/s | -53.0°C | 4.1% | 79.1hPa | 2.6V | 03:53:00 | 01:23:48 | 00:00:00 | |
| DL1XH1-15 | 2026-08-30 05:53:46 | 49.81887 | 8.46408 | 45° | 38km/h | 18054m | 4m/s | -52.8°C | 4.1% | 79.4hPa | 2.6V | 03:54:05 | 01:23:42 | 00:00:00 | |
| DK5PH-5 | 2026-08-30 05:53:46 | 49.81919 | 8.46462 | 58° | 40km/h | 18078m | 5.2m/s | -53.0°C | 4.1% | 79.1hPa | 2.7V | 00:00:00 | 01:23:47 | 00:00:00 | |
| DM0DOS-11 | 2026-08-30 05:53:44 | 49.81873 | 8.46385 | 47° | 44km/h | 18045m | 5.3m/s | -52.8°C | 4.1% | 79.5hPa | 2.7V | 03:54:07 | 01:23:40 | 00:00:00 | |
| DL1XH-west | 2026-08-30 05:53:38 | 49.81866 | 8.46371 | 51° | 47km/h | 18041m | 3.9m/s | -52.7°C | 0.9% | 79.6hPa | 2.7V | 03:54:29 | 01:23:39 | 00:00:00 | |
| DO3DL | 2026-08-30 05:53:37 | 49.81858 | 8.46356 | 56° | 47km/h | 18037m | 3.6m/s | -52.7°C | 1.4% | 79.7hPa | 2.6V | 03:54:00 | 00:00:00 | 00:00:00 | |
| DL1XH1-15 | 2026-08-30 05:53:36 | 49.81831 | 8.46264 | 65° | 38km/h | 18005m | 4.8m/s | -52.4°C | 3.8% | 80.1hPa | 2.6V | 03:54:15 | 01:23:32 | 00:00:00 | |
| DM0DOS-11 | 2026-08-30 05:53:34 | 49.81823 | 8.46239 | 63° | 31km/h | 17995m | 5.7m/s | -52.4°C | 4% | 80.2hPa | 2.7V | 03:54:17 | 01:23:30 | 00:00:00 | |
| BIOWL1-15 | 2026-08-30 05:53:34 | 49.81842 | 8.46309 | 69° | 44km/h | 18021m | 4.7m/s | -52.6°C | 0.8% | 79.8hPa | 2.7V | 03:54:29 | 01:23:35 | 00:00:00 | |
| HSKMA3-T | 2026-08-30 05:53:30 | 49.81827 | 8.46251 | 64° | 35km/h | 18001m | 4.7m/s | -52.4°C | 0.8% | 0hPa | 2.7V | 04:06:23 | 01:23:31 | 00:00:00 | |
| DL1XH-west | 2026-08-30 05:53:28 | 49.81819 | 8.46229 | 60° | 29km/h | 17990m | 4.3m/s | -52.3°C | 0.8% | 80.2hPa | 2.6V | 03:54:29 | 01:23:29 | 00:00:00 | |
| DO3MHA-11 | 2026-08-30 05:53:27 | 49.81815 | 8.46219 | 56° | 40km/h | 17987m | 3.7m/s | -52.2°C | 3.9% | 80.2hPa | 2.6V | 00:00:00 | 01:23:28 | 00:00:00 | |
| DL1XH1-15 | 2026-08-30 05:53:26 | 49.81779 | 8.46144 | 62° | 42km/h | 17960m | 4.1m/s | -52°C | 3.9% | 80.6hPa | 2.6V | 03:54:25 | 01:23:22 | 00:00:00 | |
| BIOWL1-15 | 2026-08-30 05:53:26 | 49.81798 | 8.46186 | 49° | 42km/h | 17973m | 3.7m/s | -52.1°C | 0.8% | 80.5hPa | 2.7V | 03:54:29 | 01:23:25 | 00:00:00 | |
| DL1XH-west | 2026-08-30 05:53:17 | 49.81762 | 8.46082 | 68° | 40km/h | 17941m | 3.8m/s | -51.8°C | 0.8% | 80.9hPa | 2.6V | 03:54:29 | 01:23:18 | 00:00:00 | |
| DO1YAY-16 | 2026-08-30 05:53:17 | 49.81756 | 8.46057 | 65° | 27km/h | 17932m | 4.9m/s | -51.8°C | 1.3% | 81.0hPa | 2.6V | 00:00:00 | 00:00:00 | 00:00:00 | |
| DL1XH1-15 | 2026-08-30 05:53:16 | 49.81739 | 8.46021 | 49° | 37km/h | 17914m | 5.7m/s | -51.6°C | 3.7% | 81.2hPa | 2.6V | 03:54:35 | 01:23:12 | 00:00:00 | |
| BIOWL1-15 | 2026-08-30 05:53:14 | 49.81752 | 8.46048 | 59° | 26km/h | 17928m | 3.3m/s | -51.7°C | 0.8% | 81hPa | 2.7V | 03:55:20 | 01:23:15 | 00:00:00 | |
| DL4BBY-15 | 2026-08-30 05:53:13 | 49.81749 | 8.46039 | 54° | 35km/h | 17925m | 3.6m/s | -52.8°C | 0% | 0hPa | 2.7V | 00:00:00 | 00:00:00 | 00:00:00 | |
| AU51GT2 | 2026-08-30 05:53:12 | 49.81744 | 8.46030 | 48° | 29km/h | 17919m | 5.6m/s | -51.7°C | 1.3% | 81.1hPa | 2.7V | 00:00:00 | 00:00:00 | 00:00:00 | |
| DL3AQ-11 | 2026-08-30 05:53:11 | 49.81732 | 8.46009 | 51° | 40km/h | 17909m | 5.0m/s | -51.6°C | 1.3% | 81.3hPa | 2.7V | 00:00:00 | 00:00:00 | 00:00:00 | |
| DF3TZ-5 | 2026-08-30 05:53:10 | 49.81726 | 8.45996 | 53° | 42km/h | 17904m | 4.3m/s | -51.6°C | 1.2% | 81.3hPa | 2.7V | 00:00:00 | 00:00:00 | 00:00:00 | |
| DO3MHA-11 | 2026-08-30 05:53:07 | 49.81713 | 8.45969 | 57° | 37km/h | 17894m | 5.8m/s | -51.5°C | 3.7% | 81.4hPa | 2.7V | 03:54:00 | 01:23:08 | 00:00:00 | |
| DL1XH1-15 | 2026-08-30 05:53:06 | 49.81689 | 8.45897 | 63° | 35km/h | 17862m | 6m/s | -51.8°C | 3.7% | 81.9hPa | 2.7V | 03:54:45 | 01:23:02 | 00:00:00 | |
| DL1XH-west | 2026-08-30 05:53:06 | 49.81708 | 8.45956 | 59° | 38km/h | 17888m | 5.3m/s | -51.6°C | 0.7% | 81.5hPa | 2.6V | 03:55:20 | 01:23:07 | 00:00:00 | |
| BIOWL1-15 | 2026-08-30 05:53:05 | 49.81696 | 8.45920 | 66° | 33km/h | 17873m | 5m/s | -51.7°C | 0.7% | 81.7hPa | 2.7V | 03:55:20 | 01:23:04 | 00:00:00 | |
| HSKMA3-T | 2026-08-30 05:53:04 | 49.81700 | 8.45932 | 65° | 33km/h | 17878m | 4.9m/s | -51.6°C | 0.7% | 0hPa | 2.6V | 04:06:23 | 01:23:05 | 00:00:00 | |
| DL1XH-west | 2026-08-30 05:52:56 | 49.81671 | 8.45832 | 72° | 35km/h | 17836m | 3.9m/s | -51.8°C | 0.7% | 82.2hPa | 2.7V | 03:55:20 | 01:22:57 | 00:00:00 | |
| DM0DOS-11 | 2026-08-30 05:52:54 | 49.81651 | 8.45748 | 78° | 26km/h | 17805m | 3.6m/s | -51.7°C | 3.5% | 82.5hPa | 2.6V | 03:54:57 | 01:22:50 | 00:00:00 | |
| BIOWL1-15 | 2026-08-30 05:52:53 | 49.81661 | 8.45793 | 66° | 37km/h | 17823m | 3.8m/s | -51.7°C | 0.6% | 82.3hPa | 2.6V | 03:55:20 | 01:22:54 | 00:00:00 | |
| HSKMA3-T | 2026-08-30 05:52:50 | 49.81652 | 8.45758 | 75° | 27km/h | 17809m | 4.4m/s | -51.7°C | 0.6% | 0hPa | 2.7V | 04:06:23 | 01:22:51 | 00:00:00 | |
| DL1XH-west | 2026-08-30 05:52:46 | 49.81647 | 8.45715 | 79° | 33km/h | 17792m | 3.7m/s | -51.8°C | 0.7% | 82.7hPa | 2.7V | 03:55:20 | 01:22:47 | 00:00:00 | |
| DK5PH-5 | 2026-08-30 05:52:46 | 49.81647 | 8.45715 | 80° | 37km/h | 17792m | 3.7m/s | -51.8°C | 3.5% | 82.7hPa | 2.7V | 00:00:00 | 01:22:47 | 00:00:00 | |
| NBG1-10 | 2026-08-30 05:52:45 | 49.81645 | 8.45702 | 81° | 40km/h | 17788m | 3.8m/s | -51.8°C | 3.5% | 82.7hPa | 2.7V | 03:55:00 | 01:22:46 | 00:00:00 | |
| DM0DOS-11 | 2026-08-30 05:52:44 | 49.81636 | 8.45626 | 74° | 33km/h | 17762m | 3.3m/s | -52.8°C | 3.7% | 83.1hPa | 2.6V | 03:55:07 | 01:22:40 | 00:00:00 | |
| BIOWL1-15 | 2026-08-30 05:52:43 | 49.81643 | 8.45677 | 83° | 33km/h | 17779m | 4.2m/s | -52°C | 0.6% | 82.9hPa | 2.6V | 03:55:20 | 01:22:44 | 00:00:00 | |
| BIOWL1-15 | 2026-08-30 05:52:36 | 49.81627 | 8.45541 | 86° | 38km/h | 17731m | 5.2m/s | -53.9°C | 0.9% | 83.5hPa | 2.6V | 03:55:20 | 01:22:33 | 00:00:00 | |
| DF7PN | 2026-08-30 05:52:36 | 49.81630 | 8.45581 | 80° | 29km/h | 17745m | 5.3m/s | -53.7°C | 1.4% | 83.4hPa | 2.7V | 00:00:00 | 00:00:00 | 00:00:00 | |
| DL1XH1-15 | 2026-08-30 05:52:35 | 49.81625 | 8.45510 | 84° | 40km/h | 17723m | 3.3m/s | -53.9°C | 4% | 83.6hPa | 2.7V | 03:55:16 | 01:22:31 | 00:00:00 | |
| DL1XH-west | 2026-08-30 05:52:35 | 49.81630 | 8.45581 | 81° | 31km/h | 17745m | 5.3m/s | -53.7°C | 0.9% | 83.4hPa | 2.7V | 03:55:20 | 01:22:36 | 00:00:00 | |
| DB0NH | 2026-08-30 05:52:34 | 49.81629 | 8.45568 | 81° | 46km/h | 17741m | 4.7m/s | -53.7°C | 3.9% | 83.4hPa | 2.6V | 03:55:00 | 01:22:35 | 00:00:00 | |
| DB0UT-7 | 2026-08-30 05:52:33 | 49.81628 | 8.45555 | 83° | 47km/h | 17736m | 4.0m/s | -53.8°C | 3.9% | 83.4hPa | 2.6V | 00:00:00 | 00:00:00 | 00:00:00 | |
| DL8DAS-15 | 2026-08-30 05:52:32 | 49.81627 | 8.45555 | 84° | 37km/h | 17736m | 4.0m/s | -53.8°C | 1.4% | 83.5hPa | 2.6V | 03:55:00 | 00:00:00 | 00:00:00 | |
| DL3AQ-11 | 2026-08-30 05:52:31 | 49.81625 | 8.45510 | 84° | 40km/h | 17723m | 3.3m/s | -53.9°C | 1.4% | 83.6hPa | 2.6V | 00:00:00 | 00:00:00 | 00:00:00 | |
| DM3KS-11 | 2026-08-30 05:52:30 | 49.81624 | 8.45494 | 80° | 42km/h | 17719m | 4.9m/s | -54.0°C | 1.4% | 83.7hPa | 2.6V | 00:00:00 | 00:00:00 | 00:00:00 | |
| DJ2KF-10 | 2026-08-30 05:52:29 | 49.81624 | 8.45494 | 81° | 49km/h | 17719m | 4.9m/s | -54.0°C | 4.0% | 83.6hPa | 2.6V | 00:00:00 | 01:22:30 | 00:00:00 | |
| DC4HF-4 | 2026-08-30 05:52:28 | 49.81618 | 8.45461 | 71° | 42km/h | 17709m | 4.3m/s | -54.2°C | 1.4% | 83.8hPa | 2.6V | 00:00:00 | 00:00:00 | 00:00:00 | |
| DO3MHA-11 | 2026-08-30 05:52:27 | 49.81618 | 8.45461 | 72° | 40km/h | 17709m | 4.3m/s | -54.2°C | 4.0% | 83.8hPa | 2.6V | 03:55:00 | 01:22:28 | 00:00:00 | |
| DL1XH1-15 | 2026-08-30 05:52:25 | 49.81590 | 8.45360 | 67° | 40km/h | 17679m | 4m/s | -54.6°C | 4.3% | 84.2hPa | 2.7V | 03:55:26 | 01:22:21 | 00:00:00 | |
| DL1XH-west | 2026-08-30 05:52:24 | 49.81608 | 8.45417 | 67° | 38km/h | 17696m | 3.4m/s | -54.4°C | 1% | 84hPa | 2.7V | 03:56:11 | 01:22:25 | 00:00:00 | |
| Es werden nur die letzten 3500 von 5227 Frames angezeigt. GPX/KML und Diagramme bleiben verfügbar. | |||||||||||||||